Files
intotheeast-com-content/pages/01.trips/denmark-2026/cold-hawaii-to-svinkl-v-shelterplads.gpx
T

58926 lines
1.9 MiB
Plaintext

<?xml version='1.0' encoding='UTF-8'?>
<gpx version="1.1" creator="https://www.komoot.de" xmlns="http://www.topografix.com/GPX/1/1" xmlns:xsi="http://www.w3.org/2001/XMLSchema-instance" xsi:schemaLocation="http://www.topografix.com/GPX/1/1 http://www.topografix.com/GPX/1/1/gpx.xsd">
<metadata>
<name>Cold Hawaii to Svinkløv Shelterplads</name>
<author>
<link href="https://www.komoot.de">
<text>komoot</text>
<type>text/html</type>
</link>
</author>
</metadata>
<trk>
<name>Cold Hawaii to Svinkløv Shelterplads</name>
<type>racebike</type>
<trkseg>
<trkpt lat="57.032383" lon="8.480765">
<ele>12.400000</ele>
<time>2026-07-15T08:08:59.000Z</time>
</trkpt>
<trkpt lat="57.032369" lon="8.480805">
<ele>12.400000</ele>
<time>2026-07-15T08:09:00.000Z</time>
</trkpt>
<trkpt lat="57.032355" lon="8.480845">
<ele>12.400000</ele>
<time>2026-07-15T08:09:01.000Z</time>
</trkpt>
<trkpt lat="57.032342" lon="8.480885">
<ele>12.400000</ele>
<time>2026-07-15T08:09:02.000Z</time>
</trkpt>
<trkpt lat="57.032328" lon="8.480923">
<ele>12.400000</ele>
<time>2026-07-15T08:09:03.000Z</time>
</trkpt>
<trkpt lat="57.032269" lon="8.481112">
<ele>12.400000</ele>
<time>2026-07-15T08:09:08.000Z</time>
</trkpt>
<trkpt lat="57.032253" lon="8.481162">
<ele>12.400000</ele>
<time>2026-07-15T08:09:09.000Z</time>
</trkpt>
<trkpt lat="57.032239" lon="8.481216">
<ele>12.400000</ele>
<time>2026-07-15T08:09:10.000Z</time>
</trkpt>
<trkpt lat="57.032227" lon="8.481265">
<ele>12.400000</ele>
<time>2026-07-15T08:09:11.000Z</time>
</trkpt>
<trkpt lat="57.032214" lon="8.481309">
<ele>12.400000</ele>
<time>2026-07-15T08:09:12.000Z</time>
</trkpt>
<trkpt lat="57.032198" lon="8.481365">
<ele>12.400000</ele>
<time>2026-07-15T08:09:13.000Z</time>
</trkpt>
<trkpt lat="57.032180" lon="8.481425">
<ele>12.400000</ele>
<time>2026-07-15T08:09:14.000Z</time>
</trkpt>
<trkpt lat="57.032145" lon="8.481525">
<ele>12.400000</ele>
<time>2026-07-15T08:09:15.000Z</time>
</trkpt>
<trkpt lat="57.032123" lon="8.481598">
<ele>12.400000</ele>
<time>2026-07-15T08:09:16.000Z</time>
</trkpt>
<trkpt lat="57.032104" lon="8.481653">
<ele>12.400000</ele>
<time>2026-07-15T08:09:17.000Z</time>
</trkpt>
<trkpt lat="57.032083" lon="8.481722">
<ele>12.400000</ele>
<time>2026-07-15T08:09:18.000Z</time>
</trkpt>
<trkpt lat="57.032064" lon="8.481779">
<ele>12.400000</ele>
<time>2026-07-15T08:09:19.000Z</time>
</trkpt>
<trkpt lat="57.032049" lon="8.481826">
<ele>12.400000</ele>
<time>2026-07-15T08:09:20.000Z</time>
</trkpt>
<trkpt lat="57.032035" lon="8.481871">
<ele>12.400000</ele>
<time>2026-07-15T08:09:21.000Z</time>
</trkpt>
<trkpt lat="57.032019" lon="8.481918">
<ele>12.400000</ele>
<time>2026-07-15T08:09:22.000Z</time>
</trkpt>
<trkpt lat="57.031985" lon="8.482018">
<ele>12.400000</ele>
<time>2026-07-15T08:09:23.000Z</time>
</trkpt>
<trkpt lat="57.031962" lon="8.482090">
<ele>12.400000</ele>
<time>2026-07-15T08:09:24.000Z</time>
</trkpt>
<trkpt lat="57.031945" lon="8.482144">
<ele>12.400000</ele>
<time>2026-07-15T08:09:25.000Z</time>
</trkpt>
<trkpt lat="57.031921" lon="8.482224">
<ele>12.402268</ele>
<time>2026-07-15T08:09:26.000Z</time>
</trkpt>
<trkpt lat="57.031901" lon="8.482293">
<ele>12.407123</ele>
<time>2026-07-15T08:09:27.000Z</time>
</trkpt>
<trkpt lat="57.031886" lon="8.482340">
<ele>12.410507</ele>
<time>2026-07-15T08:09:28.000Z</time>
</trkpt>
<trkpt lat="57.031862" lon="8.482421">
<ele>12.416235</ele>
<time>2026-07-15T08:09:29.000Z</time>
</trkpt>
<trkpt lat="57.031837" lon="8.482510">
<ele>12.422455</ele>
<time>2026-07-15T08:09:30.000Z</time>
</trkpt>
<trkpt lat="57.031814" lon="8.482582">
<ele>12.427640</ele>
<time>2026-07-15T08:09:31.000Z</time>
</trkpt>
<trkpt lat="57.031798" lon="8.482629">
<ele>12.431083</ele>
<time>2026-07-15T08:09:32.000Z</time>
</trkpt>
<trkpt lat="57.031767" lon="8.482726">
<ele>12.438069</ele>
<time>2026-07-15T08:09:33.000Z</time>
</trkpt>
<trkpt lat="57.031736" lon="8.482831">
<ele>12.445488</ele>
<time>2026-07-15T08:09:34.000Z</time>
</trkpt>
<trkpt lat="57.031722" lon="8.482891">
<ele>12.449543</ele>
<time>2026-07-15T08:09:35.000Z</time>
</trkpt>
<trkpt lat="57.031697" lon="8.482968">
<ele>12.455111</ele>
<time>2026-07-15T08:09:36.000Z</time>
</trkpt>
<trkpt lat="57.031664" lon="8.483080">
<ele>12.463021</ele>
<time>2026-07-15T08:09:37.000Z</time>
</trkpt>
<trkpt lat="57.031638" lon="8.483170">
<ele>12.469350</ele>
<time>2026-07-15T08:09:38.000Z</time>
</trkpt>
<trkpt lat="57.031620" lon="8.483235">
<ele>12.473879</ele>
<time>2026-07-15T08:09:39.000Z</time>
</trkpt>
<trkpt lat="57.031600" lon="8.483295">
<ele>12.478249</ele>
<time>2026-07-15T08:09:40.000Z</time>
</trkpt>
<trkpt lat="57.031560" lon="8.483416">
<ele>12.487042</ele>
<time>2026-07-15T08:09:41.000Z</time>
</trkpt>
<trkpt lat="57.031530" lon="8.483506">
<ele>12.493597</ele>
<time>2026-07-15T08:09:42.000Z</time>
</trkpt>
<trkpt lat="57.031503" lon="8.483583">
<ele>12.499286</ele>
<time>2026-07-15T08:09:43.000Z</time>
</trkpt>
<trkpt lat="57.031478" lon="8.483657">
<ele>12.504695</ele>
<time>2026-07-15T08:09:44.000Z</time>
</trkpt>
<trkpt lat="57.031455" lon="8.483720">
<ele>12.509407</ele>
<time>2026-07-15T08:09:45.000Z</time>
</trkpt>
<trkpt lat="57.031430" lon="8.483793">
<ele>12.514763</ele>
<time>2026-07-15T08:09:46.000Z</time>
</trkpt>
<trkpt lat="57.031407" lon="8.483860">
<ele>12.519683</ele>
<time>2026-07-15T08:09:47.000Z</time>
</trkpt>
<trkpt lat="57.031382" lon="8.483934">
<ele>12.525093</ele>
<time>2026-07-15T08:09:48.000Z</time>
</trkpt>
<trkpt lat="57.031359" lon="8.484000">
<ele>12.529960</ele>
<time>2026-07-15T08:09:49.000Z</time>
</trkpt>
<trkpt lat="57.031310" lon="8.484141">
<ele>12.540350</ele>
<time>2026-07-15T08:09:50.000Z</time>
</trkpt>
<trkpt lat="57.031282" lon="8.484220">
<ele>12.546206</ele>
<time>2026-07-15T08:09:51.000Z</time>
</trkpt>
<trkpt lat="57.031259" lon="8.484295">
<ele>12.551552</ele>
<time>2026-07-15T08:09:52.000Z</time>
</trkpt>
<trkpt lat="57.031234" lon="8.484370">
<ele>12.557015</ele>
<time>2026-07-15T08:09:53.000Z</time>
</trkpt>
<trkpt lat="57.031207" lon="8.484442">
<ele>12.562445</ele>
<time>2026-07-15T08:09:54.000Z</time>
</trkpt>
<trkpt lat="57.031183" lon="8.484518">
<ele>12.567903</ele>
<time>2026-07-15T08:09:55.000Z</time>
</trkpt>
<trkpt lat="57.031161" lon="8.484587">
<ele>12.572869</ele>
<time>2026-07-15T08:09:56.000Z</time>
</trkpt>
<trkpt lat="57.031135" lon="8.484660">
<ele>12.578288</ele>
<time>2026-07-15T08:09:57.000Z</time>
</trkpt>
<trkpt lat="57.031112" lon="8.484737">
<ele>12.583743</ele>
<time>2026-07-15T08:09:58.000Z</time>
</trkpt>
<trkpt lat="57.031095" lon="8.484807">
<ele>12.588504</ele>
<time>2026-07-15T08:09:59.000Z</time>
</trkpt>
<trkpt lat="57.031074" lon="8.484883">
<ele>12.593797</ele>
<time>2026-07-15T08:10:00.000Z</time>
</trkpt>
<trkpt lat="57.031053" lon="8.484957">
<ele>12.598981</ele>
<time>2026-07-15T08:10:01.000Z</time>
</trkpt>
<trkpt lat="57.031038" lon="8.485022">
<ele>12.603366</ele>
<time>2026-07-15T08:10:02.000Z</time>
</trkpt>
<trkpt lat="57.030992" lon="8.485169">
<ele>12.653803</ele>
<time>2026-07-15T08:10:03.000Z</time>
</trkpt>
<trkpt lat="57.030965" lon="8.485259">
<ele>12.689726</ele>
<time>2026-07-15T08:10:04.000Z</time>
</trkpt>
<trkpt lat="57.030943" lon="8.485324">
<ele>12.716483</ele>
<time>2026-07-15T08:10:05.000Z</time>
</trkpt>
<trkpt lat="57.030921" lon="8.485395">
<ele>12.745041</ele>
<time>2026-07-15T08:10:06.000Z</time>
</trkpt>
<trkpt lat="57.030900" lon="8.485460">
<ele>12.771464</ele>
<time>2026-07-15T08:10:07.000Z</time>
</trkpt>
<trkpt lat="57.030876" lon="8.485534">
<ele>12.801576</ele>
<time>2026-07-15T08:10:08.000Z</time>
</trkpt>
<trkpt lat="57.030852" lon="8.485616">
<ele>12.834121</ele>
<time>2026-07-15T08:10:09.000Z</time>
</trkpt>
<trkpt lat="57.030829" lon="8.485689">
<ele>12.863606</ele>
<time>2026-07-15T08:10:10.000Z</time>
</trkpt>
<trkpt lat="57.030806" lon="8.485763">
<ele>12.893394</ele>
<time>2026-07-15T08:10:11.000Z</time>
</trkpt>
<trkpt lat="57.030781" lon="8.485851">
<ele>12.928094</ele>
<time>2026-07-15T08:10:12.000Z</time>
</trkpt>
<trkpt lat="57.030758" lon="8.485926">
<ele>12.958186</ele>
<time>2026-07-15T08:10:13.000Z</time>
</trkpt>
<trkpt lat="57.030738" lon="8.485991">
<ele>12.984287</ele>
<time>2026-07-15T08:10:14.000Z</time>
</trkpt>
<trkpt lat="57.030719" lon="8.486075">
<ele>13.016084</ele>
<time>2026-07-15T08:10:15.000Z</time>
</trkpt>
<trkpt lat="57.030705" lon="8.486133">
<ele>13.038263</ele>
<time>2026-07-15T08:10:16.000Z</time>
</trkpt>
<trkpt lat="57.030671" lon="8.486301">
<ele>13.100916</ele>
<time>2026-07-15T08:10:17.000Z</time>
</trkpt>
<trkpt lat="57.030655" lon="8.486385">
<ele>13.132025</ele>
<time>2026-07-15T08:10:18.000Z</time>
</trkpt>
<trkpt lat="57.030641" lon="8.486459">
<ele>13.159410</ele>
<time>2026-07-15T08:10:19.000Z</time>
</trkpt>
<trkpt lat="57.030631" lon="8.486524">
<ele>13.183021</ele>
<time>2026-07-15T08:10:20.000Z</time>
</trkpt>
<trkpt lat="57.030619" lon="8.486603">
<ele>13.211691</ele>
<time>2026-07-15T08:10:21.000Z</time>
</trkpt>
<trkpt lat="57.030617" lon="8.486672">
<ele>13.235844</ele>
<time>2026-07-15T08:10:22.000Z</time>
</trkpt>
<trkpt lat="57.030614" lon="8.486740">
<ele>13.259691</ele>
<time>2026-07-15T08:10:23.000Z</time>
</trkpt>
<trkpt lat="57.030610" lon="8.486792">
<ele>13.278048</ele>
<time>2026-07-15T08:10:24.000Z</time>
</trkpt>
<trkpt lat="57.030612" lon="8.486843">
<ele>13.295921</ele>
<time>2026-07-15T08:10:25.000Z</time>
</trkpt>
<trkpt lat="57.030618" lon="8.486875">
<ele>13.307752</ele>
<time>2026-07-15T08:10:26.000Z</time>
</trkpt>
<trkpt lat="57.030632" lon="8.486922">
<ele>13.326481</ele>
<time>2026-07-15T08:10:27.000Z</time>
</trkpt>
<trkpt lat="57.030650" lon="8.486940">
<ele>13.339644</ele>
<time>2026-07-15T08:10:28.000Z</time>
</trkpt>
<trkpt lat="57.030682" lon="8.486968">
<ele>13.362410</ele>
<time>2026-07-15T08:10:29.000Z</time>
</trkpt>
<trkpt lat="57.030703" lon="8.486987">
<ele>13.377445</ele>
<time>2026-07-15T08:10:30.000Z</time>
</trkpt>
<trkpt lat="57.030729" lon="8.487006">
<ele>13.395417</ele>
<time>2026-07-15T08:10:31.000Z</time>
</trkpt>
<trkpt lat="57.030758" lon="8.487024">
<ele>13.415079</ele>
<time>2026-07-15T08:10:32.000Z</time>
</trkpt>
<trkpt lat="57.030816" lon="8.487053">
<ele>13.453688</ele>
<time>2026-07-15T08:10:33.000Z</time>
</trkpt>
<trkpt lat="57.030854" lon="8.487079">
<ele>13.479734</ele>
<time>2026-07-15T08:10:34.000Z</time>
</trkpt>
<trkpt lat="57.030896" lon="8.487102">
<ele>13.507884</ele>
<time>2026-07-15T08:10:35.000Z</time>
</trkpt>
<trkpt lat="57.030938" lon="8.487131">
<ele>13.536703</ele>
<time>2026-07-15T08:10:36.000Z</time>
</trkpt>
<trkpt lat="57.030979" lon="8.487159">
<ele>13.564798</ele>
<time>2026-07-15T08:10:37.000Z</time>
</trkpt>
<trkpt lat="57.031020" lon="8.487194">
<ele>13.593836</ele>
<time>2026-07-15T08:10:38.000Z</time>
</trkpt>
<trkpt lat="57.031062" lon="8.487228">
<ele>13.623316</ele>
<time>2026-07-15T08:10:39.000Z</time>
</trkpt>
<trkpt lat="57.031105" lon="8.487262">
<ele>13.653384</ele>
<time>2026-07-15T08:10:40.000Z</time>
</trkpt>
<trkpt lat="57.031144" lon="8.487303">
<ele>13.682245</ele>
<time>2026-07-15T08:10:41.000Z</time>
</trkpt>
<trkpt lat="57.031189" lon="8.487347">
<ele>13.714986</ele>
<time>2026-07-15T08:10:42.000Z</time>
</trkpt>
<trkpt lat="57.031231" lon="8.487397">
<ele>13.747131</ele>
<time>2026-07-15T08:10:43.000Z</time>
</trkpt>
<trkpt lat="57.031273" lon="8.487448">
<ele>13.737957</ele>
<time>2026-07-15T08:10:44.000Z</time>
</trkpt>
<trkpt lat="57.031315" lon="8.487501">
<ele>13.698718</ele>
<time>2026-07-15T08:10:45.000Z</time>
</trkpt>
<trkpt lat="57.031361" lon="8.487554">
<ele>13.656904</ele>
<time>2026-07-15T08:10:46.000Z</time>
</trkpt>
<trkpt lat="57.031403" lon="8.487607">
<ele>13.617665</ele>
<time>2026-07-15T08:10:47.000Z</time>
</trkpt>
<trkpt lat="57.031441" lon="8.487664">
<ele>13.579887</ele>
<time>2026-07-15T08:10:48.000Z</time>
</trkpt>
<trkpt lat="57.031479" lon="8.487724">
<ele>13.541302</ele>
<time>2026-07-15T08:10:49.000Z</time>
</trkpt>
<trkpt lat="57.031518" lon="8.487786">
<ele>13.501587</ele>
<time>2026-07-15T08:10:50.000Z</time>
</trkpt>
<trkpt lat="57.031556" lon="8.487847">
<ele>13.462727</ele>
<time>2026-07-15T08:10:51.000Z</time>
</trkpt>
<trkpt lat="57.031594" lon="8.487905">
<ele>13.424683</ele>
<time>2026-07-15T08:10:52.000Z</time>
</trkpt>
<trkpt lat="57.031632" lon="8.487963">
<ele>13.386639</ele>
<time>2026-07-15T08:10:53.000Z</time>
</trkpt>
<trkpt lat="57.031670" lon="8.488019">
<ele>13.349125</ele>
<time>2026-07-15T08:10:54.000Z</time>
</trkpt>
<trkpt lat="57.031705" lon="8.488073">
<ele>13.313929</ele>
<time>2026-07-15T08:10:55.000Z</time>
</trkpt>
<trkpt lat="57.031743" lon="8.488126">
<ele>13.277189</ele>
<time>2026-07-15T08:10:56.000Z</time>
</trkpt>
<trkpt lat="57.031777" lon="8.488176">
<ele>13.243651</ele>
<time>2026-07-15T08:10:57.000Z</time>
</trkpt>
<trkpt lat="57.031811" lon="8.488223">
<ele>13.210884</ele>
<time>2026-07-15T08:10:58.000Z</time>
</trkpt>
<trkpt lat="57.031843" lon="8.488265">
<ele>13.180599</ele>
<time>2026-07-15T08:10:59.000Z</time>
</trkpt>
<trkpt lat="57.031880" lon="8.488317">
<ele>13.144725</ele>
<time>2026-07-15T08:11:00.000Z</time>
</trkpt>
<trkpt lat="57.031910" lon="8.488371">
<ele>13.112384</ele>
<time>2026-07-15T08:11:01.000Z</time>
</trkpt>
<trkpt lat="57.031937" lon="8.488422">
<ele>13.082563</ele>
<time>2026-07-15T08:11:02.000Z</time>
</trkpt>
<trkpt lat="57.031964" lon="8.488467">
<ele>13.054491</ele>
<time>2026-07-15T08:11:03.000Z</time>
</trkpt>
<trkpt lat="57.032002" lon="8.488526">
<ele>13.016178</ele>
<time>2026-07-15T08:11:04.000Z</time>
</trkpt>
<trkpt lat="57.032031" lon="8.488579">
<ele>12.984679</ele>
<time>2026-07-15T08:11:05.000Z</time>
</trkpt>
<trkpt lat="57.032067" lon="8.488638">
<ele>12.947529</ele>
<time>2026-07-15T08:11:06.000Z</time>
</trkpt>
<trkpt lat="57.032100" lon="8.488697">
<ele>12.912070</ele>
<time>2026-07-15T08:11:07.000Z</time>
</trkpt>
<trkpt lat="57.032136" lon="8.488761">
<ele>12.873494</ele>
<time>2026-07-15T08:11:08.000Z</time>
</trkpt>
<trkpt lat="57.032173" lon="8.488822">
<ele>12.835212</ele>
<time>2026-07-15T08:11:09.000Z</time>
</trkpt>
<trkpt lat="57.032214" lon="8.488881">
<ele>12.795106</ele>
<time>2026-07-15T08:11:10.000Z</time>
</trkpt>
<trkpt lat="57.032252" lon="8.488941">
<ele>12.756522</ele>
<time>2026-07-15T08:11:11.000Z</time>
</trkpt>
<trkpt lat="57.032295" lon="8.489002">
<ele>12.714686</ele>
<time>2026-07-15T08:11:12.000Z</time>
</trkpt>
<trkpt lat="57.032336" lon="8.489066">
<ele>12.673255</ele>
<time>2026-07-15T08:11:13.000Z</time>
</trkpt>
<trkpt lat="57.032383" lon="8.489132">
<ele>12.627700</ele>
<time>2026-07-15T08:11:14.000Z</time>
</trkpt>
<trkpt lat="57.032425" lon="8.489204">
<ele>12.583464</ele>
<time>2026-07-15T08:11:15.000Z</time>
</trkpt>
<trkpt lat="57.032464" lon="8.489276">
<ele>12.540889</ele>
<time>2026-07-15T08:11:16.000Z</time>
</trkpt>
<trkpt lat="57.032505" lon="8.489345">
<ele>12.498073</ele>
<time>2026-07-15T08:11:17.000Z</time>
</trkpt>
<trkpt lat="57.032546" lon="8.489415">
<ele>12.454972</ele>
<time>2026-07-15T08:11:18.000Z</time>
</trkpt>
<trkpt lat="57.032595" lon="8.489480">
<ele>12.408430</ele>
<time>2026-07-15T08:11:19.000Z</time>
</trkpt>
<trkpt lat="57.032642" lon="8.489542">
<ele>12.369121</ele>
<time>2026-07-15T08:11:20.000Z</time>
</trkpt>
<trkpt lat="57.032687" lon="8.489601">
<ele>12.345996</ele>
<time>2026-07-15T08:11:21.000Z</time>
</trkpt>
<trkpt lat="57.032737" lon="8.489660">
<ele>12.321139</ele>
<time>2026-07-15T08:11:22.000Z</time>
</trkpt>
<trkpt lat="57.032784" lon="8.489721">
<ele>12.297069</ele>
<time>2026-07-15T08:11:23.000Z</time>
</trkpt>
<trkpt lat="57.032831" lon="8.489772">
<ele>12.274236</ele>
<time>2026-07-15T08:11:24.000Z</time>
</trkpt>
<trkpt lat="57.032887" lon="8.489830">
<ele>12.247345</ele>
<time>2026-07-15T08:11:25.000Z</time>
</trkpt>
<trkpt lat="57.032937" lon="8.489880">
<ele>12.223532</ele>
<time>2026-07-15T08:11:26.000Z</time>
</trkpt>
<trkpt lat="57.032985" lon="8.489921">
<ele>12.201390</ele>
<time>2026-07-15T08:11:27.000Z</time>
</trkpt>
<trkpt lat="57.033035" lon="8.489966">
<ele>12.178100</ele>
<time>2026-07-15T08:11:28.000Z</time>
</trkpt>
<trkpt lat="57.033087" lon="8.490010">
<ele>12.154151</ele>
<time>2026-07-15T08:11:29.000Z</time>
</trkpt>
<trkpt lat="57.033139" lon="8.490058">
<ele>12.129808</ele>
<time>2026-07-15T08:11:30.000Z</time>
</trkpt>
<trkpt lat="57.033192" lon="8.490105">
<ele>12.105191</ele>
<time>2026-07-15T08:11:31.000Z</time>
</trkpt>
<trkpt lat="57.033245" lon="8.490152">
<ele>12.080573</ele>
<time>2026-07-15T08:11:32.000Z</time>
</trkpt>
<trkpt lat="57.033298" lon="8.490195">
<ele>12.056337</ele>
<time>2026-07-15T08:11:33.000Z</time>
</trkpt>
<trkpt lat="57.033352" lon="8.490242">
<ele>12.031342</ele>
<time>2026-07-15T08:11:34.000Z</time>
</trkpt>
<trkpt lat="57.033403" lon="8.490285">
<ele>12.007869</ele>
<time>2026-07-15T08:11:35.000Z</time>
</trkpt>
<trkpt lat="57.033457" lon="8.490334">
<ele>11.982676</ele>
<time>2026-07-15T08:11:36.000Z</time>
</trkpt>
<trkpt lat="57.033510" lon="8.490381">
<ele>11.958058</ele>
<time>2026-07-15T08:11:37.000Z</time>
</trkpt>
<trkpt lat="57.033565" lon="8.490430">
<ele>11.932489</ele>
<time>2026-07-15T08:11:38.000Z</time>
</trkpt>
<trkpt lat="57.033618" lon="8.490475">
<ele>11.908066</ele>
<time>2026-07-15T08:11:39.000Z</time>
</trkpt>
<trkpt lat="57.033676" lon="8.490523">
<ele>11.881456</ele>
<time>2026-07-15T08:11:40.000Z</time>
</trkpt>
<trkpt lat="57.033728" lon="8.490571">
<ele>11.857113</ele>
<time>2026-07-15T08:11:41.000Z</time>
</trkpt>
<trkpt lat="57.033784" lon="8.490619">
<ele>11.831264</ele>
<time>2026-07-15T08:11:42.000Z</time>
</trkpt>
<trkpt lat="57.033831" lon="8.490660">
<ele>11.809500</ele>
<time>2026-07-15T08:11:43.000Z</time>
</trkpt>
<trkpt lat="57.033890" lon="8.490711">
<ele>11.782224</ele>
<time>2026-07-15T08:11:44.000Z</time>
</trkpt>
<trkpt lat="57.033938" lon="8.490752">
<ele>11.760082</ele>
<time>2026-07-15T08:11:45.000Z</time>
</trkpt>
<trkpt lat="57.033997" lon="8.490802">
<ele>11.732903</ele>
<time>2026-07-15T08:11:46.000Z</time>
</trkpt>
<trkpt lat="57.034051" lon="8.490847">
<ele>11.708099</ele>
<time>2026-07-15T08:11:47.000Z</time>
</trkpt>
<trkpt lat="57.034099" lon="8.490890">
<ele>11.685761</ele>
<time>2026-07-15T08:11:48.000Z</time>
</trkpt>
<trkpt lat="57.034155" lon="8.490939">
<ele>11.659815</ele>
<time>2026-07-15T08:11:49.000Z</time>
</trkpt>
<trkpt lat="57.034213" lon="8.490986">
<ele>11.633298</ele>
<time>2026-07-15T08:11:50.000Z</time>
</trkpt>
<trkpt lat="57.034263" lon="8.491031">
<ele>11.611379</ele>
<time>2026-07-15T08:11:51.000Z</time>
</trkpt>
<trkpt lat="57.034315" lon="8.491078">
<ele>11.589706</ele>
<time>2026-07-15T08:11:52.000Z</time>
</trkpt>
<trkpt lat="57.034369" lon="8.491126">
<ele>11.567273</ele>
<time>2026-07-15T08:11:53.000Z</time>
</trkpt>
<trkpt lat="57.034424" lon="8.491174">
<ele>11.544502</ele>
<time>2026-07-15T08:11:54.000Z</time>
</trkpt>
<trkpt lat="57.034472" lon="8.491219">
<ele>11.524350</ele>
<time>2026-07-15T08:11:55.000Z</time>
</trkpt>
<trkpt lat="57.034527" lon="8.491266">
<ele>11.501666</ele>
<time>2026-07-15T08:11:56.000Z</time>
</trkpt>
<trkpt lat="57.034581" lon="8.491310">
<ele>11.479575</ele>
<time>2026-07-15T08:11:57.000Z</time>
</trkpt>
<trkpt lat="57.034634" lon="8.491357">
<ele>11.457566</ele>
<time>2026-07-15T08:11:58.000Z</time>
</trkpt>
<trkpt lat="57.034686" lon="8.491402">
<ele>11.436071</ele>
<time>2026-07-15T08:11:59.000Z</time>
</trkpt>
<trkpt lat="57.034740" lon="8.491451">
<ele>11.413548</ele>
<time>2026-07-15T08:12:00.000Z</time>
</trkpt>
<trkpt lat="57.034791" lon="8.491498">
<ele>11.392211</ele>
<time>2026-07-15T08:12:01.000Z</time>
</trkpt>
<trkpt lat="57.034844" lon="8.491543">
<ele>11.370377</ele>
<time>2026-07-15T08:12:02.000Z</time>
</trkpt>
<trkpt lat="57.034897" lon="8.491589">
<ele>11.348456</ele>
<time>2026-07-15T08:12:03.000Z</time>
</trkpt>
<trkpt lat="57.034947" lon="8.491634">
<ele>11.327635</ele>
<time>2026-07-15T08:12:04.000Z</time>
</trkpt>
<trkpt lat="57.034995" lon="8.491676">
<ele>11.307753</ele>
<time>2026-07-15T08:12:05.000Z</time>
</trkpt>
<trkpt lat="57.035052" lon="8.491722">
<ele>11.284471</ele>
<time>2026-07-15T08:12:06.000Z</time>
</trkpt>
<trkpt lat="57.035107" lon="8.491768">
<ele>11.261872</ele>
<time>2026-07-15T08:12:07.000Z</time>
</trkpt>
<trkpt lat="57.035156" lon="8.491814">
<ele>11.241294</ele>
<time>2026-07-15T08:12:08.000Z</time>
</trkpt>
<trkpt lat="57.035204" lon="8.491857">
<ele>11.221324</ele>
<time>2026-07-15T08:12:09.000Z</time>
</trkpt>
<trkpt lat="57.035251" lon="8.491900">
<ele>11.201689</ele>
<time>2026-07-15T08:12:10.000Z</time>
</trkpt>
<trkpt lat="57.035304" lon="8.491949">
<ele>11.179501</ele>
<time>2026-07-15T08:12:11.000Z</time>
</trkpt>
<trkpt lat="57.035358" lon="8.491993">
<ele>11.157410</ele>
<time>2026-07-15T08:12:12.000Z</time>
</trkpt>
<trkpt lat="57.035404" lon="8.492039">
<ele>11.137825</ele>
<time>2026-07-15T08:12:13.000Z</time>
</trkpt>
<trkpt lat="57.035457" lon="8.492082">
<ele>11.116158</ele>
<time>2026-07-15T08:12:14.000Z</time>
</trkpt>
<trkpt lat="57.035507" lon="8.492130">
<ele>11.095061</ele>
<time>2026-07-15T08:12:15.000Z</time>
</trkpt>
<trkpt lat="57.035557" lon="8.492178">
<ele>11.073964</ele>
<time>2026-07-15T08:12:16.000Z</time>
</trkpt>
<trkpt lat="57.035610" lon="8.492228">
<ele>11.051684</ele>
<time>2026-07-15T08:12:17.000Z</time>
</trkpt>
<trkpt lat="57.035663" lon="8.492275">
<ele>11.029676</ele>
<time>2026-07-15T08:12:18.000Z</time>
</trkpt>
<trkpt lat="57.035716" lon="8.492319">
<ele>11.007926</ele>
<time>2026-07-15T08:12:19.000Z</time>
</trkpt>
<trkpt lat="57.035769" lon="8.492362">
<ele>10.986260</ele>
<time>2026-07-15T08:12:20.000Z</time>
</trkpt>
<trkpt lat="57.035821" lon="8.492414">
<ele>10.964120</ele>
<time>2026-07-15T08:12:21.000Z</time>
</trkpt>
<trkpt lat="57.035874" lon="8.492463">
<ele>10.933819</ele>
<time>2026-07-15T08:12:22.000Z</time>
</trkpt>
<trkpt lat="57.035927" lon="8.492510">
<ele>10.890401</ele>
<time>2026-07-15T08:12:23.000Z</time>
</trkpt>
<trkpt lat="57.035981" lon="8.492557">
<ele>10.846318</ele>
<time>2026-07-15T08:12:24.000Z</time>
</trkpt>
<trkpt lat="57.036028" lon="8.492599">
<ele>10.807760</ele>
<time>2026-07-15T08:12:25.000Z</time>
</trkpt>
<trkpt lat="57.036088" lon="8.492651">
<ele>10.758817</ele>
<time>2026-07-15T08:12:26.000Z</time>
</trkpt>
<trkpt lat="57.036141" lon="8.492699">
<ele>10.715223</ele>
<time>2026-07-15T08:12:27.000Z</time>
</trkpt>
<trkpt lat="57.036190" lon="8.492745">
<ele>10.674628</ele>
<time>2026-07-15T08:12:28.000Z</time>
</trkpt>
<trkpt lat="57.036244" lon="8.492793">
<ele>10.630372</ele>
<time>2026-07-15T08:12:29.000Z</time>
</trkpt>
<trkpt lat="57.036292" lon="8.492837">
<ele>10.590797</ele>
<time>2026-07-15T08:12:30.000Z</time>
</trkpt>
<trkpt lat="57.036343" lon="8.492885">
<ele>10.548522</ele>
<time>2026-07-15T08:12:31.000Z</time>
</trkpt>
<trkpt lat="57.036391" lon="8.492934">
<ele>10.508011</ele>
<time>2026-07-15T08:12:32.000Z</time>
</trkpt>
<trkpt lat="57.036442" lon="8.492984">
<ele>10.465365</ele>
<time>2026-07-15T08:12:33.000Z</time>
</trkpt>
<trkpt lat="57.036491" lon="8.493034">
<ele>10.424014</ele>
<time>2026-07-15T08:12:34.000Z</time>
</trkpt>
<trkpt lat="57.036543" lon="8.493081">
<ele>10.381260</ele>
<time>2026-07-15T08:12:35.000Z</time>
</trkpt>
<trkpt lat="57.036594" lon="8.493130">
<ele>10.338801</ele>
<time>2026-07-15T08:12:36.000Z</time>
</trkpt>
<trkpt lat="57.036644" lon="8.493179">
<ele>10.296994</ele>
<time>2026-07-15T08:12:37.000Z</time>
</trkpt>
<trkpt lat="57.036695" lon="8.493226">
<ele>10.254901</ele>
<time>2026-07-15T08:12:38.000Z</time>
</trkpt>
<trkpt lat="57.036742" lon="8.493273">
<ele>10.215424</ele>
<time>2026-07-15T08:12:39.000Z</time>
</trkpt>
<trkpt lat="57.036780" lon="8.493312">
<ele>10.183313</ele>
<time>2026-07-15T08:12:40.000Z</time>
</trkpt>
<trkpt lat="57.036837" lon="8.493370">
<ele>10.135243</ele>
<time>2026-07-15T08:12:41.000Z</time>
</trkpt>
<trkpt lat="57.036886" lon="8.493415">
<ele>10.094829</ele>
<time>2026-07-15T08:12:42.000Z</time>
</trkpt>
<trkpt lat="57.036931" lon="8.493459">
<ele>10.057222</ele>
<time>2026-07-15T08:12:43.000Z</time>
</trkpt>
<trkpt lat="57.036975" lon="8.493498">
<ele>10.021180</ele>
<time>2026-07-15T08:12:44.000Z</time>
</trkpt>
<trkpt lat="57.037020" lon="8.493535">
<ele>9.984808</ele>
<time>2026-07-15T08:12:45.000Z</time>
</trkpt>
<trkpt lat="57.037063" lon="8.493571">
<ele>9.949947</ele>
<time>2026-07-15T08:12:46.000Z</time>
</trkpt>
<trkpt lat="57.037110" lon="8.493607">
<ele>9.912379</ele>
<time>2026-07-15T08:12:47.000Z</time>
</trkpt>
<trkpt lat="57.037163" lon="8.493638">
<ele>9.871343</ele>
<time>2026-07-15T08:12:48.000Z</time>
</trkpt>
<trkpt lat="57.037216" lon="8.493667">
<ele>9.830544</ele>
<time>2026-07-15T08:12:49.000Z</time>
</trkpt>
<trkpt lat="57.037273" lon="8.493687">
<ele>9.787730</ele>
<time>2026-07-15T08:12:50.000Z</time>
</trkpt>
<trkpt lat="57.037337" lon="8.493703">
<ele>9.740076</ele>
<time>2026-07-15T08:12:51.000Z</time>
</trkpt>
<trkpt lat="57.037395" lon="8.493710">
<ele>9.697191</ele>
<time>2026-07-15T08:12:52.000Z</time>
</trkpt>
<trkpt lat="57.037451" lon="8.493709">
<ele>9.655872</ele>
<time>2026-07-15T08:12:53.000Z</time>
</trkpt>
<trkpt lat="57.037507" lon="8.493709">
<ele>9.610265</ele>
<time>2026-07-15T08:12:54.000Z</time>
</trkpt>
<trkpt lat="57.037570" lon="8.493700">
<ele>9.540594</ele>
<time>2026-07-15T08:12:55.000Z</time>
</trkpt>
<trkpt lat="57.037633" lon="8.493691">
<ele>9.470924</ele>
<time>2026-07-15T08:12:56.000Z</time>
</trkpt>
<trkpt lat="57.037689" lon="8.493678">
<ele>9.408690</ele>
<time>2026-07-15T08:12:57.000Z</time>
</trkpt>
<trkpt lat="57.037744" lon="8.493662">
<ele>9.347294</ele>
<time>2026-07-15T08:12:58.000Z</time>
</trkpt>
<trkpt lat="57.037799" lon="8.493649">
<ele>9.286154</ele>
<time>2026-07-15T08:12:59.000Z</time>
</trkpt>
<trkpt lat="57.037852" lon="8.493636">
<ele>9.227200</ele>
<time>2026-07-15T08:13:00.000Z</time>
</trkpt>
<trkpt lat="57.037911" lon="8.493624">
<ele>9.161752</ele>
<time>2026-07-15T08:13:01.000Z</time>
</trkpt>
<trkpt lat="57.037964" lon="8.493613">
<ele>9.102945</ele>
<time>2026-07-15T08:13:02.000Z</time>
</trkpt>
<trkpt lat="57.038018" lon="8.493600">
<ele>9.042898</ele>
<time>2026-07-15T08:13:03.000Z</time>
</trkpt>
<trkpt lat="57.038072" lon="8.493586">
<ele>8.982771</ele>
<time>2026-07-15T08:13:04.000Z</time>
</trkpt>
<trkpt lat="57.038128" lon="8.493573">
<ele>8.920537</ele>
<time>2026-07-15T08:13:05.000Z</time>
</trkpt>
<trkpt lat="57.038182" lon="8.493555">
<ele>8.860027</ele>
<time>2026-07-15T08:13:06.000Z</time>
</trkpt>
<trkpt lat="57.038236" lon="8.493537">
<ele>8.799518</ele>
<time>2026-07-15T08:13:07.000Z</time>
</trkpt>
<trkpt lat="57.038289" lon="8.493524">
<ele>8.740564</ele>
<time>2026-07-15T08:13:08.000Z</time>
</trkpt>
<trkpt lat="57.038343" lon="8.493517">
<ele>8.680878</ele>
<time>2026-07-15T08:13:09.000Z</time>
</trkpt>
<trkpt lat="57.038407" lon="8.493508">
<ele>8.610108</ele>
<time>2026-07-15T08:13:10.000Z</time>
</trkpt>
<trkpt lat="57.038467" lon="8.493497">
<ele>8.543626</ele>
<time>2026-07-15T08:13:11.000Z</time>
</trkpt>
<trkpt lat="57.038533" lon="8.493483">
<ele>8.470374</ele>
<time>2026-07-15T08:13:12.000Z</time>
</trkpt>
<trkpt lat="57.038594" lon="8.493466">
<ele>8.402349</ele>
<time>2026-07-15T08:13:13.000Z</time>
</trkpt>
<trkpt lat="57.038658" lon="8.493446">
<ele>8.330773</ele>
<time>2026-07-15T08:13:14.000Z</time>
</trkpt>
<trkpt lat="57.038713" lon="8.493436">
<ele>8.269836</ele>
<time>2026-07-15T08:13:15.000Z</time>
</trkpt>
<trkpt lat="57.038777" lon="8.493432">
<ele>8.199231</ele>
<time>2026-07-15T08:13:16.000Z</time>
</trkpt>
<trkpt lat="57.038831" lon="8.493430">
<ele>8.139681</ele>
<time>2026-07-15T08:13:17.000Z</time>
</trkpt>
<trkpt lat="57.038884" lon="8.493425">
<ele>8.081168</ele>
<time>2026-07-15T08:13:18.000Z</time>
</trkpt>
<trkpt lat="57.038940" lon="8.493415">
<ele>8.019134</ele>
<time>2026-07-15T08:13:19.000Z</time>
</trkpt>
<trkpt lat="57.038991" lon="8.493401">
<ele>7.962280</ele>
<time>2026-07-15T08:13:20.000Z</time>
</trkpt>
<trkpt lat="57.039044" lon="8.493386">
<ele>7.903156</ele>
<time>2026-07-15T08:13:21.000Z</time>
</trkpt>
<trkpt lat="57.039098" lon="8.493372">
<ele>7.843028</ele>
<time>2026-07-15T08:13:22.000Z</time>
</trkpt>
<trkpt lat="57.039151" lon="8.493361">
<ele>7.784221</ele>
<time>2026-07-15T08:13:23.000Z</time>
</trkpt>
<trkpt lat="57.039200" lon="8.493353">
<ele>7.729983</ele>
<time>2026-07-15T08:13:24.000Z</time>
</trkpt>
<trkpt lat="57.039254" lon="8.493341">
<ele>7.670011</ele>
<time>2026-07-15T08:13:25.000Z</time>
</trkpt>
<trkpt lat="57.039307" lon="8.493328">
<ele>7.624564</ele>
<time>2026-07-15T08:13:26.000Z</time>
</trkpt>
<trkpt lat="57.039361" lon="8.493313">
<ele>7.592330</ele>
<time>2026-07-15T08:13:27.000Z</time>
</trkpt>
<trkpt lat="57.039414" lon="8.493295">
<ele>7.560519</ele>
<time>2026-07-15T08:13:28.000Z</time>
</trkpt>
<trkpt lat="57.039476" lon="8.493271">
<ele>7.523123</ele>
<time>2026-07-15T08:13:29.000Z</time>
</trkpt>
<trkpt lat="57.039532" lon="8.493243">
<ele>7.488870</ele>
<time>2026-07-15T08:13:30.000Z</time>
</trkpt>
<trkpt lat="57.039586" lon="8.493213">
<ele>7.455574</ele>
<time>2026-07-15T08:13:31.000Z</time>
</trkpt>
<trkpt lat="57.039634" lon="8.493188">
<ele>7.426128</ele>
<time>2026-07-15T08:13:32.000Z</time>
</trkpt>
<trkpt lat="57.039689" lon="8.493158">
<ele>7.392267</ele>
<time>2026-07-15T08:13:33.000Z</time>
</trkpt>
<trkpt lat="57.039738" lon="8.493136">
<ele>7.362496</ele>
<time>2026-07-15T08:13:34.000Z</time>
</trkpt>
<trkpt lat="57.039783" lon="8.493117">
<ele>7.335245</ele>
<time>2026-07-15T08:13:35.000Z</time>
</trkpt>
<trkpt lat="57.039822" lon="8.493103">
<ele>7.311792</ele>
<time>2026-07-15T08:13:36.000Z</time>
</trkpt>
<trkpt lat="57.039853" lon="8.493091">
<ele>7.293094</ele>
<time>2026-07-15T08:13:37.000Z</time>
</trkpt>
<trkpt lat="57.039883" lon="8.493084">
<ele>7.275245</ele>
<time>2026-07-15T08:13:38.000Z</time>
</trkpt>
<trkpt lat="57.039910" lon="8.493087">
<ele>7.259280</ele>
<time>2026-07-15T08:13:39.000Z</time>
</trkpt>
<trkpt lat="57.039932" lon="8.493100">
<ele>7.245641</ele>
<time>2026-07-15T08:13:40.000Z</time>
</trkpt>
<trkpt lat="57.039944" lon="8.493125">
<ele>7.234935</ele>
<time>2026-07-15T08:13:41.000Z</time>
</trkpt>
<trkpt lat="57.039955" lon="8.493162">
<ele>7.221396</ele>
<time>2026-07-15T08:13:42.000Z</time>
</trkpt>
<trkpt lat="57.039963" lon="8.493211">
<ele>7.204969</ele>
<time>2026-07-15T08:13:43.000Z</time>
</trkpt>
<trkpt lat="57.039967" lon="8.493273">
<ele>7.184920</ele>
<time>2026-07-15T08:13:44.000Z</time>
</trkpt>
<trkpt lat="57.039970" lon="8.493337">
<ele>7.164293</ele>
<time>2026-07-15T08:13:45.000Z</time>
</trkpt>
<trkpt lat="57.039967" lon="8.493414">
<ele>7.139505</ele>
<time>2026-07-15T08:13:46.000Z</time>
</trkpt>
<trkpt lat="57.039967" lon="8.493492">
<ele>7.114458</ele>
<time>2026-07-15T08:13:47.000Z</time>
</trkpt>
<trkpt lat="57.039963" lon="8.493579">
<ele>7.086422</ele>
<time>2026-07-15T08:13:48.000Z</time>
</trkpt>
<trkpt lat="57.039963" lon="8.493669">
<ele>7.057522</ele>
<time>2026-07-15T08:13:49.000Z</time>
</trkpt>
<trkpt lat="57.039967" lon="8.493763">
<ele>7.027246</ele>
<time>2026-07-15T08:13:50.000Z</time>
</trkpt>
<trkpt lat="57.039967" lon="8.493854">
<ele>6.998025</ele>
<time>2026-07-15T08:13:51.000Z</time>
</trkpt>
<trkpt lat="57.039967" lon="8.493951">
<ele>6.966877</ele>
<time>2026-07-15T08:13:52.000Z</time>
</trkpt>
<trkpt lat="57.039967" lon="8.494044">
<ele>6.937014</ele>
<time>2026-07-15T08:13:53.000Z</time>
</trkpt>
<trkpt lat="57.039963" lon="8.494141">
<ele>6.905777</ele>
<time>2026-07-15T08:13:54.000Z</time>
</trkpt>
<trkpt lat="57.039963" lon="8.494240">
<ele>6.873987</ele>
<time>2026-07-15T08:13:55.000Z</time>
</trkpt>
<trkpt lat="57.039967" lon="8.494335">
<ele>6.843391</ele>
<time>2026-07-15T08:13:56.000Z</time>
</trkpt>
<trkpt lat="57.039967" lon="8.494434">
<ele>6.811601</ele>
<time>2026-07-15T08:13:57.000Z</time>
</trkpt>
<trkpt lat="57.039970" lon="8.494527">
<ele>6.781685</ele>
<time>2026-07-15T08:13:58.000Z</time>
</trkpt>
<trkpt lat="57.039970" lon="8.494621">
<ele>6.751501</ele>
<time>2026-07-15T08:13:59.000Z</time>
</trkpt>
<trkpt lat="57.039970" lon="8.494717">
<ele>6.720675</ele>
<time>2026-07-15T08:14:00.000Z</time>
</trkpt>
<trkpt lat="57.039974" lon="8.494810">
<ele>6.690718</ele>
<time>2026-07-15T08:14:01.000Z</time>
</trkpt>
<trkpt lat="57.039974" lon="8.494904">
<ele>6.660534</ele>
<time>2026-07-15T08:14:02.000Z</time>
</trkpt>
<trkpt lat="57.039974" lon="8.495001">
<ele>6.629386</ele>
<time>2026-07-15T08:14:03.000Z</time>
</trkpt>
<trkpt lat="57.039974" lon="8.495095">
<ele>6.599202</ele>
<time>2026-07-15T08:14:04.000Z</time>
</trkpt>
<trkpt lat="57.039974" lon="8.495191">
<ele>6.583189</ele>
<time>2026-07-15T08:14:05.000Z</time>
</trkpt>
<trkpt lat="57.039974" lon="8.495289">
<ele>6.597604</ele>
<time>2026-07-15T08:14:06.000Z</time>
</trkpt>
<trkpt lat="57.039974" lon="8.495390">
<ele>6.612461</ele>
<time>2026-07-15T08:14:07.000Z</time>
</trkpt>
<trkpt lat="57.039974" lon="8.495489">
<ele>6.627023</ele>
<time>2026-07-15T08:14:08.000Z</time>
</trkpt>
<trkpt lat="57.039974" lon="8.495592">
<ele>6.642174</ele>
<time>2026-07-15T08:14:09.000Z</time>
</trkpt>
<trkpt lat="57.039974" lon="8.495690">
<ele>6.656589</ele>
<time>2026-07-15T08:14:10.000Z</time>
</trkpt>
<trkpt lat="57.039974" lon="8.495792">
<ele>6.671592</ele>
<time>2026-07-15T08:14:11.000Z</time>
</trkpt>
<trkpt lat="57.039974" lon="8.495894">
<ele>6.686596</ele>
<time>2026-07-15T08:14:12.000Z</time>
</trkpt>
<trkpt lat="57.039978" lon="8.495993">
<ele>6.701198</ele>
<time>2026-07-15T08:14:13.000Z</time>
</trkpt>
<trkpt lat="57.039978" lon="8.496100">
<ele>6.716937</ele>
<time>2026-07-15T08:14:14.000Z</time>
</trkpt>
<trkpt lat="57.039978" lon="8.496200">
<ele>6.731646</ele>
<time>2026-07-15T08:14:15.000Z</time>
</trkpt>
<trkpt lat="57.039982" lon="8.496305">
<ele>6.747129</ele>
<time>2026-07-15T08:14:16.000Z</time>
</trkpt>
<trkpt lat="57.039982" lon="8.496405">
<ele>6.761838</ele>
<time>2026-07-15T08:14:17.000Z</time>
</trkpt>
<trkpt lat="57.039982" lon="8.496508">
<ele>6.776989</ele>
<time>2026-07-15T08:14:18.000Z</time>
</trkpt>
<trkpt lat="57.039982" lon="8.496607">
<ele>6.791551</ele>
<time>2026-07-15T08:14:19.000Z</time>
</trkpt>
<trkpt lat="57.039982" lon="8.496704">
<ele>6.805819</ele>
<time>2026-07-15T08:14:20.000Z</time>
</trkpt>
<trkpt lat="57.039986" lon="8.496813">
<ele>6.821889</ele>
<time>2026-07-15T08:14:21.000Z</time>
</trkpt>
<trkpt lat="57.039986" lon="8.496908">
<ele>6.835863</ele>
<time>2026-07-15T08:14:22.000Z</time>
</trkpt>
<trkpt lat="57.039986" lon="8.497013">
<ele>6.851307</ele>
<time>2026-07-15T08:14:23.000Z</time>
</trkpt>
<trkpt lat="57.039986" lon="8.497115">
<ele>6.866311</ele>
<time>2026-07-15T08:14:24.000Z</time>
</trkpt>
<trkpt lat="57.039986" lon="8.497215">
<ele>6.881020</ele>
<time>2026-07-15T08:14:25.000Z</time>
</trkpt>
<trkpt lat="57.039990" lon="8.497318">
<ele>6.896209</ele>
<time>2026-07-15T08:14:26.000Z</time>
</trkpt>
<trkpt lat="57.039990" lon="8.497420">
<ele>6.911213</ele>
<time>2026-07-15T08:14:27.000Z</time>
</trkpt>
<trkpt lat="57.039990" lon="8.497521">
<ele>6.926069</ele>
<time>2026-07-15T08:14:28.000Z</time>
</trkpt>
<trkpt lat="57.039993" lon="8.497625">
<ele>6.941388</ele>
<time>2026-07-15T08:14:29.000Z</time>
</trkpt>
<trkpt lat="57.039993" lon="8.497723">
<ele>6.955804</ele>
<time>2026-07-15T08:14:30.000Z</time>
</trkpt>
<trkpt lat="57.039993" lon="8.497824">
<ele>6.970660</ele>
<time>2026-07-15T08:14:31.000Z</time>
</trkpt>
<trkpt lat="57.039993" lon="8.497925">
<ele>6.985516</ele>
<time>2026-07-15T08:14:32.000Z</time>
</trkpt>
<trkpt lat="57.039993" lon="8.498024">
<ele>7.000079</ele>
<time>2026-07-15T08:14:33.000Z</time>
</trkpt>
<trkpt lat="57.039993" lon="8.498126">
<ele>7.015082</ele>
<time>2026-07-15T08:14:34.000Z</time>
</trkpt>
<trkpt lat="57.039990" lon="8.498223">
<ele>7.029373</ele>
<time>2026-07-15T08:14:35.000Z</time>
</trkpt>
<trkpt lat="57.039993" lon="8.498322">
<ele>7.043958</ele>
<time>2026-07-15T08:14:36.000Z</time>
</trkpt>
<trkpt lat="57.039993" lon="8.498425">
<ele>7.059109</ele>
<time>2026-07-15T08:14:37.000Z</time>
</trkpt>
<trkpt lat="57.039993" lon="8.498523">
<ele>7.097606</ele>
<time>2026-07-15T08:14:38.000Z</time>
</trkpt>
<trkpt lat="57.039997" lon="8.498622">
<ele>7.152637</ele>
<time>2026-07-15T08:14:39.000Z</time>
</trkpt>
<trkpt lat="57.039997" lon="8.498725">
<ele>7.209736</ele>
<time>2026-07-15T08:14:40.000Z</time>
</trkpt>
<trkpt lat="57.039997" lon="8.498824">
<ele>7.264616</ele>
<time>2026-07-15T08:14:41.000Z</time>
</trkpt>
<trkpt lat="57.039997" lon="8.498923">
<ele>7.319497</ele>
<time>2026-07-15T08:14:42.000Z</time>
</trkpt>
<trkpt lat="57.039997" lon="8.499023">
<ele>7.374932</ele>
<time>2026-07-15T08:14:43.000Z</time>
</trkpt>
<trkpt lat="57.039997" lon="8.499119">
<ele>7.428150</ele>
<time>2026-07-15T08:14:44.000Z</time>
</trkpt>
<trkpt lat="57.039997" lon="8.499222">
<ele>7.485248</ele>
<time>2026-07-15T08:14:45.000Z</time>
</trkpt>
<trkpt lat="57.039997" lon="8.499323">
<ele>7.541238</ele>
<time>2026-07-15T08:14:46.000Z</time>
</trkpt>
<trkpt lat="57.039997" lon="8.499423">
<ele>7.596673</ele>
<time>2026-07-15T08:14:47.000Z</time>
</trkpt>
<trkpt lat="57.040001" lon="8.499526">
<ele>7.653916</ele>
<time>2026-07-15T08:14:48.000Z</time>
</trkpt>
<trkpt lat="57.040001" lon="8.499622">
<ele>7.707134</ele>
<time>2026-07-15T08:14:49.000Z</time>
</trkpt>
<trkpt lat="57.040001" lon="8.499728">
<ele>7.765895</ele>
<time>2026-07-15T08:14:50.000Z</time>
</trkpt>
<trkpt lat="57.040005" lon="8.499831">
<ele>7.823138</ele>
<time>2026-07-15T08:14:51.000Z</time>
</trkpt>
<trkpt lat="57.040005" lon="8.499931">
<ele>7.878573</ele>
<time>2026-07-15T08:14:52.000Z</time>
</trkpt>
<trkpt lat="57.040005" lon="8.500030">
<ele>7.933454</ele>
<time>2026-07-15T08:14:53.000Z</time>
</trkpt>
<trkpt lat="57.040005" lon="8.500127">
<ele>7.987226</ele>
<time>2026-07-15T08:14:54.000Z</time>
</trkpt>
<trkpt lat="57.040005" lon="8.500226">
<ele>8.042107</ele>
<time>2026-07-15T08:14:55.000Z</time>
</trkpt>
<trkpt lat="57.040009" lon="8.500326">
<ele>8.097692</ele>
<time>2026-07-15T08:14:56.000Z</time>
</trkpt>
<trkpt lat="57.040009" lon="8.500423">
<ele>8.151464</ele>
<time>2026-07-15T08:14:57.000Z</time>
</trkpt>
<trkpt lat="57.040012" lon="8.500519">
<ele>8.204769</ele>
<time>2026-07-15T08:14:58.000Z</time>
</trkpt>
<trkpt lat="57.040012" lon="8.500618">
<ele>8.259650</ele>
<time>2026-07-15T08:14:59.000Z</time>
</trkpt>
<trkpt lat="57.040012" lon="8.500719">
<ele>8.315639</ele>
<time>2026-07-15T08:15:00.000Z</time>
</trkpt>
<trkpt lat="57.040016" lon="8.500817">
<ele>8.370118</ele>
<time>2026-07-15T08:15:01.000Z</time>
</trkpt>
<trkpt lat="57.040016" lon="8.500907">
<ele>8.420010</ele>
<time>2026-07-15T08:15:02.000Z</time>
</trkpt>
<trkpt lat="57.040016" lon="8.501009">
<ele>8.476554</ele>
<time>2026-07-15T08:15:03.000Z</time>
</trkpt>
<trkpt lat="57.040016" lon="8.501099">
<ele>8.526445</ele>
<time>2026-07-15T08:15:04.000Z</time>
</trkpt>
<trkpt lat="57.040016" lon="8.501197">
<ele>8.580772</ele>
<time>2026-07-15T08:15:05.000Z</time>
</trkpt>
<trkpt lat="57.040016" lon="8.501295">
<ele>8.635098</ele>
<time>2026-07-15T08:15:06.000Z</time>
</trkpt>
<trkpt lat="57.040020" lon="8.501395">
<ele>8.690683</ele>
<time>2026-07-15T08:15:07.000Z</time>
</trkpt>
<trkpt lat="57.040020" lon="8.501491">
<ele>8.743900</ele>
<time>2026-07-15T08:15:08.000Z</time>
</trkpt>
<trkpt lat="57.040020" lon="8.501588">
<ele>8.797672</ele>
<time>2026-07-15T08:15:09.000Z</time>
</trkpt>
<trkpt lat="57.040020" lon="8.501683">
<ele>8.850336</ele>
<time>2026-07-15T08:15:10.000Z</time>
</trkpt>
<trkpt lat="57.040020" lon="8.501780">
<ele>8.901697</ele>
<time>2026-07-15T08:15:11.000Z</time>
</trkpt>
<trkpt lat="57.040020" lon="8.501855">
<ele>8.928074</ele>
<time>2026-07-15T08:15:12.000Z</time>
</trkpt>
<trkpt lat="57.040020" lon="8.501973">
<ele>8.969574</ele>
<time>2026-07-15T08:15:13.000Z</time>
</trkpt>
<trkpt lat="57.040023" lon="8.502058">
<ele>8.999531</ele>
<time>2026-07-15T08:15:14.000Z</time>
</trkpt>
<trkpt lat="57.040024" lon="8.502165">
<ele>9.037168</ele>
<time>2026-07-15T08:15:15.000Z</time>
</trkpt>
<trkpt lat="57.040024" lon="8.502264">
<ele>9.071986</ele>
<time>2026-07-15T08:15:16.000Z</time>
</trkpt>
<trkpt lat="57.040024" lon="8.502360">
<ele>9.105749</ele>
<time>2026-07-15T08:15:17.000Z</time>
</trkpt>
<trkpt lat="57.040024" lon="8.502456">
<ele>9.139511</ele>
<time>2026-07-15T08:15:18.000Z</time>
</trkpt>
<trkpt lat="57.040024" lon="8.502552">
<ele>9.173274</ele>
<time>2026-07-15T08:15:19.000Z</time>
</trkpt>
<trkpt lat="57.040024" lon="8.502646">
<ele>9.206334</ele>
<time>2026-07-15T08:15:20.000Z</time>
</trkpt>
<trkpt lat="57.040028" lon="8.502743">
<ele>9.240546</ele>
<time>2026-07-15T08:15:21.000Z</time>
</trkpt>
<trkpt lat="57.040028" lon="8.502837">
<ele>9.273605</ele>
<time>2026-07-15T08:15:22.000Z</time>
</trkpt>
<trkpt lat="57.040028" lon="8.502938">
<ele>9.309127</ele>
<time>2026-07-15T08:15:23.000Z</time>
</trkpt>
<trkpt lat="57.040028" lon="8.503029">
<ele>9.341131</ele>
<time>2026-07-15T08:15:24.000Z</time>
</trkpt>
<trkpt lat="57.040028" lon="8.503130">
<ele>9.376652</ele>
<time>2026-07-15T08:15:25.000Z</time>
</trkpt>
<trkpt lat="57.040031" lon="8.503228">
<ele>9.411173</ele>
<time>2026-07-15T08:15:26.000Z</time>
</trkpt>
<trkpt lat="57.040032" lon="8.503328">
<ele>9.446348</ele>
<time>2026-07-15T08:15:27.000Z</time>
</trkpt>
<trkpt lat="57.040035" lon="8.503423">
<ele>9.479816</ele>
<time>2026-07-15T08:15:28.000Z</time>
</trkpt>
<trkpt lat="57.040035" lon="8.503526">
<ele>9.516040</ele>
<time>2026-07-15T08:15:29.000Z</time>
</trkpt>
<trkpt lat="57.040035" lon="8.503627">
<ele>9.551562</ele>
<time>2026-07-15T08:15:30.000Z</time>
</trkpt>
<trkpt lat="57.040035" lon="8.503735">
<ele>9.589545</ele>
<time>2026-07-15T08:15:31.000Z</time>
</trkpt>
<trkpt lat="57.040035" lon="8.503838">
<ele>9.625769</ele>
<time>2026-07-15T08:15:32.000Z</time>
</trkpt>
<trkpt lat="57.040035" lon="8.503954">
<ele>9.666566</ele>
<time>2026-07-15T08:15:33.000Z</time>
</trkpt>
<trkpt lat="57.040035" lon="8.504057">
<ele>9.702791</ele>
<time>2026-07-15T08:15:34.000Z</time>
</trkpt>
<trkpt lat="57.040035" lon="8.504161">
<ele>9.739367</ele>
<time>2026-07-15T08:15:35.000Z</time>
</trkpt>
<trkpt lat="57.040035" lon="8.504272">
<ele>9.778405</ele>
<time>2026-07-15T08:15:36.000Z</time>
</trkpt>
<trkpt lat="57.040035" lon="8.504383">
<ele>9.817443</ele>
<time>2026-07-15T08:15:37.000Z</time>
</trkpt>
<trkpt lat="57.040035" lon="8.504488">
<ele>9.854371</ele>
<time>2026-07-15T08:15:38.000Z</time>
</trkpt>
<trkpt lat="57.040031" lon="8.504592">
<ele>9.891039</ele>
<time>2026-07-15T08:15:39.000Z</time>
</trkpt>
<trkpt lat="57.040031" lon="8.504697">
<ele>9.927967</ele>
<time>2026-07-15T08:15:40.000Z</time>
</trkpt>
<trkpt lat="57.040032" lon="8.504802">
<ele>9.964901</ele>
<time>2026-07-15T08:15:41.000Z</time>
</trkpt>
<trkpt lat="57.040035" lon="8.504902">
<ele>10.000124</ele>
<time>2026-07-15T08:15:42.000Z</time>
</trkpt>
<trkpt lat="57.040035" lon="8.505008">
<ele>10.037404</ele>
<time>2026-07-15T08:15:43.000Z</time>
</trkpt>
<trkpt lat="57.040035" lon="8.505117">
<ele>10.060967</ele>
<time>2026-07-15T08:15:44.000Z</time>
</trkpt>
<trkpt lat="57.040039" lon="8.505223">
<ele>10.062764</ele>
<time>2026-07-15T08:15:45.000Z</time>
</trkpt>
<trkpt lat="57.040039" lon="8.505328">
<ele>10.064539</ele>
<time>2026-07-15T08:15:46.000Z</time>
</trkpt>
<trkpt lat="57.040039" lon="8.505435">
<ele>10.066348</ele>
<time>2026-07-15T08:15:47.000Z</time>
</trkpt>
<trkpt lat="57.040039" lon="8.505542">
<ele>10.068158</ele>
<time>2026-07-15T08:15:48.000Z</time>
</trkpt>
<trkpt lat="57.040043" lon="8.505651">
<ele>10.070005</ele>
<time>2026-07-15T08:15:49.000Z</time>
</trkpt>
<trkpt lat="57.040043" lon="8.505754">
<ele>10.071746</ele>
<time>2026-07-15T08:15:50.000Z</time>
</trkpt>
<trkpt lat="57.040043" lon="8.505870">
<ele>10.073708</ele>
<time>2026-07-15T08:15:51.000Z</time>
</trkpt>
<trkpt lat="57.040047" lon="8.505974">
<ele>10.075470</ele>
<time>2026-07-15T08:15:52.000Z</time>
</trkpt>
<trkpt lat="57.040047" lon="8.506080">
<ele>10.077263</ele>
<time>2026-07-15T08:15:53.000Z</time>
</trkpt>
<trkpt lat="57.040047" lon="8.506190">
<ele>10.079123</ele>
<time>2026-07-15T08:15:54.000Z</time>
</trkpt>
<trkpt lat="57.040047" lon="8.506304">
<ele>10.081050</ele>
<time>2026-07-15T08:15:55.000Z</time>
</trkpt>
<trkpt lat="57.040047" lon="8.506412">
<ele>10.082876</ele>
<time>2026-07-15T08:15:56.000Z</time>
</trkpt>
<trkpt lat="57.040047" lon="8.506519">
<ele>10.084685</ele>
<time>2026-07-15T08:15:57.000Z</time>
</trkpt>
<trkpt lat="57.040047" lon="8.506629">
<ele>10.086545</ele>
<time>2026-07-15T08:15:58.000Z</time>
</trkpt>
<trkpt lat="57.040047" lon="8.506720">
<ele>10.088084</ele>
<time>2026-07-15T08:15:59.000Z</time>
</trkpt>
<trkpt lat="57.040047" lon="8.506845">
<ele>10.090197</ele>
<time>2026-07-15T08:16:00.000Z</time>
</trkpt>
<trkpt lat="57.040054" lon="8.506949">
<ele>10.091969</ele>
<time>2026-07-15T08:16:01.000Z</time>
</trkpt>
<trkpt lat="57.040058" lon="8.507058">
<ele>10.093817</ele>
<time>2026-07-15T08:16:02.000Z</time>
</trkpt>
<trkpt lat="57.040062" lon="8.507156">
<ele>10.095478</ele>
<time>2026-07-15T08:16:03.000Z</time>
</trkpt>
<trkpt lat="57.040073" lon="8.507265">
<ele>10.097353</ele>
<time>2026-07-15T08:16:04.000Z</time>
</trkpt>
<trkpt lat="57.040081" lon="8.507362">
<ele>10.099011</ele>
<time>2026-07-15T08:16:05.000Z</time>
</trkpt>
<trkpt lat="57.040089" lon="8.507463">
<ele>10.100737</ele>
<time>2026-07-15T08:16:06.000Z</time>
</trkpt>
<trkpt lat="57.040096" lon="8.507554">
<ele>10.102291</ele>
<time>2026-07-15T08:16:07.000Z</time>
</trkpt>
<trkpt lat="57.040104" lon="8.507648">
<ele>10.103900</ele>
<time>2026-07-15T08:16:08.000Z</time>
</trkpt>
<trkpt lat="57.040112" lon="8.507727">
<ele>10.105259</ele>
<time>2026-07-15T08:16:09.000Z</time>
</trkpt>
<trkpt lat="57.040119" lon="8.507792">
<ele>10.106379</ele>
<time>2026-07-15T08:16:10.000Z</time>
</trkpt>
<trkpt lat="57.040123" lon="8.507845">
<ele>10.107284</ele>
<time>2026-07-15T08:16:11.000Z</time>
</trkpt>
<trkpt lat="57.040123" lon="8.507890">
<ele>10.108044</ele>
<time>2026-07-15T08:16:12.000Z</time>
</trkpt>
<trkpt lat="57.040119" lon="8.507929">
<ele>10.108716</ele>
<time>2026-07-15T08:16:13.000Z</time>
</trkpt>
<trkpt lat="57.040108" lon="8.507967">
<ele>10.109443</ele>
<time>2026-07-15T08:16:14.000Z</time>
</trkpt>
<trkpt lat="57.040100" lon="8.508001">
<ele>10.110070</ele>
<time>2026-07-15T08:16:15.000Z</time>
</trkpt>
<trkpt lat="57.040096" lon="8.508035">
<ele>10.110658</ele>
<time>2026-07-15T08:16:16.000Z</time>
</trkpt>
<trkpt lat="57.040100" lon="8.508070">
<ele>10.111263</ele>
<time>2026-07-15T08:16:17.000Z</time>
</trkpt>
<trkpt lat="57.040112" lon="8.508092">
<ele>10.111789</ele>
<time>2026-07-15T08:16:18.000Z</time>
</trkpt>
<trkpt lat="57.040127" lon="8.508101">
<ele>10.112280</ele>
<time>2026-07-15T08:16:19.000Z</time>
</trkpt>
<trkpt lat="57.040142" lon="8.508099">
<ele>10.112747</ele>
<time>2026-07-15T08:16:20.000Z</time>
</trkpt>
<trkpt lat="57.040161" lon="8.508078">
<ele>10.113436</ele>
<time>2026-07-15T08:16:21.000Z</time>
</trkpt>
<trkpt lat="57.040173" lon="8.508041">
<ele>10.114164</ele>
<time>2026-07-15T08:16:22.000Z</time>
</trkpt>
<trkpt lat="57.040176" lon="8.507987">
<ele>10.115082</ele>
<time>2026-07-15T08:16:23.000Z</time>
</trkpt>
<trkpt lat="57.040172" lon="8.507926">
<ele>10.116109</ele>
<time>2026-07-15T08:16:24.000Z</time>
</trkpt>
<trkpt lat="57.040169" lon="8.507868">
<ele>10.106232</ele>
<time>2026-07-15T08:16:25.000Z</time>
</trkpt>
<trkpt lat="57.040165" lon="8.507807">
<ele>10.095816</ele>
<time>2026-07-15T08:16:26.000Z</time>
</trkpt>
<trkpt lat="57.040161" lon="8.507732">
<ele>10.083041</ele>
<time>2026-07-15T08:16:27.000Z</time>
</trkpt>
<trkpt lat="57.040157" lon="8.507654">
<ele>10.069759</ele>
<time>2026-07-15T08:16:28.000Z</time>
</trkpt>
<trkpt lat="57.040153" lon="8.507569">
<ele>10.055296</ele>
<time>2026-07-15T08:16:29.000Z</time>
</trkpt>
<trkpt lat="57.040146" lon="8.507484">
<ele>10.040722</ele>
<time>2026-07-15T08:16:30.000Z</time>
</trkpt>
<trkpt lat="57.040138" lon="8.507405">
<ele>10.027100</ele>
<time>2026-07-15T08:16:31.000Z</time>
</trkpt>
<trkpt lat="57.040130" lon="8.507322">
<ele>10.012810</ele>
<time>2026-07-15T08:16:32.000Z</time>
</trkpt>
<trkpt lat="57.040123" lon="8.507233">
<ele>9.997565</ele>
<time>2026-07-15T08:16:33.000Z</time>
</trkpt>
<trkpt lat="57.040115" lon="8.507143">
<ele>9.982106</ele>
<time>2026-07-15T08:16:34.000Z</time>
</trkpt>
<trkpt lat="57.040111" lon="8.507057">
<ele>9.967473</ele>
<time>2026-07-15T08:16:35.000Z</time>
</trkpt>
<trkpt lat="57.040108" lon="8.506967">
<ele>9.952187</ele>
<time>2026-07-15T08:16:36.000Z</time>
</trkpt>
<trkpt lat="57.040104" lon="8.506875">
<ele>9.936541</ele>
<time>2026-07-15T08:16:37.000Z</time>
</trkpt>
<trkpt lat="57.040100" lon="8.506780">
<ele>9.920388</ele>
<time>2026-07-15T08:16:38.000Z</time>
</trkpt>
<trkpt lat="57.040100" lon="8.506686">
<ele>9.904453</ele>
<time>2026-07-15T08:16:39.000Z</time>
</trkpt>
<trkpt lat="57.040096" lon="8.506588">
<ele>9.887793</ele>
<time>2026-07-15T08:16:40.000Z</time>
</trkpt>
<trkpt lat="57.040096" lon="8.506492">
<ele>9.871518</ele>
<time>2026-07-15T08:16:41.000Z</time>
</trkpt>
<trkpt lat="57.040096" lon="8.506392">
<ele>9.854566</ele>
<time>2026-07-15T08:16:42.000Z</time>
</trkpt>
<trkpt lat="57.040096" lon="8.506296">
<ele>9.838291</ele>
<time>2026-07-15T08:16:43.000Z</time>
</trkpt>
<trkpt lat="57.040092" lon="8.506202">
<ele>9.822307</ele>
<time>2026-07-15T08:16:44.000Z</time>
</trkpt>
<trkpt lat="57.040092" lon="8.506104">
<ele>9.805694</ele>
<time>2026-07-15T08:16:45.000Z</time>
</trkpt>
<trkpt lat="57.040089" lon="8.506005">
<ele>9.788885</ele>
<time>2026-07-15T08:16:46.000Z</time>
</trkpt>
<trkpt lat="57.040092" lon="8.505903">
<ele>9.771568</ele>
<time>2026-07-15T08:16:47.000Z</time>
</trkpt>
<trkpt lat="57.040089" lon="8.505806">
<ele>9.755097</ele>
<time>2026-07-15T08:16:48.000Z</time>
</trkpt>
<trkpt lat="57.040089" lon="8.505710">
<ele>9.738823</ele>
<time>2026-07-15T08:16:49.000Z</time>
</trkpt>
<trkpt lat="57.040089" lon="8.505609">
<ele>9.721701</ele>
<time>2026-07-15T08:16:50.000Z</time>
</trkpt>
<trkpt lat="57.040085" lon="8.505514">
<ele>9.705548</ele>
<time>2026-07-15T08:16:51.000Z</time>
</trkpt>
<trkpt lat="57.040085" lon="8.505418">
<ele>9.689273</ele>
<time>2026-07-15T08:16:52.000Z</time>
</trkpt>
<trkpt lat="57.040085" lon="8.505324">
<ele>9.673338</ele>
<time>2026-07-15T08:16:53.000Z</time>
</trkpt>
<trkpt lat="57.040085" lon="8.505232">
<ele>9.657742</ele>
<time>2026-07-15T08:16:54.000Z</time>
</trkpt>
<trkpt lat="57.040085" lon="8.505139">
<ele>9.641976</ele>
<time>2026-07-15T08:16:55.000Z</time>
</trkpt>
<trkpt lat="57.040085" lon="8.505040">
<ele>9.625193</ele>
<time>2026-07-15T08:16:56.000Z</time>
</trkpt>
<trkpt lat="57.040085" lon="8.504942">
<ele>9.608579</ele>
<time>2026-07-15T08:16:57.000Z</time>
</trkpt>
<trkpt lat="57.040085" lon="8.504844">
<ele>9.591966</ele>
<time>2026-07-15T08:16:58.000Z</time>
</trkpt>
<trkpt lat="57.040085" lon="8.504742">
<ele>9.574674</ele>
<time>2026-07-15T08:16:59.000Z</time>
</trkpt>
<trkpt lat="57.040085" lon="8.504641">
<ele>9.557552</ele>
<time>2026-07-15T08:17:00.000Z</time>
</trkpt>
<trkpt lat="57.040085" lon="8.504543">
<ele>9.523497</ele>
<time>2026-07-15T08:17:01.000Z</time>
</trkpt>
<trkpt lat="57.040085" lon="8.504443">
<ele>9.486469</ele>
<time>2026-07-15T08:17:02.000Z</time>
</trkpt>
<trkpt lat="57.040085" lon="8.504348">
<ele>9.451292</ele>
<time>2026-07-15T08:17:03.000Z</time>
</trkpt>
<trkpt lat="57.040085" lon="8.504253">
<ele>9.416115</ele>
<time>2026-07-15T08:17:04.000Z</time>
</trkpt>
<trkpt lat="57.040085" lon="8.504156">
<ele>9.380198</ele>
<time>2026-07-15T08:17:05.000Z</time>
</trkpt>
<trkpt lat="57.040089" lon="8.504063">
<ele>9.345654</ele>
<time>2026-07-15T08:17:06.000Z</time>
</trkpt>
<trkpt lat="57.040085" lon="8.503965">
<ele>9.309265</ele>
<time>2026-07-15T08:17:07.000Z</time>
</trkpt>
<trkpt lat="57.040085" lon="8.503870">
<ele>9.274088</ele>
<time>2026-07-15T08:17:08.000Z</time>
</trkpt>
<trkpt lat="57.040085" lon="8.503770">
<ele>9.237060</ele>
<time>2026-07-15T08:17:09.000Z</time>
</trkpt>
<trkpt lat="57.040085" lon="8.503674">
<ele>9.201513</ele>
<time>2026-07-15T08:17:10.000Z</time>
</trkpt>
<trkpt lat="57.040085" lon="8.503579">
<ele>9.166336</ele>
<time>2026-07-15T08:17:11.000Z</time>
</trkpt>
<trkpt lat="57.040085" lon="8.503483">
<ele>9.130789</ele>
<time>2026-07-15T08:17:12.000Z</time>
</trkpt>
<trkpt lat="57.040085" lon="8.503389">
<ele>9.095982</ele>
<time>2026-07-15T08:17:13.000Z</time>
</trkpt>
<trkpt lat="57.040085" lon="8.503295">
<ele>9.061176</ele>
<time>2026-07-15T08:17:14.000Z</time>
</trkpt>
<trkpt lat="57.040085" lon="8.503197">
<ele>9.024888</ele>
<time>2026-07-15T08:17:15.000Z</time>
</trkpt>
<trkpt lat="57.040085" lon="8.503104">
<ele>8.990452</ele>
<time>2026-07-15T08:17:16.000Z</time>
</trkpt>
<trkpt lat="57.040085" lon="8.503005">
<ele>8.953794</ele>
<time>2026-07-15T08:17:17.000Z</time>
</trkpt>
<trkpt lat="57.040085" lon="8.502908">
<ele>8.917877</ele>
<time>2026-07-15T08:17:18.000Z</time>
</trkpt>
<trkpt lat="57.040085" lon="8.502810">
<ele>8.881589</ele>
<time>2026-07-15T08:17:19.000Z</time>
</trkpt>
<trkpt lat="57.040085" lon="8.502713">
<ele>8.845672</ele>
<time>2026-07-15T08:17:20.000Z</time>
</trkpt>
<trkpt lat="57.040081" lon="8.502611">
<ele>8.807805</ele>
<time>2026-07-15T08:17:21.000Z</time>
</trkpt>
<trkpt lat="57.040081" lon="8.502512">
<ele>8.771147</ele>
<time>2026-07-15T08:17:22.000Z</time>
</trkpt>
<trkpt lat="57.040081" lon="8.502414">
<ele>8.734859</ele>
<time>2026-07-15T08:17:23.000Z</time>
</trkpt>
<trkpt lat="57.040077" lon="8.502313">
<ele>8.697362</ele>
<time>2026-07-15T08:17:24.000Z</time>
</trkpt>
<trkpt lat="57.040077" lon="8.502217">
<ele>8.661815</ele>
<time>2026-07-15T08:17:25.000Z</time>
</trkpt>
<trkpt lat="57.040073" lon="8.502116">
<ele>8.624317</ele>
<time>2026-07-15T08:17:26.000Z</time>
</trkpt>
<trkpt lat="57.040073" lon="8.502008">
<ele>8.584327</ele>
<time>2026-07-15T08:17:27.000Z</time>
</trkpt>
<trkpt lat="57.040073" lon="8.501905">
<ele>8.546188</ele>
<time>2026-07-15T08:17:28.000Z</time>
</trkpt>
<trkpt lat="57.040073" lon="8.501802">
<ele>8.508049</ele>
<time>2026-07-15T08:17:29.000Z</time>
</trkpt>
<trkpt lat="57.040073" lon="8.501697">
<ele>8.469169</ele>
<time>2026-07-15T08:17:30.000Z</time>
</trkpt>
<trkpt lat="57.040077" lon="8.501593">
<ele>8.430564</ele>
<time>2026-07-15T08:17:31.000Z</time>
</trkpt>
<trkpt lat="57.040077" lon="8.501488">
<ele>8.391684</ele>
<time>2026-07-15T08:17:32.000Z</time>
</trkpt>
<trkpt lat="57.040077" lon="8.501387">
<ele>8.354285</ele>
<time>2026-07-15T08:17:33.000Z</time>
</trkpt>
<trkpt lat="57.040073" lon="8.501283">
<ele>8.316095</ele>
<time>2026-07-15T08:17:34.000Z</time>
</trkpt>
<trkpt lat="57.040066" lon="8.501179">
<ele>8.278310</ele>
<time>2026-07-15T08:17:35.000Z</time>
</trkpt>
<trkpt lat="57.040062" lon="8.501076">
<ele>8.241076</ele>
<time>2026-07-15T08:17:36.000Z</time>
</trkpt>
<trkpt lat="57.040058" lon="8.500970">
<ele>8.202763</ele>
<time>2026-07-15T08:17:37.000Z</time>
</trkpt>
<trkpt lat="57.040058" lon="8.500865">
<ele>8.164903</ele>
<time>2026-07-15T08:17:38.000Z</time>
</trkpt>
<trkpt lat="57.040058" lon="8.500754">
<ele>8.124880</ele>
<time>2026-07-15T08:17:39.000Z</time>
</trkpt>
<trkpt lat="57.040058" lon="8.500651">
<ele>8.087741</ele>
<time>2026-07-15T08:17:40.000Z</time>
</trkpt>
<trkpt lat="57.040058" lon="8.500542">
<ele>8.048438</ele>
<time>2026-07-15T08:17:41.000Z</time>
</trkpt>
<trkpt lat="57.040058" lon="8.500438">
<ele>8.010938</ele>
<time>2026-07-15T08:17:42.000Z</time>
</trkpt>
<trkpt lat="57.040054" lon="8.500334">
<ele>7.973345</ele>
<time>2026-07-15T08:17:43.000Z</time>
</trkpt>
<trkpt lat="57.040054" lon="8.500229">
<ele>7.935485</ele>
<time>2026-07-15T08:17:44.000Z</time>
</trkpt>
<trkpt lat="57.040054" lon="8.500121">
<ele>7.896543</ele>
<time>2026-07-15T08:17:45.000Z</time>
</trkpt>
<trkpt lat="57.040051" lon="8.500017">
<ele>7.858991</ele>
<time>2026-07-15T08:17:46.000Z</time>
</trkpt>
<trkpt lat="57.040051" lon="8.499909">
<ele>7.820049</ele>
<time>2026-07-15T08:17:47.000Z</time>
</trkpt>
<trkpt lat="57.040050" lon="8.499805">
<ele>7.782543</ele>
<time>2026-07-15T08:17:48.000Z</time>
</trkpt>
<trkpt lat="57.040047" lon="8.499700">
<ele>7.744631</ele>
<time>2026-07-15T08:17:49.000Z</time>
</trkpt>
<trkpt lat="57.040047" lon="8.499595">
<ele>7.706771</ele>
<time>2026-07-15T08:17:50.000Z</time>
</trkpt>
<trkpt lat="57.040043" lon="8.499495">
<ele>7.670616</ele>
<time>2026-07-15T08:17:51.000Z</time>
</trkpt>
<trkpt lat="57.040043" lon="8.499397">
<ele>7.635280</ele>
<time>2026-07-15T08:17:52.000Z</time>
</trkpt>
<trkpt lat="57.040047" lon="8.499299">
<ele>7.599845</ele>
<time>2026-07-15T08:17:53.000Z</time>
</trkpt>
<trkpt lat="57.040047" lon="8.499208">
<ele>7.567032</ele>
<time>2026-07-15T08:17:54.000Z</time>
</trkpt>
<trkpt lat="57.040047" lon="8.499114">
<ele>7.533138</ele>
<time>2026-07-15T08:17:55.000Z</time>
</trkpt>
<trkpt lat="57.040043" lon="8.499023">
<ele>7.500219</ele>
<time>2026-07-15T08:17:56.000Z</time>
</trkpt>
<trkpt lat="57.040043" lon="8.498931">
<ele>7.467047</ele>
<time>2026-07-15T08:17:57.000Z</time>
</trkpt>
<trkpt lat="57.040039" lon="8.498844">
<ele>7.435565</ele>
<time>2026-07-15T08:17:58.000Z</time>
</trkpt>
<trkpt lat="57.040039" lon="8.498761">
<ele>7.405637</ele>
<time>2026-07-15T08:17:59.000Z</time>
</trkpt>
<trkpt lat="57.040035" lon="8.498679">
<ele>7.375952</ele>
<time>2026-07-15T08:18:00.000Z</time>
</trkpt>
<trkpt lat="57.040035" lon="8.498597">
<ele>7.346385</ele>
<time>2026-07-15T08:18:01.000Z</time>
</trkpt>
<trkpt lat="57.040039" lon="8.498517">
<ele>7.317417</ele>
<time>2026-07-15T08:18:02.000Z</time>
</trkpt>
<trkpt lat="57.040039" lon="8.498441">
<ele>7.290014</ele>
<time>2026-07-15T08:18:03.000Z</time>
</trkpt>
<trkpt lat="57.040039" lon="8.498376">
<ele>7.266576</ele>
<time>2026-07-15T08:18:04.000Z</time>
</trkpt>
<trkpt lat="57.040043" lon="8.498298">
<ele>7.238327</ele>
<time>2026-07-15T08:18:05.000Z</time>
</trkpt>
<trkpt lat="57.040043" lon="8.498228">
<ele>7.213087</ele>
<time>2026-07-15T08:18:06.000Z</time>
</trkpt>
<trkpt lat="57.040039" lon="8.498156">
<ele>7.186991</ele>
<time>2026-07-15T08:18:07.000Z</time>
</trkpt>
<trkpt lat="57.040039" lon="8.498090">
<ele>7.163193</ele>
<time>2026-07-15T08:18:08.000Z</time>
</trkpt>
<trkpt lat="57.040039" lon="8.498029">
<ele>7.141198</ele>
<time>2026-07-15T08:18:09.000Z</time>
</trkpt>
<trkpt lat="57.040043" lon="8.497975">
<ele>7.157375</ele>
<time>2026-07-15T08:18:10.000Z</time>
</trkpt>
<trkpt lat="57.040043" lon="8.497922">
<ele>7.176508</ele>
<time>2026-07-15T08:18:11.000Z</time>
</trkpt>
<trkpt lat="57.040043" lon="8.497877">
<ele>7.192753</ele>
<time>2026-07-15T08:18:12.000Z</time>
</trkpt>
<trkpt lat="57.040035" lon="8.497833">
<ele>7.209500</ele>
<time>2026-07-15T08:18:13.000Z</time>
</trkpt>
<trkpt lat="57.040024" lon="8.497795">
<ele>7.225038</ele>
<time>2026-07-15T08:18:14.000Z</time>
</trkpt>
<trkpt lat="57.040012" lon="8.497761">
<ele>7.239669</ele>
<time>2026-07-15T08:18:15.000Z</time>
</trkpt>
<trkpt lat="57.040001" lon="8.497737">
<ele>7.250997</ele>
<time>2026-07-15T08:18:16.000Z</time>
</trkpt>
<trkpt lat="57.039989" lon="8.497717">
<ele>7.261745</ele>
<time>2026-07-15T08:18:17.000Z</time>
</trkpt>
<trkpt lat="57.039948" lon="8.497771">
<ele>7.295213</ele>
<time>2026-07-15T08:27:23.000Z</time>
</trkpt>
<trkpt lat="57.039948" lon="8.497771">
<ele>7.295213</ele>
<time>2026-07-15T08:27:24.000Z</time>
</trkpt>
<trkpt lat="57.039948" lon="8.497771">
<ele>7.295213</ele>
<time>2026-07-15T08:27:27.000Z</time>
</trkpt>
<trkpt lat="57.039997" lon="8.497943">
<ele>7.365301</ele>
<time>2026-07-15T08:32:28.000Z</time>
</trkpt>
<trkpt lat="57.039997" lon="8.497991">
<ele>7.382629</ele>
<time>2026-07-15T08:32:29.000Z</time>
</trkpt>
<trkpt lat="57.040001" lon="8.498056">
<ele>7.406243</ele>
<time>2026-07-15T08:32:30.000Z</time>
</trkpt>
<trkpt lat="57.039997" lon="8.498117">
<ele>7.428423</ele>
<time>2026-07-15T08:32:31.000Z</time>
</trkpt>
<trkpt lat="57.039993" lon="8.498181">
<ele>7.451678</ele>
<time>2026-07-15T08:32:32.000Z</time>
</trkpt>
<trkpt lat="57.039986" lon="8.498247">
<ele>7.475952</ele>
<time>2026-07-15T08:32:33.000Z</time>
</trkpt>
<trkpt lat="57.039986" lon="8.498314">
<ele>7.500139</ele>
<time>2026-07-15T08:32:34.000Z</time>
</trkpt>
<trkpt lat="57.039986" lon="8.498383">
<ele>7.525047</ele>
<time>2026-07-15T08:32:35.000Z</time>
</trkpt>
<trkpt lat="57.039986" lon="8.498454">
<ele>7.550678</ele>
<time>2026-07-15T08:32:36.000Z</time>
</trkpt>
<trkpt lat="57.039982" lon="8.498526">
<ele>7.576804</ele>
<time>2026-07-15T08:32:37.000Z</time>
</trkpt>
<trkpt lat="57.039982" lon="8.498599">
<ele>7.603157</ele>
<time>2026-07-15T08:32:38.000Z</time>
</trkpt>
<trkpt lat="57.039986" lon="8.498673">
<ele>7.630002</ele>
<time>2026-07-15T08:32:39.000Z</time>
</trkpt>
<trkpt lat="57.039986" lon="8.498744">
<ele>7.655632</ele>
<time>2026-07-15T08:32:40.000Z</time>
</trkpt>
<trkpt lat="57.039986" lon="8.498815">
<ele>7.681263</ele>
<time>2026-07-15T08:32:41.000Z</time>
</trkpt>
<trkpt lat="57.039990" lon="8.498883">
<ele>7.705954</ele>
<time>2026-07-15T08:32:42.000Z</time>
</trkpt>
<trkpt lat="57.039990" lon="8.498953">
<ele>7.731223</ele>
<time>2026-07-15T08:32:43.000Z</time>
</trkpt>
<trkpt lat="57.039990" lon="8.499027">
<ele>7.757936</ele>
<time>2026-07-15T08:32:44.000Z</time>
</trkpt>
<trkpt lat="57.039990" lon="8.499101">
<ele>7.784650</ele>
<time>2026-07-15T08:32:45.000Z</time>
</trkpt>
<trkpt lat="57.039990" lon="8.499178">
<ele>7.812446</ele>
<time>2026-07-15T08:32:46.000Z</time>
</trkpt>
<trkpt lat="57.039990" lon="8.499259">
<ele>7.841687</ele>
<time>2026-07-15T08:32:47.000Z</time>
</trkpt>
<trkpt lat="57.039993" lon="8.499342">
<ele>7.871715</ele>
<time>2026-07-15T08:32:48.000Z</time>
</trkpt>
<trkpt lat="57.039993" lon="8.499424">
<ele>7.901317</ele>
<time>2026-07-15T08:32:49.000Z</time>
</trkpt>
<trkpt lat="57.039993" lon="8.499504">
<ele>7.930196</ele>
<time>2026-07-15T08:32:50.000Z</time>
</trkpt>
<trkpt lat="57.039993" lon="8.499583">
<ele>7.958714</ele>
<time>2026-07-15T08:32:51.000Z</time>
</trkpt>
<trkpt lat="57.039993" lon="8.499660">
<ele>7.986511</ele>
<time>2026-07-15T08:32:52.000Z</time>
</trkpt>
<trkpt lat="57.039993" lon="8.499741">
<ele>8.015751</ele>
<time>2026-07-15T08:32:53.000Z</time>
</trkpt>
<trkpt lat="57.039993" lon="8.499820">
<ele>8.044270</ele>
<time>2026-07-15T08:32:54.000Z</time>
</trkpt>
<trkpt lat="57.039997" lon="8.499898">
<ele>8.072552</ele>
<time>2026-07-15T08:32:55.000Z</time>
</trkpt>
<trkpt lat="57.039997" lon="8.499974">
<ele>8.099987</ele>
<time>2026-07-15T08:32:56.000Z</time>
</trkpt>
<trkpt lat="57.039997" lon="8.500051">
<ele>8.127784</ele>
<time>2026-07-15T08:32:57.000Z</time>
</trkpt>
<trkpt lat="57.039997" lon="8.500127">
<ele>8.155219</ele>
<time>2026-07-15T08:32:58.000Z</time>
</trkpt>
<trkpt lat="57.040001" lon="8.500201">
<ele>8.182064</ele>
<time>2026-07-15T08:32:59.000Z</time>
</trkpt>
<trkpt lat="57.040001" lon="8.500273">
<ele>8.208056</ele>
<time>2026-07-15T08:33:00.000Z</time>
</trkpt>
<trkpt lat="57.040001" lon="8.500351">
<ele>8.236213</ele>
<time>2026-07-15T08:33:01.000Z</time>
</trkpt>
<trkpt lat="57.040001" lon="8.500427">
<ele>8.263649</ele>
<time>2026-07-15T08:33:02.000Z</time>
</trkpt>
<trkpt lat="57.040001" lon="8.500502">
<ele>8.290723</ele>
<time>2026-07-15T08:33:03.000Z</time>
</trkpt>
<trkpt lat="57.040001" lon="8.500579">
<ele>8.318520</ele>
<time>2026-07-15T08:33:04.000Z</time>
</trkpt>
<trkpt lat="57.040005" lon="8.500657">
<ele>8.354655</ele>
<time>2026-07-15T08:33:05.000Z</time>
</trkpt>
<trkpt lat="57.040005" lon="8.500731">
<ele>8.396452</ele>
<time>2026-07-15T08:33:06.000Z</time>
</trkpt>
<trkpt lat="57.040005" lon="8.500808">
<ele>8.439944</ele>
<time>2026-07-15T08:33:07.000Z</time>
</trkpt>
<trkpt lat="57.040005" lon="8.500882">
<ele>8.481741</ele>
<time>2026-07-15T08:33:08.000Z</time>
</trkpt>
<trkpt lat="57.040005" lon="8.500959">
<ele>8.525233</ele>
<time>2026-07-15T08:33:09.000Z</time>
</trkpt>
<trkpt lat="57.040009" lon="8.501038">
<ele>8.570047</ele>
<time>2026-07-15T08:33:10.000Z</time>
</trkpt>
<trkpt lat="57.040009" lon="8.501113">
<ele>8.612409</ele>
<time>2026-07-15T08:33:11.000Z</time>
</trkpt>
<trkpt lat="57.040009" lon="8.501195">
<ele>8.658725</ele>
<time>2026-07-15T08:33:12.000Z</time>
</trkpt>
<trkpt lat="57.040008" lon="8.501275">
<ele>8.703923</ele>
<time>2026-07-15T08:33:13.000Z</time>
</trkpt>
<trkpt lat="57.040005" lon="8.501353">
<ele>8.748090</ele>
<time>2026-07-15T08:33:14.000Z</time>
</trkpt>
<trkpt lat="57.040009" lon="8.501430">
<ele>8.791779</ele>
<time>2026-07-15T08:33:15.000Z</time>
</trkpt>
<trkpt lat="57.040009" lon="8.501509">
<ele>8.836401</ele>
<time>2026-07-15T08:33:16.000Z</time>
</trkpt>
<trkpt lat="57.040009" lon="8.501586">
<ele>8.879893</ele>
<time>2026-07-15T08:33:17.000Z</time>
</trkpt>
<trkpt lat="57.040009" lon="8.501663">
<ele>8.923384</ele>
<time>2026-07-15T08:33:18.000Z</time>
</trkpt>
<trkpt lat="57.040009" lon="8.501740">
<ele>8.966876</ele>
<time>2026-07-15T08:33:19.000Z</time>
</trkpt>
<trkpt lat="57.040009" lon="8.501819">
<ele>9.011498</ele>
<time>2026-07-15T08:33:20.000Z</time>
</trkpt>
<trkpt lat="57.040009" lon="8.501897">
<ele>9.055554</ele>
<time>2026-07-15T08:33:21.000Z</time>
</trkpt>
<trkpt lat="57.040009" lon="8.501979">
<ele>9.101870</ele>
<time>2026-07-15T08:33:22.000Z</time>
</trkpt>
<trkpt lat="57.040012" lon="8.502058">
<ele>9.146600</ele>
<time>2026-07-15T08:33:23.000Z</time>
</trkpt>
<trkpt lat="57.040012" lon="8.502138">
<ele>9.191786</ele>
<time>2026-07-15T08:33:24.000Z</time>
</trkpt>
<trkpt lat="57.040016" lon="8.502215">
<ele>9.235476</ele>
<time>2026-07-15T08:33:25.000Z</time>
</trkpt>
<trkpt lat="57.040016" lon="8.502293">
<ele>9.279532</ele>
<time>2026-07-15T08:33:26.000Z</time>
</trkpt>
<trkpt lat="57.040016" lon="8.502369">
<ele>9.322459</ele>
<time>2026-07-15T08:33:27.000Z</time>
</trkpt>
<trkpt lat="57.040020" lon="8.502443">
<ele>9.364462</ele>
<time>2026-07-15T08:33:28.000Z</time>
</trkpt>
<trkpt lat="57.040020" lon="8.502514">
<ele>9.404565</ele>
<time>2026-07-15T08:33:29.000Z</time>
</trkpt>
<trkpt lat="57.040024" lon="8.502583">
<ele>9.443759</ele>
<time>2026-07-15T08:33:30.000Z</time>
</trkpt>
<trkpt lat="57.040028" lon="8.502651">
<ele>9.482391</ele>
<time>2026-07-15T08:33:31.000Z</time>
</trkpt>
<trkpt lat="57.040031" lon="8.502723">
<ele>9.523178</ele>
<time>2026-07-15T08:33:32.000Z</time>
</trkpt>
<trkpt lat="57.040032" lon="8.502796">
<ele>9.564423</ele>
<time>2026-07-15T08:33:33.000Z</time>
</trkpt>
<trkpt lat="57.040035" lon="8.502871">
<ele>9.606900</ele>
<time>2026-07-15T08:33:34.000Z</time>
</trkpt>
<trkpt lat="57.040035" lon="8.502948">
<ele>9.650392</ele>
<time>2026-07-15T08:33:35.000Z</time>
</trkpt>
<trkpt lat="57.040035" lon="8.503025">
<ele>9.693883</ele>
<time>2026-07-15T08:33:36.000Z</time>
</trkpt>
<trkpt lat="57.040039" lon="8.503105">
<ele>9.739260</ele>
<time>2026-07-15T08:33:37.000Z</time>
</trkpt>
<trkpt lat="57.040039" lon="8.503187">
<ele>9.785576</ele>
<time>2026-07-15T08:33:38.000Z</time>
</trkpt>
<trkpt lat="57.040039" lon="8.503270">
<ele>9.832457</ele>
<time>2026-07-15T08:33:39.000Z</time>
</trkpt>
<trkpt lat="57.040035" lon="8.503357">
<ele>9.881772</ele>
<time>2026-07-15T08:33:40.000Z</time>
</trkpt>
<trkpt lat="57.040035" lon="8.503445">
<ele>9.931477</ele>
<time>2026-07-15T08:33:41.000Z</time>
</trkpt>
<trkpt lat="57.040035" lon="8.503537">
<ele>9.983441</ele>
<time>2026-07-15T08:33:42.000Z</time>
</trkpt>
<trkpt lat="57.040035" lon="8.503629">
<ele>10.035405</ele>
<time>2026-07-15T08:33:43.000Z</time>
</trkpt>
<trkpt lat="57.040039" lon="8.503723">
<ele>10.088661</ele>
<time>2026-07-15T08:33:44.000Z</time>
</trkpt>
<trkpt lat="57.040039" lon="8.503819">
<ele>10.142884</ele>
<time>2026-07-15T08:33:45.000Z</time>
</trkpt>
<trkpt lat="57.040039" lon="8.503913">
<ele>10.195978</ele>
<time>2026-07-15T08:33:46.000Z</time>
</trkpt>
<trkpt lat="57.040039" lon="8.504011">
<ele>10.194268</ele>
<time>2026-07-15T08:33:47.000Z</time>
</trkpt>
<trkpt lat="57.040039" lon="8.504112">
<ele>10.187624</ele>
<time>2026-07-15T08:33:48.000Z</time>
</trkpt>
<trkpt lat="57.040039" lon="8.504210">
<ele>10.181178</ele>
<time>2026-07-15T08:33:49.000Z</time>
</trkpt>
<trkpt lat="57.040039" lon="8.504311">
<ele>10.174535</ele>
<time>2026-07-15T08:33:50.000Z</time>
</trkpt>
<trkpt lat="57.040039" lon="8.504409">
<ele>10.168089</ele>
<time>2026-07-15T08:33:51.000Z</time>
</trkpt>
<trkpt lat="57.040039" lon="8.504507">
<ele>10.161643</ele>
<time>2026-07-15T08:33:52.000Z</time>
</trkpt>
<trkpt lat="57.040043" lon="8.504605">
<ele>10.155179</ele>
<time>2026-07-15T08:33:53.000Z</time>
</trkpt>
<trkpt lat="57.040047" lon="8.504702">
<ele>10.148780</ele>
<time>2026-07-15T08:33:54.000Z</time>
</trkpt>
<trkpt lat="57.040047" lon="8.504802">
<ele>10.142203</ele>
<time>2026-07-15T08:33:55.000Z</time>
</trkpt>
<trkpt lat="57.040047" lon="8.504893">
<ele>10.136217</ele>
<time>2026-07-15T08:33:56.000Z</time>
</trkpt>
<trkpt lat="57.040047" lon="8.504993">
<ele>10.129639</ele>
<time>2026-07-15T08:33:57.000Z</time>
</trkpt>
<trkpt lat="57.040047" lon="8.505087">
<ele>10.123457</ele>
<time>2026-07-15T08:33:58.000Z</time>
</trkpt>
<trkpt lat="57.040047" lon="8.505184">
<ele>10.117076</ele>
<time>2026-07-15T08:33:59.000Z</time>
</trkpt>
<trkpt lat="57.040050" lon="8.505279">
<ele>10.110817</ele>
<time>2026-07-15T08:34:00.000Z</time>
</trkpt>
<trkpt lat="57.040047" lon="8.505377">
<ele>10.104361</ele>
<time>2026-07-15T08:34:01.000Z</time>
</trkpt>
<trkpt lat="57.040047" lon="8.505475">
<ele>10.097915</ele>
<time>2026-07-15T08:34:02.000Z</time>
</trkpt>
<trkpt lat="57.040047" lon="8.505573">
<ele>10.091469</ele>
<time>2026-07-15T08:34:03.000Z</time>
</trkpt>
<trkpt lat="57.040047" lon="8.505673">
<ele>10.084891</ele>
<time>2026-07-15T08:34:04.000Z</time>
</trkpt>
<trkpt lat="57.040047" lon="8.505771">
<ele>10.078445</ele>
<time>2026-07-15T08:34:05.000Z</time>
</trkpt>
<trkpt lat="57.040047" lon="8.505870">
<ele>10.071933</ele>
<time>2026-07-15T08:34:06.000Z</time>
</trkpt>
<trkpt lat="57.040051" lon="8.505966">
<ele>10.065600</ele>
<time>2026-07-15T08:34:07.000Z</time>
</trkpt>
<trkpt lat="57.040051" lon="8.506063">
<ele>10.059220</ele>
<time>2026-07-15T08:34:08.000Z</time>
</trkpt>
<trkpt lat="57.040051" lon="8.506161">
<ele>10.052774</ele>
<time>2026-07-15T08:34:09.000Z</time>
</trkpt>
<trkpt lat="57.040051" lon="8.506259">
<ele>10.046328</ele>
<time>2026-07-15T08:34:10.000Z</time>
</trkpt>
<trkpt lat="57.040054" lon="8.506360">
<ele>10.039675</ele>
<time>2026-07-15T08:34:11.000Z</time>
</trkpt>
<trkpt lat="57.040054" lon="8.506458">
<ele>10.033229</ele>
<time>2026-07-15T08:34:12.000Z</time>
</trkpt>
<trkpt lat="57.040054" lon="8.506557">
<ele>10.026717</ele>
<time>2026-07-15T08:34:13.000Z</time>
</trkpt>
<trkpt lat="57.040054" lon="8.506657">
<ele>10.020139</ele>
<time>2026-07-15T08:34:14.000Z</time>
</trkpt>
<trkpt lat="57.040058" lon="8.506757">
<ele>10.013544</ele>
<time>2026-07-15T08:34:15.000Z</time>
</trkpt>
<trkpt lat="57.040058" lon="8.506856">
<ele>10.007032</ele>
<time>2026-07-15T08:34:16.000Z</time>
</trkpt>
<trkpt lat="57.040062" lon="8.506956">
<ele>10.000437</ele>
<time>2026-07-15T08:34:17.000Z</time>
</trkpt>
<trkpt lat="57.040062" lon="8.507055">
<ele>9.993925</ele>
<time>2026-07-15T08:34:18.000Z</time>
</trkpt>
<trkpt lat="57.040066" lon="8.507154">
<ele>9.987395</ele>
<time>2026-07-15T08:34:19.000Z</time>
</trkpt>
<trkpt lat="57.040073" lon="8.507253">
<ele>9.984725</ele>
<time>2026-07-15T08:34:20.000Z</time>
</trkpt>
<trkpt lat="57.040081" lon="8.507352">
<ele>9.991393</ele>
<time>2026-07-15T08:34:21.000Z</time>
</trkpt>
<trkpt lat="57.040093" lon="8.507451">
<ele>9.998150</ele>
<time>2026-07-15T08:34:22.000Z</time>
</trkpt>
<trkpt lat="57.040100" lon="8.507550">
<ele>10.004801</ele>
<time>2026-07-15T08:34:23.000Z</time>
</trkpt>
<trkpt lat="57.040108" lon="8.507645">
<ele>10.011205</ele>
<time>2026-07-15T08:34:24.000Z</time>
</trkpt>
<trkpt lat="57.040115" lon="8.507739">
<ele>10.017526</ele>
<time>2026-07-15T08:34:25.000Z</time>
</trkpt>
<trkpt lat="57.040127" lon="8.507830">
<ele>10.023764</ele>
<time>2026-07-15T08:34:26.000Z</time>
</trkpt>
<trkpt lat="57.040135" lon="8.507925">
<ele>10.030169</ele>
<time>2026-07-15T08:34:27.000Z</time>
</trkpt>
<trkpt lat="57.040146" lon="8.508016">
<ele>10.036379</ele>
<time>2026-07-15T08:34:28.000Z</time>
</trkpt>
<trkpt lat="57.040154" lon="8.508112">
<ele>10.042849</ele>
<time>2026-07-15T08:34:29.000Z</time>
</trkpt>
<trkpt lat="57.040165" lon="8.508205">
<ele>10.049190</ele>
<time>2026-07-15T08:34:30.000Z</time>
</trkpt>
<trkpt lat="57.040177" lon="8.508299">
<ele>10.055622</ele>
<time>2026-07-15T08:34:31.000Z</time>
</trkpt>
<trkpt lat="57.040188" lon="8.508393">
<ele>10.062028</ele>
<time>2026-07-15T08:34:32.000Z</time>
</trkpt>
<trkpt lat="57.040203" lon="8.508485">
<ele>10.068426</ele>
<time>2026-07-15T08:34:33.000Z</time>
</trkpt>
<trkpt lat="57.040215" lon="8.508580">
<ele>10.074924</ele>
<time>2026-07-15T08:34:34.000Z</time>
</trkpt>
<trkpt lat="57.040226" lon="8.508676">
<ele>10.081460</ele>
<time>2026-07-15T08:34:35.000Z</time>
</trkpt>
<trkpt lat="57.040242" lon="8.508769">
<ele>10.087958</ele>
<time>2026-07-15T08:34:36.000Z</time>
</trkpt>
<trkpt lat="57.040256" lon="8.508859">
<ele>10.094194</ele>
<time>2026-07-15T08:34:37.000Z</time>
</trkpt>
<trkpt lat="57.040272" lon="8.508952">
<ele>10.100692</ele>
<time>2026-07-15T08:34:38.000Z</time>
</trkpt>
<trkpt lat="57.040287" lon="8.509043">
<ele>10.107027</ele>
<time>2026-07-15T08:34:39.000Z</time>
</trkpt>
<trkpt lat="57.040303" lon="8.509137">
<ele>10.113589</ele>
<time>2026-07-15T08:34:40.000Z</time>
</trkpt>
<trkpt lat="57.040322" lon="8.509230">
<ele>10.120207</ele>
<time>2026-07-15T08:34:41.000Z</time>
</trkpt>
<trkpt lat="57.040340" lon="8.509320">
<ele>10.126595</ele>
<time>2026-07-15T08:34:42.000Z</time>
</trkpt>
<trkpt lat="57.040364" lon="8.509412">
<ele>10.133393</ele>
<time>2026-07-15T08:34:43.000Z</time>
</trkpt>
<trkpt lat="57.040387" lon="8.509501">
<ele>10.139957</ele>
<time>2026-07-15T08:34:44.000Z</time>
</trkpt>
<trkpt lat="57.040410" lon="8.509592">
<ele>10.146642</ele>
<time>2026-07-15T08:34:45.000Z</time>
</trkpt>
<trkpt lat="57.040436" lon="8.509681">
<ele>10.153372</ele>
<time>2026-07-15T08:34:46.000Z</time>
</trkpt>
<trkpt lat="57.040459" lon="8.509773">
<ele>10.160117</ele>
<time>2026-07-15T08:34:47.000Z</time>
</trkpt>
<trkpt lat="57.040486" lon="8.509860">
<ele>10.166790</ele>
<time>2026-07-15T08:34:48.000Z</time>
</trkpt>
<trkpt lat="57.040517" lon="8.509947">
<ele>10.173718</ele>
<time>2026-07-15T08:34:49.000Z</time>
</trkpt>
<trkpt lat="57.040547" lon="8.510033">
<ele>10.180524</ele>
<time>2026-07-15T08:34:50.000Z</time>
</trkpt>
<trkpt lat="57.040577" lon="8.510120">
<ele>10.187386</ele>
<time>2026-07-15T08:34:51.000Z</time>
</trkpt>
<trkpt lat="57.040608" lon="8.510207">
<ele>10.194315</ele>
<time>2026-07-15T08:34:52.000Z</time>
</trkpt>
<trkpt lat="57.040638" lon="8.510291">
<ele>10.201009</ele>
<time>2026-07-15T08:34:53.000Z</time>
</trkpt>
<trkpt lat="57.040669" lon="8.510374">
<ele>10.201034</ele>
<time>2026-07-15T08:34:54.000Z</time>
</trkpt>
<trkpt lat="57.040703" lon="8.510457">
<ele>10.198114</ele>
<time>2026-07-15T08:34:55.000Z</time>
</trkpt>
<trkpt lat="57.040738" lon="8.510537">
<ele>10.195229</ele>
<time>2026-07-15T08:34:56.000Z</time>
</trkpt>
<trkpt lat="57.040775" lon="8.510609">
<ele>10.192445</ele>
<time>2026-07-15T08:34:57.000Z</time>
</trkpt>
<trkpt lat="57.040814" lon="8.510684">
<ele>10.189530</ele>
<time>2026-07-15T08:34:58.000Z</time>
</trkpt>
<trkpt lat="57.040852" lon="8.510762">
<ele>10.186587</ele>
<time>2026-07-15T08:34:59.000Z</time>
</trkpt>
<trkpt lat="57.040894" lon="8.510838">
<ele>10.183542</ele>
<time>2026-07-15T08:35:00.000Z</time>
</trkpt>
<trkpt lat="57.040932" lon="8.510913">
<ele>10.180662</ele>
<time>2026-07-15T08:35:01.000Z</time>
</trkpt>
<trkpt lat="57.040970" lon="8.510984">
<ele>10.177863</ele>
<time>2026-07-15T08:35:02.000Z</time>
</trkpt>
<trkpt lat="57.041012" lon="8.511054">
<ele>10.174934</ele>
<time>2026-07-15T08:35:03.000Z</time>
</trkpt>
<trkpt lat="57.041055" lon="8.511123">
<ele>10.171986</ele>
<time>2026-07-15T08:35:04.000Z</time>
</trkpt>
<trkpt lat="57.041100" lon="8.511192">
<ele>10.168959</ele>
<time>2026-07-15T08:35:05.000Z</time>
</trkpt>
<trkpt lat="57.041142" lon="8.511257">
<ele>10.166122</ele>
<time>2026-07-15T08:35:06.000Z</time>
</trkpt>
<trkpt lat="57.041184" lon="8.511322">
<ele>10.163286</ele>
<time>2026-07-15T08:35:07.000Z</time>
</trkpt>
<trkpt lat="57.041230" lon="8.511390">
<ele>10.160237</ele>
<time>2026-07-15T08:35:08.000Z</time>
</trkpt>
<trkpt lat="57.041276" lon="8.511456">
<ele>10.157222</ele>
<time>2026-07-15T08:35:09.000Z</time>
</trkpt>
<trkpt lat="57.041318" lon="8.511524">
<ele>10.154331</ele>
<time>2026-07-15T08:35:10.000Z</time>
</trkpt>
<trkpt lat="57.041363" lon="8.511591">
<ele>10.151340</ele>
<time>2026-07-15T08:35:11.000Z</time>
</trkpt>
<trkpt lat="57.041409" lon="8.511656">
<ele>10.148342</ele>
<time>2026-07-15T08:35:12.000Z</time>
</trkpt>
<trkpt lat="57.041455" lon="8.511723">
<ele>10.145311</ele>
<time>2026-07-15T08:35:13.000Z</time>
</trkpt>
<trkpt lat="57.041501" lon="8.511790">
<ele>10.142279</ele>
<time>2026-07-15T08:35:14.000Z</time>
</trkpt>
<trkpt lat="57.041547" lon="8.511856">
<ele>10.139264</ele>
<time>2026-07-15T08:35:15.000Z</time>
</trkpt>
<trkpt lat="57.041592" lon="8.511921">
<ele>10.136308</ele>
<time>2026-07-15T08:35:16.000Z</time>
</trkpt>
<trkpt lat="57.041634" lon="8.511983">
<ele>10.133525</ele>
<time>2026-07-15T08:35:17.000Z</time>
</trkpt>
<trkpt lat="57.041684" lon="8.512044">
<ele>10.130425</ele>
<time>2026-07-15T08:35:18.000Z</time>
</trkpt>
<trkpt lat="57.041730" lon="8.512108">
<ele>10.127445</ele>
<time>2026-07-15T08:35:19.000Z</time>
</trkpt>
<trkpt lat="57.041776" lon="8.512171">
<ele>10.124482</ele>
<time>2026-07-15T08:35:20.000Z</time>
</trkpt>
<trkpt lat="57.041821" lon="8.512235">
<ele>10.121543</ele>
<time>2026-07-15T08:35:21.000Z</time>
</trkpt>
<trkpt lat="57.041871" lon="8.512296">
<ele>10.118443</ele>
<time>2026-07-15T08:35:22.000Z</time>
</trkpt>
<trkpt lat="57.041913" lon="8.512358">
<ele>10.115660</ele>
<time>2026-07-15T08:35:23.000Z</time>
</trkpt>
<trkpt lat="57.041959" lon="8.512423">
<ele>10.112663</ele>
<time>2026-07-15T08:35:24.000Z</time>
</trkpt>
<trkpt lat="57.042004" lon="8.512489">
<ele>10.111302</ele>
<time>2026-07-15T08:35:25.000Z</time>
</trkpt>
<trkpt lat="57.042045" lon="8.512556">
<ele>10.119505</ele>
<time>2026-07-15T08:35:26.000Z</time>
</trkpt>
<trkpt lat="57.042092" lon="8.512625">
<ele>10.128500</ele>
<time>2026-07-15T08:35:27.000Z</time>
</trkpt>
<trkpt lat="57.042134" lon="8.512689">
<ele>10.136658</ele>
<time>2026-07-15T08:35:28.000Z</time>
</trkpt>
<trkpt lat="57.042179" lon="8.512754">
<ele>10.145215</ele>
<time>2026-07-15T08:35:29.000Z</time>
</trkpt>
<trkpt lat="57.042226" lon="8.512820">
<ele>10.154060</ele>
<time>2026-07-15T08:35:30.000Z</time>
</trkpt>
<trkpt lat="57.042271" lon="8.512882">
<ele>10.162469</ele>
<time>2026-07-15T08:35:31.000Z</time>
</trkpt>
<trkpt lat="57.042317" lon="8.512948">
<ele>10.171195</ele>
<time>2026-07-15T08:35:32.000Z</time>
</trkpt>
<trkpt lat="57.042359" lon="8.513013">
<ele>10.179404</ele>
<time>2026-07-15T08:35:33.000Z</time>
</trkpt>
<trkpt lat="57.042401" lon="8.513076">
<ele>10.187510</ele>
<time>2026-07-15T08:35:34.000Z</time>
</trkpt>
<trkpt lat="57.042451" lon="8.513141">
<ele>10.196668</ele>
<time>2026-07-15T08:35:35.000Z</time>
</trkpt>
<trkpt lat="57.042493" lon="8.513210">
<ele>10.205091</ele>
<time>2026-07-15T08:35:36.000Z</time>
</trkpt>
<trkpt lat="57.042535" lon="8.513276">
<ele>10.213353</ele>
<time>2026-07-15T08:35:37.000Z</time>
</trkpt>
<trkpt lat="57.042580" lon="8.513343">
<ele>10.222012</ele>
<time>2026-07-15T08:35:38.000Z</time>
</trkpt>
<trkpt lat="57.042623" lon="8.513408">
<ele>10.230337</ele>
<time>2026-07-15T08:35:39.000Z</time>
</trkpt>
<trkpt lat="57.042669" lon="8.513469">
<ele>10.238819</ele>
<time>2026-07-15T08:35:40.000Z</time>
</trkpt>
<trkpt lat="57.042714" lon="8.513538">
<ele>10.247581</ele>
<time>2026-07-15T08:35:41.000Z</time>
</trkpt>
<trkpt lat="57.042756" lon="8.513599">
<ele>10.255585</ele>
<time>2026-07-15T08:35:42.000Z</time>
</trkpt>
<trkpt lat="57.042794" lon="8.513660">
<ele>10.263129</ele>
<time>2026-07-15T08:35:43.000Z</time>
</trkpt>
<trkpt lat="57.042821" lon="8.513723">
<ele>10.269653</ele>
<time>2026-07-15T08:35:44.000Z</time>
</trkpt>
<trkpt lat="57.042847" lon="8.513787">
<ele>10.276151</ele>
<time>2026-07-15T08:35:45.000Z</time>
</trkpt>
<trkpt lat="57.042874" lon="8.513848">
<ele>10.282548</ele>
<time>2026-07-15T08:35:46.000Z</time>
</trkpt>
<trkpt lat="57.042909" lon="8.513903">
<ele>10.289434</ele>
<time>2026-07-15T08:35:47.000Z</time>
</trkpt>
<trkpt lat="57.042939" lon="8.513965">
<ele>10.296183</ele>
<time>2026-07-15T08:35:48.000Z</time>
</trkpt>
<trkpt lat="57.042965" lon="8.514033">
<ele>10.302945</ele>
<time>2026-07-15T08:35:49.000Z</time>
</trkpt>
<trkpt lat="57.042992" lon="8.514106">
<ele>10.310125</ele>
<time>2026-07-15T08:35:50.000Z</time>
</trkpt>
<trkpt lat="57.043007" lon="8.514185">
<ele>10.316932</ele>
<time>2026-07-15T08:35:51.000Z</time>
</trkpt>
<trkpt lat="57.043015" lon="8.514264">
<ele>10.323469</ele>
<time>2026-07-15T08:35:52.000Z</time>
</trkpt>
<trkpt lat="57.043018" lon="8.514340">
<ele>10.329667</ele>
<time>2026-07-15T08:35:53.000Z</time>
</trkpt>
<trkpt lat="57.043022" lon="8.514404">
<ele>10.334908</ele>
<time>2026-07-15T08:35:54.000Z</time>
</trkpt>
<trkpt lat="57.043026" lon="8.514459">
<ele>10.339421</ele>
<time>2026-07-15T08:35:55.000Z</time>
</trkpt>
<trkpt lat="57.043030" lon="8.514504">
<ele>10.343131</ele>
<time>2026-07-15T08:35:56.000Z</time>
</trkpt>
<trkpt lat="57.043038" lon="8.514537">
<ele>10.346069</ele>
<time>2026-07-15T08:35:57.000Z</time>
</trkpt>
<trkpt lat="57.043072" lon="8.514546">
<ele>10.351206</ele>
<time>2026-07-15T08:36:06.000Z</time>
</trkpt>
<trkpt lat="57.043090" lon="8.514545">
<ele>10.353899</ele>
<time>2026-07-15T08:36:07.000Z</time>
</trkpt>
<trkpt lat="57.043114" lon="8.514540">
<ele>10.357510</ele>
<time>2026-07-15T08:36:08.000Z</time>
</trkpt>
<trkpt lat="57.043141" lon="8.514539">
<ele>10.361549</ele>
<time>2026-07-15T08:36:09.000Z</time>
</trkpt>
<trkpt lat="57.043171" lon="8.514535">
<ele>10.366046</ele>
<time>2026-07-15T08:36:10.000Z</time>
</trkpt>
<trkpt lat="57.043198" lon="8.514530">
<ele>10.370104</ele>
<time>2026-07-15T08:36:11.000Z</time>
</trkpt>
<trkpt lat="57.043225" lon="8.514525">
<ele>10.374162</ele>
<time>2026-07-15T08:36:12.000Z</time>
</trkpt>
<trkpt lat="57.043248" lon="8.514531">
<ele>10.377636</ele>
<time>2026-07-15T08:36:13.000Z</time>
</trkpt>
<trkpt lat="57.043263" lon="8.514558">
<ele>10.374152</ele>
<time>2026-07-15T08:36:14.000Z</time>
</trkpt>
<trkpt lat="57.043278" lon="8.514606">
<ele>10.361303</ele>
<time>2026-07-15T08:36:15.000Z</time>
</trkpt>
<trkpt lat="57.043297" lon="8.514651">
<ele>10.348080</ele>
<time>2026-07-15T08:36:16.000Z</time>
</trkpt>
<trkpt lat="57.043328" lon="8.514675">
<ele>10.333728</ele>
<time>2026-07-15T08:36:17.000Z</time>
</trkpt>
<trkpt lat="57.043359" lon="8.514689">
<ele>10.320107</ele>
<time>2026-07-15T08:36:18.000Z</time>
</trkpt>
<trkpt lat="57.043397" lon="8.514691">
<ele>10.303886</ele>
<time>2026-07-15T08:36:19.000Z</time>
</trkpt>
<trkpt lat="57.043435" lon="8.514691">
<ele>10.287672</ele>
<time>2026-07-15T08:36:20.000Z</time>
</trkpt>
<trkpt lat="57.043480" lon="8.514688">
<ele>10.268458</ele>
<time>2026-07-15T08:36:21.000Z</time>
</trkpt>
<trkpt lat="57.043523" lon="8.514678">
<ele>10.249964</ele>
<time>2026-07-15T08:36:22.000Z</time>
</trkpt>
<trkpt lat="57.043568" lon="8.514670">
<ele>10.230673</ele>
<time>2026-07-15T08:36:23.000Z</time>
</trkpt>
<trkpt lat="57.043618" lon="8.514662">
<ele>10.209258</ele>
<time>2026-07-15T08:36:24.000Z</time>
</trkpt>
<trkpt lat="57.043668" lon="8.514650">
<ele>10.187743</ele>
<time>2026-07-15T08:36:25.000Z</time>
</trkpt>
<trkpt lat="57.043710" lon="8.514638">
<ele>10.169606</ele>
<time>2026-07-15T08:36:26.000Z</time>
</trkpt>
<trkpt lat="57.043755" lon="8.514628">
<ele>10.150265</ele>
<time>2026-07-15T08:36:27.000Z</time>
</trkpt>
<trkpt lat="57.043801" lon="8.514617">
<ele>10.130472</ele>
<time>2026-07-15T08:36:28.000Z</time>
</trkpt>
<trkpt lat="57.043851" lon="8.514604">
<ele>10.108925</ele>
<time>2026-07-15T08:36:29.000Z</time>
</trkpt>
<trkpt lat="57.043897" lon="8.514597">
<ele>10.089230</ele>
<time>2026-07-15T08:36:30.000Z</time>
</trkpt>
<trkpt lat="57.043942" lon="8.514586">
<ele>10.069860</ele>
<time>2026-07-15T08:36:31.000Z</time>
</trkpt>
<trkpt lat="57.043984" lon="8.514580">
<ele>10.051885</ele>
<time>2026-07-15T08:36:32.000Z</time>
</trkpt>
<trkpt lat="57.044022" lon="8.514571">
<ele>10.035537</ele>
<time>2026-07-15T08:36:33.000Z</time>
</trkpt>
<trkpt lat="57.044052" lon="8.514566">
<ele>10.022684</ele>
<time>2026-07-15T08:36:34.000Z</time>
</trkpt>
<trkpt lat="57.044071" lon="8.514572">
<ele>10.014458</ele>
<time>2026-07-15T08:36:35.000Z</time>
</trkpt>
<trkpt lat="57.044086" lon="8.514602">
<ele>10.005000</ele>
<time>2026-07-15T08:36:36.000Z</time>
</trkpt>
<trkpt lat="57.044090" lon="8.514638">
<ele>9.996471</ele>
<time>2026-07-15T08:36:37.000Z</time>
</trkpt>
<trkpt lat="57.044094" lon="8.514676">
<ele>9.987487</ele>
<time>2026-07-15T08:36:38.000Z</time>
</trkpt>
<trkpt lat="57.044090" lon="8.514714">
<ele>9.978503</ele>
<time>2026-07-15T08:36:39.000Z</time>
</trkpt>
<trkpt lat="57.044082" lon="8.514749">
<ele>9.969691</ele>
<time>2026-07-15T08:36:40.000Z</time>
</trkpt>
<trkpt lat="57.044075" lon="8.514780">
<ele>9.961900</ele>
<time>2026-07-15T08:36:41.000Z</time>
</trkpt>
<trkpt lat="57.044067" lon="8.514810">
<ele>9.954145</ele>
<time>2026-07-15T08:36:42.000Z</time>
</trkpt>
<trkpt lat="57.044075" lon="8.514839">
<ele>9.946597</ele>
<time>2026-07-15T08:36:43.000Z</time>
</trkpt>
<trkpt lat="57.044087" lon="8.514857">
<ele>9.939989</ele>
<time>2026-07-15T08:36:44.000Z</time>
</trkpt>
<trkpt lat="57.044114" lon="8.514867">
<ele>9.928236</ele>
<time>2026-07-15T08:36:45.000Z</time>
</trkpt>
<trkpt lat="57.044140" lon="8.514867">
<ele>9.917142</ele>
<time>2026-07-15T08:36:46.000Z</time>
</trkpt>
<trkpt lat="57.044174" lon="8.514862">
<ele>9.902589</ele>
<time>2026-07-15T08:36:47.000Z</time>
</trkpt>
<trkpt lat="57.044209" lon="8.514855">
<ele>9.887566</ele>
<time>2026-07-15T08:36:48.000Z</time>
</trkpt>
<trkpt lat="57.044247" lon="8.514847">
<ele>9.871246</ele>
<time>2026-07-15T08:36:49.000Z</time>
</trkpt>
<trkpt lat="57.044290" lon="8.514840">
<ele>9.852827</ele>
<time>2026-07-15T08:36:50.000Z</time>
</trkpt>
<trkpt lat="57.044331" lon="8.514836">
<ele>9.835308</ele>
<time>2026-07-15T08:36:51.000Z</time>
</trkpt>
<trkpt lat="57.044373" lon="8.514833">
<ele>9.817373</ele>
<time>2026-07-15T08:36:52.000Z</time>
</trkpt>
<trkpt lat="57.044419" lon="8.514825">
<ele>9.797658</ele>
<time>2026-07-15T08:36:53.000Z</time>
</trkpt>
<trkpt lat="57.044461" lon="8.514818">
<ele>9.779663</ele>
<time>2026-07-15T08:36:54.000Z</time>
</trkpt>
<trkpt lat="57.044507" lon="8.514815">
<ele>9.760023</ele>
<time>2026-07-15T08:36:55.000Z</time>
</trkpt>
<trkpt lat="57.044553" lon="8.514811">
<ele>9.740373</ele>
<time>2026-07-15T08:36:56.000Z</time>
</trkpt>
<trkpt lat="57.044602" lon="8.514809">
<ele>9.719460</ele>
<time>2026-07-15T08:36:57.000Z</time>
</trkpt>
<trkpt lat="57.044648" lon="8.514803">
<ele>9.699783</ele>
<time>2026-07-15T08:36:58.000Z</time>
</trkpt>
<trkpt lat="57.044698" lon="8.514800">
<ele>9.678437</ele>
<time>2026-07-15T08:36:59.000Z</time>
</trkpt>
<trkpt lat="57.044751" lon="8.514798">
<ele>9.655818</ele>
<time>2026-07-15T08:37:00.000Z</time>
</trkpt>
<trkpt lat="57.044801" lon="8.514798">
<ele>9.634483</ele>
<time>2026-07-15T08:37:01.000Z</time>
</trkpt>
<trkpt lat="57.044846" lon="8.514802">
<ele>9.615260</ele>
<time>2026-07-15T08:37:02.000Z</time>
</trkpt>
<trkpt lat="57.044899" lon="8.514805">
<ele>9.581732</ele>
<time>2026-07-15T08:37:03.000Z</time>
</trkpt>
<trkpt lat="57.044950" lon="8.514802">
<ele>9.547439</ele>
<time>2026-07-15T08:37:04.000Z</time>
</trkpt>
<trkpt lat="57.044999" lon="8.514796">
<ele>9.514434</ele>
<time>2026-07-15T08:37:05.000Z</time>
</trkpt>
<trkpt lat="57.045048" lon="8.514795">
<ele>9.481500</ele>
<time>2026-07-15T08:37:06.000Z</time>
</trkpt>
<trkpt lat="57.045098" lon="8.514798">
<ele>9.447878</ele>
<time>2026-07-15T08:37:07.000Z</time>
</trkpt>
<trkpt lat="57.045152" lon="8.514803">
<ele>9.411539</ele>
<time>2026-07-15T08:37:08.000Z</time>
</trkpt>
<trkpt lat="57.045201" lon="8.514807">
<ele>9.378575</ele>
<time>2026-07-15T08:37:09.000Z</time>
</trkpt>
<trkpt lat="57.045255" lon="8.514807">
<ele>9.342282</ele>
<time>2026-07-15T08:37:10.000Z</time>
</trkpt>
<trkpt lat="57.045308" lon="8.514803">
<ele>9.306632</ele>
<time>2026-07-15T08:37:11.000Z</time>
</trkpt>
<trkpt lat="57.045361" lon="8.514803">
<ele>9.271012</ele>
<time>2026-07-15T08:37:12.000Z</time>
</trkpt>
<trkpt lat="57.045415" lon="8.514809">
<ele>9.234653</ele>
<time>2026-07-15T08:37:13.000Z</time>
</trkpt>
<trkpt lat="57.045468" lon="8.514812">
<ele>9.199016</ele>
<time>2026-07-15T08:37:14.000Z</time>
</trkpt>
<trkpt lat="57.045522" lon="8.514815">
<ele>9.162707</ele>
<time>2026-07-15T08:37:15.000Z</time>
</trkpt>
<trkpt lat="57.045579" lon="8.514816">
<ele>9.124397</ele>
<time>2026-07-15T08:37:16.000Z</time>
</trkpt>
<trkpt lat="57.045632" lon="8.514818">
<ele>9.088769</ele>
<time>2026-07-15T08:37:17.000Z</time>
</trkpt>
<trkpt lat="57.045686" lon="8.514820">
<ele>9.052469</ele>
<time>2026-07-15T08:37:18.000Z</time>
</trkpt>
<trkpt lat="57.045739" lon="8.514830">
<ele>9.016662</ele>
<time>2026-07-15T08:37:19.000Z</time>
</trkpt>
<trkpt lat="57.045793" lon="8.514840">
<ele>8.980185</ele>
<time>2026-07-15T08:37:20.000Z</time>
</trkpt>
<trkpt lat="57.045845" lon="8.514847">
<ele>8.945144</ele>
<time>2026-07-15T08:37:21.000Z</time>
</trkpt>
<trkpt lat="57.045899" lon="8.514852">
<ele>8.908805</ele>
<time>2026-07-15T08:37:22.000Z</time>
</trkpt>
<trkpt lat="57.045953" lon="8.514859">
<ele>8.872423</ele>
<time>2026-07-15T08:37:23.000Z</time>
</trkpt>
<trkpt lat="57.046010" lon="8.514867">
<ele>8.834003</ele>
<time>2026-07-15T08:37:24.000Z</time>
</trkpt>
<trkpt lat="57.046067" lon="8.514876">
<ele>8.795553</ele>
<time>2026-07-15T08:37:25.000Z</time>
</trkpt>
<trkpt lat="57.046124" lon="8.514883">
<ele>8.757159</ele>
<time>2026-07-15T08:37:26.000Z</time>
</trkpt>
<trkpt lat="57.046182" lon="8.514890">
<ele>8.718094</ele>
<time>2026-07-15T08:37:27.000Z</time>
</trkpt>
<trkpt lat="57.046239" lon="8.514900">
<ele>8.679612</ele>
<time>2026-07-15T08:37:28.000Z</time>
</trkpt>
<trkpt lat="57.046296" lon="8.514909">
<ele>8.641162</ele>
<time>2026-07-15T08:37:29.000Z</time>
</trkpt>
<trkpt lat="57.046357" lon="8.514917">
<ele>8.600061</ele>
<time>2026-07-15T08:37:30.000Z</time>
</trkpt>
<trkpt lat="57.046414" lon="8.514927">
<ele>8.561578</ele>
<time>2026-07-15T08:37:31.000Z</time>
</trkpt>
<trkpt lat="57.046476" lon="8.514939">
<ele>8.519679</ele>
<time>2026-07-15T08:37:32.000Z</time>
</trkpt>
<trkpt lat="57.046537" lon="8.514950">
<ele>8.478485</ele>
<time>2026-07-15T08:37:33.000Z</time>
</trkpt>
<trkpt lat="57.046598" lon="8.514965">
<ele>8.437123</ele>
<time>2026-07-15T08:37:34.000Z</time>
</trkpt>
<trkpt lat="57.046662" lon="8.514979">
<ele>8.398227</ele>
<time>2026-07-15T08:37:35.000Z</time>
</trkpt>
<trkpt lat="57.046723" lon="8.514992">
<ele>8.377340</ele>
<time>2026-07-15T08:37:36.000Z</time>
</trkpt>
<trkpt lat="57.046784" lon="8.515005">
<ele>8.356452</ele>
<time>2026-07-15T08:37:37.000Z</time>
</trkpt>
<trkpt lat="57.046849" lon="8.515021">
<ele>8.334146</ele>
<time>2026-07-15T08:37:38.000Z</time>
</trkpt>
<trkpt lat="57.046910" lon="8.515034">
<ele>8.313259</ele>
<time>2026-07-15T08:37:39.000Z</time>
</trkpt>
<trkpt lat="57.046971" lon="8.515048">
<ele>8.292349</ele>
<time>2026-07-15T08:37:40.000Z</time>
</trkpt>
<trkpt lat="57.047032" lon="8.515065">
<ele>8.271364</ele>
<time>2026-07-15T08:37:41.000Z</time>
</trkpt>
<trkpt lat="57.047094" lon="8.515081">
<ele>8.250068</ele>
<time>2026-07-15T08:37:42.000Z</time>
</trkpt>
<trkpt lat="57.047159" lon="8.515095">
<ele>8.227808</ele>
<time>2026-07-15T08:37:43.000Z</time>
</trkpt>
<trkpt lat="57.047217" lon="8.515112">
<ele>8.207831</ele>
<time>2026-07-15T08:37:44.000Z</time>
</trkpt>
<trkpt lat="57.047281" lon="8.515129">
<ele>8.185836</ele>
<time>2026-07-15T08:37:45.000Z</time>
</trkpt>
<trkpt lat="57.047340" lon="8.515146">
<ele>8.165523</ele>
<time>2026-07-15T08:37:46.000Z</time>
</trkpt>
<trkpt lat="57.047403" lon="8.515166">
<ele>8.143777</ele>
<time>2026-07-15T08:37:47.000Z</time>
</trkpt>
<trkpt lat="57.047463" lon="8.515184">
<ele>8.123099</ele>
<time>2026-07-15T08:37:48.000Z</time>
</trkpt>
<trkpt lat="57.047525" lon="8.515204">
<ele>8.101689</ele>
<time>2026-07-15T08:37:49.000Z</time>
</trkpt>
<trkpt lat="57.047586" lon="8.515224">
<ele>8.080613</ele>
<time>2026-07-15T08:37:50.000Z</time>
</trkpt>
<trkpt lat="57.047643" lon="8.515246">
<ele>8.060802</ele>
<time>2026-07-15T08:37:51.000Z</time>
</trkpt>
<trkpt lat="57.047708" lon="8.515266">
<ele>8.038386</ele>
<time>2026-07-15T08:37:52.000Z</time>
</trkpt>
<trkpt lat="57.047769" lon="8.515287">
<ele>8.017277</ele>
<time>2026-07-15T08:37:53.000Z</time>
</trkpt>
<trkpt lat="57.047826" lon="8.515309">
<ele>7.997466</ele>
<time>2026-07-15T08:37:54.000Z</time>
</trkpt>
<trkpt lat="57.047889" lon="8.515331">
<ele>7.975654</ele>
<time>2026-07-15T08:37:55.000Z</time>
</trkpt>
<trkpt lat="57.047948" lon="8.515356">
<ele>7.955060</ele>
<time>2026-07-15T08:37:56.000Z</time>
</trkpt>
<trkpt lat="57.048009" lon="8.515379">
<ele>7.933880</ele>
<time>2026-07-15T08:37:57.000Z</time>
</trkpt>
<trkpt lat="57.048070" lon="8.515405">
<ele>7.912581</ele>
<time>2026-07-15T08:37:58.000Z</time>
</trkpt>
<trkpt lat="57.048132" lon="8.515431">
<ele>7.890951</ele>
<time>2026-07-15T08:37:59.000Z</time>
</trkpt>
<trkpt lat="57.048192" lon="8.515457">
<ele>7.869984</ele>
<time>2026-07-15T08:38:00.000Z</time>
</trkpt>
<trkpt lat="57.048254" lon="8.515484">
<ele>7.848312</ele>
<time>2026-07-15T08:38:01.000Z</time>
</trkpt>
<trkpt lat="57.048314" lon="8.515514">
<ele>7.827162</ele>
<time>2026-07-15T08:38:02.000Z</time>
</trkpt>
<trkpt lat="57.048379" lon="8.515543">
<ele>7.804411</ele>
<time>2026-07-15T08:38:03.000Z</time>
</trkpt>
<trkpt lat="57.048440" lon="8.515572">
<ele>7.782575</ele>
<time>2026-07-15T08:38:04.000Z</time>
</trkpt>
<trkpt lat="57.048501" lon="8.515603">
<ele>7.759956</ele>
<time>2026-07-15T08:38:05.000Z</time>
</trkpt>
<trkpt lat="57.048561" lon="8.515630">
<ele>7.737879</ele>
<time>2026-07-15T08:38:06.000Z</time>
</trkpt>
<trkpt lat="57.048621" lon="8.515654">
<ele>7.715933</ele>
<time>2026-07-15T08:38:07.000Z</time>
</trkpt>
<trkpt lat="57.048684" lon="8.515681">
<ele>7.692813</ele>
<time>2026-07-15T08:38:08.000Z</time>
</trkpt>
<trkpt lat="57.048741" lon="8.515706">
<ele>7.671869</ele>
<time>2026-07-15T08:38:09.000Z</time>
</trkpt>
<trkpt lat="57.048799" lon="8.515732">
<ele>7.650532</ele>
<time>2026-07-15T08:38:10.000Z</time>
</trkpt>
<trkpt lat="57.048856" lon="8.515761">
<ele>7.629395</ele>
<time>2026-07-15T08:38:11.000Z</time>
</trkpt>
<trkpt lat="57.048909" lon="8.515790">
<ele>7.609631</ele>
<time>2026-07-15T08:38:12.000Z</time>
</trkpt>
<trkpt lat="57.048963" lon="8.515819">
<ele>7.589525</ele>
<time>2026-07-15T08:38:13.000Z</time>
</trkpt>
<trkpt lat="57.049020" lon="8.515851">
<ele>7.568224</ele>
<time>2026-07-15T08:38:14.000Z</time>
</trkpt>
<trkpt lat="57.049077" lon="8.515882">
<ele>7.546980</ele>
<time>2026-07-15T08:38:15.000Z</time>
</trkpt>
<trkpt lat="57.049131" lon="8.515916">
<ele>7.526580</ele>
<time>2026-07-15T08:38:16.000Z</time>
</trkpt>
<trkpt lat="57.049188" lon="8.515949">
<ele>7.505221</ele>
<time>2026-07-15T08:38:17.000Z</time>
</trkpt>
<trkpt lat="57.049241" lon="8.515987">
<ele>7.484890</ele>
<time>2026-07-15T08:38:18.000Z</time>
</trkpt>
<trkpt lat="57.049298" lon="8.516025">
<ele>7.463220</ele>
<time>2026-07-15T08:38:19.000Z</time>
</trkpt>
<trkpt lat="57.049356" lon="8.516062">
<ele>7.441278</ele>
<time>2026-07-15T08:38:20.000Z</time>
</trkpt>
<trkpt lat="57.049412" lon="8.516097">
<ele>7.420138</ele>
<time>2026-07-15T08:38:21.000Z</time>
</trkpt>
<trkpt lat="57.049470" lon="8.516131">
<ele>7.398381</ele>
<time>2026-07-15T08:38:22.000Z</time>
</trkpt>
<trkpt lat="57.049527" lon="8.516163">
<ele>7.377080</ele>
<time>2026-07-15T08:38:23.000Z</time>
</trkpt>
<trkpt lat="57.049585" lon="8.516199">
<ele>7.355201</ele>
<time>2026-07-15T08:38:24.000Z</time>
</trkpt>
<trkpt lat="57.049641" lon="8.516236">
<ele>7.333934</ele>
<time>2026-07-15T08:38:25.000Z</time>
</trkpt>
<trkpt lat="57.049699" lon="8.516276">
<ele>7.311794</ele>
<time>2026-07-15T08:38:26.000Z</time>
</trkpt>
<trkpt lat="57.049756" lon="8.516317">
<ele>7.289918</ele>
<time>2026-07-15T08:38:27.000Z</time>
</trkpt>
<trkpt lat="57.049813" lon="8.516361">
<ele>7.267824</ele>
<time>2026-07-15T08:38:28.000Z</time>
</trkpt>
<trkpt lat="57.049870" lon="8.516402">
<ele>7.245948</ele>
<time>2026-07-15T08:38:29.000Z</time>
</trkpt>
<trkpt lat="57.049928" lon="8.516442">
<ele>7.223808</ele>
<time>2026-07-15T08:38:30.000Z</time>
</trkpt>
<trkpt lat="57.049989" lon="8.516486">
<ele>7.200389</ele>
<time>2026-07-15T08:38:31.000Z</time>
</trkpt>
<trkpt lat="57.050044" lon="8.516528">
<ele>7.179104</ele>
<time>2026-07-15T08:38:32.000Z</time>
</trkpt>
<trkpt lat="57.050103" lon="8.516574">
<ele>7.156199</ele>
<time>2026-07-15T08:38:33.000Z</time>
</trkpt>
<trkpt lat="57.050164" lon="8.516620">
<ele>7.148648</ele>
<time>2026-07-15T08:38:34.000Z</time>
</trkpt>
<trkpt lat="57.050225" lon="8.516664">
<ele>7.149429</ele>
<time>2026-07-15T08:38:35.000Z</time>
</trkpt>
<trkpt lat="57.050282" lon="8.516709">
<ele>7.150169</ele>
<time>2026-07-15T08:38:36.000Z</time>
</trkpt>
<trkpt lat="57.050340" lon="8.516758">
<ele>7.150931</ele>
<time>2026-07-15T08:38:37.000Z</time>
</trkpt>
<trkpt lat="57.050401" lon="8.516806">
<ele>7.151722</ele>
<time>2026-07-15T08:38:38.000Z</time>
</trkpt>
<trkpt lat="57.050458" lon="8.516852">
<ele>7.152465</ele>
<time>2026-07-15T08:38:39.000Z</time>
</trkpt>
<trkpt lat="57.050515" lon="8.516897">
<ele>7.153205</ele>
<time>2026-07-15T08:38:40.000Z</time>
</trkpt>
<trkpt lat="57.050573" lon="8.516943">
<ele>7.153958</ele>
<time>2026-07-15T08:38:41.000Z</time>
</trkpt>
<trkpt lat="57.050630" lon="8.516990">
<ele>7.154703</ele>
<time>2026-07-15T08:38:42.000Z</time>
</trkpt>
<trkpt lat="57.050687" lon="8.517037">
<ele>7.155448</ele>
<time>2026-07-15T08:38:43.000Z</time>
</trkpt>
<trkpt lat="57.050744" lon="8.517084">
<ele>7.156194</ele>
<time>2026-07-15T08:38:44.000Z</time>
</trkpt>
<trkpt lat="57.050801" lon="8.517131">
<ele>7.156939</ele>
<time>2026-07-15T08:38:45.000Z</time>
</trkpt>
<trkpt lat="57.050859" lon="8.517176">
<ele>7.157690</ele>
<time>2026-07-15T08:38:46.000Z</time>
</trkpt>
<trkpt lat="57.050916" lon="8.517224">
<ele>7.158437</ele>
<time>2026-07-15T08:38:47.000Z</time>
</trkpt>
<trkpt lat="57.050973" lon="8.517273">
<ele>7.159188</ele>
<time>2026-07-15T08:38:48.000Z</time>
</trkpt>
<trkpt lat="57.051026" lon="8.517322">
<ele>7.159896</ele>
<time>2026-07-15T08:38:49.000Z</time>
</trkpt>
<trkpt lat="57.051083" lon="8.517369">
<ele>7.160641</ele>
<time>2026-07-15T08:38:50.000Z</time>
</trkpt>
<trkpt lat="57.051136" lon="8.517415">
<ele>7.161340</ele>
<time>2026-07-15T08:38:51.000Z</time>
</trkpt>
<trkpt lat="57.051191" lon="8.517461">
<ele>7.162061</ele>
<time>2026-07-15T08:38:52.000Z</time>
</trkpt>
<trkpt lat="57.051247" lon="8.517504">
<ele>7.162785</ele>
<time>2026-07-15T08:38:53.000Z</time>
</trkpt>
<trkpt lat="57.051301" lon="8.517547">
<ele>7.163487</ele>
<time>2026-07-15T08:38:54.000Z</time>
</trkpt>
<trkpt lat="57.051351" lon="8.517594">
<ele>7.164156</ele>
<time>2026-07-15T08:38:55.000Z</time>
</trkpt>
<trkpt lat="57.051401" lon="8.517639">
<ele>7.164821</ele>
<time>2026-07-15T08:38:56.000Z</time>
</trkpt>
<trkpt lat="57.051457" lon="8.517690">
<ele>7.165566</ele>
<time>2026-07-15T08:38:57.000Z</time>
</trkpt>
<trkpt lat="57.051507" lon="8.517744">
<ele>7.166258</ele>
<time>2026-07-15T08:38:58.000Z</time>
</trkpt>
<trkpt lat="57.051560" lon="8.517799">
<ele>7.166984</ele>
<time>2026-07-15T08:38:59.000Z</time>
</trkpt>
<trkpt lat="57.051613" lon="8.517854">
<ele>7.167710</ele>
<time>2026-07-15T08:39:00.000Z</time>
</trkpt>
<trkpt lat="57.051663" lon="8.517909">
<ele>7.168405</ele>
<time>2026-07-15T08:39:01.000Z</time>
</trkpt>
<trkpt lat="57.051717" lon="8.517962">
<ele>7.169135</ele>
<time>2026-07-15T08:39:02.000Z</time>
</trkpt>
<trkpt lat="57.051770" lon="8.518018">
<ele>7.167026</ele>
<time>2026-07-15T08:39:03.000Z</time>
</trkpt>
<trkpt lat="57.051823" lon="8.518074">
<ele>7.160321</ele>
<time>2026-07-15T08:39:04.000Z</time>
</trkpt>
<trkpt lat="57.051877" lon="8.518132">
<ele>7.153462</ele>
<time>2026-07-15T08:39:05.000Z</time>
</trkpt>
<trkpt lat="57.051930" lon="8.518189">
<ele>7.146728</ele>
<time>2026-07-15T08:39:06.000Z</time>
</trkpt>
<trkpt lat="57.051984" lon="8.518247">
<ele>7.139869</ele>
<time>2026-07-15T08:39:07.000Z</time>
</trkpt>
<trkpt lat="57.052037" lon="8.518304">
<ele>7.133134</ele>
<time>2026-07-15T08:39:08.000Z</time>
</trkpt>
<trkpt lat="57.052090" lon="8.518361">
<ele>7.126400</ele>
<time>2026-07-15T08:39:09.000Z</time>
</trkpt>
<trkpt lat="57.052144" lon="8.518419">
<ele>7.119541</ele>
<time>2026-07-15T08:39:10.000Z</time>
</trkpt>
<trkpt lat="57.052197" lon="8.518481">
<ele>7.112651</ele>
<time>2026-07-15T08:39:11.000Z</time>
</trkpt>
<trkpt lat="57.052251" lon="8.518542">
<ele>7.105700</ele>
<time>2026-07-15T08:39:12.000Z</time>
</trkpt>
<trkpt lat="57.052304" lon="8.518602">
<ele>7.098873</ele>
<time>2026-07-15T08:39:13.000Z</time>
</trkpt>
<trkpt lat="57.052358" lon="8.518663">
<ele>7.091922</ele>
<time>2026-07-15T08:39:14.000Z</time>
</trkpt>
<trkpt lat="57.052406" lon="8.518723">
<ele>7.085556</ele>
<time>2026-07-15T08:39:15.000Z</time>
</trkpt>
<trkpt lat="57.052460" lon="8.518786">
<ele>7.078542</ele>
<time>2026-07-15T08:39:16.000Z</time>
</trkpt>
<trkpt lat="57.052514" lon="8.518845">
<ele>7.071653</ele>
<time>2026-07-15T08:39:17.000Z</time>
</trkpt>
<trkpt lat="57.052567" lon="8.518901">
<ele>7.064948</ele>
<time>2026-07-15T08:39:18.000Z</time>
</trkpt>
<trkpt lat="57.052617" lon="8.518961">
<ele>7.058400</ele>
<time>2026-07-15T08:39:19.000Z</time>
</trkpt>
<trkpt lat="57.052667" lon="8.519026">
<ele>7.051684</ele>
<time>2026-07-15T08:39:20.000Z</time>
</trkpt>
<trkpt lat="57.052716" lon="8.519091">
<ele>7.045057</ele>
<time>2026-07-15T08:39:21.000Z</time>
</trkpt>
<trkpt lat="57.052766" lon="8.519156">
<ele>7.038340</ele>
<time>2026-07-15T08:39:22.000Z</time>
</trkpt>
<trkpt lat="57.052815" lon="8.519218">
<ele>7.031817</ele>
<time>2026-07-15T08:39:23.000Z</time>
</trkpt>
<trkpt lat="57.052861" lon="8.519278">
<ele>7.025631</ele>
<time>2026-07-15T08:39:24.000Z</time>
</trkpt>
<trkpt lat="57.052910" lon="8.519339">
<ele>7.019141</ele>
<time>2026-07-15T08:39:25.000Z</time>
</trkpt>
<trkpt lat="57.052961" lon="8.519401">
<ele>7.012435</ele>
<time>2026-07-15T08:39:26.000Z</time>
</trkpt>
<trkpt lat="57.053006" lon="8.519466">
<ele>7.006159</ele>
<time>2026-07-15T08:39:27.000Z</time>
</trkpt>
<trkpt lat="57.053056" lon="8.519531">
<ele>6.999443</ele>
<time>2026-07-15T08:39:28.000Z</time>
</trkpt>
<trkpt lat="57.053102" lon="8.519599">
<ele>6.992969</ele>
<time>2026-07-15T08:39:29.000Z</time>
</trkpt>
<trkpt lat="57.053151" lon="8.519664">
<ele>6.986342</ele>
<time>2026-07-15T08:39:30.000Z</time>
</trkpt>
<trkpt lat="57.053201" lon="8.519730">
<ele>6.979591</ele>
<time>2026-07-15T08:39:31.000Z</time>
</trkpt>
<trkpt lat="57.053254" lon="8.519800">
<ele>6.972434</ele>
<time>2026-07-15T08:39:32.000Z</time>
</trkpt>
<trkpt lat="57.053307" lon="8.519866">
<ele>6.959507</ele>
<time>2026-07-15T08:39:33.000Z</time>
</trkpt>
<trkpt lat="57.053356" lon="8.519934">
<ele>6.947010</ele>
<time>2026-07-15T08:39:34.000Z</time>
</trkpt>
<trkpt lat="57.053406" lon="8.520001">
<ele>6.934415</ele>
<time>2026-07-15T08:39:35.000Z</time>
</trkpt>
<trkpt lat="57.053457" lon="8.520068">
<ele>6.921655</ele>
<time>2026-07-15T08:39:36.000Z</time>
</trkpt>
<trkpt lat="57.053510" lon="8.520134">
<ele>6.908625</ele>
<time>2026-07-15T08:39:37.000Z</time>
</trkpt>
<trkpt lat="57.053559" lon="8.520201">
<ele>6.896194</ele>
<time>2026-07-15T08:39:38.000Z</time>
</trkpt>
<trkpt lat="57.053609" lon="8.520268">
<ele>6.883599</ele>
<time>2026-07-15T08:39:39.000Z</time>
</trkpt>
<trkpt lat="57.053659" lon="8.520337">
<ele>6.870873</ele>
<time>2026-07-15T08:39:40.000Z</time>
</trkpt>
<trkpt lat="57.053708" lon="8.520404">
<ele>6.858442</ele>
<time>2026-07-15T08:39:41.000Z</time>
</trkpt>
<trkpt lat="57.053758" lon="8.520471">
<ele>6.845847</ele>
<time>2026-07-15T08:39:42.000Z</time>
</trkpt>
<trkpt lat="57.053811" lon="8.520537">
<ele>6.832816</ele>
<time>2026-07-15T08:39:43.000Z</time>
</trkpt>
<trkpt lat="57.053861" lon="8.520602">
<ele>6.820351</ele>
<time>2026-07-15T08:39:44.000Z</time>
</trkpt>
<trkpt lat="57.053910" lon="8.520664">
<ele>6.808242</ele>
<time>2026-07-15T08:39:45.000Z</time>
</trkpt>
<trkpt lat="57.053959" lon="8.520729">
<ele>6.795942</ele>
<time>2026-07-15T08:39:46.000Z</time>
</trkpt>
<trkpt lat="57.054009" lon="8.520798">
<ele>6.783216</ele>
<time>2026-07-15T08:39:47.000Z</time>
</trkpt>
<trkpt lat="57.054059" lon="8.520867">
<ele>6.770490</ele>
<time>2026-07-15T08:39:48.000Z</time>
</trkpt>
<trkpt lat="57.054108" lon="8.520932">
<ele>6.758190</ele>
<time>2026-07-15T08:39:49.000Z</time>
</trkpt>
<trkpt lat="57.054158" lon="8.521000">
<ele>6.745530</ele>
<time>2026-07-15T08:39:50.000Z</time>
</trkpt>
<trkpt lat="57.054208" lon="8.521068">
<ele>6.732869</ele>
<time>2026-07-15T08:39:51.000Z</time>
</trkpt>
<trkpt lat="57.054257" lon="8.521134">
<ele>6.720504</ele>
<time>2026-07-15T08:39:52.000Z</time>
</trkpt>
<trkpt lat="57.054311" lon="8.521201">
<ele>6.707243</ele>
<time>2026-07-15T08:39:53.000Z</time>
</trkpt>
<trkpt lat="57.054360" lon="8.521268">
<ele>6.694812</ele>
<time>2026-07-15T08:39:54.000Z</time>
</trkpt>
<trkpt lat="57.054410" lon="8.521336">
<ele>6.682152</ele>
<time>2026-07-15T08:39:55.000Z</time>
</trkpt>
<trkpt lat="57.054459" lon="8.521402">
<ele>6.669787</ele>
<time>2026-07-15T08:39:56.000Z</time>
</trkpt>
<trkpt lat="57.054509" lon="8.521469">
<ele>6.657193</ele>
<time>2026-07-15T08:39:57.000Z</time>
</trkpt>
<trkpt lat="57.054562" lon="8.521536">
<ele>6.644100</ele>
<time>2026-07-15T08:39:58.000Z</time>
</trkpt>
<trkpt lat="57.054612" lon="8.521599">
<ele>6.631761</ele>
<time>2026-07-15T08:39:59.000Z</time>
</trkpt>
<trkpt lat="57.054662" lon="8.521665">
<ele>6.619231</ele>
<time>2026-07-15T08:40:00.000Z</time>
</trkpt>
<trkpt lat="57.054707" lon="8.521726">
<ele>6.607850</ele>
<time>2026-07-15T08:40:01.000Z</time>
</trkpt>
<trkpt lat="57.054761" lon="8.521799">
<ele>6.592655</ele>
<time>2026-07-15T08:40:02.000Z</time>
</trkpt>
<trkpt lat="57.054810" lon="8.521866">
<ele>6.578611</ele>
<time>2026-07-15T08:40:03.000Z</time>
</trkpt>
<trkpt lat="57.054860" lon="8.521935">
<ele>6.564234</ele>
<time>2026-07-15T08:40:04.000Z</time>
</trkpt>
<trkpt lat="57.054909" lon="8.522001">
<ele>6.550265</ele>
<time>2026-07-15T08:40:05.000Z</time>
</trkpt>
<trkpt lat="57.054958" lon="8.522065">
<ele>6.536442</ele>
<time>2026-07-15T08:40:06.000Z</time>
</trkpt>
<trkpt lat="57.055009" lon="8.522131">
<ele>6.522099</ele>
<time>2026-07-15T08:40:07.000Z</time>
</trkpt>
<trkpt lat="57.055058" lon="8.522196">
<ele>6.508204</ele>
<time>2026-07-15T08:40:08.000Z</time>
</trkpt>
<trkpt lat="57.055108" lon="8.522261">
<ele>6.494121</ele>
<time>2026-07-15T08:40:09.000Z</time>
</trkpt>
<trkpt lat="57.055158" lon="8.522328">
<ele>6.479892</ele>
<time>2026-07-15T08:40:10.000Z</time>
</trkpt>
<trkpt lat="57.055207" lon="8.522396">
<ele>6.465774</ele>
<time>2026-07-15T08:40:11.000Z</time>
</trkpt>
<trkpt lat="57.055261" lon="8.522464">
<ele>6.450722</ele>
<time>2026-07-15T08:40:12.000Z</time>
</trkpt>
<trkpt lat="57.055310" lon="8.522531">
<ele>6.436678</ele>
<time>2026-07-15T08:40:13.000Z</time>
</trkpt>
<trkpt lat="57.055360" lon="8.522599">
<ele>6.422376</ele>
<time>2026-07-15T08:40:14.000Z</time>
</trkpt>
<trkpt lat="57.055409" lon="8.522668">
<ele>6.408182</ele>
<time>2026-07-15T08:40:15.000Z</time>
</trkpt>
<trkpt lat="57.055463" lon="8.522736">
<ele>6.393129</ele>
<time>2026-07-15T08:40:16.000Z</time>
</trkpt>
<trkpt lat="57.055510" lon="8.522800">
<ele>6.379679</ele>
<time>2026-07-15T08:40:17.000Z</time>
</trkpt>
<trkpt lat="57.055566" lon="8.522871">
<ele>6.364035</ele>
<time>2026-07-15T08:40:18.000Z</time>
</trkpt>
<trkpt lat="57.055615" lon="8.522938">
<ele>6.349992</ele>
<time>2026-07-15T08:40:19.000Z</time>
</trkpt>
<trkpt lat="57.055665" lon="8.523006">
<ele>6.335689</ele>
<time>2026-07-15T08:40:20.000Z</time>
</trkpt>
<trkpt lat="57.055715" lon="8.523074">
<ele>6.321387</ele>
<time>2026-07-15T08:40:21.000Z</time>
</trkpt>
<trkpt lat="57.055764" lon="8.523145">
<ele>6.307039</ele>
<time>2026-07-15T08:40:22.000Z</time>
</trkpt>
<trkpt lat="57.055818" lon="8.523215">
<ele>6.291844</ele>
<time>2026-07-15T08:40:23.000Z</time>
</trkpt>
<trkpt lat="57.055867" lon="8.523281">
<ele>6.277875</ele>
<time>2026-07-15T08:40:24.000Z</time>
</trkpt>
<trkpt lat="57.055917" lon="8.523348">
<ele>6.263647</ele>
<time>2026-07-15T08:40:25.000Z</time>
</trkpt>
<trkpt lat="57.055970" lon="8.523415">
<ele>6.248855</ele>
<time>2026-07-15T08:40:26.000Z</time>
</trkpt>
<trkpt lat="57.056020" lon="8.523485">
<ele>6.234402</ele>
<time>2026-07-15T08:40:27.000Z</time>
</trkpt>
<trkpt lat="57.056070" lon="8.523554">
<ele>6.220025</ele>
<time>2026-07-15T08:40:28.000Z</time>
</trkpt>
<trkpt lat="57.056119" lon="8.523621">
<ele>6.205982</ele>
<time>2026-07-15T08:40:29.000Z</time>
</trkpt>
<trkpt lat="57.056169" lon="8.523690">
<ele>6.192130</ele>
<time>2026-07-15T08:40:30.000Z</time>
</trkpt>
<trkpt lat="57.056222" lon="8.523758">
<ele>6.185976</ele>
<time>2026-07-15T08:40:31.000Z</time>
</trkpt>
<trkpt lat="57.056271" lon="8.523828">
<ele>6.180067</ele>
<time>2026-07-15T08:40:32.000Z</time>
</trkpt>
<trkpt lat="57.056319" lon="8.523892">
<ele>6.174421</ele>
<time>2026-07-15T08:40:33.000Z</time>
</trkpt>
<trkpt lat="57.056369" lon="8.523958">
<ele>6.168560</ele>
<time>2026-07-15T08:40:34.000Z</time>
</trkpt>
<trkpt lat="57.056424" lon="8.524026">
<ele>6.162249</ele>
<time>2026-07-15T08:40:35.000Z</time>
</trkpt>
<trkpt lat="57.056470" lon="8.524091">
<ele>6.156724</ele>
<time>2026-07-15T08:40:36.000Z</time>
</trkpt>
<trkpt lat="57.056519" lon="8.524156">
<ele>6.150971</ele>
<time>2026-07-15T08:40:37.000Z</time>
</trkpt>
<trkpt lat="57.056569" lon="8.524223">
<ele>6.145080</ele>
<time>2026-07-15T08:40:38.000Z</time>
</trkpt>
<trkpt lat="57.056619" lon="8.524289">
<ele>6.139219</ele>
<time>2026-07-15T08:40:39.000Z</time>
</trkpt>
<trkpt lat="57.056668" lon="8.524358">
<ele>6.133342</ele>
<time>2026-07-15T08:40:40.000Z</time>
</trkpt>
<trkpt lat="57.056718" lon="8.524425">
<ele>6.127450</ele>
<time>2026-07-15T08:40:41.000Z</time>
</trkpt>
<trkpt lat="57.056771" lon="8.524490">
<ele>6.121384</ele>
<time>2026-07-15T08:40:42.000Z</time>
</trkpt>
<trkpt lat="57.056821" lon="8.524556">
<ele>6.115523</ele>
<time>2026-07-15T08:40:43.000Z</time>
</trkpt>
<trkpt lat="57.056870" lon="8.524623">
<ele>6.109708</ele>
<time>2026-07-15T08:40:44.000Z</time>
</trkpt>
<trkpt lat="57.056920" lon="8.524691">
<ele>6.103786</ele>
<time>2026-07-15T08:40:45.000Z</time>
</trkpt>
<trkpt lat="57.056970" lon="8.524760">
<ele>6.097833</ele>
<time>2026-07-15T08:40:46.000Z</time>
</trkpt>
<trkpt lat="57.057019" lon="8.524829">
<ele>6.091956</ele>
<time>2026-07-15T08:40:47.000Z</time>
</trkpt>
<trkpt lat="57.057069" lon="8.524896">
<ele>6.086065</ele>
<time>2026-07-15T08:40:48.000Z</time>
</trkpt>
<trkpt lat="57.057122" lon="8.524961">
<ele>6.079998</ele>
<time>2026-07-15T08:40:49.000Z</time>
</trkpt>
<trkpt lat="57.057172" lon="8.525027">
<ele>6.074137</ele>
<time>2026-07-15T08:40:50.000Z</time>
</trkpt>
<trkpt lat="57.057221" lon="8.525093">
<ele>6.068354</ele>
<time>2026-07-15T08:40:51.000Z</time>
</trkpt>
<trkpt lat="57.057271" lon="8.525161">
<ele>6.062432</ele>
<time>2026-07-15T08:40:52.000Z</time>
</trkpt>
<trkpt lat="57.057320" lon="8.525228">
<ele>6.056617</ele>
<time>2026-07-15T08:40:53.000Z</time>
</trkpt>
<trkpt lat="57.057370" lon="8.525294">
<ele>6.050756</ele>
<time>2026-07-15T08:40:54.000Z</time>
</trkpt>
<trkpt lat="57.057420" lon="8.525361">
<ele>6.044865</ele>
<time>2026-07-15T08:40:55.000Z</time>
</trkpt>
<trkpt lat="57.057469" lon="8.525426">
<ele>6.039111</ele>
<time>2026-07-15T08:40:56.000Z</time>
</trkpt>
<trkpt lat="57.057522" lon="8.525494">
<ele>6.032957</ele>
<time>2026-07-15T08:40:57.000Z</time>
</trkpt>
<trkpt lat="57.057572" lon="8.525564">
<ele>6.026973</ele>
<time>2026-07-15T08:40:58.000Z</time>
</trkpt>
<trkpt lat="57.057622" lon="8.525635">
<ele>6.021441</ele>
<time>2026-07-15T08:40:59.000Z</time>
</trkpt>
<trkpt lat="57.057671" lon="8.525703">
<ele>6.026243</ele>
<time>2026-07-15T08:41:00.000Z</time>
</trkpt>
<trkpt lat="57.057721" lon="8.525771">
<ele>6.031107</ele>
<time>2026-07-15T08:41:01.000Z</time>
</trkpt>
<trkpt lat="57.057774" lon="8.525838">
<ele>6.036137</ele>
<time>2026-07-15T08:41:02.000Z</time>
</trkpt>
<trkpt lat="57.057824" lon="8.525903">
<ele>6.040926</ele>
<time>2026-07-15T08:41:03.000Z</time>
</trkpt>
<trkpt lat="57.057877" lon="8.525968">
<ele>6.045909</ele>
<time>2026-07-15T08:41:04.000Z</time>
</trkpt>
<trkpt lat="57.057927" lon="8.526035">
<ele>6.050748</ele>
<time>2026-07-15T08:41:05.000Z</time>
</trkpt>
<trkpt lat="57.057977" lon="8.526100">
<ele>6.055537</ele>
<time>2026-07-15T08:41:06.000Z</time>
</trkpt>
<trkpt lat="57.058022" lon="8.526167">
<ele>6.060066</ele>
<time>2026-07-15T08:41:07.000Z</time>
</trkpt>
<trkpt lat="57.058072" lon="8.526235">
<ele>6.064930</ele>
<time>2026-07-15T08:41:08.000Z</time>
</trkpt>
<trkpt lat="57.058121" lon="8.526298">
<ele>6.069607</ele>
<time>2026-07-15T08:41:09.000Z</time>
</trkpt>
<trkpt lat="57.058168" lon="8.526361">
<ele>6.074156</ele>
<time>2026-07-15T08:41:10.000Z</time>
</trkpt>
<trkpt lat="57.058221" lon="8.526425">
<ele>6.079115</ele>
<time>2026-07-15T08:41:11.000Z</time>
</trkpt>
<trkpt lat="57.058267" lon="8.526488">
<ele>6.083601</ele>
<time>2026-07-15T08:41:12.000Z</time>
</trkpt>
<trkpt lat="57.058316" lon="8.526553">
<ele>6.088327</ele>
<time>2026-07-15T08:41:13.000Z</time>
</trkpt>
<trkpt lat="57.058366" lon="8.526621">
<ele>6.093191</ele>
<time>2026-07-15T08:41:14.000Z</time>
</trkpt>
<trkpt lat="57.058414" lon="8.526684">
<ele>6.097803</ele>
<time>2026-07-15T08:41:15.000Z</time>
</trkpt>
<trkpt lat="57.058465" lon="8.526753">
<ele>6.102755</ele>
<time>2026-07-15T08:41:16.000Z</time>
</trkpt>
<trkpt lat="57.058510" lon="8.526819">
<ele>6.107257</ele>
<time>2026-07-15T08:41:17.000Z</time>
</trkpt>
<trkpt lat="57.058564" lon="8.526887">
<ele>6.112376</ele>
<time>2026-07-15T08:41:18.000Z</time>
</trkpt>
<trkpt lat="57.058614" lon="8.526955">
<ele>6.117241</ele>
<time>2026-07-15T08:41:19.000Z</time>
</trkpt>
<trkpt lat="57.058663" lon="8.527022">
<ele>6.122016</ele>
<time>2026-07-15T08:41:20.000Z</time>
</trkpt>
<trkpt lat="57.058713" lon="8.527087">
<ele>6.126806</ele>
<time>2026-07-15T08:41:21.000Z</time>
</trkpt>
<trkpt lat="57.058762" lon="8.527152">
<ele>6.131531</ele>
<time>2026-07-15T08:41:22.000Z</time>
</trkpt>
<trkpt lat="57.058812" lon="8.527218">
<ele>6.136345</ele>
<time>2026-07-15T08:41:23.000Z</time>
</trkpt>
<trkpt lat="57.058858" lon="8.527283">
<ele>6.140883</ele>
<time>2026-07-15T08:41:24.000Z</time>
</trkpt>
<trkpt lat="57.058907" lon="8.527349">
<ele>6.145633</ele>
<time>2026-07-15T08:41:25.000Z</time>
</trkpt>
<trkpt lat="57.058956" lon="8.527415">
<ele>6.150384</ele>
<time>2026-07-15T08:41:26.000Z</time>
</trkpt>
<trkpt lat="57.059003" lon="8.527485">
<ele>6.155114</ele>
<time>2026-07-15T08:41:27.000Z</time>
</trkpt>
<trkpt lat="57.059052" lon="8.527552">
<ele>6.159890</ele>
<time>2026-07-15T08:41:28.000Z</time>
</trkpt>
<trkpt lat="57.059106" lon="8.527618">
<ele>6.157077</ele>
<time>2026-07-15T08:41:29.000Z</time>
</trkpt>
<trkpt lat="57.059151" lon="8.527682">
<ele>6.150048</ele>
<time>2026-07-15T08:41:30.000Z</time>
</trkpt>
<trkpt lat="57.059197" lon="8.527749">
<ele>6.142798</ele>
<time>2026-07-15T08:41:31.000Z</time>
</trkpt>
<trkpt lat="57.059247" lon="8.527814">
<ele>6.135233</ele>
<time>2026-07-15T08:41:32.000Z</time>
</trkpt>
<trkpt lat="57.059293" lon="8.527881">
<ele>6.127983</ele>
<time>2026-07-15T08:41:33.000Z</time>
</trkpt>
<trkpt lat="57.059342" lon="8.527946">
<ele>6.120518</ele>
<time>2026-07-15T08:41:34.000Z</time>
</trkpt>
<trkpt lat="57.059392" lon="8.528012">
<ele>6.112913</ele>
<time>2026-07-15T08:41:35.000Z</time>
</trkpt>
<trkpt lat="57.059437" lon="8.528080">
<ele>6.105717</ele>
<time>2026-07-15T08:41:36.000Z</time>
</trkpt>
<trkpt lat="57.059488" lon="8.528145">
<ele>6.098051</ele>
<time>2026-07-15T08:41:37.000Z</time>
</trkpt>
<trkpt lat="57.059537" lon="8.528208">
<ele>6.090664</ele>
<time>2026-07-15T08:41:38.000Z</time>
</trkpt>
<trkpt lat="57.059587" lon="8.528271">
<ele>6.083175</ele>
<time>2026-07-15T08:41:39.000Z</time>
</trkpt>
<trkpt lat="57.059636" lon="8.528338">
<ele>6.075631</ele>
<time>2026-07-15T08:41:40.000Z</time>
</trkpt>
<trkpt lat="57.059682" lon="8.528407">
<ele>6.068297</ele>
<time>2026-07-15T08:41:41.000Z</time>
</trkpt>
<trkpt lat="57.059728" lon="8.528471">
<ele>6.061170</ele>
<time>2026-07-15T08:41:42.000Z</time>
</trkpt>
<trkpt lat="57.059778" lon="8.528536">
<ele>6.053605</ele>
<time>2026-07-15T08:41:43.000Z</time>
</trkpt>
<trkpt lat="57.059827" lon="8.528600">
<ele>6.046179</ele>
<time>2026-07-15T08:41:44.000Z</time>
</trkpt>
<trkpt lat="57.059873" lon="8.528663">
<ele>6.039093</ele>
<time>2026-07-15T08:41:45.000Z</time>
</trkpt>
<trkpt lat="57.059922" lon="8.528726">
<ele>6.031706</ele>
<time>2026-07-15T08:41:46.000Z</time>
</trkpt>
<trkpt lat="57.059971" lon="8.528791">
<ele>6.024241</ele>
<time>2026-07-15T08:41:47.000Z</time>
</trkpt>
<trkpt lat="57.060017" lon="8.528856">
<ele>6.017073</ele>
<time>2026-07-15T08:41:48.000Z</time>
</trkpt>
<trkpt lat="57.060067" lon="8.528920">
<ele>6.009547</ele>
<time>2026-07-15T08:41:49.000Z</time>
</trkpt>
<trkpt lat="57.060117" lon="8.528984">
<ele>6.002020</ele>
<time>2026-07-15T08:41:50.000Z</time>
</trkpt>
<trkpt lat="57.060162" lon="8.529049">
<ele>5.994950</ele>
<time>2026-07-15T08:41:51.000Z</time>
</trkpt>
<trkpt lat="57.060212" lon="8.529115">
<ele>5.987346</ele>
<time>2026-07-15T08:41:52.000Z</time>
</trkpt>
<trkpt lat="57.060258" lon="8.529180">
<ele>5.980178</ele>
<time>2026-07-15T08:41:53.000Z</time>
</trkpt>
<trkpt lat="57.060307" lon="8.529243">
<ele>5.972792</ele>
<time>2026-07-15T08:41:54.000Z</time>
</trkpt>
<trkpt lat="57.060357" lon="8.529307">
<ele>5.965265</ele>
<time>2026-07-15T08:41:55.000Z</time>
</trkpt>
<trkpt lat="57.060403" lon="8.529372">
<ele>5.958097</ele>
<time>2026-07-15T08:41:56.000Z</time>
</trkpt>
<trkpt lat="57.060453" lon="8.529432">
<ele>5.950721</ele>
<time>2026-07-15T08:41:57.000Z</time>
</trkpt>
<trkpt lat="57.060502" lon="8.529492">
<ele>5.943448</ele>
<time>2026-07-15T08:41:58.000Z</time>
</trkpt>
<trkpt lat="57.060547" lon="8.529556">
<ele>5.943158</ele>
<time>2026-07-15T08:41:59.000Z</time>
</trkpt>
<trkpt lat="57.060598" lon="8.529623">
<ele>5.951438</ele>
<time>2026-07-15T08:42:00.000Z</time>
</trkpt>
<trkpt lat="57.060647" lon="8.529688">
<ele>5.959419</ele>
<time>2026-07-15T08:42:01.000Z</time>
</trkpt>
<trkpt lat="57.060693" lon="8.529753">
<ele>5.967082</ele>
<time>2026-07-15T08:42:02.000Z</time>
</trkpt>
<trkpt lat="57.060742" lon="8.529816">
<ele>5.974980</ele>
<time>2026-07-15T08:42:03.000Z</time>
</trkpt>
<trkpt lat="57.060788" lon="8.529881">
<ele>5.982643</ele>
<time>2026-07-15T08:42:04.000Z</time>
</trkpt>
<trkpt lat="57.060838" lon="8.529945">
<ele>5.990690</ele>
<time>2026-07-15T08:42:05.000Z</time>
</trkpt>
<trkpt lat="57.060883" lon="8.530005">
<ele>5.998032</ele>
<time>2026-07-15T08:42:06.000Z</time>
</trkpt>
<trkpt lat="57.060929" lon="8.530065">
<ele>6.005482</ele>
<time>2026-07-15T08:42:07.000Z</time>
</trkpt>
<trkpt lat="57.060979" lon="8.530126">
<ele>6.013408</ele>
<time>2026-07-15T08:42:08.000Z</time>
</trkpt>
<trkpt lat="57.061025" lon="8.530192">
<ele>6.021115</ele>
<time>2026-07-15T08:42:09.000Z</time>
</trkpt>
<trkpt lat="57.061074" lon="8.530256">
<ele>6.029054</ele>
<time>2026-07-15T08:42:10.000Z</time>
</trkpt>
<trkpt lat="57.061120" lon="8.530323">
<ele>6.036806</ele>
<time>2026-07-15T08:42:11.000Z</time>
</trkpt>
<trkpt lat="57.061169" lon="8.530391">
<ele>6.044915</ele>
<time>2026-07-15T08:42:12.000Z</time>
</trkpt>
<trkpt lat="57.061219" lon="8.530462">
<ele>6.053259</ele>
<time>2026-07-15T08:42:13.000Z</time>
</trkpt>
<trkpt lat="57.061272" lon="8.530531">
<ele>6.061837</ele>
<time>2026-07-15T08:42:14.000Z</time>
</trkpt>
<trkpt lat="57.061322" lon="8.530601">
<ele>6.070138</ele>
<time>2026-07-15T08:42:15.000Z</time>
</trkpt>
<trkpt lat="57.061372" lon="8.530672">
<ele>6.078483</ele>
<time>2026-07-15T08:42:16.000Z</time>
</trkpt>
<trkpt lat="57.061421" lon="8.530743">
<ele>6.086724</ele>
<time>2026-07-15T08:42:17.000Z</time>
</trkpt>
<trkpt lat="57.061475" lon="8.530816">
<ele>6.095577</ele>
<time>2026-07-15T08:42:18.000Z</time>
</trkpt>
<trkpt lat="57.061524" lon="8.530890">
<ele>6.103952</ele>
<time>2026-07-15T08:42:19.000Z</time>
</trkpt>
<trkpt lat="57.061574" lon="8.530964">
<ele>6.112430</ele>
<time>2026-07-15T08:42:20.000Z</time>
</trkpt>
<trkpt lat="57.061627" lon="8.531036">
<ele>6.121134</ele>
<time>2026-07-15T08:42:21.000Z</time>
</trkpt>
<trkpt lat="57.061677" lon="8.531108">
<ele>6.129523</ele>
<time>2026-07-15T08:42:22.000Z</time>
</trkpt>
<trkpt lat="57.061731" lon="8.531178">
<ele>6.138250</ele>
<time>2026-07-15T08:42:23.000Z</time>
</trkpt>
<trkpt lat="57.061784" lon="8.531249">
<ele>6.146912</ele>
<time>2026-07-15T08:42:24.000Z</time>
</trkpt>
<trkpt lat="57.061833" lon="8.531320">
<ele>6.155153</ele>
<time>2026-07-15T08:42:25.000Z</time>
</trkpt>
<trkpt lat="57.061882" lon="8.531392">
<ele>6.163438</ele>
<time>2026-07-15T08:42:26.000Z</time>
</trkpt>
<trkpt lat="57.061932" lon="8.531466">
<ele>6.171916</ele>
<time>2026-07-15T08:42:27.000Z</time>
</trkpt>
<trkpt lat="57.061982" lon="8.531541">
<ele>6.204303</ele>
<time>2026-07-15T08:42:28.000Z</time>
</trkpt>
<trkpt lat="57.062032" lon="8.531615">
<ele>6.276744</ele>
<time>2026-07-15T08:42:29.000Z</time>
</trkpt>
<trkpt lat="57.062081" lon="8.531686">
<ele>6.347154</ele>
<time>2026-07-15T08:42:30.000Z</time>
</trkpt>
<trkpt lat="57.062131" lon="8.531759">
<ele>6.419211</ele>
<time>2026-07-15T08:42:31.000Z</time>
</trkpt>
<trkpt lat="57.062180" lon="8.531833">
<ele>6.490776</ele>
<time>2026-07-15T08:42:32.000Z</time>
</trkpt>
<trkpt lat="57.062230" lon="8.531904">
<ele>6.562076</ele>
<time>2026-07-15T08:42:33.000Z</time>
</trkpt>
<trkpt lat="57.062280" lon="8.531974">
<ele>6.633003</ele>
<time>2026-07-15T08:42:34.000Z</time>
</trkpt>
<trkpt lat="57.062329" lon="8.532043">
<ele>6.702660</ele>
<time>2026-07-15T08:42:35.000Z</time>
</trkpt>
<trkpt lat="57.062379" lon="8.532108">
<ele>6.771771</ele>
<time>2026-07-15T08:42:36.000Z</time>
</trkpt>
<trkpt lat="57.062428" lon="8.532172">
<ele>6.839607</ele>
<time>2026-07-15T08:42:37.000Z</time>
</trkpt>
<trkpt lat="57.062474" lon="8.532238">
<ele>6.905459</ele>
<time>2026-07-15T08:42:38.000Z</time>
</trkpt>
<trkpt lat="57.062524" lon="8.532299">
<ele>6.973183</ele>
<time>2026-07-15T08:42:39.000Z</time>
</trkpt>
<trkpt lat="57.062573" lon="8.532356">
<ele>7.038625</ele>
<time>2026-07-15T08:42:40.000Z</time>
</trkpt>
<trkpt lat="57.062619" lon="8.532414">
<ele>7.101576</ele>
<time>2026-07-15T08:42:41.000Z</time>
</trkpt>
<trkpt lat="57.062661" lon="8.532470">
<ele>7.160129</ele>
<time>2026-07-15T08:42:42.000Z</time>
</trkpt>
<trkpt lat="57.062703" lon="8.532529">
<ele>7.219782</ele>
<time>2026-07-15T08:42:43.000Z</time>
</trkpt>
<trkpt lat="57.062741" lon="8.532591">
<ele>7.277119</ele>
<time>2026-07-15T08:42:44.000Z</time>
</trkpt>
<trkpt lat="57.062779" lon="8.532653">
<ele>7.334455</ele>
<time>2026-07-15T08:42:45.000Z</time>
</trkpt>
<trkpt lat="57.062818" lon="8.532710">
<ele>7.390682</ele>
<time>2026-07-15T08:42:46.000Z</time>
</trkpt>
<trkpt lat="57.062856" lon="8.532765">
<ele>7.445263</ele>
<time>2026-07-15T08:42:47.000Z</time>
</trkpt>
<trkpt lat="57.062898" lon="8.532823">
<ele>7.504545</ele>
<time>2026-07-15T08:42:48.000Z</time>
</trkpt>
<trkpt lat="57.062935" lon="8.532883">
<ele>7.560222</ele>
<time>2026-07-15T08:42:49.000Z</time>
</trkpt>
<trkpt lat="57.062978" lon="8.532945">
<ele>7.621895</ele>
<time>2026-07-15T08:42:50.000Z</time>
</trkpt>
<trkpt lat="57.063016" lon="8.533006">
<ele>7.678825</ele>
<time>2026-07-15T08:42:51.000Z</time>
</trkpt>
<trkpt lat="57.063062" lon="8.533068">
<ele>7.743196</ele>
<time>2026-07-15T08:42:52.000Z</time>
</trkpt>
<trkpt lat="57.063104" lon="8.533135">
<ele>7.805950</ele>
<time>2026-07-15T08:42:53.000Z</time>
</trkpt>
<trkpt lat="57.063149" lon="8.533202">
<ele>7.871300</ele>
<time>2026-07-15T08:42:54.000Z</time>
</trkpt>
<trkpt lat="57.063191" lon="8.533268">
<ele>7.933654</ele>
<time>2026-07-15T08:42:55.000Z</time>
</trkpt>
<trkpt lat="57.063237" lon="8.533334">
<ele>7.999505</ele>
<time>2026-07-15T08:42:56.000Z</time>
</trkpt>
<trkpt lat="57.063279" lon="8.533401">
<ele>8.062259</ele>
<time>2026-07-15T08:42:57.000Z</time>
</trkpt>
<trkpt lat="57.063325" lon="8.533471">
<ele>8.129648</ele>
<time>2026-07-15T08:42:58.000Z</time>
</trkpt>
<trkpt lat="57.063370" lon="8.533537">
<ele>8.194613</ele>
<time>2026-07-15T08:42:59.000Z</time>
</trkpt>
<trkpt lat="57.063412" lon="8.533606">
<ele>8.227532</ele>
<time>2026-07-15T08:43:00.000Z</time>
</trkpt>
<trkpt lat="57.063458" lon="8.533672">
<ele>8.253604</ele>
<time>2026-07-15T08:43:01.000Z</time>
</trkpt>
<trkpt lat="57.063504" lon="8.533736">
<ele>8.279380</ele>
<time>2026-07-15T08:43:02.000Z</time>
</trkpt>
<trkpt lat="57.063546" lon="8.533803">
<ele>8.304226</ele>
<time>2026-07-15T08:43:03.000Z</time>
</trkpt>
<trkpt lat="57.063592" lon="8.533871">
<ele>8.330600</ele>
<time>2026-07-15T08:43:04.000Z</time>
</trkpt>
<trkpt lat="57.063638" lon="8.533940">
<ele>8.357126</ele>
<time>2026-07-15T08:43:05.000Z</time>
</trkpt>
<trkpt lat="57.063680" lon="8.534006">
<ele>8.381813</ele>
<time>2026-07-15T08:43:06.000Z</time>
</trkpt>
<trkpt lat="57.063725" lon="8.534073">
<ele>8.407687</ele>
<time>2026-07-15T08:43:07.000Z</time>
</trkpt>
<trkpt lat="57.063767" lon="8.534136">
<ele>8.431906</ele>
<time>2026-07-15T08:43:08.000Z</time>
</trkpt>
<trkpt lat="57.063809" lon="8.534203">
<ele>8.456752</ele>
<time>2026-07-15T08:43:09.000Z</time>
</trkpt>
<trkpt lat="57.063851" lon="8.534273">
<ele>8.482081</ele>
<time>2026-07-15T08:43:10.000Z</time>
</trkpt>
<trkpt lat="57.063889" lon="8.534343">
<ele>8.506116</ele>
<time>2026-07-15T08:43:11.000Z</time>
</trkpt>
<trkpt lat="57.063931" lon="8.534408">
<ele>8.530646</ele>
<time>2026-07-15T08:43:12.000Z</time>
</trkpt>
<trkpt lat="57.063969" lon="8.534472">
<ele>8.553672</ele>
<time>2026-07-15T08:43:13.000Z</time>
</trkpt>
<trkpt lat="57.064008" lon="8.534537">
<ele>8.577191</ele>
<time>2026-07-15T08:43:14.000Z</time>
</trkpt>
<trkpt lat="57.064046" lon="8.534596">
<ele>8.599415</ele>
<time>2026-07-15T08:43:15.000Z</time>
</trkpt>
<trkpt lat="57.064083" lon="8.534657">
<ele>8.621620</ele>
<time>2026-07-15T08:43:16.000Z</time>
</trkpt>
<trkpt lat="57.064122" lon="8.534721">
<ele>8.644978</ele>
<time>2026-07-15T08:43:17.000Z</time>
</trkpt>
<trkpt lat="57.064160" lon="8.534784">
<ele>8.667840</ele>
<time>2026-07-15T08:43:18.000Z</time>
</trkpt>
<trkpt lat="57.064198" lon="8.534852">
<ele>8.691533</ele>
<time>2026-07-15T08:43:19.000Z</time>
</trkpt>
<trkpt lat="57.064237" lon="8.534921">
<ele>8.715716</ele>
<time>2026-07-15T08:43:20.000Z</time>
</trkpt>
<trkpt lat="57.064274" lon="8.534989">
<ele>8.739091</ele>
<time>2026-07-15T08:43:21.000Z</time>
</trkpt>
<trkpt lat="57.064313" lon="8.535060">
<ele>8.763614</ele>
<time>2026-07-15T08:43:22.000Z</time>
</trkpt>
<trkpt lat="57.064354" lon="8.535126">
<ele>8.787962</ele>
<time>2026-07-15T08:43:23.000Z</time>
</trkpt>
<trkpt lat="57.064393" lon="8.535193">
<ele>8.811811</ele>
<time>2026-07-15T08:43:24.000Z</time>
</trkpt>
<trkpt lat="57.064435" lon="8.535260">
<ele>8.836657</ele>
<time>2026-07-15T08:43:25.000Z</time>
</trkpt>
<trkpt lat="57.064476" lon="8.535328">
<ele>8.861328</ele>
<time>2026-07-15T08:43:26.000Z</time>
</trkpt>
<trkpt lat="57.064519" lon="8.535396">
<ele>8.886671</ele>
<time>2026-07-15T08:43:27.000Z</time>
</trkpt>
<trkpt lat="57.064561" lon="8.535466">
<ele>8.912000</ele>
<time>2026-07-15T08:43:28.000Z</time>
</trkpt>
<trkpt lat="57.064602" lon="8.535538">
<ele>8.937332</ele>
<time>2026-07-15T08:43:29.000Z</time>
</trkpt>
<trkpt lat="57.064641" lon="8.535610">
<ele>8.962026</ele>
<time>2026-07-15T08:43:30.000Z</time>
</trkpt>
<trkpt lat="57.064683" lon="8.535681">
<ele>8.987519</ele>
<time>2026-07-15T08:43:31.000Z</time>
</trkpt>
<trkpt lat="57.064721" lon="8.535753">
<ele>9.011392</ele>
<time>2026-07-15T08:43:32.000Z</time>
</trkpt>
<trkpt lat="57.064763" lon="8.535824">
<ele>9.017344</ele>
<time>2026-07-15T08:43:33.000Z</time>
</trkpt>
<trkpt lat="57.064801" lon="8.535897">
<ele>9.023076</ele>
<time>2026-07-15T08:43:34.000Z</time>
</trkpt>
<trkpt lat="57.064843" lon="8.535968">
<ele>9.029028</ele>
<time>2026-07-15T08:43:35.000Z</time>
</trkpt>
<trkpt lat="57.064881" lon="8.536042">
<ele>9.034802</ele>
<time>2026-07-15T08:43:36.000Z</time>
</trkpt>
<trkpt lat="57.064923" lon="8.536113">
<ele>9.040753</ele>
<time>2026-07-15T08:43:37.000Z</time>
</trkpt>
<trkpt lat="57.064961" lon="8.536183">
<ele>9.046364</ele>
<time>2026-07-15T08:43:38.000Z</time>
</trkpt>
<trkpt lat="57.065003" lon="8.536254">
<ele>9.052316</ele>
<time>2026-07-15T08:43:39.000Z</time>
</trkpt>
<trkpt lat="57.065041" lon="8.536326">
<ele>9.058007</ele>
<time>2026-07-15T08:43:40.000Z</time>
</trkpt>
<trkpt lat="57.065083" lon="8.536399">
<ele>9.064036</ele>
<time>2026-07-15T08:43:41.000Z</time>
</trkpt>
<trkpt lat="57.065122" lon="8.536470">
<ele>9.069761</ele>
<time>2026-07-15T08:43:42.000Z</time>
</trkpt>
<trkpt lat="57.065163" lon="8.536543">
<ele>9.075714</ele>
<time>2026-07-15T08:43:43.000Z</time>
</trkpt>
<trkpt lat="57.065201" lon="8.536619">
<ele>9.081571</ele>
<time>2026-07-15T08:43:44.000Z</time>
</trkpt>
<trkpt lat="57.065240" lon="8.536695">
<ele>9.087499</ele>
<time>2026-07-15T08:43:45.000Z</time>
</trkpt>
<trkpt lat="57.065282" lon="8.536771">
<ele>9.093646</ele>
<time>2026-07-15T08:43:46.000Z</time>
</trkpt>
<trkpt lat="57.065328" lon="8.536847">
<ele>9.100097</ele>
<time>2026-07-15T08:43:47.000Z</time>
</trkpt>
<trkpt lat="57.065369" lon="8.536925">
<ele>9.106251</ele>
<time>2026-07-15T08:43:48.000Z</time>
</trkpt>
<trkpt lat="57.065411" lon="8.537007">
<ele>9.112641</ele>
<time>2026-07-15T08:43:49.000Z</time>
</trkpt>
<trkpt lat="57.065457" lon="8.537086">
<ele>9.119207</ele>
<time>2026-07-15T08:43:50.000Z</time>
</trkpt>
<trkpt lat="57.065502" lon="8.537165">
<ele>9.125697</ele>
<time>2026-07-15T08:43:51.000Z</time>
</trkpt>
<trkpt lat="57.065549" lon="8.537248">
<ele>9.132495</ele>
<time>2026-07-15T08:43:52.000Z</time>
</trkpt>
<trkpt lat="57.065595" lon="8.537330">
<ele>9.139178</ele>
<time>2026-07-15T08:43:53.000Z</time>
</trkpt>
<trkpt lat="57.065640" lon="8.537411">
<ele>9.145747</ele>
<time>2026-07-15T08:43:54.000Z</time>
</trkpt>
<trkpt lat="57.065682" lon="8.537493">
<ele>9.152137</ele>
<time>2026-07-15T08:43:55.000Z</time>
</trkpt>
<trkpt lat="57.065728" lon="8.537574">
<ele>9.158781</ele>
<time>2026-07-15T08:43:56.000Z</time>
</trkpt>
<trkpt lat="57.065774" lon="8.537655">
<ele>9.165425</ele>
<time>2026-07-15T08:43:57.000Z</time>
</trkpt>
<trkpt lat="57.065816" lon="8.537735">
<ele>9.171733</ele>
<time>2026-07-15T08:43:58.000Z</time>
</trkpt>
<trkpt lat="57.065862" lon="8.537815">
<ele>9.178338</ele>
<time>2026-07-15T08:43:59.000Z</time>
</trkpt>
<trkpt lat="57.065904" lon="8.537895">
<ele>9.184646</ele>
<time>2026-07-15T08:44:00.000Z</time>
</trkpt>
<trkpt lat="57.065949" lon="8.537977">
<ele>9.191254</ele>
<time>2026-07-15T08:44:01.000Z</time>
</trkpt>
<trkpt lat="57.065995" lon="8.538055">
<ele>9.197782</ele>
<time>2026-07-15T08:44:02.000Z</time>
</trkpt>
<trkpt lat="57.066041" lon="8.538131">
<ele>9.195225</ele>
<time>2026-07-15T08:44:03.000Z</time>
</trkpt>
<trkpt lat="57.066083" lon="8.538209">
<ele>9.190954</ele>
<time>2026-07-15T08:44:04.000Z</time>
</trkpt>
<trkpt lat="57.066129" lon="8.538290">
<ele>9.186396</ele>
<time>2026-07-15T08:44:05.000Z</time>
</trkpt>
<trkpt lat="57.066174" lon="8.538369">
<ele>9.181945</ele>
<time>2026-07-15T08:44:06.000Z</time>
</trkpt>
<trkpt lat="57.066216" lon="8.538448">
<ele>9.177646</ele>
<time>2026-07-15T08:44:07.000Z</time>
</trkpt>
<trkpt lat="57.066259" lon="8.538529">
<ele>9.173242</ele>
<time>2026-07-15T08:44:08.000Z</time>
</trkpt>
<trkpt lat="57.066304" lon="8.538610">
<ele>9.168736</ele>
<time>2026-07-15T08:44:09.000Z</time>
</trkpt>
<trkpt lat="57.066350" lon="8.538691">
<ele>9.164179</ele>
<time>2026-07-15T08:44:10.000Z</time>
</trkpt>
<trkpt lat="57.066396" lon="8.538773">
<ele>9.159595</ele>
<time>2026-07-15T08:44:11.000Z</time>
</trkpt>
<trkpt lat="57.066445" lon="8.538856">
<ele>9.154828</ele>
<time>2026-07-15T08:44:12.000Z</time>
</trkpt>
<trkpt lat="57.066491" lon="8.538935">
<ele>9.150324</ele>
<time>2026-07-15T08:44:13.000Z</time>
</trkpt>
<trkpt lat="57.066541" lon="8.539012">
<ele>9.145658</ele>
<time>2026-07-15T08:44:14.000Z</time>
</trkpt>
<trkpt lat="57.066582" lon="8.539089">
<ele>9.141465</ele>
<time>2026-07-15T08:44:15.000Z</time>
</trkpt>
<trkpt lat="57.066628" lon="8.539167">
<ele>9.136987</ele>
<time>2026-07-15T08:44:16.000Z</time>
</trkpt>
<trkpt lat="57.066678" lon="8.539248">
<ele>9.132220</ele>
<time>2026-07-15T08:44:17.000Z</time>
</trkpt>
<trkpt lat="57.066727" lon="8.539334">
<ele>9.127373</ele>
<time>2026-07-15T08:44:18.000Z</time>
</trkpt>
<trkpt lat="57.066781" lon="8.539422">
<ele>9.122210</ele>
<time>2026-07-15T08:44:19.000Z</time>
</trkpt>
<trkpt lat="57.066838" lon="8.539503">
<ele>9.117056</ele>
<time>2026-07-15T08:44:20.000Z</time>
</trkpt>
<trkpt lat="57.066895" lon="8.539578">
<ele>9.112040</ele>
<time>2026-07-15T08:44:21.000Z</time>
</trkpt>
<trkpt lat="57.066949" lon="8.539653">
<ele>9.107198</ele>
<time>2026-07-15T08:44:22.000Z</time>
</trkpt>
<trkpt lat="57.067002" lon="8.539727">
<ele>9.102437</ele>
<time>2026-07-15T08:44:23.000Z</time>
</trkpt>
<trkpt lat="57.067055" lon="8.539797">
<ele>9.097767</ele>
<time>2026-07-15T08:44:24.000Z</time>
</trkpt>
<trkpt lat="57.067105" lon="8.539870">
<ele>9.093199</ele>
<time>2026-07-15T08:44:25.000Z</time>
</trkpt>
<trkpt lat="57.067154" lon="8.539941">
<ele>9.088736</ele>
<time>2026-07-15T08:44:26.000Z</time>
</trkpt>
<trkpt lat="57.067204" lon="8.540013">
<ele>9.084191</ele>
<time>2026-07-15T08:44:27.000Z</time>
</trkpt>
<trkpt lat="57.067254" lon="8.540084">
<ele>9.079671</ele>
<time>2026-07-15T08:44:28.000Z</time>
</trkpt>
<trkpt lat="57.067308" lon="8.540151">
<ele>9.075010</ele>
<time>2026-07-15T08:44:29.000Z</time>
</trkpt>
<trkpt lat="57.067357" lon="8.540223">
<ele>9.070522</ele>
<time>2026-07-15T08:44:30.000Z</time>
</trkpt>
<trkpt lat="57.067406" lon="8.540298">
<ele>9.029746</ele>
<time>2026-07-15T08:44:31.000Z</time>
</trkpt>
<trkpt lat="57.067456" lon="8.540375">
<ele>8.985002</ele>
<time>2026-07-15T08:44:32.000Z</time>
</trkpt>
<trkpt lat="57.067506" lon="8.540448">
<ele>8.941201</ele>
<time>2026-07-15T08:44:33.000Z</time>
</trkpt>
<trkpt lat="57.067559" lon="8.540514">
<ele>8.897284</ele>
<time>2026-07-15T08:44:34.000Z</time>
</trkpt>
<trkpt lat="57.067609" lon="8.540571">
<ele>8.856922</ele>
<time>2026-07-15T08:44:35.000Z</time>
</trkpt>
<trkpt lat="57.067654" lon="8.540624">
<ele>8.820257</ele>
<time>2026-07-15T08:44:36.000Z</time>
</trkpt>
<trkpt lat="57.067696" lon="8.540674">
<ele>8.785930</ele>
<time>2026-07-15T08:44:37.000Z</time>
</trkpt>
<trkpt lat="57.067738" lon="8.540725">
<ele>8.751398</ele>
<time>2026-07-15T08:44:38.000Z</time>
</trkpt>
<trkpt lat="57.067780" lon="8.540779">
<ele>8.716237</ele>
<time>2026-07-15T08:44:39.000Z</time>
</trkpt>
<trkpt lat="57.067822" lon="8.540843">
<ele>8.678815</ele>
<time>2026-07-15T08:44:40.000Z</time>
</trkpt>
<trkpt lat="57.067868" lon="8.540911">
<ele>8.638322</ele>
<time>2026-07-15T08:44:41.000Z</time>
</trkpt>
<trkpt lat="57.067918" lon="8.540982">
<ele>8.594981</ele>
<time>2026-07-15T08:44:42.000Z</time>
</trkpt>
<trkpt lat="57.067967" lon="8.541051">
<ele>8.552638</ele>
<time>2026-07-15T08:44:43.000Z</time>
</trkpt>
<trkpt lat="57.068021" lon="8.541125">
<ele>8.506433</ele>
<time>2026-07-15T08:44:44.000Z</time>
</trkpt>
<trkpt lat="57.068078" lon="8.541198">
<ele>8.458776</ele>
<time>2026-07-15T08:44:45.000Z</time>
</trkpt>
<trkpt lat="57.068132" lon="8.541273">
<ele>8.412348</ele>
<time>2026-07-15T08:44:46.000Z</time>
</trkpt>
<trkpt lat="57.068193" lon="8.541345">
<ele>8.362617</ele>
<time>2026-07-15T08:44:47.000Z</time>
</trkpt>
<trkpt lat="57.068250" lon="8.541413">
<ele>8.316000</ele>
<time>2026-07-15T08:44:48.000Z</time>
</trkpt>
<trkpt lat="57.068307" lon="8.541479">
<ele>8.269786</ele>
<time>2026-07-15T08:44:49.000Z</time>
</trkpt>
<trkpt lat="57.068364" lon="8.541546">
<ele>8.223371</ele>
<time>2026-07-15T08:44:50.000Z</time>
</trkpt>
<trkpt lat="57.068421" lon="8.541613">
<ele>8.176957</ele>
<time>2026-07-15T08:44:51.000Z</time>
</trkpt>
<trkpt lat="57.068482" lon="8.541676">
<ele>8.128956</ele>
<time>2026-07-15T08:44:52.000Z</time>
</trkpt>
<trkpt lat="57.068536" lon="8.541736">
<ele>8.085668</ele>
<time>2026-07-15T08:44:53.000Z</time>
</trkpt>
<trkpt lat="57.068593" lon="8.541793">
<ele>8.041151</ele>
<time>2026-07-15T08:44:54.000Z</time>
</trkpt>
<trkpt lat="57.068654" lon="8.541856">
<ele>7.993150</ele>
<time>2026-07-15T08:44:55.000Z</time>
</trkpt>
<trkpt lat="57.068707" lon="8.541917">
<ele>7.950252</ele>
<time>2026-07-15T08:44:56.000Z</time>
</trkpt>
<trkpt lat="57.068764" lon="8.541977">
<ele>7.905190</ele>
<time>2026-07-15T08:44:57.000Z</time>
</trkpt>
<trkpt lat="57.068822" lon="8.542036">
<ele>7.859713</ele>
<time>2026-07-15T08:44:58.000Z</time>
</trkpt>
<trkpt lat="57.068879" lon="8.542094">
<ele>7.852699</ele>
<time>2026-07-15T08:44:59.000Z</time>
</trkpt>
<trkpt lat="57.068936" lon="8.542152">
<ele>7.888173</ele>
<time>2026-07-15T08:45:00.000Z</time>
</trkpt>
<trkpt lat="57.068993" lon="8.542210">
<ele>7.923647</ele>
<time>2026-07-15T08:45:01.000Z</time>
</trkpt>
<trkpt lat="57.069050" lon="8.542267">
<ele>7.958979</ele>
<time>2026-07-15T08:45:02.000Z</time>
</trkpt>
<trkpt lat="57.069104" lon="8.542324">
<ele>7.992884</ele>
<time>2026-07-15T08:45:03.000Z</time>
</trkpt>
<trkpt lat="57.069162" lon="8.542379">
<ele>8.028420</ele>
<time>2026-07-15T08:45:04.000Z</time>
</trkpt>
<trkpt lat="57.069219" lon="8.542435">
<ele>8.063612</ele>
<time>2026-07-15T08:45:05.000Z</time>
</trkpt>
<trkpt lat="57.069276" lon="8.542487">
<ele>8.098261</ele>
<time>2026-07-15T08:45:06.000Z</time>
</trkpt>
<trkpt lat="57.069333" lon="8.542539">
<ele>8.132910</ele>
<time>2026-07-15T08:45:07.000Z</time>
</trkpt>
<trkpt lat="57.069390" lon="8.542589">
<ele>8.167300</ele>
<time>2026-07-15T08:45:08.000Z</time>
</trkpt>
<trkpt lat="57.069447" lon="8.542640">
<ele>8.201818</ele>
<time>2026-07-15T08:45:09.000Z</time>
</trkpt>
<trkpt lat="57.069504" lon="8.542691">
<ele>8.236337</ele>
<time>2026-07-15T08:45:10.000Z</time>
</trkpt>
<trkpt lat="57.069562" lon="8.542743">
<ele>8.271475</ele>
<time>2026-07-15T08:45:11.000Z</time>
</trkpt>
<trkpt lat="57.069619" lon="8.542792">
<ele>8.305738</ele>
<time>2026-07-15T08:45:12.000Z</time>
</trkpt>
<trkpt lat="57.069677" lon="8.542838">
<ele>8.340135</ele>
<time>2026-07-15T08:45:13.000Z</time>
</trkpt>
<trkpt lat="57.069733" lon="8.542881">
<ele>8.373182</ele>
<time>2026-07-15T08:45:14.000Z</time>
</trkpt>
<trkpt lat="57.069791" lon="8.542923">
<ele>8.407127</ele>
<time>2026-07-15T08:45:15.000Z</time>
</trkpt>
<trkpt lat="57.069844" lon="8.542964">
<ele>8.438439</ele>
<time>2026-07-15T08:45:16.000Z</time>
</trkpt>
<trkpt lat="57.069901" lon="8.543008">
<ele>8.472102</ele>
<time>2026-07-15T08:45:17.000Z</time>
</trkpt>
<trkpt lat="57.069955" lon="8.543051">
<ele>8.504147</ele>
<time>2026-07-15T08:45:18.000Z</time>
</trkpt>
<trkpt lat="57.070009" lon="8.543093">
<ele>8.536075</ele>
<time>2026-07-15T08:45:19.000Z</time>
</trkpt>
<trkpt lat="57.070065" lon="8.543134">
<ele>8.568899</ele>
<time>2026-07-15T08:45:20.000Z</time>
</trkpt>
<trkpt lat="57.070119" lon="8.543175">
<ele>8.600713</ele>
<time>2026-07-15T08:45:21.000Z</time>
</trkpt>
<trkpt lat="57.070177" lon="8.543218">
<ele>8.634767</ele>
<time>2026-07-15T08:45:22.000Z</time>
</trkpt>
<trkpt lat="57.070229" lon="8.543257">
<ele>8.665349</ele>
<time>2026-07-15T08:45:23.000Z</time>
</trkpt>
<trkpt lat="57.070283" lon="8.543293">
<ele>8.696628</ele>
<time>2026-07-15T08:45:24.000Z</time>
</trkpt>
<trkpt lat="57.070340" lon="8.543324">
<ele>8.728998</ele>
<time>2026-07-15T08:45:25.000Z</time>
</trkpt>
<trkpt lat="57.070397" lon="8.543352">
<ele>8.761127</ele>
<time>2026-07-15T08:45:26.000Z</time>
</trkpt>
<trkpt lat="57.070451" lon="8.543379">
<ele>8.791601</ele>
<time>2026-07-15T08:45:27.000Z</time>
</trkpt>
<trkpt lat="57.070500" lon="8.543404">
<ele>8.813401</ele>
<time>2026-07-15T08:45:28.000Z</time>
</trkpt>
<trkpt lat="57.070550" lon="8.543429">
<ele>8.797319</ele>
<time>2026-07-15T08:45:29.000Z</time>
</trkpt>
<trkpt lat="57.070595" lon="8.543454">
<ele>8.782728</ele>
<time>2026-07-15T08:45:30.000Z</time>
</trkpt>
<trkpt lat="57.070645" lon="8.543482">
<ele>8.766506</ele>
<time>2026-07-15T08:45:31.000Z</time>
</trkpt>
<trkpt lat="57.070691" lon="8.543511">
<ele>8.751413</ele>
<time>2026-07-15T08:45:32.000Z</time>
</trkpt>
<trkpt lat="57.070741" lon="8.543541">
<ele>8.735090</ele>
<time>2026-07-15T08:45:33.000Z</time>
</trkpt>
<trkpt lat="57.070790" lon="8.543569">
<ele>8.719164</ele>
<time>2026-07-15T08:45:34.000Z</time>
</trkpt>
<trkpt lat="57.070839" lon="8.543597">
<ele>8.703238</ele>
<time>2026-07-15T08:45:35.000Z</time>
</trkpt>
<trkpt lat="57.070888" lon="8.543625">
<ele>8.687313</ele>
<time>2026-07-15T08:45:36.000Z</time>
</trkpt>
<trkpt lat="57.070939" lon="8.543659">
<ele>8.670476</ele>
<time>2026-07-15T08:45:37.000Z</time>
</trkpt>
<trkpt lat="57.070992" lon="8.543690">
<ele>8.653214</ele>
<time>2026-07-15T08:45:38.000Z</time>
</trkpt>
<trkpt lat="57.071046" lon="8.543724">
<ele>8.635499</ele>
<time>2026-07-15T08:45:39.000Z</time>
</trkpt>
<trkpt lat="57.071099" lon="8.543759">
<ele>8.618021</ele>
<time>2026-07-15T08:45:40.000Z</time>
</trkpt>
<trkpt lat="57.071153" lon="8.543795">
<ele>8.600194</ele>
<time>2026-07-15T08:45:41.000Z</time>
</trkpt>
<trkpt lat="57.071206" lon="8.543832">
<ele>8.582599</ele>
<time>2026-07-15T08:45:42.000Z</time>
</trkpt>
<trkpt lat="57.071260" lon="8.543868">
<ele>8.564771</ele>
<time>2026-07-15T08:45:43.000Z</time>
</trkpt>
<trkpt lat="57.071317" lon="8.543906">
<ele>8.545954</ele>
<time>2026-07-15T08:45:44.000Z</time>
</trkpt>
<trkpt lat="57.071374" lon="8.543946">
<ele>8.527018</ele>
<time>2026-07-15T08:45:45.000Z</time>
</trkpt>
<trkpt lat="57.071431" lon="8.543982">
<ele>8.508313</ele>
<time>2026-07-15T08:45:46.000Z</time>
</trkpt>
<trkpt lat="57.071496" lon="8.544018">
<ele>8.487244</ele>
<time>2026-07-15T08:45:47.000Z</time>
</trkpt>
<trkpt lat="57.071557" lon="8.544053">
<ele>8.467411</ele>
<time>2026-07-15T08:45:48.000Z</time>
</trkpt>
<trkpt lat="57.071618" lon="8.544087">
<ele>8.447627</ele>
<time>2026-07-15T08:45:49.000Z</time>
</trkpt>
<trkpt lat="57.071679" lon="8.544122">
<ele>8.427795</ele>
<time>2026-07-15T08:45:50.000Z</time>
</trkpt>
<trkpt lat="57.071744" lon="8.544156">
<ele>8.406820</ele>
<time>2026-07-15T08:45:51.000Z</time>
</trkpt>
<trkpt lat="57.071805" lon="8.544191">
<ele>8.386987</ele>
<time>2026-07-15T08:45:52.000Z</time>
</trkpt>
<trkpt lat="57.071866" lon="8.544224">
<ele>8.367252</ele>
<time>2026-07-15T08:45:53.000Z</time>
</trkpt>
<trkpt lat="57.071927" lon="8.544257">
<ele>8.347517</ele>
<time>2026-07-15T08:45:54.000Z</time>
</trkpt>
<trkpt lat="57.071988" lon="8.544292">
<ele>8.327684</ele>
<time>2026-07-15T08:45:55.000Z</time>
</trkpt>
<trkpt lat="57.072049" lon="8.544334">
<ele>8.307468</ele>
<time>2026-07-15T08:45:56.000Z</time>
</trkpt>
<trkpt lat="57.072118" lon="8.544374">
<ele>8.285014</ele>
<time>2026-07-15T08:45:57.000Z</time>
</trkpt>
<trkpt lat="57.072183" lon="8.544412">
<ele>8.263845</ele>
<time>2026-07-15T08:45:58.000Z</time>
</trkpt>
<trkpt lat="57.072248" lon="8.544441">
<ele>8.217446</ele>
<time>2026-07-15T08:45:59.000Z</time>
</trkpt>
<trkpt lat="57.072309" lon="8.544463">
<ele>8.163287</ele>
<time>2026-07-15T08:46:00.000Z</time>
</trkpt>
<trkpt lat="57.072366" lon="8.544484">
<ele>8.112638</ele>
<time>2026-07-15T08:46:01.000Z</time>
</trkpt>
<trkpt lat="57.072427" lon="8.544509">
<ele>8.058188</ele>
<time>2026-07-15T08:46:02.000Z</time>
</trkpt>
<trkpt lat="57.072488" lon="8.544539">
<ele>8.003174</ele>
<time>2026-07-15T08:46:03.000Z</time>
</trkpt>
<trkpt lat="57.072545" lon="8.544574">
<ele>7.950818</ele>
<time>2026-07-15T08:46:04.000Z</time>
</trkpt>
<trkpt lat="57.072607" lon="8.544611">
<ele>7.894029</ele>
<time>2026-07-15T08:46:05.000Z</time>
</trkpt>
<trkpt lat="57.072668" lon="8.544644">
<ele>7.838631</ele>
<time>2026-07-15T08:46:06.000Z</time>
</trkpt>
<trkpt lat="57.072728" lon="8.544676">
<ele>7.784202</ele>
<time>2026-07-15T08:46:07.000Z</time>
</trkpt>
<trkpt lat="57.072789" lon="8.544707">
<ele>7.729064</ele>
<time>2026-07-15T08:46:08.000Z</time>
</trkpt>
<trkpt lat="57.072853" lon="8.544739">
<ele>7.671280</ele>
<time>2026-07-15T08:46:09.000Z</time>
</trkpt>
<trkpt lat="57.072915" lon="8.544771">
<ele>7.615175</ele>
<time>2026-07-15T08:46:10.000Z</time>
</trkpt>
<trkpt lat="57.072976" lon="8.544798">
<ele>7.560511</ele>
<time>2026-07-15T08:46:11.000Z</time>
</trkpt>
<trkpt lat="57.073037" lon="8.544827">
<ele>7.505618</ele>
<time>2026-07-15T08:46:12.000Z</time>
</trkpt>
<trkpt lat="57.073098" lon="8.544859">
<ele>7.450352</ele>
<time>2026-07-15T08:46:13.000Z</time>
</trkpt>
<trkpt lat="57.073156" lon="8.544892">
<ele>7.397457</ele>
<time>2026-07-15T08:46:14.000Z</time>
</trkpt>
<trkpt lat="57.073215" lon="8.544927">
<ele>7.343445</ele>
<time>2026-07-15T08:46:15.000Z</time>
</trkpt>
<trkpt lat="57.073275" lon="8.544964">
<ele>7.288310</ele>
<time>2026-07-15T08:46:16.000Z</time>
</trkpt>
<trkpt lat="57.073335" lon="8.545003">
<ele>7.232867</ele>
<time>2026-07-15T08:46:17.000Z</time>
</trkpt>
<trkpt lat="57.073396" lon="8.545041">
<ele>7.176755</ele>
<time>2026-07-15T08:46:18.000Z</time>
</trkpt>
<trkpt lat="57.073461" lon="8.545081">
<ele>7.117038</ele>
<time>2026-07-15T08:46:19.000Z</time>
</trkpt>
<trkpt lat="57.073522" lon="8.545121">
<ele>7.060616</ele>
<time>2026-07-15T08:46:20.000Z</time>
</trkpt>
<trkpt lat="57.073583" lon="8.545164">
<ele>7.003700</ele>
<time>2026-07-15T08:46:21.000Z</time>
</trkpt>
<trkpt lat="57.073648" lon="8.545208">
<ele>6.943356</ele>
<time>2026-07-15T08:46:22.000Z</time>
</trkpt>
<trkpt lat="57.073713" lon="8.545253">
<ele>6.882846</ele>
<time>2026-07-15T08:46:23.000Z</time>
</trkpt>
<trkpt lat="57.073773" lon="8.545299">
<ele>6.826212</ele>
<time>2026-07-15T08:46:24.000Z</time>
</trkpt>
<trkpt lat="57.073842" lon="8.545346">
<ele>6.762106</ele>
<time>2026-07-15T08:46:25.000Z</time>
</trkpt>
<trkpt lat="57.073908" lon="8.545394">
<ele>6.700272</ele>
<time>2026-07-15T08:46:26.000Z</time>
</trkpt>
<trkpt lat="57.073976" lon="8.545443">
<ele>6.690948</ele>
<time>2026-07-15T08:46:27.000Z</time>
</trkpt>
<trkpt lat="57.074041" lon="8.545492">
<ele>6.691840</ele>
<time>2026-07-15T08:46:28.000Z</time>
</trkpt>
<trkpt lat="57.074109" lon="8.545542">
<ele>6.692770</ele>
<time>2026-07-15T08:46:29.000Z</time>
</trkpt>
<trkpt lat="57.074174" lon="8.545591">
<ele>6.693661</ele>
<time>2026-07-15T08:46:30.000Z</time>
</trkpt>
<trkpt lat="57.074239" lon="8.545639">
<ele>6.694551</ele>
<time>2026-07-15T08:46:31.000Z</time>
</trkpt>
<trkpt lat="57.074304" lon="8.545686">
<ele>6.695437</ele>
<time>2026-07-15T08:46:32.000Z</time>
</trkpt>
<trkpt lat="57.074365" lon="8.545735">
<ele>6.696282</ele>
<time>2026-07-15T08:46:33.000Z</time>
</trkpt>
<trkpt lat="57.074430" lon="8.545784">
<ele>6.697174</ele>
<time>2026-07-15T08:46:34.000Z</time>
</trkpt>
<trkpt lat="57.074491" lon="8.545835">
<ele>6.698025</ele>
<time>2026-07-15T08:46:35.000Z</time>
</trkpt>
<trkpt lat="57.074552" lon="8.545882">
<ele>6.698864</ele>
<time>2026-07-15T08:46:36.000Z</time>
</trkpt>
<trkpt lat="57.074613" lon="8.545931">
<ele>6.699709</ele>
<time>2026-07-15T08:46:37.000Z</time>
</trkpt>
<trkpt lat="57.074674" lon="8.545978">
<ele>6.700549</ele>
<time>2026-07-15T08:46:38.000Z</time>
</trkpt>
<trkpt lat="57.074730" lon="8.546024">
<ele>6.701327</ele>
<time>2026-07-15T08:46:39.000Z</time>
</trkpt>
<trkpt lat="57.074788" lon="8.546073">
<ele>6.702137</ele>
<time>2026-07-15T08:46:40.000Z</time>
</trkpt>
<trkpt lat="57.074846" lon="8.546120">
<ele>6.702942</ele>
<time>2026-07-15T08:46:41.000Z</time>
</trkpt>
<trkpt lat="57.074903" lon="8.546166">
<ele>6.703732</ele>
<time>2026-07-15T08:46:42.000Z</time>
</trkpt>
<trkpt lat="57.074964" lon="8.546212">
<ele>6.704569</ele>
<time>2026-07-15T08:46:43.000Z</time>
</trkpt>
<trkpt lat="57.075020" lon="8.546260">
<ele>6.705353</ele>
<time>2026-07-15T08:46:44.000Z</time>
</trkpt>
<trkpt lat="57.075078" lon="8.546311">
<ele>6.706169</ele>
<time>2026-07-15T08:46:45.000Z</time>
</trkpt>
<trkpt lat="57.075134" lon="8.546361">
<ele>6.706960</ele>
<time>2026-07-15T08:46:46.000Z</time>
</trkpt>
<trkpt lat="57.075188" lon="8.546412">
<ele>6.707730</ele>
<time>2026-07-15T08:46:47.000Z</time>
</trkpt>
<trkpt lat="57.075246" lon="8.546463">
<ele>6.708546</ele>
<time>2026-07-15T08:46:48.000Z</time>
</trkpt>
<trkpt lat="57.075299" lon="8.546512">
<ele>6.709299</ele>
<time>2026-07-15T08:46:49.000Z</time>
</trkpt>
<trkpt lat="57.075357" lon="8.546564">
<ele>6.710118</ele>
<time>2026-07-15T08:46:50.000Z</time>
</trkpt>
<trkpt lat="57.075414" lon="8.546615">
<ele>6.710923</ele>
<time>2026-07-15T08:46:51.000Z</time>
</trkpt>
<trkpt lat="57.075467" lon="8.546668">
<ele>6.711689</ele>
<time>2026-07-15T08:46:52.000Z</time>
</trkpt>
<trkpt lat="57.075524" lon="8.546721">
<ele>6.712499</ele>
<time>2026-07-15T08:46:53.000Z</time>
</trkpt>
<trkpt lat="57.075578" lon="8.546779">
<ele>6.723896</ele>
<time>2026-07-15T08:46:54.000Z</time>
</trkpt>
<trkpt lat="57.075634" lon="8.546835">
<ele>6.754149</ele>
<time>2026-07-15T08:46:55.000Z</time>
</trkpt>
<trkpt lat="57.075689" lon="8.546891">
<ele>6.783985</ele>
<time>2026-07-15T08:46:56.000Z</time>
</trkpt>
<trkpt lat="57.075745" lon="8.546945">
<ele>6.813994</ele>
<time>2026-07-15T08:46:57.000Z</time>
</trkpt>
<trkpt lat="57.075799" lon="8.547002">
<ele>6.843543</ele>
<time>2026-07-15T08:46:58.000Z</time>
</trkpt>
<trkpt lat="57.075852" lon="8.547059">
<ele>6.872681</ele>
<time>2026-07-15T08:46:59.000Z</time>
</trkpt>
<trkpt lat="57.075910" lon="8.547116">
<ele>6.903891</ele>
<time>2026-07-15T08:47:00.000Z</time>
</trkpt>
<trkpt lat="57.075963" lon="8.547171">
<ele>6.932773</ele>
<time>2026-07-15T08:47:01.000Z</time>
</trkpt>
<trkpt lat="57.076016" lon="8.547229">
<ele>6.962042</ele>
<time>2026-07-15T08:47:02.000Z</time>
</trkpt>
<trkpt lat="57.076066" lon="8.547290">
<ele>6.990517</ele>
<time>2026-07-15T08:47:03.000Z</time>
</trkpt>
<trkpt lat="57.076120" lon="8.547356">
<ele>7.021288</ele>
<time>2026-07-15T08:47:04.000Z</time>
</trkpt>
<trkpt lat="57.076177" lon="8.547423">
<ele>7.053392</ele>
<time>2026-07-15T08:47:05.000Z</time>
</trkpt>
<trkpt lat="57.076230" lon="8.547488">
<ele>7.083624</ele>
<time>2026-07-15T08:47:06.000Z</time>
</trkpt>
<trkpt lat="57.076287" lon="8.547549">
<ele>7.114922</ele>
<time>2026-07-15T08:47:07.000Z</time>
</trkpt>
<trkpt lat="57.076345" lon="8.547609">
<ele>7.146504</ele>
<time>2026-07-15T08:47:08.000Z</time>
</trkpt>
<trkpt lat="57.076394" lon="8.547666">
<ele>7.174020</ele>
<time>2026-07-15T08:47:09.000Z</time>
</trkpt>
<trkpt lat="57.076447" lon="8.547723">
<ele>7.203158</ele>
<time>2026-07-15T08:47:10.000Z</time>
</trkpt>
<trkpt lat="57.076501" lon="8.547778">
<ele>7.232454</ele>
<time>2026-07-15T08:47:11.000Z</time>
</trkpt>
<trkpt lat="57.076551" lon="8.547835">
<ele>7.260372</ele>
<time>2026-07-15T08:47:12.000Z</time>
</trkpt>
<trkpt lat="57.076600" lon="8.547895">
<ele>7.288309</ele>
<time>2026-07-15T08:47:13.000Z</time>
</trkpt>
<trkpt lat="57.076650" lon="8.547953">
<ele>7.316364</ele>
<time>2026-07-15T08:47:14.000Z</time>
</trkpt>
<trkpt lat="57.076699" lon="8.548015">
<ele>7.344590</ele>
<time>2026-07-15T08:47:15.000Z</time>
</trkpt>
<trkpt lat="57.076745" lon="8.548076">
<ele>7.371504</ele>
<time>2026-07-15T08:47:16.000Z</time>
</trkpt>
<trkpt lat="57.076791" lon="8.548134">
<ele>7.397972</ele>
<time>2026-07-15T08:47:17.000Z</time>
</trkpt>
<trkpt lat="57.076836" lon="8.548191">
<ele>7.423903</ele>
<time>2026-07-15T08:47:18.000Z</time>
</trkpt>
<trkpt lat="57.076882" lon="8.548247">
<ele>7.450083</ele>
<time>2026-07-15T08:47:19.000Z</time>
</trkpt>
<trkpt lat="57.076924" lon="8.548303">
<ele>7.474702</ele>
<time>2026-07-15T08:47:20.000Z</time>
</trkpt>
<trkpt lat="57.076961" lon="8.548357">
<ele>7.497117</ele>
<time>2026-07-15T08:47:21.000Z</time>
</trkpt>
<trkpt lat="57.077004" lon="8.548417">
<ele>7.522732</ele>
<time>2026-07-15T08:47:22.000Z</time>
</trkpt>
<trkpt lat="57.077046" lon="8.548477">
<ele>7.547970</ele>
<time>2026-07-15T08:47:23.000Z</time>
</trkpt>
<trkpt lat="57.077092" lon="8.548542">
<ele>7.574521</ele>
<time>2026-07-15T08:47:24.000Z</time>
</trkpt>
<trkpt lat="57.077134" lon="8.548610">
<ele>7.598119</ele>
<time>2026-07-15T08:47:25.000Z</time>
</trkpt>
<trkpt lat="57.077180" lon="8.548680">
<ele>7.623299</ele>
<time>2026-07-15T08:47:26.000Z</time>
</trkpt>
<trkpt lat="57.077226" lon="8.548753">
<ele>7.648923</ele>
<time>2026-07-15T08:47:27.000Z</time>
</trkpt>
<trkpt lat="57.077271" lon="8.548831">
<ele>7.675001</ele>
<time>2026-07-15T08:47:28.000Z</time>
</trkpt>
<trkpt lat="57.077320" lon="8.548904">
<ele>7.701596</ele>
<time>2026-07-15T08:47:29.000Z</time>
</trkpt>
<trkpt lat="57.077374" lon="8.548974">
<ele>7.729460</ele>
<time>2026-07-15T08:47:30.000Z</time>
</trkpt>
<trkpt lat="57.077424" lon="8.549038">
<ele>7.755152</ele>
<time>2026-07-15T08:47:31.000Z</time>
</trkpt>
<trkpt lat="57.077470" lon="8.549101">
<ele>7.779341</ele>
<time>2026-07-15T08:47:32.000Z</time>
</trkpt>
<trkpt lat="57.077516" lon="8.549163">
<ele>7.803394</ele>
<time>2026-07-15T08:47:33.000Z</time>
</trkpt>
<trkpt lat="57.077561" lon="8.549224">
<ele>7.826970</ele>
<time>2026-07-15T08:47:34.000Z</time>
</trkpt>
<trkpt lat="57.077607" lon="8.549290">
<ele>7.851576</ele>
<time>2026-07-15T08:47:35.000Z</time>
</trkpt>
<trkpt lat="57.077649" lon="8.549351">
<ele>7.874147</ele>
<time>2026-07-15T08:47:36.000Z</time>
</trkpt>
<trkpt lat="57.077695" lon="8.549416">
<ele>7.898612</ele>
<time>2026-07-15T08:47:37.000Z</time>
</trkpt>
<trkpt lat="57.077740" lon="8.549482">
<ele>7.922886</ele>
<time>2026-07-15T08:47:38.000Z</time>
</trkpt>
<trkpt lat="57.077782" lon="8.549546">
<ele>7.945889</ele>
<time>2026-07-15T08:47:39.000Z</time>
</trkpt>
<trkpt lat="57.077827" lon="8.549610">
<ele>7.969880</ele>
<time>2026-07-15T08:47:40.000Z</time>
</trkpt>
<trkpt lat="57.077874" lon="8.549674">
<ele>7.994545</ele>
<time>2026-07-15T08:47:41.000Z</time>
</trkpt>
<trkpt lat="57.077920" lon="8.549737">
<ele>8.018733</ele>
<time>2026-07-15T08:47:42.000Z</time>
</trkpt>
<trkpt lat="57.077966" lon="8.549797">
<ele>8.042518</ele>
<time>2026-07-15T08:47:43.000Z</time>
</trkpt>
<trkpt lat="57.078007" lon="8.549858">
<ele>8.064759</ele>
<time>2026-07-15T08:47:44.000Z</time>
</trkpt>
<trkpt lat="57.078048" lon="8.549923">
<ele>8.087587</ele>
<time>2026-07-15T08:47:45.000Z</time>
</trkpt>
<trkpt lat="57.078091" lon="8.550002">
<ele>8.113219</ele>
<time>2026-07-15T08:47:46.000Z</time>
</trkpt>
<trkpt lat="57.078133" lon="8.550088">
<ele>8.139725</ele>
<time>2026-07-15T08:47:47.000Z</time>
</trkpt>
<trkpt lat="57.078183" lon="8.550182">
<ele>8.169878</ele>
<time>2026-07-15T08:47:48.000Z</time>
</trkpt>
<trkpt lat="57.078237" lon="8.550276">
<ele>8.201235</ele>
<time>2026-07-15T08:47:49.000Z</time>
</trkpt>
<trkpt lat="57.078294" lon="8.550356">
<ele>8.231474</ele>
<time>2026-07-15T08:47:50.000Z</time>
</trkpt>
<trkpt lat="57.078355" lon="8.550428">
<ele>8.262044</ele>
<time>2026-07-15T08:47:51.000Z</time>
</trkpt>
<trkpt lat="57.078413" lon="8.550499">
<ele>8.291429</ele>
<time>2026-07-15T08:47:52.000Z</time>
</trkpt>
<trkpt lat="57.078469" lon="8.550566">
<ele>8.319606</ele>
<time>2026-07-15T08:47:53.000Z</time>
</trkpt>
<trkpt lat="57.078519" lon="8.550633">
<ele>8.343957</ele>
<time>2026-07-15T08:47:54.000Z</time>
</trkpt>
<trkpt lat="57.078572" lon="8.550703">
<ele>8.369118</ele>
<time>2026-07-15T08:47:55.000Z</time>
</trkpt>
<trkpt lat="57.078617" lon="8.550772">
<ele>8.391710</ele>
<time>2026-07-15T08:47:56.000Z</time>
</trkpt>
<trkpt lat="57.078664" lon="8.550843">
<ele>8.415163</ele>
<time>2026-07-15T08:47:57.000Z</time>
</trkpt>
<trkpt lat="57.078710" lon="8.550913">
<ele>8.438185</ele>
<time>2026-07-15T08:47:58.000Z</time>
</trkpt>
<trkpt lat="57.078759" lon="8.550985">
<ele>8.462370</ele>
<time>2026-07-15T08:47:59.000Z</time>
</trkpt>
<trkpt lat="57.078805" lon="8.551061">
<ele>8.486213</ele>
<time>2026-07-15T08:48:00.000Z</time>
</trkpt>
<trkpt lat="57.078851" lon="8.551140">
<ele>8.510481</ele>
<time>2026-07-15T08:48:01.000Z</time>
</trkpt>
<trkpt lat="57.078897" lon="8.551220">
<ele>8.534892</ele>
<time>2026-07-15T08:48:02.000Z</time>
</trkpt>
<trkpt lat="57.078946" lon="8.551302">
<ele>8.560437</ele>
<time>2026-07-15T08:48:03.000Z</time>
</trkpt>
<trkpt lat="57.078992" lon="8.551381">
<ele>8.584705</ele>
<time>2026-07-15T08:48:04.000Z</time>
</trkpt>
<trkpt lat="57.079041" lon="8.551463">
<ele>8.610250</ele>
<time>2026-07-15T08:48:05.000Z</time>
</trkpt>
<trkpt lat="57.079090" lon="8.551542">
<ele>8.635376</ele>
<time>2026-07-15T08:48:06.000Z</time>
</trkpt>
<trkpt lat="57.079141" lon="8.551627">
<ele>8.661915</ele>
<time>2026-07-15T08:48:07.000Z</time>
</trkpt>
<trkpt lat="57.079186" lon="8.551707">
<ele>8.686048</ele>
<time>2026-07-15T08:48:08.000Z</time>
</trkpt>
<trkpt lat="57.079240" lon="8.551787">
<ele>8.712785</ele>
<time>2026-07-15T08:48:09.000Z</time>
</trkpt>
<trkpt lat="57.079289" lon="8.551861">
<ele>8.737233</ele>
<time>2026-07-15T08:48:10.000Z</time>
</trkpt>
<trkpt lat="57.079343" lon="8.551932">
<ele>8.762830</ele>
<time>2026-07-15T08:48:11.000Z</time>
</trkpt>
<trkpt lat="57.079392" lon="8.552001">
<ele>8.786627</ele>
<time>2026-07-15T08:48:12.000Z</time>
</trkpt>
<trkpt lat="57.079446" lon="8.552073">
<ele>8.812347</ele>
<time>2026-07-15T08:48:13.000Z</time>
</trkpt>
<trkpt lat="57.079495" lon="8.552141">
<ele>8.836017</ele>
<time>2026-07-15T08:48:14.000Z</time>
</trkpt>
<trkpt lat="57.079545" lon="8.552208">
<ele>8.859872</ele>
<time>2026-07-15T08:48:15.000Z</time>
</trkpt>
<trkpt lat="57.079594" lon="8.552269">
<ele>8.882689</ele>
<time>2026-07-15T08:48:16.000Z</time>
</trkpt>
<trkpt lat="57.079644" lon="8.552326">
<ele>8.905373</ele>
<time>2026-07-15T08:48:17.000Z</time>
</trkpt>
<trkpt lat="57.079690" lon="8.552376">
<ele>8.925978</ele>
<time>2026-07-15T08:48:18.000Z</time>
</trkpt>
<trkpt lat="57.079732" lon="8.552427">
<ele>8.945386</ele>
<time>2026-07-15T08:48:19.000Z</time>
</trkpt>
<trkpt lat="57.079774" lon="8.552485">
<ele>8.965638</ele>
<time>2026-07-15T08:48:20.000Z</time>
</trkpt>
<trkpt lat="57.079812" lon="8.552541">
<ele>8.984415</ele>
<time>2026-07-15T08:48:21.000Z</time>
</trkpt>
<trkpt lat="57.079850" lon="8.552596">
<ele>9.003061</ele>
<time>2026-07-15T08:48:22.000Z</time>
</trkpt>
<trkpt lat="57.079884" lon="8.552649">
<ele>9.018025</ele>
<time>2026-07-15T08:48:23.000Z</time>
</trkpt>
<trkpt lat="57.079922" lon="8.552706">
<ele>9.000981</ele>
<time>2026-07-15T08:48:24.000Z</time>
</trkpt>
<trkpt lat="57.079956" lon="8.552766">
<ele>8.984603</ele>
<time>2026-07-15T08:48:25.000Z</time>
</trkpt>
<trkpt lat="57.079993" lon="8.552826">
<ele>8.967457</ele>
<time>2026-07-15T08:48:26.000Z</time>
</trkpt>
<trkpt lat="57.080033" lon="8.552904">
<ele>8.947194</ele>
<time>2026-07-15T08:48:27.000Z</time>
</trkpt>
<trkpt lat="57.080079" lon="8.552985">
<ele>8.925059</ele>
<time>2026-07-15T08:48:28.000Z</time>
</trkpt>
<trkpt lat="57.080129" lon="8.553061">
<ele>8.902512</ele>
<time>2026-07-15T08:48:29.000Z</time>
</trkpt>
<trkpt lat="57.080178" lon="8.553133">
<ele>8.880712</ele>
<time>2026-07-15T08:48:30.000Z</time>
</trkpt>
<trkpt lat="57.080232" lon="8.553193">
<ele>8.858781</ele>
<time>2026-07-15T08:48:31.000Z</time>
</trkpt>
<trkpt lat="57.080277" lon="8.553245">
<ele>8.840307</ele>
<time>2026-07-15T08:48:32.000Z</time>
</trkpt>
<trkpt lat="57.080319" lon="8.553296">
<ele>8.822813</ele>
<time>2026-07-15T08:48:33.000Z</time>
</trkpt>
<trkpt lat="57.080357" lon="8.553351">
<ele>8.806004</ele>
<time>2026-07-15T08:48:34.000Z</time>
</trkpt>
<trkpt lat="57.080395" lon="8.553419">
<ele>8.787576</ele>
<time>2026-07-15T08:48:35.000Z</time>
</trkpt>
<trkpt lat="57.080434" lon="8.553497">
<ele>8.767551</ele>
<time>2026-07-15T08:48:36.000Z</time>
</trkpt>
<trkpt lat="57.080476" lon="8.553582">
<ele>8.745845</ele>
<time>2026-07-15T08:48:37.000Z</time>
</trkpt>
<trkpt lat="57.080525" lon="8.553671">
<ele>8.721909</ele>
<time>2026-07-15T08:48:38.000Z</time>
</trkpt>
<trkpt lat="57.080575" lon="8.553767">
<ele>8.696786</ele>
<time>2026-07-15T08:48:39.000Z</time>
</trkpt>
<trkpt lat="57.080632" lon="8.553858">
<ele>8.670550</ele>
<time>2026-07-15T08:48:40.000Z</time>
</trkpt>
<trkpt lat="57.080685" lon="8.553939">
<ele>8.646598</ele>
<time>2026-07-15T08:48:41.000Z</time>
</trkpt>
<trkpt lat="57.080739" lon="8.554015">
<ele>8.622962</ele>
<time>2026-07-15T08:48:42.000Z</time>
</trkpt>
<trkpt lat="57.080792" lon="8.554098">
<ele>8.598767</ele>
<time>2026-07-15T08:48:43.000Z</time>
</trkpt>
<trkpt lat="57.080846" lon="8.554185">
<ele>8.573814</ele>
<time>2026-07-15T08:48:44.000Z</time>
</trkpt>
<trkpt lat="57.080903" lon="8.554275">
<ele>8.547702</ele>
<time>2026-07-15T08:48:45.000Z</time>
</trkpt>
<trkpt lat="57.080958" lon="8.554366">
<ele>8.521988</ele>
<time>2026-07-15T08:48:46.000Z</time>
</trkpt>
<trkpt lat="57.081022" lon="8.554460">
<ele>8.493519</ele>
<time>2026-07-15T08:48:47.000Z</time>
</trkpt>
<trkpt lat="57.081086" lon="8.554543">
<ele>8.466298</ele>
<time>2026-07-15T08:48:48.000Z</time>
</trkpt>
<trkpt lat="57.081147" lon="8.554614">
<ele>8.441204</ele>
<time>2026-07-15T08:48:49.000Z</time>
</trkpt>
<trkpt lat="57.081208" lon="8.554671">
<ele>8.417419</ele>
<time>2026-07-15T08:48:50.000Z</time>
</trkpt>
<trkpt lat="57.081265" lon="8.554718">
<ele>8.395704</ele>
<time>2026-07-15T08:48:51.000Z</time>
</trkpt>
<trkpt lat="57.081315" lon="8.554759">
<ele>8.401075</ele>
<time>2026-07-15T08:48:52.000Z</time>
</trkpt>
<trkpt lat="57.081360" lon="8.554803">
<ele>8.408652</ele>
<time>2026-07-15T08:48:53.000Z</time>
</trkpt>
<trkpt lat="57.081402" lon="8.554849">
<ele>8.415918</ele>
<time>2026-07-15T08:48:54.000Z</time>
</trkpt>
<trkpt lat="57.081444" lon="8.554899">
<ele>8.423356</ele>
<time>2026-07-15T08:48:55.000Z</time>
</trkpt>
<trkpt lat="57.081490" lon="8.554957">
<ele>8.431646</ele>
<time>2026-07-15T08:48:56.000Z</time>
</trkpt>
<trkpt lat="57.081536" lon="8.555021">
<ele>8.440220</ele>
<time>2026-07-15T08:48:57.000Z</time>
</trkpt>
<trkpt lat="57.081586" lon="8.555084">
<ele>8.449229</ele>
<time>2026-07-15T08:48:58.000Z</time>
</trkpt>
<trkpt lat="57.081631" lon="8.555144">
<ele>8.457491</ele>
<time>2026-07-15T08:48:59.000Z</time>
</trkpt>
<trkpt lat="57.081681" lon="8.555203">
<ele>8.466322</ele>
<time>2026-07-15T08:49:00.000Z</time>
</trkpt>
<trkpt lat="57.081727" lon="8.555261">
<ele>8.474613</ele>
<time>2026-07-15T08:49:01.000Z</time>
</trkpt>
<trkpt lat="57.081773" lon="8.555314">
<ele>8.482682</ele>
<time>2026-07-15T08:49:02.000Z</time>
</trkpt>
<trkpt lat="57.081822" lon="8.555365">
<ele>8.491052</ele>
<time>2026-07-15T08:49:03.000Z</time>
</trkpt>
<trkpt lat="57.081868" lon="8.555420">
<ele>8.499208</ele>
<time>2026-07-15T08:49:04.000Z</time>
</trkpt>
<trkpt lat="57.081917" lon="8.555479">
<ele>8.507914</ele>
<time>2026-07-15T08:49:05.000Z</time>
</trkpt>
<trkpt lat="57.081965" lon="8.555537">
<ele>8.516451</ele>
<time>2026-07-15T08:49:06.000Z</time>
</trkpt>
<trkpt lat="57.082017" lon="8.555599">
<ele>8.525663</ele>
<time>2026-07-15T08:49:07.000Z</time>
</trkpt>
<trkpt lat="57.082066" lon="8.555659">
<ele>8.534414</ele>
<time>2026-07-15T08:49:08.000Z</time>
</trkpt>
<trkpt lat="57.082116" lon="8.555719">
<ele>8.543289</ele>
<time>2026-07-15T08:49:09.000Z</time>
</trkpt>
<trkpt lat="57.082166" lon="8.555782">
<ele>8.552298</ele>
<time>2026-07-15T08:49:10.000Z</time>
</trkpt>
<trkpt lat="57.082219" lon="8.555844">
<ele>8.561635</ele>
<time>2026-07-15T08:49:11.000Z</time>
</trkpt>
<trkpt lat="57.082269" lon="8.555907">
<ele>8.570645</ele>
<time>2026-07-15T08:49:12.000Z</time>
</trkpt>
<trkpt lat="57.082321" lon="8.555968">
<ele>8.579813</ele>
<time>2026-07-15T08:49:13.000Z</time>
</trkpt>
<trkpt lat="57.082375" lon="8.556029">
<ele>8.589233</ele>
<time>2026-07-15T08:49:14.000Z</time>
</trkpt>
<trkpt lat="57.082425" lon="8.556089">
<ele>8.598108</ele>
<time>2026-07-15T08:49:15.000Z</time>
</trkpt>
<trkpt lat="57.082478" lon="8.556147">
<ele>8.607276</ele>
<time>2026-07-15T08:49:16.000Z</time>
</trkpt>
<trkpt lat="57.082527" lon="8.556209">
<ele>8.616117</ele>
<time>2026-07-15T08:49:17.000Z</time>
</trkpt>
<trkpt lat="57.082578" lon="8.556275">
<ele>8.625387</ele>
<time>2026-07-15T08:49:18.000Z</time>
</trkpt>
<trkpt lat="57.082627" lon="8.556341">
<ele>8.634415</ele>
<time>2026-07-15T08:49:19.000Z</time>
</trkpt>
<trkpt lat="57.082680" lon="8.556413">
<ele>8.644209</ele>
<time>2026-07-15T08:49:20.000Z</time>
</trkpt>
<trkpt lat="57.082734" lon="8.556491">
<ele>8.654416</ele>
<time>2026-07-15T08:49:21.000Z</time>
</trkpt>
<trkpt lat="57.082795" lon="8.556564">
<ele>8.655548</ele>
<time>2026-07-15T08:49:22.000Z</time>
</trkpt>
<trkpt lat="57.082860" lon="8.556631">
<ele>8.640169</ele>
<time>2026-07-15T08:49:23.000Z</time>
</trkpt>
<trkpt lat="57.082924" lon="8.556689">
<ele>8.625442</ele>
<time>2026-07-15T08:49:24.000Z</time>
</trkpt>
<trkpt lat="57.082982" lon="8.556740">
<ele>8.612173</ele>
<time>2026-07-15T08:49:25.000Z</time>
</trkpt>
<trkpt lat="57.083039" lon="8.556787">
<ele>8.599280</ele>
<time>2026-07-15T08:49:26.000Z</time>
</trkpt>
<trkpt lat="57.083088" lon="8.556838">
<ele>8.587659</ele>
<time>2026-07-15T08:49:27.000Z</time>
</trkpt>
<trkpt lat="57.083138" lon="8.556894">
<ele>8.575576</ele>
<time>2026-07-15T08:49:28.000Z</time>
</trkpt>
<trkpt lat="57.083192" lon="8.556952">
<ele>8.562670</ele>
<time>2026-07-15T08:49:29.000Z</time>
</trkpt>
<trkpt lat="57.083241" lon="8.557014">
<ele>8.550394</ele>
<time>2026-07-15T08:49:30.000Z</time>
</trkpt>
<trkpt lat="57.083299" lon="8.557081">
<ele>8.536258</ele>
<time>2026-07-15T08:49:31.000Z</time>
</trkpt>
<trkpt lat="57.083356" lon="8.557151">
<ele>8.522112</ele>
<time>2026-07-15T08:49:32.000Z</time>
</trkpt>
<trkpt lat="57.083416" lon="8.557219">
<ele>8.507567</ele>
<time>2026-07-15T08:49:33.000Z</time>
</trkpt>
<trkpt lat="57.083482" lon="8.557286">
<ele>8.492007</ele>
<time>2026-07-15T08:49:34.000Z</time>
</trkpt>
<trkpt lat="57.083543" lon="8.557351">
<ele>8.477456</ele>
<time>2026-07-15T08:49:35.000Z</time>
</trkpt>
<trkpt lat="57.083605" lon="8.557408">
<ele>8.463150</ele>
<time>2026-07-15T08:49:36.000Z</time>
</trkpt>
<trkpt lat="57.083672" lon="8.557465">
<ele>8.447913</ele>
<time>2026-07-15T08:49:37.000Z</time>
</trkpt>
<trkpt lat="57.083737" lon="8.557512">
<ele>8.433496</ele>
<time>2026-07-15T08:49:38.000Z</time>
</trkpt>
<trkpt lat="57.083798" lon="8.557554">
<ele>8.420052</ele>
<time>2026-07-15T08:49:39.000Z</time>
</trkpt>
<trkpt lat="57.083855" lon="8.557594">
<ele>8.407459</ele>
<time>2026-07-15T08:49:40.000Z</time>
</trkpt>
<trkpt lat="57.083905" lon="8.557634">
<ele>8.396205</ele>
<time>2026-07-15T08:49:41.000Z</time>
</trkpt>
<trkpt lat="57.083952" lon="8.557670">
<ele>8.385696</ele>
<time>2026-07-15T08:49:42.000Z</time>
</trkpt>
<trkpt lat="57.084004" lon="8.557714">
<ele>8.373882</ele>
<time>2026-07-15T08:49:43.000Z</time>
</trkpt>
<trkpt lat="57.084054" lon="8.557756">
<ele>8.362536</ele>
<time>2026-07-15T08:49:44.000Z</time>
</trkpt>
<trkpt lat="57.084103" lon="8.557799">
<ele>8.351330</ele>
<time>2026-07-15T08:49:45.000Z</time>
</trkpt>
<trkpt lat="57.084149" lon="8.557838">
<ele>8.340875</ele>
<time>2026-07-15T08:49:46.000Z</time>
</trkpt>
<trkpt lat="57.084202" lon="8.557888">
<ele>8.328581</ele>
<time>2026-07-15T08:49:47.000Z</time>
</trkpt>
<trkpt lat="57.084252" lon="8.557931">
<ele>8.317188</ele>
<time>2026-07-15T08:49:48.000Z</time>
</trkpt>
<trkpt lat="57.084306" lon="8.557973">
<ele>8.305086</ele>
<time>2026-07-15T08:49:49.000Z</time>
</trkpt>
<trkpt lat="57.084359" lon="8.558016">
<ele>8.293130</ele>
<time>2026-07-15T08:49:50.000Z</time>
</trkpt>
<trkpt lat="57.084412" lon="8.558062">
<ele>8.291175</ele>
<time>2026-07-15T08:49:51.000Z</time>
</trkpt>
<trkpt lat="57.084462" lon="8.558107">
<ele>8.292836</ele>
<time>2026-07-15T08:49:52.000Z</time>
</trkpt>
<trkpt lat="57.084515" lon="8.558152">
<ele>8.294577</ele>
<time>2026-07-15T08:49:53.000Z</time>
</trkpt>
<trkpt lat="57.084569" lon="8.558196">
<ele>8.296340</ele>
<time>2026-07-15T08:49:54.000Z</time>
</trkpt>
<trkpt lat="57.084622" lon="8.558236">
<ele>8.298049</ele>
<time>2026-07-15T08:49:55.000Z</time>
</trkpt>
<trkpt lat="57.084679" lon="8.558274">
<ele>8.299858</ele>
<time>2026-07-15T08:49:56.000Z</time>
</trkpt>
<trkpt lat="57.084737" lon="8.558317">
<ele>8.301724</ele>
<time>2026-07-15T08:49:57.000Z</time>
</trkpt>
<trkpt lat="57.084790" lon="8.558368">
<ele>8.303509</ele>
<time>2026-07-15T08:49:58.000Z</time>
</trkpt>
<trkpt lat="57.084843" lon="8.558419">
<ele>8.305293</ele>
<time>2026-07-15T08:49:59.000Z</time>
</trkpt>
<trkpt lat="57.084901" lon="8.558464">
<ele>8.307172</ele>
<time>2026-07-15T08:50:00.000Z</time>
</trkpt>
<trkpt lat="57.084954" lon="8.558509">
<ele>8.308913</ele>
<time>2026-07-15T08:50:01.000Z</time>
</trkpt>
<trkpt lat="57.085003" lon="8.558547">
<ele>8.310500</ele>
<time>2026-07-15T08:50:02.000Z</time>
</trkpt>
<trkpt lat="57.085037" lon="8.558580">
<ele>8.311647</ele>
<time>2026-07-15T08:50:03.000Z</time>
</trkpt>
<trkpt lat="57.085060" lon="8.558599">
<ele>8.312399</ele>
<time>2026-07-15T08:50:04.000Z</time>
</trkpt>
<trkpt lat="57.085064" lon="8.558608">
<ele>8.312588</ele>
<time>2026-07-15T08:50:54.000Z</time>
</trkpt>
<trkpt lat="57.085080" lon="8.558615">
<ele>8.313079</ele>
<time>2026-07-15T08:50:55.000Z</time>
</trkpt>
<trkpt lat="57.085099" lon="8.558628">
<ele>8.313684</ele>
<time>2026-07-15T08:50:56.000Z</time>
</trkpt>
<trkpt lat="57.085126" lon="8.558647">
<ele>8.314546</ele>
<time>2026-07-15T08:50:57.000Z</time>
</trkpt>
<trkpt lat="57.085160" lon="8.558672">
<ele>8.315639</ele>
<time>2026-07-15T08:50:58.000Z</time>
</trkpt>
<trkpt lat="57.085202" lon="8.558700">
<ele>8.316972</ele>
<time>2026-07-15T08:50:59.000Z</time>
</trkpt>
<trkpt lat="57.085243" lon="8.558728">
<ele>8.318277</ele>
<time>2026-07-15T08:51:00.000Z</time>
</trkpt>
<trkpt lat="57.085285" lon="8.558759">
<ele>8.319627</ele>
<time>2026-07-15T08:51:01.000Z</time>
</trkpt>
<trkpt lat="57.085328" lon="8.558789">
<ele>8.320999</ele>
<time>2026-07-15T08:51:02.000Z</time>
</trkpt>
<trkpt lat="57.085370" lon="8.558813">
<ele>8.322312</ele>
<time>2026-07-15T08:51:03.000Z</time>
</trkpt>
<trkpt lat="57.085408" lon="8.558835">
<ele>8.323500</ele>
<time>2026-07-15T08:51:04.000Z</time>
</trkpt>
<trkpt lat="57.085446" lon="8.558857">
<ele>8.324689</ele>
<time>2026-07-15T08:51:05.000Z</time>
</trkpt>
<trkpt lat="57.085484" lon="8.558885">
<ele>8.325911</ele>
<time>2026-07-15T08:51:06.000Z</time>
</trkpt>
<trkpt lat="57.085526" lon="8.558917">
<ele>8.327267</ele>
<time>2026-07-15T08:51:07.000Z</time>
</trkpt>
<trkpt lat="57.085565" lon="8.558947">
<ele>8.328528</ele>
<time>2026-07-15T08:51:08.000Z</time>
</trkpt>
<trkpt lat="57.085610" lon="8.558977">
<ele>8.329957</ele>
<time>2026-07-15T08:51:09.000Z</time>
</trkpt>
<trkpt lat="57.085656" lon="8.559007">
<ele>8.331413</ele>
<time>2026-07-15T08:51:10.000Z</time>
</trkpt>
<trkpt lat="57.085698" lon="8.559039">
<ele>8.332769</ele>
<time>2026-07-15T08:51:11.000Z</time>
</trkpt>
<trkpt lat="57.085744" lon="8.559074">
<ele>8.334255</ele>
<time>2026-07-15T08:51:12.000Z</time>
</trkpt>
<trkpt lat="57.085789" lon="8.559109">
<ele>8.335713</ele>
<time>2026-07-15T08:51:13.000Z</time>
</trkpt>
<trkpt lat="57.085835" lon="8.559141">
<ele>8.337180</ele>
<time>2026-07-15T08:51:14.000Z</time>
</trkpt>
<trkpt lat="57.085881" lon="8.559170">
<ele>8.338631</ele>
<time>2026-07-15T08:51:15.000Z</time>
</trkpt>
<trkpt lat="57.085931" lon="8.559204">
<ele>8.340222</ele>
<time>2026-07-15T08:51:16.000Z</time>
</trkpt>
<trkpt lat="57.085976" lon="8.559240">
<ele>8.341686</ele>
<time>2026-07-15T08:51:17.000Z</time>
</trkpt>
<trkpt lat="57.086022" lon="8.559279">
<ele>8.343197</ele>
<time>2026-07-15T08:51:18.000Z</time>
</trkpt>
<trkpt lat="57.086071" lon="8.559314">
<ele>8.326627</ele>
<time>2026-07-15T08:51:19.000Z</time>
</trkpt>
<trkpt lat="57.086118" lon="8.559351">
<ele>8.305085</ele>
<time>2026-07-15T08:51:20.000Z</time>
</trkpt>
<trkpt lat="57.086167" lon="8.559386">
<ele>8.282935</ele>
<time>2026-07-15T08:51:21.000Z</time>
</trkpt>
<trkpt lat="57.086217" lon="8.559424">
<ele>8.260139</ele>
<time>2026-07-15T08:51:22.000Z</time>
</trkpt>
<trkpt lat="57.086270" lon="8.559462">
<ele>8.236169</ele>
<time>2026-07-15T08:51:23.000Z</time>
</trkpt>
<trkpt lat="57.086327" lon="8.559500">
<ele>8.210621</ele>
<time>2026-07-15T08:51:24.000Z</time>
</trkpt>
<trkpt lat="57.086380" lon="8.559537">
<ele>8.186733</ele>
<time>2026-07-15T08:51:25.000Z</time>
</trkpt>
<trkpt lat="57.086434" lon="8.559576">
<ele>8.162287</ele>
<time>2026-07-15T08:51:26.000Z</time>
</trkpt>
<trkpt lat="57.086488" lon="8.559616">
<ele>8.137757</ele>
<time>2026-07-15T08:51:27.000Z</time>
</trkpt>
<trkpt lat="57.086541" lon="8.559656">
<ele>8.113617</ele>
<time>2026-07-15T08:51:28.000Z</time>
</trkpt>
<trkpt lat="57.086595" lon="8.559694">
<ele>8.089254</ele>
<time>2026-07-15T08:51:29.000Z</time>
</trkpt>
<trkpt lat="57.086644" lon="8.559732">
<ele>8.066847</ele>
<time>2026-07-15T08:51:30.000Z</time>
</trkpt>
<trkpt lat="57.086694" lon="8.559783">
<ele>8.042756</ele>
<time>2026-07-15T08:51:31.000Z</time>
</trkpt>
<trkpt lat="57.086745" lon="8.559841">
<ele>8.017492</ele>
<time>2026-07-15T08:51:32.000Z</time>
</trkpt>
<trkpt lat="57.086808" lon="8.559906">
<ele>7.987056</ele>
<time>2026-07-15T08:51:33.000Z</time>
</trkpt>
<trkpt lat="57.086877" lon="8.559968">
<ele>7.954698</ele>
<time>2026-07-15T08:51:34.000Z</time>
</trkpt>
<trkpt lat="57.086950" lon="8.560019">
<ele>7.921793</ele>
<time>2026-07-15T08:51:35.000Z</time>
</trkpt>
<trkpt lat="57.087014" lon="8.560053">
<ele>7.893721</ele>
<time>2026-07-15T08:51:36.000Z</time>
</trkpt>
<trkpt lat="57.087075" lon="8.560086">
<ele>7.866927</ele>
<time>2026-07-15T08:51:37.000Z</time>
</trkpt>
<trkpt lat="57.087132" lon="8.560119">
<ele>7.841747</ele>
<time>2026-07-15T08:51:38.000Z</time>
</trkpt>
<trkpt lat="57.087186" lon="8.560151">
<ele>7.817840</ele>
<time>2026-07-15T08:51:39.000Z</time>
</trkpt>
<trkpt lat="57.087239" lon="8.560186">
<ele>7.794111</ele>
<time>2026-07-15T08:51:40.000Z</time>
</trkpt>
<trkpt lat="57.087297" lon="8.560224">
<ele>7.768166</ele>
<time>2026-07-15T08:51:41.000Z</time>
</trkpt>
<trkpt lat="57.087350" lon="8.560265">
<ele>7.743939</ele>
<time>2026-07-15T08:51:42.000Z</time>
</trkpt>
<trkpt lat="57.087407" lon="8.560309">
<ele>7.717891</ele>
<time>2026-07-15T08:51:43.000Z</time>
</trkpt>
<trkpt lat="57.087460" lon="8.560352">
<ele>7.693482</ele>
<time>2026-07-15T08:51:44.000Z</time>
</trkpt>
<trkpt lat="57.087518" lon="8.560399">
<ele>7.666776</ele>
<time>2026-07-15T08:51:45.000Z</time>
</trkpt>
<trkpt lat="57.087575" lon="8.560449">
<ele>7.640167</ele>
<time>2026-07-15T08:51:46.000Z</time>
</trkpt>
<trkpt lat="57.087632" lon="8.560497">
<ele>7.613751</ele>
<time>2026-07-15T08:51:47.000Z</time>
</trkpt>
<trkpt lat="57.087689" lon="8.560546">
<ele>7.587240</ele>
<time>2026-07-15T08:51:48.000Z</time>
</trkpt>
<trkpt lat="57.087743" lon="8.560592">
<ele>7.557692</ele>
<time>2026-07-15T08:51:49.000Z</time>
</trkpt>
<trkpt lat="57.087796" lon="8.560635">
<ele>7.528625</ele>
<time>2026-07-15T08:51:50.000Z</time>
</trkpt>
<trkpt lat="57.087849" lon="8.560681">
<ele>7.499218</ele>
<time>2026-07-15T08:51:51.000Z</time>
</trkpt>
<trkpt lat="57.087907" lon="8.560728">
<ele>7.467415</ele>
<time>2026-07-15T08:51:52.000Z</time>
</trkpt>
<trkpt lat="57.087964" lon="8.560776">
<ele>7.435958</ele>
<time>2026-07-15T08:51:53.000Z</time>
</trkpt>
<trkpt lat="57.088017" lon="8.560824">
<ele>7.406315</ele>
<time>2026-07-15T08:51:54.000Z</time>
</trkpt>
<trkpt lat="57.088079" lon="8.560873">
<ele>7.372454</ele>
<time>2026-07-15T08:51:55.000Z</time>
</trkpt>
<trkpt lat="57.088136" lon="8.560920">
<ele>7.341110</ele>
<time>2026-07-15T08:51:56.000Z</time>
</trkpt>
<trkpt lat="57.088193" lon="8.560965">
<ele>7.309985</ele>
<time>2026-07-15T08:51:57.000Z</time>
</trkpt>
<trkpt lat="57.088250" lon="8.561009">
<ele>7.278966</ele>
<time>2026-07-15T08:51:58.000Z</time>
</trkpt>
<trkpt lat="57.088304" lon="8.561056">
<ele>7.248989</ele>
<time>2026-07-15T08:51:59.000Z</time>
</trkpt>
<trkpt lat="57.088361" lon="8.561108">
<ele>7.217063</ele>
<time>2026-07-15T08:52:00.000Z</time>
</trkpt>
<trkpt lat="57.088414" lon="8.561168">
<ele>7.185837</ele>
<time>2026-07-15T08:52:01.000Z</time>
</trkpt>
<trkpt lat="57.088468" lon="8.561231">
<ele>7.153752</ele>
<time>2026-07-15T08:52:02.000Z</time>
</trkpt>
<trkpt lat="57.088529" lon="8.561300">
<ele>7.117821</ele>
<time>2026-07-15T08:52:03.000Z</time>
</trkpt>
<trkpt lat="57.088594" lon="8.561366">
<ele>7.080567</ele>
<time>2026-07-15T08:52:04.000Z</time>
</trkpt>
<trkpt lat="57.088655" lon="8.561421">
<ele>7.046479</ele>
<time>2026-07-15T08:52:05.000Z</time>
</trkpt>
<trkpt lat="57.088719" lon="8.561473">
<ele>7.011371</ele>
<time>2026-07-15T08:52:06.000Z</time>
</trkpt>
<trkpt lat="57.088785" lon="8.561526">
<ele>6.975234</ele>
<time>2026-07-15T08:52:07.000Z</time>
</trkpt>
<trkpt lat="57.088849" lon="8.561576">
<ele>6.940343</ele>
<time>2026-07-15T08:52:08.000Z</time>
</trkpt>
<trkpt lat="57.088907" lon="8.561626">
<ele>6.908202</ele>
<time>2026-07-15T08:52:09.000Z</time>
</trkpt>
<trkpt lat="57.088967" lon="8.561672">
<ele>6.875584</ele>
<time>2026-07-15T08:52:10.000Z</time>
</trkpt>
<trkpt lat="57.089021" lon="8.561714">
<ele>6.846165</ele>
<time>2026-07-15T08:52:11.000Z</time>
</trkpt>
<trkpt lat="57.089078" lon="8.561756">
<ele>6.815353</ele>
<time>2026-07-15T08:52:12.000Z</time>
</trkpt>
<trkpt lat="57.089131" lon="8.561798">
<ele>6.786395</ele>
<time>2026-07-15T08:52:13.000Z</time>
</trkpt>
<trkpt lat="57.089185" lon="8.561844">
<ele>6.756534</ele>
<time>2026-07-15T08:52:14.000Z</time>
</trkpt>
<trkpt lat="57.089238" lon="8.561893">
<ele>6.726769</ele>
<time>2026-07-15T08:52:15.000Z</time>
</trkpt>
<trkpt lat="57.089295" lon="8.561943">
<ele>6.695082</ele>
<time>2026-07-15T08:52:16.000Z</time>
</trkpt>
<trkpt lat="57.089349" lon="8.561991">
<ele>6.708538</ele>
<time>2026-07-15T08:52:17.000Z</time>
</trkpt>
<trkpt lat="57.089402" lon="8.562042">
<ele>6.751185</ele>
<time>2026-07-15T08:52:18.000Z</time>
</trkpt>
<trkpt lat="57.089455" lon="8.562100">
<ele>6.795155</ele>
<time>2026-07-15T08:52:19.000Z</time>
</trkpt>
<trkpt lat="57.089508" lon="8.562161">
<ele>6.839731</ele>
<time>2026-07-15T08:52:20.000Z</time>
</trkpt>
<trkpt lat="57.089567" lon="8.562233">
<ele>6.890211</ele>
<time>2026-07-15T08:52:21.000Z</time>
</trkpt>
<trkpt lat="57.089631" lon="8.562301">
<ele>6.942908</ele>
<time>2026-07-15T08:52:22.000Z</time>
</trkpt>
<trkpt lat="57.089699" lon="8.562358">
<ele>6.996190</ele>
<time>2026-07-15T08:52:23.000Z</time>
</trkpt>
<trkpt lat="57.089761" lon="8.562404">
<ele>7.043859</ele>
<time>2026-07-15T08:52:24.000Z</time>
</trkpt>
<trkpt lat="57.089818" lon="8.562444">
<ele>7.087360</ele>
<time>2026-07-15T08:52:25.000Z</time>
</trkpt>
<trkpt lat="57.089868" lon="8.562485">
<ele>7.126393</ele>
<time>2026-07-15T08:52:26.000Z</time>
</trkpt>
<trkpt lat="57.089921" lon="8.562530">
<ele>7.168014</ele>
<time>2026-07-15T08:52:27.000Z</time>
</trkpt>
<trkpt lat="57.089967" lon="8.562584">
<ele>7.206921</ele>
<time>2026-07-15T08:52:28.000Z</time>
</trkpt>
<trkpt lat="57.090020" lon="8.562644">
<ele>7.251291</ele>
<time>2026-07-15T08:52:29.000Z</time>
</trkpt>
<trkpt lat="57.090078" lon="8.562704">
<ele>7.298736</ele>
<time>2026-07-15T08:52:30.000Z</time>
</trkpt>
<trkpt lat="57.090135" lon="8.562757">
<ele>7.344275</ele>
<time>2026-07-15T08:52:31.000Z</time>
</trkpt>
<trkpt lat="57.090188" lon="8.562804">
<ele>7.386227</ele>
<time>2026-07-15T08:52:32.000Z</time>
</trkpt>
<trkpt lat="57.090241" lon="8.562851">
<ele>7.428179</ele>
<time>2026-07-15T08:52:33.000Z</time>
</trkpt>
<trkpt lat="57.090291" lon="8.562897">
<ele>7.468039</ele>
<time>2026-07-15T08:52:34.000Z</time>
</trkpt>
<trkpt lat="57.090340" lon="8.562944">
<ele>7.507441</ele>
<time>2026-07-15T08:52:35.000Z</time>
</trkpt>
<trkpt lat="57.090386" lon="8.562993">
<ele>7.545341</ele>
<time>2026-07-15T08:52:36.000Z</time>
</trkpt>
<trkpt lat="57.090435" lon="8.563041">
<ele>7.584923</ele>
<time>2026-07-15T08:52:37.000Z</time>
</trkpt>
<trkpt lat="57.090489" lon="8.563091">
<ele>7.628028</ele>
<time>2026-07-15T08:52:38.000Z</time>
</trkpt>
<trkpt lat="57.090539" lon="8.563139">
<ele>7.668241</ele>
<time>2026-07-15T08:52:39.000Z</time>
</trkpt>
<trkpt lat="57.090589" lon="8.563193">
<ele>7.709581</ele>
<time>2026-07-15T08:52:40.000Z</time>
</trkpt>
<trkpt lat="57.090638" lon="8.563246">
<ele>7.750109</ele>
<time>2026-07-15T08:52:41.000Z</time>
</trkpt>
<trkpt lat="57.090692" lon="8.563297">
<ele>7.793390</ele>
<time>2026-07-15T08:52:42.000Z</time>
</trkpt>
<trkpt lat="57.090741" lon="8.563348">
<ele>7.833531</ele>
<time>2026-07-15T08:52:43.000Z</time>
</trkpt>
<trkpt lat="57.090795" lon="8.563399">
<ele>7.876812</ele>
<time>2026-07-15T08:52:44.000Z</time>
</trkpt>
<trkpt lat="57.090844" lon="8.563451">
<ele>7.917145</ele>
<time>2026-07-15T08:52:45.000Z</time>
</trkpt>
<trkpt lat="57.090898" lon="8.563504">
<ele>7.960785</ele>
<time>2026-07-15T08:52:46.000Z</time>
</trkpt>
<trkpt lat="57.090947" lon="8.563556">
<ele>7.968423</ele>
<time>2026-07-15T08:52:47.000Z</time>
</trkpt>
<trkpt lat="57.090997" lon="8.563609">
<ele>7.971719</ele>
<time>2026-07-15T08:52:48.000Z</time>
</trkpt>
<trkpt lat="57.091050" lon="8.563660">
<ele>7.975135</ele>
<time>2026-07-15T08:52:49.000Z</time>
</trkpt>
<trkpt lat="57.091100" lon="8.563711">
<ele>7.978401</ele>
<time>2026-07-15T08:52:50.000Z</time>
</trkpt>
<trkpt lat="57.091149" lon="8.563763">
<ele>7.981632</ele>
<time>2026-07-15T08:52:51.000Z</time>
</trkpt>
<trkpt lat="57.091199" lon="8.563816">
<ele>7.984927</ele>
<time>2026-07-15T08:52:52.000Z</time>
</trkpt>
<trkpt lat="57.091248" lon="8.563869">
<ele>7.988174</ele>
<time>2026-07-15T08:52:53.000Z</time>
</trkpt>
<trkpt lat="57.091298" lon="8.563923">
<ele>7.991485</ele>
<time>2026-07-15T08:52:54.000Z</time>
</trkpt>
<trkpt lat="57.091347" lon="8.563977">
<ele>7.994748</ele>
<time>2026-07-15T08:52:55.000Z</time>
</trkpt>
<trkpt lat="57.091397" lon="8.564036">
<ele>7.998140</ele>
<time>2026-07-15T08:52:56.000Z</time>
</trkpt>
<trkpt lat="57.091443" lon="8.564098">
<ele>8.001397</ele>
<time>2026-07-15T08:52:57.000Z</time>
</trkpt>
<trkpt lat="57.091496" lon="8.564162">
<ele>8.005018</ele>
<time>2026-07-15T08:52:58.000Z</time>
</trkpt>
<trkpt lat="57.091550" lon="8.564229">
<ele>8.008738</ele>
<time>2026-07-15T08:52:59.000Z</time>
</trkpt>
<trkpt lat="57.091607" lon="8.564296">
<ele>8.012601</ele>
<time>2026-07-15T08:53:00.000Z</time>
</trkpt>
<trkpt lat="57.091664" lon="8.564360">
<ele>8.016415</ele>
<time>2026-07-15T08:53:01.000Z</time>
</trkpt>
<trkpt lat="57.091725" lon="8.564420">
<ele>8.020366</ele>
<time>2026-07-15T08:53:02.000Z</time>
</trkpt>
<trkpt lat="57.091783" lon="8.564478">
<ele>8.024137</ele>
<time>2026-07-15T08:53:03.000Z</time>
</trkpt>
<trkpt lat="57.091844" lon="8.564537">
<ele>8.028073</ele>
<time>2026-07-15T08:53:04.000Z</time>
</trkpt>
<trkpt lat="57.091897" lon="8.564591">
<ele>8.031533</ele>
<time>2026-07-15T08:53:05.000Z</time>
</trkpt>
<trkpt lat="57.091950" lon="8.564641">
<ele>8.034935</ele>
<time>2026-07-15T08:53:06.000Z</time>
</trkpt>
<trkpt lat="57.092000" lon="8.564691">
<ele>8.038185</ele>
<time>2026-07-15T08:53:07.000Z</time>
</trkpt>
<trkpt lat="57.092046" lon="8.564746">
<ele>8.041319</ele>
<time>2026-07-15T08:53:08.000Z</time>
</trkpt>
<trkpt lat="57.092095" lon="8.564808">
<ele>8.044715</ele>
<time>2026-07-15T08:53:09.000Z</time>
</trkpt>
<trkpt lat="57.092145" lon="8.564873">
<ele>8.048212</ele>
<time>2026-07-15T08:53:10.000Z</time>
</trkpt>
<trkpt lat="57.092203" lon="8.564934">
<ele>8.052028</ele>
<time>2026-07-15T08:53:11.000Z</time>
</trkpt>
<trkpt lat="57.092255" lon="8.564993">
<ele>8.055517</ele>
<time>2026-07-15T08:53:12.000Z</time>
</trkpt>
<trkpt lat="57.092309" lon="8.565049">
<ele>8.059058</ele>
<time>2026-07-15T08:53:13.000Z</time>
</trkpt>
<trkpt lat="57.092362" lon="8.565099">
<ele>8.062460</ele>
<time>2026-07-15T08:53:14.000Z</time>
</trkpt>
<trkpt lat="57.092408" lon="8.565145">
<ele>8.065450</ele>
<time>2026-07-15T08:53:15.000Z</time>
</trkpt>
<trkpt lat="57.092458" lon="8.565191">
<ele>8.070930</ele>
<time>2026-07-15T08:53:16.000Z</time>
</trkpt>
<trkpt lat="57.092502" lon="8.565236">
<ele>8.094069</ele>
<time>2026-07-15T08:53:17.000Z</time>
</trkpt>
<trkpt lat="57.092549" lon="8.565292">
<ele>8.119805</ele>
<time>2026-07-15T08:53:18.000Z</time>
</trkpt>
<trkpt lat="57.092595" lon="8.565343">
<ele>8.144491</ele>
<time>2026-07-15T08:53:19.000Z</time>
</trkpt>
<trkpt lat="57.092645" lon="8.565396">
<ele>8.171014</ele>
<time>2026-07-15T08:53:20.000Z</time>
</trkpt>
<trkpt lat="57.092690" lon="8.565446">
<ele>8.195177</ele>
<time>2026-07-15T08:53:21.000Z</time>
</trkpt>
<trkpt lat="57.092735" lon="8.565496">
<ele>8.219340</ele>
<time>2026-07-15T08:53:22.000Z</time>
</trkpt>
<trkpt lat="57.092782" lon="8.565553">
<ele>8.245213</ele>
<time>2026-07-15T08:53:23.000Z</time>
</trkpt>
<trkpt lat="57.092832" lon="8.565611">
<ele>8.272381</ele>
<time>2026-07-15T08:53:24.000Z</time>
</trkpt>
<trkpt lat="57.092881" lon="8.565669">
<ele>8.299161</ele>
<time>2026-07-15T08:53:25.000Z</time>
</trkpt>
<trkpt lat="57.092931" lon="8.565726">
<ele>8.326197</ele>
<time>2026-07-15T08:53:26.000Z</time>
</trkpt>
<trkpt lat="57.092984" lon="8.565784">
<ele>8.354541</ele>
<time>2026-07-15T08:53:27.000Z</time>
</trkpt>
<trkpt lat="57.093038" lon="8.565841">
<ele>8.383156</ele>
<time>2026-07-15T08:53:28.000Z</time>
</trkpt>
<trkpt lat="57.093083" lon="8.565891">
<ele>8.407319</ele>
<time>2026-07-15T08:53:29.000Z</time>
</trkpt>
<trkpt lat="57.093129" lon="8.565936">
<ele>8.431266</ele>
<time>2026-07-15T08:53:30.000Z</time>
</trkpt>
<trkpt lat="57.093175" lon="8.565983">
<ele>8.455451</ele>
<time>2026-07-15T08:53:31.000Z</time>
</trkpt>
<trkpt lat="57.093221" lon="8.566032">
<ele>8.479882</ele>
<time>2026-07-15T08:53:32.000Z</time>
</trkpt>
<trkpt lat="57.093265" lon="8.566087">
<ele>8.504331</ele>
<time>2026-07-15T08:53:33.000Z</time>
</trkpt>
<trkpt lat="57.093316" lon="8.566143">
<ele>8.531630</ele>
<time>2026-07-15T08:53:34.000Z</time>
</trkpt>
<trkpt lat="57.093362" lon="8.566196">
<ele>8.556577</ele>
<time>2026-07-15T08:53:35.000Z</time>
</trkpt>
<trkpt lat="57.093407" lon="8.566258">
<ele>8.582416</ele>
<time>2026-07-15T08:53:36.000Z</time>
</trkpt>
<trkpt lat="57.093461" lon="8.566327">
<ele>8.612634</ele>
<time>2026-07-15T08:53:37.000Z</time>
</trkpt>
<trkpt lat="57.093515" lon="8.566398">
<ele>8.643139</ele>
<time>2026-07-15T08:53:38.000Z</time>
</trkpt>
<trkpt lat="57.093576" lon="8.566470">
<ele>8.676450</ele>
<time>2026-07-15T08:53:39.000Z</time>
</trkpt>
<trkpt lat="57.093636" lon="8.566533">
<ele>8.708204</ele>
<time>2026-07-15T08:53:40.000Z</time>
</trkpt>
<trkpt lat="57.093697" lon="8.566594">
<ele>8.740115</ele>
<time>2026-07-15T08:53:41.000Z</time>
</trkpt>
<trkpt lat="57.093759" lon="8.566648">
<ele>8.771646</ele>
<time>2026-07-15T08:53:42.000Z</time>
</trkpt>
<trkpt lat="57.093812" lon="8.566698">
<ele>8.799023</ele>
<time>2026-07-15T08:53:43.000Z</time>
</trkpt>
<trkpt lat="57.093861" lon="8.566743">
<ele>8.824195</ele>
<time>2026-07-15T08:53:44.000Z</time>
</trkpt>
<trkpt lat="57.093911" lon="8.566793">
<ele>8.850353</ele>
<time>2026-07-15T08:53:45.000Z</time>
</trkpt>
<trkpt lat="57.093957" lon="8.566844">
<ele>8.875038</ele>
<time>2026-07-15T08:53:46.000Z</time>
</trkpt>
<trkpt lat="57.094002" lon="8.566895">
<ele>8.892842</ele>
<time>2026-07-15T08:53:47.000Z</time>
</trkpt>
<trkpt lat="57.094052" lon="8.566946">
<ele>8.878464</ele>
<time>2026-07-15T08:53:48.000Z</time>
</trkpt>
<trkpt lat="57.094098" lon="8.566996">
<ele>8.865028</ele>
<time>2026-07-15T08:53:49.000Z</time>
</trkpt>
<trkpt lat="57.094148" lon="8.567047">
<ele>8.850650</ele>
<time>2026-07-15T08:53:50.000Z</time>
</trkpt>
<trkpt lat="57.094197" lon="8.567099">
<ele>8.836424</ele>
<time>2026-07-15T08:53:51.000Z</time>
</trkpt>
<trkpt lat="57.094247" lon="8.567156">
<ele>8.821632</ele>
<time>2026-07-15T08:53:52.000Z</time>
</trkpt>
<trkpt lat="57.094296" lon="8.567213">
<ele>8.807052</ele>
<time>2026-07-15T08:53:53.000Z</time>
</trkpt>
<trkpt lat="57.094346" lon="8.567268">
<ele>8.792402</ele>
<time>2026-07-15T08:53:54.000Z</time>
</trkpt>
<trkpt lat="57.094395" lon="8.567323">
<ele>8.777967</ele>
<time>2026-07-15T08:53:55.000Z</time>
</trkpt>
<trkpt lat="57.094445" lon="8.567378">
<ele>8.763317</ele>
<time>2026-07-15T08:53:56.000Z</time>
</trkpt>
<trkpt lat="57.094499" lon="8.567434">
<ele>8.747728</ele>
<time>2026-07-15T08:53:57.000Z</time>
</trkpt>
<trkpt lat="57.094548" lon="8.567490">
<ele>8.733221</ele>
<time>2026-07-15T08:53:58.000Z</time>
</trkpt>
<trkpt lat="57.094605" lon="8.567550">
<ele>8.716706</ele>
<time>2026-07-15T08:53:59.000Z</time>
</trkpt>
<trkpt lat="57.094658" lon="8.567612">
<ele>8.700911</ele>
<time>2026-07-15T08:54:00.000Z</time>
</trkpt>
<trkpt lat="57.094712" lon="8.567669">
<ele>8.685254</ele>
<time>2026-07-15T08:54:01.000Z</time>
</trkpt>
<trkpt lat="57.094762" lon="8.567724">
<ele>8.670604</ele>
<time>2026-07-15T08:54:02.000Z</time>
</trkpt>
<trkpt lat="57.094811" lon="8.567779">
<ele>8.656169</ele>
<time>2026-07-15T08:54:03.000Z</time>
</trkpt>
<trkpt lat="57.094864" lon="8.567833">
<ele>8.640933</ele>
<time>2026-07-15T08:54:04.000Z</time>
</trkpt>
<trkpt lat="57.094914" lon="8.567889">
<ele>8.626212</ele>
<time>2026-07-15T08:54:05.000Z</time>
</trkpt>
<trkpt lat="57.094966" lon="8.567942">
<ele>8.611262</ele>
<time>2026-07-15T08:54:06.000Z</time>
</trkpt>
<trkpt lat="57.095017" lon="8.567998">
<ele>8.596326</ele>
<time>2026-07-15T08:54:07.000Z</time>
</trkpt>
<trkpt lat="57.095071" lon="8.568052">
<ele>8.580869</ele>
<time>2026-07-15T08:54:08.000Z</time>
</trkpt>
<trkpt lat="57.095121" lon="8.568110">
<ele>8.566004</ele>
<time>2026-07-15T08:54:09.000Z</time>
</trkpt>
<trkpt lat="57.095166" lon="8.568166">
<ele>8.552342</ele>
<time>2026-07-15T08:54:10.000Z</time>
</trkpt>
<trkpt lat="57.095216" lon="8.568224">
<ele>8.537477</ele>
<time>2026-07-15T08:54:11.000Z</time>
</trkpt>
<trkpt lat="57.095269" lon="8.568279">
<ele>8.522174</ele>
<time>2026-07-15T08:54:12.000Z</time>
</trkpt>
<trkpt lat="57.095318" lon="8.568334">
<ele>8.507739</ele>
<time>2026-07-15T08:54:13.000Z</time>
</trkpt>
<trkpt lat="57.095368" lon="8.568393">
<ele>8.492801</ele>
<time>2026-07-15T08:54:14.000Z</time>
</trkpt>
<trkpt lat="57.095422" lon="8.568451">
<ele>8.477076</ele>
<time>2026-07-15T08:54:15.000Z</time>
</trkpt>
<trkpt lat="57.095475" lon="8.568511">
<ele>8.461427</ele>
<time>2026-07-15T08:54:16.000Z</time>
</trkpt>
<trkpt lat="57.095525" lon="8.568571">
<ele>8.446415</ele>
<time>2026-07-15T08:54:17.000Z</time>
</trkpt>
<trkpt lat="57.095574" lon="8.568636">
<ele>8.440733</ele>
<time>2026-07-15T08:54:18.000Z</time>
</trkpt>
<trkpt lat="57.095627" lon="8.568707">
<ele>8.437858</ele>
<time>2026-07-15T08:54:19.000Z</time>
</trkpt>
<trkpt lat="57.095681" lon="8.568788">
<ele>8.434801</ele>
<time>2026-07-15T08:54:20.000Z</time>
</trkpt>
<trkpt lat="57.095738" lon="8.568877">
<ele>8.431522</ele>
<time>2026-07-15T08:54:21.000Z</time>
</trkpt>
<trkpt lat="57.095799" lon="8.568968">
<ele>8.428077</ele>
<time>2026-07-15T08:54:22.000Z</time>
</trkpt>
<trkpt lat="57.095868" lon="8.569051">
<ele>8.424461</ele>
<time>2026-07-15T08:54:23.000Z</time>
</trkpt>
<trkpt lat="57.095937" lon="8.569124">
<ele>8.420969</ele>
<time>2026-07-15T08:54:24.000Z</time>
</trkpt>
<trkpt lat="57.096006" lon="8.569189">
<ele>8.417569</ele>
<time>2026-07-15T08:54:25.000Z</time>
</trkpt>
<trkpt lat="57.096067" lon="8.569249">
<ele>8.414534</ele>
<time>2026-07-15T08:54:26.000Z</time>
</trkpt>
<trkpt lat="57.096127" lon="8.569309">
<ele>8.411539</ele>
<time>2026-07-15T08:54:27.000Z</time>
</trkpt>
<trkpt lat="57.096189" lon="8.569374">
<ele>8.408408</ele>
<time>2026-07-15T08:54:28.000Z</time>
</trkpt>
<trkpt lat="57.096250" lon="8.569441">
<ele>8.405292</ele>
<time>2026-07-15T08:54:29.000Z</time>
</trkpt>
<trkpt lat="57.096314" lon="8.569505">
<ele>8.402096</ele>
<time>2026-07-15T08:54:30.000Z</time>
</trkpt>
<trkpt lat="57.096376" lon="8.569561">
<ele>8.399066</ele>
<time>2026-07-15T08:54:31.000Z</time>
</trkpt>
<trkpt lat="57.096433" lon="8.569612">
<ele>8.396286</ele>
<time>2026-07-15T08:54:32.000Z</time>
</trkpt>
<trkpt lat="57.096493" lon="8.569661">
<ele>8.393406</ele>
<time>2026-07-15T08:54:33.000Z</time>
</trkpt>
<trkpt lat="57.096547" lon="8.569705">
<ele>8.390815</ele>
<time>2026-07-15T08:54:34.000Z</time>
</trkpt>
<trkpt lat="57.096597" lon="8.569751">
<ele>8.388363</ele>
<time>2026-07-15T08:54:35.000Z</time>
</trkpt>
<trkpt lat="57.096643" lon="8.569798">
<ele>8.386055</ele>
<time>2026-07-15T08:54:36.000Z</time>
</trkpt>
<trkpt lat="57.096692" lon="8.569848">
<ele>8.383597</ele>
<time>2026-07-15T08:54:37.000Z</time>
</trkpt>
<trkpt lat="57.096742" lon="8.569900">
<ele>8.381077</ele>
<time>2026-07-15T08:54:38.000Z</time>
</trkpt>
<trkpt lat="57.096787" lon="8.569954">
<ele>8.378720</ele>
<time>2026-07-15T08:54:39.000Z</time>
</trkpt>
<trkpt lat="57.096837" lon="8.570007">
<ele>8.376189</ele>
<time>2026-07-15T08:54:40.000Z</time>
</trkpt>
<trkpt lat="57.096882" lon="8.570060">
<ele>8.373845</ele>
<time>2026-07-15T08:54:41.000Z</time>
</trkpt>
<trkpt lat="57.096931" lon="8.570115">
<ele>8.371327</ele>
<time>2026-07-15T08:54:42.000Z</time>
</trkpt>
<trkpt lat="57.096978" lon="8.570174">
<ele>8.368831</ele>
<time>2026-07-15T08:54:43.000Z</time>
</trkpt>
<trkpt lat="57.097028" lon="8.570239">
<ele>8.366146</ele>
<time>2026-07-15T08:54:44.000Z</time>
</trkpt>
<trkpt lat="57.097081" lon="8.570311">
<ele>8.359908</ele>
<time>2026-07-15T08:54:45.000Z</time>
</trkpt>
<trkpt lat="57.097142" lon="8.570386">
<ele>8.337919</ele>
<time>2026-07-15T08:54:46.000Z</time>
</trkpt>
<trkpt lat="57.097203" lon="8.570464">
<ele>8.315655</ele>
<time>2026-07-15T08:54:47.000Z</time>
</trkpt>
<trkpt lat="57.097272" lon="8.570538">
<ele>8.291717</ele>
<time>2026-07-15T08:54:48.000Z</time>
</trkpt>
<trkpt lat="57.097340" lon="8.570595">
<ele>8.269319</ele>
<time>2026-07-15T08:54:49.000Z</time>
</trkpt>
<trkpt lat="57.097405" lon="8.570642">
<ele>8.248385</ele>
<time>2026-07-15T08:54:50.000Z</time>
</trkpt>
<trkpt lat="57.097459" lon="8.570684">
<ele>8.230813</ele>
<time>2026-07-15T08:54:51.000Z</time>
</trkpt>
<trkpt lat="57.097504" lon="8.570729">
<ele>8.215461</ele>
<time>2026-07-15T08:54:52.000Z</time>
</trkpt>
<trkpt lat="57.097550" lon="8.570779">
<ele>8.199448</ele>
<time>2026-07-15T08:54:53.000Z</time>
</trkpt>
<trkpt lat="57.097596" lon="8.570832">
<ele>8.183181</ele>
<time>2026-07-15T08:54:54.000Z</time>
</trkpt>
<trkpt lat="57.097646" lon="8.570890">
<ele>8.165465</ele>
<time>2026-07-15T08:54:55.000Z</time>
</trkpt>
<trkpt lat="57.097695" lon="8.570944">
<ele>8.148346</ele>
<time>2026-07-15T08:54:56.000Z</time>
</trkpt>
<trkpt lat="57.097745" lon="8.571001">
<ele>8.130716</ele>
<time>2026-07-15T08:54:57.000Z</time>
</trkpt>
<trkpt lat="57.097794" lon="8.571057">
<ele>8.113427</ele>
<time>2026-07-15T08:54:58.000Z</time>
</trkpt>
<trkpt lat="57.097843" lon="8.571117">
<ele>8.095786</ele>
<time>2026-07-15T08:54:59.000Z</time>
</trkpt>
<trkpt lat="57.097897" lon="8.571184">
<ele>8.076266</ele>
<time>2026-07-15T08:55:00.000Z</time>
</trkpt>
<trkpt lat="57.097951" lon="8.571253">
<ele>8.056561</ele>
<time>2026-07-15T08:55:01.000Z</time>
</trkpt>
<trkpt lat="57.098008" lon="8.571325">
<ele>8.035839</ele>
<time>2026-07-15T08:55:02.000Z</time>
</trkpt>
<trkpt lat="57.098069" lon="8.571394">
<ele>8.014377</ele>
<time>2026-07-15T08:55:03.000Z</time>
</trkpt>
<trkpt lat="57.098123" lon="8.571461">
<ele>7.994857</ele>
<time>2026-07-15T08:55:04.000Z</time>
</trkpt>
<trkpt lat="57.098180" lon="8.571523">
<ele>7.975010</ele>
<time>2026-07-15T08:55:05.000Z</time>
</trkpt>
<trkpt lat="57.098237" lon="8.571585">
<ele>7.955164</ele>
<time>2026-07-15T08:55:06.000Z</time>
</trkpt>
<trkpt lat="57.098291" lon="8.571650">
<ele>7.935824</ele>
<time>2026-07-15T08:55:07.000Z</time>
</trkpt>
<trkpt lat="57.098348" lon="8.571718">
<ele>7.915463</ele>
<time>2026-07-15T08:55:08.000Z</time>
</trkpt>
<trkpt lat="57.098405" lon="8.571791">
<ele>7.894648</ele>
<time>2026-07-15T08:55:09.000Z</time>
</trkpt>
<trkpt lat="57.098466" lon="8.571865">
<ele>7.872749</ele>
<time>2026-07-15T08:55:10.000Z</time>
</trkpt>
<trkpt lat="57.098530" lon="8.571935">
<ele>7.850434</ele>
<time>2026-07-15T08:55:11.000Z</time>
</trkpt>
<trkpt lat="57.098592" lon="8.572003">
<ele>7.828800</ele>
<time>2026-07-15T08:55:12.000Z</time>
</trkpt>
<trkpt lat="57.098645" lon="8.572055">
<ele>7.860741</ele>
<time>2026-07-15T08:55:13.000Z</time>
</trkpt>
<trkpt lat="57.098699" lon="8.572104">
<ele>7.907721</ele>
<time>2026-07-15T08:55:14.000Z</time>
</trkpt>
<trkpt lat="57.098751" lon="8.572153">
<ele>7.953305</ele>
<time>2026-07-15T08:55:15.000Z</time>
</trkpt>
<trkpt lat="57.098796" lon="8.572207">
<ele>7.995222</ele>
<time>2026-07-15T08:55:16.000Z</time>
</trkpt>
<trkpt lat="57.098847" lon="8.572270">
<ele>8.043149</ele>
<time>2026-07-15T08:55:17.000Z</time>
</trkpt>
<trkpt lat="57.098901" lon="8.572332">
<ele>8.092811</ele>
<time>2026-07-15T08:55:18.000Z</time>
</trkpt>
<trkpt lat="57.098954" lon="8.572392">
<ele>8.141363</ele>
<time>2026-07-15T08:55:19.000Z</time>
</trkpt>
<trkpt lat="57.099012" lon="8.572451">
<ele>8.193073</ele>
<time>2026-07-15T08:55:20.000Z</time>
</trkpt>
<trkpt lat="57.099065" lon="8.572504">
<ele>8.240139</ele>
<time>2026-07-15T08:55:21.000Z</time>
</trkpt>
<trkpt lat="57.099118" lon="8.572555">
<ele>8.286806</ele>
<time>2026-07-15T08:55:22.000Z</time>
</trkpt>
<trkpt lat="57.099168" lon="8.572605">
<ele>8.331208</ele>
<time>2026-07-15T08:55:23.000Z</time>
</trkpt>
<trkpt lat="57.099217" lon="8.572657">
<ele>8.375343</ele>
<time>2026-07-15T08:55:24.000Z</time>
</trkpt>
<trkpt lat="57.099271" lon="8.572713">
<ele>8.423707</ele>
<time>2026-07-15T08:55:25.000Z</time>
</trkpt>
<trkpt lat="57.099325" lon="8.572767">
<ele>8.471661</ele>
<time>2026-07-15T08:55:26.000Z</time>
</trkpt>
<trkpt lat="57.099378" lon="8.572820">
<ele>8.518727</ele>
<time>2026-07-15T08:55:27.000Z</time>
</trkpt>
<trkpt lat="57.099427" lon="8.572871">
<ele>8.562652</ele>
<time>2026-07-15T08:55:28.000Z</time>
</trkpt>
<trkpt lat="57.099477" lon="8.572921">
<ele>8.607054</ele>
<time>2026-07-15T08:55:29.000Z</time>
</trkpt>
<trkpt lat="57.099526" lon="8.572969">
<ele>8.650366</ele>
<time>2026-07-15T08:55:30.000Z</time>
</trkpt>
<trkpt lat="57.099576" lon="8.573019">
<ele>8.694768</ele>
<time>2026-07-15T08:55:31.000Z</time>
</trkpt>
<trkpt lat="57.099622" lon="8.573073">
<ele>8.737341</ele>
<time>2026-07-15T08:55:32.000Z</time>
</trkpt>
<trkpt lat="57.099667" lon="8.573125">
<ele>8.778800</ele>
<time>2026-07-15T08:55:33.000Z</time>
</trkpt>
<trkpt lat="57.099721" lon="8.573179">
<ele>8.826754</ele>
<time>2026-07-15T08:55:34.000Z</time>
</trkpt>
<trkpt lat="57.099769" lon="8.573234">
<ele>8.870873</ele>
<time>2026-07-15T08:55:35.000Z</time>
</trkpt>
<trkpt lat="57.099819" lon="8.573293">
<ele>8.917217</ele>
<time>2026-07-15T08:55:36.000Z</time>
</trkpt>
<trkpt lat="57.099870" lon="8.573351">
<ele>8.963996</ele>
<time>2026-07-15T08:55:37.000Z</time>
</trkpt>
<trkpt lat="57.099919" lon="8.573407">
<ele>9.009001</ele>
<time>2026-07-15T08:55:38.000Z</time>
</trkpt>
<trkpt lat="57.099969" lon="8.573463">
<ele>9.054671</ele>
<time>2026-07-15T08:55:39.000Z</time>
</trkpt>
<trkpt lat="57.100019" lon="8.573514">
<ele>9.099277</ele>
<time>2026-07-15T08:55:40.000Z</time>
</trkpt>
<trkpt lat="57.100064" lon="8.573565">
<ele>9.140512</ele>
<time>2026-07-15T08:55:41.000Z</time>
</trkpt>
<trkpt lat="57.100110" lon="8.573616">
<ele>9.182415</ele>
<time>2026-07-15T08:55:42.000Z</time>
</trkpt>
<trkpt lat="57.100155" lon="8.573662">
<ele>9.222580</ele>
<time>2026-07-15T08:55:43.000Z</time>
</trkpt>
<trkpt lat="57.100201" lon="8.573711">
<ele>9.233568</ele>
<time>2026-07-15T08:55:44.000Z</time>
</trkpt>
<trkpt lat="57.100247" lon="8.573763">
<ele>9.239853</ele>
<time>2026-07-15T08:55:45.000Z</time>
</trkpt>
<trkpt lat="57.100293" lon="8.573819">
<ele>9.246275</ele>
<time>2026-07-15T08:55:46.000Z</time>
</trkpt>
<trkpt lat="57.100342" lon="8.573870">
<ele>9.252829</ele>
<time>2026-07-15T08:55:47.000Z</time>
</trkpt>
<trkpt lat="57.100388" lon="8.573922">
<ele>9.259114</ele>
<time>2026-07-15T08:55:48.000Z</time>
</trkpt>
<trkpt lat="57.100437" lon="8.573977">
<ele>9.265797</ele>
<time>2026-07-15T08:55:49.000Z</time>
</trkpt>
<trkpt lat="57.100488" lon="8.574029">
<ele>9.272585</ele>
<time>2026-07-15T08:55:50.000Z</time>
</trkpt>
<trkpt lat="57.100537" lon="8.574081">
<ele>9.279170</ele>
<time>2026-07-15T08:55:51.000Z</time>
</trkpt>
<trkpt lat="57.100578" lon="8.574132">
<ele>9.284932</ele>
<time>2026-07-15T08:55:52.000Z</time>
</trkpt>
<trkpt lat="57.100629" lon="8.574185">
<ele>9.291751</ele>
<time>2026-07-15T08:55:53.000Z</time>
</trkpt>
<trkpt lat="57.100674" lon="8.574236">
<ele>9.297904</ele>
<time>2026-07-15T08:55:54.000Z</time>
</trkpt>
<trkpt lat="57.100724" lon="8.574289">
<ele>9.304622</ele>
<time>2026-07-15T08:55:55.000Z</time>
</trkpt>
<trkpt lat="57.100774" lon="8.574346">
<ele>9.311470</ele>
<time>2026-07-15T08:55:56.000Z</time>
</trkpt>
<trkpt lat="57.100827" lon="8.574403">
<ele>9.318617</ele>
<time>2026-07-15T08:55:57.000Z</time>
</trkpt>
<trkpt lat="57.100876" lon="8.574459">
<ele>9.325332</ele>
<time>2026-07-15T08:55:58.000Z</time>
</trkpt>
<trkpt lat="57.100930" lon="8.574515">
<ele>9.332549</ele>
<time>2026-07-15T08:55:59.000Z</time>
</trkpt>
<trkpt lat="57.100980" lon="8.574571">
<ele>9.339364</ele>
<time>2026-07-15T08:56:00.000Z</time>
</trkpt>
<trkpt lat="57.101029" lon="8.574628">
<ele>9.346113</ele>
<time>2026-07-15T08:56:01.000Z</time>
</trkpt>
<trkpt lat="57.101082" lon="8.574682">
<ele>9.353166</ele>
<time>2026-07-15T08:56:02.000Z</time>
</trkpt>
<trkpt lat="57.101133" lon="8.574740">
<ele>9.360146</ele>
<time>2026-07-15T08:56:03.000Z</time>
</trkpt>
<trkpt lat="57.101185" lon="8.574795">
<ele>9.367129</ele>
<time>2026-07-15T08:56:04.000Z</time>
</trkpt>
<trkpt lat="57.101235" lon="8.574851">
<ele>9.373943</ele>
<time>2026-07-15T08:56:05.000Z</time>
</trkpt>
<trkpt lat="57.101285" lon="8.574907">
<ele>9.380758</ele>
<time>2026-07-15T08:56:06.000Z</time>
</trkpt>
<trkpt lat="57.101334" lon="8.574963">
<ele>9.387473</ele>
<time>2026-07-15T08:56:07.000Z</time>
</trkpt>
<trkpt lat="57.101380" lon="8.575016">
<ele>9.393792</ele>
<time>2026-07-15T08:56:08.000Z</time>
</trkpt>
<trkpt lat="57.101430" lon="8.575067">
<ele>9.400448</ele>
<time>2026-07-15T08:56:09.000Z</time>
</trkpt>
<trkpt lat="57.101476" lon="8.575118">
<ele>9.406700</ele>
<time>2026-07-15T08:56:10.000Z</time>
</trkpt>
<trkpt lat="57.101525" lon="8.575167">
<ele>9.413193</ele>
<time>2026-07-15T08:56:11.000Z</time>
</trkpt>
<trkpt lat="57.101573" lon="8.575218">
<ele>9.419646</ele>
<time>2026-07-15T08:56:12.000Z</time>
</trkpt>
<trkpt lat="57.101621" lon="8.575270">
<ele>9.426131</ele>
<time>2026-07-15T08:56:13.000Z</time>
</trkpt>
<trkpt lat="57.101667" lon="8.575321">
<ele>9.432383</ele>
<time>2026-07-15T08:56:14.000Z</time>
</trkpt>
<trkpt lat="57.101716" lon="8.575375">
<ele>9.435957</ele>
<time>2026-07-15T08:56:15.000Z</time>
</trkpt>
<trkpt lat="57.101762" lon="8.575429">
<ele>9.428135</ele>
<time>2026-07-15T08:56:16.000Z</time>
</trkpt>
<trkpt lat="57.101808" lon="8.575486">
<ele>9.420184</ele>
<time>2026-07-15T08:56:17.000Z</time>
</trkpt>
<trkpt lat="57.101857" lon="8.575544">
<ele>9.411830</ele>
<time>2026-07-15T08:56:18.000Z</time>
</trkpt>
<trkpt lat="57.101907" lon="8.575602">
<ele>9.403356</ele>
<time>2026-07-15T08:56:19.000Z</time>
</trkpt>
<trkpt lat="57.101957" lon="8.575660">
<ele>9.394882</ele>
<time>2026-07-15T08:56:20.000Z</time>
</trkpt>
<trkpt lat="57.102006" lon="8.575712">
<ele>9.386772</ele>
<time>2026-07-15T08:56:21.000Z</time>
</trkpt>
<trkpt lat="57.102055" lon="8.575766">
<ele>9.378583</ele>
<time>2026-07-15T08:56:22.000Z</time>
</trkpt>
<trkpt lat="57.102102" lon="8.575821">
<ele>9.370598</ele>
<time>2026-07-15T08:56:23.000Z</time>
</trkpt>
<trkpt lat="57.102149" lon="8.575871">
<ele>9.362814</ele>
<time>2026-07-15T08:56:24.000Z</time>
</trkpt>
<trkpt lat="57.102196" lon="8.575924">
<ele>9.354911</ele>
<time>2026-07-15T08:56:25.000Z</time>
</trkpt>
<trkpt lat="57.102242" lon="8.575976">
<ele>9.347171</ele>
<time>2026-07-15T08:56:26.000Z</time>
</trkpt>
<trkpt lat="57.102288" lon="8.576031">
<ele>9.339306</ele>
<time>2026-07-15T08:56:27.000Z</time>
</trkpt>
<trkpt lat="57.102338" lon="8.576086">
<ele>9.330954</ele>
<time>2026-07-15T08:56:28.000Z</time>
</trkpt>
<trkpt lat="57.102388" lon="8.576142">
<ele>9.322562</ele>
<time>2026-07-15T08:56:29.000Z</time>
</trkpt>
<trkpt lat="57.102437" lon="8.576198">
<ele>9.314292</ele>
<time>2026-07-15T08:56:30.000Z</time>
</trkpt>
<trkpt lat="57.102486" lon="8.576256">
<ele>9.305939</ele>
<time>2026-07-15T08:56:31.000Z</time>
</trkpt>
<trkpt lat="57.102536" lon="8.576316">
<ele>9.297381</ele>
<time>2026-07-15T08:56:32.000Z</time>
</trkpt>
<trkpt lat="57.102590" lon="8.576376">
<ele>9.288336</ele>
<time>2026-07-15T08:56:33.000Z</time>
</trkpt>
<trkpt lat="57.102639" lon="8.576436">
<ele>9.279898</ele>
<time>2026-07-15T08:56:34.000Z</time>
</trkpt>
<trkpt lat="57.102692" lon="8.576494">
<ele>9.271057</ele>
<time>2026-07-15T08:56:35.000Z</time>
</trkpt>
<trkpt lat="57.102746" lon="8.576547">
<ele>9.262282</ele>
<time>2026-07-15T08:56:36.000Z</time>
</trkpt>
<trkpt lat="57.102799" lon="8.576596">
<ele>9.253778</ele>
<time>2026-07-15T08:56:37.000Z</time>
</trkpt>
<trkpt lat="57.102852" lon="8.576644">
<ele>9.245309</ele>
<time>2026-07-15T08:56:38.000Z</time>
</trkpt>
<trkpt lat="57.102902" lon="8.576692">
<ele>9.237223</ele>
<time>2026-07-15T08:56:39.000Z</time>
</trkpt>
<trkpt lat="57.102956" lon="8.576742">
<ele>9.228555</ele>
<time>2026-07-15T08:56:40.000Z</time>
</trkpt>
<trkpt lat="57.103006" lon="8.576796">
<ele>9.220243</ele>
<time>2026-07-15T08:56:41.000Z</time>
</trkpt>
<trkpt lat="57.103055" lon="8.576849">
<ele>9.212094</ele>
<time>2026-07-15T08:56:42.000Z</time>
</trkpt>
<trkpt lat="57.103101" lon="8.576901">
<ele>9.204354</ele>
<time>2026-07-15T08:56:43.000Z</time>
</trkpt>
<trkpt lat="57.103154" lon="8.576953">
<ele>9.195742</ele>
<time>2026-07-15T08:56:44.000Z</time>
</trkpt>
<trkpt lat="57.103204" lon="8.577010">
<ele>9.187310</ele>
<time>2026-07-15T08:56:45.000Z</time>
</trkpt>
<trkpt lat="57.103255" lon="8.577064">
<ele>9.178083</ele>
<time>2026-07-15T08:56:46.000Z</time>
</trkpt>
<trkpt lat="57.103307" lon="8.577121">
<ele>9.161484</ele>
<time>2026-07-15T08:56:47.000Z</time>
</trkpt>
<trkpt lat="57.103356" lon="8.577178">
<ele>9.145586</ele>
<time>2026-07-15T08:56:48.000Z</time>
</trkpt>
<trkpt lat="57.103405" lon="8.577234">
<ele>9.129768</ele>
<time>2026-07-15T08:56:49.000Z</time>
</trkpt>
<trkpt lat="57.103460" lon="8.577291">
<ele>9.112456</ele>
<time>2026-07-15T08:56:50.000Z</time>
</trkpt>
<trkpt lat="57.103513" lon="8.577348">
<ele>9.095621</ele>
<time>2026-07-15T08:56:51.000Z</time>
</trkpt>
<trkpt lat="57.103562" lon="8.577403">
<ele>9.079880</ele>
<time>2026-07-15T08:56:52.000Z</time>
</trkpt>
<trkpt lat="57.103616" lon="8.577458">
<ele>9.062954</ele>
<time>2026-07-15T08:56:53.000Z</time>
</trkpt>
<trkpt lat="57.103665" lon="8.577514">
<ele>9.047135</ele>
<time>2026-07-15T08:56:54.000Z</time>
</trkpt>
<trkpt lat="57.103719" lon="8.577569">
<ele>9.030209</ele>
<time>2026-07-15T08:56:55.000Z</time>
</trkpt>
<trkpt lat="57.103768" lon="8.577626">
<ele>9.014311</ele>
<time>2026-07-15T08:56:56.000Z</time>
</trkpt>
<trkpt lat="57.103818" lon="8.577683">
<ele>8.998181</ele>
<time>2026-07-15T08:56:57.000Z</time>
</trkpt>
<trkpt lat="57.103871" lon="8.577740">
<ele>8.981346</ele>
<time>2026-07-15T08:56:58.000Z</time>
</trkpt>
<trkpt lat="57.103921" lon="8.577796">
<ele>8.965293</ele>
<time>2026-07-15T08:56:59.000Z</time>
</trkpt>
<trkpt lat="57.103974" lon="8.577853">
<ele>8.948458</ele>
<time>2026-07-15T08:57:00.000Z</time>
</trkpt>
<trkpt lat="57.104023" lon="8.577911">
<ele>8.932480</ele>
<time>2026-07-15T08:57:01.000Z</time>
</trkpt>
<trkpt lat="57.104074" lon="8.577968">
<ele>8.916116</ele>
<time>2026-07-15T08:57:02.000Z</time>
</trkpt>
<trkpt lat="57.104127" lon="8.578021">
<ele>8.899574</ele>
<time>2026-07-15T08:57:03.000Z</time>
</trkpt>
<trkpt lat="57.104177" lon="8.578077">
<ele>8.883521</ele>
<time>2026-07-15T08:57:04.000Z</time>
</trkpt>
<trkpt lat="57.104230" lon="8.578135">
<ele>8.866610</ele>
<time>2026-07-15T08:57:05.000Z</time>
</trkpt>
<trkpt lat="57.104280" lon="8.578191">
<ele>8.850558</ele>
<time>2026-07-15T08:57:06.000Z</time>
</trkpt>
<trkpt lat="57.104333" lon="8.578249">
<ele>8.833647</ele>
<time>2026-07-15T08:57:07.000Z</time>
</trkpt>
<trkpt lat="57.104387" lon="8.578308">
<ele>8.816424</ele>
<time>2026-07-15T08:57:08.000Z</time>
</trkpt>
<trkpt lat="57.104439" lon="8.578366">
<ele>8.799749</ele>
<time>2026-07-15T08:57:09.000Z</time>
</trkpt>
<trkpt lat="57.104489" lon="8.578424">
<ele>8.783540</ele>
<time>2026-07-15T08:57:10.000Z</time>
</trkpt>
<trkpt lat="57.104543" lon="8.578485">
<ele>8.766163</ele>
<time>2026-07-15T08:57:11.000Z</time>
</trkpt>
<trkpt lat="57.104594" lon="8.578544">
<ele>8.749643</ele>
<time>2026-07-15T08:57:12.000Z</time>
</trkpt>
<trkpt lat="57.104645" lon="8.578604">
<ele>8.733042</ele>
<time>2026-07-15T08:57:13.000Z</time>
</trkpt>
<trkpt lat="57.104699" lon="8.578664">
<ele>8.715743</ele>
<time>2026-07-15T08:57:14.000Z</time>
</trkpt>
<trkpt lat="57.104752" lon="8.578724">
<ele>8.698678</ele>
<time>2026-07-15T08:57:15.000Z</time>
</trkpt>
<trkpt lat="57.104806" lon="8.578784">
<ele>8.681714</ele>
<time>2026-07-15T08:57:16.000Z</time>
</trkpt>
<trkpt lat="57.104863" lon="8.578846">
<ele>8.664769</ele>
<time>2026-07-15T08:57:17.000Z</time>
</trkpt>
<trkpt lat="57.104920" lon="8.578911">
<ele>8.647607</ele>
<time>2026-07-15T08:57:18.000Z</time>
</trkpt>
<trkpt lat="57.104978" lon="8.578975">
<ele>8.630300</ele>
<time>2026-07-15T08:57:19.000Z</time>
</trkpt>
<trkpt lat="57.105035" lon="8.579038">
<ele>8.613283</ele>
<time>2026-07-15T08:57:20.000Z</time>
</trkpt>
<trkpt lat="57.105089" lon="8.579101">
<ele>8.596920</ele>
<time>2026-07-15T08:57:21.000Z</time>
</trkpt>
<trkpt lat="57.105144" lon="8.579160">
<ele>8.580627</ele>
<time>2026-07-15T08:57:22.000Z</time>
</trkpt>
<trkpt lat="57.105203" lon="8.579221">
<ele>8.563308</ele>
<time>2026-07-15T08:57:23.000Z</time>
</trkpt>
<trkpt lat="57.105256" lon="8.579281">
<ele>8.547383</ele>
<time>2026-07-15T08:57:24.000Z</time>
</trkpt>
<trkpt lat="57.105309" lon="8.579341">
<ele>8.531458</ele>
<time>2026-07-15T08:57:25.000Z</time>
</trkpt>
<trkpt lat="57.105367" lon="8.579403">
<ele>8.514292</ele>
<time>2026-07-15T08:57:26.000Z</time>
</trkpt>
<trkpt lat="57.105420" lon="8.579463">
<ele>8.498367</ele>
<time>2026-07-15T08:57:27.000Z</time>
</trkpt>
<trkpt lat="57.105478" lon="8.579524">
<ele>8.481270</ele>
<time>2026-07-15T08:57:28.000Z</time>
</trkpt>
<trkpt lat="57.105530" lon="8.579584">
<ele>8.465562</ele>
<time>2026-07-15T08:57:29.000Z</time>
</trkpt>
<trkpt lat="57.105584" lon="8.579642">
<ele>8.449561</ele>
<time>2026-07-15T08:57:30.000Z</time>
</trkpt>
<trkpt lat="57.105637" lon="8.579701">
<ele>8.433708</ele>
<time>2026-07-15T08:57:31.000Z</time>
</trkpt>
<trkpt lat="57.105691" lon="8.579759">
<ele>8.417707</ele>
<time>2026-07-15T08:57:32.000Z</time>
</trkpt>
<trkpt lat="57.105744" lon="8.579818">
<ele>8.401854</ele>
<time>2026-07-15T08:57:33.000Z</time>
</trkpt>
<trkpt lat="57.105796" lon="8.579872">
<ele>8.386573</ele>
<time>2026-07-15T08:57:34.000Z</time>
</trkpt>
<trkpt lat="57.105851" lon="8.579934">
<ele>8.370067</ele>
<time>2026-07-15T08:57:35.000Z</time>
</trkpt>
<trkpt lat="57.105901" lon="8.579993">
<ele>8.354866</ele>
<time>2026-07-15T08:57:36.000Z</time>
</trkpt>
<trkpt lat="57.105954" lon="8.580049">
<ele>8.339225</ele>
<time>2026-07-15T08:57:37.000Z</time>
</trkpt>
<trkpt lat="57.106012" lon="8.580104">
<ele>8.322526</ele>
<time>2026-07-15T08:57:38.000Z</time>
</trkpt>
<trkpt lat="57.106064" lon="8.580159">
<ele>8.307177</ele>
<time>2026-07-15T08:57:39.000Z</time>
</trkpt>
<trkpt lat="57.106118" lon="8.580216">
<ele>8.291245</ele>
<time>2026-07-15T08:57:40.000Z</time>
</trkpt>
<trkpt lat="57.106172" lon="8.580273">
<ele>8.275313</ele>
<time>2026-07-15T08:57:41.000Z</time>
</trkpt>
<trkpt lat="57.106225" lon="8.580333">
<ele>8.259388</ele>
<time>2026-07-15T08:57:42.000Z</time>
</trkpt>
<trkpt lat="57.106279" lon="8.580393">
<ele>8.243245</ele>
<time>2026-07-15T08:57:43.000Z</time>
</trkpt>
<trkpt lat="57.106335" lon="8.580453">
<ele>8.226661</ele>
<time>2026-07-15T08:57:44.000Z</time>
</trkpt>
<trkpt lat="57.106389" lon="8.580511">
<ele>8.202422</ele>
<time>2026-07-15T08:57:45.000Z</time>
</trkpt>
<trkpt lat="57.106443" lon="8.580568">
<ele>8.177944</ele>
<time>2026-07-15T08:57:46.000Z</time>
</trkpt>
<trkpt lat="57.106496" lon="8.580625">
<ele>8.153806</ele>
<time>2026-07-15T08:57:47.000Z</time>
</trkpt>
<trkpt lat="57.106550" lon="8.580685">
<ele>8.129003</ele>
<time>2026-07-15T08:57:48.000Z</time>
</trkpt>
<trkpt lat="57.106603" lon="8.580746">
<ele>8.104423</ele>
<time>2026-07-15T08:57:49.000Z</time>
</trkpt>
<trkpt lat="57.106656" lon="8.580812">
<ele>8.079261</ele>
<time>2026-07-15T08:57:50.000Z</time>
</trkpt>
<trkpt lat="57.106705" lon="8.580883">
<ele>8.054740</ele>
<time>2026-07-15T08:57:51.000Z</time>
</trkpt>
<trkpt lat="57.106755" lon="8.580953">
<ele>8.030039</ele>
<time>2026-07-15T08:57:52.000Z</time>
</trkpt>
<trkpt lat="57.106805" lon="8.581023">
<ele>8.005337</ele>
<time>2026-07-15T08:57:53.000Z</time>
</trkpt>
<trkpt lat="57.106855" lon="8.581089">
<ele>7.981143</ele>
<time>2026-07-15T08:57:54.000Z</time>
</trkpt>
<trkpt lat="57.106908" lon="8.581147">
<ele>7.956897</ele>
<time>2026-07-15T08:57:55.000Z</time>
</trkpt>
<trkpt lat="57.106961" lon="8.581206">
<ele>7.932541</ele>
<time>2026-07-15T08:57:56.000Z</time>
</trkpt>
<trkpt lat="57.107015" lon="8.581261">
<ele>7.908272</ele>
<time>2026-07-15T08:57:57.000Z</time>
</trkpt>
<trkpt lat="57.107068" lon="8.581312">
<ele>7.884755</ele>
<time>2026-07-15T08:57:58.000Z</time>
</trkpt>
<trkpt lat="57.107121" lon="8.581362">
<ele>7.861335</ele>
<time>2026-07-15T08:57:59.000Z</time>
</trkpt>
<trkpt lat="57.107179" lon="8.581412">
<ele>7.836150</ele>
<time>2026-07-15T08:58:00.000Z</time>
</trkpt>
<trkpt lat="57.107231" lon="8.581462">
<ele>7.813080</ele>
<time>2026-07-15T08:58:01.000Z</time>
</trkpt>
<trkpt lat="57.107289" lon="8.581512">
<ele>7.787894</ele>
<time>2026-07-15T08:58:02.000Z</time>
</trkpt>
<trkpt lat="57.107343" lon="8.581566">
<ele>7.763728</ele>
<time>2026-07-15T08:58:03.000Z</time>
</trkpt>
<trkpt lat="57.107392" lon="8.581623">
<ele>7.740935</ele>
<time>2026-07-15T08:58:04.000Z</time>
</trkpt>
<trkpt lat="57.107446" lon="8.581678">
<ele>7.716666</ele>
<time>2026-07-15T08:58:05.000Z</time>
</trkpt>
<trkpt lat="57.107499" lon="8.581734">
<ele>7.692636</ele>
<time>2026-07-15T08:58:06.000Z</time>
</trkpt>
<trkpt lat="57.107549" lon="8.581789">
<ele>7.669731</ele>
<time>2026-07-15T08:58:07.000Z</time>
</trkpt>
<trkpt lat="57.107602" lon="8.581847">
<ele>7.645485</ele>
<time>2026-07-15T08:58:08.000Z</time>
</trkpt>
<trkpt lat="57.107656" lon="8.581910">
<ele>7.620345</ele>
<time>2026-07-15T08:58:09.000Z</time>
</trkpt>
<trkpt lat="57.107709" lon="8.581969">
<ele>7.595989</ele>
<time>2026-07-15T08:58:10.000Z</time>
</trkpt>
<trkpt lat="57.107762" lon="8.582030">
<ele>7.571409</ele>
<time>2026-07-15T08:58:11.000Z</time>
</trkpt>
<trkpt lat="57.107813" lon="8.582089">
<ele>7.547723</ele>
<time>2026-07-15T08:58:12.000Z</time>
</trkpt>
<trkpt lat="57.107873" lon="8.582152">
<ele>7.520560</ele>
<time>2026-07-15T08:58:13.000Z</time>
</trkpt>
<trkpt lat="57.107926" lon="8.582212">
<ele>7.484434</ele>
<time>2026-07-15T08:58:14.000Z</time>
</trkpt>
<trkpt lat="57.107984" lon="8.582275">
<ele>7.444273</ele>
<time>2026-07-15T08:58:15.000Z</time>
</trkpt>
<trkpt lat="57.108037" lon="8.582337">
<ele>7.406825</ele>
<time>2026-07-15T08:58:16.000Z</time>
</trkpt>
<trkpt lat="57.108090" lon="8.582402">
<ele>7.368847</ele>
<time>2026-07-15T08:58:17.000Z</time>
</trkpt>
<trkpt lat="57.108148" lon="8.582468">
<ele>7.328184</ele>
<time>2026-07-15T08:58:18.000Z</time>
</trkpt>
<trkpt lat="57.108201" lon="8.582531">
<ele>7.290561</ele>
<time>2026-07-15T08:58:19.000Z</time>
</trkpt>
<trkpt lat="57.108254" lon="8.582594">
<ele>7.252939</ele>
<time>2026-07-15T08:58:20.000Z</time>
</trkpt>
<trkpt lat="57.108311" lon="8.582659">
<ele>7.212953</ele>
<time>2026-07-15T08:58:21.000Z</time>
</trkpt>
<trkpt lat="57.108364" lon="8.582722">
<ele>7.175330</ele>
<time>2026-07-15T08:58:22.000Z</time>
</trkpt>
<trkpt lat="57.108415" lon="8.582785">
<ele>7.138704</ele>
<time>2026-07-15T08:58:23.000Z</time>
</trkpt>
<trkpt lat="57.108468" lon="8.582846">
<ele>7.101429</ele>
<time>2026-07-15T08:58:24.000Z</time>
</trkpt>
<trkpt lat="57.108517" lon="8.582909">
<ele>7.065787</ele>
<time>2026-07-15T08:58:25.000Z</time>
</trkpt>
<trkpt lat="57.108567" lon="8.582972">
<ele>7.029654</ele>
<time>2026-07-15T08:58:26.000Z</time>
</trkpt>
<trkpt lat="57.108613" lon="8.583040">
<ele>6.994474</ele>
<time>2026-07-15T08:58:27.000Z</time>
</trkpt>
<trkpt lat="57.108662" lon="8.583108">
<ele>6.957881</ele>
<time>2026-07-15T08:58:28.000Z</time>
</trkpt>
<trkpt lat="57.108705" lon="8.583176">
<ele>6.924077</ele>
<time>2026-07-15T08:58:29.000Z</time>
</trkpt>
<trkpt lat="57.108753" lon="8.583243">
<ele>6.888155</ele>
<time>2026-07-15T08:58:30.000Z</time>
</trkpt>
<trkpt lat="57.108800" lon="8.583316">
<ele>6.851485</ele>
<time>2026-07-15T08:58:31.000Z</time>
</trkpt>
<trkpt lat="57.108849" lon="8.583393">
<ele>6.813067</ele>
<time>2026-07-15T08:58:32.000Z</time>
</trkpt>
<trkpt lat="57.108891" lon="8.583471">
<ele>6.777491</ele>
<time>2026-07-15T08:58:33.000Z</time>
</trkpt>
<trkpt lat="57.108937" lon="8.583555">
<ele>6.738855</ele>
<time>2026-07-15T08:58:34.000Z</time>
</trkpt>
<trkpt lat="57.108979" lon="8.583642">
<ele>6.701154</ele>
<time>2026-07-15T08:58:35.000Z</time>
</trkpt>
<trkpt lat="57.109025" lon="8.583731">
<ele>6.661361</ele>
<time>2026-07-15T08:58:36.000Z</time>
</trkpt>
<trkpt lat="57.109067" lon="8.583819">
<ele>6.623417</ele>
<time>2026-07-15T08:58:37.000Z</time>
</trkpt>
<trkpt lat="57.109112" lon="8.583907">
<ele>6.584269</ele>
<time>2026-07-15T08:58:38.000Z</time>
</trkpt>
<trkpt lat="57.109151" lon="8.583998">
<ele>6.546724</ele>
<time>2026-07-15T08:58:39.000Z</time>
</trkpt>
<trkpt lat="57.109192" lon="8.584085">
<ele>6.509417</ele>
<time>2026-07-15T08:58:40.000Z</time>
</trkpt>
<trkpt lat="57.109235" lon="8.584173">
<ele>6.471077</ele>
<time>2026-07-15T08:58:41.000Z</time>
</trkpt>
<trkpt lat="57.109276" lon="8.584256">
<ele>6.424906</ele>
<time>2026-07-15T08:58:42.000Z</time>
</trkpt>
<trkpt lat="57.109315" lon="8.584343">
<ele>6.356343</ele>
<time>2026-07-15T08:58:43.000Z</time>
</trkpt>
<trkpt lat="57.109353" lon="8.584428">
<ele>6.289429</ele>
<time>2026-07-15T08:58:44.000Z</time>
</trkpt>
<trkpt lat="57.109387" lon="8.584508">
<ele>6.227688</ele>
<time>2026-07-15T08:58:45.000Z</time>
</trkpt>
<trkpt lat="57.109417" lon="8.584577">
<ele>6.173968</ele>
<time>2026-07-15T08:58:46.000Z</time>
</trkpt>
<trkpt lat="57.109440" lon="8.584633">
<ele>6.131296</ele>
<time>2026-07-15T08:58:47.000Z</time>
</trkpt>
<trkpt lat="57.109455" lon="8.584682">
<ele>6.097110</ele>
<time>2026-07-15T08:58:48.000Z</time>
</trkpt>
<trkpt lat="57.109467" lon="8.584733">
<ele>6.063329</ele>
<time>2026-07-15T08:58:49.000Z</time>
</trkpt>
<trkpt lat="57.109466" lon="8.584787">
<ele>6.030492</ele>
<time>2026-07-15T08:58:50.000Z</time>
</trkpt>
<trkpt lat="57.109452" lon="8.584842">
<ele>5.993575</ele>
<time>2026-07-15T08:58:51.000Z</time>
</trkpt>
<trkpt lat="57.109436" lon="8.584908">
<ele>5.949647</ele>
<time>2026-07-15T08:58:52.000Z</time>
</trkpt>
<trkpt lat="57.109421" lon="8.584986">
<ele>5.899358</ele>
<time>2026-07-15T08:58:53.000Z</time>
</trkpt>
<trkpt lat="57.109409" lon="8.585076">
<ele>5.843035</ele>
<time>2026-07-15T08:58:54.000Z</time>
</trkpt>
<trkpt lat="57.109402" lon="8.585157">
<ele>5.793187</ele>
<time>2026-07-15T08:58:55.000Z</time>
</trkpt>
<trkpt lat="57.109390" lon="8.585215">
<ele>5.755465</ele>
<time>2026-07-15T08:58:56.000Z</time>
</trkpt>
<trkpt lat="57.109383" lon="8.585242">
<ele>5.737282</ele>
<time>2026-07-15T08:58:57.000Z</time>
</trkpt>
<trkpt lat="57.109375" lon="8.585248">
<ele>5.727614</ele>
<time>2026-07-15T08:59:31.000Z</time>
</trkpt>
<trkpt lat="57.109375" lon="8.585310">
<ele>5.689933</ele>
<time>2026-07-15T08:59:32.000Z</time>
</trkpt>
<trkpt lat="57.109371" lon="8.585371">
<ele>5.652591</ele>
<time>2026-07-15T08:59:33.000Z</time>
</trkpt>
<trkpt lat="57.109364" lon="8.585446">
<ele>5.606341</ele>
<time>2026-07-15T08:59:34.000Z</time>
</trkpt>
<trkpt lat="57.109352" lon="8.585530">
<ele>5.553552</ele>
<time>2026-07-15T08:59:35.000Z</time>
</trkpt>
<trkpt lat="57.109341" lon="8.585620">
<ele>5.497485</ele>
<time>2026-07-15T08:59:36.000Z</time>
</trkpt>
<trkpt lat="57.109329" lon="8.585716">
<ele>5.437615</ele>
<time>2026-07-15T08:59:37.000Z</time>
</trkpt>
<trkpt lat="57.109317" lon="8.585814">
<ele>5.376559</ele>
<time>2026-07-15T08:59:38.000Z</time>
</trkpt>
<trkpt lat="57.109302" lon="8.585911">
<ele>5.315263</ele>
<time>2026-07-15T08:59:39.000Z</time>
</trkpt>
<trkpt lat="57.109287" lon="8.586009">
<ele>5.253382</ele>
<time>2026-07-15T08:59:40.000Z</time>
</trkpt>
<trkpt lat="57.109276" lon="8.586110">
<ele>5.190776</ele>
<time>2026-07-15T08:59:41.000Z</time>
</trkpt>
<trkpt lat="57.109272" lon="8.586209">
<ele>5.130441</ele>
<time>2026-07-15T08:59:42.000Z</time>
</trkpt>
<trkpt lat="57.109276" lon="8.586312">
<ele>5.067682</ele>
<time>2026-07-15T08:59:43.000Z</time>
</trkpt>
<trkpt lat="57.109287" lon="8.586410">
<ele>5.006863</ele>
<time>2026-07-15T08:59:44.000Z</time>
</trkpt>
<trkpt lat="57.109299" lon="8.586510">
<ele>4.944621</ele>
<time>2026-07-15T08:59:45.000Z</time>
</trkpt>
<trkpt lat="57.109314" lon="8.586608">
<ele>4.882740</ele>
<time>2026-07-15T08:59:46.000Z</time>
</trkpt>
<trkpt lat="57.109326" lon="8.586703">
<ele>4.823461</ele>
<time>2026-07-15T08:59:47.000Z</time>
</trkpt>
<trkpt lat="57.109341" lon="8.586788">
<ele>4.769143</ele>
<time>2026-07-15T08:59:48.000Z</time>
</trkpt>
<trkpt lat="57.109352" lon="8.586863">
<ele>4.721927</ele>
<time>2026-07-15T08:59:49.000Z</time>
</trkpt>
<trkpt lat="57.109364" lon="8.586929">
<ele>4.679627</ele>
<time>2026-07-15T08:59:50.000Z</time>
</trkpt>
<trkpt lat="57.109379" lon="8.586987">
<ele>4.640583</ele>
<time>2026-07-15T08:59:51.000Z</time>
</trkpt>
<trkpt lat="57.109390" lon="8.587043">
<ele>4.604391</ele>
<time>2026-07-15T08:59:52.000Z</time>
</trkpt>
<trkpt lat="57.109398" lon="8.587094">
<ele>4.572128</ele>
<time>2026-07-15T08:59:53.000Z</time>
</trkpt>
<trkpt lat="57.109406" lon="8.587148">
<ele>4.538110</ele>
<time>2026-07-15T08:59:54.000Z</time>
</trkpt>
<trkpt lat="57.109413" lon="8.587198">
<ele>4.506728</ele>
<time>2026-07-15T08:59:55.000Z</time>
</trkpt>
<trkpt lat="57.109417" lon="8.587252">
<ele>4.473605</ele>
<time>2026-07-15T08:59:56.000Z</time>
</trkpt>
<trkpt lat="57.109428" lon="8.587300">
<ele>4.441942</ele>
<time>2026-07-15T08:59:57.000Z</time>
</trkpt>
<trkpt lat="57.109440" lon="8.587346">
<ele>4.445262</ele>
<time>2026-07-15T08:59:58.000Z</time>
</trkpt>
<trkpt lat="57.109459" lon="8.587388">
<ele>4.463844</ele>
<time>2026-07-15T08:59:59.000Z</time>
</trkpt>
<trkpt lat="57.109482" lon="8.587419">
<ele>4.481686</ele>
<time>2026-07-15T09:00:00.000Z</time>
</trkpt>
<trkpt lat="57.109512" lon="8.587448">
<ele>4.502895</ele>
<time>2026-07-15T09:00:01.000Z</time>
</trkpt>
<trkpt lat="57.109535" lon="8.587489">
<ele>4.522933</ele>
<time>2026-07-15T09:00:02.000Z</time>
</trkpt>
<trkpt lat="57.109558" lon="8.587529">
<ele>4.542737</ele>
<time>2026-07-15T09:00:03.000Z</time>
</trkpt>
<trkpt lat="57.109585" lon="8.587566">
<ele>4.563804</ele>
<time>2026-07-15T09:00:04.000Z</time>
</trkpt>
<trkpt lat="57.109619" lon="8.587588">
<ele>4.586363</ele>
<time>2026-07-15T09:00:05.000Z</time>
</trkpt>
<trkpt lat="57.109658" lon="8.587597">
<ele>4.610968</ele>
<time>2026-07-15T09:00:06.000Z</time>
</trkpt>
<trkpt lat="57.109700" lon="8.587597">
<ele>4.637259</ele>
<time>2026-07-15T09:00:07.000Z</time>
</trkpt>
<trkpt lat="57.109746" lon="8.587602">
<ele>4.666104</ele>
<time>2026-07-15T09:00:08.000Z</time>
</trkpt>
<trkpt lat="57.109784" lon="8.587604">
<ele>4.689901</ele>
<time>2026-07-15T09:00:09.000Z</time>
</trkpt>
<trkpt lat="57.109826" lon="8.587606">
<ele>4.716201</ele>
<time>2026-07-15T09:00:10.000Z</time>
</trkpt>
<trkpt lat="57.109856" lon="8.587615">
<ele>4.735228</ele>
<time>2026-07-15T09:00:11.000Z</time>
</trkpt>
<trkpt lat="57.109887" lon="8.587631">
<ele>4.755381</ele>
<time>2026-07-15T09:00:12.000Z</time>
</trkpt>
<trkpt lat="57.109913" lon="8.587650">
<ele>4.772891</ele>
<time>2026-07-15T09:00:13.000Z</time>
</trkpt>
<trkpt lat="57.109936" lon="8.587666">
<ele>4.788281</ele>
<time>2026-07-15T09:00:14.000Z</time>
</trkpt>
<trkpt lat="57.109959" lon="8.587682">
<ele>4.803672</ele>
<time>2026-07-15T09:00:15.000Z</time>
</trkpt>
<trkpt lat="57.109982" lon="8.587698">
<ele>4.819062</ele>
<time>2026-07-15T09:00:16.000Z</time>
</trkpt>
<trkpt lat="57.109997" lon="8.587720">
<ele>4.831066</ele>
<time>2026-07-15T09:00:17.000Z</time>
</trkpt>
<trkpt lat="57.110004" lon="8.587752">
<ele>4.842793</ele>
<time>2026-07-15T09:00:18.000Z</time>
</trkpt>
<trkpt lat="57.110008" lon="8.587800">
<ele>4.859301</ele>
<time>2026-07-15T09:00:19.000Z</time>
</trkpt>
<trkpt lat="57.110008" lon="8.587861">
<ele>4.880036</ele>
<time>2026-07-15T09:00:20.000Z</time>
</trkpt>
<trkpt lat="57.110012" lon="8.587930">
<ele>4.903624</ele>
<time>2026-07-15T09:00:21.000Z</time>
</trkpt>
<trkpt lat="57.110016" lon="8.588001">
<ele>4.927888</ele>
<time>2026-07-15T09:00:22.000Z</time>
</trkpt>
<trkpt lat="57.110020" lon="8.588076">
<ele>4.953505</ele>
<time>2026-07-15T09:00:23.000Z</time>
</trkpt>
<trkpt lat="57.110023" lon="8.588151">
<ele>4.979068</ele>
<time>2026-07-15T09:00:24.000Z</time>
</trkpt>
<trkpt lat="57.110035" lon="8.588231">
<ele>5.007281</ele>
<time>2026-07-15T09:00:25.000Z</time>
</trkpt>
<trkpt lat="57.110043" lon="8.588312">
<ele>5.035266</ele>
<time>2026-07-15T09:00:26.000Z</time>
</trkpt>
<trkpt lat="57.110050" lon="8.588399">
<ele>5.065163</ele>
<time>2026-07-15T09:00:27.000Z</time>
</trkpt>
<trkpt lat="57.110058" lon="8.588491">
<ele>5.096834</ele>
<time>2026-07-15T09:00:28.000Z</time>
</trkpt>
<trkpt lat="57.110062" lon="8.588584">
<ele>5.128546</ele>
<time>2026-07-15T09:00:29.000Z</time>
</trkpt>
<trkpt lat="57.110069" lon="8.588672">
<ele>5.158778</ele>
<time>2026-07-15T09:00:30.000Z</time>
</trkpt>
<trkpt lat="57.110077" lon="8.588758">
<ele>5.188438</ele>
<time>2026-07-15T09:00:31.000Z</time>
</trkpt>
<trkpt lat="57.110085" lon="8.588841">
<ele>5.217092</ele>
<time>2026-07-15T09:00:32.000Z</time>
</trkpt>
<trkpt lat="57.110088" lon="8.588923">
<ele>5.245029</ele>
<time>2026-07-15T09:00:33.000Z</time>
</trkpt>
<trkpt lat="57.110096" lon="8.588996">
<ele>5.270344</ele>
<time>2026-07-15T09:00:34.000Z</time>
</trkpt>
<trkpt lat="57.110100" lon="8.589059">
<ele>5.291905</ele>
<time>2026-07-15T09:00:35.000Z</time>
</trkpt>
<trkpt lat="57.110107" lon="8.589116">
<ele>5.311770</ele>
<time>2026-07-15T09:00:36.000Z</time>
</trkpt>
<trkpt lat="57.110115" lon="8.589166">
<ele>5.329488</ele>
<time>2026-07-15T09:00:37.000Z</time>
</trkpt>
<trkpt lat="57.110127" lon="8.589207">
<ele>5.345321</ele>
<time>2026-07-15T09:00:38.000Z</time>
</trkpt>
<trkpt lat="57.110142" lon="8.589229">
<ele>5.357324</ele>
<time>2026-07-15T09:00:39.000Z</time>
</trkpt>
<trkpt lat="57.110165" lon="8.589228">
<ele>5.371726</ele>
<time>2026-07-15T09:00:40.000Z</time>
</trkpt>
<trkpt lat="57.110184" lon="8.589223">
<ele>5.383740</ele>
<time>2026-07-15T09:00:41.000Z</time>
</trkpt>
<trkpt lat="57.110203" lon="8.589223">
<ele>5.395634</ele>
<time>2026-07-15T09:00:42.000Z</time>
</trkpt>
<trkpt lat="57.110218" lon="8.589222">
<ele>5.405030</ele>
<time>2026-07-15T09:00:43.000Z</time>
</trkpt>
<trkpt lat="57.110234" lon="8.589215">
<ele>5.415324</ele>
<time>2026-07-15T09:00:44.000Z</time>
</trkpt>
<trkpt lat="57.110249" lon="8.589210">
<ele>5.424867</ele>
<time>2026-07-15T09:00:45.000Z</time>
</trkpt>
<trkpt lat="57.110264" lon="8.589214">
<ele>5.434354</ele>
<time>2026-07-15T09:00:46.000Z</time>
</trkpt>
<trkpt lat="57.110283" lon="8.589222">
<ele>5.446555</ele>
<time>2026-07-15T09:00:47.000Z</time>
</trkpt>
<trkpt lat="57.110298" lon="8.589233">
<ele>5.456661</ele>
<time>2026-07-15T09:00:48.000Z</time>
</trkpt>
<trkpt lat="57.110314" lon="8.589249">
<ele>5.468059</ele>
<time>2026-07-15T09:00:49.000Z</time>
</trkpt>
<trkpt lat="57.110329" lon="8.589260">
<ele>5.478165</ele>
<time>2026-07-15T09:00:50.000Z</time>
</trkpt>
<trkpt lat="57.110352" lon="8.589267">
<ele>5.492758</ele>
<time>2026-07-15T09:00:51.000Z</time>
</trkpt>
<trkpt lat="57.110367" lon="8.589264">
<ele>5.502203</ele>
<time>2026-07-15T09:00:52.000Z</time>
</trkpt>
<trkpt lat="57.110378" lon="8.589243">
<ele>5.512121</ele>
<time>2026-07-15T09:00:53.000Z</time>
</trkpt>
<trkpt lat="57.110386" lon="8.589212">
<ele>5.523788</ele>
<time>2026-07-15T09:00:54.000Z</time>
</trkpt>
<trkpt lat="57.110390" lon="8.589170">
<ele>5.538283</ele>
<time>2026-07-15T09:00:55.000Z</time>
</trkpt>
<trkpt lat="57.110397" lon="8.589123">
<ele>5.554849</ele>
<time>2026-07-15T09:00:56.000Z</time>
</trkpt>
<trkpt lat="57.110405" lon="8.589073">
<ele>5.567767</ele>
<time>2026-07-15T09:00:57.000Z</time>
</trkpt>
<trkpt lat="57.110421" lon="8.589019">
<ele>5.581355</ele>
<time>2026-07-15T09:00:58.000Z</time>
</trkpt>
<trkpt lat="57.110444" lon="8.588967">
<ele>5.596169</ele>
<time>2026-07-15T09:00:59.000Z</time>
</trkpt>
<trkpt lat="57.110470" lon="8.588923">
<ele>5.610532</ele>
<time>2026-07-15T09:01:00.000Z</time>
</trkpt>
<trkpt lat="57.110505" lon="8.588888">
<ele>5.626732</ele>
<time>2026-07-15T09:01:01.000Z</time>
</trkpt>
<trkpt lat="57.110535" lon="8.588861">
<ele>5.640315</ele>
<time>2026-07-15T09:01:02.000Z</time>
</trkpt>
<trkpt lat="57.110573" lon="8.588839">
<ele>5.656517</ele>
<time>2026-07-15T09:01:03.000Z</time>
</trkpt>
<trkpt lat="57.110612" lon="8.588825">
<ele>5.672680</ele>
<time>2026-07-15T09:01:04.000Z</time>
</trkpt>
<trkpt lat="57.110652" lon="8.588815">
<ele>5.689100</ele>
<time>2026-07-15T09:01:05.000Z</time>
</trkpt>
<trkpt lat="57.110696" lon="8.588810">
<ele>5.707031</ele>
<time>2026-07-15T09:01:06.000Z</time>
</trkpt>
<trkpt lat="57.110737" lon="8.588808">
<ele>5.723715</ele>
<time>2026-07-15T09:01:07.000Z</time>
</trkpt>
<trkpt lat="57.110783" lon="8.588803">
<ele>5.742458</ele>
<time>2026-07-15T09:01:08.000Z</time>
</trkpt>
<trkpt lat="57.110829" lon="8.588800">
<ele>5.761181</ele>
<time>2026-07-15T09:01:09.000Z</time>
</trkpt>
<trkpt lat="57.110882" lon="8.588795">
<ele>5.782768</ele>
<time>2026-07-15T09:01:10.000Z</time>
</trkpt>
<trkpt lat="57.110929" lon="8.588795">
<ele>5.801886</ele>
<time>2026-07-15T09:01:11.000Z</time>
</trkpt>
<trkpt lat="57.110978" lon="8.588799">
<ele>5.821837</ele>
<time>2026-07-15T09:01:12.000Z</time>
</trkpt>
<trkpt lat="57.111028" lon="8.588800">
<ele>5.842177</ele>
<time>2026-07-15T09:01:13.000Z</time>
</trkpt>
<trkpt lat="57.111073" lon="8.588796">
<ele>5.860502</ele>
<time>2026-07-15T09:01:14.000Z</time>
</trkpt>
<trkpt lat="57.111121" lon="8.588788">
<ele>5.880107</ele>
<time>2026-07-15T09:01:15.000Z</time>
</trkpt>
<trkpt lat="57.111169" lon="8.588783">
<ele>5.899663</ele>
<time>2026-07-15T09:01:16.000Z</time>
</trkpt>
<trkpt lat="57.111219" lon="8.588780">
<ele>5.920012</ele>
<time>2026-07-15T09:01:17.000Z</time>
</trkpt>
<trkpt lat="57.111264" lon="8.588775">
<ele>5.938350</ele>
<time>2026-07-15T09:01:18.000Z</time>
</trkpt>
<trkpt lat="57.111314" lon="8.588770">
<ele>5.958718</ele>
<time>2026-07-15T09:01:19.000Z</time>
</trkpt>
<trkpt lat="57.111363" lon="8.588770">
<ele>5.978649</ele>
<time>2026-07-15T09:01:20.000Z</time>
</trkpt>
<trkpt lat="57.111413" lon="8.588772">
<ele>5.998992</ele>
<time>2026-07-15T09:01:21.000Z</time>
</trkpt>
<trkpt lat="57.111463" lon="8.588772">
<ele>6.019331</ele>
<time>2026-07-15T09:01:22.000Z</time>
</trkpt>
<trkpt lat="57.111516" lon="8.588774">
<ele>6.040894</ele>
<time>2026-07-15T09:01:23.000Z</time>
</trkpt>
<trkpt lat="57.111569" lon="8.588774">
<ele>6.062452</ele>
<time>2026-07-15T09:01:24.000Z</time>
</trkpt>
<trkpt lat="57.111618" lon="8.588775">
<ele>6.082385</ele>
<time>2026-07-15T09:01:25.000Z</time>
</trkpt>
<trkpt lat="57.111672" lon="8.588775">
<ele>6.104350</ele>
<time>2026-07-15T09:01:26.000Z</time>
</trkpt>
<trkpt lat="57.111722" lon="8.588777">
<ele>6.124693</ele>
<time>2026-07-15T09:01:27.000Z</time>
</trkpt>
<trkpt lat="57.111776" lon="8.588775">
<ele>6.146663</ele>
<time>2026-07-15T09:01:28.000Z</time>
</trkpt>
<trkpt lat="57.111825" lon="8.588774">
<ele>6.166596</ele>
<time>2026-07-15T09:01:29.000Z</time>
</trkpt>
<trkpt lat="57.111874" lon="8.588777">
<ele>6.186538</ele>
<time>2026-07-15T09:01:30.000Z</time>
</trkpt>
<trkpt lat="57.111927" lon="8.588785">
<ele>6.208169</ele>
<time>2026-07-15T09:01:31.000Z</time>
</trkpt>
<trkpt lat="57.111982" lon="8.588790">
<ele>6.230569</ele>
<time>2026-07-15T09:01:32.000Z</time>
</trkpt>
<trkpt lat="57.112035" lon="8.588790">
<ele>6.252127</ele>
<time>2026-07-15T09:01:33.000Z</time>
</trkpt>
<trkpt lat="57.112089" lon="8.588794">
<ele>6.274110</ele>
<time>2026-07-15T09:01:34.000Z</time>
</trkpt>
<trkpt lat="57.112145" lon="8.588801">
<ele>6.289993</ele>
<time>2026-07-15T09:01:35.000Z</time>
</trkpt>
<trkpt lat="57.112191" lon="8.588811">
<ele>6.288560</ele>
<time>2026-07-15T09:01:36.000Z</time>
</trkpt>
<trkpt lat="57.112252" lon="8.588822">
<ele>6.286663</ele>
<time>2026-07-15T09:01:37.000Z</time>
</trkpt>
<trkpt lat="57.112306" lon="8.588832">
<ele>6.284983</ele>
<time>2026-07-15T09:01:38.000Z</time>
</trkpt>
<trkpt lat="57.112359" lon="8.588846">
<ele>6.283326</ele>
<time>2026-07-15T09:01:39.000Z</time>
</trkpt>
<trkpt lat="57.112416" lon="8.588859">
<ele>6.281549</ele>
<time>2026-07-15T09:01:40.000Z</time>
</trkpt>
<trkpt lat="57.112470" lon="8.588872">
<ele>6.279863</ele>
<time>2026-07-15T09:01:41.000Z</time>
</trkpt>
<trkpt lat="57.112531" lon="8.588887">
<ele>6.277959</ele>
<time>2026-07-15T09:01:42.000Z</time>
</trkpt>
<trkpt lat="57.112573" lon="8.588899">
<ele>6.276643</ele>
<time>2026-07-15T09:01:43.000Z</time>
</trkpt>
<trkpt lat="57.112634" lon="8.588910">
<ele>6.274746</ele>
<time>2026-07-15T09:01:44.000Z</time>
</trkpt>
<trkpt lat="57.112687" lon="8.588924">
<ele>6.273089</ele>
<time>2026-07-15T09:01:45.000Z</time>
</trkpt>
<trkpt lat="57.112741" lon="8.588937">
<ele>6.271404</ele>
<time>2026-07-15T09:01:46.000Z</time>
</trkpt>
<trkpt lat="57.112797" lon="8.588953">
<ele>6.269650</ele>
<time>2026-07-15T09:01:47.000Z</time>
</trkpt>
<trkpt lat="57.112852" lon="8.588966">
<ele>6.267934</ele>
<time>2026-07-15T09:01:48.000Z</time>
</trkpt>
<trkpt lat="57.112904" lon="8.588977">
<ele>6.266314</ele>
<time>2026-07-15T09:01:49.000Z</time>
</trkpt>
<trkpt lat="57.112958" lon="8.588990">
<ele>6.264629</ele>
<time>2026-07-15T09:01:50.000Z</time>
</trkpt>
<trkpt lat="57.113014" lon="8.589002">
<ele>6.262884</ele>
<time>2026-07-15T09:01:51.000Z</time>
</trkpt>
<trkpt lat="57.113072" lon="8.589017">
<ele>6.261071</ele>
<time>2026-07-15T09:01:52.000Z</time>
</trkpt>
<trkpt lat="57.113126" lon="8.589038">
<ele>6.259363</ele>
<time>2026-07-15T09:01:53.000Z</time>
</trkpt>
<trkpt lat="57.113180" lon="8.589064">
<ele>6.257636</ele>
<time>2026-07-15T09:01:54.000Z</time>
</trkpt>
<trkpt lat="57.113237" lon="8.589087">
<ele>6.255830</ele>
<time>2026-07-15T09:01:55.000Z</time>
</trkpt>
<trkpt lat="57.113290" lon="8.589105">
<ele>6.254162</ele>
<time>2026-07-15T09:01:56.000Z</time>
</trkpt>
<trkpt lat="57.113346" lon="8.589127">
<ele>6.252390</ele>
<time>2026-07-15T09:01:57.000Z</time>
</trkpt>
<trkpt lat="57.113405" lon="8.589147">
<ele>6.250533</ele>
<time>2026-07-15T09:01:58.000Z</time>
</trkpt>
<trkpt lat="57.113462" lon="8.589169">
<ele>6.248731</ele>
<time>2026-07-15T09:01:59.000Z</time>
</trkpt>
<trkpt lat="57.113519" lon="8.589192">
<ele>6.246925</ele>
<time>2026-07-15T09:02:00.000Z</time>
</trkpt>
<trkpt lat="57.113576" lon="8.589216">
<ele>6.245115</ele>
<time>2026-07-15T09:02:01.000Z</time>
</trkpt>
<trkpt lat="57.113629" lon="8.589239">
<ele>6.243430</ele>
<time>2026-07-15T09:02:02.000Z</time>
</trkpt>
<trkpt lat="57.113687" lon="8.589261">
<ele>6.241598</ele>
<time>2026-07-15T09:02:03.000Z</time>
</trkpt>
<trkpt lat="57.113743" lon="8.589287">
<ele>6.239810</ele>
<time>2026-07-15T09:02:04.000Z</time>
</trkpt>
<trkpt lat="57.113801" lon="8.589317">
<ele>6.237946</ele>
<time>2026-07-15T09:02:05.000Z</time>
</trkpt>
<trkpt lat="57.113854" lon="8.589345">
<ele>6.236239</ele>
<time>2026-07-15T09:02:06.000Z</time>
</trkpt>
<trkpt lat="57.113911" lon="8.589372">
<ele>6.232879</ele>
<time>2026-07-15T09:02:07.000Z</time>
</trkpt>
<trkpt lat="57.113969" lon="8.589397">
<ele>6.223974</ele>
<time>2026-07-15T09:02:08.000Z</time>
</trkpt>
<trkpt lat="57.114026" lon="8.589422">
<ele>6.215214</ele>
<time>2026-07-15T09:02:09.000Z</time>
</trkpt>
<trkpt lat="57.114080" lon="8.589451">
<ele>6.206805</ele>
<time>2026-07-15T09:02:10.000Z</time>
</trkpt>
<trkpt lat="57.114137" lon="8.589482">
<ele>6.197919</ele>
<time>2026-07-15T09:02:11.000Z</time>
</trkpt>
<trkpt lat="57.114194" lon="8.589510">
<ele>6.189100</ele>
<time>2026-07-15T09:02:12.000Z</time>
</trkpt>
<trkpt lat="57.114251" lon="8.589532">
<ele>6.180393</ele>
<time>2026-07-15T09:02:13.000Z</time>
</trkpt>
<trkpt lat="57.114304" lon="8.589557">
<ele>6.172214</ele>
<time>2026-07-15T09:02:14.000Z</time>
</trkpt>
<trkpt lat="57.114362" lon="8.589586">
<ele>6.163229</ele>
<time>2026-07-15T09:02:15.000Z</time>
</trkpt>
<trkpt lat="57.114419" lon="8.589610">
<ele>6.154487</ele>
<time>2026-07-15T09:02:16.000Z</time>
</trkpt>
<trkpt lat="57.114472" lon="8.589633">
<ele>6.146346</ele>
<time>2026-07-15T09:02:17.000Z</time>
</trkpt>
<trkpt lat="57.114526" lon="8.589660">
<ele>6.137981</ele>
<time>2026-07-15T09:02:18.000Z</time>
</trkpt>
<trkpt lat="57.114583" lon="8.589682">
<ele>6.129274</ele>
<time>2026-07-15T09:02:19.000Z</time>
</trkpt>
<trkpt lat="57.114640" lon="8.589706">
<ele>6.120533</ele>
<time>2026-07-15T09:02:20.000Z</time>
</trkpt>
<trkpt lat="57.114694" lon="8.589731">
<ele>6.112209</ele>
<time>2026-07-15T09:02:21.000Z</time>
</trkpt>
<trkpt lat="57.114751" lon="8.589757">
<ele>6.103430</ele>
<time>2026-07-15T09:02:22.000Z</time>
</trkpt>
<trkpt lat="57.114805" lon="8.589784">
<ele>6.095064</ele>
<time>2026-07-15T09:02:23.000Z</time>
</trkpt>
<trkpt lat="57.114865" lon="8.589811">
<ele>6.085830</ele>
<time>2026-07-15T09:02:24.000Z</time>
</trkpt>
<trkpt lat="57.114916" lon="8.589836">
<ele>6.077940</ele>
<time>2026-07-15T09:02:25.000Z</time>
</trkpt>
<trkpt lat="57.114976" lon="8.589865">
<ele>6.068666</ele>
<time>2026-07-15T09:02:26.000Z</time>
</trkpt>
<trkpt lat="57.115033" lon="8.589892">
<ele>6.059867</ele>
<time>2026-07-15T09:02:27.000Z</time>
</trkpt>
<trkpt lat="57.115087" lon="8.589920">
<ele>6.051480</ele>
<time>2026-07-15T09:02:28.000Z</time>
</trkpt>
<trkpt lat="57.115144" lon="8.589947">
<ele>6.042681</ele>
<time>2026-07-15T09:02:29.000Z</time>
</trkpt>
<trkpt lat="57.115201" lon="8.589974">
<ele>6.033883</ele>
<time>2026-07-15T09:02:30.000Z</time>
</trkpt>
<trkpt lat="57.115259" lon="8.590001">
<ele>6.024939</ele>
<time>2026-07-15T09:02:31.000Z</time>
</trkpt>
<trkpt lat="57.115316" lon="8.590029">
<ele>6.016119</ele>
<time>2026-07-15T09:02:32.000Z</time>
</trkpt>
<trkpt lat="57.115369" lon="8.590059">
<ele>6.007830</ele>
<time>2026-07-15T09:02:33.000Z</time>
</trkpt>
<trkpt lat="57.115418" lon="8.590088">
<ele>6.000135</ele>
<time>2026-07-15T09:02:34.000Z</time>
</trkpt>
<trkpt lat="57.115474" lon="8.590120">
<ele>5.991369</ele>
<time>2026-07-15T09:02:35.000Z</time>
</trkpt>
<trkpt lat="57.115529" lon="8.590155">
<ele>5.982670</ele>
<time>2026-07-15T09:02:36.000Z</time>
</trkpt>
<trkpt lat="57.115585" lon="8.590191">
<ele>5.973802</ele>
<time>2026-07-15T09:02:37.000Z</time>
</trkpt>
<trkpt lat="57.115640" lon="8.590231">
<ele>5.959375</ele>
<time>2026-07-15T09:02:38.000Z</time>
</trkpt>
<trkpt lat="57.115693" lon="8.590271">
<ele>5.900798</ele>
<time>2026-07-15T09:02:39.000Z</time>
</trkpt>
<trkpt lat="57.115746" lon="8.590313">
<ele>5.841792</ele>
<time>2026-07-15T09:02:40.000Z</time>
</trkpt>
<trkpt lat="57.115804" lon="8.590356">
<ele>5.777850</ele>
<time>2026-07-15T09:02:41.000Z</time>
</trkpt>
<trkpt lat="57.115857" lon="8.590403">
<ele>5.717692</ele>
<time>2026-07-15T09:02:42.000Z</time>
</trkpt>
<trkpt lat="57.115907" lon="8.590451">
<ele>5.660028</ele>
<time>2026-07-15T09:02:43.000Z</time>
</trkpt>
<trkpt lat="57.115960" lon="8.590505">
<ele>5.598085</ele>
<time>2026-07-15T09:02:44.000Z</time>
</trkpt>
<trkpt lat="57.116010" lon="8.590559">
<ele>5.538808</ele>
<time>2026-07-15T09:02:45.000Z</time>
</trkpt>
<trkpt lat="57.116059" lon="8.590615">
<ele>5.479833</ele>
<time>2026-07-15T09:02:46.000Z</time>
</trkpt>
<trkpt lat="57.116109" lon="8.590675">
<ele>5.418803</ele>
<time>2026-07-15T09:02:47.000Z</time>
</trkpt>
<trkpt lat="57.116159" lon="8.590735">
<ele>5.357772</ele>
<time>2026-07-15T09:02:48.000Z</time>
</trkpt>
<trkpt lat="57.116208" lon="8.590797">
<ele>5.296975</ele>
<time>2026-07-15T09:02:49.000Z</time>
</trkpt>
<trkpt lat="57.116262" lon="8.590865">
<ele>5.230076</ele>
<time>2026-07-15T09:02:50.000Z</time>
</trkpt>
<trkpt lat="57.116311" lon="8.590931">
<ele>5.167994</ele>
<time>2026-07-15T09:02:51.000Z</time>
</trkpt>
<trkpt lat="57.116360" lon="8.591002">
<ele>5.104233</ele>
<time>2026-07-15T09:02:52.000Z</time>
</trkpt>
<trkpt lat="57.116406" lon="8.591076">
<ele>5.041772</ele>
<time>2026-07-15T09:02:53.000Z</time>
</trkpt>
<trkpt lat="57.116456" lon="8.591153">
<ele>4.975118</ele>
<time>2026-07-15T09:02:54.000Z</time>
</trkpt>
<trkpt lat="57.116505" lon="8.591232">
<ele>4.908520</ele>
<time>2026-07-15T09:02:55.000Z</time>
</trkpt>
<trkpt lat="57.116551" lon="8.591311">
<ele>4.844199</ele>
<time>2026-07-15T09:02:56.000Z</time>
</trkpt>
<trkpt lat="57.116597" lon="8.591397">
<ele>4.777166</ele>
<time>2026-07-15T09:02:57.000Z</time>
</trkpt>
<trkpt lat="57.116639" lon="8.591485">
<ele>4.712109</ele>
<time>2026-07-15T09:02:58.000Z</time>
</trkpt>
<trkpt lat="57.116684" lon="8.591570">
<ele>4.646189</ele>
<time>2026-07-15T09:02:59.000Z</time>
</trkpt>
<trkpt lat="57.116727" lon="8.591662">
<ele>4.578785</ele>
<time>2026-07-15T09:03:00.000Z</time>
</trkpt>
<trkpt lat="57.116768" lon="8.591754">
<ele>4.512697</ele>
<time>2026-07-15T09:03:01.000Z</time>
</trkpt>
<trkpt lat="57.116807" lon="8.591851">
<ele>4.445677</ele>
<time>2026-07-15T09:03:02.000Z</time>
</trkpt>
<trkpt lat="57.116844" lon="8.591944">
<ele>4.381659</ele>
<time>2026-07-15T09:03:03.000Z</time>
</trkpt>
<trkpt lat="57.116883" lon="8.592045">
<ele>4.312842</ele>
<time>2026-07-15T09:03:04.000Z</time>
</trkpt>
<trkpt lat="57.116921" lon="8.592143">
<ele>4.245975</ele>
<time>2026-07-15T09:03:05.000Z</time>
</trkpt>
<trkpt lat="57.116956" lon="8.592245">
<ele>4.178977</ele>
<time>2026-07-15T09:03:06.000Z</time>
</trkpt>
<trkpt lat="57.116986" lon="8.592347">
<ele>4.120586</ele>
<time>2026-07-15T09:03:07.000Z</time>
</trkpt>
<trkpt lat="57.117021" lon="8.592458">
<ele>4.085389</ele>
<time>2026-07-15T09:03:08.000Z</time>
</trkpt>
<trkpt lat="57.117051" lon="8.592572">
<ele>4.050652</ele>
<time>2026-07-15T09:03:09.000Z</time>
</trkpt>
<trkpt lat="57.117085" lon="8.592687">
<ele>4.014747</ele>
<time>2026-07-15T09:03:10.000Z</time>
</trkpt>
<trkpt lat="57.117116" lon="8.592798">
<ele>3.980520</ele>
<time>2026-07-15T09:03:11.000Z</time>
</trkpt>
<trkpt lat="57.117146" lon="8.592904">
<ele>3.947742</ele>
<time>2026-07-15T09:03:12.000Z</time>
</trkpt>
<trkpt lat="57.117177" lon="8.593010">
<ele>3.914729</ele>
<time>2026-07-15T09:03:13.000Z</time>
</trkpt>
<trkpt lat="57.117207" lon="8.593119">
<ele>3.881220</ele>
<time>2026-07-15T09:03:14.000Z</time>
</trkpt>
<trkpt lat="57.117234" lon="8.593231">
<ele>3.847618</ele>
<time>2026-07-15T09:03:15.000Z</time>
</trkpt>
<trkpt lat="57.117260" lon="8.593342">
<ele>3.814470</ele>
<time>2026-07-15T09:03:16.000Z</time>
</trkpt>
<trkpt lat="57.117291" lon="8.593451">
<ele>3.780730</ele>
<time>2026-07-15T09:03:17.000Z</time>
</trkpt>
<trkpt lat="57.117317" lon="8.593559">
<ele>3.748336</ele>
<time>2026-07-15T09:03:18.000Z</time>
</trkpt>
<trkpt lat="57.117344" lon="8.593665">
<ele>3.716231</ele>
<time>2026-07-15T09:03:19.000Z</time>
</trkpt>
<trkpt lat="57.117371" lon="8.593773">
<ele>3.683629</ele>
<time>2026-07-15T09:03:20.000Z</time>
</trkpt>
<trkpt lat="57.117394" lon="8.593883">
<ele>3.651307</ele>
<time>2026-07-15T09:03:21.000Z</time>
</trkpt>
<trkpt lat="57.117421" lon="8.593990">
<ele>3.618954</ele>
<time>2026-07-15T09:03:22.000Z</time>
</trkpt>
<trkpt lat="57.117447" lon="8.594092">
<ele>3.588057</ele>
<time>2026-07-15T09:03:23.000Z</time>
</trkpt>
<trkpt lat="57.117474" lon="8.594197">
<ele>3.556200</ele>
<time>2026-07-15T09:03:24.000Z</time>
</trkpt>
<trkpt lat="57.117508" lon="8.594296">
<ele>3.524079</ele>
<time>2026-07-15T09:03:25.000Z</time>
</trkpt>
<trkpt lat="57.117539" lon="8.594400">
<ele>3.491547</ele>
<time>2026-07-15T09:03:26.000Z</time>
</trkpt>
<trkpt lat="57.117569" lon="8.594500">
<ele>3.460220</ele>
<time>2026-07-15T09:03:27.000Z</time>
</trkpt>
<trkpt lat="57.117596" lon="8.594601">
<ele>3.429351</ele>
<time>2026-07-15T09:03:28.000Z</time>
</trkpt>
<trkpt lat="57.117623" lon="8.594702">
<ele>3.398482</ele>
<time>2026-07-15T09:03:29.000Z</time>
</trkpt>
<trkpt lat="57.117649" lon="8.594806">
<ele>3.367087</ele>
<time>2026-07-15T09:03:30.000Z</time>
</trkpt>
<trkpt lat="57.117672" lon="8.594911">
<ele>3.336042</ele>
<time>2026-07-15T09:03:31.000Z</time>
</trkpt>
<trkpt lat="57.117699" lon="8.595016">
<ele>3.304185</ele>
<time>2026-07-15T09:03:32.000Z</time>
</trkpt>
<trkpt lat="57.117729" lon="8.595114">
<ele>3.273337</ele>
<time>2026-07-15T09:03:33.000Z</time>
</trkpt>
<trkpt lat="57.117764" lon="8.595216">
<ele>3.240251</ele>
<time>2026-07-15T09:03:34.000Z</time>
</trkpt>
<trkpt lat="57.117791" lon="8.595314">
<ele>3.218573</ele>
<time>2026-07-15T09:03:35.000Z</time>
</trkpt>
<trkpt lat="57.117810" lon="8.595411">
<ele>3.220377</ele>
<time>2026-07-15T09:03:36.000Z</time>
</trkpt>
<trkpt lat="57.117833" lon="8.595506">
<ele>3.222196</ele>
<time>2026-07-15T09:03:37.000Z</time>
</trkpt>
<trkpt lat="57.117863" lon="8.595594">
<ele>3.224013</ele>
<time>2026-07-15T09:03:38.000Z</time>
</trkpt>
<trkpt lat="57.117886" lon="8.595677">
<ele>3.225642</ele>
<time>2026-07-15T09:03:39.000Z</time>
</trkpt>
<trkpt lat="57.117909" lon="8.595755">
<ele>3.227195</ele>
<time>2026-07-15T09:03:40.000Z</time>
</trkpt>
<trkpt lat="57.117920" lon="8.595823">
<ele>3.228436</ele>
<time>2026-07-15T09:03:41.000Z</time>
</trkpt>
<trkpt lat="57.117920" lon="8.595891">
<ele>3.229625</ele>
<time>2026-07-15T09:03:42.000Z</time>
</trkpt>
<trkpt lat="57.117920" lon="8.595949">
<ele>3.230639</ele>
<time>2026-07-15T09:03:43.000Z</time>
</trkpt>
<trkpt lat="57.117908" lon="8.596004">
<ele>3.231676</ele>
<time>2026-07-15T09:03:44.000Z</time>
</trkpt>
<trkpt lat="57.117908" lon="8.596044">
<ele>3.232375</ele>
<time>2026-07-15T09:03:45.000Z</time>
</trkpt>
<trkpt lat="57.117909" lon="8.596075">
<ele>3.232918</ele>
<time>2026-07-15T09:03:46.000Z</time>
</trkpt>
<trkpt lat="57.117916" lon="8.596107">
<ele>3.233522</ele>
<time>2026-07-15T09:03:47.000Z</time>
</trkpt>
<trkpt lat="57.117928" lon="8.596138">
<ele>3.234187</ele>
<time>2026-07-15T09:03:48.000Z</time>
</trkpt>
<trkpt lat="57.117943" lon="8.596178">
<ele>3.235038</ele>
<time>2026-07-15T09:03:49.000Z</time>
</trkpt>
<trkpt lat="57.117951" lon="8.596210">
<ele>3.235654</ele>
<time>2026-07-15T09:03:50.000Z</time>
</trkpt>
<trkpt lat="57.117962" lon="8.596233">
<ele>3.236190</ele>
<time>2026-07-15T09:03:51.000Z</time>
</trkpt>
<trkpt lat="57.117977" lon="8.596236">
<ele>3.236676</ele>
<time>2026-07-15T09:03:52.000Z</time>
</trkpt>
<trkpt lat="57.117996" lon="8.596225">
<ele>3.237317</ele>
<time>2026-07-15T09:03:53.000Z</time>
</trkpt>
<trkpt lat="57.118023" lon="8.596218">
<ele>3.238196</ele>
<time>2026-07-15T09:03:54.000Z</time>
</trkpt>
<trkpt lat="57.118053" lon="8.596227">
<ele>3.239175</ele>
<time>2026-07-15T09:03:55.000Z</time>
</trkpt>
<trkpt lat="57.118081" lon="8.596252">
<ele>3.240177</ele>
<time>2026-07-15T09:03:56.000Z</time>
</trkpt>
<trkpt lat="57.118111" lon="8.596289">
<ele>3.241340</ele>
<time>2026-07-15T09:03:57.000Z</time>
</trkpt>
<trkpt lat="57.118142" lon="8.596337">
<ele>3.242644</ele>
<time>2026-07-15T09:03:58.000Z</time>
</trkpt>
<trkpt lat="57.118164" lon="8.596399">
<ele>3.243940</ele>
<time>2026-07-15T09:03:59.000Z</time>
</trkpt>
<trkpt lat="57.118186" lon="8.596464">
<ele>3.245279</ele>
<time>2026-07-15T09:04:00.000Z</time>
</trkpt>
<trkpt lat="57.118214" lon="8.596539">
<ele>3.246871</ele>
<time>2026-07-15T09:04:01.000Z</time>
</trkpt>
<trkpt lat="57.118237" lon="8.596614">
<ele>3.248377</ele>
<time>2026-07-15T09:04:02.000Z</time>
</trkpt>
<trkpt lat="57.118264" lon="8.596689">
<ele>3.249951</ele>
<time>2026-07-15T09:04:03.000Z</time>
</trkpt>
<trkpt lat="57.118290" lon="8.596769">
<ele>3.251582</ele>
<time>2026-07-15T09:04:04.000Z</time>
</trkpt>
<trkpt lat="57.118317" lon="8.596846">
<ele>3.253185</ele>
<time>2026-07-15T09:04:05.000Z</time>
</trkpt>
<trkpt lat="57.118347" lon="8.596923">
<ele>3.254842</ele>
<time>2026-07-15T09:04:06.000Z</time>
</trkpt>
<trkpt lat="57.118374" lon="8.597003">
<ele>3.256489</ele>
<time>2026-07-15T09:04:07.000Z</time>
</trkpt>
<trkpt lat="57.118401" lon="8.597082">
<ele>3.258122</ele>
<time>2026-07-15T09:04:08.000Z</time>
</trkpt>
<trkpt lat="57.118424" lon="8.597155">
<ele>3.259598</ele>
<time>2026-07-15T09:04:09.000Z</time>
</trkpt>
<trkpt lat="57.118451" lon="8.597223">
<ele>3.261071</ele>
<time>2026-07-15T09:04:10.000Z</time>
</trkpt>
<trkpt lat="57.118470" lon="8.597293">
<ele>3.262440</ele>
<time>2026-07-15T09:04:11.000Z</time>
</trkpt>
<trkpt lat="57.118492" lon="8.597360">
<ele>3.263809</ele>
<time>2026-07-15T09:04:12.000Z</time>
</trkpt>
<trkpt lat="57.118511" lon="8.597431">
<ele>3.265193</ele>
<time>2026-07-15T09:04:13.000Z</time>
</trkpt>
<trkpt lat="57.118530" lon="8.597499">
<ele>3.266531</ele>
<time>2026-07-15T09:04:14.000Z</time>
</trkpt>
<trkpt lat="57.118554" lon="8.597574">
<ele>3.268053</ele>
<time>2026-07-15T09:04:15.000Z</time>
</trkpt>
<trkpt lat="57.118572" lon="8.597644">
<ele>3.269408</ele>
<time>2026-07-15T09:04:16.000Z</time>
</trkpt>
<trkpt lat="57.118599" lon="8.597723">
<ele>3.271040</ele>
<time>2026-07-15T09:04:17.000Z</time>
</trkpt>
<trkpt lat="57.118622" lon="8.597797">
<ele>3.272531</ele>
<time>2026-07-15T09:04:18.000Z</time>
</trkpt>
<trkpt lat="57.118645" lon="8.597875">
<ele>3.274084</ele>
<time>2026-07-15T09:04:19.000Z</time>
</trkpt>
<trkpt lat="57.118668" lon="8.597950">
<ele>3.275590</ele>
<time>2026-07-15T09:04:20.000Z</time>
</trkpt>
<trkpt lat="57.118695" lon="8.598025">
<ele>3.277827</ele>
<time>2026-07-15T09:04:21.000Z</time>
</trkpt>
<trkpt lat="57.118714" lon="8.598095">
<ele>3.279977</ele>
<time>2026-07-15T09:04:22.000Z</time>
</trkpt>
<trkpt lat="57.118733" lon="8.598160">
<ele>3.282006</ele>
<time>2026-07-15T09:04:23.000Z</time>
</trkpt>
<trkpt lat="57.118752" lon="8.598222">
<ele>3.283963</ele>
<time>2026-07-15T09:04:24.000Z</time>
</trkpt>
<trkpt lat="57.118771" lon="8.598286">
<ele>3.285967</ele>
<time>2026-07-15T09:04:25.000Z</time>
</trkpt>
<trkpt lat="57.118790" lon="8.598345">
<ele>3.287852</ele>
<time>2026-07-15T09:04:26.000Z</time>
</trkpt>
<trkpt lat="57.118805" lon="8.598408">
<ele>3.289743</ele>
<time>2026-07-15T09:04:27.000Z</time>
</trkpt>
<trkpt lat="57.118820" lon="8.598463">
<ele>3.291434</ele>
<time>2026-07-15T09:04:28.000Z</time>
</trkpt>
<trkpt lat="57.118836" lon="8.598519">
<ele>3.293173</ele>
<time>2026-07-15T09:04:29.000Z</time>
</trkpt>
<trkpt lat="57.118855" lon="8.598573">
<ele>3.294941</ele>
<time>2026-07-15T09:04:30.000Z</time>
</trkpt>
<trkpt lat="57.118866" lon="8.598626">
<ele>3.296501</ele>
<time>2026-07-15T09:04:31.000Z</time>
</trkpt>
<trkpt lat="57.118878" lon="8.598680">
<ele>3.298104</ele>
<time>2026-07-15T09:04:32.000Z</time>
</trkpt>
<trkpt lat="57.118889" lon="8.598729">
<ele>3.299561</ele>
<time>2026-07-15T09:04:33.000Z</time>
</trkpt>
<trkpt lat="57.118904" lon="8.598773">
<ele>3.300989</ele>
<time>2026-07-15T09:04:34.000Z</time>
</trkpt>
<trkpt lat="57.118920" lon="8.598818">
<ele>3.302467</ele>
<time>2026-07-15T09:04:35.000Z</time>
</trkpt>
<trkpt lat="57.118935" lon="8.598862">
<ele>3.303895</ele>
<time>2026-07-15T09:04:36.000Z</time>
</trkpt>
<trkpt lat="57.118946" lon="8.598907">
<ele>3.305251</ele>
<time>2026-07-15T09:04:37.000Z</time>
</trkpt>
<trkpt lat="57.118950" lon="8.598949">
<ele>3.306423</ele>
<time>2026-07-15T09:04:38.000Z</time>
</trkpt>
<trkpt lat="57.118958" lon="8.598982">
<ele>3.307416</ele>
<time>2026-07-15T09:04:39.000Z</time>
</trkpt>
<trkpt lat="57.118965" lon="8.599013">
<ele>3.308339</ele>
<time>2026-07-15T09:04:40.000Z</time>
</trkpt>
<trkpt lat="57.118969" lon="8.599024">
<ele>3.308703</ele>
<time>2026-07-15T09:04:41.000Z</time>
</trkpt>
<trkpt lat="57.119007" lon="8.598983">
<ele>3.310932</ele>
<time>2026-07-15T09:04:51.000Z</time>
</trkpt>
<trkpt lat="57.119011" lon="8.598940">
<ele>3.312131</ele>
<time>2026-07-15T09:04:52.000Z</time>
</trkpt>
<trkpt lat="57.119011" lon="8.598889">
<ele>3.313532</ele>
<time>2026-07-15T09:04:53.000Z</time>
</trkpt>
<trkpt lat="57.119003" lon="8.598842">
<ele>3.314886</ele>
<time>2026-07-15T09:04:54.000Z</time>
</trkpt>
<trkpt lat="57.118992" lon="8.598789">
<ele>3.316445</ele>
<time>2026-07-15T09:04:55.000Z</time>
</trkpt>
<trkpt lat="57.118976" lon="8.598736">
<ele>3.318111</ele>
<time>2026-07-15T09:04:56.000Z</time>
</trkpt>
<trkpt lat="57.118961" lon="8.598685">
<ele>3.319705</ele>
<time>2026-07-15T09:04:57.000Z</time>
</trkpt>
<trkpt lat="57.118946" lon="8.598638">
<ele>3.321204</ele>
<time>2026-07-15T09:04:58.000Z</time>
</trkpt>
<trkpt lat="57.118927" lon="8.598587">
<ele>3.322903</ele>
<time>2026-07-15T09:04:59.000Z</time>
</trkpt>
<trkpt lat="57.118912" lon="8.598538">
<ele>3.324449</ele>
<time>2026-07-15T09:05:00.000Z</time>
</trkpt>
<trkpt lat="57.118900" lon="8.598484">
<ele>3.326053</ele>
<time>2026-07-15T09:05:01.000Z</time>
</trkpt>
<trkpt lat="57.118885" lon="8.598440">
<ele>3.327480</ele>
<time>2026-07-15T09:05:02.000Z</time>
</trkpt>
<trkpt lat="57.118870" lon="8.598400">
<ele>3.328816</ele>
<time>2026-07-15T09:05:03.000Z</time>
</trkpt>
<trkpt lat="57.118854" lon="8.598359">
<ele>3.330204</ele>
<time>2026-07-15T09:05:04.000Z</time>
</trkpt>
<trkpt lat="57.118839" lon="8.598318">
<ele>3.331562</ele>
<time>2026-07-15T09:05:05.000Z</time>
</trkpt>
<trkpt lat="57.118832" lon="8.598277">
<ele>3.332744</ele>
<time>2026-07-15T09:05:06.000Z</time>
</trkpt>
<trkpt lat="57.118828" lon="8.598243">
<ele>3.333700</ele>
<time>2026-07-15T09:05:07.000Z</time>
</trkpt>
<trkpt lat="57.118832" lon="8.598210">
<ele>3.334629</ele>
<time>2026-07-15T09:05:08.000Z</time>
</trkpt>
<trkpt lat="57.118835" lon="8.598183">
<ele>3.335386</ele>
<time>2026-07-15T09:05:09.000Z</time>
</trkpt>
<trkpt lat="57.118836" lon="8.598166">
<ele>3.335856</ele>
<time>2026-07-15T09:05:10.000Z</time>
</trkpt>
<trkpt lat="57.118839" lon="8.598162">
<ele>3.336043</ele>
<time>2026-07-15T09:05:11.000Z</time>
</trkpt>
<trkpt lat="57.118843" lon="8.598164">
<ele>3.336253</ele>
<time>2026-07-15T09:05:12.000Z</time>
</trkpt>
<trkpt lat="57.118843" lon="8.598163">
<ele>3.336281</ele>
<time>2026-07-15T09:05:56.000Z</time>
</trkpt>
<trkpt lat="57.118816" lon="8.598144">
<ele>3.337744</ele>
<time>2026-07-15T09:05:57.000Z</time>
</trkpt>
<trkpt lat="57.118801" lon="8.598147">
<ele>3.338508</ele>
<time>2026-07-15T09:05:58.000Z</time>
</trkpt>
<trkpt lat="57.118790" lon="8.598164">
<ele>3.339234</ele>
<time>2026-07-15T09:05:59.000Z</time>
</trkpt>
<trkpt lat="57.118786" lon="8.598188">
<ele>3.339924</ele>
<time>2026-07-15T09:06:00.000Z</time>
</trkpt>
<trkpt lat="57.118786" lon="8.598229">
<ele>3.341051</ele>
<time>2026-07-15T09:06:01.000Z</time>
</trkpt>
<trkpt lat="57.118794" lon="8.598277">
<ele>3.342431</ele>
<time>2026-07-15T09:06:02.000Z</time>
</trkpt>
<trkpt lat="57.118809" lon="8.598326">
<ele>3.343977</ele>
<time>2026-07-15T09:06:03.000Z</time>
</trkpt>
<trkpt lat="57.118824" lon="8.598379">
<ele>3.345619</ele>
<time>2026-07-15T09:06:04.000Z</time>
</trkpt>
<trkpt lat="57.118836" lon="8.598436">
<ele>3.347299</ele>
<time>2026-07-15T09:06:05.000Z</time>
</trkpt>
<trkpt lat="57.118851" lon="8.598499">
<ele>3.349190</ele>
<time>2026-07-15T09:06:06.000Z</time>
</trkpt>
<trkpt lat="57.118866" lon="8.598568">
<ele>3.351232</ele>
<time>2026-07-15T09:06:07.000Z</time>
</trkpt>
<trkpt lat="57.118878" lon="8.598642">
<ele>3.353354</ele>
<time>2026-07-15T09:06:08.000Z</time>
</trkpt>
<trkpt lat="57.118893" lon="8.598715">
<ele>3.355499</ele>
<time>2026-07-15T09:06:09.000Z</time>
</trkpt>
<trkpt lat="57.118908" lon="8.598790">
<ele>3.357696</ele>
<time>2026-07-15T09:06:10.000Z</time>
</trkpt>
<trkpt lat="57.118927" lon="8.598863">
<ele>3.359920</ele>
<time>2026-07-15T09:06:11.000Z</time>
</trkpt>
<trkpt lat="57.118950" lon="8.598941">
<ele>3.362360</ele>
<time>2026-07-15T09:06:12.000Z</time>
</trkpt>
<trkpt lat="57.118977" lon="8.599016">
<ele>3.364833</ele>
<time>2026-07-15T09:06:13.000Z</time>
</trkpt>
<trkpt lat="57.119004" lon="8.599087">
<ele>3.366605</ele>
<time>2026-07-15T09:06:14.000Z</time>
</trkpt>
<trkpt lat="57.119030" lon="8.599157">
<ele>3.360487</ele>
<time>2026-07-15T09:06:15.000Z</time>
</trkpt>
<trkpt lat="57.119057" lon="8.599228">
<ele>3.354234</ele>
<time>2026-07-15T09:06:16.000Z</time>
</trkpt>
<trkpt lat="57.119084" lon="8.599303">
<ele>3.347743</ele>
<time>2026-07-15T09:06:17.000Z</time>
</trkpt>
<trkpt lat="57.119110" lon="8.599376">
<ele>3.341445</ele>
<time>2026-07-15T09:06:18.000Z</time>
</trkpt>
<trkpt lat="57.119141" lon="8.599450">
<ele>3.334703</ele>
<time>2026-07-15T09:06:19.000Z</time>
</trkpt>
<trkpt lat="57.119168" lon="8.599524">
<ele>3.328271</ele>
<time>2026-07-15T09:06:20.000Z</time>
</trkpt>
<trkpt lat="57.119194" lon="8.599599">
<ele>3.321852</ele>
<time>2026-07-15T09:06:21.000Z</time>
</trkpt>
<trkpt lat="57.119221" lon="8.599679">
<ele>3.315058</ele>
<time>2026-07-15T09:06:22.000Z</time>
</trkpt>
<trkpt lat="57.119248" lon="8.599755">
<ele>3.308506</ele>
<time>2026-07-15T09:06:23.000Z</time>
</trkpt>
<trkpt lat="57.119271" lon="8.599835">
<ele>3.301976</ele>
<time>2026-07-15T09:06:24.000Z</time>
</trkpt>
<trkpt lat="57.119297" lon="8.599913">
<ele>3.295374</ele>
<time>2026-07-15T09:06:25.000Z</time>
</trkpt>
<trkpt lat="57.119323" lon="8.599985">
<ele>3.289136</ele>
<time>2026-07-15T09:06:26.000Z</time>
</trkpt>
<trkpt lat="57.119355" lon="8.600070">
<ele>3.281675</ele>
<time>2026-07-15T09:06:27.000Z</time>
</trkpt>
<trkpt lat="57.119381" lon="8.600152">
<ele>3.274825</ele>
<time>2026-07-15T09:06:28.000Z</time>
</trkpt>
<trkpt lat="57.119404" lon="8.600234">
<ele>3.268168</ele>
<time>2026-07-15T09:06:29.000Z</time>
</trkpt>
<trkpt lat="57.119434" lon="8.600313">
<ele>3.261214</ele>
<time>2026-07-15T09:06:30.000Z</time>
</trkpt>
<trkpt lat="57.119461" lon="8.600392">
<ele>3.254480</ele>
<time>2026-07-15T09:06:31.000Z</time>
</trkpt>
<trkpt lat="57.119488" lon="8.600473">
<ele>3.247624</ele>
<time>2026-07-15T09:06:32.000Z</time>
</trkpt>
<trkpt lat="57.119515" lon="8.600554">
<ele>3.240768</ele>
<time>2026-07-15T09:06:33.000Z</time>
</trkpt>
<trkpt lat="57.119542" lon="8.600635">
<ele>3.233912</ele>
<time>2026-07-15T09:06:34.000Z</time>
</trkpt>
<trkpt lat="57.119572" lon="8.600718">
<ele>3.226719</ele>
<time>2026-07-15T09:06:35.000Z</time>
</trkpt>
<trkpt lat="57.119599" lon="8.600796">
<ele>3.220046</ele>
<time>2026-07-15T09:06:36.000Z</time>
</trkpt>
<trkpt lat="57.119625" lon="8.600876">
<ele>3.213321</ele>
<time>2026-07-15T09:06:37.000Z</time>
</trkpt>
<trkpt lat="57.119651" lon="8.600956">
<ele>3.206595</ele>
<time>2026-07-15T09:06:38.000Z</time>
</trkpt>
<trkpt lat="57.119679" lon="8.601040">
<ele>3.199485</ele>
<time>2026-07-15T09:06:39.000Z</time>
</trkpt>
<trkpt lat="57.119709" lon="8.601122">
<ele>3.192353</ele>
<time>2026-07-15T09:06:40.000Z</time>
</trkpt>
<trkpt lat="57.119732" lon="8.601206">
<ele>3.185567</ele>
<time>2026-07-15T09:06:41.000Z</time>
</trkpt>
<trkpt lat="57.119758" lon="8.601289">
<ele>3.178654</ele>
<time>2026-07-15T09:06:42.000Z</time>
</trkpt>
<trkpt lat="57.119789" lon="8.601380">
<ele>3.170905</ele>
<time>2026-07-15T09:06:43.000Z</time>
</trkpt>
<trkpt lat="57.119816" lon="8.601468">
<ele>3.163614</ele>
<time>2026-07-15T09:06:44.000Z</time>
</trkpt>
<trkpt lat="57.119843" lon="8.601557">
<ele>3.156260</ele>
<time>2026-07-15T09:06:45.000Z</time>
</trkpt>
<trkpt lat="57.119873" lon="8.601643">
<ele>3.148886</ele>
<time>2026-07-15T09:06:46.000Z</time>
</trkpt>
<trkpt lat="57.119904" lon="8.601731">
<ele>3.141320</ele>
<time>2026-07-15T09:06:47.000Z</time>
</trkpt>
<trkpt lat="57.119934" lon="8.601814">
<ele>3.134127</ele>
<time>2026-07-15T09:06:48.000Z</time>
</trkpt>
<trkpt lat="57.119965" lon="8.601899">
<ele>3.128483</ele>
<time>2026-07-15T09:06:49.000Z</time>
</trkpt>
<trkpt lat="57.119992" lon="8.601988">
<ele>3.130798</ele>
<time>2026-07-15T09:06:50.000Z</time>
</trkpt>
<trkpt lat="57.120014" lon="8.602071">
<ele>3.132896</ele>
<time>2026-07-15T09:06:51.000Z</time>
</trkpt>
<trkpt lat="57.120045" lon="8.602151">
<ele>3.135128</ele>
<time>2026-07-15T09:06:52.000Z</time>
</trkpt>
<trkpt lat="57.120072" lon="8.602226">
<ele>3.137172</ele>
<time>2026-07-15T09:06:53.000Z</time>
</trkpt>
<trkpt lat="57.120098" lon="8.602303">
<ele>3.139232</ele>
<time>2026-07-15T09:06:54.000Z</time>
</trkpt>
<trkpt lat="57.120121" lon="8.602383">
<ele>3.141288</ele>
<time>2026-07-15T09:06:55.000Z</time>
</trkpt>
<trkpt lat="57.120144" lon="8.602466">
<ele>3.143404</ele>
<time>2026-07-15T09:06:56.000Z</time>
</trkpt>
<trkpt lat="57.120167" lon="8.602550">
<ele>3.145541</ele>
<time>2026-07-15T09:06:57.000Z</time>
</trkpt>
<trkpt lat="57.120198" lon="8.602635">
<ele>3.147867</ele>
<time>2026-07-15T09:06:58.000Z</time>
</trkpt>
<trkpt lat="57.120232" lon="8.602720">
<ele>3.150265</ele>
<time>2026-07-15T09:06:59.000Z</time>
</trkpt>
<trkpt lat="57.120263" lon="8.602803">
<ele>3.152553</ele>
<time>2026-07-15T09:07:00.000Z</time>
</trkpt>
<trkpt lat="57.120293" lon="8.602887">
<ele>3.154836</ele>
<time>2026-07-15T09:07:01.000Z</time>
</trkpt>
<trkpt lat="57.120324" lon="8.602975">
<ele>3.157219</ele>
<time>2026-07-15T09:07:02.000Z</time>
</trkpt>
<trkpt lat="57.120351" lon="8.603062">
<ele>3.159495</ele>
<time>2026-07-15T09:07:03.000Z</time>
</trkpt>
<trkpt lat="57.120381" lon="8.603150">
<ele>3.161855</ele>
<time>2026-07-15T09:07:04.000Z</time>
</trkpt>
<trkpt lat="57.120407" lon="8.603230">
<ele>3.163973</ele>
<time>2026-07-15T09:07:05.000Z</time>
</trkpt>
<trkpt lat="57.120434" lon="8.603315">
<ele>3.166209</ele>
<time>2026-07-15T09:07:06.000Z</time>
</trkpt>
<trkpt lat="57.120461" lon="8.603397">
<ele>3.168388</ele>
<time>2026-07-15T09:07:07.000Z</time>
</trkpt>
<trkpt lat="57.120488" lon="8.603480">
<ele>3.170585</ele>
<time>2026-07-15T09:07:08.000Z</time>
</trkpt>
<trkpt lat="57.120518" lon="8.603565">
<ele>3.172888</ele>
<time>2026-07-15T09:07:09.000Z</time>
</trkpt>
<trkpt lat="57.120545" lon="8.603652">
<ele>3.175164</ele>
<time>2026-07-15T09:07:10.000Z</time>
</trkpt>
<trkpt lat="57.120572" lon="8.603743">
<ele>3.177519</ele>
<time>2026-07-15T09:07:11.000Z</time>
</trkpt>
<trkpt lat="57.120602" lon="8.603831">
<ele>3.179879</ele>
<time>2026-07-15T09:07:12.000Z</time>
</trkpt>
<trkpt lat="57.120629" lon="8.603919">
<ele>3.182175</ele>
<time>2026-07-15T09:07:13.000Z</time>
</trkpt>
<trkpt lat="57.120655" lon="8.604002">
<ele>3.184351</ele>
<time>2026-07-15T09:07:14.000Z</time>
</trkpt>
<trkpt lat="57.120677" lon="8.604088">
<ele>3.186511</ele>
<time>2026-07-15T09:07:15.000Z</time>
</trkpt>
<trkpt lat="57.120701" lon="8.604180">
<ele>3.188829</ele>
<time>2026-07-15T09:07:16.000Z</time>
</trkpt>
<trkpt lat="57.120732" lon="8.604268">
<ele>3.191211</ele>
<time>2026-07-15T09:07:17.000Z</time>
</trkpt>
<trkpt lat="57.120762" lon="8.604353">
<ele>3.193514</ele>
<time>2026-07-15T09:07:18.000Z</time>
</trkpt>
<trkpt lat="57.120788" lon="8.604432">
<ele>3.195612</ele>
<time>2026-07-15T09:07:19.000Z</time>
</trkpt>
<trkpt lat="57.120815" lon="8.604517">
<ele>3.197849</ele>
<time>2026-07-15T09:07:20.000Z</time>
</trkpt>
<trkpt lat="57.120843" lon="8.604591">
<ele>3.199897</ele>
<time>2026-07-15T09:07:21.000Z</time>
</trkpt>
<trkpt lat="57.120873" lon="8.604690">
<ele>3.202472</ele>
<time>2026-07-15T09:07:22.000Z</time>
</trkpt>
<trkpt lat="57.120900" lon="8.604784">
<ele>3.204617</ele>
<time>2026-07-15T09:07:23.000Z</time>
</trkpt>
<trkpt lat="57.120930" lon="8.604876">
<ele>3.206635</ele>
<time>2026-07-15T09:07:24.000Z</time>
</trkpt>
<trkpt lat="57.120957" lon="8.604968">
<ele>3.208601</ele>
<time>2026-07-15T09:07:25.000Z</time>
</trkpt>
<trkpt lat="57.120982" lon="8.605052">
<ele>3.210402</ele>
<time>2026-07-15T09:07:26.000Z</time>
</trkpt>
<trkpt lat="57.121014" lon="8.605148">
<ele>3.212520</ele>
<time>2026-07-15T09:07:27.000Z</time>
</trkpt>
<trkpt lat="57.121044" lon="8.605239">
<ele>3.214522</ele>
<time>2026-07-15T09:07:28.000Z</time>
</trkpt>
<trkpt lat="57.121075" lon="8.605330">
<ele>3.216542</ele>
<time>2026-07-15T09:07:29.000Z</time>
</trkpt>
<trkpt lat="57.121105" lon="8.605416">
<ele>3.218464</ele>
<time>2026-07-15T09:07:30.000Z</time>
</trkpt>
<trkpt lat="57.121135" lon="8.605502">
<ele>3.220386</ele>
<time>2026-07-15T09:07:31.000Z</time>
</trkpt>
<trkpt lat="57.121167" lon="8.605596">
<ele>3.222472</ele>
<time>2026-07-15T09:07:32.000Z</time>
</trkpt>
<trkpt lat="57.121193" lon="8.605685">
<ele>3.224373</ele>
<time>2026-07-15T09:07:33.000Z</time>
</trkpt>
<trkpt lat="57.121220" lon="8.605776">
<ele>3.226322</ele>
<time>2026-07-15T09:07:34.000Z</time>
</trkpt>
<trkpt lat="57.121247" lon="8.605865">
<ele>3.228239</ele>
<time>2026-07-15T09:07:35.000Z</time>
</trkpt>
<trkpt lat="57.121276" lon="8.605954">
<ele>3.230191</ele>
<time>2026-07-15T09:07:36.000Z</time>
</trkpt>
<trkpt lat="57.121304" lon="8.606048">
<ele>3.232207</ele>
<time>2026-07-15T09:07:37.000Z</time>
</trkpt>
<trkpt lat="57.121331" lon="8.606138">
<ele>3.234140</ele>
<time>2026-07-15T09:07:38.000Z</time>
</trkpt>
<trkpt lat="57.121361" lon="8.606226">
<ele>3.236094</ele>
<time>2026-07-15T09:07:39.000Z</time>
</trkpt>
<trkpt lat="57.121392" lon="8.606315">
<ele>3.238082</ele>
<time>2026-07-15T09:07:40.000Z</time>
</trkpt>
<trkpt lat="57.121420" lon="8.606393">
<ele>3.239840</ele>
<time>2026-07-15T09:07:41.000Z</time>
</trkpt>
<trkpt lat="57.121452" lon="8.606487">
<ele>3.241927</ele>
<time>2026-07-15T09:07:42.000Z</time>
</trkpt>
<trkpt lat="57.121483" lon="8.606571">
<ele>3.243836</ele>
<time>2026-07-15T09:07:43.000Z</time>
</trkpt>
<trkpt lat="57.121514" lon="8.606658">
<ele>3.245793</ele>
<time>2026-07-15T09:07:44.000Z</time>
</trkpt>
<trkpt lat="57.121548" lon="8.606743">
<ele>3.247778</ele>
<time>2026-07-15T09:07:45.000Z</time>
</trkpt>
<trkpt lat="57.121578" lon="8.606825">
<ele>3.249637</ele>
<time>2026-07-15T09:07:46.000Z</time>
</trkpt>
<trkpt lat="57.121606" lon="8.606911">
<ele>3.251523</ele>
<time>2026-07-15T09:07:47.000Z</time>
</trkpt>
<trkpt lat="57.121632" lon="8.606995">
<ele>3.253341</ele>
<time>2026-07-15T09:07:48.000Z</time>
</trkpt>
<trkpt lat="57.121659" lon="8.607085">
<ele>3.255274</ele>
<time>2026-07-15T09:07:49.000Z</time>
</trkpt>
<trkpt lat="57.121685" lon="8.607176">
<ele>3.257208</ele>
<time>2026-07-15T09:07:50.000Z</time>
</trkpt>
<trkpt lat="57.121712" lon="8.607266">
<ele>3.259141</ele>
<time>2026-07-15T09:07:51.000Z</time>
</trkpt>
<trkpt lat="57.121743" lon="8.607355">
<ele>3.261129</ele>
<time>2026-07-15T09:07:52.000Z</time>
</trkpt>
<trkpt lat="57.121777" lon="8.607439">
<ele>3.263099</ele>
<time>2026-07-15T09:07:53.000Z</time>
</trkpt>
<trkpt lat="57.121812" lon="8.607522">
<ele>3.265075</ele>
<time>2026-07-15T09:07:54.000Z</time>
</trkpt>
<trkpt lat="57.121842" lon="8.607607">
<ele>3.304999</ele>
<time>2026-07-15T09:07:55.000Z</time>
</trkpt>
<trkpt lat="57.121869" lon="8.607700">
<ele>3.361930</ele>
<time>2026-07-15T09:07:56.000Z</time>
</trkpt>
<trkpt lat="57.121895" lon="8.607794">
<ele>3.418879</ele>
<time>2026-07-15T09:07:57.000Z</time>
</trkpt>
<trkpt lat="57.121926" lon="8.607887">
<ele>3.477790</ele>
<time>2026-07-15T09:07:58.000Z</time>
</trkpt>
<trkpt lat="57.121956" lon="8.607980">
<ele>3.536186</ele>
<time>2026-07-15T09:07:59.000Z</time>
</trkpt>
<trkpt lat="57.121987" lon="8.608068">
<ele>3.592815</ele>
<time>2026-07-15T09:08:00.000Z</time>
</trkpt>
<trkpt lat="57.122014" lon="8.608160">
<ele>3.649270</ele>
<time>2026-07-15T09:08:01.000Z</time>
</trkpt>
<trkpt lat="57.122040" lon="8.608252">
<ele>3.705259</ele>
<time>2026-07-15T09:08:02.000Z</time>
</trkpt>
<trkpt lat="57.122066" lon="8.608344">
<ele>3.761248</ele>
<time>2026-07-15T09:08:03.000Z</time>
</trkpt>
<trkpt lat="57.122090" lon="8.608441">
<ele>3.818791</ele>
<time>2026-07-15T09:08:04.000Z</time>
</trkpt>
<trkpt lat="57.122117" lon="8.608537">
<ele>3.877154</ele>
<time>2026-07-15T09:08:05.000Z</time>
</trkpt>
<trkpt lat="57.122139" lon="8.608628">
<ele>3.930928</ele>
<time>2026-07-15T09:08:06.000Z</time>
</trkpt>
<trkpt lat="57.122162" lon="8.608721">
<ele>3.986094</ele>
<time>2026-07-15T09:08:07.000Z</time>
</trkpt>
<trkpt lat="57.122189" lon="8.608815">
<ele>4.043501</ele>
<time>2026-07-15T09:08:08.000Z</time>
</trkpt>
<trkpt lat="57.122211" lon="8.608904">
<ele>4.096289</ele>
<time>2026-07-15T09:08:09.000Z</time>
</trkpt>
<trkpt lat="57.122235" lon="8.609001">
<ele>4.153833</ele>
<time>2026-07-15T09:08:10.000Z</time>
</trkpt>
<trkpt lat="57.122258" lon="8.609096">
<ele>4.209983</ele>
<time>2026-07-15T09:08:11.000Z</time>
</trkpt>
<trkpt lat="57.122281" lon="8.609189">
<ele>4.265149</ele>
<time>2026-07-15T09:08:12.000Z</time>
</trkpt>
<trkpt lat="57.122303" lon="8.609268">
<ele>4.313077</ele>
<time>2026-07-15T09:08:13.000Z</time>
</trkpt>
<trkpt lat="57.122330" lon="8.609371">
<ele>4.374819</ele>
<time>2026-07-15T09:08:14.000Z</time>
</trkpt>
<trkpt lat="57.122353" lon="8.609465">
<ele>4.430477</ele>
<time>2026-07-15T09:08:15.000Z</time>
</trkpt>
<trkpt lat="57.122372" lon="8.609561">
<ele>4.485635</ele>
<time>2026-07-15T09:08:16.000Z</time>
</trkpt>
<trkpt lat="57.122391" lon="8.609659">
<ele>4.541808</ele>
<time>2026-07-15T09:08:17.000Z</time>
</trkpt>
<trkpt lat="57.122410" lon="8.609756">
<ele>4.597473</ele>
<time>2026-07-15T09:08:18.000Z</time>
</trkpt>
<trkpt lat="57.122429" lon="8.609855">
<ele>4.654154</ele>
<time>2026-07-15T09:08:19.000Z</time>
</trkpt>
<trkpt lat="57.122448" lon="8.609949">
<ele>4.708299</ele>
<time>2026-07-15T09:08:20.000Z</time>
</trkpt>
<trkpt lat="57.122471" lon="8.610047">
<ele>4.765931</ele>
<time>2026-07-15T09:08:21.000Z</time>
</trkpt>
<trkpt lat="57.122494" lon="8.610139">
<ele>4.820606</ele>
<time>2026-07-15T09:08:22.000Z</time>
</trkpt>
<trkpt lat="57.122517" lon="8.610235">
<ele>4.877250</ele>
<time>2026-07-15T09:08:23.000Z</time>
</trkpt>
<trkpt lat="57.122534" lon="8.610325">
<ele>4.928688</ele>
<time>2026-07-15T09:08:24.000Z</time>
</trkpt>
<trkpt lat="57.122555" lon="8.610434">
<ele>4.991122</ele>
<time>2026-07-15T09:08:25.000Z</time>
</trkpt>
<trkpt lat="57.122570" lon="8.610533">
<ele>5.046605</ele>
<time>2026-07-15T09:08:26.000Z</time>
</trkpt>
<trkpt lat="57.122582" lon="8.610634">
<ele>5.100948</ele>
<time>2026-07-15T09:08:27.000Z</time>
</trkpt>
<trkpt lat="57.122597" lon="8.610732">
<ele>5.154240</ele>
<time>2026-07-15T09:08:28.000Z</time>
</trkpt>
<trkpt lat="57.122616" lon="8.610830">
<ele>5.208705</ele>
<time>2026-07-15T09:08:29.000Z</time>
</trkpt>
<trkpt lat="57.122631" lon="8.610921">
<ele>5.258481</ele>
<time>2026-07-15T09:08:30.000Z</time>
</trkpt>
<trkpt lat="57.122646" lon="8.611011">
<ele>5.307756</ele>
<time>2026-07-15T09:08:31.000Z</time>
</trkpt>
<trkpt lat="57.122658" lon="8.611106">
<ele>5.358806</ele>
<time>2026-07-15T09:08:32.000Z</time>
</trkpt>
<trkpt lat="57.122669" lon="8.611202">
<ele>5.410158</ele>
<time>2026-07-15T09:08:33.000Z</time>
</trkpt>
<trkpt lat="57.122677" lon="8.611293">
<ele>5.458407</ele>
<time>2026-07-15T09:08:34.000Z</time>
</trkpt>
<trkpt lat="57.122688" lon="8.611381">
<ele>5.505671</ele>
<time>2026-07-15T09:08:35.000Z</time>
</trkpt>
<trkpt lat="57.122704" lon="8.611468">
<ele>5.553748</ele>
<time>2026-07-15T09:08:36.000Z</time>
</trkpt>
<trkpt lat="57.122719" lon="8.611549">
<ele>5.598541</ele>
<time>2026-07-15T09:08:37.000Z</time>
</trkpt>
<trkpt lat="57.122738" lon="8.611624">
<ele>5.641859</ele>
<time>2026-07-15T09:08:38.000Z</time>
</trkpt>
<trkpt lat="57.122761" lon="8.611683">
<ele>5.679876</ele>
<time>2026-07-15T09:08:39.000Z</time>
</trkpt>
<trkpt lat="57.122791" lon="8.611720">
<ele>5.714685</ele>
<time>2026-07-15T09:08:40.000Z</time>
</trkpt>
<trkpt lat="57.122826" lon="8.611729">
<ele>5.748758</ele>
<time>2026-07-15T09:08:41.000Z</time>
</trkpt>
<trkpt lat="57.122861" lon="8.611718">
<ele>5.782991</ele>
<time>2026-07-15T09:08:42.000Z</time>
</trkpt>
<trkpt lat="57.122898" lon="8.611698">
<ele>5.820169</ele>
<time>2026-07-15T09:08:43.000Z</time>
</trkpt>
<trkpt lat="57.122931" lon="8.611671">
<ele>5.854984</ele>
<time>2026-07-15T09:08:44.000Z</time>
</trkpt>
<trkpt lat="57.122967" lon="8.611643">
<ele>5.892660</ele>
<time>2026-07-15T09:08:45.000Z</time>
</trkpt>
<trkpt lat="57.123006" lon="8.611613">
<ele>5.933409</ele>
<time>2026-07-15T09:08:46.000Z</time>
</trkpt>
<trkpt lat="57.123047" lon="8.611618">
<ele>5.973026</ele>
<time>2026-07-15T09:08:47.000Z</time>
</trkpt>
<trkpt lat="57.123088" lon="8.611623">
<ele>6.012643</ele>
<time>2026-07-15T09:08:48.000Z</time>
</trkpt>
<trkpt lat="57.123129" lon="8.611630">
<ele>6.052343</ele>
<time>2026-07-15T09:08:49.000Z</time>
</trkpt>
<trkpt lat="57.123169" lon="8.611655">
<ele>6.093069</ele>
<time>2026-07-15T09:08:50.000Z</time>
</trkpt>
<trkpt lat="57.123199" lon="8.611700">
<ele>6.130370</ele>
<time>2026-07-15T09:08:51.000Z</time>
</trkpt>
<trkpt lat="57.123229" lon="8.611739">
<ele>6.165772</ele>
<time>2026-07-15T09:08:52.000Z</time>
</trkpt>
<trkpt lat="57.123261" lon="8.611783">
<ele>6.204271</ele>
<time>2026-07-15T09:08:53.000Z</time>
</trkpt>
<trkpt lat="57.123287" lon="8.611820">
<ele>6.235948</ele>
<time>2026-07-15T09:08:54.000Z</time>
</trkpt>
<trkpt lat="57.123314" lon="8.611871">
<ele>6.273233</ele>
<time>2026-07-15T09:08:55.000Z</time>
</trkpt>
<trkpt lat="57.123336" lon="8.611935">
<ele>6.312881</ele>
<time>2026-07-15T09:08:56.000Z</time>
</trkpt>
<trkpt lat="57.123364" lon="8.611998">
<ele>6.355495</ele>
<time>2026-07-15T09:08:57.000Z</time>
</trkpt>
<trkpt lat="57.123394" lon="8.612054">
<ele>6.396674</ele>
<time>2026-07-15T09:08:58.000Z</time>
</trkpt>
<trkpt lat="57.123421" lon="8.612116">
<ele>6.438275</ele>
<time>2026-07-15T09:08:59.000Z</time>
</trkpt>
<trkpt lat="57.123448" lon="8.612181">
<ele>6.481112</ele>
<time>2026-07-15T09:09:00.000Z</time>
</trkpt>
<trkpt lat="57.123471" lon="8.612248">
<ele>6.522602</ele>
<time>2026-07-15T09:09:01.000Z</time>
</trkpt>
<trkpt lat="57.123501" lon="8.612317">
<ele>6.568870</ele>
<time>2026-07-15T09:09:02.000Z</time>
</trkpt>
<trkpt lat="57.123524" lon="8.612388">
<ele>6.612144</ele>
<time>2026-07-15T09:09:03.000Z</time>
</trkpt>
<trkpt lat="57.123547" lon="8.612470">
<ele>6.660451</ele>
<time>2026-07-15T09:09:04.000Z</time>
</trkpt>
<trkpt lat="57.123570" lon="8.612556">
<ele>6.710628</ele>
<time>2026-07-15T09:09:05.000Z</time>
</trkpt>
<trkpt lat="57.123589" lon="8.612642">
<ele>6.759223</ele>
<time>2026-07-15T09:09:06.000Z</time>
</trkpt>
<trkpt lat="57.123608" lon="8.612733">
<ele>6.776307</ele>
<time>2026-07-15T09:09:07.000Z</time>
</trkpt>
<trkpt lat="57.123627" lon="8.612832">
<ele>6.746121</ele>
<time>2026-07-15T09:09:08.000Z</time>
</trkpt>
<trkpt lat="57.123646" lon="8.612933">
<ele>6.715392</ele>
<time>2026-07-15T09:09:09.000Z</time>
</trkpt>
<trkpt lat="57.123665" lon="8.613033">
<ele>6.684935</ele>
<time>2026-07-15T09:09:10.000Z</time>
</trkpt>
<trkpt lat="57.123687" lon="8.613133">
<ele>6.653917</ele>
<time>2026-07-15T09:09:11.000Z</time>
</trkpt>
<trkpt lat="57.123707" lon="8.613243">
<ele>6.620569</ele>
<time>2026-07-15T09:09:12.000Z</time>
</trkpt>
<trkpt lat="57.123730" lon="8.613350">
<ele>6.587486</ele>
<time>2026-07-15T09:09:13.000Z</time>
</trkpt>
<trkpt lat="57.123749" lon="8.613459">
<ele>6.554576</ele>
<time>2026-07-15T09:09:14.000Z</time>
</trkpt>
<trkpt lat="57.123772" lon="8.613568">
<ele>6.520957</ele>
<time>2026-07-15T09:09:15.000Z</time>
</trkpt>
<trkpt lat="57.123795" lon="8.613677">
<ele>6.487339</ele>
<time>2026-07-15T09:09:16.000Z</time>
</trkpt>
<trkpt lat="57.123817" lon="8.613786">
<ele>6.453909</ele>
<time>2026-07-15T09:09:17.000Z</time>
</trkpt>
<trkpt lat="57.123841" lon="8.613901">
<ele>6.418491</ele>
<time>2026-07-15T09:09:18.000Z</time>
</trkpt>
<trkpt lat="57.123864" lon="8.614012">
<ele>6.384336</ele>
<time>2026-07-15T09:09:19.000Z</time>
</trkpt>
<trkpt lat="57.123886" lon="8.614121">
<ele>6.350907</ele>
<time>2026-07-15T09:09:20.000Z</time>
</trkpt>
<trkpt lat="57.123909" lon="8.614232">
<ele>6.316752</ele>
<time>2026-07-15T09:09:21.000Z</time>
</trkpt>
<trkpt lat="57.123932" lon="8.614339">
<ele>6.283669</ele>
<time>2026-07-15T09:09:22.000Z</time>
</trkpt>
<trkpt lat="57.123955" lon="8.614452">
<ele>6.248977</ele>
<time>2026-07-15T09:09:23.000Z</time>
</trkpt>
<trkpt lat="57.123981" lon="8.614562">
<ele>6.214487</ele>
<time>2026-07-15T09:09:24.000Z</time>
</trkpt>
<trkpt lat="57.124005" lon="8.614671">
<ele>6.180674</ele>
<time>2026-07-15T09:09:25.000Z</time>
</trkpt>
<trkpt lat="57.124028" lon="8.614784">
<ele>6.145982</ele>
<time>2026-07-15T09:09:26.000Z</time>
</trkpt>
<trkpt lat="57.124050" lon="8.614889">
<ele>6.113627</ele>
<time>2026-07-15T09:09:27.000Z</time>
</trkpt>
<trkpt lat="57.124070" lon="8.615005">
<ele>6.078639</ele>
<time>2026-07-15T09:09:28.000Z</time>
</trkpt>
<trkpt lat="57.124092" lon="8.615117">
<ele>6.044400</ele>
<time>2026-07-15T09:09:29.000Z</time>
</trkpt>
<trkpt lat="57.124115" lon="8.615226">
<ele>6.010782</ele>
<time>2026-07-15T09:09:30.000Z</time>
</trkpt>
<trkpt lat="57.124138" lon="8.615337">
<ele>5.976627</ele>
<time>2026-07-15T09:09:31.000Z</time>
</trkpt>
<trkpt lat="57.124160" lon="8.615444">
<ele>5.943736</ele>
<time>2026-07-15T09:09:32.000Z</time>
</trkpt>
<trkpt lat="57.124184" lon="8.615559">
<ele>5.908318</ele>
<time>2026-07-15T09:09:33.000Z</time>
</trkpt>
<trkpt lat="57.124207" lon="8.615668">
<ele>5.874700</ele>
<time>2026-07-15T09:09:34.000Z</time>
</trkpt>
<trkpt lat="57.124230" lon="8.615781">
<ele>5.840008</ele>
<time>2026-07-15T09:09:35.000Z</time>
</trkpt>
<trkpt lat="57.124253" lon="8.615891">
<ele>5.829750</ele>
<time>2026-07-15T09:09:36.000Z</time>
</trkpt>
<trkpt lat="57.124278" lon="8.615993">
<ele>5.823175</ele>
<time>2026-07-15T09:09:37.000Z</time>
</trkpt>
<trkpt lat="57.124302" lon="8.616111">
<ele>5.815772</ele>
<time>2026-07-15T09:09:38.000Z</time>
</trkpt>
<trkpt lat="57.124325" lon="8.616222">
<ele>5.808792</ele>
<time>2026-07-15T09:09:39.000Z</time>
</trkpt>
<trkpt lat="57.124348" lon="8.616333">
<ele>5.801813</ele>
<time>2026-07-15T09:09:40.000Z</time>
</trkpt>
<trkpt lat="57.124371" lon="8.616441">
<ele>5.794997</ele>
<time>2026-07-15T09:09:41.000Z</time>
</trkpt>
<trkpt lat="57.124394" lon="8.616552">
<ele>5.788017</ele>
<time>2026-07-15T09:09:42.000Z</time>
</trkpt>
<trkpt lat="57.124417" lon="8.616662">
<ele>5.781092</ele>
<time>2026-07-15T09:09:43.000Z</time>
</trkpt>
<trkpt lat="57.124440" lon="8.616772">
<ele>5.774167</ele>
<time>2026-07-15T09:09:44.000Z</time>
</trkpt>
<trkpt lat="57.124459" lon="8.616880">
<ele>5.767497</ele>
<time>2026-07-15T09:09:45.000Z</time>
</trkpt>
<trkpt lat="57.124482" lon="8.616988">
<ele>5.760682</ele>
<time>2026-07-15T09:09:46.000Z</time>
</trkpt>
<trkpt lat="57.124504" lon="8.617097">
<ele>5.753850</ele>
<time>2026-07-15T09:09:47.000Z</time>
</trkpt>
<trkpt lat="57.124527" lon="8.617200">
<ele>5.747307</ele>
<time>2026-07-15T09:09:48.000Z</time>
</trkpt>
<trkpt lat="57.124550" lon="8.617312">
<ele>5.740272</ele>
<time>2026-07-15T09:09:49.000Z</time>
</trkpt>
<trkpt lat="57.124573" lon="8.617418">
<ele>5.733566</ele>
<time>2026-07-15T09:09:50.000Z</time>
</trkpt>
<trkpt lat="57.124596" lon="8.617526">
<ele>5.726751</ele>
<time>2026-07-15T09:09:51.000Z</time>
</trkpt>
<trkpt lat="57.124618" lon="8.617631">
<ele>5.720139</ele>
<time>2026-07-15T09:09:52.000Z</time>
</trkpt>
<trkpt lat="57.124641" lon="8.617741">
<ele>5.713214</ele>
<time>2026-07-15T09:09:53.000Z</time>
</trkpt>
<trkpt lat="57.124661" lon="8.617853">
<ele>5.706287</ele>
<time>2026-07-15T09:09:54.000Z</time>
</trkpt>
<trkpt lat="57.124684" lon="8.617959">
<ele>5.699581</ele>
<time>2026-07-15T09:09:55.000Z</time>
</trkpt>
<trkpt lat="57.124710" lon="8.618066">
<ele>5.692694</ele>
<time>2026-07-15T09:09:56.000Z</time>
</trkpt>
<trkpt lat="57.124733" lon="8.618176">
<ele>5.685769</ele>
<time>2026-07-15T09:09:57.000Z</time>
</trkpt>
<trkpt lat="57.124752" lon="8.618281">
<ele>5.679267</ele>
<time>2026-07-15T09:09:58.000Z</time>
</trkpt>
<trkpt lat="57.124775" lon="8.618390">
<ele>5.672397</ele>
<time>2026-07-15T09:09:59.000Z</time>
</trkpt>
<trkpt lat="57.124798" lon="8.618495">
<ele>5.665745</ele>
<time>2026-07-15T09:10:00.000Z</time>
</trkpt>
<trkpt lat="57.124817" lon="8.618600">
<ele>5.659243</ele>
<time>2026-07-15T09:10:01.000Z</time>
</trkpt>
<trkpt lat="57.124840" lon="8.618709">
<ele>5.652373</ele>
<time>2026-07-15T09:10:02.000Z</time>
</trkpt>
<trkpt lat="57.124863" lon="8.618813">
<ele>5.645776</ele>
<time>2026-07-15T09:10:03.000Z</time>
</trkpt>
<trkpt lat="57.124886" lon="8.618923">
<ele>5.648658</ele>
<time>2026-07-15T09:10:04.000Z</time>
</trkpt>
<trkpt lat="57.124909" lon="8.619030">
<ele>5.670635</ele>
<time>2026-07-15T09:10:05.000Z</time>
</trkpt>
<trkpt lat="57.124928" lon="8.619137">
<ele>5.692133</ele>
<time>2026-07-15T09:10:06.000Z</time>
</trkpt>
<trkpt lat="57.124951" lon="8.619242">
<ele>5.713754</ele>
<time>2026-07-15T09:10:07.000Z</time>
</trkpt>
<trkpt lat="57.124973" lon="8.619347">
<ele>5.735247</ele>
<time>2026-07-15T09:10:08.000Z</time>
</trkpt>
<trkpt lat="57.124997" lon="8.619456">
<ele>5.757709</ele>
<time>2026-07-15T09:10:09.000Z</time>
</trkpt>
<trkpt lat="57.125016" lon="8.619562">
<ele>5.779025</ele>
<time>2026-07-15T09:10:10.000Z</time>
</trkpt>
<trkpt lat="57.125034" lon="8.619665">
<ele>5.799688</ele>
<time>2026-07-15T09:10:11.000Z</time>
</trkpt>
<trkpt lat="57.125046" lon="8.619784">
<ele>5.822801</ele>
<time>2026-07-15T09:10:12.000Z</time>
</trkpt>
<trkpt lat="57.125057" lon="8.619897">
<ele>5.844724</ele>
<time>2026-07-15T09:10:13.000Z</time>
</trkpt>
<trkpt lat="57.125065" lon="8.620010">
<ele>5.866485</ele>
<time>2026-07-15T09:10:14.000Z</time>
</trkpt>
<trkpt lat="57.125065" lon="8.620125">
<ele>5.888445</ele>
<time>2026-07-15T09:10:15.000Z</time>
</trkpt>
<trkpt lat="57.125069" lon="8.620239">
<ele>5.910260</ele>
<time>2026-07-15T09:10:16.000Z</time>
</trkpt>
<trkpt lat="57.125069" lon="8.620355">
<ele>5.932411</ele>
<time>2026-07-15T09:10:17.000Z</time>
</trkpt>
<trkpt lat="57.125069" lon="8.620470">
<ele>5.954371</ele>
<time>2026-07-15T09:10:18.000Z</time>
</trkpt>
<trkpt lat="57.125065" lon="8.620586">
<ele>5.976567</ele>
<time>2026-07-15T09:10:19.000Z</time>
</trkpt>
<trkpt lat="57.125057" lon="8.620700">
<ele>5.998517</ele>
<time>2026-07-15T09:10:20.000Z</time>
</trkpt>
<trkpt lat="57.125049" lon="8.620813">
<ele>6.020278</ele>
<time>2026-07-15T09:10:21.000Z</time>
</trkpt>
<trkpt lat="57.125034" lon="8.620924">
<ele>6.042121</ele>
<time>2026-07-15T09:10:22.000Z</time>
</trkpt>
<trkpt lat="57.125023" lon="8.621033">
<ele>6.063293</ele>
<time>2026-07-15T09:10:23.000Z</time>
</trkpt>
<trkpt lat="57.125010" lon="8.621116">
<ele>6.079789</ele>
<time>2026-07-15T09:10:24.000Z</time>
</trkpt>
<trkpt lat="57.124984" lon="8.621230">
<ele>6.103402</ele>
<time>2026-07-15T09:10:25.000Z</time>
</trkpt>
<trkpt lat="57.124961" lon="8.621307">
<ele>6.120185</ele>
<time>2026-07-15T09:10:26.000Z</time>
</trkpt>
<trkpt lat="57.124940" lon="8.621369">
<ele>6.134140</ele>
<time>2026-07-15T09:10:27.000Z</time>
</trkpt>
<trkpt lat="57.124927" lon="8.621422">
<ele>6.145246</ele>
<time>2026-07-15T09:10:28.000Z</time>
</trkpt>
<trkpt lat="57.124920" lon="8.621453">
<ele>6.151658</ele>
<time>2026-07-15T09:10:29.000Z</time>
</trkpt>
<trkpt lat="57.124889" lon="8.621545">
<ele>6.172336</ele>
<time>2026-07-15T09:11:42.000Z</time>
</trkpt>
<trkpt lat="57.124879" lon="8.621576">
<ele>6.179222</ele>
<time>2026-07-15T09:11:43.000Z</time>
</trkpt>
<trkpt lat="57.124866" lon="8.621617">
<ele>6.188289</ele>
<time>2026-07-15T09:11:44.000Z</time>
</trkpt>
<trkpt lat="57.124851" lon="8.621659">
<ele>6.197890</ele>
<time>2026-07-15T09:11:45.000Z</time>
</trkpt>
<trkpt lat="57.124836" lon="8.621709">
<ele>6.208799</ele>
<time>2026-07-15T09:11:46.000Z</time>
</trkpt>
<trkpt lat="57.124817" lon="8.621768">
<ele>6.221899</ele>
<time>2026-07-15T09:11:47.000Z</time>
</trkpt>
<trkpt lat="57.124801" lon="8.621828">
<ele>6.234664</ele>
<time>2026-07-15T09:11:48.000Z</time>
</trkpt>
<trkpt lat="57.124779" lon="8.621884">
<ele>6.247865</ele>
<time>2026-07-15T09:11:49.000Z</time>
</trkpt>
<trkpt lat="57.124753" lon="8.621941">
<ele>6.262083</ele>
<time>2026-07-15T09:11:50.000Z</time>
</trkpt>
<trkpt lat="57.124722" lon="8.621997">
<ele>6.271451</ele>
<time>2026-07-15T09:11:51.000Z</time>
</trkpt>
<trkpt lat="57.124690" lon="8.622059">
<ele>6.259746</ele>
<time>2026-07-15T09:11:52.000Z</time>
</trkpt>
<trkpt lat="57.124656" lon="8.622118">
<ele>6.247973</ele>
<time>2026-07-15T09:11:53.000Z</time>
</trkpt>
<trkpt lat="57.124626" lon="8.622179">
<ele>6.236712</ele>
<time>2026-07-15T09:11:54.000Z</time>
</trkpt>
<trkpt lat="57.124594" lon="8.622242">
<ele>6.224907</ele>
<time>2026-07-15T09:11:55.000Z</time>
</trkpt>
<trkpt lat="57.124561" lon="8.622313">
<ele>6.212119</ele>
<time>2026-07-15T09:11:56.000Z</time>
</trkpt>
<trkpt lat="57.124528" lon="8.622372">
<ele>6.200528</ele>
<time>2026-07-15T09:11:57.000Z</time>
</trkpt>
<trkpt lat="57.124492" lon="8.622435">
<ele>6.188013</ele>
<time>2026-07-15T09:11:58.000Z</time>
</trkpt>
<trkpt lat="57.124458" lon="8.622495">
<ele>6.176146</ele>
<time>2026-07-15T09:11:59.000Z</time>
</trkpt>
<trkpt lat="57.124423" lon="8.622548">
<ele>6.164726</ele>
<time>2026-07-15T09:12:00.000Z</time>
</trkpt>
<trkpt lat="57.124385" lon="8.622619">
<ele>6.151085</ele>
<time>2026-07-15T09:12:01.000Z</time>
</trkpt>
<trkpt lat="57.124353" lon="8.622682">
<ele>6.139280</ele>
<time>2026-07-15T09:12:02.000Z</time>
</trkpt>
<trkpt lat="57.124317" lon="8.622756">
<ele>6.125684</ele>
<time>2026-07-15T09:12:03.000Z</time>
</trkpt>
<trkpt lat="57.124283" lon="8.622824">
<ele>6.113035</ele>
<time>2026-07-15T09:12:04.000Z</time>
</trkpt>
<trkpt lat="57.124245" lon="8.622888">
<ele>6.100058</ele>
<time>2026-07-15T09:12:05.000Z</time>
</trkpt>
<trkpt lat="57.124206" lon="8.622956">
<ele>6.086524</ele>
<time>2026-07-15T09:12:06.000Z</time>
</trkpt>
<trkpt lat="57.124169" lon="8.623024">
<ele>6.073351</ele>
<time>2026-07-15T09:12:07.000Z</time>
</trkpt>
<trkpt lat="57.124130" lon="8.623098">
<ele>6.059239</ele>
<time>2026-07-15T09:12:08.000Z</time>
</trkpt>
<trkpt lat="57.124088" lon="8.623168">
<ele>6.044964</ele>
<time>2026-07-15T09:12:09.000Z</time>
</trkpt>
<trkpt lat="57.124051" lon="8.623237">
<ele>6.031694</ele>
<time>2026-07-15T09:12:10.000Z</time>
</trkpt>
<trkpt lat="57.124008" lon="8.623310">
<ele>6.016955</ele>
<time>2026-07-15T09:12:11.000Z</time>
</trkpt>
<trkpt lat="57.123966" lon="8.623383">
<ele>6.002401</ele>
<time>2026-07-15T09:12:12.000Z</time>
</trkpt>
<trkpt lat="57.123920" lon="8.623452">
<ele>5.987450</ele>
<time>2026-07-15T09:12:13.000Z</time>
</trkpt>
<trkpt lat="57.123878" lon="8.623525">
<ele>5.972896</ele>
<time>2026-07-15T09:12:14.000Z</time>
</trkpt>
<trkpt lat="57.123837" lon="8.623600">
<ele>5.958333</ele>
<time>2026-07-15T09:12:15.000Z</time>
</trkpt>
<trkpt lat="57.123798" lon="8.623680">
<ele>5.943621</ele>
<time>2026-07-15T09:12:16.000Z</time>
</trkpt>
<trkpt lat="57.123760" lon="8.623757">
<ele>5.929383</ele>
<time>2026-07-15T09:12:17.000Z</time>
</trkpt>
<trkpt lat="57.123721" lon="8.623833">
<ele>5.915074</ele>
<time>2026-07-15T09:12:18.000Z</time>
</trkpt>
<trkpt lat="57.123684" lon="8.623908">
<ele>5.901208</ele>
<time>2026-07-15T09:12:19.000Z</time>
</trkpt>
<trkpt lat="57.123642" lon="8.623979">
<ele>5.886840</ele>
<time>2026-07-15T09:12:20.000Z</time>
</trkpt>
<trkpt lat="57.123600" lon="8.624052">
<ele>5.872286</ele>
<time>2026-07-15T09:12:21.000Z</time>
</trkpt>
<trkpt lat="57.123560" lon="8.624121">
<ele>5.858474</ele>
<time>2026-07-15T09:12:22.000Z</time>
</trkpt>
<trkpt lat="57.123515" lon="8.624203">
<ele>5.842520</ele>
<time>2026-07-15T09:12:23.000Z</time>
</trkpt>
<trkpt lat="57.123474" lon="8.624283">
<ele>5.827467</ele>
<time>2026-07-15T09:12:24.000Z</time>
</trkpt>
<trkpt lat="57.123436" lon="8.624361">
<ele>5.806136</ele>
<time>2026-07-15T09:12:25.000Z</time>
</trkpt>
<trkpt lat="57.123397" lon="8.624435">
<ele>5.778768</ele>
<time>2026-07-15T09:12:26.000Z</time>
</trkpt>
<trkpt lat="57.123356" lon="8.624507">
<ele>5.751078</ele>
<time>2026-07-15T09:12:27.000Z</time>
</trkpt>
<trkpt lat="57.123314" lon="8.624586">
<ele>5.721736</ele>
<time>2026-07-15T09:12:28.000Z</time>
</trkpt>
<trkpt lat="57.123275" lon="8.624669">
<ele>5.692606</ele>
<time>2026-07-15T09:12:29.000Z</time>
</trkpt>
<trkpt lat="57.123237" lon="8.624749">
<ele>5.664398</ele>
<time>2026-07-15T09:12:30.000Z</time>
</trkpt>
<trkpt lat="57.123199" lon="8.624831">
<ele>5.635788</ele>
<time>2026-07-15T09:12:31.000Z</time>
</trkpt>
<trkpt lat="57.123161" lon="8.624915">
<ele>5.606773</ele>
<time>2026-07-15T09:12:32.000Z</time>
</trkpt>
<trkpt lat="57.123123" lon="8.624996">
<ele>5.578364</ele>
<time>2026-07-15T09:12:33.000Z</time>
</trkpt>
<trkpt lat="57.123084" lon="8.625078">
<ele>5.549435</ele>
<time>2026-07-15T09:12:34.000Z</time>
</trkpt>
<trkpt lat="57.123046" lon="8.625163">
<ele>5.520215</ele>
<time>2026-07-15T09:12:35.000Z</time>
</trkpt>
<trkpt lat="57.123009" lon="8.625245">
<ele>5.491920</ele>
<time>2026-07-15T09:12:36.000Z</time>
</trkpt>
<trkpt lat="57.122974" lon="8.625331">
<ele>5.463398</ele>
<time>2026-07-15T09:12:37.000Z</time>
</trkpt>
<trkpt lat="57.122940" lon="8.625418">
<ele>5.434951</ele>
<time>2026-07-15T09:12:38.000Z</time>
</trkpt>
<trkpt lat="57.122907" lon="8.625502">
<ele>5.407436</ele>
<time>2026-07-15T09:12:39.000Z</time>
</trkpt>
<trkpt lat="57.122878" lon="8.625595">
<ele>5.378976</ele>
<time>2026-07-15T09:12:40.000Z</time>
</trkpt>
<trkpt lat="57.122848" lon="8.625683">
<ele>5.351401</ele>
<time>2026-07-15T09:12:41.000Z</time>
</trkpt>
<trkpt lat="57.122821" lon="8.625771">
<ele>5.324578</ele>
<time>2026-07-15T09:12:42.000Z</time>
</trkpt>
<trkpt lat="57.122792" lon="8.625855">
<ele>5.298161</ele>
<time>2026-07-15T09:12:43.000Z</time>
</trkpt>
<trkpt lat="57.122764" lon="8.625947">
<ele>5.270173</ele>
<time>2026-07-15T09:12:44.000Z</time>
</trkpt>
<trkpt lat="57.122738" lon="8.626037">
<ele>5.243120</ele>
<time>2026-07-15T09:12:45.000Z</time>
</trkpt>
<trkpt lat="57.122711" lon="8.626132">
<ele>5.214664</ele>
<time>2026-07-15T09:12:46.000Z</time>
</trkpt>
<trkpt lat="57.122685" lon="8.626229">
<ele>5.185957</ele>
<time>2026-07-15T09:12:47.000Z</time>
</trkpt>
<trkpt lat="57.122662" lon="8.626326">
<ele>5.157869</ele>
<time>2026-07-15T09:12:48.000Z</time>
</trkpt>
<trkpt lat="57.122639" lon="8.626426">
<ele>5.129050</ele>
<time>2026-07-15T09:12:49.000Z</time>
</trkpt>
<trkpt lat="57.122619" lon="8.626525">
<ele>5.101019</ele>
<time>2026-07-15T09:12:50.000Z</time>
</trkpt>
<trkpt lat="57.122597" lon="8.626626">
<ele>5.072140</ele>
<time>2026-07-15T09:12:51.000Z</time>
</trkpt>
<trkpt lat="57.122570" lon="8.626727">
<ele>5.042265</ele>
<time>2026-07-15T09:12:52.000Z</time>
</trkpt>
<trkpt lat="57.122547" lon="8.626828">
<ele>5.013201</ele>
<time>2026-07-15T09:12:53.000Z</time>
</trkpt>
<trkpt lat="57.122525" lon="8.626924">
<ele>4.985549</ele>
<time>2026-07-15T09:12:54.000Z</time>
</trkpt>
<trkpt lat="57.122501" lon="8.627028">
<ele>4.955561</ele>
<time>2026-07-15T09:12:55.000Z</time>
</trkpt>
<trkpt lat="57.122478" lon="8.627130">
<ele>4.931737</ele>
<time>2026-07-15T09:12:56.000Z</time>
</trkpt>
<trkpt lat="57.122456" lon="8.627227">
<ele>4.913988</ele>
<time>2026-07-15T09:12:57.000Z</time>
</trkpt>
<trkpt lat="57.122436" lon="8.627333">
<ele>4.895041</ele>
<time>2026-07-15T09:12:58.000Z</time>
</trkpt>
<trkpt lat="57.122413" lon="8.627436">
<ele>4.876237</ele>
<time>2026-07-15T09:12:59.000Z</time>
</trkpt>
<trkpt lat="57.122394" lon="8.627541">
<ele>4.857551</ele>
<time>2026-07-15T09:13:00.000Z</time>
</trkpt>
<trkpt lat="57.122371" lon="8.627645">
<ele>4.838590</ele>
<time>2026-07-15T09:13:01.000Z</time>
</trkpt>
<trkpt lat="57.122356" lon="8.627750">
<ele>4.820259</ele>
<time>2026-07-15T09:13:02.000Z</time>
</trkpt>
<trkpt lat="57.122337" lon="8.627855">
<ele>4.801572</ele>
<time>2026-07-15T09:13:03.000Z</time>
</trkpt>
<trkpt lat="57.122318" lon="8.627960">
<ele>4.782886</ele>
<time>2026-07-15T09:13:04.000Z</time>
</trkpt>
<trkpt lat="57.122303" lon="8.628064">
<ele>4.764718</ele>
<time>2026-07-15T09:13:05.000Z</time>
</trkpt>
<trkpt lat="57.122288" lon="8.628170">
<ele>4.746223</ele>
<time>2026-07-15T09:13:06.000Z</time>
</trkpt>
<trkpt lat="57.122272" lon="8.628278">
<ele>4.727322</ele>
<time>2026-07-15T09:13:07.000Z</time>
</trkpt>
<trkpt lat="57.122257" lon="8.628381">
<ele>4.709317</ele>
<time>2026-07-15T09:13:08.000Z</time>
</trkpt>
<trkpt lat="57.122250" lon="8.628484">
<ele>4.691791</ele>
<time>2026-07-15T09:13:09.000Z</time>
</trkpt>
<trkpt lat="57.122238" lon="8.628590">
<ele>4.673509</ele>
<time>2026-07-15T09:13:10.000Z</time>
</trkpt>
<trkpt lat="57.122227" lon="8.628696">
<ele>4.655289</ele>
<time>2026-07-15T09:13:11.000Z</time>
</trkpt>
<trkpt lat="57.122215" lon="8.628802">
<ele>4.637007</ele>
<time>2026-07-15T09:13:12.000Z</time>
</trkpt>
<trkpt lat="57.122208" lon="8.628907">
<ele>4.619146</ele>
<time>2026-07-15T09:13:13.000Z</time>
</trkpt>
<trkpt lat="57.122200" lon="8.629017">
<ele>4.600408</ele>
<time>2026-07-15T09:13:14.000Z</time>
</trkpt>
<trkpt lat="57.122193" lon="8.629120">
<ele>4.582882</ele>
<time>2026-07-15T09:13:15.000Z</time>
</trkpt>
<trkpt lat="57.122185" lon="8.629230">
<ele>4.564144</ele>
<time>2026-07-15T09:13:16.000Z</time>
</trkpt>
<trkpt lat="57.122177" lon="8.629339">
<ele>4.545574</ele>
<time>2026-07-15T09:13:17.000Z</time>
</trkpt>
<trkpt lat="57.122166" lon="8.629446">
<ele>4.527187</ele>
<time>2026-07-15T09:13:18.000Z</time>
</trkpt>
<trkpt lat="57.122158" lon="8.629554">
<ele>4.508784</ele>
<time>2026-07-15T09:13:19.000Z</time>
</trkpt>
<trkpt lat="57.122147" lon="8.629658">
<ele>4.490894</ele>
<time>2026-07-15T09:13:20.000Z</time>
</trkpt>
<trkpt lat="57.122143" lon="8.629769">
<ele>4.472112</ele>
<time>2026-07-15T09:13:21.000Z</time>
</trkpt>
<trkpt lat="57.122135" lon="8.629880">
<ele>4.453207</ele>
<time>2026-07-15T09:13:22.000Z</time>
</trkpt>
<trkpt lat="57.122124" lon="8.629988">
<ele>4.434654</ele>
<time>2026-07-15T09:13:23.000Z</time>
</trkpt>
<trkpt lat="57.122112" lon="8.630093">
<ele>4.416538</ele>
<time>2026-07-15T09:13:24.000Z</time>
</trkpt>
<trkpt lat="57.122102" lon="8.630187">
<ele>4.400365</ele>
<time>2026-07-15T09:13:25.000Z</time>
</trkpt>
<trkpt lat="57.122093" lon="8.630313">
<ele>4.381865</ele>
<time>2026-07-15T09:13:26.000Z</time>
</trkpt>
<trkpt lat="57.122086" lon="8.630412">
<ele>4.381568</ele>
<time>2026-07-15T09:13:27.000Z</time>
</trkpt>
<trkpt lat="57.122078" lon="8.630531">
<ele>4.381211</ele>
<time>2026-07-15T09:13:28.000Z</time>
</trkpt>
<trkpt lat="57.122070" lon="8.630640">
<ele>4.380883</ele>
<time>2026-07-15T09:13:29.000Z</time>
</trkpt>
<trkpt lat="57.122059" lon="8.630749">
<ele>4.380553</ele>
<time>2026-07-15T09:13:30.000Z</time>
</trkpt>
<trkpt lat="57.122055" lon="8.630854">
<ele>4.380240</ele>
<time>2026-07-15T09:13:31.000Z</time>
</trkpt>
<trkpt lat="57.122048" lon="8.630958">
<ele>4.379928</ele>
<time>2026-07-15T09:13:32.000Z</time>
</trkpt>
<trkpt lat="57.122040" lon="8.631068">
<ele>4.379597</ele>
<time>2026-07-15T09:13:33.000Z</time>
</trkpt>
<trkpt lat="57.122032" lon="8.631170">
<ele>4.379291</ele>
<time>2026-07-15T09:13:34.000Z</time>
</trkpt>
<trkpt lat="57.122025" lon="8.631268">
<ele>4.378996</ele>
<time>2026-07-15T09:13:35.000Z</time>
</trkpt>
<trkpt lat="57.122013" lon="8.631369">
<ele>4.378688</ele>
<time>2026-07-15T09:13:36.000Z</time>
</trkpt>
<trkpt lat="57.122006" lon="8.631471">
<ele>4.378382</ele>
<time>2026-07-15T09:13:37.000Z</time>
</trkpt>
<trkpt lat="57.121998" lon="8.631578">
<ele>4.378061</ele>
<time>2026-07-15T09:13:38.000Z</time>
</trkpt>
<trkpt lat="57.121990" lon="8.631680">
<ele>4.377754</ele>
<time>2026-07-15T09:13:39.000Z</time>
</trkpt>
<trkpt lat="57.121983" lon="8.631784">
<ele>4.377442</ele>
<time>2026-07-15T09:13:40.000Z</time>
</trkpt>
<trkpt lat="57.121975" lon="8.631888">
<ele>4.377129</ele>
<time>2026-07-15T09:13:41.000Z</time>
</trkpt>
<trkpt lat="57.121967" lon="8.631992">
<ele>4.376817</ele>
<time>2026-07-15T09:13:42.000Z</time>
</trkpt>
<trkpt lat="57.121960" lon="8.632098">
<ele>4.376499</ele>
<time>2026-07-15T09:13:43.000Z</time>
</trkpt>
<trkpt lat="57.121952" lon="8.632201">
<ele>4.376189</ele>
<time>2026-07-15T09:13:44.000Z</time>
</trkpt>
<trkpt lat="57.121944" lon="8.632306">
<ele>4.375873</ele>
<time>2026-07-15T09:13:45.000Z</time>
</trkpt>
<trkpt lat="57.121934" lon="8.632397">
<ele>4.375597</ele>
<time>2026-07-15T09:13:46.000Z</time>
</trkpt>
<trkpt lat="57.121925" lon="8.632505">
<ele>4.375271</ele>
<time>2026-07-15T09:13:47.000Z</time>
</trkpt>
<trkpt lat="57.121918" lon="8.632605">
<ele>4.374971</ele>
<time>2026-07-15T09:13:48.000Z</time>
</trkpt>
<trkpt lat="57.121910" lon="8.632706">
<ele>4.374667</ele>
<time>2026-07-15T09:13:49.000Z</time>
</trkpt>
<trkpt lat="57.121898" lon="8.632805">
<ele>4.374365</ele>
<time>2026-07-15T09:13:50.000Z</time>
</trkpt>
<trkpt lat="57.121891" lon="8.632900">
<ele>4.374080</ele>
<time>2026-07-15T09:13:51.000Z</time>
</trkpt>
<trkpt lat="57.121883" lon="8.632995">
<ele>4.373794</ele>
<time>2026-07-15T09:13:52.000Z</time>
</trkpt>
<trkpt lat="57.121880" lon="8.633083">
<ele>4.373531</ele>
<time>2026-07-15T09:13:53.000Z</time>
</trkpt>
<trkpt lat="57.121872" lon="8.633173">
<ele>4.373260</ele>
<time>2026-07-15T09:13:54.000Z</time>
</trkpt>
<trkpt lat="57.121872" lon="8.633266">
<ele>4.372983</ele>
<time>2026-07-15T09:13:55.000Z</time>
</trkpt>
<trkpt lat="57.121876" lon="8.633359">
<ele>4.372705</ele>
<time>2026-07-15T09:13:56.000Z</time>
</trkpt>
<trkpt lat="57.121880" lon="8.633447">
<ele>4.372442</ele>
<time>2026-07-15T09:13:57.000Z</time>
</trkpt>
<trkpt lat="57.121883" lon="8.633541">
<ele>4.372162</ele>
<time>2026-07-15T09:13:58.000Z</time>
</trkpt>
<trkpt lat="57.121891" lon="8.633630">
<ele>4.383337</ele>
<time>2026-07-15T09:13:59.000Z</time>
</trkpt>
<trkpt lat="57.121903" lon="8.633722">
<ele>4.403160</ele>
<time>2026-07-15T09:14:00.000Z</time>
</trkpt>
<trkpt lat="57.121910" lon="8.633810">
<ele>4.421793</ele>
<time>2026-07-15T09:14:01.000Z</time>
</trkpt>
<trkpt lat="57.121918" lon="8.633903">
<ele>4.441520</ele>
<time>2026-07-15T09:14:02.000Z</time>
</trkpt>
<trkpt lat="57.121922" lon="8.633992">
<ele>4.460230</ele>
<time>2026-07-15T09:14:03.000Z</time>
</trkpt>
<trkpt lat="57.121929" lon="8.634080">
<ele>4.478863</ele>
<time>2026-07-15T09:14:04.000Z</time>
</trkpt>
<trkpt lat="57.121937" lon="8.634173">
<ele>4.498590</ele>
<time>2026-07-15T09:14:05.000Z</time>
</trkpt>
<trkpt lat="57.121948" lon="8.634267">
<ele>4.518736</ele>
<time>2026-07-15T09:14:06.000Z</time>
</trkpt>
<trkpt lat="57.121956" lon="8.634365">
<ele>4.539498</ele>
<time>2026-07-15T09:14:07.000Z</time>
</trkpt>
<trkpt lat="57.121960" lon="8.634472">
<ele>4.561968</ele>
<time>2026-07-15T09:14:08.000Z</time>
</trkpt>
<trkpt lat="57.121960" lon="8.634578">
<ele>4.584176</ele>
<time>2026-07-15T09:14:09.000Z</time>
</trkpt>
<trkpt lat="57.121956" lon="8.634685">
<ele>4.606646</ele>
<time>2026-07-15T09:14:10.000Z</time>
</trkpt>
<trkpt lat="57.121948" lon="8.634788">
<ele>4.628444</ele>
<time>2026-07-15T09:14:11.000Z</time>
</trkpt>
<trkpt lat="57.121944" lon="8.634893">
<ele>4.650497</ele>
<time>2026-07-15T09:14:12.000Z</time>
</trkpt>
<trkpt lat="57.121931" lon="8.634982">
<ele>4.669806</ele>
<time>2026-07-15T09:14:13.000Z</time>
</trkpt>
<trkpt lat="57.121918" lon="8.635063">
<ele>4.687502</ele>
<time>2026-07-15T09:14:14.000Z</time>
</trkpt>
<trkpt lat="57.121891" lon="8.635178">
<ele>4.713752</ele>
<time>2026-07-15T09:14:15.000Z</time>
</trkpt>
<trkpt lat="57.121868" lon="8.635265">
<ele>4.734025</ele>
<time>2026-07-15T09:14:16.000Z</time>
</trkpt>
<trkpt lat="57.121841" lon="8.635346">
<ele>4.753939</ele>
<time>2026-07-15T09:14:17.000Z</time>
</trkpt>
<trkpt lat="57.121819" lon="8.635427">
<ele>4.772914</ele>
<time>2026-07-15T09:14:18.000Z</time>
</trkpt>
<trkpt lat="57.121796" lon="8.635509">
<ele>4.792251</ele>
<time>2026-07-15T09:14:19.000Z</time>
</trkpt>
<trkpt lat="57.121780" lon="8.635599">
<ele>4.812092</ele>
<time>2026-07-15T09:14:20.000Z</time>
</trkpt>
<trkpt lat="57.121765" lon="8.635689">
<ele>4.831816</ele>
<time>2026-07-15T09:14:21.000Z</time>
</trkpt>
<trkpt lat="57.121750" lon="8.635782">
<ele>4.852142</ele>
<time>2026-07-15T09:14:22.000Z</time>
</trkpt>
<trkpt lat="57.121742" lon="8.635875">
<ele>4.871869</ele>
<time>2026-07-15T09:14:23.000Z</time>
</trkpt>
<trkpt lat="57.121742" lon="8.635971">
<ele>4.891982</ele>
<time>2026-07-15T09:14:24.000Z</time>
</trkpt>
<trkpt lat="57.121742" lon="8.636071">
<ele>4.912932</ele>
<time>2026-07-15T09:14:25.000Z</time>
</trkpt>
<trkpt lat="57.121746" lon="8.636167">
<ele>4.933104</ele>
<time>2026-07-15T09:14:26.000Z</time>
</trkpt>
<trkpt lat="57.121750" lon="8.636262">
<ele>4.953067</ele>
<time>2026-07-15T09:14:27.000Z</time>
</trkpt>
<trkpt lat="57.121750" lon="8.636353">
<ele>4.972132</ele>
<time>2026-07-15T09:14:28.000Z</time>
</trkpt>
<trkpt lat="57.121743" lon="8.636428">
<ele>4.988075</ele>
<time>2026-07-15T09:14:29.000Z</time>
</trkpt>
<trkpt lat="57.121738" lon="8.636519">
<ele>5.007238</ele>
<time>2026-07-15T09:14:30.000Z</time>
</trkpt>
<trkpt lat="57.121727" lon="8.636597">
<ele>5.024122</ele>
<time>2026-07-15T09:14:31.000Z</time>
</trkpt>
<trkpt lat="57.121723" lon="8.636686">
<ele>5.042832</ele>
<time>2026-07-15T09:14:32.000Z</time>
</trkpt>
<trkpt lat="57.121712" lon="8.636772">
<ele>5.061342</ele>
<time>2026-07-15T09:14:33.000Z</time>
</trkpt>
<trkpt lat="57.121708" lon="8.636857">
<ele>5.080110</ele>
<time>2026-07-15T09:14:34.000Z</time>
</trkpt>
<trkpt lat="57.121700" lon="8.636948">
<ele>5.100748</ele>
<time>2026-07-15T09:14:35.000Z</time>
</trkpt>
<trkpt lat="57.121693" lon="8.637039">
<ele>5.121324</ele>
<time>2026-07-15T09:14:36.000Z</time>
</trkpt>
<trkpt lat="57.121685" lon="8.637130">
<ele>5.141962</ele>
<time>2026-07-15T09:14:37.000Z</time>
</trkpt>
<trkpt lat="57.121674" lon="8.637219">
<ele>5.162397</ele>
<time>2026-07-15T09:14:38.000Z</time>
</trkpt>
<trkpt lat="57.121666" lon="8.637306">
<ele>5.182152</ele>
<time>2026-07-15T09:14:39.000Z</time>
</trkpt>
<trkpt lat="57.121658" lon="8.637394">
<ele>5.202128</ele>
<time>2026-07-15T09:14:40.000Z</time>
</trkpt>
<trkpt lat="57.121651" lon="8.637479">
<ele>5.221375</ele>
<time>2026-07-15T09:14:41.000Z</time>
</trkpt>
<trkpt lat="57.121639" lon="8.637565">
<ele>5.241254</ele>
<time>2026-07-15T09:14:42.000Z</time>
</trkpt>
<trkpt lat="57.121632" lon="8.637652">
<ele>5.260945</ele>
<time>2026-07-15T09:14:43.000Z</time>
</trkpt>
<trkpt lat="57.121620" lon="8.637740">
<ele>5.281258</ele>
<time>2026-07-15T09:14:44.000Z</time>
</trkpt>
<trkpt lat="57.121612" lon="8.637828">
<ele>5.301233</ele>
<time>2026-07-15T09:14:45.000Z</time>
</trkpt>
<trkpt lat="57.121605" lon="8.637910">
<ele>5.319817</ele>
<time>2026-07-15T09:14:46.000Z</time>
</trkpt>
<trkpt lat="57.121594" lon="8.637995">
<ele>5.339380</ele>
<time>2026-07-15T09:14:47.000Z</time>
</trkpt>
<trkpt lat="57.121582" lon="8.638083">
<ele>5.359693</ele>
<time>2026-07-15T09:14:48.000Z</time>
</trkpt>
<trkpt lat="57.121570" lon="8.638168">
<ele>5.379356</ele>
<time>2026-07-15T09:14:49.000Z</time>
</trkpt>
<trkpt lat="57.121559" lon="8.638252">
<ele>5.398701</ele>
<time>2026-07-15T09:14:50.000Z</time>
</trkpt>
<trkpt lat="57.121552" lon="8.638333">
<ele>5.417063</ele>
<time>2026-07-15T09:14:51.000Z</time>
</trkpt>
<trkpt lat="57.121540" lon="8.638415">
<ele>5.436077</ele>
<time>2026-07-15T09:14:52.000Z</time>
</trkpt>
<trkpt lat="57.121532" lon="8.638496">
<ele>5.454509</ele>
<time>2026-07-15T09:14:53.000Z</time>
</trkpt>
<trkpt lat="57.121517" lon="8.638578">
<ele>5.473881</ele>
<time>2026-07-15T09:14:54.000Z</time>
</trkpt>
<trkpt lat="57.121498" lon="8.638658">
<ele>5.493430</ele>
<time>2026-07-15T09:14:55.000Z</time>
</trkpt>
<trkpt lat="57.121486" lon="8.638743">
<ele>5.513093</ele>
<time>2026-07-15T09:14:56.000Z</time>
</trkpt>
<trkpt lat="57.121464" lon="8.638827">
<ele>5.533973</ele>
<time>2026-07-15T09:14:57.000Z</time>
</trkpt>
<trkpt lat="57.121445" lon="8.638912">
<ele>5.554553</ele>
<time>2026-07-15T09:14:58.000Z</time>
</trkpt>
<trkpt lat="57.121425" lon="8.638996">
<ele>5.575088</ele>
<time>2026-07-15T09:14:59.000Z</time>
</trkpt>
<trkpt lat="57.121406" lon="8.639079">
<ele>5.595254</ele>
<time>2026-07-15T09:15:00.000Z</time>
</trkpt>
<trkpt lat="57.121384" lon="8.639159">
<ele>5.615332</ele>
<time>2026-07-15T09:15:01.000Z</time>
</trkpt>
<trkpt lat="57.121360" lon="8.639245">
<ele>5.636980</ele>
<time>2026-07-15T09:15:02.000Z</time>
</trkpt>
<trkpt lat="57.121337" lon="8.639329">
<ele>5.658043</ele>
<time>2026-07-15T09:15:03.000Z</time>
</trkpt>
<trkpt lat="57.121319" lon="8.639408">
<ele>5.677224</ele>
<time>2026-07-15T09:15:04.000Z</time>
</trkpt>
<trkpt lat="57.121303" lon="8.639486">
<ele>5.695892</ele>
<time>2026-07-15T09:15:05.000Z</time>
</trkpt>
<trkpt lat="57.121292" lon="8.639559">
<ele>5.712853</ele>
<time>2026-07-15T09:15:06.000Z</time>
</trkpt>
<trkpt lat="57.121285" lon="8.639632">
<ele>5.729449</ele>
<time>2026-07-15T09:15:07.000Z</time>
</trkpt>
<trkpt lat="57.121273" lon="8.639705">
<ele>5.746525</ele>
<time>2026-07-15T09:15:08.000Z</time>
</trkpt>
<trkpt lat="57.121261" lon="8.639771">
<ele>5.762108</ele>
<time>2026-07-15T09:15:09.000Z</time>
</trkpt>
<trkpt lat="57.121246" lon="8.639836">
<ele>5.777920</ele>
<time>2026-07-15T09:15:10.000Z</time>
</trkpt>
<trkpt lat="57.121235" lon="8.639906">
<ele>5.794235</ele>
<time>2026-07-15T09:15:11.000Z</time>
</trkpt>
<trkpt lat="57.121224" lon="8.639975">
<ele>5.807006</ele>
<time>2026-07-15T09:15:12.000Z</time>
</trkpt>
<trkpt lat="57.121204" lon="8.640055">
<ele>5.798852</ele>
<time>2026-07-15T09:15:13.000Z</time>
</trkpt>
<trkpt lat="57.121185" lon="8.640132">
<ele>5.791021</ele>
<time>2026-07-15T09:15:14.000Z</time>
</trkpt>
<trkpt lat="57.121162" lon="8.640214">
<ele>5.782476</ele>
<time>2026-07-15T09:15:15.000Z</time>
</trkpt>
<trkpt lat="57.121144" lon="8.640294">
<ele>5.774458</ele>
<time>2026-07-15T09:15:16.000Z</time>
</trkpt>
<trkpt lat="57.121125" lon="8.640381">
<ele>5.765776</ele>
<time>2026-07-15T09:15:17.000Z</time>
</trkpt>
<trkpt lat="57.121101" lon="8.640475">
<ele>5.756158</ele>
<time>2026-07-15T09:15:18.000Z</time>
</trkpt>
<trkpt lat="57.121082" lon="8.640565">
<ele>5.747218</ele>
<time>2026-07-15T09:15:19.000Z</time>
</trkpt>
<trkpt lat="57.121063" lon="8.640658">
<ele>5.738018</ele>
<time>2026-07-15T09:15:20.000Z</time>
</trkpt>
<trkpt lat="57.121040" lon="8.640754">
<ele>5.728303</ele>
<time>2026-07-15T09:15:21.000Z</time>
</trkpt>
<trkpt lat="57.121021" lon="8.640847">
<ele>5.719103</ele>
<time>2026-07-15T09:15:22.000Z</time>
</trkpt>
<trkpt lat="57.121003" lon="8.640940">
<ele>5.709962</ele>
<time>2026-07-15T09:15:23.000Z</time>
</trkpt>
<trkpt lat="57.120983" lon="8.641037">
<ele>5.700355</ele>
<time>2026-07-15T09:15:24.000Z</time>
</trkpt>
<trkpt lat="57.120960" lon="8.641137">
<ele>5.690300</ele>
<time>2026-07-15T09:15:25.000Z</time>
</trkpt>
<trkpt lat="57.120937" lon="8.641238">
<ele>5.680160</ele>
<time>2026-07-15T09:15:26.000Z</time>
</trkpt>
<trkpt lat="57.120914" lon="8.641339">
<ele>5.670019</ele>
<time>2026-07-15T09:15:27.000Z</time>
</trkpt>
<trkpt lat="57.120895" lon="8.641436">
<ele>5.660472</ele>
<time>2026-07-15T09:15:28.000Z</time>
</trkpt>
<trkpt lat="57.120872" lon="8.641536">
<ele>5.650417</ele>
<time>2026-07-15T09:15:29.000Z</time>
</trkpt>
<trkpt lat="57.120853" lon="8.641635">
<ele>5.640695</ele>
<time>2026-07-15T09:15:30.000Z</time>
</trkpt>
<trkpt lat="57.120831" lon="8.641731">
<ele>5.631048</ele>
<time>2026-07-15T09:15:31.000Z</time>
</trkpt>
<trkpt lat="57.120811" lon="8.641832">
<ele>5.621094</ele>
<time>2026-07-15T09:15:32.000Z</time>
</trkpt>
<trkpt lat="57.120792" lon="8.641930">
<ele>5.611459</ele>
<time>2026-07-15T09:15:33.000Z</time>
</trkpt>
<trkpt lat="57.120769" lon="8.642030">
<ele>5.601404</ele>
<time>2026-07-15T09:15:34.000Z</time>
</trkpt>
<trkpt lat="57.120750" lon="8.642129">
<ele>5.591682</ele>
<time>2026-07-15T09:15:35.000Z</time>
</trkpt>
<trkpt lat="57.120732" lon="8.642226">
<ele>5.582191</ele>
<time>2026-07-15T09:15:36.000Z</time>
</trkpt>
<trkpt lat="57.120709" lon="8.642325">
<ele>5.572222</ele>
<time>2026-07-15T09:15:37.000Z</time>
</trkpt>
<trkpt lat="57.120690" lon="8.642422">
<ele>5.562674</ele>
<time>2026-07-15T09:15:38.000Z</time>
</trkpt>
<trkpt lat="57.120667" lon="8.642521">
<ele>5.552704</ele>
<time>2026-07-15T09:15:39.000Z</time>
</trkpt>
<trkpt lat="57.120649" lon="8.642616">
<ele>5.543388</ele>
<time>2026-07-15T09:15:40.000Z</time>
</trkpt>
<trkpt lat="57.120628" lon="8.642724">
<ele>5.532767</ele>
<time>2026-07-15T09:15:41.000Z</time>
</trkpt>
<trkpt lat="57.120605" lon="8.642823">
<ele>5.522797</ele>
<time>2026-07-15T09:15:42.000Z</time>
</trkpt>
<trkpt lat="57.120583" lon="8.642920">
<ele>5.513064</ele>
<time>2026-07-15T09:15:43.000Z</time>
</trkpt>
<trkpt lat="57.120563" lon="8.643019">
<ele>5.503284</ele>
<time>2026-07-15T09:15:44.000Z</time>
</trkpt>
<trkpt lat="57.120540" lon="8.643118">
<ele>5.510548</ele>
<time>2026-07-15T09:15:45.000Z</time>
</trkpt>
<trkpt lat="57.120517" lon="8.643217">
<ele>5.522290</ele>
<time>2026-07-15T09:15:46.000Z</time>
</trkpt>
<trkpt lat="57.120495" lon="8.643314">
<ele>5.533752</ele>
<time>2026-07-15T09:15:47.000Z</time>
</trkpt>
<trkpt lat="57.120476" lon="8.643414">
<ele>5.545305</ele>
<time>2026-07-15T09:15:48.000Z</time>
</trkpt>
<trkpt lat="57.120456" lon="8.643509">
<ele>5.556415</ele>
<time>2026-07-15T09:15:49.000Z</time>
</trkpt>
<trkpt lat="57.120434" lon="8.643605">
<ele>5.567777</ele>
<time>2026-07-15T09:15:50.000Z</time>
</trkpt>
<trkpt lat="57.120411" lon="8.643702">
<ele>5.579319</ele>
<time>2026-07-15T09:15:51.000Z</time>
</trkpt>
<trkpt lat="57.120391" lon="8.643802">
<ele>5.590939</ele>
<time>2026-07-15T09:15:52.000Z</time>
</trkpt>
<trkpt lat="57.120369" lon="8.643898">
<ele>5.602302</ele>
<time>2026-07-15T09:15:53.000Z</time>
</trkpt>
<trkpt lat="57.120350" lon="8.643994">
<ele>5.613443</ele>
<time>2026-07-15T09:15:54.000Z</time>
</trkpt>
<trkpt lat="57.120327" lon="8.644090">
<ele>5.624885</ele>
<time>2026-07-15T09:15:55.000Z</time>
</trkpt>
<trkpt lat="57.120308" lon="8.644187">
<ele>5.636129</ele>
<time>2026-07-15T09:15:56.000Z</time>
</trkpt>
<trkpt lat="57.120289" lon="8.644282">
<ele>5.647169</ele>
<time>2026-07-15T09:15:57.000Z</time>
</trkpt>
<trkpt lat="57.120266" lon="8.644383">
<ele>5.659111</ele>
<time>2026-07-15T09:15:58.000Z</time>
</trkpt>
<trkpt lat="57.120243" lon="8.644478">
<ele>5.670453</ele>
<time>2026-07-15T09:15:59.000Z</time>
</trkpt>
<trkpt lat="57.120220" lon="8.644579">
<ele>5.682396</ele>
<time>2026-07-15T09:16:00.000Z</time>
</trkpt>
<trkpt lat="57.120193" lon="8.644677">
<ele>5.694379</ele>
<time>2026-07-15T09:16:01.000Z</time>
</trkpt>
<trkpt lat="57.120166" lon="8.644773">
<ele>5.706169</ele>
<time>2026-07-15T09:16:02.000Z</time>
</trkpt>
<trkpt lat="57.120144" lon="8.644865">
<ele>5.717130</ele>
<time>2026-07-15T09:16:03.000Z</time>
</trkpt>
<trkpt lat="57.120117" lon="8.644958">
<ele>5.728630</ele>
<time>2026-07-15T09:16:04.000Z</time>
</trkpt>
<trkpt lat="57.120090" lon="8.645049">
<ele>5.739938</ele>
<time>2026-07-15T09:16:05.000Z</time>
</trkpt>
<trkpt lat="57.120063" lon="8.645143">
<ele>5.751534</ele>
<time>2026-07-15T09:16:06.000Z</time>
</trkpt>
<trkpt lat="57.120041" lon="8.645235">
<ele>5.762496</ele>
<time>2026-07-15T09:16:07.000Z</time>
</trkpt>
<trkpt lat="57.120010" lon="8.645338">
<ele>5.775337</ele>
<time>2026-07-15T09:16:08.000Z</time>
</trkpt>
<trkpt lat="57.119980" lon="8.645441">
<ele>5.788083</ele>
<time>2026-07-15T09:16:09.000Z</time>
</trkpt>
<trkpt lat="57.119954" lon="8.645538">
<ele>5.799879</ele>
<time>2026-07-15T09:16:10.000Z</time>
</trkpt>
<trkpt lat="57.119927" lon="8.645641">
<ele>5.812351</ele>
<time>2026-07-15T09:16:11.000Z</time>
</trkpt>
<trkpt lat="57.119903" lon="8.645743">
<ele>5.824472</ele>
<time>2026-07-15T09:16:12.000Z</time>
</trkpt>
<trkpt lat="57.119877" lon="8.645835">
<ele>5.835782</ele>
<time>2026-07-15T09:16:13.000Z</time>
</trkpt>
<trkpt lat="57.119854" lon="8.645932">
<ele>5.847324</ele>
<time>2026-07-15T09:16:14.000Z</time>
</trkpt>
<trkpt lat="57.119831" lon="8.646027">
<ele>5.858666</ele>
<time>2026-07-15T09:16:15.000Z</time>
</trkpt>
<trkpt lat="57.119808" lon="8.646123">
<ele>5.835701</ele>
<time>2026-07-15T09:16:16.000Z</time>
</trkpt>
<trkpt lat="57.119782" lon="8.646216">
<ele>5.795565</ele>
<time>2026-07-15T09:16:17.000Z</time>
</trkpt>
<trkpt lat="57.119758" lon="8.646313">
<ele>5.754666</ele>
<time>2026-07-15T09:16:18.000Z</time>
</trkpt>
<trkpt lat="57.119735" lon="8.646409">
<ele>5.714405</ele>
<time>2026-07-15T09:16:19.000Z</time>
</trkpt>
<trkpt lat="57.119713" lon="8.646503">
<ele>5.675131</ele>
<time>2026-07-15T09:16:20.000Z</time>
</trkpt>
<trkpt lat="57.119690" lon="8.646595">
<ele>5.636269</ele>
<time>2026-07-15T09:16:21.000Z</time>
</trkpt>
<trkpt lat="57.119665" lon="8.646690">
<ele>5.595763</ele>
<time>2026-07-15T09:16:22.000Z</time>
</trkpt>
<trkpt lat="57.119636" lon="8.646796">
<ele>5.550221</ele>
<time>2026-07-15T09:16:23.000Z</time>
</trkpt>
<trkpt lat="57.119609" lon="8.646900">
<ele>5.505990</ele>
<time>2026-07-15T09:16:24.000Z</time>
</trkpt>
<trkpt lat="57.119583" lon="8.647005">
<ele>5.461711</ele>
<time>2026-07-15T09:16:25.000Z</time>
</trkpt>
<trkpt lat="57.119556" lon="8.647107">
<ele>5.418171</ele>
<time>2026-07-15T09:16:26.000Z</time>
</trkpt>
<trkpt lat="57.119534" lon="8.647197">
<ele>5.380301</ele>
<time>2026-07-15T09:16:27.000Z</time>
</trkpt>
<trkpt lat="57.119503" lon="8.647319">
<ele>5.328619</ele>
<time>2026-07-15T09:16:28.000Z</time>
</trkpt>
<trkpt lat="57.119476" lon="8.647422">
<ele>5.284734</ele>
<time>2026-07-15T09:16:29.000Z</time>
</trkpt>
<trkpt lat="57.119449" lon="8.647528">
<ele>5.239810</ele>
<time>2026-07-15T09:16:30.000Z</time>
</trkpt>
<trkpt lat="57.119423" lon="8.647634">
<ele>5.195181</ele>
<time>2026-07-15T09:16:31.000Z</time>
</trkpt>
<trkpt lat="57.119398" lon="8.647735">
<ele>5.152591</ele>
<time>2026-07-15T09:16:32.000Z</time>
</trkpt>
<trkpt lat="57.119366" lon="8.647853">
<ele>5.101982</ele>
<time>2026-07-15T09:16:33.000Z</time>
</trkpt>
<trkpt lat="57.119336" lon="8.647966">
<ele>5.053720</ele>
<time>2026-07-15T09:16:34.000Z</time>
</trkpt>
<trkpt lat="57.119308" lon="8.648083">
<ele>5.004661</ele>
<time>2026-07-15T09:16:35.000Z</time>
</trkpt>
<trkpt lat="57.119282" lon="8.648197">
<ele>4.957218</ele>
<time>2026-07-15T09:16:36.000Z</time>
</trkpt>
<trkpt lat="57.119259" lon="8.648307">
<ele>4.911991</ele>
<time>2026-07-15T09:16:37.000Z</time>
</trkpt>
<trkpt lat="57.119237" lon="8.648421">
<ele>4.865569</ele>
<time>2026-07-15T09:16:38.000Z</time>
</trkpt>
<trkpt lat="57.119213" lon="8.648537">
<ele>4.817940</ele>
<time>2026-07-15T09:16:39.000Z</time>
</trkpt>
<trkpt lat="57.119198" lon="8.648652">
<ele>4.772560</ele>
<time>2026-07-15T09:16:40.000Z</time>
</trkpt>
<trkpt lat="57.119179" lon="8.648764">
<ele>4.727539</ele>
<time>2026-07-15T09:16:41.000Z</time>
</trkpt>
<trkpt lat="57.119160" lon="8.648878">
<ele>4.681784</ele>
<time>2026-07-15T09:16:42.000Z</time>
</trkpt>
<trkpt lat="57.119145" lon="8.648994">
<ele>4.636031</ele>
<time>2026-07-15T09:16:43.000Z</time>
</trkpt>
<trkpt lat="57.119126" lon="8.649105">
<ele>4.591376</ele>
<time>2026-07-15T09:16:44.000Z</time>
</trkpt>
<trkpt lat="57.119110" lon="8.649224">
<ele>4.672544</ele>
<time>2026-07-15T09:16:45.000Z</time>
</trkpt>
<trkpt lat="57.119091" lon="8.649333">
<ele>4.748478</ele>
<time>2026-07-15T09:16:46.000Z</time>
</trkpt>
<trkpt lat="57.119072" lon="8.649442">
<ele>4.824412</ele>
<time>2026-07-15T09:16:47.000Z</time>
</trkpt>
<trkpt lat="57.119053" lon="8.649553">
<ele>4.901611</ele>
<time>2026-07-15T09:16:48.000Z</time>
</trkpt>
<trkpt lat="57.119034" lon="8.649661">
<ele>4.976914</ele>
<time>2026-07-15T09:16:49.000Z</time>
</trkpt>
<trkpt lat="57.119007" lon="8.649767">
<ele>5.054577</ele>
<time>2026-07-15T09:16:50.000Z</time>
</trkpt>
<trkpt lat="57.118976" lon="8.649866">
<ele>5.130382</ele>
<time>2026-07-15T09:16:51.000Z</time>
</trkpt>
<trkpt lat="57.118947" lon="8.649959">
<ele>5.201520</ele>
<time>2026-07-15T09:16:52.000Z</time>
</trkpt>
<trkpt lat="57.118915" lon="8.650049">
<ele>5.272880</ele>
<time>2026-07-15T09:16:53.000Z</time>
</trkpt>
<trkpt lat="57.118881" lon="8.650157">
<ele>5.355689</ele>
<time>2026-07-15T09:16:54.000Z</time>
</trkpt>
<trkpt lat="57.118847" lon="8.650253">
<ele>5.431717</ele>
<time>2026-07-15T09:16:55.000Z</time>
</trkpt>
<trkpt lat="57.118812" lon="8.650357">
<ele>5.512878</ele>
<time>2026-07-15T09:16:56.000Z</time>
</trkpt>
<trkpt lat="57.118779" lon="8.650451">
<ele>5.587128</ele>
<time>2026-07-15T09:16:57.000Z</time>
</trkpt>
<trkpt lat="57.118743" lon="8.650555">
<ele>5.668940</ele>
<time>2026-07-15T09:16:58.000Z</time>
</trkpt>
<trkpt lat="57.118714" lon="8.650651">
<ele>5.741811</ele>
<time>2026-07-15T09:16:59.000Z</time>
</trkpt>
<trkpt lat="57.118679" lon="8.650755">
<ele>5.822973</ele>
<time>2026-07-15T09:17:00.000Z</time>
</trkpt>
<trkpt lat="57.118645" lon="8.650856">
<ele>5.901800</ele>
<time>2026-07-15T09:17:01.000Z</time>
</trkpt>
<trkpt lat="57.118614" lon="8.650953">
<ele>5.976460</ele>
<time>2026-07-15T09:17:02.000Z</time>
</trkpt>
<trkpt lat="57.118583" lon="8.651044">
<ele>6.047719</ele>
<time>2026-07-15T09:17:03.000Z</time>
</trkpt>
<trkpt lat="57.118556" lon="8.651130">
<ele>6.113614</ele>
<time>2026-07-15T09:17:04.000Z</time>
</trkpt>
<trkpt lat="57.118526" lon="8.651211">
<ele>6.178653</ele>
<time>2026-07-15T09:17:05.000Z</time>
</trkpt>
<trkpt lat="57.118495" lon="8.651295">
<ele>6.246025</ele>
<time>2026-07-15T09:17:06.000Z</time>
</trkpt>
<trkpt lat="57.118466" lon="8.651376">
<ele>6.310383</ele>
<time>2026-07-15T09:17:07.000Z</time>
</trkpt>
<trkpt lat="57.118438" lon="8.651461">
<ele>6.376331</ele>
<time>2026-07-15T09:17:08.000Z</time>
</trkpt>
<trkpt lat="57.118412" lon="8.651544">
<ele>6.439892</ele>
<time>2026-07-15T09:17:09.000Z</time>
</trkpt>
<trkpt lat="57.118389" lon="8.651627">
<ele>6.501703</ele>
<time>2026-07-15T09:17:10.000Z</time>
</trkpt>
<trkpt lat="57.118362" lon="8.651708">
<ele>6.564750</ele>
<time>2026-07-15T09:17:11.000Z</time>
</trkpt>
<trkpt lat="57.118339" lon="8.651783">
<ele>6.621886</ele>
<time>2026-07-15T09:17:12.000Z</time>
</trkpt>
<trkpt lat="57.118316" lon="8.651858">
<ele>6.679021</ele>
<time>2026-07-15T09:17:13.000Z</time>
</trkpt>
<trkpt lat="57.118290" lon="8.651932">
<ele>6.737488</ele>
<time>2026-07-15T09:17:14.000Z</time>
</trkpt>
<trkpt lat="57.118267" lon="8.652009">
<ele>6.791404</ele>
<time>2026-07-15T09:17:15.000Z</time>
</trkpt>
<trkpt lat="57.118244" lon="8.652092">
<ele>6.814191</ele>
<time>2026-07-15T09:17:16.000Z</time>
</trkpt>
<trkpt lat="57.118222" lon="8.652171">
<ele>6.835903</ele>
<time>2026-07-15T09:17:17.000Z</time>
</trkpt>
<trkpt lat="57.118194" lon="8.652255">
<ele>6.860007</ele>
<time>2026-07-15T09:17:18.000Z</time>
</trkpt>
<trkpt lat="57.118168" lon="8.652332">
<ele>6.882181</ele>
<time>2026-07-15T09:17:19.000Z</time>
</trkpt>
<trkpt lat="57.118144" lon="8.652405">
<ele>6.903050</ele>
<time>2026-07-15T09:17:20.000Z</time>
</trkpt>
<trkpt lat="57.118115" lon="8.652488">
<ele>6.927186</ele>
<time>2026-07-15T09:17:21.000Z</time>
</trkpt>
<trkpt lat="57.118087" lon="8.652564">
<ele>6.949646</ele>
<time>2026-07-15T09:17:22.000Z</time>
</trkpt>
<trkpt lat="57.118064" lon="8.652638">
<ele>6.970497</ele>
<time>2026-07-15T09:17:23.000Z</time>
</trkpt>
<trkpt lat="57.118039" lon="8.652710">
<ele>6.991397</ele>
<time>2026-07-15T09:17:24.000Z</time>
</trkpt>
<trkpt lat="57.118014" lon="8.652777">
<ele>7.011277</ele>
<time>2026-07-15T09:17:25.000Z</time>
</trkpt>
<trkpt lat="57.117989" lon="8.652861">
<ele>7.034702</ele>
<time>2026-07-15T09:17:26.000Z</time>
</trkpt>
<trkpt lat="57.117966" lon="8.652936">
<ele>7.055766</ele>
<time>2026-07-15T09:17:27.000Z</time>
</trkpt>
<trkpt lat="57.117943" lon="8.653015">
<ele>7.077687</ele>
<time>2026-07-15T09:17:28.000Z</time>
</trkpt>
<trkpt lat="57.117916" lon="8.653091">
<ele>7.099897</ele>
<time>2026-07-15T09:17:29.000Z</time>
</trkpt>
<trkpt lat="57.117894" lon="8.653164">
<ele>7.120314</ele>
<time>2026-07-15T09:17:30.000Z</time>
</trkpt>
<trkpt lat="57.117866" lon="8.653241">
<ele>7.142977</ele>
<time>2026-07-15T09:17:31.000Z</time>
</trkpt>
<trkpt lat="57.117840" lon="8.653311">
<ele>7.163717</ele>
<time>2026-07-15T09:17:32.000Z</time>
</trkpt>
<trkpt lat="57.117813" lon="8.653380">
<ele>7.184516</ele>
<time>2026-07-15T09:17:33.000Z</time>
</trkpt>
<trkpt lat="57.117786" lon="8.653439">
<ele>7.203386</ele>
<time>2026-07-15T09:17:34.000Z</time>
</trkpt>
<trkpt lat="57.117763" lon="8.653498">
<ele>7.221148</ele>
<time>2026-07-15T09:17:35.000Z</time>
</trkpt>
<trkpt lat="57.117748" lon="8.653554">
<ele>7.236418</ele>
<time>2026-07-15T09:17:36.000Z</time>
</trkpt>
<trkpt lat="57.117744" lon="8.653609">
<ele>7.249988</ele>
<time>2026-07-15T09:17:37.000Z</time>
</trkpt>
<trkpt lat="57.117748" lon="8.653661">
<ele>7.262831</ele>
<time>2026-07-15T09:17:38.000Z</time>
</trkpt>
<trkpt lat="57.117752" lon="8.653736">
<ele>7.281259</ele>
<time>2026-07-15T09:17:39.000Z</time>
</trkpt>
<trkpt lat="57.117763" lon="8.653810">
<ele>7.300021</ele>
<time>2026-07-15T09:17:40.000Z</time>
</trkpt>
<trkpt lat="57.117779" lon="8.653898">
<ele>7.322715</ele>
<time>2026-07-15T09:17:41.000Z</time>
</trkpt>
<trkpt lat="57.117798" lon="8.653990">
<ele>7.346785</ele>
<time>2026-07-15T09:17:42.000Z</time>
</trkpt>
<trkpt lat="57.117817" lon="8.654088">
<ele>7.372232</ele>
<time>2026-07-15T09:17:43.000Z</time>
</trkpt>
<trkpt lat="57.117840" lon="8.654185">
<ele>7.398116</ele>
<time>2026-07-15T09:17:44.000Z</time>
</trkpt>
<trkpt lat="57.117867" lon="8.654295">
<ele>7.427637</ele>
<time>2026-07-15T09:17:45.000Z</time>
</trkpt>
<trkpt lat="57.117889" lon="8.654405">
<ele>7.456303</ele>
<time>2026-07-15T09:17:46.000Z</time>
</trkpt>
<trkpt lat="57.117908" lon="8.654523">
<ele>7.486401</ele>
<time>2026-07-15T09:17:47.000Z</time>
</trkpt>
<trkpt lat="57.117932" lon="8.654644">
<ele>7.517902</ele>
<time>2026-07-15T09:17:48.000Z</time>
</trkpt>
<trkpt lat="57.117958" lon="8.654763">
<ele>7.549270</ele>
<time>2026-07-15T09:17:49.000Z</time>
</trkpt>
<trkpt lat="57.117973" lon="8.654857">
<ele>7.573229</ele>
<time>2026-07-15T09:17:50.000Z</time>
</trkpt>
<trkpt lat="57.118000" lon="8.654996">
<ele>7.556220</ele>
<time>2026-07-15T09:17:51.000Z</time>
</trkpt>
<trkpt lat="57.118015" lon="8.655109">
<ele>7.438576</ele>
<time>2026-07-15T09:17:52.000Z</time>
</trkpt>
<trkpt lat="57.118031" lon="8.655216">
<ele>7.326336</ele>
<time>2026-07-15T09:17:53.000Z</time>
</trkpt>
<trkpt lat="57.118042" lon="8.655314">
<ele>7.225132</ele>
<time>2026-07-15T09:17:54.000Z</time>
</trkpt>
<trkpt lat="57.118050" lon="8.655406">
<ele>7.130906</ele>
<time>2026-07-15T09:17:55.000Z</time>
</trkpt>
<trkpt lat="57.118049" lon="8.655493">
<ele>7.042902</ele>
<time>2026-07-15T09:17:56.000Z</time>
</trkpt>
<trkpt lat="57.118039" lon="8.655570">
<ele>6.962834</ele>
<time>2026-07-15T09:17:57.000Z</time>
</trkpt>
<trkpt lat="57.118023" lon="8.655654">
<ele>6.872808</ele>
<time>2026-07-15T09:17:58.000Z</time>
</trkpt>
<trkpt lat="57.118000" lon="8.655735">
<ele>6.780364</ele>
<time>2026-07-15T09:17:59.000Z</time>
</trkpt>
<trkpt lat="57.117977" lon="8.655819">
<ele>6.685222</ele>
<time>2026-07-15T09:18:00.000Z</time>
</trkpt>
<trkpt lat="57.117947" lon="8.655902">
<ele>6.584382</ele>
<time>2026-07-15T09:18:01.000Z</time>
</trkpt>
<trkpt lat="57.117916" lon="8.655988">
<ele>6.479985</ele>
<time>2026-07-15T09:18:02.000Z</time>
</trkpt>
<trkpt lat="57.117885" lon="8.656072">
<ele>6.377266</ele>
<time>2026-07-15T09:18:03.000Z</time>
</trkpt>
<trkpt lat="57.117855" lon="8.656156">
<ele>6.275583</ele>
<time>2026-07-15T09:18:04.000Z</time>
</trkpt>
<trkpt lat="57.117820" lon="8.656244">
<ele>6.165262</ele>
<time>2026-07-15T09:18:05.000Z</time>
</trkpt>
<trkpt lat="57.117790" lon="8.656336">
<ele>6.056729</ele>
<time>2026-07-15T09:18:06.000Z</time>
</trkpt>
<trkpt lat="57.117763" lon="8.656432">
<ele>5.947388</ele>
<time>2026-07-15T09:18:07.000Z</time>
</trkpt>
<trkpt lat="57.117734" lon="8.656522">
<ele>5.841546</ele>
<time>2026-07-15T09:18:08.000Z</time>
</trkpt>
<trkpt lat="57.117703" lon="8.656611">
<ele>5.734608</ele>
<time>2026-07-15T09:18:09.000Z</time>
</trkpt>
<trkpt lat="57.117671" lon="8.656700">
<ele>5.626652</ele>
<time>2026-07-15T09:18:10.000Z</time>
</trkpt>
<trkpt lat="57.117641" lon="8.656784">
<ele>5.524968</ele>
<time>2026-07-15T09:18:11.000Z</time>
</trkpt>
<trkpt lat="57.117611" lon="8.656867">
<ele>5.424128</ele>
<time>2026-07-15T09:18:12.000Z</time>
</trkpt>
<trkpt lat="57.117585" lon="8.656941">
<ele>5.334986</ele>
<time>2026-07-15T09:18:13.000Z</time>
</trkpt>
<trkpt lat="57.117550" lon="8.657044">
<ele>5.212099</ele>
<time>2026-07-15T09:18:14.000Z</time>
</trkpt>
<trkpt lat="57.117527" lon="8.657136">
<ele>5.109667</ele>
<time>2026-07-15T09:18:15.000Z</time>
</trkpt>
<trkpt lat="57.117505" lon="8.657234">
<ele>5.002419</ele>
<time>2026-07-15T09:18:16.000Z</time>
</trkpt>
<trkpt lat="57.117482" lon="8.657337">
<ele>4.889786</ele>
<time>2026-07-15T09:18:17.000Z</time>
</trkpt>
<trkpt lat="57.117463" lon="8.657443">
<ele>4.776895</ele>
<time>2026-07-15T09:18:18.000Z</time>
</trkpt>
<trkpt lat="57.117443" lon="8.657548">
<ele>4.664360</ele>
<time>2026-07-15T09:18:19.000Z</time>
</trkpt>
<trkpt lat="57.117424" lon="8.657651">
<ele>4.554345</ele>
<time>2026-07-15T09:18:20.000Z</time>
</trkpt>
<trkpt lat="57.117405" lon="8.657748">
<ele>4.450057</ele>
<time>2026-07-15T09:18:21.000Z</time>
</trkpt>
<trkpt lat="57.117386" lon="8.657844">
<ele>4.346720</ele>
<time>2026-07-15T09:18:22.000Z</time>
</trkpt>
<trkpt lat="57.117367" lon="8.657946">
<ele>4.248014</ele>
<time>2026-07-15T09:18:23.000Z</time>
</trkpt>
<trkpt lat="57.117347" lon="8.658044">
<ele>4.242760</ele>
<time>2026-07-15T09:18:24.000Z</time>
</trkpt>
<trkpt lat="57.117325" lon="8.658143">
<ele>4.237392</ele>
<time>2026-07-15T09:18:25.000Z</time>
</trkpt>
<trkpt lat="57.117302" lon="8.658242">
<ele>4.231989</ele>
<time>2026-07-15T09:18:26.000Z</time>
</trkpt>
<trkpt lat="57.117283" lon="8.658339">
<ele>4.226814</ele>
<time>2026-07-15T09:18:27.000Z</time>
</trkpt>
<trkpt lat="57.117260" lon="8.658437">
<ele>4.221456</ele>
<time>2026-07-15T09:18:28.000Z</time>
</trkpt>
<trkpt lat="57.117242" lon="8.658530">
<ele>4.216502</ele>
<time>2026-07-15T09:18:29.000Z</time>
</trkpt>
<trkpt lat="57.117218" lon="8.658639">
<ele>4.210599</ele>
<time>2026-07-15T09:18:30.000Z</time>
</trkpt>
<trkpt lat="57.117195" lon="8.658736">
<ele>4.205288</ele>
<time>2026-07-15T09:18:31.000Z</time>
</trkpt>
<trkpt lat="57.117176" lon="8.658837">
<ele>4.199924</ele>
<time>2026-07-15T09:18:32.000Z</time>
</trkpt>
<trkpt lat="57.117154" lon="8.658928">
<ele>4.194925</ele>
<time>2026-07-15T09:18:33.000Z</time>
</trkpt>
<trkpt lat="57.117134" lon="8.659022">
<ele>4.189859</ele>
<time>2026-07-15T09:18:34.000Z</time>
</trkpt>
<trkpt lat="57.117115" lon="8.659118">
<ele>4.184731</ele>
<time>2026-07-15T09:18:35.000Z</time>
</trkpt>
<trkpt lat="57.117096" lon="8.659210">
<ele>4.179792</ele>
<time>2026-07-15T09:18:36.000Z</time>
</trkpt>
<trkpt lat="57.117077" lon="8.659299">
<ele>4.174993</ele>
<time>2026-07-15T09:18:37.000Z</time>
</trkpt>
<trkpt lat="57.117054" lon="8.659391">
<ele>4.169910</ele>
<time>2026-07-15T09:18:38.000Z</time>
</trkpt>
<trkpt lat="57.117035" lon="8.659483">
<ele>4.164971</ele>
<time>2026-07-15T09:18:39.000Z</time>
</trkpt>
<trkpt lat="57.117012" lon="8.659576">
<ele>4.159843</ele>
<time>2026-07-15T09:18:40.000Z</time>
</trkpt>
<trkpt lat="57.116993" lon="8.659673">
<ele>4.154668</ele>
<time>2026-07-15T09:18:41.000Z</time>
</trkpt>
<trkpt lat="57.116970" lon="8.659769">
<ele>4.149403</ele>
<time>2026-07-15T09:18:42.000Z</time>
</trkpt>
<trkpt lat="57.116947" lon="8.659867">
<ele>4.144045</ele>
<time>2026-07-15T09:18:43.000Z</time>
</trkpt>
<trkpt lat="57.116928" lon="8.659963">
<ele>4.138917</ele>
<time>2026-07-15T09:18:44.000Z</time>
</trkpt>
<trkpt lat="57.116909" lon="8.660058">
<ele>4.133837</ele>
<time>2026-07-15T09:18:45.000Z</time>
</trkpt>
<trkpt lat="57.116890" lon="8.660153">
<ele>4.128757</ele>
<time>2026-07-15T09:18:46.000Z</time>
</trkpt>
<trkpt lat="57.116867" lon="8.660250">
<ele>4.123445</ele>
<time>2026-07-15T09:18:47.000Z</time>
</trkpt>
<trkpt lat="57.116844" lon="8.660348">
<ele>4.118087</ele>
<time>2026-07-15T09:18:48.000Z</time>
</trkpt>
<trkpt lat="57.116821" lon="8.660441">
<ele>4.112959</ele>
<time>2026-07-15T09:18:49.000Z</time>
</trkpt>
<trkpt lat="57.116799" lon="8.660538">
<ele>4.107684</ele>
<time>2026-07-15T09:18:50.000Z</time>
</trkpt>
<trkpt lat="57.116776" lon="8.660634">
<ele>4.102418</ele>
<time>2026-07-15T09:18:51.000Z</time>
</trkpt>
<trkpt lat="57.116752" lon="8.660733">
<ele>4.096978</ele>
<time>2026-07-15T09:18:52.000Z</time>
</trkpt>
<trkpt lat="57.116730" lon="8.660830">
<ele>4.091702</ele>
<time>2026-07-15T09:18:53.000Z</time>
</trkpt>
<trkpt lat="57.116707" lon="8.660930">
<ele>4.086252</ele>
<time>2026-07-15T09:18:54.000Z</time>
</trkpt>
<trkpt lat="57.116684" lon="8.661026">
<ele>4.081846</ele>
<time>2026-07-15T09:18:55.000Z</time>
</trkpt>
<trkpt lat="57.116665" lon="8.661125">
<ele>4.080000</ele>
<time>2026-07-15T09:18:56.000Z</time>
</trkpt>
<trkpt lat="57.116642" lon="8.661221">
<ele>4.078155</ele>
<time>2026-07-15T09:18:57.000Z</time>
</trkpt>
<trkpt lat="57.116619" lon="8.661315">
<ele>4.076342</ele>
<time>2026-07-15T09:18:58.000Z</time>
</trkpt>
<trkpt lat="57.116600" lon="8.661410">
<ele>4.074561</ele>
<time>2026-07-15T09:18:59.000Z</time>
</trkpt>
<trkpt lat="57.116577" lon="8.661504">
<ele>4.072748</ele>
<time>2026-07-15T09:19:00.000Z</time>
</trkpt>
<trkpt lat="57.116554" lon="8.661602">
<ele>4.070871</ele>
<time>2026-07-15T09:19:01.000Z</time>
</trkpt>
<trkpt lat="57.116532" lon="8.661699">
<ele>4.069022</ele>
<time>2026-07-15T09:19:02.000Z</time>
</trkpt>
<trkpt lat="57.116509" lon="8.661791">
<ele>4.067241</ele>
<time>2026-07-15T09:19:03.000Z</time>
</trkpt>
<trkpt lat="57.116489" lon="8.661892">
<ele>4.065351</ele>
<time>2026-07-15T09:19:04.000Z</time>
</trkpt>
<trkpt lat="57.116467" lon="8.661988">
<ele>4.063518</ele>
<time>2026-07-15T09:19:05.000Z</time>
</trkpt>
<trkpt lat="57.116444" lon="8.662090">
<ele>4.061576</ele>
<time>2026-07-15T09:19:06.000Z</time>
</trkpt>
<trkpt lat="57.116422" lon="8.662185">
<ele>4.059760</ele>
<time>2026-07-15T09:19:07.000Z</time>
</trkpt>
<trkpt lat="57.116398" lon="8.662289">
<ele>4.057773</ele>
<time>2026-07-15T09:19:08.000Z</time>
</trkpt>
<trkpt lat="57.116375" lon="8.662382">
<ele>4.055976</ele>
<time>2026-07-15T09:19:09.000Z</time>
</trkpt>
<trkpt lat="57.116352" lon="8.662477">
<ele>4.054147</ele>
<time>2026-07-15T09:19:10.000Z</time>
</trkpt>
<trkpt lat="57.116333" lon="8.662572">
<ele>4.052366</ele>
<time>2026-07-15T09:19:11.000Z</time>
</trkpt>
<trkpt lat="57.116310" lon="8.662667">
<ele>4.050537</ele>
<time>2026-07-15T09:19:12.000Z</time>
</trkpt>
<trkpt lat="57.116287" lon="8.662761">
<ele>4.048724</ele>
<time>2026-07-15T09:19:13.000Z</time>
</trkpt>
<trkpt lat="57.116264" lon="8.662860">
<ele>4.046831</ele>
<time>2026-07-15T09:19:14.000Z</time>
</trkpt>
<trkpt lat="57.116241" lon="8.662961">
<ele>4.044905</ele>
<time>2026-07-15T09:19:15.000Z</time>
</trkpt>
<trkpt lat="57.116222" lon="8.663060">
<ele>4.043058</ele>
<time>2026-07-15T09:19:16.000Z</time>
</trkpt>
<trkpt lat="57.116203" lon="8.663159">
<ele>4.041212</ele>
<time>2026-07-15T09:19:17.000Z</time>
</trkpt>
<trkpt lat="57.116180" lon="8.663255">
<ele>4.039367</ele>
<time>2026-07-15T09:19:18.000Z</time>
</trkpt>
<trkpt lat="57.116162" lon="8.663346">
<ele>4.037663</ele>
<time>2026-07-15T09:19:19.000Z</time>
</trkpt>
<trkpt lat="57.116139" lon="8.663450">
<ele>4.035689</ele>
<time>2026-07-15T09:19:20.000Z</time>
</trkpt>
<trkpt lat="57.116116" lon="8.663547">
<ele>4.033827</ele>
<time>2026-07-15T09:19:21.000Z</time>
</trkpt>
<trkpt lat="57.116092" lon="8.663643">
<ele>4.031969</ele>
<time>2026-07-15T09:19:22.000Z</time>
</trkpt>
<trkpt lat="57.116070" lon="8.663734">
<ele>4.030217</ele>
<time>2026-07-15T09:19:23.000Z</time>
</trkpt>
<trkpt lat="57.116043" lon="8.663828">
<ele>4.028347</ele>
<time>2026-07-15T09:19:24.000Z</time>
</trkpt>
<trkpt lat="57.116020" lon="8.663921">
<ele>4.026550</ele>
<time>2026-07-15T09:19:25.000Z</time>
</trkpt>
<trkpt lat="57.115998" lon="8.664015">
<ele>4.024750</ele>
<time>2026-07-15T09:19:26.000Z</time>
</trkpt>
<trkpt lat="57.115974" lon="8.664116">
<ele>4.036343</ele>
<time>2026-07-15T09:19:27.000Z</time>
</trkpt>
<trkpt lat="57.115952" lon="8.664209">
<ele>4.053971</ele>
<time>2026-07-15T09:19:28.000Z</time>
</trkpt>
<trkpt lat="57.115929" lon="8.664304">
<ele>4.072047</ele>
<time>2026-07-15T09:19:29.000Z</time>
</trkpt>
<trkpt lat="57.115905" lon="8.664404">
<ele>4.091046</ele>
<time>2026-07-15T09:19:30.000Z</time>
</trkpt>
<trkpt lat="57.115883" lon="8.664495">
<ele>4.108357</ele>
<time>2026-07-15T09:19:31.000Z</time>
</trkpt>
<trkpt lat="57.115860" lon="8.664590">
<ele>4.126432</ele>
<time>2026-07-15T09:19:32.000Z</time>
</trkpt>
<trkpt lat="57.115834" lon="8.664683">
<ele>4.144610</ele>
<time>2026-07-15T09:19:33.000Z</time>
</trkpt>
<trkpt lat="57.115813" lon="8.664768">
<ele>4.160838</ele>
<time>2026-07-15T09:19:34.000Z</time>
</trkpt>
<trkpt lat="57.115788" lon="8.664874">
<ele>4.180921</ele>
<time>2026-07-15T09:19:35.000Z</time>
</trkpt>
<trkpt lat="57.115769" lon="8.664967">
<ele>4.198188</ele>
<time>2026-07-15T09:19:36.000Z</time>
</trkpt>
<trkpt lat="57.115746" lon="8.665059">
<ele>4.215789</ele>
<time>2026-07-15T09:19:37.000Z</time>
</trkpt>
<trkpt lat="57.115723" lon="8.665153">
<ele>4.233706</ele>
<time>2026-07-15T09:19:38.000Z</time>
</trkpt>
<trkpt lat="57.115699" lon="8.665246">
<ele>4.251600</ele>
<time>2026-07-15T09:19:39.000Z</time>
</trkpt>
<trkpt lat="57.115678" lon="8.665336">
<ele>4.268623</ele>
<time>2026-07-15T09:19:40.000Z</time>
</trkpt>
<trkpt lat="57.115658" lon="8.665432">
<ele>4.286491</ele>
<time>2026-07-15T09:19:41.000Z</time>
</trkpt>
<trkpt lat="57.115639" lon="8.665528">
<ele>4.304248</ele>
<time>2026-07-15T09:19:42.000Z</time>
</trkpt>
<trkpt lat="57.115628" lon="8.665584">
<ele>4.314596</ele>
<time>2026-07-15T09:19:43.000Z</time>
</trkpt>
<trkpt lat="57.115602" lon="8.665711">
<ele>4.338183</ele>
<time>2026-07-15T09:19:44.000Z</time>
</trkpt>
<trkpt lat="57.115585" lon="8.665816">
<ele>4.357223</ele>
<time>2026-07-15T09:19:45.000Z</time>
</trkpt>
<trkpt lat="57.115570" lon="8.665917">
<ele>4.375419</ele>
<time>2026-07-15T09:19:46.000Z</time>
</trkpt>
<trkpt lat="57.115559" lon="8.666012">
<ele>4.392299</ele>
<time>2026-07-15T09:19:47.000Z</time>
</trkpt>
<trkpt lat="57.115544" lon="8.666116">
<ele>4.410999</ele>
<time>2026-07-15T09:19:48.000Z</time>
</trkpt>
<trkpt lat="57.115528" lon="8.666217">
<ele>4.429282</ele>
<time>2026-07-15T09:19:49.000Z</time>
</trkpt>
<trkpt lat="57.115506" lon="8.666319">
<ele>4.448355</ele>
<time>2026-07-15T09:19:50.000Z</time>
</trkpt>
<trkpt lat="57.115487" lon="8.666417">
<ele>4.466438</ele>
<time>2026-07-15T09:19:51.000Z</time>
</trkpt>
<trkpt lat="57.115467" lon="8.666516">
<ele>4.484794</ele>
<time>2026-07-15T09:19:52.000Z</time>
</trkpt>
<trkpt lat="57.115452" lon="8.666608">
<ele>4.501487</ele>
<time>2026-07-15T09:19:53.000Z</time>
</trkpt>
<trkpt lat="57.115429" lon="8.666699">
<ele>4.518930</ele>
<time>2026-07-15T09:19:54.000Z</time>
</trkpt>
<trkpt lat="57.115410" lon="8.666788">
<ele>4.535549</ele>
<time>2026-07-15T09:19:55.000Z</time>
</trkpt>
<trkpt lat="57.115398" lon="8.666872">
<ele>4.550643</ele>
<time>2026-07-15T09:19:56.000Z</time>
</trkpt>
<trkpt lat="57.115380" lon="8.666951">
<ele>4.565531</ele>
<time>2026-07-15T09:19:57.000Z</time>
</trkpt>
<trkpt lat="57.115364" lon="8.667033">
<ele>4.580673</ele>
<time>2026-07-15T09:19:58.000Z</time>
</trkpt>
<trkpt lat="57.115349" lon="8.667117">
<ele>4.596040</ele>
<time>2026-07-15T09:19:59.000Z</time>
</trkpt>
<trkpt lat="57.115334" lon="8.667200">
<ele>4.587040</ele>
<time>2026-07-15T09:20:00.000Z</time>
</trkpt>
<trkpt lat="57.115319" lon="8.667285">
<ele>4.569913</ele>
<time>2026-07-15T09:20:01.000Z</time>
</trkpt>
<trkpt lat="57.115303" lon="8.667374">
<ele>4.551947</ele>
<time>2026-07-15T09:20:02.000Z</time>
</trkpt>
<trkpt lat="57.115284" lon="8.667471">
<ele>4.532187</ele>
<time>2026-07-15T09:20:03.000Z</time>
</trkpt>
<trkpt lat="57.115265" lon="8.667570">
<ele>4.512065</ele>
<time>2026-07-15T09:20:04.000Z</time>
</trkpt>
<trkpt lat="57.115246" lon="8.667669">
<ele>4.491944</ele>
<time>2026-07-15T09:20:05.000Z</time>
</trkpt>
<trkpt lat="57.115226" lon="8.667775">
<ele>4.470440</ele>
<time>2026-07-15T09:20:06.000Z</time>
</trkpt>
<trkpt lat="57.115210" lon="8.667869">
<ele>4.451562</ele>
<time>2026-07-15T09:20:07.000Z</time>
</trkpt>
<trkpt lat="57.115188" lon="8.667987">
<ele>4.427654</ele>
<time>2026-07-15T09:20:08.000Z</time>
</trkpt>
<trkpt lat="57.115170" lon="8.668090">
<ele>4.406919</ele>
<time>2026-07-15T09:20:09.000Z</time>
</trkpt>
<trkpt lat="57.115147" lon="8.668196">
<ele>4.385044</ele>
<time>2026-07-15T09:20:10.000Z</time>
</trkpt>
<trkpt lat="57.115127" lon="8.668302">
<ele>4.363540</ele>
<time>2026-07-15T09:20:11.000Z</time>
</trkpt>
<trkpt lat="57.115109" lon="8.668403">
<ele>4.343170</ele>
<time>2026-07-15T09:20:12.000Z</time>
</trkpt>
<trkpt lat="57.115086" lon="8.668513">
<ele>4.320581</ele>
<time>2026-07-15T09:20:13.000Z</time>
</trkpt>
<trkpt lat="57.115067" lon="8.668620">
<ele>4.299008</ele>
<time>2026-07-15T09:20:14.000Z</time>
</trkpt>
<trkpt lat="57.115044" lon="8.668728">
<ele>4.276777</ele>
<time>2026-07-15T09:20:15.000Z</time>
</trkpt>
<trkpt lat="57.115024" lon="8.668839">
<ele>4.254366</ele>
<time>2026-07-15T09:20:16.000Z</time>
</trkpt>
<trkpt lat="57.115005" lon="8.668930">
<ele>4.235682</ele>
<time>2026-07-15T09:20:17.000Z</time>
</trkpt>
<trkpt lat="57.114982" lon="8.669059">
<ele>4.209663</ele>
<time>2026-07-15T09:20:18.000Z</time>
</trkpt>
<trkpt lat="57.114961" lon="8.669162">
<ele>4.188580</ele>
<time>2026-07-15T09:20:19.000Z</time>
</trkpt>
<trkpt lat="57.114937" lon="8.669279">
<ele>4.164612</ele>
<time>2026-07-15T09:20:20.000Z</time>
</trkpt>
<trkpt lat="57.114918" lon="8.669389">
<ele>4.142492</ele>
<time>2026-07-15T09:20:21.000Z</time>
</trkpt>
<trkpt lat="57.114894" lon="8.669499">
<ele>4.119775</ele>
<time>2026-07-15T09:20:22.000Z</time>
</trkpt>
<trkpt lat="57.114872" lon="8.669605">
<ele>4.098028</ele>
<time>2026-07-15T09:20:23.000Z</time>
</trkpt>
<trkpt lat="57.114850" lon="8.669707">
<ele>4.076996</ele>
<time>2026-07-15T09:20:24.000Z</time>
</trkpt>
<trkpt lat="57.114830" lon="8.669818">
<ele>4.054585</ele>
<time>2026-07-15T09:20:25.000Z</time>
</trkpt>
<trkpt lat="57.114810" lon="8.669913">
<ele>4.035059</ele>
<time>2026-07-15T09:20:26.000Z</time>
</trkpt>
<trkpt lat="57.114784" lon="8.670034">
<ele>4.010122</ele>
<time>2026-07-15T09:20:27.000Z</time>
</trkpt>
<trkpt lat="57.114766" lon="8.670140">
<ele>3.988839</ele>
<time>2026-07-15T09:20:28.000Z</time>
</trkpt>
<trkpt lat="57.114735" lon="8.670247">
<ele>3.965598</ele>
<time>2026-07-15T09:20:29.000Z</time>
</trkpt>
<trkpt lat="57.114700" lon="8.670344">
<ele>4.013370</ele>
<time>2026-07-15T09:20:30.000Z</time>
</trkpt>
<trkpt lat="57.114658" lon="8.670427">
<ele>4.062044</ele>
<time>2026-07-15T09:20:31.000Z</time>
</trkpt>
<trkpt lat="57.114615" lon="8.670503">
<ele>4.109134</ele>
<time>2026-07-15T09:20:32.000Z</time>
</trkpt>
<trkpt lat="57.114566" lon="8.670591">
<ele>4.163210</ele>
<time>2026-07-15T09:20:33.000Z</time>
</trkpt>
<trkpt lat="57.114520" lon="8.670696">
<ele>4.221091</ele>
<time>2026-07-15T09:20:34.000Z</time>
</trkpt>
<trkpt lat="57.114487" lon="8.670798">
<ele>4.272030</ele>
<time>2026-07-15T09:20:35.000Z</time>
</trkpt>
<trkpt lat="57.114468" lon="8.670914">
<ele>4.324011</ele>
<time>2026-07-15T09:20:36.000Z</time>
</trkpt>
<trkpt lat="57.114461" lon="8.671000">
<ele>4.361318</ele>
<time>2026-07-15T09:20:37.000Z</time>
</trkpt>
<trkpt lat="57.114468" lon="8.671085">
<ele>4.398201</ele>
<time>2026-07-15T09:20:38.000Z</time>
</trkpt>
<trkpt lat="57.114479" lon="8.671137">
<ele>4.422143</ele>
<time>2026-07-15T09:20:39.000Z</time>
</trkpt>
<trkpt lat="57.114495" lon="8.671180">
<ele>4.444507</ele>
<time>2026-07-15T09:20:40.000Z</time>
</trkpt>
<trkpt lat="57.114509" lon="8.671223">
<ele>4.466017</ele>
<time>2026-07-15T09:20:41.000Z</time>
</trkpt>
<trkpt lat="57.114525" lon="8.671270">
<ele>4.489816</ele>
<time>2026-07-15T09:20:42.000Z</time>
</trkpt>
<trkpt lat="57.114548" lon="8.671344">
<ele>4.526396</ele>
<time>2026-07-15T09:20:43.000Z</time>
</trkpt>
<trkpt lat="57.114562" lon="8.671414">
<ele>4.558400</ele>
<time>2026-07-15T09:20:44.000Z</time>
</trkpt>
<trkpt lat="57.114567" lon="8.671506">
<ele>4.598066</ele>
<time>2026-07-15T09:20:45.000Z</time>
</trkpt>
<trkpt lat="57.114567" lon="8.671588">
<ele>4.633245</ele>
<time>2026-07-15T09:20:46.000Z</time>
</trkpt>
<trkpt lat="57.114563" lon="8.671686">
<ele>4.675407</ele>
<time>2026-07-15T09:20:47.000Z</time>
</trkpt>
<trkpt lat="57.114551" lon="8.671784">
<ele>4.718506</ele>
<time>2026-07-15T09:20:48.000Z</time>
</trkpt>
<trkpt lat="57.114540" lon="8.671877">
<ele>4.759340</ele>
<time>2026-07-15T09:20:49.000Z</time>
</trkpt>
<trkpt lat="57.114529" lon="8.671969">
<ele>4.799755</ele>
<time>2026-07-15T09:20:50.000Z</time>
</trkpt>
<trkpt lat="57.114517" lon="8.672073">
<ele>4.845368</ele>
<time>2026-07-15T09:20:51.000Z</time>
</trkpt>
<trkpt lat="57.114506" lon="8.672170">
<ele>4.887880</ele>
<time>2026-07-15T09:20:52.000Z</time>
</trkpt>
<trkpt lat="57.114494" lon="8.672264">
<ele>4.929307</ele>
<time>2026-07-15T09:20:53.000Z</time>
</trkpt>
<trkpt lat="57.114483" lon="8.672351">
<ele>4.967630</ele>
<time>2026-07-15T09:20:54.000Z</time>
</trkpt>
<trkpt lat="57.114468" lon="8.672432">
<ele>5.004346</ele>
<time>2026-07-15T09:20:55.000Z</time>
</trkpt>
<trkpt lat="57.114449" lon="8.672506">
<ele>5.039463</ele>
<time>2026-07-15T09:20:56.000Z</time>
</trkpt>
<trkpt lat="57.114433" lon="8.672580">
<ele>5.073635</ele>
<time>2026-07-15T09:20:57.000Z</time>
</trkpt>
<trkpt lat="57.114418" lon="8.672654">
<ele>5.107522</ele>
<time>2026-07-15T09:20:58.000Z</time>
</trkpt>
<trkpt lat="57.114406" lon="8.672732">
<ele>5.142303</ele>
<time>2026-07-15T09:20:59.000Z</time>
</trkpt>
<trkpt lat="57.114393" lon="8.672803">
<ele>5.174448</ele>
<time>2026-07-15T09:21:00.000Z</time>
</trkpt>
<trkpt lat="57.114369" lon="8.672884">
<ele>5.214035</ele>
<time>2026-07-15T09:21:01.000Z</time>
</trkpt>
<trkpt lat="57.114353" lon="8.672963">
<ele>5.250209</ele>
<time>2026-07-15T09:21:02.000Z</time>
</trkpt>
<trkpt lat="57.114334" lon="8.673041">
<ele>5.286885</ele>
<time>2026-07-15T09:21:03.000Z</time>
</trkpt>
<trkpt lat="57.114312" lon="8.673111">
<ele>5.321584</ele>
<time>2026-07-15T09:21:04.000Z</time>
</trkpt>
<trkpt lat="57.114289" lon="8.673185">
<ele>5.358165</ele>
<time>2026-07-15T09:21:05.000Z</time>
</trkpt>
<trkpt lat="57.114262" lon="8.673265">
<ele>5.379347</ele>
<time>2026-07-15T09:21:06.000Z</time>
</trkpt>
<trkpt lat="57.114235" lon="8.673342">
<ele>5.358109</ele>
<time>2026-07-15T09:21:07.000Z</time>
</trkpt>
<trkpt lat="57.114208" lon="8.673419">
<ele>5.336870</ele>
<time>2026-07-15T09:21:08.000Z</time>
</trkpt>
<trkpt lat="57.114182" lon="8.673498">
<ele>5.315465</ele>
<time>2026-07-15T09:21:09.000Z</time>
</trkpt>
<trkpt lat="57.114159" lon="8.673587">
<ele>5.292626</ele>
<time>2026-07-15T09:21:10.000Z</time>
</trkpt>
<trkpt lat="57.114140" lon="8.673686">
<ele>5.268297</ele>
<time>2026-07-15T09:21:11.000Z</time>
</trkpt>
<trkpt lat="57.114125" lon="8.673787">
<ele>5.244035</ele>
<time>2026-07-15T09:21:12.000Z</time>
</trkpt>
<trkpt lat="57.114117" lon="8.673909">
<ele>5.215561</ele>
<time>2026-07-15T09:21:13.000Z</time>
</trkpt>
<trkpt lat="57.114106" lon="8.674027">
<ele>5.187819</ele>
<time>2026-07-15T09:21:14.000Z</time>
</trkpt>
<trkpt lat="57.114098" lon="8.674155">
<ele>5.157965</ele>
<time>2026-07-15T09:21:15.000Z</time>
</trkpt>
<trkpt lat="57.114083" lon="8.674289">
<ele>5.126263</ele>
<time>2026-07-15T09:21:16.000Z</time>
</trkpt>
<trkpt lat="57.114071" lon="8.674427">
<ele>5.093880</ele>
<time>2026-07-15T09:21:17.000Z</time>
</trkpt>
<trkpt lat="57.114059" lon="8.674564">
<ele>5.061726</ele>
<time>2026-07-15T09:21:18.000Z</time>
</trkpt>
<trkpt lat="57.114052" lon="8.674698">
<ele>5.030533</ele>
<time>2026-07-15T09:21:19.000Z</time>
</trkpt>
<trkpt lat="57.114041" lon="8.674827">
<ele>5.000277</ele>
<time>2026-07-15T09:21:20.000Z</time>
</trkpt>
<trkpt lat="57.114037" lon="8.674955">
<ele>4.970569</ele>
<time>2026-07-15T09:21:21.000Z</time>
</trkpt>
<trkpt lat="57.114029" lon="8.675079">
<ele>4.941635</ele>
<time>2026-07-15T09:21:22.000Z</time>
</trkpt>
<trkpt lat="57.114025" lon="8.675208">
<ele>4.911696</ele>
<time>2026-07-15T09:21:23.000Z</time>
</trkpt>
<trkpt lat="57.114014" lon="8.675326">
<ele>4.883954</ele>
<time>2026-07-15T09:21:24.000Z</time>
</trkpt>
<trkpt lat="57.114006" lon="8.675444">
<ele>4.856400</ele>
<time>2026-07-15T09:21:25.000Z</time>
</trkpt>
<trkpt lat="57.113995" lon="8.675554">
<ele>4.830484</ele>
<time>2026-07-15T09:21:26.000Z</time>
</trkpt>
<trkpt lat="57.113979" lon="8.675671">
<ele>4.802527</ele>
<time>2026-07-15T09:21:27.000Z</time>
</trkpt>
<trkpt lat="57.113965" lon="8.675778">
<ele>4.777025</ele>
<time>2026-07-15T09:21:28.000Z</time>
</trkpt>
<trkpt lat="57.113949" lon="8.675889">
<ele>4.750414</ele>
<time>2026-07-15T09:21:29.000Z</time>
</trkpt>
<trkpt lat="57.113930" lon="8.675998">
<ele>4.723888</ele>
<time>2026-07-15T09:21:30.000Z</time>
</trkpt>
<trkpt lat="57.113911" lon="8.676106">
<ele>4.697583</ele>
<time>2026-07-15T09:21:31.000Z</time>
</trkpt>
<trkpt lat="57.113893" lon="8.676211">
<ele>4.672070</ele>
<time>2026-07-15T09:21:32.000Z</time>
</trkpt>
<trkpt lat="57.113865" lon="8.676322">
<ele>4.643710</ele>
<time>2026-07-15T09:21:33.000Z</time>
</trkpt>
<trkpt lat="57.113838" lon="8.676421">
<ele>4.620827</ele>
<time>2026-07-15T09:21:34.000Z</time>
</trkpt>
<trkpt lat="57.113810" lon="8.676501">
<ele>4.723645</ele>
<time>2026-07-15T09:21:35.000Z</time>
</trkpt>
<trkpt lat="57.113769" lon="8.676610">
<ele>4.866885</ele>
<time>2026-07-15T09:21:36.000Z</time>
</trkpt>
<trkpt lat="57.113728" lon="8.676695">
<ele>4.989704</ele>
<time>2026-07-15T09:21:37.000Z</time>
</trkpt>
<trkpt lat="57.113685" lon="8.676780">
<ele>5.115202</ele>
<time>2026-07-15T09:21:38.000Z</time>
</trkpt>
<trkpt lat="57.113645" lon="8.676856">
<ele>5.229539</ele>
<time>2026-07-15T09:21:39.000Z</time>
</trkpt>
<trkpt lat="57.113602" lon="8.676940">
<ele>5.354249</ele>
<time>2026-07-15T09:21:40.000Z</time>
</trkpt>
<trkpt lat="57.113561" lon="8.677020">
<ele>5.473084</ele>
<time>2026-07-15T09:21:41.000Z</time>
</trkpt>
<trkpt lat="57.113526" lon="8.677103">
<ele>5.586608</ele>
<time>2026-07-15T09:21:42.000Z</time>
</trkpt>
<trkpt lat="57.113496" lon="8.677189">
<ele>5.697030</ele>
<time>2026-07-15T09:21:43.000Z</time>
</trkpt>
<trkpt lat="57.113464" lon="8.677279">
<ele>5.813243</ele>
<time>2026-07-15T09:21:44.000Z</time>
</trkpt>
<trkpt lat="57.113438" lon="8.677362">
<ele>5.916755</ele>
<time>2026-07-15T09:21:45.000Z</time>
</trkpt>
<trkpt lat="57.113407" lon="8.677447">
<ele>6.027366</ele>
<time>2026-07-15T09:21:46.000Z</time>
</trkpt>
<trkpt lat="57.113385" lon="8.677522">
<ele>6.119452</ele>
<time>2026-07-15T09:21:47.000Z</time>
</trkpt>
<trkpt lat="57.113357" lon="8.677598">
<ele>6.218666</ele>
<time>2026-07-15T09:21:48.000Z</time>
</trkpt>
<trkpt lat="57.113331" lon="8.677671">
<ele>6.312976</ele>
<time>2026-07-15T09:21:49.000Z</time>
</trkpt>
<trkpt lat="57.113296" lon="8.677744">
<ele>6.418177</ele>
<time>2026-07-15T09:21:50.000Z</time>
</trkpt>
<trkpt lat="57.113266" lon="8.677811">
<ele>6.511990</ele>
<time>2026-07-15T09:21:51.000Z</time>
</trkpt>
<trkpt lat="57.113235" lon="8.677885">
<ele>6.612955</ele>
<time>2026-07-15T09:21:52.000Z</time>
</trkpt>
<trkpt lat="57.113205" lon="8.677960">
<ele>6.713585</ele>
<time>2026-07-15T09:21:53.000Z</time>
</trkpt>
<trkpt lat="57.113178" lon="8.678041">
<ele>6.816259</ele>
<time>2026-07-15T09:21:54.000Z</time>
</trkpt>
<trkpt lat="57.113156" lon="8.678122">
<ele>6.914096</ele>
<time>2026-07-15T09:21:55.000Z</time>
</trkpt>
<trkpt lat="57.113133" lon="8.678210">
<ele>7.019599</ele>
<time>2026-07-15T09:21:56.000Z</time>
</trkpt>
<trkpt lat="57.113114" lon="8.678296">
<ele>7.119897</ele>
<time>2026-07-15T09:21:57.000Z</time>
</trkpt>
<trkpt lat="57.113091" lon="8.678381">
<ele>7.222489</ele>
<time>2026-07-15T09:21:58.000Z</time>
</trkpt>
<trkpt lat="57.113071" lon="8.678470">
<ele>7.326541</ele>
<time>2026-07-15T09:21:59.000Z</time>
</trkpt>
<trkpt lat="57.113060" lon="8.678559">
<ele>7.425143</ele>
<time>2026-07-15T09:22:00.000Z</time>
</trkpt>
<trkpt lat="57.113045" lon="8.678655">
<ele>7.533057</ele>
<time>2026-07-15T09:22:01.000Z</time>
</trkpt>
<trkpt lat="57.113033" lon="8.678749">
<ele>7.637371</ele>
<time>2026-07-15T09:22:02.000Z</time>
</trkpt>
<trkpt lat="57.113022" lon="8.678843">
<ele>7.741247</ele>
<time>2026-07-15T09:22:03.000Z</time>
</trkpt>
<trkpt lat="57.113022" lon="8.678936">
<ele>7.841711</ele>
<time>2026-07-15T09:22:04.000Z</time>
</trkpt>
<trkpt lat="57.113022" lon="8.679040">
<ele>7.954059</ele>
<time>2026-07-15T09:22:05.000Z</time>
</trkpt>
<trkpt lat="57.113022" lon="8.679148">
<ele>8.070727</ele>
<time>2026-07-15T09:22:06.000Z</time>
</trkpt>
<trkpt lat="57.113014" lon="8.679251">
<ele>8.183127</ele>
<time>2026-07-15T09:22:07.000Z</time>
</trkpt>
<trkpt lat="57.113006" lon="8.679357">
<ele>8.172852</ele>
<time>2026-07-15T09:22:08.000Z</time>
</trkpt>
<trkpt lat="57.112991" lon="8.679459">
<ele>8.145858</ele>
<time>2026-07-15T09:22:09.000Z</time>
</trkpt>
<trkpt lat="57.112969" lon="8.679556">
<ele>8.119005</ele>
<time>2026-07-15T09:22:10.000Z</time>
</trkpt>
<trkpt lat="57.112934" lon="8.679641">
<ele>8.091755</ele>
<time>2026-07-15T09:22:11.000Z</time>
</trkpt>
<trkpt lat="57.112892" lon="8.679715">
<ele>8.064410</ele>
<time>2026-07-15T09:22:12.000Z</time>
</trkpt>
<trkpt lat="57.112851" lon="8.679778">
<ele>8.039290</ele>
<time>2026-07-15T09:22:13.000Z</time>
</trkpt>
<trkpt lat="57.112812" lon="8.679838">
<ele>8.015383</ele>
<time>2026-07-15T09:22:14.000Z</time>
</trkpt>
<trkpt lat="57.112779" lon="8.679891">
<ele>7.994784</ele>
<time>2026-07-15T09:22:15.000Z</time>
</trkpt>
<trkpt lat="57.112744" lon="8.679942">
<ele>7.973787</ele>
<time>2026-07-15T09:22:16.000Z</time>
</trkpt>
<trkpt lat="57.112714" lon="8.679986">
<ele>7.955745</ele>
<time>2026-07-15T09:22:17.000Z</time>
</trkpt>
<trkpt lat="57.112682" lon="8.680030">
<ele>7.936958</ele>
<time>2026-07-15T09:22:18.000Z</time>
</trkpt>
<trkpt lat="57.112651" lon="8.680068">
<ele>7.919439</ele>
<time>2026-07-15T09:22:19.000Z</time>
</trkpt>
<trkpt lat="57.112622" lon="8.680106">
<ele>7.902695</ele>
<time>2026-07-15T09:22:20.000Z</time>
</trkpt>
<trkpt lat="57.112591" lon="8.680147">
<ele>7.884740</ele>
<time>2026-07-15T09:22:21.000Z</time>
</trkpt>
<trkpt lat="57.112564" lon="8.680188">
<ele>7.868277</ele>
<time>2026-07-15T09:22:22.000Z</time>
</trkpt>
<trkpt lat="57.112533" lon="8.680235">
<ele>7.849387</ele>
<time>2026-07-15T09:22:23.000Z</time>
</trkpt>
<trkpt lat="57.112510" lon="8.680277">
<ele>7.834149</ele>
<time>2026-07-15T09:22:24.000Z</time>
</trkpt>
<trkpt lat="57.112481" lon="8.680326">
<ele>7.815634</ele>
<time>2026-07-15T09:22:25.000Z</time>
</trkpt>
<trkpt lat="57.112460" lon="8.680367">
<ele>7.801236</ele>
<time>2026-07-15T09:22:26.000Z</time>
</trkpt>
<trkpt lat="57.112439" lon="8.680423">
<ele>7.783851</ele>
<time>2026-07-15T09:22:27.000Z</time>
</trkpt>
<trkpt lat="57.112421" lon="8.680473">
<ele>7.768526</ele>
<time>2026-07-15T09:22:28.000Z</time>
</trkpt>
<trkpt lat="57.112403" lon="8.680533">
<ele>7.751016</ele>
<time>2026-07-15T09:22:29.000Z</time>
</trkpt>
<trkpt lat="57.112385" lon="8.680587">
<ele>7.734829</ele>
<time>2026-07-15T09:22:30.000Z</time>
</trkpt>
<trkpt lat="57.112370" lon="8.680643">
<ele>7.718878</ele>
<time>2026-07-15T09:22:31.000Z</time>
</trkpt>
<trkpt lat="57.112347" lon="8.680699">
<ele>7.700942</ele>
<time>2026-07-15T09:22:32.000Z</time>
</trkpt>
<trkpt lat="57.112327" lon="8.680757">
<ele>7.683391</ele>
<time>2026-07-15T09:22:33.000Z</time>
</trkpt>
<trkpt lat="57.112309" lon="8.680812">
<ele>7.666986</ele>
<time>2026-07-15T09:22:34.000Z</time>
</trkpt>
<trkpt lat="57.112301" lon="8.680850">
<ele>7.656575</ele>
<time>2026-07-15T09:22:35.000Z</time>
</trkpt>
<trkpt lat="57.112297" lon="8.680864">
<ele>7.652534</ele>
<time>2026-07-15T09:23:27.000Z</time>
</trkpt>
<trkpt lat="57.112294" lon="8.680904">
<ele>7.642219</ele>
<time>2026-07-15T09:23:28.000Z</time>
</trkpt>
<trkpt lat="57.112283" lon="8.680953">
<ele>7.628674</ele>
<time>2026-07-15T09:23:29.000Z</time>
</trkpt>
<trkpt lat="57.112268" lon="8.681015">
<ele>7.611335</ele>
<time>2026-07-15T09:23:30.000Z</time>
</trkpt>
<trkpt lat="57.112250" lon="8.681090">
<ele>7.590388</ele>
<time>2026-07-15T09:23:31.000Z</time>
</trkpt>
<trkpt lat="57.112229" lon="8.681180">
<ele>7.565365</ele>
<time>2026-07-15T09:23:32.000Z</time>
</trkpt>
<trkpt lat="57.112205" lon="8.681271">
<ele>7.539522</ele>
<time>2026-07-15T09:23:33.000Z</time>
</trkpt>
<trkpt lat="57.112186" lon="8.681367">
<ele>7.513420</ele>
<time>2026-07-15T09:23:34.000Z</time>
</trkpt>
<trkpt lat="57.112165" lon="8.681456">
<ele>7.488631</ele>
<time>2026-07-15T09:23:35.000Z</time>
</trkpt>
<trkpt lat="57.112145" lon="8.681555">
<ele>7.461648</ele>
<time>2026-07-15T09:23:36.000Z</time>
</trkpt>
<trkpt lat="57.112134" lon="8.681647">
<ele>7.437583</ele>
<time>2026-07-15T09:23:37.000Z</time>
</trkpt>
<trkpt lat="57.112137" lon="8.681744">
<ele>7.412764</ele>
<time>2026-07-15T09:23:38.000Z</time>
</trkpt>
<trkpt lat="57.112149" lon="8.681828">
<ele>7.390576</ele>
<time>2026-07-15T09:23:39.000Z</time>
</trkpt>
<trkpt lat="57.112164" lon="8.681911">
<ele>7.368230</ele>
<time>2026-07-15T09:23:40.000Z</time>
</trkpt>
<trkpt lat="57.112174" lon="8.681992">
<ele>7.337060</ele>
<time>2026-07-15T09:23:41.000Z</time>
</trkpt>
<trkpt lat="57.112175" lon="8.682093">
<ele>7.242721</ele>
<time>2026-07-15T09:23:42.000Z</time>
</trkpt>
<trkpt lat="57.112163" lon="8.682191">
<ele>7.148900</ele>
<time>2026-07-15T09:23:43.000Z</time>
</trkpt>
<trkpt lat="57.112144" lon="8.682296">
<ele>7.045540</ele>
<time>2026-07-15T09:23:44.000Z</time>
</trkpt>
<trkpt lat="57.112122" lon="8.682402">
<ele>6.939562</ele>
<time>2026-07-15T09:23:45.000Z</time>
</trkpt>
<trkpt lat="57.112087" lon="8.682510">
<ele>6.822103</ele>
<time>2026-07-15T09:23:46.000Z</time>
</trkpt>
<trkpt lat="57.112056" lon="8.682618">
<ele>6.708017</ele>
<time>2026-07-15T09:23:47.000Z</time>
</trkpt>
<trkpt lat="57.112031" lon="8.682726">
<ele>6.598373</ele>
<time>2026-07-15T09:23:48.000Z</time>
</trkpt>
<trkpt lat="57.112007" lon="8.682854">
<ele>6.471908</ele>
<time>2026-07-15T09:23:49.000Z</time>
</trkpt>
<trkpt lat="57.111980" lon="8.682960">
<ele>6.362563</ele>
<time>2026-07-15T09:23:50.000Z</time>
</trkpt>
<trkpt lat="57.111949" lon="8.683060">
<ele>6.255025</ele>
<time>2026-07-15T09:23:51.000Z</time>
</trkpt>
<trkpt lat="57.111915" lon="8.683157">
<ele>6.147202</ele>
<time>2026-07-15T09:23:52.000Z</time>
</trkpt>
<trkpt lat="57.111882" lon="8.683249">
<ele>6.044230</ele>
<time>2026-07-15T09:23:53.000Z</time>
</trkpt>
<trkpt lat="57.111843" lon="8.683350">
<ele>5.928487</ele>
<time>2026-07-15T09:23:54.000Z</time>
</trkpt>
<trkpt lat="57.111812" lon="8.683455">
<ele>5.816870</ele>
<time>2026-07-15T09:23:55.000Z</time>
</trkpt>
<trkpt lat="57.111796" lon="8.683552">
<ele>5.722193</ele>
<time>2026-07-15T09:23:56.000Z</time>
</trkpt>
<trkpt lat="57.111782" lon="8.683685">
<ele>5.595672</ele>
<time>2026-07-15T09:23:57.000Z</time>
</trkpt>
<trkpt lat="57.111771" lon="8.683803">
<ele>5.483858</ele>
<time>2026-07-15T09:23:58.000Z</time>
</trkpt>
<trkpt lat="57.111763" lon="8.683928">
<ele>5.366312</ele>
<time>2026-07-15T09:23:59.000Z</time>
</trkpt>
<trkpt lat="57.111752" lon="8.684047">
<ele>5.253578</ele>
<time>2026-07-15T09:24:00.000Z</time>
</trkpt>
<trkpt lat="57.111740" lon="8.684168">
<ele>5.138706</ele>
<time>2026-07-15T09:24:01.000Z</time>
</trkpt>
<trkpt lat="57.111732" lon="8.684290">
<ele>5.023941</ele>
<time>2026-07-15T09:24:02.000Z</time>
</trkpt>
<trkpt lat="57.111717" lon="8.684403">
<ele>4.915302</ele>
<time>2026-07-15T09:24:03.000Z</time>
</trkpt>
<trkpt lat="57.111694" lon="8.684511">
<ele>4.806960</ele>
<time>2026-07-15T09:24:04.000Z</time>
</trkpt>
<trkpt lat="57.111667" lon="8.684619">
<ele>4.695922</ele>
<time>2026-07-15T09:24:05.000Z</time>
</trkpt>
<trkpt lat="57.111640" lon="8.684724">
<ele>4.587421</ele>
<time>2026-07-15T09:24:06.000Z</time>
</trkpt>
<trkpt lat="57.111610" lon="8.684828">
<ele>4.477440</ele>
<time>2026-07-15T09:24:07.000Z</time>
</trkpt>
<trkpt lat="57.111581" lon="8.684932">
<ele>4.368255</ele>
<time>2026-07-15T09:24:08.000Z</time>
</trkpt>
<trkpt lat="57.111545" lon="8.685045">
<ele>4.264491</ele>
<time>2026-07-15T09:24:09.000Z</time>
</trkpt>
<trkpt lat="57.111515" lon="8.685153">
<ele>4.336334</ele>
<time>2026-07-15T09:24:10.000Z</time>
</trkpt>
<trkpt lat="57.111485" lon="8.685257">
<ele>4.406075</ele>
<time>2026-07-15T09:24:11.000Z</time>
</trkpt>
<trkpt lat="57.111454" lon="8.685358">
<ele>4.474783</ele>
<time>2026-07-15T09:24:12.000Z</time>
</trkpt>
<trkpt lat="57.111427" lon="8.685461">
<ele>4.542517</ele>
<time>2026-07-15T09:24:13.000Z</time>
</trkpt>
<trkpt lat="57.111396" lon="8.685557">
<ele>4.608663</ele>
<time>2026-07-15T09:24:14.000Z</time>
</trkpt>
<trkpt lat="57.111366" lon="8.685646">
<ele>4.670700</ele>
<time>2026-07-15T09:24:15.000Z</time>
</trkpt>
<trkpt lat="57.111331" lon="8.685724">
<ele>4.730624</ele>
<time>2026-07-15T09:24:16.000Z</time>
</trkpt>
<trkpt lat="57.111294" lon="8.685815">
<ele>4.797950</ele>
<time>2026-07-15T09:24:17.000Z</time>
</trkpt>
<trkpt lat="57.111261" lon="8.685899">
<ele>4.859350</ele>
<time>2026-07-15T09:24:18.000Z</time>
</trkpt>
<trkpt lat="57.111225" lon="8.685986">
<ele>4.924128</ele>
<time>2026-07-15T09:24:19.000Z</time>
</trkpt>
<trkpt lat="57.111194" lon="8.686074">
<ele>4.986250</ele>
<time>2026-07-15T09:24:20.000Z</time>
</trkpt>
<trkpt lat="57.111160" lon="8.686155">
<ele>5.046881</ele>
<time>2026-07-15T09:24:21.000Z</time>
</trkpt>
<trkpt lat="57.111122" lon="8.686235">
<ele>5.109827</ele>
<time>2026-07-15T09:24:22.000Z</time>
</trkpt>
<trkpt lat="57.111084" lon="8.686314">
<ele>5.172329</ele>
<time>2026-07-15T09:24:23.000Z</time>
</trkpt>
<trkpt lat="57.111050" lon="8.686399">
<ele>5.234851</ele>
<time>2026-07-15T09:24:24.000Z</time>
</trkpt>
<trkpt lat="57.111023" lon="8.686492">
<ele>5.297305</ele>
<time>2026-07-15T09:24:25.000Z</time>
</trkpt>
<trkpt lat="57.111000" lon="8.686590">
<ele>5.360532</ele>
<time>2026-07-15T09:24:26.000Z</time>
</trkpt>
<trkpt lat="57.110985" lon="8.686688">
<ele>5.420831</ele>
<time>2026-07-15T09:24:27.000Z</time>
</trkpt>
<trkpt lat="57.110959" lon="8.686782">
<ele>5.483306</ele>
<time>2026-07-15T09:24:28.000Z</time>
</trkpt>
<trkpt lat="57.110924" lon="8.686870">
<ele>5.547906</ele>
<time>2026-07-15T09:24:29.000Z</time>
</trkpt>
<trkpt lat="57.110886" lon="8.686954">
<ele>5.612654</ele>
<time>2026-07-15T09:24:30.000Z</time>
</trkpt>
<trkpt lat="57.110844" lon="8.687038">
<ele>5.680278</ele>
<time>2026-07-15T09:24:31.000Z</time>
</trkpt>
<trkpt lat="57.110806" lon="8.687126">
<ele>5.746864</ele>
<time>2026-07-15T09:24:32.000Z</time>
</trkpt>
<trkpt lat="57.110773" lon="8.687211">
<ele>5.808746</ele>
<time>2026-07-15T09:24:33.000Z</time>
</trkpt>
<trkpt lat="57.110741" lon="8.687305">
<ele>5.874450</ele>
<time>2026-07-15T09:24:34.000Z</time>
</trkpt>
<trkpt lat="57.110712" lon="8.687396">
<ele>5.936938</ele>
<time>2026-07-15T09:24:35.000Z</time>
</trkpt>
<trkpt lat="57.110683" lon="8.687486">
<ele>5.998916</ele>
<time>2026-07-15T09:24:36.000Z</time>
</trkpt>
<trkpt lat="57.110656" lon="8.687577">
<ele>6.060329</ele>
<time>2026-07-15T09:24:37.000Z</time>
</trkpt>
<trkpt lat="57.110630" lon="8.687668">
<ele>6.121227</ele>
<time>2026-07-15T09:24:38.000Z</time>
</trkpt>
<trkpt lat="57.110607" lon="8.687753">
<ele>6.177470</ele>
<time>2026-07-15T09:24:39.000Z</time>
</trkpt>
<trkpt lat="57.110584" lon="8.687831">
<ele>6.213741</ele>
<time>2026-07-15T09:24:40.000Z</time>
</trkpt>
<trkpt lat="57.110565" lon="8.687902">
<ele>6.191893</ele>
<time>2026-07-15T09:24:41.000Z</time>
</trkpt>
<trkpt lat="57.110550" lon="8.687971">
<ele>6.171377</ele>
<time>2026-07-15T09:24:42.000Z</time>
</trkpt>
<trkpt lat="57.110536" lon="8.688032">
<ele>6.153097</ele>
<time>2026-07-15T09:24:43.000Z</time>
</trkpt>
<trkpt lat="57.110523" lon="8.688092">
<ele>6.135265</ele>
<time>2026-07-15T09:24:44.000Z</time>
</trkpt>
<trkpt lat="57.110512" lon="8.688146">
<ele>6.119346</ele>
<time>2026-07-15T09:24:45.000Z</time>
</trkpt>
<trkpt lat="57.110496" lon="8.688201">
<ele>6.102123</ele>
<time>2026-07-15T09:24:46.000Z</time>
</trkpt>
<trkpt lat="57.110481" lon="8.688247">
<ele>6.087312</ele>
<time>2026-07-15T09:24:47.000Z</time>
</trkpt>
<trkpt lat="57.110466" lon="8.688294">
<ele>6.072263</ele>
<time>2026-07-15T09:24:48.000Z</time>
</trkpt>
<trkpt lat="57.110450" lon="8.688341">
<ele>6.056951</ele>
<time>2026-07-15T09:24:49.000Z</time>
</trkpt>
<trkpt lat="57.110432" lon="8.688384">
<ele>6.041965</ele>
<time>2026-07-15T09:24:50.000Z</time>
</trkpt>
<trkpt lat="57.110421" lon="8.688426">
<ele>6.029093</ele>
<time>2026-07-15T09:24:51.000Z</time>
</trkpt>
<trkpt lat="57.110401" lon="8.688475">
<ele>6.012173</ele>
<time>2026-07-15T09:24:52.000Z</time>
</trkpt>
<trkpt lat="57.110379" lon="8.688520">
<ele>5.995459</ele>
<time>2026-07-15T09:24:53.000Z</time>
</trkpt>
<trkpt lat="57.110347" lon="8.688566">
<ele>5.974824</ele>
<time>2026-07-15T09:24:54.000Z</time>
</trkpt>
<trkpt lat="57.110310" lon="8.688605">
<ele>5.953153</ele>
<time>2026-07-15T09:24:55.000Z</time>
</trkpt>
<trkpt lat="57.110263" lon="8.688646">
<ele>5.926717</ele>
<time>2026-07-15T09:24:56.000Z</time>
</trkpt>
<trkpt lat="57.110218" lon="8.688679">
<ele>5.902095</ele>
<time>2026-07-15T09:24:57.000Z</time>
</trkpt>
<trkpt lat="57.110180" lon="8.688720">
<ele>5.879708</ele>
<time>2026-07-15T09:24:58.000Z</time>
</trkpt>
<trkpt lat="57.110149" lon="8.688776">
<ele>5.857634</ele>
<time>2026-07-15T09:24:59.000Z</time>
</trkpt>
<trkpt lat="57.110123" lon="8.688838">
<ele>5.836010</ele>
<time>2026-07-15T09:25:00.000Z</time>
</trkpt>
<trkpt lat="57.110100" lon="8.688910">
<ele>5.812952</ele>
<time>2026-07-15T09:25:01.000Z</time>
</trkpt>
<trkpt lat="57.110085" lon="8.688988">
<ele>5.790111</ele>
<time>2026-07-15T09:25:02.000Z</time>
</trkpt>
<trkpt lat="57.110077" lon="8.689071">
<ele>5.766842</ele>
<time>2026-07-15T09:25:03.000Z</time>
</trkpt>
<trkpt lat="57.110066" lon="8.689157">
<ele>5.742454</ele>
<time>2026-07-15T09:25:04.000Z</time>
</trkpt>
<trkpt lat="57.110058" lon="8.689251">
<ele>5.716190</ele>
<time>2026-07-15T09:25:05.000Z</time>
</trkpt>
<trkpt lat="57.110046" lon="8.689344">
<ele>5.689804</ele>
<time>2026-07-15T09:25:06.000Z</time>
</trkpt>
<trkpt lat="57.110027" lon="8.689438">
<ele>5.662118</ele>
<time>2026-07-15T09:25:07.000Z</time>
</trkpt>
<trkpt lat="57.110000" lon="8.689534">
<ele>5.632275</ele>
<time>2026-07-15T09:25:08.000Z</time>
</trkpt>
<trkpt lat="57.109970" lon="8.689635">
<ele>5.600498</ele>
<time>2026-07-15T09:25:09.000Z</time>
</trkpt>
<trkpt lat="57.109943" lon="8.689741">
<ele>5.568179</ele>
<time>2026-07-15T09:25:10.000Z</time>
</trkpt>
<trkpt lat="57.109920" lon="8.689855">
<ele>5.534609</ele>
<time>2026-07-15T09:25:11.000Z</time>
</trkpt>
<trkpt lat="57.109909" lon="8.689976">
<ele>5.500744</ele>
<time>2026-07-15T09:25:12.000Z</time>
</trkpt>
<trkpt lat="57.109901" lon="8.690102">
<ele>5.465727</ele>
<time>2026-07-15T09:25:13.000Z</time>
</trkpt>
<trkpt lat="57.109901" lon="8.690227">
<ele>5.431223</ele>
<time>2026-07-15T09:25:14.000Z</time>
</trkpt>
<trkpt lat="57.109905" lon="8.690356">
<ele>5.395556</ele>
<time>2026-07-15T09:25:15.000Z</time>
</trkpt>
<trkpt lat="57.109905" lon="8.690487">
<ele>5.359395</ele>
<time>2026-07-15T09:25:16.000Z</time>
</trkpt>
<trkpt lat="57.109905" lon="8.690613">
<ele>5.324615</ele>
<time>2026-07-15T09:25:17.000Z</time>
</trkpt>
<trkpt lat="57.109915" lon="8.690725">
<ele>5.287062</ele>
<time>2026-07-15T09:25:18.000Z</time>
</trkpt>
<trkpt lat="57.109924" lon="8.690838">
<ele>5.238244</ele>
<time>2026-07-15T09:25:19.000Z</time>
</trkpt>
<trkpt lat="57.109936" lon="8.690941">
<ele>5.193216</ele>
<time>2026-07-15T09:25:20.000Z</time>
</trkpt>
<trkpt lat="57.109951" lon="8.691045">
<ele>5.147220</ele>
<time>2026-07-15T09:25:21.000Z</time>
</trkpt>
<trkpt lat="57.109955" lon="8.691156">
<ele>5.099670</ele>
<time>2026-07-15T09:25:22.000Z</time>
</trkpt>
<trkpt lat="57.109943" lon="8.691266">
<ele>5.051712</ele>
<time>2026-07-15T09:25:23.000Z</time>
</trkpt>
<trkpt lat="57.109932" lon="8.691377">
<ele>5.003482</ele>
<time>2026-07-15T09:25:24.000Z</time>
</trkpt>
<trkpt lat="57.109917" lon="8.691491">
<ele>4.953344</ele>
<time>2026-07-15T09:25:25.000Z</time>
</trkpt>
<trkpt lat="57.109901" lon="8.691612">
<ele>4.900112</ele>
<time>2026-07-15T09:25:26.000Z</time>
</trkpt>
<trkpt lat="57.109882" lon="8.691731">
<ele>4.847093</ele>
<time>2026-07-15T09:25:27.000Z</time>
</trkpt>
<trkpt lat="57.109859" lon="8.691855">
<ele>4.791083</ele>
<time>2026-07-15T09:25:28.000Z</time>
</trkpt>
<trkpt lat="57.109828" lon="8.691979">
<ele>4.732733</ele>
<time>2026-07-15T09:25:29.000Z</time>
</trkpt>
<trkpt lat="57.109795" lon="8.692099">
<ele>4.675238</ele>
<time>2026-07-15T09:25:30.000Z</time>
</trkpt>
<trkpt lat="57.109752" lon="8.692231">
<ele>4.609441</ele>
<time>2026-07-15T09:25:31.000Z</time>
</trkpt>
<trkpt lat="57.109710" lon="8.692364">
<ele>4.543677</ele>
<time>2026-07-15T09:25:32.000Z</time>
</trkpt>
<trkpt lat="57.109669" lon="8.692496">
<ele>4.478677</ele>
<time>2026-07-15T09:25:33.000Z</time>
</trkpt>
<trkpt lat="57.109628" lon="8.692625">
<ele>4.414786</ele>
<time>2026-07-15T09:25:34.000Z</time>
</trkpt>
<trkpt lat="57.109584" lon="8.692765">
<ele>4.345644</ele>
<time>2026-07-15T09:25:35.000Z</time>
</trkpt>
<trkpt lat="57.109544" lon="8.692889">
<ele>4.283994</ele>
<time>2026-07-15T09:25:36.000Z</time>
</trkpt>
<trkpt lat="57.109500" lon="8.693024">
<ele>4.216693</ele>
<time>2026-07-15T09:25:37.000Z</time>
</trkpt>
<trkpt lat="57.109458" lon="8.693153">
<ele>4.152400</ele>
<time>2026-07-15T09:25:38.000Z</time>
</trkpt>
<trkpt lat="57.109414" lon="8.693281">
<ele>4.087646</ele>
<time>2026-07-15T09:25:39.000Z</time>
</trkpt>
<trkpt lat="57.109375" lon="8.693417">
<ele>4.021906</ele>
<time>2026-07-15T09:25:40.000Z</time>
</trkpt>
<trkpt lat="57.109344" lon="8.693547">
<ele>3.961216</ele>
<time>2026-07-15T09:25:41.000Z</time>
</trkpt>
<trkpt lat="57.109306" lon="8.693708">
<ele>3.888176</ele>
<time>2026-07-15T09:25:42.000Z</time>
</trkpt>
<trkpt lat="57.109268" lon="8.693851">
<ele>3.871311</ele>
<time>2026-07-15T09:25:43.000Z</time>
</trkpt>
<trkpt lat="57.109232" lon="8.693982">
<ele>3.855758</ele>
<time>2026-07-15T09:25:44.000Z</time>
</trkpt>
<trkpt lat="57.109192" lon="8.694128">
<ele>3.838435</ele>
<time>2026-07-15T09:25:45.000Z</time>
</trkpt>
<trkpt lat="57.109151" lon="8.694266">
<ele>3.821771</ele>
<time>2026-07-15T09:25:46.000Z</time>
</trkpt>
<trkpt lat="57.109111" lon="8.694409">
<ele>3.804731</ele>
<time>2026-07-15T09:25:47.000Z</time>
</trkpt>
<trkpt lat="57.109061" lon="8.694543">
<ele>3.787508</ele>
<time>2026-07-15T09:25:48.000Z</time>
</trkpt>
<trkpt lat="57.109015" lon="8.694678">
<ele>3.770625</ele>
<time>2026-07-15T09:25:49.000Z</time>
</trkpt>
<trkpt lat="57.108966" lon="8.694814">
<ele>3.753335</ele>
<time>2026-07-15T09:25:50.000Z</time>
</trkpt>
<trkpt lat="57.108917" lon="8.694954">
<ele>3.735691</ele>
<time>2026-07-15T09:25:51.000Z</time>
</trkpt>
<trkpt lat="57.108871" lon="8.695091">
<ele>3.718628</ele>
<time>2026-07-15T09:25:52.000Z</time>
</trkpt>
<trkpt lat="57.108825" lon="8.695231">
<ele>3.701293</ele>
<time>2026-07-15T09:25:53.000Z</time>
</trkpt>
<trkpt lat="57.108779" lon="8.695374">
<ele>3.683686</ele>
<time>2026-07-15T09:25:54.000Z</time>
</trkpt>
<trkpt lat="57.108731" lon="8.695512">
<ele>3.666326</ele>
<time>2026-07-15T09:25:55.000Z</time>
</trkpt>
<trkpt lat="57.108684" lon="8.695661">
<ele>3.648072</ele>
<time>2026-07-15T09:25:56.000Z</time>
</trkpt>
<trkpt lat="57.108639" lon="8.695802">
<ele>3.630746</ele>
<time>2026-07-15T09:25:57.000Z</time>
</trkpt>
<trkpt lat="57.108596" lon="8.695952">
<ele>3.612778</ele>
<time>2026-07-15T09:25:58.000Z</time>
</trkpt>
<trkpt lat="57.108550" lon="8.696100">
<ele>3.594713</ele>
<time>2026-07-15T09:25:59.000Z</time>
</trkpt>
<trkpt lat="57.108508" lon="8.696250">
<ele>3.576835</ele>
<time>2026-07-15T09:26:00.000Z</time>
</trkpt>
<trkpt lat="57.108467" lon="8.696393">
<ele>3.559704</ele>
<time>2026-07-15T09:26:01.000Z</time>
</trkpt>
<trkpt lat="57.108425" lon="8.696536">
<ele>3.542482</ele>
<time>2026-07-15T09:26:02.000Z</time>
</trkpt>
<trkpt lat="57.108383" lon="8.696674">
<ele>3.549380</ele>
<time>2026-07-15T09:26:03.000Z</time>
</trkpt>
<trkpt lat="57.108341" lon="8.696814">
<ele>3.565183</ele>
<time>2026-07-15T09:26:04.000Z</time>
</trkpt>
<trkpt lat="57.108299" lon="8.696953">
<ele>3.580899</ele>
<time>2026-07-15T09:26:05.000Z</time>
</trkpt>
<trkpt lat="57.108254" lon="8.697087">
<ele>3.596465</ele>
<time>2026-07-15T09:26:06.000Z</time>
</trkpt>
<trkpt lat="57.108212" lon="8.697223">
<ele>3.611923</ele>
<time>2026-07-15T09:26:07.000Z</time>
</trkpt>
<trkpt lat="57.108174" lon="8.697360">
<ele>3.627123</ele>
<time>2026-07-15T09:26:08.000Z</time>
</trkpt>
<trkpt lat="57.108135" lon="8.697498">
<ele>3.642493</ele>
<time>2026-07-15T09:26:09.000Z</time>
</trkpt>
<trkpt lat="57.108097" lon="8.697634">
<ele>3.657604</ele>
<time>2026-07-15T09:26:10.000Z</time>
</trkpt>
<trkpt lat="57.108059" lon="8.697766">
<ele>3.672365</ele>
<time>2026-07-15T09:26:11.000Z</time>
</trkpt>
<trkpt lat="57.108024" lon="8.697894">
<ele>3.686525</ele>
<time>2026-07-15T09:26:12.000Z</time>
</trkpt>
<trkpt lat="57.107986" lon="8.698018">
<ele>3.700592</ele>
<time>2026-07-15T09:26:13.000Z</time>
</trkpt>
<trkpt lat="57.107948" lon="8.698137">
<ele>3.714232</ele>
<time>2026-07-15T09:26:14.000Z</time>
</trkpt>
<trkpt lat="57.107909" lon="8.698255">
<ele>3.727880</ele>
<time>2026-07-15T09:26:15.000Z</time>
</trkpt>
<trkpt lat="57.107868" lon="8.698369">
<ele>3.741389</ele>
<time>2026-07-15T09:26:16.000Z</time>
</trkpt>
<trkpt lat="57.107835" lon="8.698477">
<ele>3.753633</ele>
<time>2026-07-15T09:26:17.000Z</time>
</trkpt>
<trkpt lat="57.107800" lon="8.698590">
<ele>3.766486</ele>
<time>2026-07-15T09:26:18.000Z</time>
</trkpt>
<trkpt lat="57.107765" lon="8.698702">
<ele>3.779254</ele>
<time>2026-07-15T09:26:19.000Z</time>
</trkpt>
<trkpt lat="57.107734" lon="8.698817">
<ele>3.791939</ele>
<time>2026-07-15T09:26:20.000Z</time>
</trkpt>
<trkpt lat="57.107708" lon="8.698938">
<ele>3.804796</ele>
<time>2026-07-15T09:26:21.000Z</time>
</trkpt>
<trkpt lat="57.107686" lon="8.699055">
<ele>3.817029</ele>
<time>2026-07-15T09:26:22.000Z</time>
</trkpt>
<trkpt lat="57.107666" lon="8.699184">
<ele>3.830284</ele>
<time>2026-07-15T09:26:23.000Z</time>
</trkpt>
<trkpt lat="57.107647" lon="8.699307">
<ele>3.842919</ele>
<time>2026-07-15T09:26:24.000Z</time>
</trkpt>
<trkpt lat="57.107628" lon="8.699433">
<ele>3.855839</ele>
<time>2026-07-15T09:26:25.000Z</time>
</trkpt>
<trkpt lat="57.107608" lon="8.699561">
<ele>3.857911</ele>
<time>2026-07-15T09:26:26.000Z</time>
</trkpt>
<trkpt lat="57.107593" lon="8.699689">
<ele>3.833049</ele>
<time>2026-07-15T09:26:27.000Z</time>
</trkpt>
<trkpt lat="57.107578" lon="8.699814">
<ele>3.808743</ele>
<time>2026-07-15T09:26:28.000Z</time>
</trkpt>
<trkpt lat="57.107567" lon="8.699945">
<ele>3.783575</ele>
<time>2026-07-15T09:26:29.000Z</time>
</trkpt>
<trkpt lat="57.107551" lon="8.700070">
<ele>3.759191</ele>
<time>2026-07-15T09:26:30.000Z</time>
</trkpt>
<trkpt lat="57.107540" lon="8.700194">
<ele>3.735335</ele>
<time>2026-07-15T09:26:31.000Z</time>
</trkpt>
<trkpt lat="57.107521" lon="8.700321">
<ele>3.710323</ele>
<time>2026-07-15T09:26:32.000Z</time>
</trkpt>
<trkpt lat="57.107503" lon="8.700442">
<ele>3.686503</ele>
<time>2026-07-15T09:26:33.000Z</time>
</trkpt>
<trkpt lat="57.107483" lon="8.700578">
<ele>3.659751</ele>
<time>2026-07-15T09:26:34.000Z</time>
</trkpt>
<trkpt lat="57.107464" lon="8.700711">
<ele>3.633639</ele>
<time>2026-07-15T09:26:35.000Z</time>
</trkpt>
<trkpt lat="57.107445" lon="8.700839">
<ele>3.608444</ele>
<time>2026-07-15T09:26:36.000Z</time>
</trkpt>
<trkpt lat="57.107426" lon="8.700974">
<ele>3.581965</ele>
<time>2026-07-15T09:26:37.000Z</time>
</trkpt>
<trkpt lat="57.107406" lon="8.701104">
<ele>3.556311</ele>
<time>2026-07-15T09:26:38.000Z</time>
</trkpt>
<trkpt lat="57.107380" lon="8.701230">
<ele>3.530718</ele>
<time>2026-07-15T09:26:39.000Z</time>
</trkpt>
<trkpt lat="57.107357" lon="8.701354">
<ele>3.505839</ele>
<time>2026-07-15T09:26:40.000Z</time>
</trkpt>
<trkpt lat="57.107330" lon="8.701471">
<ele>3.481702</ele>
<time>2026-07-15T09:26:41.000Z</time>
</trkpt>
<trkpt lat="57.107307" lon="8.701586">
<ele>3.458433</ele>
<time>2026-07-15T09:26:42.000Z</time>
</trkpt>
<trkpt lat="57.107284" lon="8.701693">
<ele>3.436584</ele>
<time>2026-07-15T09:26:43.000Z</time>
</trkpt>
<trkpt lat="57.107258" lon="8.701796">
<ele>3.415018</ele>
<time>2026-07-15T09:26:44.000Z</time>
</trkpt>
<trkpt lat="57.107235" lon="8.701896">
<ele>3.394398</ele>
<time>2026-07-15T09:26:45.000Z</time>
</trkpt>
<trkpt lat="57.107209" lon="8.701993">
<ele>3.373859</ele>
<time>2026-07-15T09:26:46.000Z</time>
</trkpt>
<trkpt lat="57.107181" lon="8.702097">
<ele>3.351819</ele>
<time>2026-07-15T09:26:47.000Z</time>
</trkpt>
<trkpt lat="57.107155" lon="8.702198">
<ele>3.330597</ele>
<time>2026-07-15T09:26:48.000Z</time>
</trkpt>
<trkpt lat="57.107124" lon="8.702306">
<ele>3.307403</ele>
<time>2026-07-15T09:26:49.000Z</time>
</trkpt>
<trkpt lat="57.107093" lon="8.702414">
<ele>3.284209</ele>
<time>2026-07-15T09:26:50.000Z</time>
</trkpt>
<trkpt lat="57.107073" lon="8.702513">
<ele>3.264153</ele>
<time>2026-07-15T09:26:51.000Z</time>
</trkpt>
<trkpt lat="57.107044" lon="8.702641">
<ele>3.237819</ele>
<time>2026-07-15T09:26:52.000Z</time>
</trkpt>
<trkpt lat="57.107017" lon="8.702760">
<ele>3.251376</ele>
<time>2026-07-15T09:26:53.000Z</time>
</trkpt>
<trkpt lat="57.106991" lon="8.702879">
<ele>3.267269</ele>
<time>2026-07-15T09:26:54.000Z</time>
</trkpt>
<trkpt lat="57.106965" lon="8.703000">
<ele>3.283392</ele>
<time>2026-07-15T09:26:55.000Z</time>
</trkpt>
<trkpt lat="57.106945" lon="8.703113">
<ele>3.298117</ele>
<time>2026-07-15T09:26:56.000Z</time>
</trkpt>
<trkpt lat="57.106918" lon="8.703260">
<ele>3.317344</ele>
<time>2026-07-15T09:26:57.000Z</time>
</trkpt>
<trkpt lat="57.106899" lon="8.703388">
<ele>3.333785</ele>
<time>2026-07-15T09:26:58.000Z</time>
</trkpt>
<trkpt lat="57.106880" lon="8.703514">
<ele>3.349987</ele>
<time>2026-07-15T09:26:59.000Z</time>
</trkpt>
<trkpt lat="57.106861" lon="8.703636">
<ele>3.365712</ele>
<time>2026-07-15T09:27:00.000Z</time>
</trkpt>
<trkpt lat="57.106842" lon="8.703760">
<ele>3.381676</ele>
<time>2026-07-15T09:27:01.000Z</time>
</trkpt>
<trkpt lat="57.106823" lon="8.703882">
<ele>3.397401</ele>
<time>2026-07-15T09:27:02.000Z</time>
</trkpt>
<trkpt lat="57.106800" lon="8.703997">
<ele>3.412585</ele>
<time>2026-07-15T09:27:03.000Z</time>
</trkpt>
<trkpt lat="57.106778" lon="8.704101">
<ele>3.426414</ele>
<time>2026-07-15T09:27:04.000Z</time>
</trkpt>
<trkpt lat="57.106747" lon="8.704210">
<ele>3.441659</ele>
<time>2026-07-15T09:27:05.000Z</time>
</trkpt>
<trkpt lat="57.106720" lon="8.704316">
<ele>3.456165</ele>
<time>2026-07-15T09:27:06.000Z</time>
</trkpt>
<trkpt lat="57.106693" lon="8.704416">
<ele>3.470002</ele>
<time>2026-07-15T09:27:07.000Z</time>
</trkpt>
<trkpt lat="57.106668" lon="8.704500">
<ele>3.481870</ele>
<time>2026-07-15T09:27:08.000Z</time>
</trkpt>
<trkpt lat="57.106636" lon="8.704581">
<ele>3.494281</ele>
<time>2026-07-15T09:27:09.000Z</time>
</trkpt>
<trkpt lat="57.106609" lon="8.704642">
<ele>3.504031</ele>
<time>2026-07-15T09:27:10.000Z</time>
</trkpt>
<trkpt lat="57.106594" lon="8.704682">
<ele>3.510054</ele>
<time>2026-07-15T09:27:11.000Z</time>
</trkpt>
<trkpt lat="57.106586" lon="8.704695">
<ele>3.512488</ele>
<time>2026-07-15T09:27:41.000Z</time>
</trkpt>
<trkpt lat="57.106552" lon="8.704784">
<ele>3.525970</ele>
<time>2026-07-15T09:27:42.000Z</time>
</trkpt>
<trkpt lat="57.106537" lon="8.704820">
<ele>3.531592</ele>
<time>2026-07-15T09:27:43.000Z</time>
</trkpt>
<trkpt lat="57.106525" lon="8.704860">
<ele>3.537254</ele>
<time>2026-07-15T09:27:44.000Z</time>
</trkpt>
<trkpt lat="57.106510" lon="8.704904">
<ele>3.543691</ele>
<time>2026-07-15T09:27:45.000Z</time>
</trkpt>
<trkpt lat="57.106499" lon="8.704949">
<ele>3.549805</ele>
<time>2026-07-15T09:27:46.000Z</time>
</trkpt>
<trkpt lat="57.106487" lon="8.704995">
<ele>3.556128</ele>
<time>2026-07-15T09:27:47.000Z</time>
</trkpt>
<trkpt lat="57.106476" lon="8.705045">
<ele>3.562812</ele>
<time>2026-07-15T09:27:48.000Z</time>
</trkpt>
<trkpt lat="57.106461" lon="8.705095">
<ele>3.569890</ele>
<time>2026-07-15T09:27:49.000Z</time>
</trkpt>
<trkpt lat="57.106453" lon="8.705150">
<ele>3.576945</ele>
<time>2026-07-15T09:27:50.000Z</time>
</trkpt>
<trkpt lat="57.106441" lon="8.705206">
<ele>3.584404</ele>
<time>2026-07-15T09:27:51.000Z</time>
</trkpt>
<trkpt lat="57.106430" lon="8.705262">
<ele>3.591782</ele>
<time>2026-07-15T09:27:52.000Z</time>
</trkpt>
<trkpt lat="57.106418" lon="8.705326">
<ele>3.600171</ele>
<time>2026-07-15T09:27:53.000Z</time>
</trkpt>
<trkpt lat="57.106407" lon="8.705396">
<ele>3.609200</ele>
<time>2026-07-15T09:27:54.000Z</time>
</trkpt>
<trkpt lat="57.106396" lon="8.705477">
<ele>3.619545</ele>
<time>2026-07-15T09:27:55.000Z</time>
</trkpt>
<trkpt lat="57.106381" lon="8.705564">
<ele>3.630855</ele>
<time>2026-07-15T09:27:56.000Z</time>
</trkpt>
<trkpt lat="57.106361" lon="8.705659">
<ele>3.643479</ele>
<time>2026-07-15T09:27:57.000Z</time>
</trkpt>
<trkpt lat="57.106342" lon="8.705754">
<ele>3.651073</ele>
<time>2026-07-15T09:27:58.000Z</time>
</trkpt>
<trkpt lat="57.106323" lon="8.705853">
<ele>3.657171</ele>
<time>2026-07-15T09:27:59.000Z</time>
</trkpt>
<trkpt lat="57.106304" lon="8.705958">
<ele>3.663597</ele>
<time>2026-07-15T09:28:00.000Z</time>
</trkpt>
<trkpt lat="57.106285" lon="8.706065">
<ele>3.670134</ele>
<time>2026-07-15T09:28:01.000Z</time>
</trkpt>
<trkpt lat="57.106266" lon="8.706177">
<ele>3.676948</ele>
<time>2026-07-15T09:28:02.000Z</time>
</trkpt>
<trkpt lat="57.106243" lon="8.706290">
<ele>3.683955</ele>
<time>2026-07-15T09:28:03.000Z</time>
</trkpt>
<trkpt lat="57.106224" lon="8.706399">
<ele>3.690603</ele>
<time>2026-07-15T09:28:04.000Z</time>
</trkpt>
<trkpt lat="57.106205" lon="8.706507">
<ele>3.697195</ele>
<time>2026-07-15T09:28:05.000Z</time>
</trkpt>
<trkpt lat="57.106182" lon="8.706622">
<ele>3.704311</ele>
<time>2026-07-15T09:28:06.000Z</time>
</trkpt>
<trkpt lat="57.106164" lon="8.706729">
<ele>3.710816</ele>
<time>2026-07-15T09:28:07.000Z</time>
</trkpt>
<trkpt lat="57.106144" lon="8.706842">
<ele>3.717717</ele>
<time>2026-07-15T09:28:08.000Z</time>
</trkpt>
<trkpt lat="57.106129" lon="8.706948">
<ele>3.724078</ele>
<time>2026-07-15T09:28:09.000Z</time>
</trkpt>
<trkpt lat="57.106110" lon="8.707060">
<ele>3.730892</ele>
<time>2026-07-15T09:28:10.000Z</time>
</trkpt>
<trkpt lat="57.106091" lon="8.707168">
<ele>3.737484</ele>
<time>2026-07-15T09:28:11.000Z</time>
</trkpt>
<trkpt lat="57.106071" lon="8.707282">
<ele>3.744441</ele>
<time>2026-07-15T09:28:12.000Z</time>
</trkpt>
<trkpt lat="57.106060" lon="8.707387">
<ele>3.750650</ele>
<time>2026-07-15T09:28:13.000Z</time>
</trkpt>
<trkpt lat="57.106045" lon="8.707497">
<ele>3.757236</ele>
<time>2026-07-15T09:28:14.000Z</time>
</trkpt>
<trkpt lat="57.106041" lon="8.707600">
<ele>3.763233</ele>
<time>2026-07-15T09:28:15.000Z</time>
</trkpt>
<trkpt lat="57.106037" lon="8.707703">
<ele>3.769229</ele>
<time>2026-07-15T09:28:16.000Z</time>
</trkpt>
<trkpt lat="57.106033" lon="8.707809">
<ele>3.775399</ele>
<time>2026-07-15T09:28:17.000Z</time>
</trkpt>
<trkpt lat="57.106033" lon="8.707914">
<ele>3.781496</ele>
<time>2026-07-15T09:28:18.000Z</time>
</trkpt>
<trkpt lat="57.106030" lon="8.708021">
<ele>3.787718</ele>
<time>2026-07-15T09:28:19.000Z</time>
</trkpt>
<trkpt lat="57.106030" lon="8.708132">
<ele>3.794164</ele>
<time>2026-07-15T09:28:20.000Z</time>
</trkpt>
<trkpt lat="57.106022" lon="8.708239">
<ele>3.800435</ele>
<time>2026-07-15T09:28:21.000Z</time>
</trkpt>
<trkpt lat="57.106014" lon="8.708346">
<ele>3.806707</ele>
<time>2026-07-15T09:28:22.000Z</time>
</trkpt>
<trkpt lat="57.106003" lon="8.708448">
<ele>3.812746</ele>
<time>2026-07-15T09:28:23.000Z</time>
</trkpt>
<trkpt lat="57.105987" lon="8.708551">
<ele>3.818967</ele>
<time>2026-07-15T09:28:24.000Z</time>
</trkpt>
<trkpt lat="57.105976" lon="8.708650">
<ele>3.824835</ele>
<time>2026-07-15T09:28:25.000Z</time>
</trkpt>
<trkpt lat="57.105961" lon="8.708746">
<ele>3.830636</ele>
<time>2026-07-15T09:28:26.000Z</time>
</trkpt>
<trkpt lat="57.105946" lon="8.708840">
<ele>3.836325</ele>
<time>2026-07-15T09:28:27.000Z</time>
</trkpt>
<trkpt lat="57.105930" lon="8.708929">
<ele>3.841604</ele>
<time>2026-07-15T09:28:28.000Z</time>
</trkpt>
<trkpt lat="57.105919" lon="8.709018">
<ele>3.846585</ele>
<time>2026-07-15T09:28:29.000Z</time>
</trkpt>
<trkpt lat="57.105904" lon="8.709106">
<ele>3.851619</ele>
<time>2026-07-15T09:28:30.000Z</time>
</trkpt>
<trkpt lat="57.105889" lon="8.709190">
<ele>3.856444</ele>
<time>2026-07-15T09:28:31.000Z</time>
</trkpt>
<trkpt lat="57.105869" lon="8.709275">
<ele>3.861500</ele>
<time>2026-07-15T09:28:32.000Z</time>
</trkpt>
<trkpt lat="57.105850" lon="8.709362">
<ele>3.866617</ele>
<time>2026-07-15T09:28:33.000Z</time>
</trkpt>
<trkpt lat="57.105831" lon="8.709445">
<ele>3.871533</ele>
<time>2026-07-15T09:28:34.000Z</time>
</trkpt>
<trkpt lat="57.105812" lon="8.709525">
<ele>3.876298</ele>
<time>2026-07-15T09:28:35.000Z</time>
</trkpt>
<trkpt lat="57.105797" lon="8.709606">
<ele>3.880968</ele>
<time>2026-07-15T09:28:36.000Z</time>
</trkpt>
<trkpt lat="57.105778" lon="8.709678">
<ele>3.885337</ele>
<time>2026-07-15T09:28:37.000Z</time>
</trkpt>
<trkpt lat="57.105755" lon="8.709755">
<ele>3.890133</ele>
<time>2026-07-15T09:28:38.000Z</time>
</trkpt>
<trkpt lat="57.105733" lon="8.709828">
<ele>3.894689</ele>
<time>2026-07-15T09:28:39.000Z</time>
</trkpt>
<trkpt lat="57.105713" lon="8.709903">
<ele>3.899249</ele>
<time>2026-07-15T09:28:40.000Z</time>
</trkpt>
<trkpt lat="57.105694" lon="8.709973">
<ele>3.903520</ele>
<time>2026-07-15T09:28:41.000Z</time>
</trkpt>
<trkpt lat="57.105682" lon="8.710044">
<ele>3.907578</ele>
<time>2026-07-15T09:28:42.000Z</time>
</trkpt>
<trkpt lat="57.105667" lon="8.710111">
<ele>3.911533</ele>
<time>2026-07-15T09:28:43.000Z</time>
</trkpt>
<trkpt lat="57.105652" lon="8.710182">
<ele>3.915690</ele>
<time>2026-07-15T09:28:44.000Z</time>
</trkpt>
<trkpt lat="57.105637" lon="8.710248">
<ele>3.919595</ele>
<time>2026-07-15T09:28:45.000Z</time>
</trkpt>
<trkpt lat="57.105621" lon="8.710316">
<ele>3.923639</ele>
<time>2026-07-15T09:28:46.000Z</time>
</trkpt>
<trkpt lat="57.105606" lon="8.710382">
<ele>3.927544</ele>
<time>2026-07-15T09:28:47.000Z</time>
</trkpt>
<trkpt lat="57.105591" lon="8.710447">
<ele>3.931398</ele>
<time>2026-07-15T09:28:48.000Z</time>
</trkpt>
<trkpt lat="57.105575" lon="8.710511">
<ele>3.935243</ele>
<time>2026-07-15T09:28:49.000Z</time>
</trkpt>
<trkpt lat="57.105564" lon="8.710574">
<ele>3.938855</ele>
<time>2026-07-15T09:28:50.000Z</time>
</trkpt>
<trkpt lat="57.105553" lon="8.710635">
<ele>3.942362</ele>
<time>2026-07-15T09:28:51.000Z</time>
</trkpt>
<trkpt lat="57.105541" lon="8.710694">
<ele>3.945801</ele>
<time>2026-07-15T09:28:52.000Z</time>
</trkpt>
<trkpt lat="57.105530" lon="8.710746">
<ele>3.948846</ele>
<time>2026-07-15T09:28:53.000Z</time>
</trkpt>
<trkpt lat="57.105522" lon="8.710803">
<ele>3.952059</ele>
<time>2026-07-15T09:28:54.000Z</time>
</trkpt>
<trkpt lat="57.105511" lon="8.710854">
<ele>3.955054</ele>
<time>2026-07-15T09:28:55.000Z</time>
</trkpt>
<trkpt lat="57.105499" lon="8.710902">
<ele>3.957938</ele>
<time>2026-07-15T09:28:56.000Z</time>
</trkpt>
<trkpt lat="57.105488" lon="8.710948">
<ele>3.960681</ele>
<time>2026-07-15T09:28:57.000Z</time>
</trkpt>
<trkpt lat="57.105476" lon="8.710995">
<ele>3.963515</ele>
<time>2026-07-15T09:28:58.000Z</time>
</trkpt>
<trkpt lat="57.105465" lon="8.711037">
<ele>3.966060</ele>
<time>2026-07-15T09:28:59.000Z</time>
</trkpt>
<trkpt lat="57.105453" lon="8.711079">
<ele>3.968650</ele>
<time>2026-07-15T09:29:00.000Z</time>
</trkpt>
<trkpt lat="57.105438" lon="8.711122">
<ele>3.971439</ele>
<time>2026-07-15T09:29:01.000Z</time>
</trkpt>
<trkpt lat="57.105426" lon="8.711164">
<ele>3.974029</ele>
<time>2026-07-15T09:29:02.000Z</time>
</trkpt>
<trkpt lat="57.105413" lon="8.711201">
<ele>3.976434</ele>
<time>2026-07-15T09:29:03.000Z</time>
</trkpt>
<trkpt lat="57.105400" lon="8.711245">
<ele>3.979167</ele>
<time>2026-07-15T09:29:04.000Z</time>
</trkpt>
<trkpt lat="57.105393" lon="8.711274">
<ele>3.980899</ele>
<time>2026-07-15T09:29:05.000Z</time>
</trkpt>
<trkpt lat="57.105369" lon="8.711342">
<ele>3.985325</ele>
<time>2026-07-15T09:29:25.000Z</time>
</trkpt>
<trkpt lat="57.105354" lon="8.711383">
<ele>3.988023</ele>
<time>2026-07-15T09:29:26.000Z</time>
</trkpt>
<trkpt lat="57.105335" lon="8.711430">
<ele>3.991221</ele>
<time>2026-07-15T09:29:27.000Z</time>
</trkpt>
<trkpt lat="57.105312" lon="8.711480">
<ele>3.994797</ele>
<time>2026-07-15T09:29:28.000Z</time>
</trkpt>
<trkpt lat="57.105289" lon="8.711536">
<ele>3.998629</ele>
<time>2026-07-15T09:29:29.000Z</time>
</trkpt>
<trkpt lat="57.105268" lon="8.711591">
<ele>4.002298</ele>
<time>2026-07-15T09:29:30.000Z</time>
</trkpt>
<trkpt lat="57.105240" lon="8.711657">
<ele>4.006868</ele>
<time>2026-07-15T09:29:31.000Z</time>
</trkpt>
<trkpt lat="57.105218" lon="8.711722">
<ele>4.011048</ele>
<time>2026-07-15T09:29:32.000Z</time>
</trkpt>
<trkpt lat="57.105190" lon="8.711794">
<ele>4.015881</ele>
<time>2026-07-15T09:29:33.000Z</time>
</trkpt>
<trkpt lat="57.105165" lon="8.711867">
<ele>4.019748</ele>
<time>2026-07-15T09:29:34.000Z</time>
</trkpt>
<trkpt lat="57.105141" lon="8.711948">
<ele>4.019623</ele>
<time>2026-07-15T09:29:35.000Z</time>
</trkpt>
<trkpt lat="57.105114" lon="8.712028">
<ele>4.019496</ele>
<time>2026-07-15T09:29:36.000Z</time>
</trkpt>
<trkpt lat="57.105087" lon="8.712103">
<ele>4.019374</ele>
<time>2026-07-15T09:29:37.000Z</time>
</trkpt>
<trkpt lat="57.105060" lon="8.712176">
<ele>4.019255</ele>
<time>2026-07-15T09:29:38.000Z</time>
</trkpt>
<trkpt lat="57.105034" lon="8.712246">
<ele>4.019141</ele>
<time>2026-07-15T09:29:39.000Z</time>
</trkpt>
<trkpt lat="57.105011" lon="8.712315">
<ele>4.019031</ele>
<time>2026-07-15T09:29:40.000Z</time>
</trkpt>
<trkpt lat="57.104985" lon="8.712381">
<ele>4.018921</ele>
<time>2026-07-15T09:29:41.000Z</time>
</trkpt>
<trkpt lat="57.104953" lon="8.712454">
<ele>4.018794</ele>
<time>2026-07-15T09:29:42.000Z</time>
</trkpt>
<trkpt lat="57.104927" lon="8.712526">
<ele>4.018678</ele>
<time>2026-07-15T09:29:43.000Z</time>
</trkpt>
<trkpt lat="57.104896" lon="8.712603">
<ele>4.018548</ele>
<time>2026-07-15T09:29:44.000Z</time>
</trkpt>
<trkpt lat="57.104870" lon="8.712679">
<ele>4.018427</ele>
<time>2026-07-15T09:29:45.000Z</time>
</trkpt>
<trkpt lat="57.104843" lon="8.712762">
<ele>4.018296</ele>
<time>2026-07-15T09:29:46.000Z</time>
</trkpt>
<trkpt lat="57.104813" lon="8.712842">
<ele>4.018165</ele>
<time>2026-07-15T09:29:47.000Z</time>
</trkpt>
<trkpt lat="57.104783" lon="8.712925">
<ele>4.018030</ele>
<time>2026-07-15T09:29:48.000Z</time>
</trkpt>
<trkpt lat="57.104751" lon="8.713006">
<ele>4.017895</ele>
<time>2026-07-15T09:29:49.000Z</time>
</trkpt>
<trkpt lat="57.104718" lon="8.713080">
<ele>4.017766</ele>
<time>2026-07-15T09:29:50.000Z</time>
</trkpt>
<trkpt lat="57.104683" lon="8.713149">
<ele>4.017638</ele>
<time>2026-07-15T09:29:51.000Z</time>
</trkpt>
<trkpt lat="57.104646" lon="8.713211">
<ele>4.017514</ele>
<time>2026-07-15T09:29:52.000Z</time>
</trkpt>
<trkpt lat="57.104603" lon="8.713272">
<ele>4.017379</ele>
<time>2026-07-15T09:29:53.000Z</time>
</trkpt>
<trkpt lat="57.104565" lon="8.713333">
<ele>4.017253</ele>
<time>2026-07-15T09:29:54.000Z</time>
</trkpt>
<trkpt lat="57.104527" lon="8.713404">
<ele>4.017119</ele>
<time>2026-07-15T09:29:55.000Z</time>
</trkpt>
<trkpt lat="57.104496" lon="8.713483">
<ele>4.016987</ele>
<time>2026-07-15T09:29:56.000Z</time>
</trkpt>
<trkpt lat="57.104466" lon="8.713565">
<ele>4.016853</ele>
<time>2026-07-15T09:29:57.000Z</time>
</trkpt>
<trkpt lat="57.104435" lon="8.713651">
<ele>4.016714</ele>
<time>2026-07-15T09:29:58.000Z</time>
</trkpt>
<trkpt lat="57.104408" lon="8.713740">
<ele>4.016576</ele>
<time>2026-07-15T09:29:59.000Z</time>
</trkpt>
<trkpt lat="57.104381" lon="8.713826">
<ele>4.016442</ele>
<time>2026-07-15T09:30:00.000Z</time>
</trkpt>
<trkpt lat="57.104353" lon="8.713908">
<ele>4.016311</ele>
<time>2026-07-15T09:30:01.000Z</time>
</trkpt>
<trkpt lat="57.104321" lon="8.713995">
<ele>4.016169</ele>
<time>2026-07-15T09:30:02.000Z</time>
</trkpt>
<trkpt lat="57.104286" lon="8.714078">
<ele>4.016028</ele>
<time>2026-07-15T09:30:03.000Z</time>
</trkpt>
<trkpt lat="57.104252" lon="8.714150">
<ele>4.015899</ele>
<time>2026-07-15T09:30:04.000Z</time>
</trkpt>
<trkpt lat="57.104210" lon="8.714223">
<ele>4.015755</ele>
<time>2026-07-15T09:30:05.000Z</time>
</trkpt>
<trkpt lat="57.104172" lon="8.714295">
<ele>4.015619</ele>
<time>2026-07-15T09:30:06.000Z</time>
</trkpt>
<trkpt lat="57.104130" lon="8.714369">
<ele>4.015475</ele>
<time>2026-07-15T09:30:07.000Z</time>
</trkpt>
<trkpt lat="57.104097" lon="8.714447">
<ele>4.015341</ele>
<time>2026-07-15T09:30:08.000Z</time>
</trkpt>
<trkpt lat="57.104065" lon="8.714539">
<ele>4.007622</ele>
<time>2026-07-15T09:30:09.000Z</time>
</trkpt>
<trkpt lat="57.104042" lon="8.714633">
<ele>3.997077</ele>
<time>2026-07-15T09:30:10.000Z</time>
</trkpt>
<trkpt lat="57.104023" lon="8.714724">
<ele>3.987106</ele>
<time>2026-07-15T09:30:11.000Z</time>
</trkpt>
<trkpt lat="57.104004" lon="8.714821">
<ele>3.976560</ele>
<time>2026-07-15T09:30:12.000Z</time>
</trkpt>
<trkpt lat="57.103985" lon="8.714917">
<ele>3.966110</ele>
<time>2026-07-15T09:30:13.000Z</time>
</trkpt>
<trkpt lat="57.103969" lon="8.715014">
<ele>3.955742</ele>
<time>2026-07-15T09:30:14.000Z</time>
</trkpt>
<trkpt lat="57.103950" lon="8.715112">
<ele>3.945100</ele>
<time>2026-07-15T09:30:15.000Z</time>
</trkpt>
<trkpt lat="57.103935" lon="8.715208">
<ele>3.934883</ele>
<time>2026-07-15T09:30:16.000Z</time>
</trkpt>
<trkpt lat="57.103920" lon="8.715307">
<ele>3.924371</ele>
<time>2026-07-15T09:30:17.000Z</time>
</trkpt>
<trkpt lat="57.103905" lon="8.715404">
<ele>3.914056</ele>
<time>2026-07-15T09:30:18.000Z</time>
</trkpt>
<trkpt lat="57.103886" lon="8.715498">
<ele>3.903798</ele>
<time>2026-07-15T09:30:19.000Z</time>
</trkpt>
<trkpt lat="57.103863" lon="8.715592">
<ele>3.893254</ele>
<time>2026-07-15T09:30:20.000Z</time>
</trkpt>
<trkpt lat="57.103832" lon="8.715683">
<ele>3.882268</ele>
<time>2026-07-15T09:30:21.000Z</time>
</trkpt>
<trkpt lat="57.103801" lon="8.715766">
<ele>3.871965</ele>
<time>2026-07-15T09:30:22.000Z</time>
</trkpt>
<trkpt lat="57.103767" lon="8.715843">
<ele>3.861816</ele>
<time>2026-07-15T09:30:23.000Z</time>
</trkpt>
<trkpt lat="57.103733" lon="8.715917">
<ele>3.851903</ele>
<time>2026-07-15T09:30:24.000Z</time>
</trkpt>
<trkpt lat="57.103692" lon="8.715985">
<ele>3.841511</ele>
<time>2026-07-15T09:30:25.000Z</time>
</trkpt>
<trkpt lat="57.103649" lon="8.716053">
<ele>3.830837</ele>
<time>2026-07-15T09:30:26.000Z</time>
</trkpt>
<trkpt lat="57.103607" lon="8.716126">
<ele>3.819961</ele>
<time>2026-07-15T09:30:27.000Z</time>
</trkpt>
<trkpt lat="57.103574" lon="8.716203">
<ele>3.809929</ele>
<time>2026-07-15T09:30:28.000Z</time>
</trkpt>
<trkpt lat="57.103542" lon="8.716296">
<ele>3.798669</ele>
<time>2026-07-15T09:30:29.000Z</time>
</trkpt>
<trkpt lat="57.103521" lon="8.716387">
<ele>3.788557</ele>
<time>2026-07-15T09:30:30.000Z</time>
</trkpt>
<trkpt lat="57.103501" lon="8.716487">
<ele>3.777658</ele>
<time>2026-07-15T09:30:31.000Z</time>
</trkpt>
<trkpt lat="57.103485" lon="8.716588">
<ele>3.766898</ele>
<time>2026-07-15T09:30:32.000Z</time>
</trkpt>
<trkpt lat="57.103470" lon="8.716685">
<ele>3.756583</ele>
<time>2026-07-15T09:30:33.000Z</time>
</trkpt>
<trkpt lat="57.103455" lon="8.716784">
<ele>3.746071</ele>
<time>2026-07-15T09:30:34.000Z</time>
</trkpt>
<trkpt lat="57.103428" lon="8.716875">
<ele>3.735465</ele>
<time>2026-07-15T09:30:35.000Z</time>
</trkpt>
<trkpt lat="57.103398" lon="8.716952">
<ele>3.725774</ele>
<time>2026-07-15T09:30:36.000Z</time>
</trkpt>
<trkpt lat="57.103357" lon="8.717020">
<ele>3.715382</ele>
<time>2026-07-15T09:30:37.000Z</time>
</trkpt>
<trkpt lat="57.103313" lon="8.717090">
<ele>3.704432</ele>
<time>2026-07-15T09:30:38.000Z</time>
</trkpt>
<trkpt lat="57.103272" lon="8.717160">
<ele>3.693903</ele>
<time>2026-07-15T09:30:39.000Z</time>
</trkpt>
<trkpt lat="57.103234" lon="8.717233">
<ele>3.683561</ele>
<time>2026-07-15T09:30:40.000Z</time>
</trkpt>
<trkpt lat="57.103209" lon="8.717312">
<ele>3.675966</ele>
<time>2026-07-15T09:30:41.000Z</time>
</trkpt>
<trkpt lat="57.103191" lon="8.717413">
<ele>3.673111</ele>
<time>2026-07-15T09:30:42.000Z</time>
</trkpt>
<trkpt lat="57.103180" lon="8.717509">
<ele>3.670477</ele>
<time>2026-07-15T09:30:43.000Z</time>
</trkpt>
<trkpt lat="57.103169" lon="8.717603">
<ele>3.667894</ele>
<time>2026-07-15T09:30:44.000Z</time>
</trkpt>
<trkpt lat="57.103153" lon="8.717700">
<ele>3.665172</ele>
<time>2026-07-15T09:30:45.000Z</time>
</trkpt>
<trkpt lat="57.103134" lon="8.717795">
<ele>3.662453</ele>
<time>2026-07-15T09:30:46.000Z</time>
</trkpt>
<trkpt lat="57.103115" lon="8.717883">
<ele>3.659910</ele>
<time>2026-07-15T09:30:47.000Z</time>
</trkpt>
<trkpt lat="57.103088" lon="8.717972">
<ele>3.657172</ele>
<time>2026-07-15T09:30:48.000Z</time>
</trkpt>
<trkpt lat="57.103066" lon="8.718055">
<ele>3.654691</ele>
<time>2026-07-15T09:30:49.000Z</time>
</trkpt>
<trkpt lat="57.103050" lon="8.718148">
<ele>3.652072</ele>
<time>2026-07-15T09:30:50.000Z</time>
</trkpt>
<trkpt lat="57.103050" lon="8.718238">
<ele>3.649655</ele>
<time>2026-07-15T09:30:51.000Z</time>
</trkpt>
<trkpt lat="57.103058" lon="8.718332">
<ele>3.647099</ele>
<time>2026-07-15T09:30:52.000Z</time>
</trkpt>
<trkpt lat="57.103062" lon="8.718423">
<ele>3.644647</ele>
<time>2026-07-15T09:30:53.000Z</time>
</trkpt>
<trkpt lat="57.103065" lon="8.718517">
<ele>3.642119</ele>
<time>2026-07-15T09:30:54.000Z</time>
</trkpt>
<trkpt lat="57.103066" lon="8.718611">
<ele>3.639594</ele>
<time>2026-07-15T09:30:55.000Z</time>
</trkpt>
<trkpt lat="57.103058" lon="8.718703">
<ele>3.637091</ele>
<time>2026-07-15T09:30:56.000Z</time>
</trkpt>
<trkpt lat="57.103047" lon="8.718791">
<ele>3.634666</ele>
<time>2026-07-15T09:30:57.000Z</time>
</trkpt>
<trkpt lat="57.103023" lon="8.718878">
<ele>3.632046</ele>
<time>2026-07-15T09:30:58.000Z</time>
</trkpt>
<trkpt lat="57.103001" lon="8.718958">
<ele>3.629637</ele>
<time>2026-07-15T09:30:59.000Z</time>
</trkpt>
<trkpt lat="57.102975" lon="8.719034">
<ele>3.627225</ele>
<time>2026-07-15T09:31:00.000Z</time>
</trkpt>
<trkpt lat="57.102947" lon="8.719120">
<ele>3.624532</ele>
<time>2026-07-15T09:31:01.000Z</time>
</trkpt>
<trkpt lat="57.102917" lon="8.719203">
<ele>3.621855</ele>
<time>2026-07-15T09:31:02.000Z</time>
</trkpt>
<trkpt lat="57.102886" lon="8.719286">
<ele>3.619150</ele>
<time>2026-07-15T09:31:03.000Z</time>
</trkpt>
<trkpt lat="57.102856" lon="8.719370">
<ele>3.616450</ele>
<time>2026-07-15T09:31:04.000Z</time>
</trkpt>
<trkpt lat="57.102826" lon="8.719453">
<ele>3.613772</ele>
<time>2026-07-15T09:31:05.000Z</time>
</trkpt>
<trkpt lat="57.102799" lon="8.719539">
<ele>3.611104</ele>
<time>2026-07-15T09:31:06.000Z</time>
</trkpt>
<trkpt lat="57.102772" lon="8.719629">
<ele>3.608343</ele>
<time>2026-07-15T09:31:07.000Z</time>
</trkpt>
<trkpt lat="57.102752" lon="8.719725">
<ele>3.605582</ele>
<time>2026-07-15T09:31:08.000Z</time>
</trkpt>
<trkpt lat="57.102737" lon="8.719821">
<ele>3.602899</ele>
<time>2026-07-15T09:31:09.000Z</time>
</trkpt>
<trkpt lat="57.102718" lon="8.719918">
<ele>3.600130</ele>
<time>2026-07-15T09:31:10.000Z</time>
</trkpt>
<trkpt lat="57.102699" lon="8.720008">
<ele>3.597537</ele>
<time>2026-07-15T09:31:11.000Z</time>
</trkpt>
<trkpt lat="57.102673" lon="8.720094">
<ele>3.594893</ele>
<time>2026-07-15T09:31:12.000Z</time>
</trkpt>
<trkpt lat="57.102642" lon="8.720168">
<ele>3.592383</ele>
<time>2026-07-15T09:31:13.000Z</time>
</trkpt>
<trkpt lat="57.102607" lon="8.720236">
<ele>3.589867</ele>
<time>2026-07-15T09:31:14.000Z</time>
</trkpt>
<trkpt lat="57.102569" lon="8.720302">
<ele>3.588424</ele>
<time>2026-07-15T09:31:15.000Z</time>
</trkpt>
<trkpt lat="57.102532" lon="8.720372">
<ele>3.593878</ele>
<time>2026-07-15T09:31:16.000Z</time>
</trkpt>
<trkpt lat="57.102509" lon="8.720434">
<ele>3.598071</ele>
<time>2026-07-15T09:31:17.000Z</time>
</trkpt>
<trkpt lat="57.102478" lon="8.720546">
<ele>3.605090</ele>
<time>2026-07-15T09:31:18.000Z</time>
</trkpt>
<trkpt lat="57.102467" lon="8.720633">
<ele>3.610078</ele>
<time>2026-07-15T09:31:19.000Z</time>
</trkpt>
<trkpt lat="57.102451" lon="8.720737">
<ele>3.616114</ele>
<time>2026-07-15T09:31:20.000Z</time>
</trkpt>
<trkpt lat="57.102440" lon="8.720832">
<ele>3.621538</ele>
<time>2026-07-15T09:31:21.000Z</time>
</trkpt>
<trkpt lat="57.102429" lon="8.720929">
<ele>3.627071</ele>
<time>2026-07-15T09:31:22.000Z</time>
</trkpt>
<trkpt lat="57.102410" lon="8.721027">
<ele>3.632881</ele>
<time>2026-07-15T09:31:23.000Z</time>
</trkpt>
<trkpt lat="57.102386" lon="8.721125">
<ele>3.638884</ele>
<time>2026-07-15T09:31:24.000Z</time>
</trkpt>
<trkpt lat="57.102363" lon="8.721217">
<ele>3.644540</ele>
<time>2026-07-15T09:31:25.000Z</time>
</trkpt>
<trkpt lat="57.102337" lon="8.721302">
<ele>3.649987</ele>
<time>2026-07-15T09:31:26.000Z</time>
</trkpt>
<trkpt lat="57.102302" lon="8.721384">
<ele>3.655811</ele>
<time>2026-07-15T09:31:27.000Z</time>
</trkpt>
<trkpt lat="57.102269" lon="8.721461">
<ele>3.661288</ele>
<time>2026-07-15T09:31:28.000Z</time>
</trkpt>
<trkpt lat="57.102237" lon="8.721541">
<ele>3.666835</ele>
<time>2026-07-15T09:31:29.000Z</time>
</trkpt>
<trkpt lat="57.102207" lon="8.721618">
<ele>3.672127</ele>
<time>2026-07-15T09:31:30.000Z</time>
</trkpt>
<trkpt lat="57.102177" lon="8.721694">
<ele>3.677373</ele>
<time>2026-07-15T09:31:31.000Z</time>
</trkpt>
<trkpt lat="57.102150" lon="8.721775">
<ele>3.682680</ele>
<time>2026-07-15T09:31:32.000Z</time>
</trkpt>
<trkpt lat="57.102131" lon="8.721857">
<ele>3.687658</ele>
<time>2026-07-15T09:31:33.000Z</time>
</trkpt>
<trkpt lat="57.102116" lon="8.721946">
<ele>3.692862</ele>
<time>2026-07-15T09:31:34.000Z</time>
</trkpt>
<trkpt lat="57.102104" lon="8.722034">
<ele>3.697928</ele>
<time>2026-07-15T09:31:35.000Z</time>
</trkpt>
<trkpt lat="57.102085" lon="8.722118">
<ele>3.703009</ele>
<time>2026-07-15T09:31:36.000Z</time>
</trkpt>
<trkpt lat="57.102066" lon="8.722185">
<ele>3.707230</ele>
<time>2026-07-15T09:31:37.000Z</time>
</trkpt>
<trkpt lat="57.102036" lon="8.722267">
<ele>3.712751</ele>
<time>2026-07-15T09:31:38.000Z</time>
</trkpt>
<trkpt lat="57.102005" lon="8.722329">
<ele>3.717456</ele>
<time>2026-07-15T09:31:39.000Z</time>
</trkpt>
<trkpt lat="57.101970" lon="8.722382">
<ele>3.722115</ele>
<time>2026-07-15T09:31:40.000Z</time>
</trkpt>
<trkpt lat="57.101936" lon="8.722424">
<ele>3.726325</ele>
<time>2026-07-15T09:31:41.000Z</time>
</trkpt>
<trkpt lat="57.101894" lon="8.722462">
<ele>3.731136</ele>
<time>2026-07-15T09:31:42.000Z</time>
</trkpt>
<trkpt lat="57.101851" lon="8.722496">
<ele>3.735947</ele>
<time>2026-07-15T09:31:43.000Z</time>
</trkpt>
<trkpt lat="57.101807" lon="8.722539">
<ele>3.741069</ele>
<time>2026-07-15T09:31:44.000Z</time>
</trkpt>
<trkpt lat="57.101768" lon="8.722594">
<ele>3.746119</ele>
<time>2026-07-15T09:31:45.000Z</time>
</trkpt>
<trkpt lat="57.101742" lon="8.722662">
<ele>3.750763</ele>
<time>2026-07-15T09:31:46.000Z</time>
</trkpt>
<trkpt lat="57.101734" lon="8.722736">
<ele>3.754976</ele>
<time>2026-07-15T09:31:47.000Z</time>
</trkpt>
<trkpt lat="57.101738" lon="8.722817">
<ele>3.759518</ele>
<time>2026-07-15T09:31:48.000Z</time>
</trkpt>
<trkpt lat="57.101746" lon="8.722904">
<ele>3.764445</ele>
<time>2026-07-15T09:31:49.000Z</time>
</trkpt>
<trkpt lat="57.101761" lon="8.722985">
<ele>3.769224</ele>
<time>2026-07-15T09:31:50.000Z</time>
</trkpt>
<trkpt lat="57.101780" lon="8.723070">
<ele>3.776020</ele>
<time>2026-07-15T09:31:51.000Z</time>
</trkpt>
<trkpt lat="57.101795" lon="8.723152">
<ele>3.785352</ele>
<time>2026-07-15T09:31:52.000Z</time>
</trkpt>
<trkpt lat="57.101805" lon="8.723232">
<ele>3.794207</ele>
<time>2026-07-15T09:31:53.000Z</time>
</trkpt>
<trkpt lat="57.101814" lon="8.723332">
<ele>3.805140</ele>
<time>2026-07-15T09:31:54.000Z</time>
</trkpt>
<trkpt lat="57.101818" lon="8.723424">
<ele>3.815095</ele>
<time>2026-07-15T09:31:55.000Z</time>
</trkpt>
<trkpt lat="57.101814" lon="8.723520">
<ele>3.825480</ele>
<time>2026-07-15T09:31:56.000Z</time>
</trkpt>
<trkpt lat="57.101810" lon="8.723614">
<ele>3.835650</ele>
<time>2026-07-15T09:31:57.000Z</time>
</trkpt>
<trkpt lat="57.101810" lon="8.723714">
<ele>3.846436</ele>
<time>2026-07-15T09:31:58.000Z</time>
</trkpt>
<trkpt lat="57.101807" lon="8.723810">
<ele>3.856807</ele>
<time>2026-07-15T09:31:59.000Z</time>
</trkpt>
<trkpt lat="57.101807" lon="8.723909">
<ele>3.867485</ele>
<time>2026-07-15T09:32:00.000Z</time>
</trkpt>
<trkpt lat="57.101803" lon="8.724008">
<ele>3.878193</ele>
<time>2026-07-15T09:32:01.000Z</time>
</trkpt>
<trkpt lat="57.101795" lon="8.724103">
<ele>3.888562</ele>
<time>2026-07-15T09:32:02.000Z</time>
</trkpt>
<trkpt lat="57.101780" lon="8.724193">
<ele>3.898716</ele>
<time>2026-07-15T09:32:03.000Z</time>
</trkpt>
<trkpt lat="57.101761" lon="8.724274">
<ele>3.908233</ele>
<time>2026-07-15T09:32:04.000Z</time>
</trkpt>
<trkpt lat="57.101731" lon="8.724351">
<ele>3.918454</ele>
<time>2026-07-15T09:32:05.000Z</time>
</trkpt>
<trkpt lat="57.101696" lon="8.724414">
<ele>3.928174</ele>
<time>2026-07-15T09:32:06.000Z</time>
</trkpt>
<trkpt lat="57.101663" lon="8.724472">
<ele>3.937234</ele>
<time>2026-07-15T09:32:07.000Z</time>
</trkpt>
<trkpt lat="57.101631" lon="8.724530">
<ele>3.946151</ele>
<time>2026-07-15T09:32:08.000Z</time>
</trkpt>
<trkpt lat="57.101597" lon="8.724599">
<ele>3.956200</ele>
<time>2026-07-15T09:32:09.000Z</time>
</trkpt>
<trkpt lat="57.101579" lon="8.724647">
<ele>3.962491</ele>
<time>2026-07-15T09:32:10.000Z</time>
</trkpt>
<trkpt lat="57.101555" lon="8.724729">
<ele>3.972538</ele>
<time>2026-07-15T09:32:11.000Z</time>
</trkpt>
<trkpt lat="57.101544" lon="8.724790">
<ele>3.979471</ele>
<time>2026-07-15T09:32:12.000Z</time>
</trkpt>
<trkpt lat="57.101540" lon="8.724857">
<ele>3.986741</ele>
<time>2026-07-15T09:32:13.000Z</time>
</trkpt>
<trkpt lat="57.101540" lon="8.724924">
<ele>3.993968</ele>
<time>2026-07-15T09:32:14.000Z</time>
</trkpt>
<trkpt lat="57.101543" lon="8.724993">
<ele>4.001434</ele>
<time>2026-07-15T09:32:15.000Z</time>
</trkpt>
<trkpt lat="57.101551" lon="8.725068">
<ele>4.009678</ele>
<time>2026-07-15T09:32:16.000Z</time>
</trkpt>
<trkpt lat="57.101558" lon="8.725141">
<ele>4.017674</ele>
<time>2026-07-15T09:32:17.000Z</time>
</trkpt>
<trkpt lat="57.101570" lon="8.725223">
<ele>4.026834</ele>
<time>2026-07-15T09:32:18.000Z</time>
</trkpt>
<trkpt lat="57.101582" lon="8.725303">
<ele>4.035786</ele>
<time>2026-07-15T09:32:19.000Z</time>
</trkpt>
<trkpt lat="57.101585" lon="8.725383">
<ele>4.044435</ele>
<time>2026-07-15T09:32:20.000Z</time>
</trkpt>
<trkpt lat="57.101585" lon="8.725465">
<ele>4.053280</ele>
<time>2026-07-15T09:32:21.000Z</time>
</trkpt>
<trkpt lat="57.101570" lon="8.725554">
<ele>4.063331</ele>
<time>2026-07-15T09:32:22.000Z</time>
</trkpt>
<trkpt lat="57.101543" lon="8.725632">
<ele>4.073307</ele>
<time>2026-07-15T09:32:23.000Z</time>
</trkpt>
<trkpt lat="57.101513" lon="8.725715">
<ele>4.084061</ele>
<time>2026-07-15T09:32:24.000Z</time>
</trkpt>
<trkpt lat="57.101487" lon="8.725797">
<ele>4.094302</ele>
<time>2026-07-15T09:32:25.000Z</time>
</trkpt>
<trkpt lat="57.101460" lon="8.725886">
<ele>4.105298</ele>
<time>2026-07-15T09:32:26.000Z</time>
</trkpt>
<trkpt lat="57.101433" lon="8.725977">
<ele>4.116482</ele>
<time>2026-07-15T09:32:27.000Z</time>
</trkpt>
<trkpt lat="57.101411" lon="8.726065">
<ele>4.126931</ele>
<time>2026-07-15T09:32:28.000Z</time>
</trkpt>
<trkpt lat="57.101379" lon="8.726156">
<ele>4.174759</ele>
<time>2026-07-15T09:32:29.000Z</time>
</trkpt>
<trkpt lat="57.101345" lon="8.726232">
<ele>4.228635</ele>
<time>2026-07-15T09:32:30.000Z</time>
</trkpt>
<trkpt lat="57.101302" lon="8.726298">
<ele>4.285033</ele>
<time>2026-07-15T09:32:31.000Z</time>
</trkpt>
<trkpt lat="57.101252" lon="8.726356">
<ele>4.344569</ele>
<time>2026-07-15T09:32:32.000Z</time>
</trkpt>
<trkpt lat="57.101194" lon="8.726399">
<ele>4.407559</ele>
<time>2026-07-15T09:32:33.000Z</time>
</trkpt>
<trkpt lat="57.101135" lon="8.726419">
<ele>4.467996</ele>
<time>2026-07-15T09:32:34.000Z</time>
</trkpt>
<trkpt lat="57.101067" lon="8.726445">
<ele>4.537962</ele>
<time>2026-07-15T09:32:35.000Z</time>
</trkpt>
<trkpt lat="57.100998" lon="8.726483">
<ele>4.610517</ele>
<time>2026-07-15T09:32:36.000Z</time>
</trkpt>
<trkpt lat="57.100934" lon="8.726521">
<ele>4.678262</ele>
<time>2026-07-15T09:32:37.000Z</time>
</trkpt>
<trkpt lat="57.100866" lon="8.726563">
<ele>4.750519</ele>
<time>2026-07-15T09:32:38.000Z</time>
</trkpt>
<trkpt lat="57.100799" lon="8.726613">
<ele>4.823351</ele>
<time>2026-07-15T09:32:39.000Z</time>
</trkpt>
<trkpt lat="57.100734" lon="8.726678">
<ele>4.897869</ele>
<time>2026-07-15T09:32:40.000Z</time>
</trkpt>
<trkpt lat="57.100682" lon="8.726756">
<ele>4.965441</ele>
<time>2026-07-15T09:32:41.000Z</time>
</trkpt>
<trkpt lat="57.100632" lon="8.726848">
<ele>5.036656</ele>
<time>2026-07-15T09:32:42.000Z</time>
</trkpt>
<trkpt lat="57.100590" lon="8.726948">
<ele>5.105826</ele>
<time>2026-07-15T09:32:43.000Z</time>
</trkpt>
<trkpt lat="57.100552" lon="8.727050">
<ele>5.173507</ele>
<time>2026-07-15T09:32:44.000Z</time>
</trkpt>
<trkpt lat="57.100514" lon="8.727146">
<ele>5.238507</ele>
<time>2026-07-15T09:32:45.000Z</time>
</trkpt>
<trkpt lat="57.100479" lon="8.727238">
<ele>5.299969</ele>
<time>2026-07-15T09:32:46.000Z</time>
</trkpt>
<trkpt lat="57.100449" lon="8.727329">
<ele>5.358219</ele>
<time>2026-07-15T09:32:47.000Z</time>
</trkpt>
<trkpt lat="57.100423" lon="8.727423">
<ele>5.415940</ele>
<time>2026-07-15T09:32:48.000Z</time>
</trkpt>
<trkpt lat="57.100399" lon="8.727527">
<ele>5.477772</ele>
<time>2026-07-15T09:32:49.000Z</time>
</trkpt>
<trkpt lat="57.100380" lon="8.727633">
<ele>5.538852</ele>
<time>2026-07-15T09:32:50.000Z</time>
</trkpt>
<trkpt lat="57.100365" lon="8.727744">
<ele>5.601443</ele>
<time>2026-07-15T09:32:51.000Z</time>
</trkpt>
<trkpt lat="57.100346" lon="8.727854">
<ele>5.664605</ele>
<time>2026-07-15T09:32:52.000Z</time>
</trkpt>
<trkpt lat="57.100326" lon="8.727960">
<ele>5.726008</ele>
<time>2026-07-15T09:32:53.000Z</time>
</trkpt>
<trkpt lat="57.100315" lon="8.728067">
<ele>5.785598</ele>
<time>2026-07-15T09:32:54.000Z</time>
</trkpt>
<trkpt lat="57.100300" lon="8.728170">
<ele>5.843950</ele>
<time>2026-07-15T09:32:55.000Z</time>
</trkpt>
<trkpt lat="57.100289" lon="8.728266">
<ele>5.897638</ele>
<time>2026-07-15T09:32:56.000Z</time>
</trkpt>
<trkpt lat="57.100273" lon="8.728361">
<ele>5.939937</ele>
<time>2026-07-15T09:32:57.000Z</time>
</trkpt>
<trkpt lat="57.100262" lon="8.728459">
<ele>5.930354</ele>
<time>2026-07-15T09:32:58.000Z</time>
</trkpt>
<trkpt lat="57.100255" lon="8.728544">
<ele>5.922121</ele>
<time>2026-07-15T09:32:59.000Z</time>
</trkpt>
<trkpt lat="57.100242" lon="8.728654">
<ele>5.911341</ele>
<time>2026-07-15T09:33:00.000Z</time>
</trkpt>
<trkpt lat="57.100231" lon="8.728749">
<ele>5.902038</ele>
<time>2026-07-15T09:33:01.000Z</time>
</trkpt>
<trkpt lat="57.100220" lon="8.728849">
<ele>5.892268</ele>
<time>2026-07-15T09:33:02.000Z</time>
</trkpt>
<trkpt lat="57.100208" lon="8.728944">
<ele>5.882927</ele>
<time>2026-07-15T09:33:03.000Z</time>
</trkpt>
<trkpt lat="57.100201" lon="8.729039">
<ele>5.873746</ele>
<time>2026-07-15T09:33:04.000Z</time>
</trkpt>
<trkpt lat="57.100190" lon="8.729128">
<ele>5.865005</ele>
<time>2026-07-15T09:33:05.000Z</time>
</trkpt>
<trkpt lat="57.100174" lon="8.729230">
<ele>5.854838</ele>
<time>2026-07-15T09:33:06.000Z</time>
</trkpt>
<trkpt lat="57.100162" lon="8.729319">
<ele>5.846056</ele>
<time>2026-07-15T09:33:07.000Z</time>
</trkpt>
<trkpt lat="57.100147" lon="8.729400">
<ele>5.837861</ele>
<time>2026-07-15T09:33:08.000Z</time>
</trkpt>
<trkpt lat="57.100136" lon="8.729471">
<ele>5.830790</ele>
<time>2026-07-15T09:33:09.000Z</time>
</trkpt>
<trkpt lat="57.100124" lon="8.729536">
<ele>5.824216</ele>
<time>2026-07-15T09:33:10.000Z</time>
</trkpt>
<trkpt lat="57.100113" lon="8.729587">
<ele>5.818961</ele>
<time>2026-07-15T09:33:11.000Z</time>
</trkpt>
<trkpt lat="57.100101" lon="8.729627">
<ele>5.814585</ele>
<time>2026-07-15T09:33:12.000Z</time>
</trkpt>
<trkpt lat="57.100090" lon="8.729655">
<ele>5.811276</ele>
<time>2026-07-15T09:33:13.000Z</time>
</trkpt>
<trkpt lat="57.100082" lon="8.729670">
<ele>5.809262</ele>
<time>2026-07-15T09:33:14.000Z</time>
</trkpt>
<trkpt lat="57.100079" lon="8.729683">
<ele>5.807910</ele>
<time>2026-07-15T09:33:15.000Z</time>
</trkpt>
<trkpt lat="57.100079" lon="8.729702">
<ele>5.806090</ele>
<time>2026-07-15T09:33:16.000Z</time>
</trkpt>
<trkpt lat="57.100079" lon="8.729730">
<ele>5.803409</ele>
<time>2026-07-15T09:33:17.000Z</time>
</trkpt>
<trkpt lat="57.100090" lon="8.729772">
<ele>5.798944</ele>
<time>2026-07-15T09:33:18.000Z</time>
</trkpt>
<trkpt lat="57.100106" lon="8.729812">
<ele>5.794186</ele>
<time>2026-07-15T09:33:19.000Z</time>
</trkpt>
<trkpt lat="57.100128" lon="8.729850">
<ele>5.788868</ele>
<time>2026-07-15T09:33:20.000Z</time>
</trkpt>
<trkpt lat="57.100155" lon="8.729888">
<ele>5.782876</ele>
<time>2026-07-15T09:33:21.000Z</time>
</trkpt>
<trkpt lat="57.100180" lon="8.729930">
<ele>5.776909</ele>
<time>2026-07-15T09:33:22.000Z</time>
</trkpt>
<trkpt lat="57.100209" lon="8.729979">
<ele>5.769969</ele>
<time>2026-07-15T09:33:23.000Z</time>
</trkpt>
<trkpt lat="57.100239" lon="8.730026">
<ele>5.763024</ele>
<time>2026-07-15T09:33:24.000Z</time>
</trkpt>
<trkpt lat="57.100266" lon="8.730075">
<ele>5.756340</ele>
<time>2026-07-15T09:33:25.000Z</time>
</trkpt>
<trkpt lat="57.100296" lon="8.730128">
<ele>5.749009</ele>
<time>2026-07-15T09:33:26.000Z</time>
</trkpt>
<trkpt lat="57.100323" lon="8.730184">
<ele>5.741838</ele>
<time>2026-07-15T09:33:27.000Z</time>
</trkpt>
<trkpt lat="57.100352" lon="8.730240">
<ele>5.734429</ele>
<time>2026-07-15T09:33:28.000Z</time>
</trkpt>
<trkpt lat="57.100384" lon="8.730298">
<ele>5.726512</ele>
<time>2026-07-15T09:33:29.000Z</time>
</trkpt>
<trkpt lat="57.100413" lon="8.730352">
<ele>5.719240</ele>
<time>2026-07-15T09:33:30.000Z</time>
</trkpt>
<trkpt lat="57.100445" lon="8.730405">
<ele>5.711651</ele>
<time>2026-07-15T09:33:31.000Z</time>
</trkpt>
<trkpt lat="57.100475" lon="8.730455">
<ele>5.704516</ele>
<time>2026-07-15T09:33:32.000Z</time>
</trkpt>
<trkpt lat="57.100503" lon="8.730506">
<ele>5.697572</ele>
<time>2026-07-15T09:33:33.000Z</time>
</trkpt>
<trkpt lat="57.100528" lon="8.730554">
<ele>5.691203</ele>
<time>2026-07-15T09:33:34.000Z</time>
</trkpt>
<trkpt lat="57.100556" lon="8.730609">
<ele>5.683985</ele>
<time>2026-07-15T09:33:35.000Z</time>
</trkpt>
<trkpt lat="57.100578" lon="8.730658">
<ele>5.677897</ele>
<time>2026-07-15T09:33:36.000Z</time>
</trkpt>
<trkpt lat="57.100605" lon="8.730707">
<ele>5.671212</ele>
<time>2026-07-15T09:33:37.000Z</time>
</trkpt>
<trkpt lat="57.100628" lon="8.730752">
<ele>5.665295</ele>
<time>2026-07-15T09:33:38.000Z</time>
</trkpt>
<trkpt lat="57.100651" lon="8.730793">
<ele>5.659651</ele>
<time>2026-07-15T09:33:39.000Z</time>
</trkpt>
<trkpt lat="57.100670" lon="8.730823">
<ele>5.655238</ele>
<time>2026-07-15T09:33:40.000Z</time>
</trkpt>
<trkpt lat="57.100689" lon="8.730850">
<ele>5.651006</ele>
<time>2026-07-15T09:33:41.000Z</time>
</trkpt>
<trkpt lat="57.100704" lon="8.730875">
<ele>5.647439</ele>
<time>2026-07-15T09:33:42.000Z</time>
</trkpt>
<trkpt lat="57.100716" lon="8.730893">
<ele>5.644710</ele>
<time>2026-07-15T09:33:43.000Z</time>
</trkpt>
<trkpt lat="57.100720" lon="8.730907">
<ele>5.643195</ele>
<time>2026-07-15T09:33:44.000Z</time>
</trkpt>
<trkpt lat="57.100723" lon="8.730910">
<ele>5.642593</ele>
<time>2026-07-15T09:33:45.000Z</time>
</trkpt>
<trkpt lat="57.100723" lon="8.730911">
<ele>5.642497</ele>
<time>2026-07-15T09:33:46.000Z</time>
</trkpt>
<trkpt lat="57.100723" lon="8.730911">
<ele>5.642497</ele>
<time>2026-07-15T09:33:47.000Z</time>
</trkpt>
<trkpt lat="57.100723" lon="8.730911">
<ele>5.642497</ele>
<time>2026-07-15T09:34:33.000Z</time>
</trkpt>
<trkpt lat="57.100723" lon="8.730911">
<ele>5.642497</ele>
<time>2026-07-15T09:34:40.000Z</time>
</trkpt>
<trkpt lat="57.100723" lon="8.730911">
<ele>5.642497</ele>
<time>2026-07-15T09:35:26.000Z</time>
</trkpt>
<trkpt lat="57.100712" lon="8.730897">
<ele>5.640139</ele>
<time>2026-07-15T09:35:27.000Z</time>
</trkpt>
<trkpt lat="57.100708" lon="8.730877">
<ele>5.638098</ele>
<time>2026-07-15T09:35:28.000Z</time>
</trkpt>
<trkpt lat="57.100700" lon="8.730860">
<ele>5.635944</ele>
<time>2026-07-15T09:35:29.000Z</time>
</trkpt>
<trkpt lat="57.100697" lon="8.730849">
<ele>5.634766</ele>
<time>2026-07-15T09:35:30.000Z</time>
</trkpt>
<trkpt lat="57.100685" lon="8.730837">
<ele>5.632358</ele>
<time>2026-07-15T09:35:31.000Z</time>
</trkpt>
<trkpt lat="57.100677" lon="8.730825">
<ele>5.630539</ele>
<time>2026-07-15T09:35:32.000Z</time>
</trkpt>
<trkpt lat="57.100670" lon="8.730819">
<ele>5.629177</ele>
<time>2026-07-15T09:35:33.000Z</time>
</trkpt>
<trkpt lat="57.100670" lon="8.730817">
<ele>5.628986</ele>
<time>2026-07-15T09:35:34.000Z</time>
</trkpt>
<trkpt lat="57.100670" lon="8.730820">
<ele>5.628699</ele>
<time>2026-07-15T09:35:35.000Z</time>
</trkpt>
<trkpt lat="57.100670" lon="8.730819">
<ele>5.628603</ele>
<time>2026-07-15T09:35:40.000Z</time>
</trkpt>
<trkpt lat="57.100651" lon="8.730782">
<ele>5.626379</ele>
<time>2026-07-15T09:35:41.000Z</time>
</trkpt>
<trkpt lat="57.100639" lon="8.730765">
<ele>5.631547</ele>
<time>2026-07-15T09:35:42.000Z</time>
</trkpt>
<trkpt lat="57.100624" lon="8.730740">
<ele>5.638453</ele>
<time>2026-07-15T09:35:43.000Z</time>
</trkpt>
<trkpt lat="57.100605" lon="8.730710">
<ele>5.646996</ele>
<time>2026-07-15T09:35:44.000Z</time>
</trkpt>
<trkpt lat="57.100594" lon="8.730672">
<ele>5.654979</ele>
<time>2026-07-15T09:35:45.000Z</time>
</trkpt>
<trkpt lat="57.100579" lon="8.730630">
<ele>5.664297</ele>
<time>2026-07-15T09:35:46.000Z</time>
</trkpt>
<trkpt lat="57.100556" lon="8.730584">
<ele>5.675888</ele>
<time>2026-07-15T09:35:47.000Z</time>
</trkpt>
<trkpt lat="57.100536" lon="8.730540">
<ele>5.686525</ele>
<time>2026-07-15T09:35:48.000Z</time>
</trkpt>
<trkpt lat="57.100514" lon="8.730501">
<ele>5.696949</ele>
<time>2026-07-15T09:35:49.000Z</time>
</trkpt>
<trkpt lat="57.100488" lon="8.730462">
<ele>5.708395</ele>
<time>2026-07-15T09:35:50.000Z</time>
</trkpt>
<trkpt lat="57.100456" lon="8.730416">
<ele>5.722252</ele>
<time>2026-07-15T09:35:51.000Z</time>
</trkpt>
<trkpt lat="57.100433" lon="8.730365">
<ele>5.734541</ele>
<time>2026-07-15T09:35:52.000Z</time>
</trkpt>
<trkpt lat="57.100411" lon="8.730320">
<ele>5.745765</ele>
<time>2026-07-15T09:35:53.000Z</time>
</trkpt>
<trkpt lat="57.100380" lon="8.730252">
<ele>5.762223</ele>
<time>2026-07-15T09:35:54.000Z</time>
</trkpt>
<trkpt lat="57.100349" lon="8.730201">
<ele>5.776412</ele>
<time>2026-07-15T09:35:55.000Z</time>
</trkpt>
<trkpt lat="57.100322" lon="8.730152">
<ele>5.789352</ele>
<time>2026-07-15T09:35:56.000Z</time>
</trkpt>
<trkpt lat="57.100296" lon="8.730103">
<ele>5.802051</ele>
<time>2026-07-15T09:35:57.000Z</time>
</trkpt>
<trkpt lat="57.100269" lon="8.730051">
<ele>5.815387</ele>
<time>2026-07-15T09:35:58.000Z</time>
</trkpt>
<trkpt lat="57.100239" lon="8.730002">
<ele>5.829075</ele>
<time>2026-07-15T09:35:59.000Z</time>
</trkpt>
<trkpt lat="57.100208" lon="8.729951">
<ele>5.843265</ele>
<time>2026-07-15T09:36:00.000Z</time>
</trkpt>
<trkpt lat="57.100177" lon="8.729902">
<ele>5.857210</ele>
<time>2026-07-15T09:36:01.000Z</time>
</trkpt>
<trkpt lat="57.100143" lon="8.729851">
<ele>5.872179</ele>
<time>2026-07-15T09:36:02.000Z</time>
</trkpt>
<trkpt lat="57.100109" lon="8.729797">
<ele>5.887505</ele>
<time>2026-07-15T09:36:03.000Z</time>
</trkpt>
<trkpt lat="57.100074" lon="8.729739">
<ele>5.903577</ele>
<time>2026-07-15T09:36:04.000Z</time>
</trkpt>
<trkpt lat="57.100040" lon="8.729677">
<ele>5.919910</ele>
<time>2026-07-15T09:36:05.000Z</time>
</trkpt>
<trkpt lat="57.100006" lon="8.729610">
<ele>5.936909</ele>
<time>2026-07-15T09:36:06.000Z</time>
</trkpt>
<trkpt lat="57.099972" lon="8.729543">
<ele>5.953907</ele>
<time>2026-07-15T09:36:07.000Z</time>
</trkpt>
<trkpt lat="57.099937" lon="8.729474">
<ele>5.971410</ele>
<time>2026-07-15T09:36:08.000Z</time>
</trkpt>
<trkpt lat="57.099906" lon="8.729409">
<ele>5.987446</ele>
<time>2026-07-15T09:36:09.000Z</time>
</trkpt>
<trkpt lat="57.099872" lon="8.729345">
<ele>6.004042</ele>
<time>2026-07-15T09:36:10.000Z</time>
</trkpt>
<trkpt lat="57.099838" lon="8.729280">
<ele>6.020772</ele>
<time>2026-07-15T09:36:11.000Z</time>
</trkpt>
<trkpt lat="57.099803" lon="8.729215">
<ele>6.037740</ele>
<time>2026-07-15T09:36:12.000Z</time>
</trkpt>
<trkpt lat="57.099769" lon="8.729151">
<ele>6.054336</ele>
<time>2026-07-15T09:36:13.000Z</time>
</trkpt>
<trkpt lat="57.099731" lon="8.729088">
<ele>6.071790</ele>
<time>2026-07-15T09:36:14.000Z</time>
</trkpt>
<trkpt lat="57.099696" lon="8.729023">
<ele>6.088758</ele>
<time>2026-07-15T09:36:15.000Z</time>
</trkpt>
<trkpt lat="57.099658" lon="8.728957">
<ele>6.106588</ele>
<time>2026-07-15T09:36:16.000Z</time>
</trkpt>
<trkpt lat="57.099624" lon="8.728892">
<ele>6.123318</ele>
<time>2026-07-15T09:36:17.000Z</time>
</trkpt>
<trkpt lat="57.099586" lon="8.728829">
<ele>6.140771</ele>
<time>2026-07-15T09:36:18.000Z</time>
</trkpt>
<trkpt lat="57.099548" lon="8.728766">
<ele>6.158225</ele>
<time>2026-07-15T09:36:19.000Z</time>
</trkpt>
<trkpt lat="57.099510" lon="8.728705">
<ele>6.175433</ele>
<time>2026-07-15T09:36:20.000Z</time>
</trkpt>
<trkpt lat="57.099471" lon="8.728642">
<ele>6.193142</ele>
<time>2026-07-15T09:36:21.000Z</time>
</trkpt>
<trkpt lat="57.099433" lon="8.728578">
<ele>6.210720</ele>
<time>2026-07-15T09:36:22.000Z</time>
</trkpt>
<trkpt lat="57.099399" lon="8.728513">
<ele>6.227449</ele>
<time>2026-07-15T09:36:23.000Z</time>
</trkpt>
<trkpt lat="57.099364" lon="8.728446">
<ele>6.238849</ele>
<time>2026-07-15T09:36:24.000Z</time>
</trkpt>
<trkpt lat="57.099323" lon="8.728377">
<ele>6.239856</ele>
<time>2026-07-15T09:36:25.000Z</time>
</trkpt>
<trkpt lat="57.099285" lon="8.728311">
<ele>6.240804</ele>
<time>2026-07-15T09:36:26.000Z</time>
</trkpt>
<trkpt lat="57.099247" lon="8.728246">
<ele>6.241744</ele>
<time>2026-07-15T09:36:27.000Z</time>
</trkpt>
<trkpt lat="57.099213" lon="8.728182">
<ele>6.242626</ele>
<time>2026-07-15T09:36:28.000Z</time>
</trkpt>
<trkpt lat="57.099174" lon="8.728116">
<ele>6.243587</ele>
<time>2026-07-15T09:36:29.000Z</time>
</trkpt>
<trkpt lat="57.099140" lon="8.728052">
<ele>6.244469</ele>
<time>2026-07-15T09:36:30.000Z</time>
</trkpt>
<trkpt lat="57.099105" lon="8.727991">
<ele>6.245343</ele>
<time>2026-07-15T09:36:31.000Z</time>
</trkpt>
<trkpt lat="57.099075" lon="8.727930">
<ele>6.246153</ele>
<time>2026-07-15T09:36:32.000Z</time>
</trkpt>
<trkpt lat="57.099044" lon="8.727873">
<ele>6.246948</ele>
<time>2026-07-15T09:36:33.000Z</time>
</trkpt>
<trkpt lat="57.099014" lon="8.727823">
<ele>6.247682</ele>
<time>2026-07-15T09:36:34.000Z</time>
</trkpt>
<trkpt lat="57.098995" lon="8.727783">
<ele>6.248205</ele>
<time>2026-07-15T09:36:35.000Z</time>
</trkpt>
<trkpt lat="57.098980" lon="8.727758">
<ele>6.248572</ele>
<time>2026-07-15T09:36:36.000Z</time>
</trkpt>
<trkpt lat="57.098976" lon="8.727752">
<ele>6.248666</ele>
<time>2026-07-15T09:37:03.000Z</time>
</trkpt>
<trkpt lat="57.098963" lon="8.727742">
<ele>6.248921</ele>
<time>2026-07-15T09:37:04.000Z</time>
</trkpt>
<trkpt lat="57.098942" lon="8.727720">
<ele>6.249359</ele>
<time>2026-07-15T09:37:05.000Z</time>
</trkpt>
<trkpt lat="57.098919" lon="8.727685">
<ele>6.249900</ele>
<time>2026-07-15T09:37:06.000Z</time>
</trkpt>
<trkpt lat="57.098892" lon="8.727645">
<ele>6.250529</ele>
<time>2026-07-15T09:37:07.000Z</time>
</trkpt>
<trkpt lat="57.098862" lon="8.727602">
<ele>6.251218</ele>
<time>2026-07-15T09:37:08.000Z</time>
</trkpt>
<trkpt lat="57.098831" lon="8.727554">
<ele>6.251953</ele>
<time>2026-07-15T09:37:09.000Z</time>
</trkpt>
<trkpt lat="57.098796" lon="8.727510">
<ele>6.252722</ele>
<time>2026-07-15T09:37:10.000Z</time>
</trkpt>
<trkpt lat="57.098758" lon="8.727464">
<ele>6.253546</ele>
<time>2026-07-15T09:37:11.000Z</time>
</trkpt>
<trkpt lat="57.098720" lon="8.727419">
<ele>6.254366</ele>
<time>2026-07-15T09:37:12.000Z</time>
</trkpt>
<trkpt lat="57.098686" lon="8.727371">
<ele>6.255143</ele>
<time>2026-07-15T09:37:13.000Z</time>
</trkpt>
<trkpt lat="57.098643" lon="8.727318">
<ele>6.256081</ele>
<time>2026-07-15T09:37:14.000Z</time>
</trkpt>
<trkpt lat="57.098606" lon="8.727268">
<ele>6.256914</ele>
<time>2026-07-15T09:37:15.000Z</time>
</trkpt>
<trkpt lat="57.098563" lon="8.727216">
<ele>6.257847</ele>
<time>2026-07-15T09:37:16.000Z</time>
</trkpt>
<trkpt lat="57.098518" lon="8.727167">
<ele>6.258795</ele>
<time>2026-07-15T09:37:17.000Z</time>
</trkpt>
<trkpt lat="57.098476" lon="8.727120">
<ele>6.259686</ele>
<time>2026-07-15T09:37:18.000Z</time>
</trkpt>
<trkpt lat="57.098431" lon="8.727075">
<ele>6.260615</ele>
<time>2026-07-15T09:37:19.000Z</time>
</trkpt>
<trkpt lat="57.098388" lon="8.727026">
<ele>6.261532</ele>
<time>2026-07-15T09:37:20.000Z</time>
</trkpt>
<trkpt lat="57.098346" lon="8.726975">
<ele>6.262444</ele>
<time>2026-07-15T09:37:21.000Z</time>
</trkpt>
<trkpt lat="57.098300" lon="8.726921">
<ele>6.263434</ele>
<time>2026-07-15T09:37:22.000Z</time>
</trkpt>
<trkpt lat="57.098258" lon="8.726871">
<ele>6.264341</ele>
<time>2026-07-15T09:37:23.000Z</time>
</trkpt>
<trkpt lat="57.098212" lon="8.726819">
<ele>6.265320</ele>
<time>2026-07-15T09:37:24.000Z</time>
</trkpt>
<trkpt lat="57.098171" lon="8.726771">
<ele>6.266201</ele>
<time>2026-07-15T09:37:25.000Z</time>
</trkpt>
<trkpt lat="57.098128" lon="8.726724">
<ele>6.267108</ele>
<time>2026-07-15T09:37:26.000Z</time>
</trkpt>
<trkpt lat="57.098083" lon="8.726677">
<ele>6.268046</ele>
<time>2026-07-15T09:37:27.000Z</time>
</trkpt>
<trkpt lat="57.098041" lon="8.726625">
<ele>6.268964</ele>
<time>2026-07-15T09:37:28.000Z</time>
</trkpt>
<trkpt lat="57.097995" lon="8.726572">
<ele>6.269948</ele>
<time>2026-07-15T09:37:29.000Z</time>
</trkpt>
<trkpt lat="57.097949" lon="8.726525">
<ele>6.270902</ele>
<time>2026-07-15T09:37:30.000Z</time>
</trkpt>
<trkpt lat="57.097907" lon="8.726478">
<ele>6.316248</ele>
<time>2026-07-15T09:37:31.000Z</time>
</trkpt>
<trkpt lat="57.097865" lon="8.726429">
<ele>6.378470</ele>
<time>2026-07-15T09:37:32.000Z</time>
</trkpt>
<trkpt lat="57.097824" lon="8.726383">
<ele>6.438552</ele>
<time>2026-07-15T09:37:33.000Z</time>
</trkpt>
<trkpt lat="57.097782" lon="8.726336">
<ele>6.500057</ele>
<time>2026-07-15T09:37:34.000Z</time>
</trkpt>
<trkpt lat="57.097743" lon="8.726289">
<ele>6.558386</ele>
<time>2026-07-15T09:37:35.000Z</time>
</trkpt>
<trkpt lat="57.097701" lon="8.726244">
<ele>6.619196</ele>
<time>2026-07-15T09:37:36.000Z</time>
</trkpt>
<trkpt lat="57.097659" lon="8.726199">
<ele>6.680005</ele>
<time>2026-07-15T09:37:37.000Z</time>
</trkpt>
<trkpt lat="57.097617" lon="8.726151">
<ele>6.741866</ele>
<time>2026-07-15T09:37:38.000Z</time>
</trkpt>
<trkpt lat="57.097575" lon="8.726101">
<ele>6.804454</ele>
<time>2026-07-15T09:37:39.000Z</time>
</trkpt>
<trkpt lat="57.097534" lon="8.726053">
<ele>6.865255</ele>
<time>2026-07-15T09:37:40.000Z</time>
</trkpt>
<trkpt lat="57.097492" lon="8.726004">
<ele>6.927477</ele>
<time>2026-07-15T09:37:41.000Z</time>
</trkpt>
<trkpt lat="57.097446" lon="8.725954">
<ele>6.994323</ele>
<time>2026-07-15T09:37:42.000Z</time>
</trkpt>
<trkpt lat="57.097404" lon="8.725906">
<ele>7.056184</ele>
<time>2026-07-15T09:37:43.000Z</time>
</trkpt>
<trkpt lat="57.097358" lon="8.725861">
<ele>7.121368</ele>
<time>2026-07-15T09:37:44.000Z</time>
</trkpt>
<trkpt lat="57.097316" lon="8.725812">
<ele>7.183590</ele>
<time>2026-07-15T09:37:45.000Z</time>
</trkpt>
<trkpt lat="57.097274" lon="8.725763">
<ele>7.245812</ele>
<time>2026-07-15T09:37:46.000Z</time>
</trkpt>
<trkpt lat="57.097229" lon="8.725713">
<ele>7.311584</ele>
<time>2026-07-15T09:37:47.000Z</time>
</trkpt>
<trkpt lat="57.097186" lon="8.725666">
<ele>7.374162</ele>
<time>2026-07-15T09:37:48.000Z</time>
</trkpt>
<trkpt lat="57.097145" lon="8.725618">
<ele>7.434963</ele>
<time>2026-07-15T09:37:49.000Z</time>
</trkpt>
<trkpt lat="57.097103" lon="8.725568">
<ele>7.497552</ele>
<time>2026-07-15T09:37:50.000Z</time>
</trkpt>
<trkpt lat="57.097061" lon="8.725518">
<ele>7.560140</ele>
<time>2026-07-15T09:37:51.000Z</time>
</trkpt>
<trkpt lat="57.097023" lon="8.725464">
<ele>7.620211</ele>
<time>2026-07-15T09:37:52.000Z</time>
</trkpt>
<trkpt lat="57.096984" lon="8.725408">
<ele>7.682103</ele>
<time>2026-07-15T09:37:53.000Z</time>
</trkpt>
<trkpt lat="57.096942" lon="8.725350">
<ele>7.747804</ele>
<time>2026-07-15T09:37:54.000Z</time>
</trkpt>
<trkpt lat="57.096900" lon="8.725294">
<ele>7.812698</ele>
<time>2026-07-15T09:37:55.000Z</time>
</trkpt>
<trkpt lat="57.096862" lon="8.725238">
<ele>7.873608</ele>
<time>2026-07-15T09:37:56.000Z</time>
</trkpt>
<trkpt lat="57.096820" lon="8.725181">
<ele>7.938903</ele>
<time>2026-07-15T09:37:57.000Z</time>
</trkpt>
<trkpt lat="57.096782" lon="8.725123">
<ele>8.000673</ele>
<time>2026-07-15T09:37:58.000Z</time>
</trkpt>
<trkpt lat="57.096740" lon="8.725065">
<ele>8.066374</ele>
<time>2026-07-15T09:37:59.000Z</time>
</trkpt>
<trkpt lat="57.096702" lon="8.725006">
<ele>8.128579</ele>
<time>2026-07-15T09:38:00.000Z</time>
</trkpt>
<trkpt lat="57.096668" lon="8.724946">
<ele>8.187516</ele>
<time>2026-07-15T09:38:01.000Z</time>
</trkpt>
<trkpt lat="57.096630" lon="8.724888">
<ele>8.249286</ele>
<time>2026-07-15T09:38:02.000Z</time>
</trkpt>
<trkpt lat="57.096595" lon="8.724830">
<ele>8.308215</ele>
<time>2026-07-15T09:38:03.000Z</time>
</trkpt>
<trkpt lat="57.096561" lon="8.724773">
<ele>8.365760</ele>
<time>2026-07-15T09:38:04.000Z</time>
</trkpt>
<trkpt lat="57.096523" lon="8.724716">
<ele>8.427098</ele>
<time>2026-07-15T09:38:05.000Z</time>
</trkpt>
<trkpt lat="57.096488" lon="8.724659">
<ele>8.485574</ele>
<time>2026-07-15T09:38:06.000Z</time>
</trkpt>
<trkpt lat="57.096454" lon="8.724603">
<ele>8.532992</ele>
<time>2026-07-15T09:38:07.000Z</time>
</trkpt>
<trkpt lat="57.096424" lon="8.724541">
<ele>8.563198</ele>
<time>2026-07-15T09:38:08.000Z</time>
</trkpt>
<trkpt lat="57.096402" lon="8.724481">
<ele>8.589533</ele>
<time>2026-07-15T09:38:09.000Z</time>
</trkpt>
<trkpt lat="57.096378" lon="8.724411">
<ele>8.619646</ele>
<time>2026-07-15T09:38:10.000Z</time>
</trkpt>
<trkpt lat="57.096359" lon="8.724341">
<ele>8.648114</ele>
<time>2026-07-15T09:38:11.000Z</time>
</trkpt>
<trkpt lat="57.096344" lon="8.724267">
<ele>8.676849</ele>
<time>2026-07-15T09:38:12.000Z</time>
</trkpt>
<trkpt lat="57.096336" lon="8.724195">
<ele>8.703584</ele>
<time>2026-07-15T09:38:13.000Z</time>
</trkpt>
<trkpt lat="57.096333" lon="8.724120">
<ele>8.730943</ele>
<time>2026-07-15T09:38:14.000Z</time>
</trkpt>
<trkpt lat="57.096337" lon="8.724044">
<ele>8.758721</ele>
<time>2026-07-15T09:38:15.000Z</time>
</trkpt>
<trkpt lat="57.096344" lon="8.723972">
<ele>8.785331</ele>
<time>2026-07-15T09:38:16.000Z</time>
</trkpt>
<trkpt lat="57.096356" lon="8.723903">
<ele>8.811688</ele>
<time>2026-07-15T09:38:17.000Z</time>
</trkpt>
<trkpt lat="57.096367" lon="8.723838">
<ele>8.836456</ele>
<time>2026-07-15T09:38:18.000Z</time>
</trkpt>
<trkpt lat="57.096379" lon="8.723769">
<ele>8.862813</ele>
<time>2026-07-15T09:38:19.000Z</time>
</trkpt>
<trkpt lat="57.096390" lon="8.723704">
<ele>8.887581</ele>
<time>2026-07-15T09:38:20.000Z</time>
</trkpt>
<trkpt lat="57.096401" lon="8.723636">
<ele>8.913392</ele>
<time>2026-07-15T09:38:21.000Z</time>
</trkpt>
<trkpt lat="57.096413" lon="8.723569">
<ele>8.939058</ele>
<time>2026-07-15T09:38:22.000Z</time>
</trkpt>
<trkpt lat="57.096420" lon="8.723502">
<ele>8.963879</ele>
<time>2026-07-15T09:38:23.000Z</time>
</trkpt>
<trkpt lat="57.096432" lon="8.723437">
<ele>8.988854</ele>
<time>2026-07-15T09:38:24.000Z</time>
</trkpt>
<trkpt lat="57.096439" lon="8.723362">
<ele>9.016538</ele>
<time>2026-07-15T09:38:25.000Z</time>
</trkpt>
<trkpt lat="57.096443" lon="8.723286">
<ele>9.044316</ele>
<time>2026-07-15T09:38:26.000Z</time>
</trkpt>
<trkpt lat="57.096451" lon="8.723203">
<ele>9.074983</ele>
<time>2026-07-15T09:38:27.000Z</time>
</trkpt>
<trkpt lat="57.096459" lon="8.723118">
<ele>9.106367</ele>
<time>2026-07-15T09:38:28.000Z</time>
</trkpt>
<trkpt lat="57.096470" lon="8.723033">
<ele>9.138155</ele>
<time>2026-07-15T09:38:29.000Z</time>
</trkpt>
<trkpt lat="57.096478" lon="8.722940">
<ele>9.172410</ele>
<time>2026-07-15T09:38:30.000Z</time>
</trkpt>
<trkpt lat="57.096481" lon="8.722853">
<ele>9.204124</ele>
<time>2026-07-15T09:38:31.000Z</time>
</trkpt>
<trkpt lat="57.096485" lon="8.722758">
<ele>9.238788</ele>
<time>2026-07-15T09:38:32.000Z</time>
</trkpt>
<trkpt lat="57.096493" lon="8.722666">
<ele>9.272683</ele>
<time>2026-07-15T09:38:33.000Z</time>
</trkpt>
<trkpt lat="57.096497" lon="8.722569">
<ele>9.308073</ele>
<time>2026-07-15T09:38:34.000Z</time>
</trkpt>
<trkpt lat="57.096501" lon="8.722474">
<ele>9.342738</ele>
<time>2026-07-15T09:38:35.000Z</time>
</trkpt>
<trkpt lat="57.096512" lon="8.722380">
<ele>9.377719</ele>
<time>2026-07-15T09:38:36.000Z</time>
</trkpt>
<trkpt lat="57.096516" lon="8.722285">
<ele>9.412383</ele>
<time>2026-07-15T09:38:37.000Z</time>
</trkpt>
<trkpt lat="57.096520" lon="8.722185">
<ele>9.448861</ele>
<time>2026-07-15T09:38:38.000Z</time>
</trkpt>
<trkpt lat="57.096527" lon="8.722085">
<ele>9.485542</ele>
<time>2026-07-15T09:38:39.000Z</time>
</trkpt>
<trkpt lat="57.096535" lon="8.721988">
<ele>9.521235</ele>
<time>2026-07-15T09:38:40.000Z</time>
</trkpt>
<trkpt lat="57.096542" lon="8.721887">
<ele>9.558276</ele>
<time>2026-07-15T09:38:41.000Z</time>
</trkpt>
<trkpt lat="57.096550" lon="8.721782">
<ele>9.596848</ele>
<time>2026-07-15T09:38:42.000Z</time>
</trkpt>
<trkpt lat="57.096558" lon="8.721678">
<ele>9.635061</ele>
<time>2026-07-15T09:38:43.000Z</time>
</trkpt>
<trkpt lat="57.096562" lon="8.721571">
<ele>9.674079</ele>
<time>2026-07-15T09:38:44.000Z</time>
</trkpt>
<trkpt lat="57.096569" lon="8.721465">
<ele>9.712925</ele>
<time>2026-07-15T09:38:45.000Z</time>
</trkpt>
<trkpt lat="57.096577" lon="8.721356">
<ele>9.666135</ele>
<time>2026-07-15T09:38:46.000Z</time>
</trkpt>
<trkpt lat="57.096584" lon="8.721243">
<ele>9.572164</ele>
<time>2026-07-15T09:38:47.000Z</time>
</trkpt>
<trkpt lat="57.096588" lon="8.721127">
<ele>9.476127</ele>
<time>2026-07-15T09:38:48.000Z</time>
</trkpt>
<trkpt lat="57.096596" lon="8.721005">
<ele>9.374594</ele>
<time>2026-07-15T09:38:49.000Z</time>
</trkpt>
<trkpt lat="57.096603" lon="8.720882">
<ele>9.272410</ele>
<time>2026-07-15T09:38:50.000Z</time>
</trkpt>
<trkpt lat="57.096607" lon="8.720756">
<ele>9.168125</ele>
<time>2026-07-15T09:38:51.000Z</time>
</trkpt>
<trkpt lat="57.096615" lon="8.720627">
<ele>9.060848</ele>
<time>2026-07-15T09:38:52.000Z</time>
</trkpt>
<trkpt lat="57.096619" lon="8.720497">
<ele>8.953264</ele>
<time>2026-07-15T09:38:53.000Z</time>
</trkpt>
<trkpt lat="57.096619" lon="8.720365">
<ele>8.844200</ele>
<time>2026-07-15T09:38:54.000Z</time>
</trkpt>
<trkpt lat="57.096619" lon="8.720239">
<ele>8.740094</ele>
<time>2026-07-15T09:38:55.000Z</time>
</trkpt>
<trkpt lat="57.096619" lon="8.720108">
<ele>8.631856</ele>
<time>2026-07-15T09:38:56.000Z</time>
</trkpt>
<trkpt lat="57.096619" lon="8.719985">
<ele>8.530228</ele>
<time>2026-07-15T09:38:57.000Z</time>
</trkpt>
<trkpt lat="57.096622" lon="8.719867">
<ele>8.432625</ele>
<time>2026-07-15T09:38:58.000Z</time>
</trkpt>
<trkpt lat="57.096622" lon="8.719752">
<ele>8.337607</ele>
<time>2026-07-15T09:38:59.000Z</time>
</trkpt>
<trkpt lat="57.096619" lon="8.719635">
<ele>8.240829</ele>
<time>2026-07-15T09:39:00.000Z</time>
</trkpt>
<trkpt lat="57.096611" lon="8.719524">
<ele>8.148312</ele>
<time>2026-07-15T09:39:01.000Z</time>
</trkpt>
<trkpt lat="57.096603" lon="8.719411">
<ele>8.054157</ele>
<time>2026-07-15T09:39:02.000Z</time>
</trkpt>
<trkpt lat="57.096592" lon="8.719300">
<ele>7.960931</ele>
<time>2026-07-15T09:39:03.000Z</time>
</trkpt>
<trkpt lat="57.096580" lon="8.719188">
<ele>7.866609</ele>
<time>2026-07-15T09:39:04.000Z</time>
</trkpt>
<trkpt lat="57.096569" lon="8.719075">
<ele>7.771756</ele>
<time>2026-07-15T09:39:05.000Z</time>
</trkpt>
<trkpt lat="57.096558" lon="8.718963">
<ele>7.677717</ele>
<time>2026-07-15T09:39:06.000Z</time>
</trkpt>
<trkpt lat="57.096550" lon="8.718854">
<ele>7.586838</ele>
<time>2026-07-15T09:39:07.000Z</time>
</trkpt>
<trkpt lat="57.096538" lon="8.718746">
<ele>7.495756</ele>
<time>2026-07-15T09:39:08.000Z</time>
</trkpt>
<trkpt lat="57.096523" lon="8.718634">
<ele>7.400446</ele>
<time>2026-07-15T09:39:09.000Z</time>
</trkpt>
<trkpt lat="57.096519" lon="8.718525">
<ele>7.310180</ele>
<time>2026-07-15T09:39:10.000Z</time>
</trkpt>
<trkpt lat="57.096516" lon="8.718417">
<ele>7.220829</ele>
<time>2026-07-15T09:39:11.000Z</time>
</trkpt>
<trkpt lat="57.096512" lon="8.718314">
<ele>7.135508</ele>
<time>2026-07-15T09:39:12.000Z</time>
</trkpt>
<trkpt lat="57.096512" lon="8.718212">
<ele>7.051231</ele>
<time>2026-07-15T09:39:13.000Z</time>
</trkpt>
<trkpt lat="57.096508" lon="8.718107">
<ele>6.993317</ele>
<time>2026-07-15T09:39:14.000Z</time>
</trkpt>
<trkpt lat="57.096504" lon="8.718003">
<ele>7.001947</ele>
<time>2026-07-15T09:39:15.000Z</time>
</trkpt>
<trkpt lat="57.096500" lon="8.717896">
<ele>7.010825</ele>
<time>2026-07-15T09:39:16.000Z</time>
</trkpt>
<trkpt lat="57.096500" lon="8.717792">
<ele>7.019433</ele>
<time>2026-07-15T09:39:17.000Z</time>
</trkpt>
<trkpt lat="57.096500" lon="8.717699">
<ele>7.027131</ele>
<time>2026-07-15T09:39:18.000Z</time>
</trkpt>
<trkpt lat="57.096504" lon="8.717615">
<ele>7.034110</ele>
<time>2026-07-15T09:39:19.000Z</time>
</trkpt>
<trkpt lat="57.096504" lon="8.717530">
<ele>7.041146</ele>
<time>2026-07-15T09:39:20.000Z</time>
</trkpt>
<trkpt lat="57.096508" lon="8.717445">
<ele>7.048208</ele>
<time>2026-07-15T09:39:21.000Z</time>
</trkpt>
<trkpt lat="57.096508" lon="8.717353">
<ele>7.055823</ele>
<time>2026-07-15T09:39:22.000Z</time>
</trkpt>
<trkpt lat="57.096497" lon="8.717263">
<ele>7.063459</ele>
<time>2026-07-15T09:39:23.000Z</time>
</trkpt>
<trkpt lat="57.096485" lon="8.717172">
<ele>7.071210</ele>
<time>2026-07-15T09:39:24.000Z</time>
</trkpt>
<trkpt lat="57.096470" lon="8.717094">
<ele>7.078059</ele>
<time>2026-07-15T09:39:25.000Z</time>
</trkpt>
<trkpt lat="57.096458" lon="8.717025">
<ele>7.084055</ele>
<time>2026-07-15T09:39:26.000Z</time>
</trkpt>
<trkpt lat="57.096433" lon="8.716968">
<ele>7.090119</ele>
<time>2026-07-15T09:39:27.000Z</time>
</trkpt>
<trkpt lat="57.096401" lon="8.716899">
<ele>7.097629</ele>
<time>2026-07-15T09:39:28.000Z</time>
</trkpt>
<trkpt lat="57.096366" lon="8.716839">
<ele>7.104916</ele>
<time>2026-07-15T09:39:29.000Z</time>
</trkpt>
<trkpt lat="57.096328" lon="8.716778">
<ele>7.112599</ele>
<time>2026-07-15T09:39:30.000Z</time>
</trkpt>
<trkpt lat="57.096290" lon="8.716709">
<ele>7.120731</ele>
<time>2026-07-15T09:39:31.000Z</time>
</trkpt>
<trkpt lat="57.096252" lon="8.716638">
<ele>7.128981</ele>
<time>2026-07-15T09:39:32.000Z</time>
</trkpt>
<trkpt lat="57.096210" lon="8.716571">
<ele>7.137450</ele>
<time>2026-07-15T09:39:33.000Z</time>
</trkpt>
<trkpt lat="57.096168" lon="8.716514">
<ele>7.145401</ele>
<time>2026-07-15T09:39:34.000Z</time>
</trkpt>
<trkpt lat="57.096126" lon="8.716469">
<ele>7.152805</ele>
<time>2026-07-15T09:39:35.000Z</time>
</trkpt>
<trkpt lat="57.096084" lon="8.716422">
<ele>7.160294</ele>
<time>2026-07-15T09:39:36.000Z</time>
</trkpt>
<trkpt lat="57.096046" lon="8.716381">
<ele>7.167006</ele>
<time>2026-07-15T09:39:37.000Z</time>
</trkpt>
<trkpt lat="57.096012" lon="8.716342">
<ele>7.173110</ele>
<time>2026-07-15T09:39:38.000Z</time>
</trkpt>
<trkpt lat="57.095973" lon="8.716308">
<ele>7.179685</ele>
<time>2026-07-15T09:39:39.000Z</time>
</trkpt>
<trkpt lat="57.095935" lon="8.716295">
<ele>7.185574</ele>
<time>2026-07-15T09:39:40.000Z</time>
</trkpt>
<trkpt lat="57.095897" lon="8.716309">
<ele>7.191479</ele>
<time>2026-07-15T09:39:41.000Z</time>
</trkpt>
<trkpt lat="57.095871" lon="8.716345">
<ele>7.196437</ele>
<time>2026-07-15T09:39:42.000Z</time>
</trkpt>
<trkpt lat="57.095840" lon="8.716389">
<ele>7.202401</ele>
<time>2026-07-15T09:39:43.000Z</time>
</trkpt>
<trkpt lat="57.095814" lon="8.716436">
<ele>7.207954</ele>
<time>2026-07-15T09:39:44.000Z</time>
</trkpt>
<trkpt lat="57.095787" lon="8.716497">
<ele>7.214467</ele>
<time>2026-07-15T09:39:45.000Z</time>
</trkpt>
<trkpt lat="57.095764" lon="8.716559">
<ele>7.220681</ele>
<time>2026-07-15T09:39:46.000Z</time>
</trkpt>
<trkpt lat="57.095745" lon="8.716626">
<ele>7.226937</ele>
<time>2026-07-15T09:39:47.000Z</time>
</trkpt>
<trkpt lat="57.095726" lon="8.716694">
<ele>7.233267</ele>
<time>2026-07-15T09:39:48.000Z</time>
</trkpt>
<trkpt lat="57.095703" lon="8.716764">
<ele>7.240038</ele>
<time>2026-07-15T09:39:49.000Z</time>
</trkpt>
<trkpt lat="57.095688" lon="8.716834">
<ele>7.246267</ele>
<time>2026-07-15T09:39:50.000Z</time>
</trkpt>
<trkpt lat="57.095669" lon="8.716902">
<ele>7.252596</ele>
<time>2026-07-15T09:39:51.000Z</time>
</trkpt>
<trkpt lat="57.095657" lon="8.716975">
<ele>7.258910</ele>
<time>2026-07-15T09:39:52.000Z</time>
</trkpt>
<trkpt lat="57.095649" lon="8.717050">
<ele>7.263691</ele>
<time>2026-07-15T09:39:53.000Z</time>
</trkpt>
<trkpt lat="57.095634" lon="8.717136">
<ele>7.248168</ele>
<time>2026-07-15T09:39:54.000Z</time>
</trkpt>
<trkpt lat="57.095623" lon="8.717222">
<ele>7.232984</ele>
<time>2026-07-15T09:39:55.000Z</time>
</trkpt>
<trkpt lat="57.095611" lon="8.717308">
<ele>7.217724</ele>
<time>2026-07-15T09:39:56.000Z</time>
</trkpt>
<trkpt lat="57.095600" lon="8.717393">
<ele>7.202707</ele>
<time>2026-07-15T09:39:57.000Z</time>
</trkpt>
<trkpt lat="57.095596" lon="8.717483">
<ele>7.187188</ele>
<time>2026-07-15T09:39:58.000Z</time>
</trkpt>
<trkpt lat="57.095593" lon="8.717574">
<ele>7.171520</ele>
<time>2026-07-15T09:39:59.000Z</time>
</trkpt>
<trkpt lat="57.095600" lon="8.717661">
<ele>7.156405</ele>
<time>2026-07-15T09:40:00.000Z</time>
</trkpt>
<trkpt lat="57.095596" lon="8.717744">
<ele>7.142084</ele>
<time>2026-07-15T09:40:01.000Z</time>
</trkpt>
<trkpt lat="57.095604" lon="8.717830">
<ele>7.127089</ele>
<time>2026-07-15T09:40:02.000Z</time>
</trkpt>
<trkpt lat="57.095616" lon="8.717917">
<ele>7.111663</ele>
<time>2026-07-15T09:40:03.000Z</time>
</trkpt>
<trkpt lat="57.095627" lon="8.718009">
<ele>7.095474</ele>
<time>2026-07-15T09:40:04.000Z</time>
</trkpt>
<trkpt lat="57.095631" lon="8.718096">
<ele>7.080468</ele>
<time>2026-07-15T09:40:05.000Z</time>
</trkpt>
<trkpt lat="57.095642" lon="8.718186">
<ele>7.064614</ele>
<time>2026-07-15T09:40:06.000Z</time>
</trkpt>
<trkpt lat="57.095654" lon="8.718270">
<ele>7.049687</ele>
<time>2026-07-15T09:40:07.000Z</time>
</trkpt>
<trkpt lat="57.095657" lon="8.718355">
<ele>7.035048</ele>
<time>2026-07-15T09:40:08.000Z</time>
</trkpt>
<trkpt lat="57.095661" lon="8.718446">
<ele>7.019358</ele>
<time>2026-07-15T09:40:09.000Z</time>
</trkpt>
<trkpt lat="57.095665" lon="8.718540">
<ele>7.003154</ele>
<time>2026-07-15T09:40:10.000Z</time>
</trkpt>
<trkpt lat="57.095665" lon="8.718649">
<ele>6.984421</ele>
<time>2026-07-15T09:40:11.000Z</time>
</trkpt>
<trkpt lat="57.095661" lon="8.718755">
<ele>6.966160</ele>
<time>2026-07-15T09:40:12.000Z</time>
</trkpt>
<trkpt lat="57.095657" lon="8.718857">
<ele>6.948584</ele>
<time>2026-07-15T09:40:13.000Z</time>
</trkpt>
<trkpt lat="57.095650" lon="8.718952">
<ele>6.932108</ele>
<time>2026-07-15T09:40:14.000Z</time>
</trkpt>
<trkpt lat="57.095642" lon="8.719041">
<ele>6.916605</ele>
<time>2026-07-15T09:40:15.000Z</time>
</trkpt>
<trkpt lat="57.095634" lon="8.719134">
<ele>6.900423</ele>
<time>2026-07-15T09:40:16.000Z</time>
</trkpt>
<trkpt lat="57.095624" lon="8.719230">
<ele>6.883623</ele>
<time>2026-07-15T09:40:17.000Z</time>
</trkpt>
<trkpt lat="57.095615" lon="8.719333">
<ele>6.865694</ele>
<time>2026-07-15T09:40:18.000Z</time>
</trkpt>
<trkpt lat="57.095600" lon="8.719428">
<ele>6.848692</ele>
<time>2026-07-15T09:40:19.000Z</time>
</trkpt>
<trkpt lat="57.095589" lon="8.719524">
<ele>6.831830</ele>
<time>2026-07-15T09:40:20.000Z</time>
</trkpt>
<trkpt lat="57.095569" lon="8.719612">
<ele>6.815436</ele>
<time>2026-07-15T09:40:21.000Z</time>
</trkpt>
<trkpt lat="57.095554" lon="8.719705">
<ele>6.798764</ele>
<time>2026-07-15T09:40:22.000Z</time>
</trkpt>
<trkpt lat="57.095535" lon="8.719794">
<ele>6.782329</ele>
<time>2026-07-15T09:40:23.000Z</time>
</trkpt>
<trkpt lat="57.095524" lon="8.719890">
<ele>6.765468</ele>
<time>2026-07-15T09:40:24.000Z</time>
</trkpt>
<trkpt lat="57.095516" lon="8.719981">
<ele>6.749625</ele>
<time>2026-07-15T09:40:25.000Z</time>
</trkpt>
<trkpt lat="57.095501" lon="8.720069">
<ele>6.733774</ele>
<time>2026-07-15T09:40:26.000Z</time>
</trkpt>
<trkpt lat="57.095482" lon="8.720163">
<ele>6.716537</ele>
<time>2026-07-15T09:40:27.000Z</time>
</trkpt>
<trkpt lat="57.095466" lon="8.720251">
<ele>6.700589</ele>
<time>2026-07-15T09:40:28.000Z</time>
</trkpt>
<trkpt lat="57.095455" lon="8.720339">
<ele>6.704212</ele>
<time>2026-07-15T09:40:29.000Z</time>
</trkpt>
<trkpt lat="57.095451" lon="8.720425">
<ele>6.716063</ele>
<time>2026-07-15T09:40:30.000Z</time>
</trkpt>
<trkpt lat="57.095447" lon="8.720516">
<ele>6.728597</ele>
<time>2026-07-15T09:40:31.000Z</time>
</trkpt>
<trkpt lat="57.095432" lon="8.720596">
<ele>6.740217</ele>
<time>2026-07-15T09:40:32.000Z</time>
</trkpt>
<trkpt lat="57.095428" lon="8.720690">
<ele>6.753162</ele>
<time>2026-07-15T09:40:33.000Z</time>
</trkpt>
<trkpt lat="57.095413" lon="8.720789">
<ele>6.767273</ele>
<time>2026-07-15T09:40:34.000Z</time>
</trkpt>
<trkpt lat="57.095402" lon="8.720887">
<ele>6.781012</ele>
<time>2026-07-15T09:40:35.000Z</time>
</trkpt>
<trkpt lat="57.095379" lon="8.720983">
<ele>6.795418</ele>
<time>2026-07-15T09:40:36.000Z</time>
</trkpt>
<trkpt lat="57.095360" lon="8.721080">
<ele>6.809574</ele>
<time>2026-07-15T09:40:37.000Z</time>
</trkpt>
<trkpt lat="57.095337" lon="8.721176">
<ele>6.823980</ele>
<time>2026-07-15T09:40:38.000Z</time>
</trkpt>
<trkpt lat="57.095317" lon="8.721275">
<ele>6.838481</ele>
<time>2026-07-15T09:40:39.000Z</time>
</trkpt>
<trkpt lat="57.095295" lon="8.721368">
<ele>6.852408</ele>
<time>2026-07-15T09:40:40.000Z</time>
</trkpt>
<trkpt lat="57.095276" lon="8.721468">
<ele>6.866953</ele>
<time>2026-07-15T09:40:41.000Z</time>
</trkpt>
<trkpt lat="57.095253" lon="8.721564">
<ele>6.881359</ele>
<time>2026-07-15T09:40:42.000Z</time>
</trkpt>
<trkpt lat="57.095237" lon="8.721656">
<ele>6.894621</ele>
<time>2026-07-15T09:40:43.000Z</time>
</trkpt>
<trkpt lat="57.095215" lon="8.721752">
<ele>6.908926</ele>
<time>2026-07-15T09:40:44.000Z</time>
</trkpt>
<trkpt lat="57.095196" lon="8.721849">
<ele>6.923083</ele>
<time>2026-07-15T09:40:45.000Z</time>
</trkpt>
<trkpt lat="57.095176" lon="8.721950">
<ele>6.937843</ele>
<time>2026-07-15T09:40:46.000Z</time>
</trkpt>
<trkpt lat="57.095154" lon="8.722048">
<ele>6.952402</ele>
<time>2026-07-15T09:40:47.000Z</time>
</trkpt>
<trkpt lat="57.095138" lon="8.722139">
<ele>6.965534</ele>
<time>2026-07-15T09:40:48.000Z</time>
</trkpt>
<trkpt lat="57.095119" lon="8.722227">
<ele>6.978535</ele>
<time>2026-07-15T09:40:49.000Z</time>
</trkpt>
<trkpt lat="57.095104" lon="8.722316">
<ele>6.991329</ele>
<time>2026-07-15T09:40:50.000Z</time>
</trkpt>
<trkpt lat="57.095085" lon="8.722403">
<ele>7.004203</ele>
<time>2026-07-15T09:40:51.000Z</time>
</trkpt>
<trkpt lat="57.095070" lon="8.722489">
<ele>7.016604</ele>
<time>2026-07-15T09:40:52.000Z</time>
</trkpt>
<trkpt lat="57.095055" lon="8.722576">
<ele>7.029136</ele>
<time>2026-07-15T09:40:53.000Z</time>
</trkpt>
<trkpt lat="57.095039" lon="8.722660">
<ele>7.041357</ele>
<time>2026-07-15T09:40:54.000Z</time>
</trkpt>
<trkpt lat="57.095024" lon="8.722744">
<ele>7.053497</ele>
<time>2026-07-15T09:40:55.000Z</time>
</trkpt>
<trkpt lat="57.095005" lon="8.722825">
<ele>7.065611</ele>
<time>2026-07-15T09:40:56.000Z</time>
</trkpt>
<trkpt lat="57.094993" lon="8.722909">
<ele>7.077536</ele>
<time>2026-07-15T09:40:57.000Z</time>
</trkpt>
<trkpt lat="57.094978" lon="8.722993">
<ele>7.089676</ele>
<time>2026-07-15T09:40:58.000Z</time>
</trkpt>
<trkpt lat="57.094963" lon="8.723079">
<ele>7.102077</ele>
<time>2026-07-15T09:40:59.000Z</time>
</trkpt>
<trkpt lat="57.094944" lon="8.723166">
<ele>7.114951</ele>
<time>2026-07-15T09:41:00.000Z</time>
</trkpt>
<trkpt lat="57.094925" lon="8.723257">
<ele>7.128336</ele>
<time>2026-07-15T09:41:01.000Z</time>
</trkpt>
<trkpt lat="57.094905" lon="8.723353">
<ele>7.142453</ele>
<time>2026-07-15T09:41:02.000Z</time>
</trkpt>
<trkpt lat="57.094879" lon="8.723444">
<ele>7.140915</ele>
<time>2026-07-15T09:41:03.000Z</time>
</trkpt>
<trkpt lat="57.094844" lon="8.723524">
<ele>7.119866</ele>
<time>2026-07-15T09:41:04.000Z</time>
</trkpt>
<trkpt lat="57.094814" lon="8.723608">
<ele>7.099266</ele>
<time>2026-07-15T09:41:05.000Z</time>
</trkpt>
<trkpt lat="57.094779" lon="8.723692">
<ele>7.077572</ele>
<time>2026-07-15T09:41:06.000Z</time>
</trkpt>
<trkpt lat="57.094746" lon="8.723766">
<ele>7.057953</ele>
<time>2026-07-15T09:41:07.000Z</time>
</trkpt>
<trkpt lat="57.094703" lon="8.723845">
<ele>7.035036</ele>
<time>2026-07-15T09:41:08.000Z</time>
</trkpt>
<trkpt lat="57.094662" lon="8.723920">
<ele>7.013232</ele>
<time>2026-07-15T09:41:09.000Z</time>
</trkpt>
<trkpt lat="57.094616" lon="8.723994">
<ele>6.990188</ele>
<time>2026-07-15T09:41:10.000Z</time>
</trkpt>
<trkpt lat="57.094578" lon="8.724069">
<ele>6.969171</ele>
<time>2026-07-15T09:41:11.000Z</time>
</trkpt>
<trkpt lat="57.094543" lon="8.724147">
<ele>6.948440</ele>
<time>2026-07-15T09:41:12.000Z</time>
</trkpt>
<trkpt lat="57.094512" lon="8.724229">
<ele>6.927968</ele>
<time>2026-07-15T09:41:13.000Z</time>
</trkpt>
<trkpt lat="57.094482" lon="8.724316">
<ele>6.906851</ele>
<time>2026-07-15T09:41:14.000Z</time>
</trkpt>
<trkpt lat="57.094455" lon="8.724408">
<ele>6.885423</ele>
<time>2026-07-15T09:41:15.000Z</time>
</trkpt>
<trkpt lat="57.094432" lon="8.724496">
<ele>6.865411</ele>
<time>2026-07-15T09:41:16.000Z</time>
</trkpt>
<trkpt lat="57.094410" lon="8.724583">
<ele>6.845745</ele>
<time>2026-07-15T09:41:17.000Z</time>
</trkpt>
<trkpt lat="57.094387" lon="8.724672">
<ele>6.825549</ele>
<time>2026-07-15T09:41:18.000Z</time>
</trkpt>
<trkpt lat="57.094372" lon="8.724758">
<ele>6.807039</ele>
<time>2026-07-15T09:41:19.000Z</time>
</trkpt>
<trkpt lat="57.094356" lon="8.724843">
<ele>6.788604</ele>
<time>2026-07-15T09:41:20.000Z</time>
</trkpt>
<trkpt lat="57.094341" lon="8.724929">
<ele>6.770095</ele>
<time>2026-07-15T09:41:21.000Z</time>
</trkpt>
<trkpt lat="57.094330" lon="8.725020">
<ele>6.750990</ele>
<time>2026-07-15T09:41:22.000Z</time>
</trkpt>
<trkpt lat="57.094318" lon="8.725107">
<ele>6.732596</ele>
<time>2026-07-15T09:41:23.000Z</time>
</trkpt>
<trkpt lat="57.094303" lon="8.725197">
<ele>6.713305</ele>
<time>2026-07-15T09:41:24.000Z</time>
</trkpt>
<trkpt lat="57.094292" lon="8.725289">
<ele>6.694000</ele>
<time>2026-07-15T09:41:25.000Z</time>
</trkpt>
<trkpt lat="57.094276" lon="8.725381">
<ele>6.674204</ele>
<time>2026-07-15T09:41:26.000Z</time>
</trkpt>
<trkpt lat="57.094265" lon="8.725473">
<ele>6.654900</ele>
<time>2026-07-15T09:41:27.000Z</time>
</trkpt>
<trkpt lat="57.094250" lon="8.725564">
<ele>6.635412</ele>
<time>2026-07-15T09:41:28.000Z</time>
</trkpt>
<trkpt lat="57.094234" lon="8.725655">
<ele>6.615812</ele>
<time>2026-07-15T09:41:29.000Z</time>
</trkpt>
<trkpt lat="57.094219" lon="8.725746">
<ele>6.596324</ele>
<time>2026-07-15T09:41:30.000Z</time>
</trkpt>
<trkpt lat="57.094204" lon="8.725835">
<ele>6.577228</ele>
<time>2026-07-15T09:41:31.000Z</time>
</trkpt>
<trkpt lat="57.094192" lon="8.725926">
<ele>6.558038</ele>
<time>2026-07-15T09:41:32.000Z</time>
</trkpt>
<trkpt lat="57.094177" lon="8.726017">
<ele>6.538550</ele>
<time>2026-07-15T09:41:33.000Z</time>
</trkpt>
<trkpt lat="57.094162" lon="8.726109">
<ele>6.518866</ele>
<time>2026-07-15T09:41:34.000Z</time>
</trkpt>
<trkpt lat="57.094147" lon="8.726201">
<ele>6.499182</ele>
<time>2026-07-15T09:41:35.000Z</time>
</trkpt>
<trkpt lat="57.094135" lon="8.726293">
<ele>6.479793</ele>
<time>2026-07-15T09:41:36.000Z</time>
</trkpt>
<trkpt lat="57.094120" lon="8.726382">
<ele>6.472036</ele>
<time>2026-07-15T09:41:37.000Z</time>
</trkpt>
<trkpt lat="57.094108" lon="8.726475">
<ele>6.472433</ele>
<time>2026-07-15T09:41:38.000Z</time>
</trkpt>
<trkpt lat="57.094097" lon="8.726565">
<ele>6.472815</ele>
<time>2026-07-15T09:41:39.000Z</time>
</trkpt>
<trkpt lat="57.094082" lon="8.726654">
<ele>6.473201</ele>
<time>2026-07-15T09:41:40.000Z</time>
</trkpt>
<trkpt lat="57.094066" lon="8.726745">
<ele>6.473598</ele>
<time>2026-07-15T09:41:41.000Z</time>
</trkpt>
<trkpt lat="57.094055" lon="8.726833">
<ele>6.473973</ele>
<time>2026-07-15T09:41:42.000Z</time>
</trkpt>
<trkpt lat="57.094040" lon="8.726921">
<ele>6.474355</ele>
<time>2026-07-15T09:41:43.000Z</time>
</trkpt>
<trkpt lat="57.094028" lon="8.727008">
<ele>6.474727</ele>
<time>2026-07-15T09:41:44.000Z</time>
</trkpt>
<trkpt lat="57.094013" lon="8.727096">
<ele>6.475110</ele>
<time>2026-07-15T09:41:45.000Z</time>
</trkpt>
<trkpt lat="57.094002" lon="8.727182">
<ele>6.475476</ele>
<time>2026-07-15T09:41:46.000Z</time>
</trkpt>
<trkpt lat="57.093990" lon="8.727270">
<ele>6.475852</ele>
<time>2026-07-15T09:41:47.000Z</time>
</trkpt>
<trkpt lat="57.093975" lon="8.727358">
<ele>6.476235</ele>
<time>2026-07-15T09:41:48.000Z</time>
</trkpt>
<trkpt lat="57.093963" lon="8.727445">
<ele>6.476607</ele>
<time>2026-07-15T09:41:49.000Z</time>
</trkpt>
<trkpt lat="57.093948" lon="8.727533">
<ele>6.476989</ele>
<time>2026-07-15T09:41:50.000Z</time>
</trkpt>
<trkpt lat="57.093937" lon="8.727623">
<ele>6.477372</ele>
<time>2026-07-15T09:41:51.000Z</time>
</trkpt>
<trkpt lat="57.093925" lon="8.727715">
<ele>6.477764</ele>
<time>2026-07-15T09:41:52.000Z</time>
</trkpt>
<trkpt lat="57.093910" lon="8.727805">
<ele>6.478155</ele>
<time>2026-07-15T09:41:53.000Z</time>
</trkpt>
<trkpt lat="57.093895" lon="8.727894">
<ele>6.478541</ele>
<time>2026-07-15T09:41:54.000Z</time>
</trkpt>
<trkpt lat="57.093883" lon="8.727981">
<ele>6.478913</ele>
<time>2026-07-15T09:41:55.000Z</time>
</trkpt>
<trkpt lat="57.093868" lon="8.728073">
<ele>6.479312</ele>
<time>2026-07-15T09:41:56.000Z</time>
</trkpt>
<trkpt lat="57.093857" lon="8.728162">
<ele>6.479690</ele>
<time>2026-07-15T09:41:57.000Z</time>
</trkpt>
<trkpt lat="57.093841" lon="8.728251">
<ele>6.480079</ele>
<time>2026-07-15T09:41:58.000Z</time>
</trkpt>
<trkpt lat="57.093830" lon="8.728340">
<ele>6.480457</ele>
<time>2026-07-15T09:41:59.000Z</time>
</trkpt>
<trkpt lat="57.093819" lon="8.728428">
<ele>6.480832</ele>
<time>2026-07-15T09:42:00.000Z</time>
</trkpt>
<trkpt lat="57.093803" lon="8.728515">
<ele>6.481213</ele>
<time>2026-07-15T09:42:01.000Z</time>
</trkpt>
<trkpt lat="57.093792" lon="8.728603">
<ele>6.481587</ele>
<time>2026-07-15T09:42:02.000Z</time>
</trkpt>
<trkpt lat="57.093776" lon="8.728692">
<ele>6.481976</ele>
<time>2026-07-15T09:42:03.000Z</time>
</trkpt>
<trkpt lat="57.093761" lon="8.728779">
<ele>6.482354</ele>
<time>2026-07-15T09:42:04.000Z</time>
</trkpt>
<trkpt lat="57.093750" lon="8.728868">
<ele>6.482733</ele>
<time>2026-07-15T09:42:05.000Z</time>
</trkpt>
<trkpt lat="57.093738" lon="8.728953">
<ele>6.483097</ele>
<time>2026-07-15T09:42:06.000Z</time>
</trkpt>
<trkpt lat="57.093723" lon="8.729038">
<ele>6.483468</ele>
<time>2026-07-15T09:42:07.000Z</time>
</trkpt>
<trkpt lat="57.093708" lon="8.729121">
<ele>6.483830</ele>
<time>2026-07-15T09:42:08.000Z</time>
</trkpt>
<trkpt lat="57.093693" lon="8.729205">
<ele>6.484197</ele>
<time>2026-07-15T09:42:09.000Z</time>
</trkpt>
<trkpt lat="57.093677" lon="8.729292">
<ele>6.484578</ele>
<time>2026-07-15T09:42:10.000Z</time>
</trkpt>
<trkpt lat="57.093670" lon="8.729376">
<ele>6.484930</ele>
<time>2026-07-15T09:42:11.000Z</time>
</trkpt>
<trkpt lat="57.093654" lon="8.729463">
<ele>6.485311</ele>
<time>2026-07-15T09:42:12.000Z</time>
</trkpt>
<trkpt lat="57.093643" lon="8.729545">
<ele>6.484924</ele>
<time>2026-07-15T09:42:13.000Z</time>
</trkpt>
<trkpt lat="57.093632" lon="8.729624">
<ele>6.483203</ele>
<time>2026-07-15T09:42:14.000Z</time>
</trkpt>
<trkpt lat="57.093620" lon="8.729706">
<ele>6.481410</ele>
<time>2026-07-15T09:42:15.000Z</time>
</trkpt>
<trkpt lat="57.093609" lon="8.729791">
<ele>6.479566</ele>
<time>2026-07-15T09:42:16.000Z</time>
</trkpt>
<trkpt lat="57.093593" lon="8.729875">
<ele>6.477687</ele>
<time>2026-07-15T09:42:17.000Z</time>
</trkpt>
<trkpt lat="57.093582" lon="8.729960">
<ele>6.475842</ele>
<time>2026-07-15T09:42:18.000Z</time>
</trkpt>
<trkpt lat="57.093570" lon="8.730043">
<ele>6.474029</ele>
<time>2026-07-15T09:42:19.000Z</time>
</trkpt>
<trkpt lat="57.093555" lon="8.730128">
<ele>6.472143</ele>
<time>2026-07-15T09:42:20.000Z</time>
</trkpt>
<trkpt lat="57.093544" lon="8.730211">
<ele>6.470339</ele>
<time>2026-07-15T09:42:21.000Z</time>
</trkpt>
<trkpt lat="57.093528" lon="8.730297">
<ele>6.468420</ele>
<time>2026-07-15T09:42:22.000Z</time>
</trkpt>
<trkpt lat="57.093513" lon="8.730384">
<ele>6.466494</ele>
<time>2026-07-15T09:42:23.000Z</time>
</trkpt>
<trkpt lat="57.093502" lon="8.730470">
<ele>6.464629</ele>
<time>2026-07-15T09:42:24.000Z</time>
</trkpt>
<trkpt lat="57.093487" lon="8.730556">
<ele>6.462722</ele>
<time>2026-07-15T09:42:25.000Z</time>
</trkpt>
<trkpt lat="57.093471" lon="8.730643">
<ele>6.460783</ele>
<time>2026-07-15T09:42:26.000Z</time>
</trkpt>
<trkpt lat="57.093456" lon="8.730732">
<ele>6.458816</ele>
<time>2026-07-15T09:42:27.000Z</time>
</trkpt>
<trkpt lat="57.093445" lon="8.730820">
<ele>6.456910</ele>
<time>2026-07-15T09:42:28.000Z</time>
</trkpt>
<trkpt lat="57.093434" lon="8.730909">
<ele>6.454983</ele>
<time>2026-07-15T09:42:29.000Z</time>
</trkpt>
<trkpt lat="57.093418" lon="8.731005">
<ele>6.452864</ele>
<time>2026-07-15T09:42:30.000Z</time>
</trkpt>
<trkpt lat="57.093406" lon="8.731097">
<ele>6.450866</ele>
<time>2026-07-15T09:42:31.000Z</time>
</trkpt>
<trkpt lat="57.093391" lon="8.731190">
<ele>6.448819</ele>
<time>2026-07-15T09:42:32.000Z</time>
</trkpt>
<trkpt lat="57.093372" lon="8.731284">
<ele>6.446702</ele>
<time>2026-07-15T09:42:33.000Z</time>
</trkpt>
<trkpt lat="57.093361" lon="8.731379">
<ele>6.444651</ele>
<time>2026-07-15T09:42:34.000Z</time>
</trkpt>
<trkpt lat="57.093345" lon="8.731469">
<ele>6.442652</ele>
<time>2026-07-15T09:42:35.000Z</time>
</trkpt>
<trkpt lat="57.093330" lon="8.731564">
<ele>6.440564</ele>
<time>2026-07-15T09:42:36.000Z</time>
</trkpt>
<trkpt lat="57.093319" lon="8.731655">
<ele>6.438596</ele>
<time>2026-07-15T09:42:37.000Z</time>
</trkpt>
<trkpt lat="57.093303" lon="8.731746">
<ele>6.436577</ele>
<time>2026-07-15T09:42:38.000Z</time>
</trkpt>
<trkpt lat="57.093288" lon="8.731838">
<ele>6.434549</ele>
<time>2026-07-15T09:42:39.000Z</time>
</trkpt>
<trkpt lat="57.093277" lon="8.731930">
<ele>6.432561</ele>
<time>2026-07-15T09:42:40.000Z</time>
</trkpt>
<trkpt lat="57.093262" lon="8.732021">
<ele>6.430554</ele>
<time>2026-07-15T09:42:41.000Z</time>
</trkpt>
<trkpt lat="57.093246" lon="8.732114">
<ele>6.428494</ele>
<time>2026-07-15T09:42:42.000Z</time>
</trkpt>
<trkpt lat="57.093231" lon="8.732208">
<ele>6.426426</ele>
<time>2026-07-15T09:42:43.000Z</time>
</trkpt>
<trkpt lat="57.093216" lon="8.732303">
<ele>6.424338</ele>
<time>2026-07-15T09:42:44.000Z</time>
</trkpt>
<trkpt lat="57.093200" lon="8.732399">
<ele>6.422218</ele>
<time>2026-07-15T09:42:45.000Z</time>
</trkpt>
<trkpt lat="57.093185" lon="8.732493">
<ele>6.420150</ele>
<time>2026-07-15T09:42:46.000Z</time>
</trkpt>
<trkpt lat="57.093170" lon="8.732588">
<ele>6.418062</ele>
<time>2026-07-15T09:42:47.000Z</time>
</trkpt>
<trkpt lat="57.093155" lon="8.732683">
<ele>6.415974</ele>
<time>2026-07-15T09:42:48.000Z</time>
</trkpt>
<trkpt lat="57.093139" lon="8.732776">
<ele>6.411924</ele>
<time>2026-07-15T09:42:49.000Z</time>
</trkpt>
<trkpt lat="57.093124" lon="8.732869">
<ele>6.407532</ele>
<time>2026-07-15T09:42:50.000Z</time>
</trkpt>
<trkpt lat="57.093109" lon="8.732965">
<ele>6.403011</ele>
<time>2026-07-15T09:42:51.000Z</time>
</trkpt>
<trkpt lat="57.093094" lon="8.733058">
<ele>6.398620</ele>
<time>2026-07-15T09:42:52.000Z</time>
</trkpt>
<trkpt lat="57.093082" lon="8.733152">
<ele>6.394249</ele>
<time>2026-07-15T09:42:53.000Z</time>
</trkpt>
<trkpt lat="57.093067" lon="8.733246">
<ele>6.389814</ele>
<time>2026-07-15T09:42:54.000Z</time>
</trkpt>
<trkpt lat="57.093052" lon="8.733340">
<ele>6.385380</ele>
<time>2026-07-15T09:42:55.000Z</time>
</trkpt>
<trkpt lat="57.093036" lon="8.733438">
<ele>6.380748</ele>
<time>2026-07-15T09:42:56.000Z</time>
</trkpt>
<trkpt lat="57.093025" lon="8.733534">
<ele>6.376307</ele>
<time>2026-07-15T09:42:57.000Z</time>
</trkpt>
<trkpt lat="57.093010" lon="8.733631">
<ele>6.371742</ele>
<time>2026-07-15T09:42:58.000Z</time>
</trkpt>
<trkpt lat="57.092994" lon="8.733730">
<ele>6.367066</ele>
<time>2026-07-15T09:42:59.000Z</time>
</trkpt>
<trkpt lat="57.092979" lon="8.733827">
<ele>6.362501</ele>
<time>2026-07-15T09:43:00.000Z</time>
</trkpt>
<trkpt lat="57.092964" lon="8.733922">
<ele>6.358023</ele>
<time>2026-07-15T09:43:01.000Z</time>
</trkpt>
<trkpt lat="57.092945" lon="8.734018">
<ele>6.353398</ele>
<time>2026-07-15T09:43:02.000Z</time>
</trkpt>
<trkpt lat="57.092930" lon="8.734113">
<ele>6.348920</ele>
<time>2026-07-15T09:43:03.000Z</time>
</trkpt>
<trkpt lat="57.092914" lon="8.734207">
<ele>6.344462</ele>
<time>2026-07-15T09:43:04.000Z</time>
</trkpt>
<trkpt lat="57.092900" lon="8.734298">
<ele>6.340181</ele>
<time>2026-07-15T09:43:05.000Z</time>
</trkpt>
<trkpt lat="57.092884" lon="8.734396">
<ele>6.335549</ele>
<time>2026-07-15T09:43:06.000Z</time>
</trkpt>
<trkpt lat="57.092869" lon="8.734490">
<ele>6.331114</ele>
<time>2026-07-15T09:43:07.000Z</time>
</trkpt>
<trkpt lat="57.092853" lon="8.734581">
<ele>6.326784</ele>
<time>2026-07-15T09:43:08.000Z</time>
</trkpt>
<trkpt lat="57.092842" lon="8.734675">
<ele>6.322432</ele>
<time>2026-07-15T09:43:09.000Z</time>
</trkpt>
<trkpt lat="57.092827" lon="8.734770">
<ele>6.317954</ele>
<time>2026-07-15T09:43:10.000Z</time>
</trkpt>
<trkpt lat="57.092811" lon="8.734864">
<ele>6.313495</ele>
<time>2026-07-15T09:43:11.000Z</time>
</trkpt>
<trkpt lat="57.092792" lon="8.734958">
<ele>6.308955</ele>
<time>2026-07-15T09:43:12.000Z</time>
</trkpt>
<trkpt lat="57.092777" lon="8.735053">
<ele>6.304477</ele>
<time>2026-07-15T09:43:13.000Z</time>
</trkpt>
<trkpt lat="57.092762" lon="8.735146">
<ele>6.300086</ele>
<time>2026-07-15T09:43:14.000Z</time>
</trkpt>
<trkpt lat="57.092750" lon="8.735239">
<ele>6.295759</ele>
<time>2026-07-15T09:43:15.000Z</time>
</trkpt>
<trkpt lat="57.092735" lon="8.735330">
<ele>6.291455</ele>
<time>2026-07-15T09:43:16.000Z</time>
</trkpt>
<trkpt lat="57.092720" lon="8.735421">
<ele>6.287150</ele>
<time>2026-07-15T09:43:17.000Z</time>
</trkpt>
<trkpt lat="57.092708" lon="8.735511">
<ele>6.282955</ele>
<time>2026-07-15T09:43:18.000Z</time>
</trkpt>
<trkpt lat="57.092693" lon="8.735600">
<ele>6.278737</ele>
<time>2026-07-15T09:43:19.000Z</time>
</trkpt>
<trkpt lat="57.092682" lon="8.735691">
<ele>6.274517</ele>
<time>2026-07-15T09:43:20.000Z</time>
</trkpt>
<trkpt lat="57.092670" lon="8.735784">
<ele>6.270191</ele>
<time>2026-07-15T09:43:21.000Z</time>
</trkpt>
<trkpt lat="57.092655" lon="8.735877">
<ele>6.265799</ele>
<time>2026-07-15T09:43:22.000Z</time>
</trkpt>
<trkpt lat="57.092640" lon="8.735969">
<ele>6.262307</ele>
<time>2026-07-15T09:43:23.000Z</time>
</trkpt>
<trkpt lat="57.092628" lon="8.736062">
<ele>6.258832</ele>
<time>2026-07-15T09:43:24.000Z</time>
</trkpt>
<trkpt lat="57.092613" lon="8.736158">
<ele>6.255201</ele>
<time>2026-07-15T09:43:25.000Z</time>
</trkpt>
<trkpt lat="57.092602" lon="8.736249">
<ele>6.251812</ele>
<time>2026-07-15T09:43:26.000Z</time>
</trkpt>
<trkpt lat="57.092586" lon="8.736345">
<ele>6.248162</ele>
<time>2026-07-15T09:43:27.000Z</time>
</trkpt>
<trkpt lat="57.092571" lon="8.736441">
<ele>6.244531</ele>
<time>2026-07-15T09:43:28.000Z</time>
</trkpt>
<trkpt lat="57.092560" lon="8.736536">
<ele>6.241000</ele>
<time>2026-07-15T09:43:29.000Z</time>
</trkpt>
<trkpt lat="57.092544" lon="8.736633">
<ele>6.237315</ele>
<time>2026-07-15T09:43:30.000Z</time>
</trkpt>
<trkpt lat="57.092533" lon="8.736730">
<ele>6.233712</ele>
<time>2026-07-15T09:43:31.000Z</time>
</trkpt>
<trkpt lat="57.092518" lon="8.736827">
<ele>6.230046</ele>
<time>2026-07-15T09:43:32.000Z</time>
</trkpt>
<trkpt lat="57.092502" lon="8.736922">
<ele>6.226431</ele>
<time>2026-07-15T09:43:33.000Z</time>
</trkpt>
<trkpt lat="57.092491" lon="8.737019">
<ele>6.222829</ele>
<time>2026-07-15T09:43:34.000Z</time>
</trkpt>
<trkpt lat="57.092476" lon="8.737113">
<ele>6.219267</ele>
<time>2026-07-15T09:43:35.000Z</time>
</trkpt>
<trkpt lat="57.092460" lon="8.737208">
<ele>6.215652</ele>
<time>2026-07-15T09:43:36.000Z</time>
</trkpt>
<trkpt lat="57.092445" lon="8.737305">
<ele>6.211986</ele>
<time>2026-07-15T09:43:37.000Z</time>
</trkpt>
<trkpt lat="57.092434" lon="8.737399">
<ele>6.208490</ele>
<time>2026-07-15T09:43:38.000Z</time>
</trkpt>
<trkpt lat="57.092419" lon="8.737495">
<ele>6.204859</ele>
<time>2026-07-15T09:43:39.000Z</time>
</trkpt>
<trkpt lat="57.092403" lon="8.737593">
<ele>6.201139</ele>
<time>2026-07-15T09:43:40.000Z</time>
</trkpt>
<trkpt lat="57.092392" lon="8.737689">
<ele>6.197573</ele>
<time>2026-07-15T09:43:41.000Z</time>
</trkpt>
<trkpt lat="57.092376" lon="8.737788">
<ele>6.193818</ele>
<time>2026-07-15T09:43:42.000Z</time>
</trkpt>
<trkpt lat="57.092365" lon="8.737884">
<ele>6.190251</ele>
<time>2026-07-15T09:43:43.000Z</time>
</trkpt>
<trkpt lat="57.092350" lon="8.737985">
<ele>6.186445</ele>
<time>2026-07-15T09:43:44.000Z</time>
</trkpt>
<trkpt lat="57.092338" lon="8.738081">
<ele>6.182864</ele>
<time>2026-07-15T09:43:45.000Z</time>
</trkpt>
<trkpt lat="57.092323" lon="8.738180">
<ele>6.179128</ele>
<time>2026-07-15T09:43:46.000Z</time>
</trkpt>
<trkpt lat="57.092312" lon="8.738275">
<ele>6.175597</ele>
<time>2026-07-15T09:43:47.000Z</time>
</trkpt>
<trkpt lat="57.092300" lon="8.738373">
<ele>6.171945</ele>
<time>2026-07-15T09:43:48.000Z</time>
</trkpt>
<trkpt lat="57.092289" lon="8.738470">
<ele>6.168343</ele>
<time>2026-07-15T09:43:49.000Z</time>
</trkpt>
<trkpt lat="57.092277" lon="8.738568">
<ele>6.164691</ele>
<time>2026-07-15T09:43:50.000Z</time>
</trkpt>
<trkpt lat="57.092266" lon="8.738665">
<ele>6.161089</ele>
<time>2026-07-15T09:43:51.000Z</time>
</trkpt>
<trkpt lat="57.092258" lon="8.738766">
<ele>6.157379</ele>
<time>2026-07-15T09:43:52.000Z</time>
</trkpt>
<trkpt lat="57.092247" lon="8.738864">
<ele>6.153741</ele>
<time>2026-07-15T09:43:53.000Z</time>
</trkpt>
<trkpt lat="57.092235" lon="8.738963">
<ele>6.150054</ele>
<time>2026-07-15T09:43:54.000Z</time>
</trkpt>
<trkpt lat="57.092224" lon="8.739065">
<ele>6.146273</ele>
<time>2026-07-15T09:43:55.000Z</time>
</trkpt>
<trkpt lat="57.092213" lon="8.739167">
<ele>6.137644</ele>
<time>2026-07-15T09:43:56.000Z</time>
</trkpt>
<trkpt lat="57.092201" lon="8.739272">
<ele>6.127337</ele>
<time>2026-07-15T09:43:57.000Z</time>
</trkpt>
<trkpt lat="57.092190" lon="8.739374">
<ele>6.117349</ele>
<time>2026-07-15T09:43:58.000Z</time>
</trkpt>
<trkpt lat="57.092178" lon="8.739478">
<ele>6.107136</ele>
<time>2026-07-15T09:43:59.000Z</time>
</trkpt>
<trkpt lat="57.092167" lon="8.739581">
<ele>6.097053</ele>
<time>2026-07-15T09:44:00.000Z</time>
</trkpt>
<trkpt lat="57.092159" lon="8.739683">
<ele>6.087154</ele>
<time>2026-07-15T09:44:01.000Z</time>
</trkpt>
<trkpt lat="57.092148" lon="8.739786">
<ele>6.077072</ele>
<time>2026-07-15T09:44:02.000Z</time>
</trkpt>
<trkpt lat="57.092136" lon="8.739886">
<ele>6.067235</ele>
<time>2026-07-15T09:44:03.000Z</time>
</trkpt>
<trkpt lat="57.092125" lon="8.739990">
<ele>6.057058</ele>
<time>2026-07-15T09:44:04.000Z</time>
</trkpt>
<trkpt lat="57.092113" lon="8.740091">
<ele>6.047127</ele>
<time>2026-07-15T09:44:05.000Z</time>
</trkpt>
<trkpt lat="57.092098" lon="8.740193">
<ele>6.036977</ele>
<time>2026-07-15T09:44:06.000Z</time>
</trkpt>
<trkpt lat="57.092087" lon="8.740295">
<ele>6.026988</ele>
<time>2026-07-15T09:44:07.000Z</time>
</trkpt>
<trkpt lat="57.092071" lon="8.740396">
<ele>6.016883</ele>
<time>2026-07-15T09:44:08.000Z</time>
</trkpt>
<trkpt lat="57.092060" lon="8.740496">
<ele>6.007082</ele>
<time>2026-07-15T09:44:09.000Z</time>
</trkpt>
<trkpt lat="57.092048" lon="8.740597">
<ele>5.997152</ele>
<time>2026-07-15T09:44:10.000Z</time>
</trkpt>
<trkpt lat="57.092037" lon="8.740697">
<ele>5.987351</ele>
<time>2026-07-15T09:44:11.000Z</time>
</trkpt>
<trkpt lat="57.092026" lon="8.740799">
<ele>5.977363</ele>
<time>2026-07-15T09:44:12.000Z</time>
</trkpt>
<trkpt lat="57.092010" lon="8.740901">
<ele>5.967165</ele>
<time>2026-07-15T09:44:13.000Z</time>
</trkpt>
<trkpt lat="57.091999" lon="8.740999">
<ele>5.957553</ele>
<time>2026-07-15T09:44:14.000Z</time>
</trkpt>
<trkpt lat="57.091988" lon="8.741097">
<ele>5.947941</ele>
<time>2026-07-15T09:44:15.000Z</time>
</trkpt>
<trkpt lat="57.091980" lon="8.741195">
<ele>5.938422</ele>
<time>2026-07-15T09:44:16.000Z</time>
</trkpt>
<trkpt lat="57.091968" lon="8.741293">
<ele>5.928773</ele>
<time>2026-07-15T09:44:17.000Z</time>
</trkpt>
<trkpt lat="57.091953" lon="8.741389">
<ele>5.919178</ele>
<time>2026-07-15T09:44:18.000Z</time>
</trkpt>
<trkpt lat="57.091938" lon="8.741487">
<ele>5.909398</ele>
<time>2026-07-15T09:44:19.000Z</time>
</trkpt>
<trkpt lat="57.091926" lon="8.741583">
<ele>5.899936</ele>
<time>2026-07-15T09:44:20.000Z</time>
</trkpt>
<trkpt lat="57.091911" lon="8.741681">
<ele>5.890156</ele>
<time>2026-07-15T09:44:21.000Z</time>
</trkpt>
<trkpt lat="57.091896" lon="8.741778">
<ele>5.880469</ele>
<time>2026-07-15T09:44:22.000Z</time>
</trkpt>
<trkpt lat="57.091881" lon="8.741873">
<ele>5.870966</ele>
<time>2026-07-15T09:44:23.000Z</time>
</trkpt>
<trkpt lat="57.091865" lon="8.741967">
<ele>5.861504</ele>
<time>2026-07-15T09:44:24.000Z</time>
</trkpt>
<trkpt lat="57.091854" lon="8.742061">
<ele>5.852268</ele>
<time>2026-07-15T09:44:25.000Z</time>
</trkpt>
<trkpt lat="57.091835" lon="8.742153">
<ele>5.842814</ele>
<time>2026-07-15T09:44:26.000Z</time>
</trkpt>
<trkpt lat="57.091819" lon="8.742246">
<ele>5.833444</ele>
<time>2026-07-15T09:44:27.000Z</time>
</trkpt>
<trkpt lat="57.091804" lon="8.742337">
<ele>5.825862</ele>
<time>2026-07-15T09:44:28.000Z</time>
</trkpt>
<trkpt lat="57.091789" lon="8.742428">
<ele>5.821250</ele>
<time>2026-07-15T09:44:29.000Z</time>
</trkpt>
<trkpt lat="57.091770" lon="8.742520">
<ele>5.816477</ele>
<time>2026-07-15T09:44:30.000Z</time>
</trkpt>
<trkpt lat="57.091755" lon="8.742615">
<ele>5.811679</ele>
<time>2026-07-15T09:44:31.000Z</time>
</trkpt>
<trkpt lat="57.091739" lon="8.742708">
<ele>5.806948</ele>
<time>2026-07-15T09:44:32.000Z</time>
</trkpt>
<trkpt lat="57.091720" lon="8.742803">
<ele>5.802039</ele>
<time>2026-07-15T09:44:33.000Z</time>
</trkpt>
<trkpt lat="57.091701" lon="8.742900">
<ele>5.797038</ele>
<time>2026-07-15T09:44:34.000Z</time>
</trkpt>
<trkpt lat="57.091686" lon="8.742995">
<ele>5.792241</ele>
<time>2026-07-15T09:44:35.000Z</time>
</trkpt>
<trkpt lat="57.091671" lon="8.743088">
<ele>5.787536</ele>
<time>2026-07-15T09:44:36.000Z</time>
</trkpt>
<trkpt lat="57.091652" lon="8.743182">
<ele>5.782672</ele>
<time>2026-07-15T09:44:37.000Z</time>
</trkpt>
<trkpt lat="57.091636" lon="8.743275">
<ele>5.777941</ele>
<time>2026-07-15T09:44:38.000Z</time>
</trkpt>
<trkpt lat="57.091621" lon="8.743369">
<ele>5.773190</ele>
<time>2026-07-15T09:44:39.000Z</time>
</trkpt>
<trkpt lat="57.091602" lon="8.743465">
<ele>5.768235</ele>
<time>2026-07-15T09:44:40.000Z</time>
</trkpt>
<trkpt lat="57.091583" lon="8.743559">
<ele>5.763371</ele>
<time>2026-07-15T09:44:41.000Z</time>
</trkpt>
<trkpt lat="57.091571" lon="8.743657">
<ele>5.758499</ele>
<time>2026-07-15T09:44:42.000Z</time>
</trkpt>
<trkpt lat="57.091552" lon="8.743751">
<ele>5.753635</ele>
<time>2026-07-15T09:44:43.000Z</time>
</trkpt>
<trkpt lat="57.091538" lon="8.743842">
<ele>5.749048</ele>
<time>2026-07-15T09:44:44.000Z</time>
</trkpt>
<trkpt lat="57.091518" lon="8.743938">
<ele>5.744062</ele>
<time>2026-07-15T09:44:45.000Z</time>
</trkpt>
<trkpt lat="57.091503" lon="8.744030">
<ele>5.739403</ele>
<time>2026-07-15T09:44:46.000Z</time>
</trkpt>
<trkpt lat="57.091488" lon="8.744120">
<ele>5.734838</ele>
<time>2026-07-15T09:44:47.000Z</time>
</trkpt>
<trkpt lat="57.091468" lon="8.744212">
<ele>5.730032</ele>
<time>2026-07-15T09:44:48.000Z</time>
</trkpt>
<trkpt lat="57.091449" lon="8.744304">
<ele>5.725259</ele>
<time>2026-07-15T09:44:49.000Z</time>
</trkpt>
<trkpt lat="57.091426" lon="8.744395">
<ele>5.720391</ele>
<time>2026-07-15T09:44:50.000Z</time>
</trkpt>
<trkpt lat="57.091407" lon="8.744486">
<ele>5.715663</ele>
<time>2026-07-15T09:44:51.000Z</time>
</trkpt>
<trkpt lat="57.091385" lon="8.744578">
<ele>5.710789</ele>
<time>2026-07-15T09:44:52.000Z</time>
</trkpt>
<trkpt lat="57.091366" lon="8.744671">
<ele>5.705970</ele>
<time>2026-07-15T09:44:53.000Z</time>
</trkpt>
<trkpt lat="57.091346" lon="8.744765">
<ele>5.701074</ele>
<time>2026-07-15T09:44:54.000Z</time>
</trkpt>
<trkpt lat="57.091324" lon="8.744856">
<ele>5.696244</ele>
<time>2026-07-15T09:44:55.000Z</time>
</trkpt>
<trkpt lat="57.091305" lon="8.744946">
<ele>5.691561</ele>
<time>2026-07-15T09:44:56.000Z</time>
</trkpt>
<trkpt lat="57.091285" lon="8.745035">
<ele>5.686890</ele>
<time>2026-07-15T09:44:57.000Z</time>
</trkpt>
<trkpt lat="57.091262" lon="8.745124">
<ele>5.682110</ele>
<time>2026-07-15T09:44:58.000Z</time>
</trkpt>
<trkpt lat="57.091240" lon="8.745212">
<ele>5.677412</ele>
<time>2026-07-15T09:44:59.000Z</time>
</trkpt>
<trkpt lat="57.091221" lon="8.745300">
<ele>5.672820</ele>
<time>2026-07-15T09:45:00.000Z</time>
</trkpt>
<trkpt lat="57.091198" lon="8.745389">
<ele>5.668040</ele>
<time>2026-07-15T09:45:01.000Z</time>
</trkpt>
<trkpt lat="57.091175" lon="8.745478">
<ele>5.664517</ele>
<time>2026-07-15T09:45:02.000Z</time>
</trkpt>
<trkpt lat="57.091148" lon="8.745567">
<ele>5.661284</ele>
<time>2026-07-15T09:45:03.000Z</time>
</trkpt>
<trkpt lat="57.091125" lon="8.745655">
<ele>5.658186</ele>
<time>2026-07-15T09:45:04.000Z</time>
</trkpt>
<trkpt lat="57.091102" lon="8.745741">
<ele>5.655146</ele>
<time>2026-07-15T09:45:05.000Z</time>
</trkpt>
<trkpt lat="57.091079" lon="8.745828">
<ele>5.652077</ele>
<time>2026-07-15T09:45:06.000Z</time>
</trkpt>
<trkpt lat="57.091057" lon="8.745911">
<ele>5.649148</ele>
<time>2026-07-15T09:45:07.000Z</time>
</trkpt>
<trkpt lat="57.091037" lon="8.745996">
<ele>5.646210</ele>
<time>2026-07-15T09:45:08.000Z</time>
</trkpt>
<trkpt lat="57.091015" lon="8.746082">
<ele>5.643195</ele>
<time>2026-07-15T09:45:09.000Z</time>
</trkpt>
<trkpt lat="57.091004" lon="8.746168">
<ele>5.640393</ele>
<time>2026-07-15T09:45:10.000Z</time>
</trkpt>
<trkpt lat="57.090996" lon="8.746259">
<ele>5.637469</ele>
<time>2026-07-15T09:45:11.000Z</time>
</trkpt>
<trkpt lat="57.090996" lon="8.746350">
<ele>5.634583</ele>
<time>2026-07-15T09:45:12.000Z</time>
</trkpt>
<trkpt lat="57.091004" lon="8.746436">
<ele>5.631815</ele>
<time>2026-07-15T09:45:13.000Z</time>
</trkpt>
<trkpt lat="57.091027" lon="8.746519">
<ele>5.628860</ele>
<time>2026-07-15T09:45:14.000Z</time>
</trkpt>
<trkpt lat="57.091054" lon="8.746600">
<ele>5.625846</ele>
<time>2026-07-15T09:45:15.000Z</time>
</trkpt>
<trkpt lat="57.091084" lon="8.746675">
<ele>5.622892</ele>
<time>2026-07-15T09:45:16.000Z</time>
</trkpt>
<trkpt lat="57.091107" lon="8.746755">
<ele>5.620021</ele>
<time>2026-07-15T09:45:17.000Z</time>
</trkpt>
<trkpt lat="57.091130" lon="8.746840">
<ele>5.617009</ele>
<time>2026-07-15T09:45:18.000Z</time>
</trkpt>
<trkpt lat="57.091141" lon="8.746929">
<ele>5.614114</ele>
<time>2026-07-15T09:45:19.000Z</time>
</trkpt>
<trkpt lat="57.091144" lon="8.747023">
<ele>5.611128</ele>
<time>2026-07-15T09:45:20.000Z</time>
</trkpt>
<trkpt lat="57.091133" lon="8.747115">
<ele>5.608140</ele>
<time>2026-07-15T09:45:21.000Z</time>
</trkpt>
<trkpt lat="57.091118" lon="8.747206">
<ele>5.605124</ele>
<time>2026-07-15T09:45:22.000Z</time>
</trkpt>
<trkpt lat="57.091099" lon="8.747293">
<ele>5.602150</ele>
<time>2026-07-15T09:45:23.000Z</time>
</trkpt>
<trkpt lat="57.091076" lon="8.747378">
<ele>5.599138</ele>
<time>2026-07-15T09:45:24.000Z</time>
</trkpt>
<trkpt lat="57.091053" lon="8.747463">
<ele>5.596126</ele>
<time>2026-07-15T09:45:25.000Z</time>
</trkpt>
<trkpt lat="57.091030" lon="8.747547">
<ele>5.593143</ele>
<time>2026-07-15T09:45:26.000Z</time>
</trkpt>
<trkpt lat="57.091004" lon="8.747625">
<ele>5.590240</ele>
<time>2026-07-15T09:45:27.000Z</time>
</trkpt>
<trkpt lat="57.090980" lon="8.747715">
<ele>5.587060</ele>
<time>2026-07-15T09:45:28.000Z</time>
</trkpt>
<trkpt lat="57.090961" lon="8.747799">
<ele>5.584174</ele>
<time>2026-07-15T09:45:29.000Z</time>
</trkpt>
<trkpt lat="57.090938" lon="8.747888">
<ele>5.581048</ele>
<time>2026-07-15T09:45:30.000Z</time>
</trkpt>
<trkpt lat="57.090919" lon="8.747977">
<ele>5.578015</ele>
<time>2026-07-15T09:45:31.000Z</time>
</trkpt>
<trkpt lat="57.090896" lon="8.748065">
<ele>5.574918</ele>
<time>2026-07-15T09:45:32.000Z</time>
</trkpt>
<trkpt lat="57.090881" lon="8.748155">
<ele>5.571932</ele>
<time>2026-07-15T09:45:33.000Z</time>
</trkpt>
<trkpt lat="57.090866" lon="8.748246">
<ele>5.568916</ele>
<time>2026-07-15T09:45:34.000Z</time>
</trkpt>
<trkpt lat="57.090851" lon="8.748335">
<ele>5.565960</ele>
<time>2026-07-15T09:45:35.000Z</time>
</trkpt>
<trkpt lat="57.090839" lon="8.748429">
<ele>5.562898</ele>
<time>2026-07-15T09:45:36.000Z</time>
</trkpt>
<trkpt lat="57.090824" lon="8.748524">
<ele>5.557904</ele>
<time>2026-07-15T09:45:37.000Z</time>
</trkpt>
<trkpt lat="57.090805" lon="8.748618">
<ele>5.551951</ele>
<time>2026-07-15T09:45:38.000Z</time>
</trkpt>
<trkpt lat="57.090789" lon="8.748711">
<ele>5.546160</ele>
<time>2026-07-15T09:45:39.000Z</time>
</trkpt>
<trkpt lat="57.090767" lon="8.748802">
<ele>5.540247</ele>
<time>2026-07-15T09:45:40.000Z</time>
</trkpt>
<trkpt lat="57.090744" lon="8.748891">
<ele>5.534396</ele>
<time>2026-07-15T09:45:41.000Z</time>
</trkpt>
<trkpt lat="57.090717" lon="8.748980">
<ele>5.528345</ele>
<time>2026-07-15T09:45:42.000Z</time>
</trkpt>
<trkpt lat="57.090690" lon="8.749065">
<ele>5.522500</ele>
<time>2026-07-15T09:45:43.000Z</time>
</trkpt>
<trkpt lat="57.090660" lon="8.749148">
<ele>5.516582</ele>
<time>2026-07-15T09:45:44.000Z</time>
</trkpt>
<trkpt lat="57.090633" lon="8.749232">
<ele>5.510788</ele>
<time>2026-07-15T09:45:45.000Z</time>
</trkpt>
<trkpt lat="57.090606" lon="8.749315">
<ele>5.505045</ele>
<time>2026-07-15T09:45:46.000Z</time>
</trkpt>
<trkpt lat="57.090584" lon="8.749396">
<ele>5.499670</ele>
<time>2026-07-15T09:45:47.000Z</time>
</trkpt>
<trkpt lat="57.090561" lon="8.749483">
<ele>5.493926</ele>
<time>2026-07-15T09:45:48.000Z</time>
</trkpt>
<trkpt lat="57.090542" lon="8.749569">
<ele>5.488415</ele>
<time>2026-07-15T09:45:49.000Z</time>
</trkpt>
<trkpt lat="57.090526" lon="8.749660">
<ele>5.482737</ele>
<time>2026-07-15T09:45:50.000Z</time>
</trkpt>
<trkpt lat="57.090519" lon="8.749752">
<ele>5.477222</ele>
<time>2026-07-15T09:45:51.000Z</time>
</trkpt>
<trkpt lat="57.090519" lon="8.749844">
<ele>5.471760</ele>
<time>2026-07-15T09:45:52.000Z</time>
</trkpt>
<trkpt lat="57.090515" lon="8.749931">
<ele>5.466577</ele>
<time>2026-07-15T09:45:53.000Z</time>
</trkpt>
<trkpt lat="57.090508" lon="8.750024">
<ele>5.461004</ele>
<time>2026-07-15T09:45:54.000Z</time>
</trkpt>
<trkpt lat="57.090496" lon="8.750115">
<ele>5.455445</ele>
<time>2026-07-15T09:45:55.000Z</time>
</trkpt>
<trkpt lat="57.090477" lon="8.750205">
<ele>5.449713</ele>
<time>2026-07-15T09:45:56.000Z</time>
</trkpt>
<trkpt lat="57.090461" lon="8.750300">
<ele>5.443808</ele>
<time>2026-07-15T09:45:57.000Z</time>
</trkpt>
<trkpt lat="57.090438" lon="8.750395">
<ele>5.437634</ele>
<time>2026-07-15T09:45:58.000Z</time>
</trkpt>
<trkpt lat="57.090417" lon="8.750486">
<ele>5.431765</ele>
<time>2026-07-15T09:45:59.000Z</time>
</trkpt>
<trkpt lat="57.090397" lon="8.750582">
<ele>5.425661</ele>
<time>2026-07-15T09:46:00.000Z</time>
</trkpt>
<trkpt lat="57.090382" lon="8.750674">
<ele>5.419959</ele>
<time>2026-07-15T09:46:01.000Z</time>
</trkpt>
<trkpt lat="57.090358" lon="8.750770">
<ele>5.413686</ele>
<time>2026-07-15T09:46:02.000Z</time>
</trkpt>
<trkpt lat="57.090336" lon="8.750868">
<ele>5.407391</ele>
<time>2026-07-15T09:46:03.000Z</time>
</trkpt>
<trkpt lat="57.090313" lon="8.750969">
<ele>5.400890</ele>
<time>2026-07-15T09:46:04.000Z</time>
</trkpt>
<trkpt lat="57.090290" lon="8.751069">
<ele>5.394444</ele>
<time>2026-07-15T09:46:05.000Z</time>
</trkpt>
<trkpt lat="57.090267" lon="8.751174">
<ele>5.387723</ele>
<time>2026-07-15T09:46:06.000Z</time>
</trkpt>
<trkpt lat="57.090240" lon="8.751276">
<ele>5.380987</ele>
<time>2026-07-15T09:46:07.000Z</time>
</trkpt>
<trkpt lat="57.090213" lon="8.751383">
<ele>5.373984</ele>
<time>2026-07-15T09:46:08.000Z</time>
</trkpt>
<trkpt lat="57.090187" lon="8.751485">
<ele>5.367295</ele>
<time>2026-07-15T09:46:09.000Z</time>
</trkpt>
<trkpt lat="57.090164" lon="8.751589">
<ele>5.362388</ele>
<time>2026-07-15T09:46:10.000Z</time>
</trkpt>
<trkpt lat="57.090137" lon="8.751693">
<ele>5.358088</ele>
<time>2026-07-15T09:46:11.000Z</time>
</trkpt>
<trkpt lat="57.090114" lon="8.751796">
<ele>5.353934</ele>
<time>2026-07-15T09:46:12.000Z</time>
</trkpt>
<trkpt lat="57.090092" lon="8.751898">
<ele>5.349840</ele>
<time>2026-07-15T09:46:13.000Z</time>
</trkpt>
<trkpt lat="57.090068" lon="8.752004">
<ele>5.345556</ele>
<time>2026-07-15T09:46:14.000Z</time>
</trkpt>
<trkpt lat="57.090042" lon="8.752106">
<ele>5.341353</ele>
<time>2026-07-15T09:46:15.000Z</time>
</trkpt>
<trkpt lat="57.090019" lon="8.752210">
<ele>5.337164</ele>
<time>2026-07-15T09:46:16.000Z</time>
</trkpt>
<trkpt lat="57.089992" lon="8.752316">
<ele>5.332796</ele>
<time>2026-07-15T09:46:17.000Z</time>
</trkpt>
<trkpt lat="57.089969" lon="8.752422">
<ele>5.328538</ele>
<time>2026-07-15T09:46:18.000Z</time>
</trkpt>
<trkpt lat="57.089947" lon="8.752528">
<ele>5.324305</ele>
<time>2026-07-15T09:46:19.000Z</time>
</trkpt>
<trkpt lat="57.089920" lon="8.752637">
<ele>5.319836</ele>
<time>2026-07-15T09:46:20.000Z</time>
</trkpt>
<trkpt lat="57.089897" lon="8.752742">
<ele>5.315612</ele>
<time>2026-07-15T09:46:21.000Z</time>
</trkpt>
<trkpt lat="57.089870" lon="8.752850">
<ele>5.311177</ele>
<time>2026-07-15T09:46:22.000Z</time>
</trkpt>
<trkpt lat="57.089851" lon="8.752957">
<ele>5.306978</ele>
<time>2026-07-15T09:46:23.000Z</time>
</trkpt>
<trkpt lat="57.089828" lon="8.753066">
<ele>5.302615</ele>
<time>2026-07-15T09:46:24.000Z</time>
</trkpt>
<trkpt lat="57.089809" lon="8.753171">
<ele>5.298487</ele>
<time>2026-07-15T09:46:25.000Z</time>
</trkpt>
<trkpt lat="57.089786" lon="8.753275">
<ele>5.294298</ele>
<time>2026-07-15T09:46:26.000Z</time>
</trkpt>
<trkpt lat="57.089763" lon="8.753379">
<ele>5.290109</ele>
<time>2026-07-15T09:46:27.000Z</time>
</trkpt>
<trkpt lat="57.089744" lon="8.753486">
<ele>5.285909</ele>
<time>2026-07-15T09:46:28.000Z</time>
</trkpt>
<trkpt lat="57.089722" lon="8.753591">
<ele>5.281711</ele>
<time>2026-07-15T09:46:29.000Z</time>
</trkpt>
<trkpt lat="57.089702" lon="8.753700">
<ele>5.277419</ele>
<time>2026-07-15T09:46:30.000Z</time>
</trkpt>
<trkpt lat="57.089680" lon="8.753806">
<ele>5.273186</ele>
<time>2026-07-15T09:46:31.000Z</time>
</trkpt>
<trkpt lat="57.089656" lon="8.753914">
<ele>5.268833</ele>
<time>2026-07-15T09:46:32.000Z</time>
</trkpt>
<trkpt lat="57.089634" lon="8.754020">
<ele>5.264599</ele>
<time>2026-07-15T09:46:33.000Z</time>
</trkpt>
<trkpt lat="57.089614" lon="8.754130">
<ele>5.260272</ele>
<time>2026-07-15T09:46:34.000Z</time>
</trkpt>
<trkpt lat="57.089588" lon="8.754239">
<ele>5.255831</ele>
<time>2026-07-15T09:46:35.000Z</time>
</trkpt>
<trkpt lat="57.089566" lon="8.754345">
<ele>5.251598</ele>
<time>2026-07-15T09:46:36.000Z</time>
</trkpt>
<trkpt lat="57.089546" lon="8.754459">
<ele>5.247129</ele>
<time>2026-07-15T09:46:37.000Z</time>
</trkpt>
<trkpt lat="57.089523" lon="8.754569">
<ele>5.242731</ele>
<time>2026-07-15T09:46:38.000Z</time>
</trkpt>
<trkpt lat="57.089500" lon="8.754677">
<ele>5.245277</ele>
<time>2026-07-15T09:46:39.000Z</time>
</trkpt>
<trkpt lat="57.089477" lon="8.754783">
<ele>5.249480</ele>
<time>2026-07-15T09:46:40.000Z</time>
</trkpt>
<trkpt lat="57.089458" lon="8.754889">
<ele>5.253590</ele>
<time>2026-07-15T09:46:41.000Z</time>
</trkpt>
<trkpt lat="57.089436" lon="8.754997">
<ele>5.257838</ele>
<time>2026-07-15T09:46:42.000Z</time>
</trkpt>
<trkpt lat="57.089416" lon="8.755106">
<ele>5.262074</ele>
<time>2026-07-15T09:46:43.000Z</time>
</trkpt>
<trkpt lat="57.089393" lon="8.755214">
<ele>5.266346</ele>
<time>2026-07-15T09:46:44.000Z</time>
</trkpt>
<trkpt lat="57.089370" lon="8.755321">
<ele>5.270583</ele>
<time>2026-07-15T09:46:45.000Z</time>
</trkpt>
<trkpt lat="57.089351" lon="8.755428">
<ele>5.274729</ele>
<time>2026-07-15T09:46:46.000Z</time>
</trkpt>
<trkpt lat="57.089329" lon="8.755534">
<ele>5.278907</ele>
<time>2026-07-15T09:46:47.000Z</time>
</trkpt>
<trkpt lat="57.089306" lon="8.755639">
<ele>5.283076</ele>
<time>2026-07-15T09:46:48.000Z</time>
</trkpt>
<trkpt lat="57.089287" lon="8.755746">
<ele>5.287222</ele>
<time>2026-07-15T09:46:49.000Z</time>
</trkpt>
<trkpt lat="57.089264" lon="8.755858">
<ele>5.291631</ele>
<time>2026-07-15T09:46:50.000Z</time>
</trkpt>
<trkpt lat="57.089237" lon="8.755968">
<ele>5.296076</ele>
<time>2026-07-15T09:46:51.000Z</time>
</trkpt>
<trkpt lat="57.089214" lon="8.756077">
<ele>5.300382</ele>
<time>2026-07-15T09:46:52.000Z</time>
</trkpt>
<trkpt lat="57.089191" lon="8.756185">
<ele>5.304654</ele>
<time>2026-07-15T09:46:53.000Z</time>
</trkpt>
<trkpt lat="57.089176" lon="8.756297">
<ele>5.308901</ele>
<time>2026-07-15T09:46:54.000Z</time>
</trkpt>
<trkpt lat="57.089153" lon="8.756403">
<ele>5.313105</ele>
<time>2026-07-15T09:46:55.000Z</time>
</trkpt>
<trkpt lat="57.089126" lon="8.756512">
<ele>5.317516</ele>
<time>2026-07-15T09:46:56.000Z</time>
</trkpt>
<trkpt lat="57.089107" lon="8.756620">
<ele>5.321697</ele>
<time>2026-07-15T09:46:57.000Z</time>
</trkpt>
<trkpt lat="57.089088" lon="8.756728">
<ele>5.325877</ele>
<time>2026-07-15T09:46:58.000Z</time>
</trkpt>
<trkpt lat="57.089070" lon="8.756833">
<ele>5.329931</ele>
<time>2026-07-15T09:46:59.000Z</time>
</trkpt>
<trkpt lat="57.089050" lon="8.756946">
<ele>5.334308</ele>
<time>2026-07-15T09:47:00.000Z</time>
</trkpt>
<trkpt lat="57.089031" lon="8.757053">
<ele>5.338453</ele>
<time>2026-07-15T09:47:01.000Z</time>
</trkpt>
<trkpt lat="57.089012" lon="8.757162">
<ele>5.342669</ele>
<time>2026-07-15T09:47:02.000Z</time>
</trkpt>
<trkpt lat="57.088997" lon="8.757272">
<ele>5.346845</ele>
<time>2026-07-15T09:47:03.000Z</time>
</trkpt>
<trkpt lat="57.088978" lon="8.757381">
<ele>5.351061</ele>
<time>2026-07-15T09:47:04.000Z</time>
</trkpt>
<trkpt lat="57.088962" lon="8.757494">
<ele>5.355361</ele>
<time>2026-07-15T09:47:05.000Z</time>
</trkpt>
<trkpt lat="57.088943" lon="8.757606">
<ele>5.359682</ele>
<time>2026-07-15T09:47:06.000Z</time>
</trkpt>
<trkpt lat="57.088928" lon="8.757718">
<ele>5.362964</ele>
<time>2026-07-15T09:47:07.000Z</time>
</trkpt>
<trkpt lat="57.088913" lon="8.757830">
<ele>5.341789</ele>
<time>2026-07-15T09:47:08.000Z</time>
</trkpt>
<trkpt lat="57.088894" lon="8.757942">
<ele>5.320250</ele>
<time>2026-07-15T09:47:09.000Z</time>
</trkpt>
<trkpt lat="57.088878" lon="8.758053">
<ele>5.299168</ele>
<time>2026-07-15T09:47:10.000Z</time>
</trkpt>
<trkpt lat="57.088863" lon="8.758167">
<ele>5.277636</ele>
<time>2026-07-15T09:47:11.000Z</time>
</trkpt>
<trkpt lat="57.088844" lon="8.758282">
<ele>5.255571</ele>
<time>2026-07-15T09:47:12.000Z</time>
</trkpt>
<trkpt lat="57.088829" lon="8.758396">
<ele>5.234038</ele>
<time>2026-07-15T09:47:13.000Z</time>
</trkpt>
<trkpt lat="57.088814" lon="8.758506">
<ele>5.213219</ele>
<time>2026-07-15T09:47:14.000Z</time>
</trkpt>
<trkpt lat="57.088798" lon="8.758625">
<ele>5.190715</ele>
<time>2026-07-15T09:47:15.000Z</time>
</trkpt>
<trkpt lat="57.088779" lon="8.758739">
<ele>5.168825</ele>
<time>2026-07-15T09:47:16.000Z</time>
</trkpt>
<trkpt lat="57.088760" lon="8.758855">
<ele>5.146584</ele>
<time>2026-07-15T09:47:17.000Z</time>
</trkpt>
<trkpt lat="57.088741" lon="8.758967">
<ele>5.125045</ele>
<time>2026-07-15T09:47:18.000Z</time>
</trkpt>
<trkpt lat="57.088723" lon="8.759078">
<ele>5.103780</ele>
<time>2026-07-15T09:47:19.000Z</time>
</trkpt>
<trkpt lat="57.088703" lon="8.759199">
<ele>5.080562</ele>
<time>2026-07-15T09:47:20.000Z</time>
</trkpt>
<trkpt lat="57.088684" lon="8.759312">
<ele>5.058848</ele>
<time>2026-07-15T09:47:21.000Z</time>
</trkpt>
<trkpt lat="57.088665" lon="8.759425">
<ele>5.037134</ele>
<time>2026-07-15T09:47:22.000Z</time>
</trkpt>
<trkpt lat="57.088650" lon="8.759538">
<ele>5.015780</ele>
<time>2026-07-15T09:47:23.000Z</time>
</trkpt>
<trkpt lat="57.088631" lon="8.759653">
<ele>4.993714</ele>
<time>2026-07-15T09:47:24.000Z</time>
</trkpt>
<trkpt lat="57.088615" lon="8.759765">
<ele>4.972455</ele>
<time>2026-07-15T09:47:25.000Z</time>
</trkpt>
<trkpt lat="57.088600" lon="8.759879">
<ele>4.950923</ele>
<time>2026-07-15T09:47:26.000Z</time>
</trkpt>
<trkpt lat="57.088581" lon="8.759994">
<ele>4.928857</ele>
<time>2026-07-15T09:47:27.000Z</time>
</trkpt>
<trkpt lat="57.088562" lon="8.760107">
<ele>4.907143</ele>
<time>2026-07-15T09:47:28.000Z</time>
</trkpt>
<trkpt lat="57.088547" lon="8.760222">
<ele>4.885432</ele>
<time>2026-07-15T09:47:29.000Z</time>
</trkpt>
<trkpt lat="57.088528" lon="8.760340">
<ele>4.862839</ele>
<time>2026-07-15T09:47:30.000Z</time>
</trkpt>
<trkpt lat="57.088505" lon="8.760456">
<ele>4.840170</ele>
<time>2026-07-15T09:47:31.000Z</time>
</trkpt>
<trkpt lat="57.088486" lon="8.760567">
<ele>4.818806</ele>
<time>2026-07-15T09:47:32.000Z</time>
</trkpt>
<trkpt lat="57.088463" lon="8.760673">
<ele>4.797853</ele>
<time>2026-07-15T09:47:33.000Z</time>
</trkpt>
<trkpt lat="57.088436" lon="8.760781">
<ele>4.776029</ele>
<time>2026-07-15T09:47:34.000Z</time>
</trkpt>
<trkpt lat="57.088413" lon="8.760886">
<ele>4.756184</ele>
<time>2026-07-15T09:47:35.000Z</time>
</trkpt>
<trkpt lat="57.088391" lon="8.760991">
<ele>4.758909</ele>
<time>2026-07-15T09:47:36.000Z</time>
</trkpt>
<trkpt lat="57.088375" lon="8.761098">
<ele>4.761596</ele>
<time>2026-07-15T09:47:37.000Z</time>
</trkpt>
<trkpt lat="57.088360" lon="8.761208">
<ele>4.764341</ele>
<time>2026-07-15T09:47:38.000Z</time>
</trkpt>
<trkpt lat="57.088356" lon="8.761314">
<ele>4.766914</ele>
<time>2026-07-15T09:47:39.000Z</time>
</trkpt>
<trkpt lat="57.088352" lon="8.761421">
<ele>4.769510</ele>
<time>2026-07-15T09:47:40.000Z</time>
</trkpt>
<trkpt lat="57.088356" lon="8.761527">
<ele>4.772083</ele>
<time>2026-07-15T09:47:41.000Z</time>
</trkpt>
<trkpt lat="57.088360" lon="8.761636">
<ele>4.774728</ele>
<time>2026-07-15T09:47:42.000Z</time>
</trkpt>
<trkpt lat="57.088367" lon="8.761735">
<ele>4.777145</ele>
<time>2026-07-15T09:47:43.000Z</time>
</trkpt>
<trkpt lat="57.088352" lon="8.761838">
<ele>4.779726</ele>
<time>2026-07-15T09:47:44.000Z</time>
</trkpt>
<trkpt lat="57.088337" lon="8.761937">
<ele>4.782214</ele>
<time>2026-07-15T09:47:45.000Z</time>
</trkpt>
<trkpt lat="57.088322" lon="8.762032">
<ele>4.784609</ele>
<time>2026-07-15T09:47:46.000Z</time>
</trkpt>
<trkpt lat="57.088295" lon="8.762123">
<ele>4.787120</ele>
<time>2026-07-15T09:47:47.000Z</time>
</trkpt>
<trkpt lat="57.088268" lon="8.762221">
<ele>4.789780</ele>
<time>2026-07-15T09:47:48.000Z</time>
</trkpt>
<trkpt lat="57.088243" lon="8.762315">
<ele>4.792313</ele>
<time>2026-07-15T09:47:49.000Z</time>
</trkpt>
<trkpt lat="57.088215" lon="8.762415">
<ele>4.795037</ele>
<time>2026-07-15T09:47:50.000Z</time>
</trkpt>
<trkpt lat="57.088188" lon="8.762515">
<ele>4.797740</ele>
<time>2026-07-15T09:47:51.000Z</time>
</trkpt>
<trkpt lat="57.088161" lon="8.762616">
<ele>4.800466</ele>
<time>2026-07-15T09:47:52.000Z</time>
</trkpt>
<trkpt lat="57.088139" lon="8.762716">
<ele>4.803077</ele>
<time>2026-07-15T09:47:53.000Z</time>
</trkpt>
<trkpt lat="57.088123" lon="8.762817">
<ele>4.805624</ele>
<time>2026-07-15T09:47:54.000Z</time>
</trkpt>
<trkpt lat="57.088108" lon="8.762921">
<ele>4.808229</ele>
<time>2026-07-15T09:47:55.000Z</time>
</trkpt>
<trkpt lat="57.088097" lon="8.763024">
<ele>4.810771</ele>
<time>2026-07-15T09:47:56.000Z</time>
</trkpt>
<trkpt lat="57.088085" lon="8.763126">
<ele>4.813297</ele>
<time>2026-07-15T09:47:57.000Z</time>
</trkpt>
<trkpt lat="57.088078" lon="8.763231">
<ele>4.815859</ele>
<time>2026-07-15T09:47:58.000Z</time>
</trkpt>
<trkpt lat="57.088067" lon="8.763321">
<ele>4.818092</ele>
<time>2026-07-15T09:47:59.000Z</time>
</trkpt>
<trkpt lat="57.088055" lon="8.763431">
<ele>4.820808</ele>
<time>2026-07-15T09:48:00.000Z</time>
</trkpt>
<trkpt lat="57.088047" lon="8.763530">
<ele>4.823231</ele>
<time>2026-07-15T09:48:01.000Z</time>
</trkpt>
<trkpt lat="57.088039" lon="8.763628">
<ele>4.825631</ele>
<time>2026-07-15T09:48:02.000Z</time>
</trkpt>
<trkpt lat="57.088032" lon="8.763726">
<ele>4.828024</ele>
<time>2026-07-15T09:48:03.000Z</time>
</trkpt>
<trkpt lat="57.088028" lon="8.763826">
<ele>4.830451</ele>
<time>2026-07-15T09:48:04.000Z</time>
</trkpt>
<trkpt lat="57.088024" lon="8.763926">
<ele>4.832879</ele>
<time>2026-07-15T09:48:05.000Z</time>
</trkpt>
<trkpt lat="57.088024" lon="8.764024">
<ele>4.835251</ele>
<time>2026-07-15T09:48:06.000Z</time>
</trkpt>
<trkpt lat="57.088024" lon="8.764125">
<ele>4.836164</ele>
<time>2026-07-15T09:48:07.000Z</time>
</trkpt>
<trkpt lat="57.088024" lon="8.764227">
<ele>4.836074</ele>
<time>2026-07-15T09:48:08.000Z</time>
</trkpt>
<trkpt lat="57.088028" lon="8.764324">
<ele>4.835989</ele>
<time>2026-07-15T09:48:09.000Z</time>
</trkpt>
<trkpt lat="57.088032" lon="8.764422">
<ele>4.835903</ele>
<time>2026-07-15T09:48:10.000Z</time>
</trkpt>
<trkpt lat="57.088039" lon="8.764519">
<ele>4.835818</ele>
<time>2026-07-15T09:48:11.000Z</time>
</trkpt>
<trkpt lat="57.088043" lon="8.764617">
<ele>4.835732</ele>
<time>2026-07-15T09:48:12.000Z</time>
</trkpt>
<trkpt lat="57.088036" lon="8.764713">
<ele>4.835647</ele>
<time>2026-07-15T09:48:13.000Z</time>
</trkpt>
<trkpt lat="57.088017" lon="8.764806">
<ele>4.835560</ele>
<time>2026-07-15T09:48:14.000Z</time>
</trkpt>
<trkpt lat="57.087990" lon="8.764890">
<ele>4.835475</ele>
<time>2026-07-15T09:48:15.000Z</time>
</trkpt>
<trkpt lat="57.087960" lon="8.764967">
<ele>4.835392</ele>
<time>2026-07-15T09:48:16.000Z</time>
</trkpt>
<trkpt lat="57.087925" lon="8.765046">
<ele>4.835303</ele>
<time>2026-07-15T09:48:17.000Z</time>
</trkpt>
<trkpt lat="57.087899" lon="8.765125">
<ele>4.835222</ele>
<time>2026-07-15T09:48:18.000Z</time>
</trkpt>
<trkpt lat="57.087872" lon="8.765205">
<ele>4.835140</ele>
<time>2026-07-15T09:48:19.000Z</time>
</trkpt>
<trkpt lat="57.087845" lon="8.765292">
<ele>4.835052</ele>
<time>2026-07-15T09:48:20.000Z</time>
</trkpt>
<trkpt lat="57.087824" lon="8.765382">
<ele>4.834966</ele>
<time>2026-07-15T09:48:21.000Z</time>
</trkpt>
<trkpt lat="57.087803" lon="8.765473">
<ele>4.834880</ele>
<time>2026-07-15T09:48:22.000Z</time>
</trkpt>
<trkpt lat="57.087788" lon="8.765566">
<ele>4.834795</ele>
<time>2026-07-15T09:48:23.000Z</time>
</trkpt>
<trkpt lat="57.087778" lon="8.765666">
<ele>4.834706</ele>
<time>2026-07-15T09:48:24.000Z</time>
</trkpt>
<trkpt lat="57.087768" lon="8.765765">
<ele>4.834618</ele>
<time>2026-07-15T09:48:25.000Z</time>
</trkpt>
<trkpt lat="57.087761" lon="8.765867">
<ele>4.834528</ele>
<time>2026-07-15T09:48:26.000Z</time>
</trkpt>
<trkpt lat="57.087757" lon="8.765970">
<ele>4.834438</ele>
<time>2026-07-15T09:48:27.000Z</time>
</trkpt>
<trkpt lat="57.087753" lon="8.766073">
<ele>4.834347</ele>
<time>2026-07-15T09:48:28.000Z</time>
</trkpt>
<trkpt lat="57.087757" lon="8.766176">
<ele>4.834257</ele>
<time>2026-07-15T09:48:29.000Z</time>
</trkpt>
<trkpt lat="57.087761" lon="8.766279">
<ele>4.834167</ele>
<time>2026-07-15T09:48:30.000Z</time>
</trkpt>
<trkpt lat="57.087765" lon="8.766382">
<ele>4.834076</ele>
<time>2026-07-15T09:48:31.000Z</time>
</trkpt>
<trkpt lat="57.087765" lon="8.766482">
<ele>4.833989</ele>
<time>2026-07-15T09:48:32.000Z</time>
</trkpt>
<trkpt lat="57.087757" lon="8.766580">
<ele>4.833902</ele>
<time>2026-07-15T09:48:33.000Z</time>
</trkpt>
<trkpt lat="57.087753" lon="8.766681">
<ele>4.833814</ele>
<time>2026-07-15T09:48:34.000Z</time>
</trkpt>
<trkpt lat="57.087742" lon="8.766787">
<ele>4.833719</ele>
<time>2026-07-15T09:48:35.000Z</time>
</trkpt>
<trkpt lat="57.087730" lon="8.766891">
<ele>4.833626</ele>
<time>2026-07-15T09:48:36.000Z</time>
</trkpt>
<trkpt lat="57.087719" lon="8.766997">
<ele>4.833532</ele>
<time>2026-07-15T09:48:37.000Z</time>
</trkpt>
<trkpt lat="57.087703" lon="8.767105">
<ele>4.833434</ele>
<time>2026-07-15T09:48:38.000Z</time>
</trkpt>
<trkpt lat="57.087688" lon="8.767206">
<ele>4.833342</ele>
<time>2026-07-15T09:48:39.000Z</time>
</trkpt>
<trkpt lat="57.087669" lon="8.767305">
<ele>4.830913</ele>
<time>2026-07-15T09:48:40.000Z</time>
</trkpt>
<trkpt lat="57.087654" lon="8.767404">
<ele>4.827866</ele>
<time>2026-07-15T09:48:41.000Z</time>
</trkpt>
<trkpt lat="57.087635" lon="8.767501">
<ele>4.824810</ele>
<time>2026-07-15T09:48:42.000Z</time>
</trkpt>
<trkpt lat="57.087620" lon="8.767597">
<ele>4.821848</ele>
<time>2026-07-15T09:48:43.000Z</time>
</trkpt>
<trkpt lat="57.087604" lon="8.767693">
<ele>4.818871</ele>
<time>2026-07-15T09:48:44.000Z</time>
</trkpt>
<trkpt lat="57.087589" lon="8.767786">
<ele>4.815995</ele>
<time>2026-07-15T09:48:45.000Z</time>
</trkpt>
<trkpt lat="57.087578" lon="8.767885">
<ele>4.813000</ele>
<time>2026-07-15T09:48:46.000Z</time>
</trkpt>
<trkpt lat="57.087570" lon="8.767983">
<ele>4.810062</ele>
<time>2026-07-15T09:48:47.000Z</time>
</trkpt>
<trkpt lat="57.087570" lon="8.768081">
<ele>4.807157</ele>
<time>2026-07-15T09:48:48.000Z</time>
</trkpt>
<trkpt lat="57.087566" lon="8.768174">
<ele>4.804391</ele>
<time>2026-07-15T09:48:49.000Z</time>
</trkpt>
<trkpt lat="57.087559" lon="8.768259">
<ele>4.801842</ele>
<time>2026-07-15T09:48:50.000Z</time>
</trkpt>
<trkpt lat="57.087547" lon="8.768333">
<ele>4.799553</ele>
<time>2026-07-15T09:48:51.000Z</time>
</trkpt>
<trkpt lat="57.087540" lon="8.768409">
<ele>4.797268</ele>
<time>2026-07-15T09:48:52.000Z</time>
</trkpt>
<trkpt lat="57.087532" lon="8.768485">
<ele>4.794973</ele>
<time>2026-07-15T09:48:53.000Z</time>
</trkpt>
<trkpt lat="57.087517" lon="8.768564">
<ele>4.792492</ele>
<time>2026-07-15T09:48:54.000Z</time>
</trkpt>
<trkpt lat="57.087501" lon="8.768645">
<ele>4.789937</ele>
<time>2026-07-15T09:48:55.000Z</time>
</trkpt>
<trkpt lat="57.087486" lon="8.768734">
<ele>4.787174</ele>
<time>2026-07-15T09:48:56.000Z</time>
</trkpt>
<trkpt lat="57.087463" lon="8.768826">
<ele>4.784172</ele>
<time>2026-07-15T09:48:57.000Z</time>
</trkpt>
<trkpt lat="57.087448" lon="8.768928">
<ele>4.781039</ele>
<time>2026-07-15T09:48:58.000Z</time>
</trkpt>
<trkpt lat="57.087429" lon="8.769023">
<ele>4.778038</ele>
<time>2026-07-15T09:48:59.000Z</time>
</trkpt>
<trkpt lat="57.087414" lon="8.769117">
<ele>4.775134</ele>
<time>2026-07-15T09:49:00.000Z</time>
</trkpt>
<trkpt lat="57.087398" lon="8.769211">
<ele>4.772214</ele>
<time>2026-07-15T09:49:01.000Z</time>
</trkpt>
<trkpt lat="57.087383" lon="8.769318">
<ele>4.768938</ele>
<time>2026-07-15T09:49:02.000Z</time>
</trkpt>
<trkpt lat="57.087368" lon="8.769428">
<ele>4.765575</ele>
<time>2026-07-15T09:49:03.000Z</time>
</trkpt>
<trkpt lat="57.087353" lon="8.769537">
<ele>4.762242</ele>
<time>2026-07-15T09:49:04.000Z</time>
</trkpt>
<trkpt lat="57.087341" lon="8.769641">
<ele>4.759090</ele>
<time>2026-07-15T09:49:05.000Z</time>
</trkpt>
<trkpt lat="57.087330" lon="8.769745">
<ele>4.755949</ele>
<time>2026-07-15T09:49:06.000Z</time>
</trkpt>
<trkpt lat="57.087318" lon="8.769852">
<ele>4.752710</ele>
<time>2026-07-15T09:49:07.000Z</time>
</trkpt>
<trkpt lat="57.087303" lon="8.769955">
<ele>4.749549</ele>
<time>2026-07-15T09:49:08.000Z</time>
</trkpt>
<trkpt lat="57.087292" lon="8.770067">
<ele>4.746174</ele>
<time>2026-07-15T09:49:09.000Z</time>
</trkpt>
<trkpt lat="57.087280" lon="8.770177">
<ele>4.742848</ele>
<time>2026-07-15T09:49:10.000Z</time>
</trkpt>
<trkpt lat="57.087265" lon="8.770281">
<ele>4.739658</ele>
<time>2026-07-15T09:49:11.000Z</time>
</trkpt>
<trkpt lat="57.087250" lon="8.770384">
<ele>4.736497</ele>
<time>2026-07-15T09:49:12.000Z</time>
</trkpt>
<trkpt lat="57.087234" lon="8.770487">
<ele>4.742283</ele>
<time>2026-07-15T09:49:13.000Z</time>
</trkpt>
<trkpt lat="57.087219" lon="8.770595">
<ele>4.754856</ele>
<time>2026-07-15T09:49:14.000Z</time>
</trkpt>
<trkpt lat="57.087208" lon="8.770702">
<ele>4.767138</ele>
<time>2026-07-15T09:49:15.000Z</time>
</trkpt>
<trkpt lat="57.087196" lon="8.770805">
<ele>4.779019</ele>
<time>2026-07-15T09:49:16.000Z</time>
</trkpt>
<trkpt lat="57.087185" lon="8.770908">
<ele>4.790858</ele>
<time>2026-07-15T09:49:17.000Z</time>
</trkpt>
<trkpt lat="57.087173" lon="8.771007">
<ele>4.802298</ele>
<time>2026-07-15T09:49:18.000Z</time>
</trkpt>
<trkpt lat="57.087170" lon="8.771104">
<ele>4.813256</ele>
<time>2026-07-15T09:49:19.000Z</time>
</trkpt>
<trkpt lat="57.087174" lon="8.771202">
<ele>4.824340</ele>
<time>2026-07-15T09:49:20.000Z</time>
</trkpt>
<trkpt lat="57.087181" lon="8.771300">
<ele>4.835488</ele>
<time>2026-07-15T09:49:21.000Z</time>
</trkpt>
<trkpt lat="57.087200" lon="8.771393">
<ele>4.846694</ele>
<time>2026-07-15T09:49:22.000Z</time>
</trkpt>
<trkpt lat="57.087223" lon="8.771482">
<ele>4.857809</ele>
<time>2026-07-15T09:49:23.000Z</time>
</trkpt>
<trkpt lat="57.087246" lon="8.771570">
<ele>4.868823</ele>
<time>2026-07-15T09:49:24.000Z</time>
</trkpt>
<trkpt lat="57.087265" lon="8.771666">
<ele>4.880346</ele>
<time>2026-07-15T09:49:25.000Z</time>
</trkpt>
<trkpt lat="57.087277" lon="8.771765">
<ele>4.891786</ele>
<time>2026-07-15T09:49:26.000Z</time>
</trkpt>
<trkpt lat="57.087284" lon="8.771863">
<ele>4.902934</ele>
<time>2026-07-15T09:49:27.000Z</time>
</trkpt>
<trkpt lat="57.087284" lon="8.771963">
<ele>4.914213</ele>
<time>2026-07-15T09:49:28.000Z</time>
</trkpt>
<trkpt lat="57.087284" lon="8.772066">
<ele>4.925829</ele>
<time>2026-07-15T09:49:29.000Z</time>
</trkpt>
<trkpt lat="57.087276" lon="8.772167">
<ele>4.937341</ele>
<time>2026-07-15T09:49:30.000Z</time>
</trkpt>
<trkpt lat="57.087273" lon="8.772268">
<ele>4.948749</ele>
<time>2026-07-15T09:49:31.000Z</time>
</trkpt>
<trkpt lat="57.087265" lon="8.772368">
<ele>4.960149</ele>
<time>2026-07-15T09:49:32.000Z</time>
</trkpt>
<trkpt lat="57.087254" lon="8.772467">
<ele>4.971546</ele>
<time>2026-07-15T09:49:33.000Z</time>
</trkpt>
<trkpt lat="57.087242" lon="8.772566">
<ele>4.982986</ele>
<time>2026-07-15T09:49:34.000Z</time>
</trkpt>
<trkpt lat="57.087231" lon="8.772666">
<ele>4.994493</ele>
<time>2026-07-15T09:49:35.000Z</time>
</trkpt>
<trkpt lat="57.087219" lon="8.772767">
<ele>5.006154</ele>
<time>2026-07-15T09:49:36.000Z</time>
</trkpt>
<trkpt lat="57.087211" lon="8.772868">
<ele>5.017666</ele>
<time>2026-07-15T09:49:37.000Z</time>
</trkpt>
<trkpt lat="57.087196" lon="8.772968">
<ele>5.029366</ele>
<time>2026-07-15T09:49:38.000Z</time>
</trkpt>
<trkpt lat="57.087181" lon="8.773065">
<ele>5.040740</ele>
<time>2026-07-15T09:49:39.000Z</time>
</trkpt>
<trkpt lat="57.087162" lon="8.773160">
<ele>5.052158</ele>
<time>2026-07-15T09:49:40.000Z</time>
</trkpt>
<trkpt lat="57.087143" lon="8.773252">
<ele>5.063258</ele>
<time>2026-07-15T09:49:41.000Z</time>
</trkpt>
<trkpt lat="57.087120" lon="8.773344">
<ele>5.074680</ele>
<time>2026-07-15T09:49:42.000Z</time>
</trkpt>
<trkpt lat="57.087093" lon="8.773432">
<ele>5.086078</ele>
<time>2026-07-15T09:49:43.000Z</time>
</trkpt>
<trkpt lat="57.087066" lon="8.773520">
<ele>5.097476</ele>
<time>2026-07-15T09:49:44.000Z</time>
</trkpt>
<trkpt lat="57.087039" lon="8.773612">
<ele>5.108753</ele>
<time>2026-07-15T09:49:45.000Z</time>
</trkpt>
<trkpt lat="57.087013" lon="8.773701">
<ele>5.112204</ele>
<time>2026-07-15T09:49:46.000Z</time>
</trkpt>
<trkpt lat="57.086994" lon="8.773795">
<ele>5.115629</ele>
<time>2026-07-15T09:49:47.000Z</time>
</trkpt>
<trkpt lat="57.086975" lon="8.773890">
<ele>5.119086</ele>
<time>2026-07-15T09:49:48.000Z</time>
</trkpt>
<trkpt lat="57.086964" lon="8.773984">
<ele>5.122370</ele>
<time>2026-07-15T09:49:49.000Z</time>
</trkpt>
<trkpt lat="57.086956" lon="8.774078">
<ele>5.125620</ele>
<time>2026-07-15T09:49:50.000Z</time>
</trkpt>
<trkpt lat="57.086952" lon="8.774176">
<ele>5.128976</ele>
<time>2026-07-15T09:49:51.000Z</time>
</trkpt>
<trkpt lat="57.086952" lon="8.774276">
<ele>5.132392</ele>
<time>2026-07-15T09:49:52.000Z</time>
</trkpt>
<trkpt lat="57.086952" lon="8.774377">
<ele>5.135841</ele>
<time>2026-07-15T09:49:53.000Z</time>
</trkpt>
<trkpt lat="57.086948" lon="8.774476">
<ele>5.139232</ele>
<time>2026-07-15T09:49:54.000Z</time>
</trkpt>
<trkpt lat="57.086948" lon="8.774579">
<ele>5.142749</ele>
<time>2026-07-15T09:49:55.000Z</time>
</trkpt>
<trkpt lat="57.086941" lon="8.774681">
<ele>5.146261</ele>
<time>2026-07-15T09:49:56.000Z</time>
</trkpt>
<trkpt lat="57.086933" lon="8.774776">
<ele>5.149544</ele>
<time>2026-07-15T09:49:57.000Z</time>
</trkpt>
<trkpt lat="57.086922" lon="8.774874">
<ele>5.152961</ele>
<time>2026-07-15T09:49:58.000Z</time>
</trkpt>
<trkpt lat="57.086918" lon="8.774974">
<ele>5.156386</ele>
<time>2026-07-15T09:49:59.000Z</time>
</trkpt>
<trkpt lat="57.086918" lon="8.775075">
<ele>5.159835</ele>
<time>2026-07-15T09:50:00.000Z</time>
</trkpt>
<trkpt lat="57.086914" lon="8.775173">
<ele>5.163192</ele>
<time>2026-07-15T09:50:01.000Z</time>
</trkpt>
<trkpt lat="57.086914" lon="8.775265">
<ele>5.166334</ele>
<time>2026-07-15T09:50:02.000Z</time>
</trkpt>
<trkpt lat="57.086910" lon="8.775360">
<ele>5.169588</ele>
<time>2026-07-15T09:50:03.000Z</time>
</trkpt>
<trkpt lat="57.086906" lon="8.775460">
<ele>5.173013</ele>
<time>2026-07-15T09:50:04.000Z</time>
</trkpt>
<trkpt lat="57.086903" lon="8.775559">
<ele>5.176399</ele>
<time>2026-07-15T09:50:05.000Z</time>
</trkpt>
<trkpt lat="57.086895" lon="8.775658">
<ele>5.179817</ele>
<time>2026-07-15T09:50:06.000Z</time>
</trkpt>
<trkpt lat="57.086891" lon="8.775753">
<ele>5.183072</ele>
<time>2026-07-15T09:50:07.000Z</time>
</trkpt>
<trkpt lat="57.086883" lon="8.775851">
<ele>5.186456</ele>
<time>2026-07-15T09:50:08.000Z</time>
</trkpt>
<trkpt lat="57.086872" lon="8.775948">
<ele>5.189840</ele>
<time>2026-07-15T09:50:09.000Z</time>
</trkpt>
<trkpt lat="57.086864" lon="8.776046">
<ele>5.193225</ele>
<time>2026-07-15T09:50:10.000Z</time>
</trkpt>
<trkpt lat="57.086857" lon="8.776144">
<ele>5.196601</ele>
<time>2026-07-15T09:50:11.000Z</time>
</trkpt>
<trkpt lat="57.086853" lon="8.776245">
<ele>5.200059</ele>
<time>2026-07-15T09:50:12.000Z</time>
</trkpt>
<trkpt lat="57.086853" lon="8.776344">
<ele>5.203440</ele>
<time>2026-07-15T09:50:13.000Z</time>
</trkpt>
<trkpt lat="57.086853" lon="8.776446">
<ele>5.206924</ele>
<time>2026-07-15T09:50:14.000Z</time>
</trkpt>
<trkpt lat="57.086853" lon="8.776546">
<ele>5.210339</ele>
<time>2026-07-15T09:50:15.000Z</time>
</trkpt>
<trkpt lat="57.086845" lon="8.776649">
<ele>5.213893</ele>
<time>2026-07-15T09:50:16.000Z</time>
</trkpt>
<trkpt lat="57.086830" lon="8.776748">
<ele>5.217403</ele>
<time>2026-07-15T09:50:17.000Z</time>
</trkpt>
<trkpt lat="57.086815" lon="8.776849">
<ele>5.220979</ele>
<time>2026-07-15T09:50:18.000Z</time>
</trkpt>
<trkpt lat="57.086803" lon="8.776945">
<ele>5.234565</ele>
<time>2026-07-15T09:50:19.000Z</time>
</trkpt>
<trkpt lat="57.086784" lon="8.777043">
<ele>5.251268</ele>
<time>2026-07-15T09:50:20.000Z</time>
</trkpt>
<trkpt lat="57.086769" lon="8.777141">
<ele>5.267612</ele>
<time>2026-07-15T09:50:21.000Z</time>
</trkpt>
<trkpt lat="57.086750" lon="8.777239">
<ele>5.284315</ele>
<time>2026-07-15T09:50:22.000Z</time>
</trkpt>
<trkpt lat="57.086731" lon="8.777337">
<ele>5.301018</ele>
<time>2026-07-15T09:50:23.000Z</time>
</trkpt>
<trkpt lat="57.086716" lon="8.777433">
<ele>5.317054</ele>
<time>2026-07-15T09:50:24.000Z</time>
</trkpt>
<trkpt lat="57.086696" lon="8.777531">
<ele>5.333858</ele>
<time>2026-07-15T09:50:25.000Z</time>
</trkpt>
<trkpt lat="57.086681" lon="8.777629">
<ele>5.350202</ele>
<time>2026-07-15T09:50:26.000Z</time>
</trkpt>
<trkpt lat="57.086662" lon="8.777723">
<ele>5.366302</ele>
<time>2026-07-15T09:50:27.000Z</time>
</trkpt>
<trkpt lat="57.086643" lon="8.777822">
<ele>5.383157</ele>
<time>2026-07-15T09:50:28.000Z</time>
</trkpt>
<trkpt lat="57.086628" lon="8.777914">
<ele>5.398576</ele>
<time>2026-07-15T09:50:29.000Z</time>
</trkpt>
<trkpt lat="57.086609" lon="8.778009">
<ele>5.414826</ele>
<time>2026-07-15T09:50:30.000Z</time>
</trkpt>
<trkpt lat="57.086589" lon="8.778105">
<ele>5.431331</ele>
<time>2026-07-15T09:50:31.000Z</time>
</trkpt>
<trkpt lat="57.086570" lon="8.778200">
<ele>5.447581</ele>
<time>2026-07-15T09:50:32.000Z</time>
</trkpt>
<trkpt lat="57.086551" lon="8.778296">
<ele>5.463983</ele>
<time>2026-07-15T09:50:33.000Z</time>
</trkpt>
<trkpt lat="57.086532" lon="8.778392">
<ele>5.480384</ele>
<time>2026-07-15T09:50:34.000Z</time>
</trkpt>
<trkpt lat="57.086513" lon="8.778488">
<ele>5.496785</ele>
<time>2026-07-15T09:50:35.000Z</time>
</trkpt>
<trkpt lat="57.086491" lon="8.778582">
<ele>5.513215</ele>
<time>2026-07-15T09:50:36.000Z</time>
</trkpt>
<trkpt lat="57.086471" lon="8.778679">
<ele>5.529870</ele>
<time>2026-07-15T09:50:37.000Z</time>
</trkpt>
<trkpt lat="57.086444" lon="8.778777">
<ele>5.547508</ele>
<time>2026-07-15T09:50:38.000Z</time>
</trkpt>
<trkpt lat="57.086422" lon="8.778870">
<ele>5.563791</ele>
<time>2026-07-15T09:50:39.000Z</time>
</trkpt>
<trkpt lat="57.086399" lon="8.778964">
<ele>5.580340</ele>
<time>2026-07-15T09:50:40.000Z</time>
</trkpt>
<trkpt lat="57.086391" lon="8.779060">
<ele>5.595931</ele>
<time>2026-07-15T09:50:41.000Z</time>
</trkpt>
<trkpt lat="57.086388" lon="8.779156">
<ele>5.611367</ele>
<time>2026-07-15T09:50:42.000Z</time>
</trkpt>
<trkpt lat="57.086395" lon="8.779251">
<ele>5.626757</ele>
<time>2026-07-15T09:50:43.000Z</time>
</trkpt>
<trkpt lat="57.086399" lon="8.779339">
<ele>5.640933</ele>
<time>2026-07-15T09:50:44.000Z</time>
</trkpt>
<trkpt lat="57.086395" lon="8.779430">
<ele>5.655589</ele>
<time>2026-07-15T09:50:45.000Z</time>
</trkpt>
<trkpt lat="57.086388" lon="8.779522">
<ele>5.670502</ele>
<time>2026-07-15T09:50:46.000Z</time>
</trkpt>
<trkpt lat="57.086380" lon="8.779613">
<ele>5.685300</ele>
<time>2026-07-15T09:50:47.000Z</time>
</trkpt>
<trkpt lat="57.086365" lon="8.779707">
<ele>5.701027</ele>
<time>2026-07-15T09:50:48.000Z</time>
</trkpt>
<trkpt lat="57.086353" lon="8.779802">
<ele>5.716684</ele>
<time>2026-07-15T09:50:49.000Z</time>
</trkpt>
<trkpt lat="57.086338" lon="8.779899">
<ele>5.732873</ele>
<time>2026-07-15T09:50:50.000Z</time>
</trkpt>
<trkpt lat="57.086323" lon="8.779994">
<ele>5.748755</ele>
<time>2026-07-15T09:50:51.000Z</time>
</trkpt>
<trkpt lat="57.086307" lon="8.780088">
<ele>5.761599</ele>
<time>2026-07-15T09:50:52.000Z</time>
</trkpt>
<trkpt lat="57.086288" lon="8.780182">
<ele>5.773583</ele>
<time>2026-07-15T09:50:53.000Z</time>
</trkpt>
<trkpt lat="57.086273" lon="8.780277">
<ele>5.785404</ele>
<time>2026-07-15T09:50:54.000Z</time>
</trkpt>
<trkpt lat="57.086258" lon="8.780370">
<ele>5.796996</ele>
<time>2026-07-15T09:50:55.000Z</time>
</trkpt>
<trkpt lat="57.086242" lon="8.780460">
<ele>5.808312</ele>
<time>2026-07-15T09:50:56.000Z</time>
</trkpt>
<trkpt lat="57.086227" lon="8.780552">
<ele>5.819789</ele>
<time>2026-07-15T09:50:57.000Z</time>
</trkpt>
<trkpt lat="57.086216" lon="8.780638">
<ele>5.830346</ele>
<time>2026-07-15T09:50:58.000Z</time>
</trkpt>
<trkpt lat="57.086204" lon="8.780724">
<ele>5.840956</ele>
<time>2026-07-15T09:50:59.000Z</time>
</trkpt>
<trkpt lat="57.086197" lon="8.780812">
<ele>5.851583</ele>
<time>2026-07-15T09:51:00.000Z</time>
</trkpt>
<trkpt lat="57.086185" lon="8.780898">
<ele>5.862193</ele>
<time>2026-07-15T09:51:01.000Z</time>
</trkpt>
<trkpt lat="57.086174" lon="8.780990">
<ele>5.873449</ele>
<time>2026-07-15T09:51:02.000Z</time>
</trkpt>
<trkpt lat="57.086162" lon="8.781082">
<ele>5.884755</ele>
<time>2026-07-15T09:51:03.000Z</time>
</trkpt>
<trkpt lat="57.086151" lon="8.781176">
<ele>5.896245</ele>
<time>2026-07-15T09:51:04.000Z</time>
</trkpt>
<trkpt lat="57.086143" lon="8.781271">
<ele>5.907732</ele>
<time>2026-07-15T09:51:05.000Z</time>
</trkpt>
<trkpt lat="57.086136" lon="8.781369">
<ele>5.919543</ele>
<time>2026-07-15T09:51:06.000Z</time>
</trkpt>
<trkpt lat="57.086128" lon="8.781463">
<ele>5.930912</ele>
<time>2026-07-15T09:51:07.000Z</time>
</trkpt>
<trkpt lat="57.086120" lon="8.781559">
<ele>5.942517</ele>
<time>2026-07-15T09:51:08.000Z</time>
</trkpt>
<trkpt lat="57.086113" lon="8.781653">
<ele>5.953855</ele>
<time>2026-07-15T09:51:09.000Z</time>
</trkpt>
<trkpt lat="57.086105" lon="8.781745">
<ele>5.964988</ele>
<time>2026-07-15T09:51:10.000Z</time>
</trkpt>
<trkpt lat="57.086101" lon="8.781835">
<ele>5.975778</ele>
<time>2026-07-15T09:51:11.000Z</time>
</trkpt>
<trkpt lat="57.086094" lon="8.781928">
<ele>5.986997</ele>
<time>2026-07-15T09:51:12.000Z</time>
</trkpt>
<trkpt lat="57.086086" lon="8.782023">
<ele>5.998484</ele>
<time>2026-07-15T09:51:13.000Z</time>
</trkpt>
<trkpt lat="57.086079" lon="8.782119">
<ele>6.010058</ele>
<time>2026-07-15T09:51:14.000Z</time>
</trkpt>
<trkpt lat="57.086075" lon="8.782212">
<ele>6.021206</ele>
<time>2026-07-15T09:51:15.000Z</time>
</trkpt>
<trkpt lat="57.086071" lon="8.782306">
<ele>6.032472</ele>
<time>2026-07-15T09:51:16.000Z</time>
</trkpt>
<trkpt lat="57.086063" lon="8.782400">
<ele>6.043842</ele>
<time>2026-07-15T09:51:17.000Z</time>
</trkpt>
<trkpt lat="57.086063" lon="8.782496">
<ele>6.055313</ele>
<time>2026-07-15T09:51:18.000Z</time>
</trkpt>
<trkpt lat="57.086056" lon="8.782593">
<ele>6.067005</ele>
<time>2026-07-15T09:51:19.000Z</time>
</trkpt>
<trkpt lat="57.086052" lon="8.782687">
<ele>6.078272</ele>
<time>2026-07-15T09:51:20.000Z</time>
</trkpt>
<trkpt lat="57.086044" lon="8.782783">
<ele>6.089878</ele>
<time>2026-07-15T09:51:21.000Z</time>
</trkpt>
<trkpt lat="57.086037" lon="8.782880">
<ele>6.101570</ele>
<time>2026-07-15T09:51:22.000Z</time>
</trkpt>
<trkpt lat="57.086033" lon="8.782973">
<ele>6.112718</ele>
<time>2026-07-15T09:51:23.000Z</time>
</trkpt>
<trkpt lat="57.086029" lon="8.783068">
<ele>6.124103</ele>
<time>2026-07-15T09:51:24.000Z</time>
</trkpt>
<trkpt lat="57.086025" lon="8.783160">
<ele>6.135132</ele>
<time>2026-07-15T09:51:25.000Z</time>
</trkpt>
<trkpt lat="57.086017" lon="8.783260">
<ele>6.147210</ele>
<time>2026-07-15T09:51:26.000Z</time>
</trkpt>
<trkpt lat="57.086010" lon="8.783355">
<ele>6.171684</ele>
<time>2026-07-15T09:51:27.000Z</time>
</trkpt>
<trkpt lat="57.086006" lon="8.783454">
<ele>6.198720</ele>
<time>2026-07-15T09:51:28.000Z</time>
</trkpt>
<trkpt lat="57.085998" lon="8.783551">
<ele>6.225440</ele>
<time>2026-07-15T09:51:29.000Z</time>
</trkpt>
<trkpt lat="57.085991" lon="8.783648">
<ele>6.252090</ele>
<time>2026-07-15T09:51:30.000Z</time>
</trkpt>
<trkpt lat="57.085983" lon="8.783746">
<ele>6.279079</ele>
<time>2026-07-15T09:51:31.000Z</time>
</trkpt>
<trkpt lat="57.085975" lon="8.783844">
<ele>6.306068</ele>
<time>2026-07-15T09:51:32.000Z</time>
</trkpt>
<trkpt lat="57.085964" lon="8.783940">
<ele>6.332789</ele>
<time>2026-07-15T09:51:33.000Z</time>
</trkpt>
<trkpt lat="57.085953" lon="8.784034">
<ele>6.358976</ele>
<time>2026-07-15T09:51:34.000Z</time>
</trkpt>
<trkpt lat="57.085941" lon="8.784126">
<ele>6.384744</ele>
<time>2026-07-15T09:51:35.000Z</time>
</trkpt>
<trkpt lat="57.085930" lon="8.784220">
<ele>6.410931</ele>
<time>2026-07-15T09:51:36.000Z</time>
</trkpt>
<trkpt lat="57.085918" lon="8.784311">
<ele>6.436434</ele>
<time>2026-07-15T09:51:37.000Z</time>
</trkpt>
<trkpt lat="57.085903" lon="8.784401">
<ele>6.462072</ele>
<time>2026-07-15T09:51:38.000Z</time>
</trkpt>
<trkpt lat="57.085888" lon="8.784491">
<ele>6.487710</ele>
<time>2026-07-15T09:51:39.000Z</time>
</trkpt>
<trkpt lat="57.085873" lon="8.784583">
<ele>6.513870</ele>
<time>2026-07-15T09:51:40.000Z</time>
</trkpt>
<trkpt lat="57.085865" lon="8.784676">
<ele>6.539513</ele>
<time>2026-07-15T09:51:41.000Z</time>
</trkpt>
<trkpt lat="57.085853" lon="8.784767">
<ele>6.565016</ele>
<time>2026-07-15T09:51:42.000Z</time>
</trkpt>
<trkpt lat="57.085842" lon="8.784859">
<ele>6.590671</ele>
<time>2026-07-15T09:51:43.000Z</time>
</trkpt>
<trkpt lat="57.085831" lon="8.784952">
<ele>6.616593</ele>
<time>2026-07-15T09:51:44.000Z</time>
</trkpt>
<trkpt lat="57.085823" lon="8.785046">
<ele>6.642505</ele>
<time>2026-07-15T09:51:45.000Z</time>
</trkpt>
<trkpt lat="57.085812" lon="8.785141">
<ele>6.668959</ele>
<time>2026-07-15T09:51:46.000Z</time>
</trkpt>
<trkpt lat="57.085804" lon="8.785235">
<ele>6.694872</ele>
<time>2026-07-15T09:51:47.000Z</time>
</trkpt>
<trkpt lat="57.085792" lon="8.785331">
<ele>6.721700</ele>
<time>2026-07-15T09:51:48.000Z</time>
</trkpt>
<trkpt lat="57.085785" lon="8.785427">
<ele>6.748079</ele>
<time>2026-07-15T09:51:49.000Z</time>
</trkpt>
<trkpt lat="57.085773" lon="8.785522">
<ele>6.774642</ele>
<time>2026-07-15T09:51:50.000Z</time>
</trkpt>
<trkpt lat="57.085762" lon="8.785618">
<ele>6.801362</ele>
<time>2026-07-15T09:51:51.000Z</time>
</trkpt>
<trkpt lat="57.085750" lon="8.785712">
<ele>6.827660</ele>
<time>2026-07-15T09:51:52.000Z</time>
</trkpt>
<trkpt lat="57.085735" lon="8.785806">
<ele>6.854342</ele>
<time>2026-07-15T09:51:53.000Z</time>
</trkpt>
<trkpt lat="57.085713" lon="8.785893">
<ele>6.880476</ele>
<time>2026-07-15T09:51:54.000Z</time>
</trkpt>
<trkpt lat="57.085685" lon="8.785984">
<ele>6.908957</ele>
<time>2026-07-15T09:51:55.000Z</time>
</trkpt>
<trkpt lat="57.085659" lon="8.786071">
<ele>6.935998</ele>
<time>2026-07-15T09:51:56.000Z</time>
</trkpt>
<trkpt lat="57.085628" lon="8.786156">
<ele>6.963879</ele>
<time>2026-07-15T09:51:57.000Z</time>
</trkpt>
<trkpt lat="57.085594" lon="8.786237">
<ele>6.991754</ele>
<time>2026-07-15T09:51:58.000Z</time>
</trkpt>
<trkpt lat="57.085567" lon="8.786323">
<ele>7.018805</ele>
<time>2026-07-15T09:51:59.000Z</time>
</trkpt>
<trkpt lat="57.085544" lon="8.786410">
<ele>7.045154</ele>
<time>2026-07-15T09:52:00.000Z</time>
</trkpt>
<trkpt lat="57.085525" lon="8.786496">
<ele>7.038734</ele>
<time>2026-07-15T09:52:01.000Z</time>
</trkpt>
<trkpt lat="57.085510" lon="8.786590">
<ele>7.024068</ele>
<time>2026-07-15T09:52:02.000Z</time>
</trkpt>
<trkpt lat="57.085499" lon="8.786688">
<ele>7.009088</ele>
<time>2026-07-15T09:52:03.000Z</time>
</trkpt>
<trkpt lat="57.085491" lon="8.786791">
<ele>6.993513</ele>
<time>2026-07-15T09:52:04.000Z</time>
</trkpt>
<trkpt lat="57.085483" lon="8.786900">
<ele>6.977048</ele>
<time>2026-07-15T09:52:05.000Z</time>
</trkpt>
<trkpt lat="57.085472" lon="8.787006">
<ele>6.960893</ele>
<time>2026-07-15T09:52:06.000Z</time>
</trkpt>
<trkpt lat="57.085464" lon="8.787107">
<ele>6.945614</ele>
<time>2026-07-15T09:52:07.000Z</time>
</trkpt>
<trkpt lat="57.085453" lon="8.787205">
<ele>6.930634</ele>
<time>2026-07-15T09:52:08.000Z</time>
</trkpt>
<trkpt lat="57.085438" lon="8.787296">
<ele>6.916399</ele>
<time>2026-07-15T09:52:09.000Z</time>
</trkpt>
<trkpt lat="57.085422" lon="8.787388">
<ele>6.901939</ele>
<time>2026-07-15T09:52:10.000Z</time>
</trkpt>
<trkpt lat="57.085403" lon="8.787482">
<ele>6.886926</ele>
<time>2026-07-15T09:52:11.000Z</time>
</trkpt>
<trkpt lat="57.085380" lon="8.787583">
<ele>6.870532</ele>
<time>2026-07-15T09:52:12.000Z</time>
</trkpt>
<trkpt lat="57.085361" lon="8.787683">
<ele>6.854674</ele>
<time>2026-07-15T09:52:13.000Z</time>
</trkpt>
<trkpt lat="57.085342" lon="8.787785">
<ele>6.838533</ele>
<time>2026-07-15T09:52:14.000Z</time>
</trkpt>
<trkpt lat="57.085323" lon="8.787890">
<ele>6.821966</ele>
<time>2026-07-15T09:52:15.000Z</time>
</trkpt>
<trkpt lat="57.085312" lon="8.787997">
<ele>6.805664</ele>
<time>2026-07-15T09:52:16.000Z</time>
</trkpt>
<trkpt lat="57.085304" lon="8.788111">
<ele>6.788457</ele>
<time>2026-07-15T09:52:17.000Z</time>
</trkpt>
<trkpt lat="57.085297" lon="8.788225">
<ele>6.771283</ele>
<time>2026-07-15T09:52:18.000Z</time>
</trkpt>
<trkpt lat="57.085289" lon="8.788344">
<ele>6.753333</ele>
<time>2026-07-15T09:52:19.000Z</time>
</trkpt>
<trkpt lat="57.085277" lon="8.788452">
<ele>6.736832</ele>
<time>2026-07-15T09:52:20.000Z</time>
</trkpt>
<trkpt lat="57.085258" lon="8.788554">
<ele>6.720690</ele>
<time>2026-07-15T09:52:21.000Z</time>
</trkpt>
<trkpt lat="57.085235" lon="8.788651">
<ele>6.704848</ele>
<time>2026-07-15T09:52:22.000Z</time>
</trkpt>
<trkpt lat="57.085209" lon="8.788746">
<ele>6.688924</ele>
<time>2026-07-15T09:52:23.000Z</time>
</trkpt>
<trkpt lat="57.085178" lon="8.788847">
<ele>6.671560</ele>
<time>2026-07-15T09:52:24.000Z</time>
</trkpt>
<trkpt lat="57.085151" lon="8.788946">
<ele>6.654978</ele>
<time>2026-07-15T09:52:25.000Z</time>
</trkpt>
<trkpt lat="57.085125" lon="8.789045">
<ele>6.638518</ele>
<time>2026-07-15T09:52:26.000Z</time>
</trkpt>
<trkpt lat="57.085098" lon="8.789142">
<ele>6.622203</ele>
<time>2026-07-15T09:52:27.000Z</time>
</trkpt>
<trkpt lat="57.085079" lon="8.789241">
<ele>6.606486</ele>
<time>2026-07-15T09:52:28.000Z</time>
</trkpt>
<trkpt lat="57.085056" lon="8.789334">
<ele>6.591190</ele>
<time>2026-07-15T09:52:29.000Z</time>
</trkpt>
<trkpt lat="57.085033" lon="8.789424">
<ele>6.576301</ele>
<time>2026-07-15T09:52:30.000Z</time>
</trkpt>
<trkpt lat="57.085007" lon="8.789514">
<ele>6.561043</ele>
<time>2026-07-15T09:52:31.000Z</time>
</trkpt>
<trkpt lat="57.084980" lon="8.789606">
<ele>6.543840</ele>
<time>2026-07-15T09:52:32.000Z</time>
</trkpt>
<trkpt lat="57.084953" lon="8.789698">
<ele>6.525516</ele>
<time>2026-07-15T09:52:33.000Z</time>
</trkpt>
<trkpt lat="57.084922" lon="8.789786">
<ele>6.507137</ele>
<time>2026-07-15T09:52:34.000Z</time>
</trkpt>
<trkpt lat="57.084896" lon="8.789875">
<ele>6.489429</ele>
<time>2026-07-15T09:52:35.000Z</time>
</trkpt>
<trkpt lat="57.084865" lon="8.789963">
<ele>6.471050</ele>
<time>2026-07-15T09:52:36.000Z</time>
</trkpt>
<trkpt lat="57.084839" lon="8.790052">
<ele>6.453342</ele>
<time>2026-07-15T09:52:37.000Z</time>
</trkpt>
<trkpt lat="57.084816" lon="8.790145">
<ele>6.435436</ele>
<time>2026-07-15T09:52:38.000Z</time>
</trkpt>
<trkpt lat="57.084801" lon="8.790242">
<ele>6.417762</ele>
<time>2026-07-15T09:52:39.000Z</time>
</trkpt>
<trkpt lat="57.084789" lon="8.790342">
<ele>6.399815</ele>
<time>2026-07-15T09:52:40.000Z</time>
</trkpt>
<trkpt lat="57.084778" lon="8.790443">
<ele>6.381763</ele>
<time>2026-07-15T09:52:41.000Z</time>
</trkpt>
<trkpt lat="57.084770" lon="8.790545">
<ele>6.363703</ele>
<time>2026-07-15T09:52:42.000Z</time>
</trkpt>
<trkpt lat="57.084759" lon="8.790645">
<ele>6.345822</ele>
<time>2026-07-15T09:52:43.000Z</time>
</trkpt>
<trkpt lat="57.084747" lon="8.790744">
<ele>6.328047</ele>
<time>2026-07-15T09:52:44.000Z</time>
</trkpt>
<trkpt lat="57.084736" lon="8.790842">
<ele>6.310510</ele>
<time>2026-07-15T09:52:45.000Z</time>
</trkpt>
<trkpt lat="57.084724" lon="8.790946">
<ele>6.291878</ele>
<time>2026-07-15T09:52:46.000Z</time>
</trkpt>
<trkpt lat="57.084713" lon="8.791042">
<ele>6.274684</ele>
<time>2026-07-15T09:52:47.000Z</time>
</trkpt>
<trkpt lat="57.084701" lon="8.791142">
<ele>6.256737</ele>
<time>2026-07-15T09:52:48.000Z</time>
</trkpt>
<trkpt lat="57.084686" lon="8.791241">
<ele>6.238726</ele>
<time>2026-07-15T09:52:49.000Z</time>
</trkpt>
<trkpt lat="57.084671" lon="8.791338">
<ele>6.221052</ele>
<time>2026-07-15T09:52:50.000Z</time>
</trkpt>
<trkpt lat="57.084656" lon="8.791430">
<ele>6.204219</ele>
<time>2026-07-15T09:52:51.000Z</time>
</trkpt>
<trkpt lat="57.084640" lon="8.791520">
<ele>6.187624</ele>
<time>2026-07-15T09:52:52.000Z</time>
</trkpt>
<trkpt lat="57.084629" lon="8.791616">
<ele>6.170430</ele>
<time>2026-07-15T09:52:53.000Z</time>
</trkpt>
<trkpt lat="57.084621" lon="8.791720">
<ele>6.152023</ele>
<time>2026-07-15T09:52:54.000Z</time>
</trkpt>
<trkpt lat="57.084610" lon="8.791828">
<ele>6.132766</ele>
<time>2026-07-15T09:52:55.000Z</time>
</trkpt>
<trkpt lat="57.084602" lon="8.791933">
<ele>6.114185</ele>
<time>2026-07-15T09:52:56.000Z</time>
</trkpt>
<trkpt lat="57.084599" lon="8.792040">
<ele>6.095409</ele>
<time>2026-07-15T09:52:57.000Z</time>
</trkpt>
<trkpt lat="57.084599" lon="8.792144">
<ele>6.077183</ele>
<time>2026-07-15T09:52:58.000Z</time>
</trkpt>
<trkpt lat="57.084595" lon="8.792250">
<ele>6.058562</ele>
<time>2026-07-15T09:52:59.000Z</time>
</trkpt>
<trkpt lat="57.084591" lon="8.792353">
<ele>6.040465</ele>
<time>2026-07-15T09:53:00.000Z</time>
</trkpt>
<trkpt lat="57.084587" lon="8.792456">
<ele>6.022369</ele>
<time>2026-07-15T09:53:01.000Z</time>
</trkpt>
<trkpt lat="57.084583" lon="8.792556">
<ele>6.004797</ele>
<time>2026-07-15T09:53:02.000Z</time>
</trkpt>
<trkpt lat="57.084579" lon="8.792660">
<ele>5.986525</ele>
<time>2026-07-15T09:53:03.000Z</time>
</trkpt>
<trkpt lat="57.084576" lon="8.792761">
<ele>5.971480</ele>
<time>2026-07-15T09:53:04.000Z</time>
</trkpt>
<trkpt lat="57.084583" lon="8.792859">
<ele>5.962434</ele>
<time>2026-07-15T09:53:05.000Z</time>
</trkpt>
<trkpt lat="57.084591" lon="8.792960">
<ele>5.953093</ele>
<time>2026-07-15T09:53:06.000Z</time>
</trkpt>
<trkpt lat="57.084599" lon="8.793056">
<ele>5.944204</ele>
<time>2026-07-15T09:53:07.000Z</time>
</trkpt>
<trkpt lat="57.084610" lon="8.793155">
<ele>5.934957</ele>
<time>2026-07-15T09:53:08.000Z</time>
</trkpt>
<trkpt lat="57.084622" lon="8.793255">
<ele>5.925584</ele>
<time>2026-07-15T09:53:09.000Z</time>
</trkpt>
<trkpt lat="57.084633" lon="8.793355">
<ele>5.916247</ele>
<time>2026-07-15T09:53:10.000Z</time>
</trkpt>
<trkpt lat="57.084637" lon="8.793458">
<ele>5.906796</ele>
<time>2026-07-15T09:53:11.000Z</time>
</trkpt>
<trkpt lat="57.084637" lon="8.793559">
<ele>5.897553</ele>
<time>2026-07-15T09:53:12.000Z</time>
</trkpt>
<trkpt lat="57.084637" lon="8.793663">
<ele>5.888035</ele>
<time>2026-07-15T09:53:13.000Z</time>
</trkpt>
<trkpt lat="57.084629" lon="8.793766">
<ele>5.878513</ele>
<time>2026-07-15T09:53:14.000Z</time>
</trkpt>
<trkpt lat="57.084621" lon="8.793867">
<ele>5.869172</ele>
<time>2026-07-15T09:53:15.000Z</time>
</trkpt>
<trkpt lat="57.084610" lon="8.793970">
<ele>5.859565</ele>
<time>2026-07-15T09:53:16.000Z</time>
</trkpt>
<trkpt lat="57.084602" lon="8.794068">
<ele>5.850496</ele>
<time>2026-07-15T09:53:17.000Z</time>
</trkpt>
<trkpt lat="57.084591" lon="8.794173">
<ele>5.840709</ele>
<time>2026-07-15T09:53:18.000Z</time>
</trkpt>
<trkpt lat="57.084579" lon="8.794277">
<ele>5.830979</ele>
<time>2026-07-15T09:53:19.000Z</time>
</trkpt>
<trkpt lat="57.084572" lon="8.794381">
<ele>5.821388</ele>
<time>2026-07-15T09:53:20.000Z</time>
</trkpt>
<trkpt lat="57.084564" lon="8.794487">
<ele>5.811594</ele>
<time>2026-07-15T09:53:21.000Z</time>
</trkpt>
<trkpt lat="57.084560" lon="8.794593">
<ele>5.801870</ele>
<time>2026-07-15T09:53:22.000Z</time>
</trkpt>
<trkpt lat="57.084560" lon="8.794696">
<ele>5.792444</ele>
<time>2026-07-15T09:53:23.000Z</time>
</trkpt>
<trkpt lat="57.084564" lon="8.794801">
<ele>5.782811</ele>
<time>2026-07-15T09:53:24.000Z</time>
</trkpt>
<trkpt lat="57.084568" lon="8.794905">
<ele>5.773269</ele>
<time>2026-07-15T09:53:25.000Z</time>
</trkpt>
<trkpt lat="57.084572" lon="8.795000">
<ele>5.764548</ele>
<time>2026-07-15T09:53:26.000Z</time>
</trkpt>
<trkpt lat="57.084579" lon="8.795094">
<ele>5.755865</ele>
<time>2026-07-15T09:53:27.000Z</time>
</trkpt>
<trkpt lat="57.084583" lon="8.795185">
<ele>5.747510</ele>
<time>2026-07-15T09:53:28.000Z</time>
</trkpt>
<trkpt lat="57.084583" lon="8.795277">
<ele>5.739090</ele>
<time>2026-07-15T09:53:29.000Z</time>
</trkpt>
<trkpt lat="57.084587" lon="8.795368">
<ele>5.730735</ele>
<time>2026-07-15T09:53:30.000Z</time>
</trkpt>
<trkpt lat="57.084587" lon="8.795460">
<ele>5.722315</ele>
<time>2026-07-15T09:53:31.000Z</time>
</trkpt>
<trkpt lat="57.084583" lon="8.795553">
<ele>5.713777</ele>
<time>2026-07-15T09:53:32.000Z</time>
</trkpt>
<trkpt lat="57.084583" lon="8.795650">
<ele>5.704900</ele>
<time>2026-07-15T09:53:33.000Z</time>
</trkpt>
<trkpt lat="57.084579" lon="8.795751">
<ele>5.695632</ele>
<time>2026-07-15T09:53:34.000Z</time>
</trkpt>
<trkpt lat="57.084576" lon="8.795850">
<ele>5.686558</ele>
<time>2026-07-15T09:53:35.000Z</time>
</trkpt>
<trkpt lat="57.084568" lon="8.795951">
<ele>5.677217</ele>
<time>2026-07-15T09:53:36.000Z</time>
</trkpt>
<trkpt lat="57.084560" lon="8.796053">
<ele>5.672771</ele>
<time>2026-07-15T09:53:37.000Z</time>
</trkpt>
<trkpt lat="57.084553" lon="8.796155">
<ele>5.676039</ele>
<time>2026-07-15T09:53:38.000Z</time>
</trkpt>
<trkpt lat="57.084545" lon="8.796257">
<ele>5.679315</ele>
<time>2026-07-15T09:53:39.000Z</time>
</trkpt>
<trkpt lat="57.084537" lon="8.796358">
<ele>5.682560</ele>
<time>2026-07-15T09:53:40.000Z</time>
</trkpt>
<trkpt lat="57.084526" lon="8.796459">
<ele>5.685834</ele>
<time>2026-07-15T09:53:41.000Z</time>
</trkpt>
<trkpt lat="57.084511" lon="8.796562">
<ele>5.689224</ele>
<time>2026-07-15T09:53:42.000Z</time>
</trkpt>
<trkpt lat="57.084495" lon="8.796660">
<ele>5.692477</ele>
<time>2026-07-15T09:53:43.000Z</time>
</trkpt>
<trkpt lat="57.084480" lon="8.796756">
<ele>5.695652</ele>
<time>2026-07-15T09:53:44.000Z</time>
</trkpt>
<trkpt lat="57.084469" lon="8.796848">
<ele>5.698646</ele>
<time>2026-07-15T09:53:45.000Z</time>
</trkpt>
<trkpt lat="57.084457" lon="8.796952">
<ele>5.702026</ele>
<time>2026-07-15T09:53:46.000Z</time>
</trkpt>
<trkpt lat="57.084450" lon="8.797043">
<ele>5.704947</ele>
<time>2026-07-15T09:53:47.000Z</time>
</trkpt>
<trkpt lat="57.084442" lon="8.797140">
<ele>5.708066</ele>
<time>2026-07-15T09:53:48.000Z</time>
</trkpt>
<trkpt lat="57.084434" lon="8.797226">
<ele>5.710840</ele>
<time>2026-07-15T09:53:49.000Z</time>
</trkpt>
<trkpt lat="57.084431" lon="8.797309">
<ele>5.713484</ele>
<time>2026-07-15T09:53:50.000Z</time>
</trkpt>
<trkpt lat="57.084427" lon="8.797394">
<ele>5.716196</ele>
<time>2026-07-15T09:53:51.000Z</time>
</trkpt>
<trkpt lat="57.084431" lon="8.797473">
<ele>5.718718</ele>
<time>2026-07-15T09:53:52.000Z</time>
</trkpt>
<trkpt lat="57.084427" lon="8.797556">
<ele>5.721367</ele>
<time>2026-07-15T09:53:53.000Z</time>
</trkpt>
<trkpt lat="57.084427" lon="8.797633">
<ele>5.723814</ele>
<time>2026-07-15T09:53:54.000Z</time>
</trkpt>
<trkpt lat="57.084423" lon="8.797719">
<ele>5.726558</ele>
<time>2026-07-15T09:53:55.000Z</time>
</trkpt>
<trkpt lat="57.084423" lon="8.797802">
<ele>5.729196</ele>
<time>2026-07-15T09:53:56.000Z</time>
</trkpt>
<trkpt lat="57.084415" lon="8.797890">
<ele>5.732033</ele>
<time>2026-07-15T09:53:57.000Z</time>
</trkpt>
<trkpt lat="57.084408" lon="8.797979">
<ele>5.734891</ele>
<time>2026-07-15T09:53:58.000Z</time>
</trkpt>
<trkpt lat="57.084400" lon="8.798070">
<ele>5.737822</ele>
<time>2026-07-15T09:53:59.000Z</time>
</trkpt>
<trkpt lat="57.084385" lon="8.798163">
<ele>5.740905</ele>
<time>2026-07-15T09:54:00.000Z</time>
</trkpt>
<trkpt lat="57.084373" lon="8.798255">
<ele>5.743913</ele>
<time>2026-07-15T09:54:01.000Z</time>
</trkpt>
<trkpt lat="57.084362" lon="8.798346">
<ele>5.746876</ele>
<time>2026-07-15T09:54:02.000Z</time>
</trkpt>
<trkpt lat="57.084354" lon="8.798438">
<ele>5.749838</ele>
<time>2026-07-15T09:54:03.000Z</time>
</trkpt>
<trkpt lat="57.084347" lon="8.798535">
<ele>5.752948</ele>
<time>2026-07-15T09:54:04.000Z</time>
</trkpt>
<trkpt lat="57.084335" lon="8.798634">
<ele>5.756173</ele>
<time>2026-07-15T09:54:05.000Z</time>
</trkpt>
<trkpt lat="57.084328" lon="8.798732">
<ele>5.759315</ele>
<time>2026-07-15T09:54:06.000Z</time>
</trkpt>
<trkpt lat="57.084320" lon="8.798826">
<ele>5.762339</ele>
<time>2026-07-15T09:54:07.000Z</time>
</trkpt>
<trkpt lat="57.084312" lon="8.798920">
<ele>5.765364</ele>
<time>2026-07-15T09:54:08.000Z</time>
</trkpt>
<trkpt lat="57.084312" lon="8.799018">
<ele>5.768479</ele>
<time>2026-07-15T09:54:09.000Z</time>
</trkpt>
<trkpt lat="57.084316" lon="8.799117">
<ele>5.771634</ele>
<time>2026-07-15T09:54:10.000Z</time>
</trkpt>
<trkpt lat="57.084320" lon="8.799217">
<ele>5.774822</ele>
<time>2026-07-15T09:54:11.000Z</time>
</trkpt>
<trkpt lat="57.084328" lon="8.799313">
<ele>5.778149</ele>
<time>2026-07-15T09:54:12.000Z</time>
</trkpt>
<trkpt lat="57.084335" lon="8.799410">
<ele>5.781878</ele>
<time>2026-07-15T09:54:13.000Z</time>
</trkpt>
<trkpt lat="57.084347" lon="8.799503">
<ele>5.785520</ele>
<time>2026-07-15T09:54:14.000Z</time>
</trkpt>
<trkpt lat="57.084358" lon="8.799591">
<ele>5.788961</ele>
<time>2026-07-15T09:54:15.000Z</time>
</trkpt>
<trkpt lat="57.084366" lon="8.799685">
<ele>5.792586</ele>
<time>2026-07-15T09:54:16.000Z</time>
</trkpt>
<trkpt lat="57.084374" lon="8.799777">
<ele>5.796137</ele>
<time>2026-07-15T09:54:17.000Z</time>
</trkpt>
<trkpt lat="57.084377" lon="8.799870">
<ele>5.799687</ele>
<time>2026-07-15T09:54:18.000Z</time>
</trkpt>
<trkpt lat="57.084377" lon="8.799966">
<ele>5.803345</ele>
<time>2026-07-15T09:54:19.000Z</time>
</trkpt>
<trkpt lat="57.084374" lon="8.800057">
<ele>5.806819</ele>
<time>2026-07-15T09:54:20.000Z</time>
</trkpt>
<trkpt lat="57.084366" lon="8.800154">
<ele>5.810557</ele>
<time>2026-07-15T09:54:21.000Z</time>
</trkpt>
<trkpt lat="57.084354" lon="8.800249">
<ele>5.814274</ele>
<time>2026-07-15T09:54:22.000Z</time>
</trkpt>
<trkpt lat="57.084343" lon="8.800347">
<ele>5.818087</ele>
<time>2026-07-15T09:54:23.000Z</time>
</trkpt>
<trkpt lat="57.084324" lon="8.800444">
<ele>5.822016</ele>
<time>2026-07-15T09:54:24.000Z</time>
</trkpt>
<trkpt lat="57.084308" lon="8.800545">
<ele>5.826025</ele>
<time>2026-07-15T09:54:25.000Z</time>
</trkpt>
<trkpt lat="57.084294" lon="8.800641">
<ele>5.829812</ele>
<time>2026-07-15T09:54:26.000Z</time>
</trkpt>
<trkpt lat="57.084282" lon="8.800743">
<ele>5.833789</ele>
<time>2026-07-15T09:54:27.000Z</time>
</trkpt>
<trkpt lat="57.084266" lon="8.800843">
<ele>5.837761</ele>
<time>2026-07-15T09:54:28.000Z</time>
</trkpt>
<trkpt lat="57.084255" lon="8.800944">
<ele>5.841686</ele>
<time>2026-07-15T09:54:29.000Z</time>
</trkpt>
<trkpt lat="57.084244" lon="8.801047">
<ele>5.845686</ele>
<time>2026-07-15T09:54:30.000Z</time>
</trkpt>
<trkpt lat="57.084236" lon="8.801150">
<ele>5.849651</ele>
<time>2026-07-15T09:54:31.000Z</time>
</trkpt>
<trkpt lat="57.084225" lon="8.801253">
<ele>5.853651</ele>
<time>2026-07-15T09:54:32.000Z</time>
</trkpt>
<trkpt lat="57.084213" lon="8.801353">
<ele>5.857553</ele>
<time>2026-07-15T09:54:33.000Z</time>
</trkpt>
<trkpt lat="57.084206" lon="8.801454">
<ele>5.861433</ele>
<time>2026-07-15T09:54:34.000Z</time>
</trkpt>
<trkpt lat="57.084198" lon="8.801556">
<ele>5.865360</ele>
<time>2026-07-15T09:54:35.000Z</time>
</trkpt>
<trkpt lat="57.084187" lon="8.801656">
<ele>5.869248</ele>
<time>2026-07-15T09:54:36.000Z</time>
</trkpt>
<trkpt lat="57.084183" lon="8.801758">
<ele>5.873145</ele>
<time>2026-07-15T09:54:37.000Z</time>
</trkpt>
<trkpt lat="57.084175" lon="8.801858">
<ele>5.876996</ele>
<time>2026-07-15T09:54:38.000Z</time>
</trkpt>
<trkpt lat="57.084167" lon="8.801960">
<ele>5.880923</ele>
<time>2026-07-15T09:54:39.000Z</time>
</trkpt>
<trkpt lat="57.084160" lon="8.802061">
<ele>5.884803</ele>
<time>2026-07-15T09:54:40.000Z</time>
</trkpt>
<trkpt lat="57.084152" lon="8.802161">
<ele>5.888655</ele>
<time>2026-07-15T09:54:41.000Z</time>
</trkpt>
<trkpt lat="57.084141" lon="8.802265">
<ele>5.892692</ele>
<time>2026-07-15T09:54:42.000Z</time>
</trkpt>
<trkpt lat="57.084126" lon="8.802366">
<ele>5.896682</ele>
<time>2026-07-15T09:54:43.000Z</time>
</trkpt>
<trkpt lat="57.084106" lon="8.802470">
<ele>5.900886</ele>
<time>2026-07-15T09:54:44.000Z</time>
</trkpt>
<trkpt lat="57.084084" lon="8.802565">
<ele>5.905228</ele>
<time>2026-07-15T09:54:45.000Z</time>
</trkpt>
<trkpt lat="57.084056" lon="8.802656">
<ele>5.910029</ele>
<time>2026-07-15T09:54:46.000Z</time>
</trkpt>
<trkpt lat="57.084022" lon="8.802741">
<ele>5.914874</ele>
<time>2026-07-15T09:54:47.000Z</time>
</trkpt>
<trkpt lat="57.083984" lon="8.802821">
<ele>5.919751</ele>
<time>2026-07-15T09:54:48.000Z</time>
</trkpt>
<trkpt lat="57.083942" lon="8.802899">
<ele>5.924791</ele>
<time>2026-07-15T09:54:49.000Z</time>
</trkpt>
<trkpt lat="57.083900" lon="8.802976">
<ele>5.929799</ele>
<time>2026-07-15T09:54:50.000Z</time>
</trkpt>
<trkpt lat="57.083858" lon="8.803051">
<ele>5.934743</ele>
<time>2026-07-15T09:54:51.000Z</time>
</trkpt>
<trkpt lat="57.083816" lon="8.803124">
<ele>5.939623</ele>
<time>2026-07-15T09:54:52.000Z</time>
</trkpt>
<trkpt lat="57.083778" lon="8.803194">
<ele>5.944165</ele>
<time>2026-07-15T09:54:53.000Z</time>
</trkpt>
<trkpt lat="57.083736" lon="8.803265">
<ele>5.948982</ele>
<time>2026-07-15T09:54:54.000Z</time>
</trkpt>
<trkpt lat="57.083699" lon="8.803330">
<ele>5.953303</ele>
<time>2026-07-15T09:54:55.000Z</time>
</trkpt>
<trkpt lat="57.083656" lon="8.803399">
<ele>5.958123</ele>
<time>2026-07-15T09:54:56.000Z</time>
</trkpt>
<trkpt lat="57.083614" lon="8.803466">
<ele>5.962818</ele>
<time>2026-07-15T09:54:57.000Z</time>
</trkpt>
<trkpt lat="57.083572" lon="8.803530">
<ele>5.967424</ele>
<time>2026-07-15T09:54:58.000Z</time>
</trkpt>
<trkpt lat="57.083530" lon="8.803596">
<ele>5.972090</ele>
<time>2026-07-15T09:54:59.000Z</time>
</trkpt>
<trkpt lat="57.083500" lon="8.803668">
<ele>5.976254</ele>
<time>2026-07-15T09:55:00.000Z</time>
</trkpt>
<trkpt lat="57.083477" lon="8.803737">
<ele>5.979970</ele>
<time>2026-07-15T09:55:01.000Z</time>
</trkpt>
<trkpt lat="57.083469" lon="8.803800">
<ele>5.982940</ele>
<time>2026-07-15T09:55:02.000Z</time>
</trkpt>
<trkpt lat="57.083458" lon="8.803862">
<ele>5.985934</ele>
<time>2026-07-15T09:55:03.000Z</time>
</trkpt>
<trkpt lat="57.083443" lon="8.803924">
<ele>5.989049</ele>
<time>2026-07-15T09:55:04.000Z</time>
</trkpt>
<trkpt lat="57.083431" lon="8.803991">
<ele>5.992287</ele>
<time>2026-07-15T09:55:05.000Z</time>
</trkpt>
<trkpt lat="57.083412" lon="8.804062">
<ele>5.995920</ele>
<time>2026-07-15T09:55:06.000Z</time>
</trkpt>
<trkpt lat="57.083393" lon="8.804136">
<ele>5.999677</ele>
<time>2026-07-15T09:55:07.000Z</time>
</trkpt>
<trkpt lat="57.083378" lon="8.804216">
<ele>6.003562</ele>
<time>2026-07-15T09:55:08.000Z</time>
</trkpt>
<trkpt lat="57.083363" lon="8.804294">
<ele>6.007360</ele>
<time>2026-07-15T09:55:09.000Z</time>
</trkpt>
<trkpt lat="57.083347" lon="8.804376">
<ele>6.011359</ele>
<time>2026-07-15T09:55:10.000Z</time>
</trkpt>
<trkpt lat="57.083336" lon="8.804457">
<ele>6.015192</ele>
<time>2026-07-15T09:55:11.000Z</time>
</trkpt>
<trkpt lat="57.083324" lon="8.804543">
<ele>6.019268</ele>
<time>2026-07-15T09:55:12.000Z</time>
</trkpt>
<trkpt lat="57.083313" lon="8.804625">
<ele>6.023145</ele>
<time>2026-07-15T09:55:13.000Z</time>
</trkpt>
<trkpt lat="57.083305" lon="8.804708">
<ele>6.027014</ele>
<time>2026-07-15T09:55:14.000Z</time>
</trkpt>
<trkpt lat="57.083294" lon="8.804788">
<ele>6.030802</ele>
<time>2026-07-15T09:55:15.000Z</time>
</trkpt>
<trkpt lat="57.083282" lon="8.804874">
<ele>6.034878</ele>
<time>2026-07-15T09:55:16.000Z</time>
</trkpt>
<trkpt lat="57.083275" lon="8.804959">
<ele>6.038824</ele>
<time>2026-07-15T09:55:17.000Z</time>
</trkpt>
<trkpt lat="57.083263" lon="8.805045">
<ele>6.042900</ele>
<time>2026-07-15T09:55:18.000Z</time>
</trkpt>
<trkpt lat="57.083248" lon="8.805131">
<ele>6.047046</ele>
<time>2026-07-15T09:55:19.000Z</time>
</trkpt>
<trkpt lat="57.083237" lon="8.805219">
<ele>6.051191</ele>
<time>2026-07-15T09:55:20.000Z</time>
</trkpt>
<trkpt lat="57.083221" lon="8.805308">
<ele>6.053847</ele>
<time>2026-07-15T09:55:21.000Z</time>
</trkpt>
<trkpt lat="57.083210" lon="8.805397">
<ele>6.048606</ele>
<time>2026-07-15T09:55:22.000Z</time>
</trkpt>
<trkpt lat="57.083198" lon="8.805485">
<ele>6.043396</ele>
<time>2026-07-15T09:55:23.000Z</time>
</trkpt>
<trkpt lat="57.083183" lon="8.805577">
<ele>6.037881</ele>
<time>2026-07-15T09:55:24.000Z</time>
</trkpt>
<trkpt lat="57.083172" lon="8.805666">
<ele>6.032640</ele>
<time>2026-07-15T09:55:25.000Z</time>
</trkpt>
<trkpt lat="57.083157" lon="8.805750">
<ele>6.027562</ele>
<time>2026-07-15T09:55:26.000Z</time>
</trkpt>
<trkpt lat="57.083145" lon="8.805835">
<ele>6.022519</ele>
<time>2026-07-15T09:55:27.000Z</time>
</trkpt>
<trkpt lat="57.083134" lon="8.805925">
<ele>6.017222</ele>
<time>2026-07-15T09:55:28.000Z</time>
</trkpt>
<trkpt lat="57.083122" lon="8.806015">
<ele>6.011901</ele>
<time>2026-07-15T09:55:29.000Z</time>
</trkpt>
<trkpt lat="57.083114" lon="8.806106">
<ele>6.006608</ele>
<time>2026-07-15T09:55:30.000Z</time>
</trkpt>
<trkpt lat="57.083103" lon="8.806200">
<ele>6.001086</ele>
<time>2026-07-15T09:55:31.000Z</time>
</trkpt>
<trkpt lat="57.083091" lon="8.806291">
<ele>5.995709</ele>
<time>2026-07-15T09:55:32.000Z</time>
</trkpt>
<trkpt lat="57.083076" lon="8.806382">
<ele>5.990248</ele>
<time>2026-07-15T09:55:33.000Z</time>
</trkpt>
<trkpt lat="57.083065" lon="8.806473">
<ele>5.984895</ele>
<time>2026-07-15T09:55:34.000Z</time>
</trkpt>
<trkpt lat="57.083050" lon="8.806564">
<ele>5.979435</ele>
<time>2026-07-15T09:55:35.000Z</time>
</trkpt>
<trkpt lat="57.083038" lon="8.806656">
<ele>5.974002</ele>
<time>2026-07-15T09:55:36.000Z</time>
</trkpt>
<trkpt lat="57.083027" lon="8.806748">
<ele>5.968593</ele>
<time>2026-07-15T09:55:37.000Z</time>
</trkpt>
<trkpt lat="57.083011" lon="8.806840">
<ele>5.963046</ele>
<time>2026-07-15T09:55:38.000Z</time>
</trkpt>
<trkpt lat="57.083000" lon="8.806930">
<ele>5.957749</ele>
<time>2026-07-15T09:55:39.000Z</time>
</trkpt>
<trkpt lat="57.082985" lon="8.807025">
<ele>5.952068</ele>
<time>2026-07-15T09:55:40.000Z</time>
</trkpt>
<trkpt lat="57.082969" lon="8.807118">
<ele>5.946466</ele>
<time>2026-07-15T09:55:41.000Z</time>
</trkpt>
<trkpt lat="57.082958" lon="8.807211">
<ele>5.941001</ele>
<time>2026-07-15T09:55:42.000Z</time>
</trkpt>
<trkpt lat="57.082943" lon="8.807307">
<ele>5.935265</ele>
<time>2026-07-15T09:55:43.000Z</time>
</trkpt>
<trkpt lat="57.082927" lon="8.807403">
<ele>5.929499</ele>
<time>2026-07-15T09:55:44.000Z</time>
</trkpt>
<trkpt lat="57.082909" lon="8.807497">
<ele>5.923776</ele>
<time>2026-07-15T09:55:45.000Z</time>
</trkpt>
<trkpt lat="57.082893" lon="8.807590">
<ele>5.918174</ele>
<time>2026-07-15T09:55:46.000Z</time>
</trkpt>
<trkpt lat="57.082878" lon="8.807680">
<ele>5.912769</ele>
<time>2026-07-15T09:55:47.000Z</time>
</trkpt>
<trkpt lat="57.082862" lon="8.807773">
<ele>5.907167</ele>
<time>2026-07-15T09:55:48.000Z</time>
</trkpt>
<trkpt lat="57.082844" lon="8.807861">
<ele>5.901768</ele>
<time>2026-07-15T09:55:49.000Z</time>
</trkpt>
<trkpt lat="57.082828" lon="8.807953">
<ele>5.896221</ele>
<time>2026-07-15T09:55:50.000Z</time>
</trkpt>
<trkpt lat="57.082813" lon="8.808046">
<ele>5.890650</ele>
<time>2026-07-15T09:55:51.000Z</time>
</trkpt>
<trkpt lat="57.082798" lon="8.808139">
<ele>5.885080</ele>
<time>2026-07-15T09:55:52.000Z</time>
</trkpt>
<trkpt lat="57.082783" lon="8.808231">
<ele>5.879564</ele>
<time>2026-07-15T09:55:53.000Z</time>
</trkpt>
<trkpt lat="57.082767" lon="8.808326">
<ele>5.873853</ele>
<time>2026-07-15T09:55:54.000Z</time>
</trkpt>
<trkpt lat="57.082756" lon="8.808419">
<ele>5.868388</ele>
<time>2026-07-15T09:55:55.000Z</time>
</trkpt>
<trkpt lat="57.082740" lon="8.808516">
<ele>5.867554</ele>
<time>2026-07-15T09:55:56.000Z</time>
</trkpt>
<trkpt lat="57.082726" lon="8.808612">
<ele>5.875172</ele>
<time>2026-07-15T09:55:57.000Z</time>
</trkpt>
<trkpt lat="57.082714" lon="8.808707">
<ele>5.882647</ele>
<time>2026-07-15T09:55:58.000Z</time>
</trkpt>
<trkpt lat="57.082702" lon="8.808801">
<ele>5.890048</ele>
<time>2026-07-15T09:55:59.000Z</time>
</trkpt>
<trkpt lat="57.082691" lon="8.808896">
<ele>5.897492</ele>
<time>2026-07-15T09:56:00.000Z</time>
</trkpt>
<trkpt lat="57.082680" lon="8.808993">
<ele>5.905087</ele>
<time>2026-07-15T09:56:01.000Z</time>
</trkpt>
<trkpt lat="57.082664" lon="8.809089">
<ele>5.912782</ele>
<time>2026-07-15T09:56:02.000Z</time>
</trkpt>
<trkpt lat="57.082653" lon="8.809184">
<ele>5.920227</ele>
<time>2026-07-15T09:56:03.000Z</time>
</trkpt>
<trkpt lat="57.082641" lon="8.809282">
<ele>5.927926</ele>
<time>2026-07-15T09:56:04.000Z</time>
</trkpt>
<trkpt lat="57.082630" lon="8.809378">
<ele>5.935446</ele>
<time>2026-07-15T09:56:05.000Z</time>
</trkpt>
<trkpt lat="57.082618" lon="8.809476">
<ele>5.943145</ele>
<time>2026-07-15T09:56:06.000Z</time>
</trkpt>
<trkpt lat="57.082603" lon="8.809566">
<ele>5.950360</ele>
<time>2026-07-15T09:56:07.000Z</time>
</trkpt>
<trkpt lat="57.082592" lon="8.809659">
<ele>5.957655</ele>
<time>2026-07-15T09:56:08.000Z</time>
</trkpt>
<trkpt lat="57.082584" lon="8.809755">
<ele>5.965098</ele>
<time>2026-07-15T09:56:09.000Z</time>
</trkpt>
<trkpt lat="57.082573" lon="8.809848">
<ele>5.972393</ele>
<time>2026-07-15T09:56:10.000Z</time>
</trkpt>
<trkpt lat="57.082562" lon="8.809945">
<ele>5.979987</ele>
<time>2026-07-15T09:56:11.000Z</time>
</trkpt>
<trkpt lat="57.082554" lon="8.810041">
<ele>5.987431</ele>
<time>2026-07-15T09:56:12.000Z</time>
</trkpt>
<trkpt lat="57.082542" lon="8.810139">
<ele>5.995130</ele>
<time>2026-07-15T09:56:13.000Z</time>
</trkpt>
<trkpt lat="57.082535" lon="8.810238">
<ele>6.002782</ele>
<time>2026-07-15T09:56:14.000Z</time>
</trkpt>
<trkpt lat="57.082523" lon="8.810331">
<ele>6.010108</ele>
<time>2026-07-15T09:56:15.000Z</time>
</trkpt>
<trkpt lat="57.082512" lon="8.810430">
<ele>6.017853</ele>
<time>2026-07-15T09:56:16.000Z</time>
</trkpt>
<trkpt lat="57.082500" lon="8.810526">
<ele>6.025402</ele>
<time>2026-07-15T09:56:17.000Z</time>
</trkpt>
<trkpt lat="57.082489" lon="8.810621">
<ele>6.032847</ele>
<time>2026-07-15T09:56:18.000Z</time>
</trkpt>
<trkpt lat="57.082478" lon="8.810717">
<ele>6.040366</ele>
<time>2026-07-15T09:56:19.000Z</time>
</trkpt>
<trkpt lat="57.082470" lon="8.810816">
<ele>6.048038</ele>
<time>2026-07-15T09:56:20.000Z</time>
</trkpt>
<trkpt lat="57.082459" lon="8.810910">
<ele>6.055407</ele>
<time>2026-07-15T09:56:21.000Z</time>
</trkpt>
<trkpt lat="57.082443" lon="8.811005">
<ele>6.063030</ele>
<time>2026-07-15T09:56:22.000Z</time>
</trkpt>
<trkpt lat="57.082436" lon="8.811100">
<ele>6.070378</ele>
<time>2026-07-15T09:56:23.000Z</time>
</trkpt>
<trkpt lat="57.082428" lon="8.811196">
<ele>6.077821</ele>
<time>2026-07-15T09:56:24.000Z</time>
</trkpt>
<trkpt lat="57.082417" lon="8.811287">
<ele>6.084966</ele>
<time>2026-07-15T09:56:25.000Z</time>
</trkpt>
<trkpt lat="57.082401" lon="8.811381">
<ele>6.092516</ele>
<time>2026-07-15T09:56:26.000Z</time>
</trkpt>
<trkpt lat="57.082390" lon="8.811478">
<ele>6.100110</ele>
<time>2026-07-15T09:56:27.000Z</time>
</trkpt>
<trkpt lat="57.082378" lon="8.811570">
<ele>6.107362</ele>
<time>2026-07-15T09:56:28.000Z</time>
</trkpt>
<trkpt lat="57.082363" lon="8.811668">
<ele>6.115165</ele>
<time>2026-07-15T09:56:29.000Z</time>
</trkpt>
<trkpt lat="57.082348" lon="8.811763">
<ele>6.126762</ele>
<time>2026-07-15T09:56:30.000Z</time>
</trkpt>
<trkpt lat="57.082336" lon="8.811856">
<ele>6.140815</ele>
<time>2026-07-15T09:56:31.000Z</time>
</trkpt>
<trkpt lat="57.082325" lon="8.811950">
<ele>6.154951</ele>
<time>2026-07-15T09:56:32.000Z</time>
</trkpt>
<trkpt lat="57.082310" lon="8.812042">
<ele>6.169072</ele>
<time>2026-07-15T09:56:33.000Z</time>
</trkpt>
<trkpt lat="57.082295" lon="8.812135">
<ele>6.183334</ele>
<time>2026-07-15T09:56:34.000Z</time>
</trkpt>
<trkpt lat="57.082283" lon="8.812233">
<ele>6.198103</ele>
<time>2026-07-15T09:56:35.000Z</time>
</trkpt>
<trkpt lat="57.082272" lon="8.812325">
<ele>6.211952</ele>
<time>2026-07-15T09:56:36.000Z</time>
</trkpt>
<trkpt lat="57.082260" lon="8.812419">
<ele>6.226147</ele>
<time>2026-07-15T09:56:37.000Z</time>
</trkpt>
<trkpt lat="57.082245" lon="8.812517">
<ele>6.241116</ele>
<time>2026-07-15T09:56:38.000Z</time>
</trkpt>
<trkpt lat="57.082233" lon="8.812620">
<ele>6.256602</ele>
<time>2026-07-15T09:56:39.000Z</time>
</trkpt>
<trkpt lat="57.082218" lon="8.812722">
<ele>6.272137</ele>
<time>2026-07-15T09:56:40.000Z</time>
</trkpt>
<trkpt lat="57.082203" lon="8.812818">
<ele>6.286823</ele>
<time>2026-07-15T09:56:41.000Z</time>
</trkpt>
<trkpt lat="57.082188" lon="8.812914">
<ele>6.301508</ele>
<time>2026-07-15T09:56:42.000Z</time>
</trkpt>
<trkpt lat="57.082176" lon="8.813014">
<ele>6.316564</ele>
<time>2026-07-15T09:56:43.000Z</time>
</trkpt>
<trkpt lat="57.082161" lon="8.813112">
<ele>6.331532</ele>
<time>2026-07-15T09:56:44.000Z</time>
</trkpt>
<trkpt lat="57.082149" lon="8.813211">
<ele>6.346444</ele>
<time>2026-07-15T09:56:45.000Z</time>
</trkpt>
<trkpt lat="57.082138" lon="8.813307">
<ele>6.360868</ele>
<time>2026-07-15T09:56:46.000Z</time>
</trkpt>
<trkpt lat="57.082123" lon="8.813411">
<ele>6.376687</ele>
<time>2026-07-15T09:56:47.000Z</time>
</trkpt>
<trkpt lat="57.082111" lon="8.813513">
<ele>6.392030</ele>
<time>2026-07-15T09:56:48.000Z</time>
</trkpt>
<trkpt lat="57.082096" lon="8.813604">
<ele>6.406011</ele>
<time>2026-07-15T09:56:49.000Z</time>
</trkpt>
<trkpt lat="57.082081" lon="8.813686">
<ele>6.418731</ele>
<time>2026-07-15T09:56:50.000Z</time>
</trkpt>
<trkpt lat="57.082066" lon="8.813763">
<ele>6.430756</ele>
<time>2026-07-15T09:56:51.000Z</time>
</trkpt>
<trkpt lat="57.082054" lon="8.813846">
<ele>6.443383</ele>
<time>2026-07-15T09:56:52.000Z</time>
</trkpt>
<trkpt lat="57.082046" lon="8.813933">
<ele>6.456355</ele>
<time>2026-07-15T09:56:53.000Z</time>
</trkpt>
<trkpt lat="57.082035" lon="8.814024">
<ele>6.470061</ele>
<time>2026-07-15T09:56:54.000Z</time>
</trkpt>
<trkpt lat="57.082024" lon="8.814106">
<ele>6.482478</ele>
<time>2026-07-15T09:56:55.000Z</time>
</trkpt>
<trkpt lat="57.082012" lon="8.814186">
<ele>6.494679</ele>
<time>2026-07-15T09:56:56.000Z</time>
</trkpt>
<trkpt lat="57.082001" lon="8.814255">
<ele>6.505251</ele>
<time>2026-07-15T09:56:57.000Z</time>
</trkpt>
<trkpt lat="57.081989" lon="8.814329">
<ele>6.516604</ele>
<time>2026-07-15T09:56:58.000Z</time>
</trkpt>
<trkpt lat="57.081982" lon="8.814407">
<ele>6.528227</ele>
<time>2026-07-15T09:56:59.000Z</time>
</trkpt>
<trkpt lat="57.081982" lon="8.814491">
<ele>6.540576</ele>
<time>2026-07-15T09:57:00.000Z</time>
</trkpt>
<trkpt lat="57.081978" lon="8.814580">
<ele>6.553706</ele>
<time>2026-07-15T09:57:01.000Z</time>
</trkpt>
<trkpt lat="57.081970" lon="8.814679">
<ele>6.568420</ele>
<time>2026-07-15T09:57:02.000Z</time>
</trkpt>
<trkpt lat="57.081962" lon="8.814783">
<ele>6.583862</ele>
<time>2026-07-15T09:57:03.000Z</time>
</trkpt>
<trkpt lat="57.081951" lon="8.814882">
<ele>6.598718</ele>
<time>2026-07-15T09:57:04.000Z</time>
</trkpt>
<trkpt lat="57.081940" lon="8.814981">
<ele>6.613312</ele>
<time>2026-07-15T09:57:05.000Z</time>
</trkpt>
<trkpt lat="57.081932" lon="8.815080">
<ele>6.627578</ele>
<time>2026-07-15T09:57:06.000Z</time>
</trkpt>
<trkpt lat="57.081921" lon="8.815173">
<ele>6.641144</ele>
<time>2026-07-15T09:57:07.000Z</time>
</trkpt>
<trkpt lat="57.081917" lon="8.815275">
<ele>6.655720</ele>
<time>2026-07-15T09:57:08.000Z</time>
</trkpt>
<trkpt lat="57.081905" lon="8.815374">
<ele>6.670178</ele>
<time>2026-07-15T09:57:09.000Z</time>
</trkpt>
<trkpt lat="57.081901" lon="8.815471">
<ele>6.684043</ele>
<time>2026-07-15T09:57:10.000Z</time>
</trkpt>
<trkpt lat="57.081894" lon="8.815575">
<ele>6.698980</ele>
<time>2026-07-15T09:57:11.000Z</time>
</trkpt>
<trkpt lat="57.081890" lon="8.815675">
<ele>6.713272</ele>
<time>2026-07-15T09:57:12.000Z</time>
</trkpt>
<trkpt lat="57.081882" lon="8.815774">
<ele>6.727538</ele>
<time>2026-07-15T09:57:13.000Z</time>
</trkpt>
<trkpt lat="57.081879" lon="8.815867">
<ele>6.740817</ele>
<time>2026-07-15T09:57:14.000Z</time>
</trkpt>
<trkpt lat="57.081871" lon="8.815963">
<ele>6.754661</ele>
<time>2026-07-15T09:57:15.000Z</time>
</trkpt>
<trkpt lat="57.081863" lon="8.816058">
<ele>6.768363</ele>
<time>2026-07-15T09:57:16.000Z</time>
</trkpt>
<trkpt lat="57.081860" lon="8.816151">
<ele>6.781642</ele>
<time>2026-07-15T09:57:17.000Z</time>
</trkpt>
<trkpt lat="57.081860" lon="8.816236">
<ele>6.793758</ele>
<time>2026-07-15T09:57:18.000Z</time>
</trkpt>
<trkpt lat="57.081856" lon="8.816329">
<ele>6.807055</ele>
<time>2026-07-15T09:57:19.000Z</time>
</trkpt>
<trkpt lat="57.081848" lon="8.816426">
<ele>6.821039</ele>
<time>2026-07-15T09:57:20.000Z</time>
</trkpt>
<trkpt lat="57.081840" lon="8.816523">
<ele>6.835023</ele>
<time>2026-07-15T09:57:21.000Z</time>
</trkpt>
<trkpt lat="57.081821" lon="8.816630">
<ele>6.851068</ele>
<time>2026-07-15T09:57:22.000Z</time>
</trkpt>
<trkpt lat="57.081806" lon="8.816732">
<ele>6.866129</ele>
<time>2026-07-15T09:57:23.000Z</time>
</trkpt>
<trkpt lat="57.081798" lon="8.816828">
<ele>6.879973</ele>
<time>2026-07-15T09:57:24.000Z</time>
</trkpt>
<trkpt lat="57.081783" lon="8.816928">
<ele>6.894759</ele>
<time>2026-07-15T09:57:25.000Z</time>
</trkpt>
<trkpt lat="57.081772" lon="8.817028">
<ele>6.909302</ele>
<time>2026-07-15T09:57:26.000Z</time>
</trkpt>
<trkpt lat="57.081756" lon="8.817131">
<ele>6.924571</ele>
<time>2026-07-15T09:57:27.000Z</time>
</trkpt>
<trkpt lat="57.081741" lon="8.817227">
<ele>6.938809</ele>
<time>2026-07-15T09:57:28.000Z</time>
</trkpt>
<trkpt lat="57.081733" lon="8.817316">
<ele>6.951667</ele>
<time>2026-07-15T09:57:29.000Z</time>
</trkpt>
<trkpt lat="57.081707" lon="8.817427">
<ele>6.968895</ele>
<time>2026-07-15T09:57:30.000Z</time>
</trkpt>
<trkpt lat="57.081691" lon="8.817526">
<ele>6.983617</ele>
<time>2026-07-15T09:57:31.000Z</time>
</trkpt>
<trkpt lat="57.081676" lon="8.817628">
<ele>6.998678</ele>
<time>2026-07-15T09:57:32.000Z</time>
</trkpt>
<trkpt lat="57.081665" lon="8.817715">
<ele>7.011410</ele>
<time>2026-07-15T09:57:33.000Z</time>
</trkpt>
<trkpt lat="57.081657" lon="8.817806">
<ele>7.024550</ele>
<time>2026-07-15T09:57:34.000Z</time>
</trkpt>
<trkpt lat="57.081646" lon="8.817894">
<ele>7.037420</ele>
<time>2026-07-15T09:57:35.000Z</time>
</trkpt>
<trkpt lat="57.081634" lon="8.817988">
<ele>7.051183</ele>
<time>2026-07-15T09:57:36.000Z</time>
</trkpt>
<trkpt lat="57.081627" lon="8.818083">
<ele>7.064848</ele>
<time>2026-07-15T09:57:37.000Z</time>
</trkpt>
<trkpt lat="57.081615" lon="8.818187">
<ele>7.081658</ele>
<time>2026-07-15T09:57:38.000Z</time>
</trkpt>
<trkpt lat="57.081604" lon="8.818285">
<ele>7.103111</ele>
<time>2026-07-15T09:57:39.000Z</time>
</trkpt>
<trkpt lat="57.081600" lon="8.818382">
<ele>7.123965</ele>
<time>2026-07-15T09:57:40.000Z</time>
</trkpt>
<trkpt lat="57.081589" lon="8.818486">
<ele>7.146678</ele>
<time>2026-07-15T09:57:41.000Z</time>
</trkpt>
<trkpt lat="57.081581" lon="8.818588">
<ele>7.168771</ele>
<time>2026-07-15T09:57:42.000Z</time>
</trkpt>
<trkpt lat="57.081573" lon="8.818692">
<ele>7.191288</ele>
<time>2026-07-15T09:57:43.000Z</time>
</trkpt>
<trkpt lat="57.081562" lon="8.818792">
<ele>7.213160</ele>
<time>2026-07-15T09:57:44.000Z</time>
</trkpt>
<trkpt lat="57.081554" lon="8.818890">
<ele>7.234405</ele>
<time>2026-07-15T09:57:45.000Z</time>
</trkpt>
<trkpt lat="57.081543" lon="8.818990">
<ele>7.256277</ele>
<time>2026-07-15T09:57:46.000Z</time>
</trkpt>
<trkpt lat="57.081532" lon="8.819092">
<ele>7.278570</ele>
<time>2026-07-15T09:57:47.000Z</time>
</trkpt>
<trkpt lat="57.081528" lon="8.819189">
<ele>7.299424</ele>
<time>2026-07-15T09:57:48.000Z</time>
</trkpt>
<trkpt lat="57.081536" lon="8.819273">
<ele>7.317706</ele>
<time>2026-07-15T09:57:49.000Z</time>
</trkpt>
<trkpt lat="57.081547" lon="8.819347">
<ele>7.334153</ele>
<time>2026-07-15T09:57:50.000Z</time>
</trkpt>
<trkpt lat="57.081570" lon="8.819396">
<ele>7.348033</ele>
<time>2026-07-15T09:57:51.000Z</time>
</trkpt>
<trkpt lat="57.081596" lon="8.819431">
<ele>7.360741</ele>
<time>2026-07-15T09:57:52.000Z</time>
</trkpt>
<trkpt lat="57.081635" lon="8.819453">
<ele>7.376832</ele>
<time>2026-07-15T09:57:53.000Z</time>
</trkpt>
<trkpt lat="57.081670" lon="8.819465">
<ele>7.390876</ele>
<time>2026-07-15T09:57:54.000Z</time>
</trkpt>
<trkpt lat="57.081715" lon="8.819478">
<ele>7.408845</ele>
<time>2026-07-15T09:57:55.000Z</time>
</trkpt>
<trkpt lat="57.081755" lon="8.819488">
<ele>7.424769</ele>
<time>2026-07-15T09:57:56.000Z</time>
</trkpt>
<trkpt lat="57.081801" lon="8.819498">
<ele>7.443041</ele>
<time>2026-07-15T09:57:57.000Z</time>
</trkpt>
<trkpt lat="57.081848" lon="8.819511">
<ele>7.461789</ele>
<time>2026-07-15T09:57:58.000Z</time>
</trkpt>
<trkpt lat="57.081890" lon="8.819518">
<ele>7.478425</ele>
<time>2026-07-15T09:57:59.000Z</time>
</trkpt>
<trkpt lat="57.081927" lon="8.819529">
<ele>7.493210</ele>
<time>2026-07-15T09:58:00.000Z</time>
</trkpt>
<trkpt lat="57.081969" lon="8.819538">
<ele>7.509890</ele>
<time>2026-07-15T09:58:01.000Z</time>
</trkpt>
<trkpt lat="57.082009" lon="8.819545">
<ele>7.525740</ele>
<time>2026-07-15T09:58:02.000Z</time>
</trkpt>
<trkpt lat="57.082046" lon="8.819549">
<ele>7.540361</ele>
<time>2026-07-15T09:58:03.000Z</time>
</trkpt>
<trkpt lat="57.082085" lon="8.819556">
<ele>7.555818</ele>
<time>2026-07-15T09:58:04.000Z</time>
</trkpt>
<trkpt lat="57.082122" lon="8.819563">
<ele>7.570491</ele>
<time>2026-07-15T09:58:05.000Z</time>
</trkpt>
<trkpt lat="57.082162" lon="8.819570">
<ele>7.586341</ele>
<time>2026-07-15T09:58:06.000Z</time>
</trkpt>
<trkpt lat="57.082203" lon="8.819573">
<ele>7.602527</ele>
<time>2026-07-15T09:58:07.000Z</time>
</trkpt>
<trkpt lat="57.082245" lon="8.819583">
<ele>7.619233</ele>
<time>2026-07-15T09:58:08.000Z</time>
</trkpt>
<trkpt lat="57.082286" lon="8.819591">
<ele>7.635497</ele>
<time>2026-07-15T09:58:09.000Z</time>
</trkpt>
<trkpt lat="57.082325" lon="8.819595">
<ele>7.650906</ele>
<time>2026-07-15T09:58:10.000Z</time>
</trkpt>
<trkpt lat="57.082367" lon="8.819602">
<ele>7.667542</ele>
<time>2026-07-15T09:58:11.000Z</time>
</trkpt>
<trkpt lat="57.082406" lon="8.819607">
<ele>7.682963</ele>
<time>2026-07-15T09:58:12.000Z</time>
</trkpt>
<trkpt lat="57.082454" lon="8.819612">
<ele>7.701928</ele>
<time>2026-07-15T09:58:13.000Z</time>
</trkpt>
<trkpt lat="57.082501" lon="8.819620">
<ele>7.720548</ele>
<time>2026-07-15T09:58:14.000Z</time>
</trkpt>
<trkpt lat="57.082551" lon="8.819633">
<ele>7.740468</ele>
<time>2026-07-15T09:58:15.000Z</time>
</trkpt>
<trkpt lat="57.082592" lon="8.819635">
<ele>7.756647</ele>
<time>2026-07-15T09:58:16.000Z</time>
</trkpt>
<trkpt lat="57.082631" lon="8.819633">
<ele>7.772037</ele>
<time>2026-07-15T09:58:17.000Z</time>
</trkpt>
<trkpt lat="57.082665" lon="8.819630">
<ele>7.785465</ele>
<time>2026-07-15T09:58:18.000Z</time>
</trkpt>
<trkpt lat="57.082704" lon="8.819633">
<ele>7.802144</ele>
<time>2026-07-15T09:58:19.000Z</time>
</trkpt>
<trkpt lat="57.082745" lon="8.819639">
<ele>7.819790</ele>
<time>2026-07-15T09:58:20.000Z</time>
</trkpt>
<trkpt lat="57.082795" lon="8.819656">
<ele>7.841604</ele>
<time>2026-07-15T09:58:21.000Z</time>
</trkpt>
<trkpt lat="57.082836" lon="8.819662">
<ele>7.859250</ele>
<time>2026-07-15T09:58:22.000Z</time>
</trkpt>
<trkpt lat="57.082879" lon="8.819670">
<ele>7.877792</ele>
<time>2026-07-15T09:58:23.000Z</time>
</trkpt>
<trkpt lat="57.082925" lon="8.819674">
<ele>7.897549</ele>
<time>2026-07-15T09:58:24.000Z</time>
</trkpt>
<trkpt lat="57.082978" lon="8.819685">
<ele>7.920432</ele>
<time>2026-07-15T09:58:25.000Z</time>
</trkpt>
<trkpt lat="57.083031" lon="8.819701">
<ele>7.943475</ele>
<time>2026-07-15T09:58:26.000Z</time>
</trkpt>
<trkpt lat="57.083081" lon="8.819717">
<ele>7.965248</ele>
<time>2026-07-15T09:58:27.000Z</time>
</trkpt>
<trkpt lat="57.083130" lon="8.819732">
<ele>7.986559</ele>
<time>2026-07-15T09:58:28.000Z</time>
</trkpt>
<trkpt lat="57.083180" lon="8.819741">
<ele>8.008113</ele>
<time>2026-07-15T09:58:29.000Z</time>
</trkpt>
<trkpt lat="57.083225" lon="8.819753">
<ele>8.027621</ele>
<time>2026-07-15T09:58:30.000Z</time>
</trkpt>
<trkpt lat="57.083270" lon="8.819760">
<ele>8.046996</ele>
<time>2026-07-15T09:58:31.000Z</time>
</trkpt>
<trkpt lat="57.083316" lon="8.819770">
<ele>8.066869</ele>
<time>2026-07-15T09:58:32.000Z</time>
</trkpt>
<trkpt lat="57.083352" lon="8.819782">
<ele>8.082565</ele>
<time>2026-07-15T09:58:33.000Z</time>
</trkpt>
<trkpt lat="57.083392" lon="8.819801">
<ele>8.100289</ele>
<time>2026-07-15T09:58:34.000Z</time>
</trkpt>
<trkpt lat="57.083432" lon="8.819828">
<ele>8.118568</ele>
<time>2026-07-15T09:58:35.000Z</time>
</trkpt>
<trkpt lat="57.083465" lon="8.819885">
<ele>8.137986</ele>
<time>2026-07-15T09:58:36.000Z</time>
</trkpt>
<trkpt lat="57.083485" lon="8.819954">
<ele>8.156218</ele>
<time>2026-07-15T09:58:37.000Z</time>
</trkpt>
<trkpt lat="57.083492" lon="8.820031">
<ele>8.174419</ele>
<time>2026-07-15T09:58:38.000Z</time>
</trkpt>
<trkpt lat="57.083492" lon="8.820112">
<ele>8.193304</ele>
<time>2026-07-15T09:58:39.000Z</time>
</trkpt>
<trkpt lat="57.083485" lon="8.820205">
<ele>8.215193</ele>
<time>2026-07-15T09:58:40.000Z</time>
</trkpt>
<trkpt lat="57.083474" lon="8.820290">
<ele>8.235564</ele>
<time>2026-07-15T09:58:41.000Z</time>
</trkpt>
<trkpt lat="57.083464" lon="8.820369">
<ele>8.254475</ele>
<time>2026-07-15T09:58:42.000Z</time>
</trkpt>
<trkpt lat="57.083458" lon="8.820438">
<ele>8.270767</ele>
<time>2026-07-15T09:58:43.000Z</time>
</trkpt>
<trkpt lat="57.083448" lon="8.820528">
<ele>8.292183</ele>
<time>2026-07-15T09:58:44.000Z</time>
</trkpt>
<trkpt lat="57.083435" lon="8.820656">
<ele>8.322542</ele>
<time>2026-07-15T09:58:45.000Z</time>
</trkpt>
<trkpt lat="57.083428" lon="8.820747">
<ele>8.343970</ele>
<time>2026-07-15T09:58:46.000Z</time>
</trkpt>
<trkpt lat="57.083422" lon="8.820811">
<ele>8.359111</ele>
<time>2026-07-15T09:58:47.000Z</time>
</trkpt>
<trkpt lat="57.083411" lon="8.820905">
<ele>8.381529</ele>
<time>2026-07-15T09:58:48.000Z</time>
</trkpt>
<trkpt lat="57.083401" lon="8.820986">
<ele>8.400894</ele>
<time>2026-07-15T09:58:49.000Z</time>
</trkpt>
<trkpt lat="57.083391" lon="8.821062">
<ele>8.419125</ele>
<time>2026-07-15T09:58:50.000Z</time>
</trkpt>
<trkpt lat="57.083379" lon="8.821164">
<ele>8.443457</ele>
<time>2026-07-15T09:58:51.000Z</time>
</trkpt>
<trkpt lat="57.083367" lon="8.821288">
<ele>8.472821</ele>
<time>2026-07-15T09:58:52.000Z</time>
</trkpt>
<trkpt lat="57.083359" lon="8.821392">
<ele>8.497310</ele>
<time>2026-07-15T09:58:53.000Z</time>
</trkpt>
<trkpt lat="57.083352" lon="8.821488">
<ele>8.519892</ele>
<time>2026-07-15T09:58:54.000Z</time>
</trkpt>
<trkpt lat="57.083342" lon="8.821573">
<ele>8.540168</ele>
<time>2026-07-15T09:58:55.000Z</time>
</trkpt>
<trkpt lat="57.083329" lon="8.821685">
<ele>8.561802</ele>
<time>2026-07-15T09:58:56.000Z</time>
</trkpt>
<trkpt lat="57.083321" lon="8.821783">
<ele>8.571848</ele>
<time>2026-07-15T09:58:57.000Z</time>
</trkpt>
<trkpt lat="57.083313" lon="8.821883">
<ele>8.582093</ele>
<time>2026-07-15T09:58:58.000Z</time>
</trkpt>
<trkpt lat="57.083306" lon="8.821981">
<ele>8.592113</ele>
<time>2026-07-15T09:58:59.000Z</time>
</trkpt>
<trkpt lat="57.083295" lon="8.822081">
<ele>8.602455</ele>
<time>2026-07-15T09:59:00.000Z</time>
</trkpt>
<trkpt lat="57.083283" lon="8.822181">
<ele>8.612835</ele>
<time>2026-07-15T09:59:01.000Z</time>
</trkpt>
<trkpt lat="57.083269" lon="8.822271">
<ele>8.622325</ele>
<time>2026-07-15T09:59:02.000Z</time>
</trkpt>
<trkpt lat="57.083264" lon="8.822365">
<ele>8.631899</ele>
<time>2026-07-15T09:59:03.000Z</time>
</trkpt>
<trkpt lat="57.083257" lon="8.822473">
<ele>8.642924</ele>
<time>2026-07-15T09:59:04.000Z</time>
</trkpt>
<trkpt lat="57.083249" lon="8.822560">
<ele>8.651868</ele>
<time>2026-07-15T09:59:05.000Z</time>
</trkpt>
<trkpt lat="57.083245" lon="8.822656">
<ele>8.661627</ele>
<time>2026-07-15T09:59:06.000Z</time>
</trkpt>
<trkpt lat="57.083235" lon="8.822739">
<ele>8.670245</ele>
<time>2026-07-15T09:59:07.000Z</time>
</trkpt>
<trkpt lat="57.083223" lon="8.822833">
<ele>8.680033</ele>
<time>2026-07-15T09:59:08.000Z</time>
</trkpt>
<trkpt lat="57.083216" lon="8.822911">
<ele>8.688046</ele>
<time>2026-07-15T09:59:09.000Z</time>
</trkpt>
<trkpt lat="57.083211" lon="8.823005">
<ele>8.697620</ele>
<time>2026-07-15T09:59:10.000Z</time>
</trkpt>
<trkpt lat="57.083204" lon="8.823104">
<ele>8.707740</ele>
<time>2026-07-15T09:59:11.000Z</time>
</trkpt>
<trkpt lat="57.083199" lon="8.823203">
<ele>8.717818</ele>
<time>2026-07-15T09:59:12.000Z</time>
</trkpt>
<trkpt lat="57.083189" lon="8.823294">
<ele>8.727229</ele>
<time>2026-07-15T09:59:13.000Z</time>
</trkpt>
<trkpt lat="57.083181" lon="8.823400">
<ele>8.738077</ele>
<time>2026-07-15T09:59:14.000Z</time>
</trkpt>
<trkpt lat="57.083170" lon="8.823508">
<ele>8.749215</ele>
<time>2026-07-15T09:59:15.000Z</time>
</trkpt>
<trkpt lat="57.083158" lon="8.823616">
<ele>8.760389</ele>
<time>2026-07-15T09:59:16.000Z</time>
</trkpt>
<trkpt lat="57.083150" lon="8.823714">
<ele>8.770435</ele>
<time>2026-07-15T09:59:17.000Z</time>
</trkpt>
<trkpt lat="57.083142" lon="8.823824">
<ele>8.781684</ele>
<time>2026-07-15T09:59:18.000Z</time>
</trkpt>
<trkpt lat="57.083132" lon="8.823924">
<ele>8.791991</ele>
<time>2026-07-15T09:59:19.000Z</time>
</trkpt>
<trkpt lat="57.083121" lon="8.824026">
<ele>8.802532</ele>
<time>2026-07-15T09:59:20.000Z</time>
</trkpt>
<trkpt lat="57.083112" lon="8.824125">
<ele>8.812707</ele>
<time>2026-07-15T09:59:21.000Z</time>
</trkpt>
<trkpt lat="57.083101" lon="8.824239">
<ele>8.824443</ele>
<time>2026-07-15T09:59:22.000Z</time>
</trkpt>
<trkpt lat="57.083093" lon="8.824340">
<ele>8.834789</ele>
<time>2026-07-15T09:59:23.000Z</time>
</trkpt>
<trkpt lat="57.083082" lon="8.824444">
<ele>8.845529</ele>
<time>2026-07-15T09:59:24.000Z</time>
</trkpt>
<trkpt lat="57.083074" lon="8.824533">
<ele>8.854673</ele>
<time>2026-07-15T09:59:25.000Z</time>
</trkpt>
<trkpt lat="57.083066" lon="8.824639">
<ele>8.865521</ele>
<time>2026-07-15T09:59:26.000Z</time>
</trkpt>
<trkpt lat="57.083059" lon="8.824736">
<ele>8.875440</ele>
<time>2026-07-15T09:59:27.000Z</time>
</trkpt>
<trkpt lat="57.083051" lon="8.824837">
<ele>8.885786</ele>
<time>2026-07-15T09:59:28.000Z</time>
</trkpt>
<trkpt lat="57.083041" lon="8.824931">
<ele>8.895052</ele>
<time>2026-07-15T09:59:29.000Z</time>
</trkpt>
<trkpt lat="57.083029" lon="8.825039">
<ele>8.903852</ele>
<time>2026-07-15T09:59:30.000Z</time>
</trkpt>
<trkpt lat="57.083021" lon="8.825136">
<ele>8.911684</ele>
<time>2026-07-15T09:59:31.000Z</time>
</trkpt>
<trkpt lat="57.083010" lon="8.825236">
<ele>8.919829</ele>
<time>2026-07-15T09:59:32.000Z</time>
</trkpt>
<trkpt lat="57.082996" lon="8.825325">
<ele>8.927225</ele>
<time>2026-07-15T09:59:33.000Z</time>
</trkpt>
<trkpt lat="57.082983" lon="8.825430">
<ele>8.935822</ele>
<time>2026-07-15T09:59:34.000Z</time>
</trkpt>
<trkpt lat="57.082975" lon="8.825526">
<ele>8.943575</ele>
<time>2026-07-15T09:59:35.000Z</time>
</trkpt>
<trkpt lat="57.082961" lon="8.825627">
<ele>8.951896</ele>
<time>2026-07-15T09:59:36.000Z</time>
</trkpt>
<trkpt lat="57.082953" lon="8.825711">
<ele>8.958704</ele>
<time>2026-07-15T09:59:37.000Z</time>
</trkpt>
<trkpt lat="57.082944" lon="8.825810">
<ele>8.966716</ele>
<time>2026-07-15T09:59:38.000Z</time>
</trkpt>
<trkpt lat="57.082940" lon="8.825897">
<ele>8.973686</ele>
<time>2026-07-15T09:59:39.000Z</time>
</trkpt>
<trkpt lat="57.082936" lon="8.825985">
<ele>8.980736</ele>
<time>2026-07-15T09:59:40.000Z</time>
</trkpt>
<trkpt lat="57.082935" lon="8.826074">
<ele>8.987842</ele>
<time>2026-07-15T09:59:41.000Z</time>
</trkpt>
<trkpt lat="57.082932" lon="8.826173">
<ele>8.995757</ele>
<time>2026-07-15T09:59:42.000Z</time>
</trkpt>
<trkpt lat="57.082925" lon="8.826271">
<ele>9.003648</ele>
<time>2026-07-15T09:59:43.000Z</time>
</trkpt>
<trkpt lat="57.082917" lon="8.826370">
<ele>9.011638</ele>
<time>2026-07-15T09:59:44.000Z</time>
</trkpt>
<trkpt lat="57.082908" lon="8.826455">
<ele>9.018551</ele>
<time>2026-07-15T09:59:45.000Z</time>
</trkpt>
<trkpt lat="57.082899" lon="8.826562">
<ele>9.027194</ele>
<time>2026-07-15T09:59:46.000Z</time>
</trkpt>
<trkpt lat="57.082891" lon="8.826658">
<ele>9.034947</ele>
<time>2026-07-15T09:59:47.000Z</time>
</trkpt>
<trkpt lat="57.082880" lon="8.826758">
<ele>9.043092</ele>
<time>2026-07-15T09:59:48.000Z</time>
</trkpt>
<trkpt lat="57.082868" lon="8.826853">
<ele>9.050878</ele>
<time>2026-07-15T09:59:49.000Z</time>
</trkpt>
<trkpt lat="57.082857" lon="8.826945">
<ele>9.058398</ele>
<time>2026-07-15T09:59:50.000Z</time>
</trkpt>
<trkpt lat="57.082846" lon="8.827040">
<ele>9.066152</ele>
<time>2026-07-15T09:59:51.000Z</time>
</trkpt>
<trkpt lat="57.082834" lon="8.827153">
<ele>9.075343</ele>
<time>2026-07-15T09:59:52.000Z</time>
</trkpt>
<trkpt lat="57.082826" lon="8.827258">
<ele>9.083807</ele>
<time>2026-07-15T09:59:53.000Z</time>
</trkpt>
<trkpt lat="57.082815" lon="8.827358">
<ele>9.091952</ele>
<time>2026-07-15T09:59:54.000Z</time>
</trkpt>
<trkpt lat="57.082810" lon="8.827449">
<ele>9.099253</ele>
<time>2026-07-15T09:59:55.000Z</time>
</trkpt>
<trkpt lat="57.082803" lon="8.827553">
<ele>9.107619</ele>
<time>2026-07-15T09:59:56.000Z</time>
</trkpt>
<trkpt lat="57.082793" lon="8.827650">
<ele>9.115500</ele>
<time>2026-07-15T09:59:57.000Z</time>
</trkpt>
<trkpt lat="57.082781" lon="8.827758">
<ele>9.124300</ele>
<time>2026-07-15T09:59:58.000Z</time>
</trkpt>
<trkpt lat="57.082766" lon="8.827860">
<ele>9.132736</ele>
<time>2026-07-15T09:59:59.000Z</time>
</trkpt>
<trkpt lat="57.082755" lon="8.827965">
<ele>9.141272</ele>
<time>2026-07-15T10:00:00.000Z</time>
</trkpt>
<trkpt lat="57.082745" lon="8.828070">
<ele>9.149782</ele>
<time>2026-07-15T10:00:01.000Z</time>
</trkpt>
<trkpt lat="57.082737" lon="8.828169">
<ele>9.157893</ele>
<time>2026-07-15T10:00:02.000Z</time>
</trkpt>
<trkpt lat="57.082729" lon="8.828262">
<ele>9.171799</ele>
<time>2026-07-15T10:00:03.000Z</time>
</trkpt>
<trkpt lat="57.082718" lon="8.828349">
<ele>9.184991</ele>
<time>2026-07-15T10:00:04.000Z</time>
</trkpt>
<trkpt lat="57.082710" lon="8.828444">
<ele>9.199188</ele>
<time>2026-07-15T10:00:05.000Z</time>
</trkpt>
<trkpt lat="57.082703" lon="8.828538">
<ele>9.213201</ele>
<time>2026-07-15T10:00:06.000Z</time>
</trkpt>
<trkpt lat="57.082693" lon="8.828631">
<ele>9.227202</ele>
<time>2026-07-15T10:00:07.000Z</time>
</trkpt>
<trkpt lat="57.082683" lon="8.828724">
<ele>9.241203</ele>
<time>2026-07-15T10:00:08.000Z</time>
</trkpt>
<trkpt lat="57.082668" lon="8.828822">
<ele>9.256239</ele>
<time>2026-07-15T10:00:09.000Z</time>
</trkpt>
<trkpt lat="57.082657" lon="8.828922">
<ele>9.271307</ele>
<time>2026-07-15T10:00:10.000Z</time>
</trkpt>
<trkpt lat="57.082649" lon="8.829025">
<ele>9.286673</ele>
<time>2026-07-15T10:00:11.000Z</time>
</trkpt>
<trkpt lat="57.082638" lon="8.829130">
<ele>9.302465</ele>
<time>2026-07-15T10:00:12.000Z</time>
</trkpt>
<trkpt lat="57.082626" lon="8.829238">
<ele>9.318745</ele>
<time>2026-07-15T10:00:13.000Z</time>
</trkpt>
<trkpt lat="57.082613" lon="8.829346">
<ele>9.335082</ele>
<time>2026-07-15T10:00:14.000Z</time>
</trkpt>
<trkpt lat="57.082600" lon="8.829453">
<ele>9.351275</ele>
<time>2026-07-15T10:00:15.000Z</time>
</trkpt>
<trkpt lat="57.082592" lon="8.829558">
<ele>9.366933</ele>
<time>2026-07-15T10:00:16.000Z</time>
</trkpt>
<trkpt lat="57.082580" lon="8.829666">
<ele>9.383213</ele>
<time>2026-07-15T10:00:17.000Z</time>
</trkpt>
<trkpt lat="57.082569" lon="8.829774">
<ele>9.399441</ele>
<time>2026-07-15T10:00:18.000Z</time>
</trkpt>
<trkpt lat="57.082558" lon="8.829878">
<ele>9.415088</ele>
<time>2026-07-15T10:00:19.000Z</time>
</trkpt>
<trkpt lat="57.082546" lon="8.829980">
<ele>9.430501</ele>
<time>2026-07-15T10:00:20.000Z</time>
</trkpt>
<trkpt lat="57.082535" lon="8.830077">
<ele>9.445135</ele>
<time>2026-07-15T10:00:21.000Z</time>
</trkpt>
<trkpt lat="57.082527" lon="8.830175">
<ele>9.459771</ele>
<time>2026-07-15T10:00:22.000Z</time>
</trkpt>
<trkpt lat="57.082523" lon="8.830269">
<ele>9.473696</ele>
<time>2026-07-15T10:00:23.000Z</time>
</trkpt>
<trkpt lat="57.082512" lon="8.830369">
<ele>9.488764</ele>
<time>2026-07-15T10:00:24.000Z</time>
</trkpt>
<trkpt lat="57.082508" lon="8.830466">
<ele>9.503131</ele>
<time>2026-07-15T10:00:25.000Z</time>
</trkpt>
<trkpt lat="57.082497" lon="8.830567">
<ele>9.518344</ele>
<time>2026-07-15T10:00:26.000Z</time>
</trkpt>
<trkpt lat="57.082489" lon="8.830665">
<ele>9.532979</ele>
<time>2026-07-15T10:00:27.000Z</time>
</trkpt>
<trkpt lat="57.082481" lon="8.830761">
<ele>9.547323</ele>
<time>2026-07-15T10:00:28.000Z</time>
</trkpt>
<trkpt lat="57.082470" lon="8.830859">
<ele>9.562102</ele>
<time>2026-07-15T10:00:29.000Z</time>
</trkpt>
<trkpt lat="57.082462" lon="8.830962">
<ele>9.577468</ele>
<time>2026-07-15T10:00:30.000Z</time>
</trkpt>
<trkpt lat="57.082455" lon="8.831065">
<ele>9.592798</ele>
<time>2026-07-15T10:00:31.000Z</time>
</trkpt>
<trkpt lat="57.082443" lon="8.831169">
<ele>9.608500</ele>
<time>2026-07-15T10:00:32.000Z</time>
</trkpt>
<trkpt lat="57.082432" lon="8.831273">
<ele>9.624147</ele>
<time>2026-07-15T10:00:33.000Z</time>
</trkpt>
<trkpt lat="57.082420" lon="8.831371">
<ele>9.638983</ele>
<time>2026-07-15T10:00:34.000Z</time>
</trkpt>
<trkpt lat="57.082416" lon="8.831466">
<ele>9.657942</ele>
<time>2026-07-15T10:00:35.000Z</time>
</trkpt>
<trkpt lat="57.082409" lon="8.831557">
<ele>9.681537</ele>
<time>2026-07-15T10:00:36.000Z</time>
</trkpt>
<trkpt lat="57.082405" lon="8.831650">
<ele>9.705487</ele>
<time>2026-07-15T10:00:37.000Z</time>
</trkpt>
<trkpt lat="57.082394" lon="8.831743">
<ele>9.729922</ele>
<time>2026-07-15T10:00:38.000Z</time>
</trkpt>
<trkpt lat="57.082386" lon="8.831836">
<ele>9.754095</ele>
<time>2026-07-15T10:00:39.000Z</time>
</trkpt>
<trkpt lat="57.082382" lon="8.831929">
<ele>9.778046</ele>
<time>2026-07-15T10:00:40.000Z</time>
</trkpt>
<trkpt lat="57.082375" lon="8.832025">
<ele>9.802913</ele>
<time>2026-07-15T10:00:41.000Z</time>
</trkpt>
<trkpt lat="57.082371" lon="8.832117">
<ele>9.826608</ele>
<time>2026-07-15T10:00:42.000Z</time>
</trkpt>
<trkpt lat="57.082363" lon="8.832204">
<ele>9.849261</ele>
<time>2026-07-15T10:00:43.000Z</time>
</trkpt>
<trkpt lat="57.082359" lon="8.832297">
<ele>9.873211</ele>
<time>2026-07-15T10:00:44.000Z</time>
</trkpt>
<trkpt lat="57.082348" lon="8.832388">
<ele>9.897145</ele>
<time>2026-07-15T10:00:45.000Z</time>
</trkpt>
<trkpt lat="57.082340" lon="8.832478">
<ele>9.920558</ele>
<time>2026-07-15T10:00:46.000Z</time>
</trkpt>
<trkpt lat="57.082333" lon="8.832573">
<ele>9.945170</ele>
<time>2026-07-15T10:00:47.000Z</time>
</trkpt>
<trkpt lat="57.082325" lon="8.832664">
<ele>9.968836</ele>
<time>2026-07-15T10:00:48.000Z</time>
</trkpt>
<trkpt lat="57.082321" lon="8.832745">
<ele>9.989717</ele>
<time>2026-07-15T10:00:49.000Z</time>
</trkpt>
<trkpt lat="57.082317" lon="8.832827">
<ele>10.010854</ele>
<time>2026-07-15T10:00:50.000Z</time>
</trkpt>
<trkpt lat="57.082313" lon="8.832906">
<ele>10.031223</ele>
<time>2026-07-15T10:00:51.000Z</time>
</trkpt>
<trkpt lat="57.082302" lon="8.832990">
<ele>10.053406</ele>
<time>2026-07-15T10:00:52.000Z</time>
</trkpt>
<trkpt lat="57.082292" lon="8.833072">
<ele>10.074981</ele>
<time>2026-07-15T10:00:53.000Z</time>
</trkpt>
<trkpt lat="57.082283" lon="8.833155">
<ele>10.096710</ele>
<time>2026-07-15T10:00:54.000Z</time>
</trkpt>
<trkpt lat="57.082272" lon="8.833241">
<ele>10.119392</ele>
<time>2026-07-15T10:00:55.000Z</time>
</trkpt>
<trkpt lat="57.082268" lon="8.833328">
<ele>10.141808</ele>
<time>2026-07-15T10:00:56.000Z</time>
</trkpt>
<trkpt lat="57.082268" lon="8.833409">
<ele>10.162603</ele>
<time>2026-07-15T10:00:57.000Z</time>
</trkpt>
<trkpt lat="57.082260" lon="8.833488">
<ele>10.183234</ele>
<time>2026-07-15T10:00:58.000Z</time>
</trkpt>
<trkpt lat="57.082256" lon="8.833564">
<ele>10.202837</ele>
<time>2026-07-15T10:00:59.000Z</time>
</trkpt>
<trkpt lat="57.082245" lon="8.833651">
<ele>10.225769</ele>
<time>2026-07-15T10:01:00.000Z</time>
</trkpt>
<trkpt lat="57.082233" lon="8.833753">
<ele>10.252562</ele>
<time>2026-07-15T10:01:01.000Z</time>
</trkpt>
<trkpt lat="57.082226" lon="8.833844">
<ele>10.276157</ele>
<time>2026-07-15T10:01:02.000Z</time>
</trkpt>
<trkpt lat="57.082218" lon="8.833935">
<ele>10.299824</ele>
<time>2026-07-15T10:01:03.000Z</time>
</trkpt>
<trkpt lat="57.082207" lon="8.834028">
<ele>10.324259</ele>
<time>2026-07-15T10:01:04.000Z</time>
</trkpt>
<trkpt lat="57.082195" lon="8.834119">
<ele>10.348299</ele>
<time>2026-07-15T10:01:05.000Z</time>
</trkpt>
<trkpt lat="57.082188" lon="8.834215">
<ele>10.373166</ele>
<time>2026-07-15T10:01:06.000Z</time>
</trkpt>
<trkpt lat="57.082180" lon="8.834315">
<ele>10.399116</ele>
<time>2026-07-15T10:01:07.000Z</time>
</trkpt>
<trkpt lat="57.082172" lon="8.834418">
<ele>10.425828</ele>
<time>2026-07-15T10:01:08.000Z</time>
</trkpt>
<trkpt lat="57.082165" lon="8.834525">
<ele>10.453497</ele>
<time>2026-07-15T10:01:09.000Z</time>
</trkpt>
<trkpt lat="57.082157" lon="8.834618">
<ele>10.477670</ele>
<time>2026-07-15T10:01:10.000Z</time>
</trkpt>
<trkpt lat="57.082140" lon="8.834722">
<ele>10.510801</ele>
<time>2026-07-15T10:01:11.000Z</time>
</trkpt>
<trkpt lat="57.082123" lon="8.834826">
<ele>10.554264</ele>
<time>2026-07-15T10:01:12.000Z</time>
</trkpt>
<trkpt lat="57.082119" lon="8.834925">
<ele>10.593994</ele>
<time>2026-07-15T10:01:13.000Z</time>
</trkpt>
<trkpt lat="57.082104" lon="8.835037">
<ele>10.640157</ele>
<time>2026-07-15T10:01:14.000Z</time>
</trkpt>
<trkpt lat="57.082092" lon="8.835153">
<ele>10.687414</ele>
<time>2026-07-15T10:01:15.000Z</time>
</trkpt>
<trkpt lat="57.082077" lon="8.835268">
<ele>10.734745</ele>
<time>2026-07-15T10:01:16.000Z</time>
</trkpt>
<trkpt lat="57.082062" lon="8.835373">
<ele>10.778194</ele>
<time>2026-07-15T10:01:17.000Z</time>
</trkpt>
<trkpt lat="57.082047" lon="8.835468">
<ele>10.817785</ele>
<time>2026-07-15T10:01:18.000Z</time>
</trkpt>
<trkpt lat="57.082039" lon="8.835559">
<ele>10.854677</ele>
<time>2026-07-15T10:01:19.000Z</time>
</trkpt>
<trkpt lat="57.082031" lon="8.835651">
<ele>10.891964</ele>
<time>2026-07-15T10:01:20.000Z</time>
</trkpt>
<trkpt lat="57.082024" lon="8.835743">
<ele>10.929142</ele>
<time>2026-07-15T10:01:21.000Z</time>
</trkpt>
<trkpt lat="57.082009" lon="8.835827">
<ele>10.964527</ele>
<time>2026-07-15T10:01:22.000Z</time>
</trkpt>
<trkpt lat="57.081997" lon="8.835913">
<ele>11.000061</ele>
<time>2026-07-15T10:01:23.000Z</time>
</trkpt>
<trkpt lat="57.081982" lon="8.835991">
<ele>11.033174</ele>
<time>2026-07-15T10:01:24.000Z</time>
</trkpt>
<trkpt lat="57.081970" lon="8.836071">
<ele>11.066387</ele>
<time>2026-07-15T10:01:25.000Z</time>
</trkpt>
<trkpt lat="57.081963" lon="8.836137">
<ele>11.093299</ele>
<time>2026-07-15T10:01:26.000Z</time>
</trkpt>
<trkpt lat="57.081955" lon="8.836198">
<ele>11.118412</ele>
<time>2026-07-15T10:01:27.000Z</time>
</trkpt>
<trkpt lat="57.081951" lon="8.836256">
<ele>11.141810</ele>
<time>2026-07-15T10:01:28.000Z</time>
</trkpt>
<trkpt lat="57.081940" lon="8.836329">
<ele>11.172127</ele>
<time>2026-07-15T10:01:29.000Z</time>
</trkpt>
<trkpt lat="57.081928" lon="8.836399">
<ele>11.201502</ele>
<time>2026-07-15T10:01:30.000Z</time>
</trkpt>
<trkpt lat="57.081917" lon="8.836476">
<ele>11.233365</ele>
<time>2026-07-15T10:01:31.000Z</time>
</trkpt>
<trkpt lat="57.081902" lon="8.836550">
<ele>11.264973</ele>
<time>2026-07-15T10:01:32.000Z</time>
</trkpt>
<trkpt lat="57.081890" lon="8.836629">
<ele>11.297801</ele>
<time>2026-07-15T10:01:33.000Z</time>
</trkpt>
<trkpt lat="57.081879" lon="8.836706">
<ele>11.329664</ele>
<time>2026-07-15T10:01:34.000Z</time>
</trkpt>
<trkpt lat="57.081871" lon="8.836787">
<ele>11.362611</ele>
<time>2026-07-15T10:01:35.000Z</time>
</trkpt>
<trkpt lat="57.081863" lon="8.836863">
<ele>11.393592</ele>
<time>2026-07-15T10:01:36.000Z</time>
</trkpt>
<trkpt lat="57.081852" lon="8.836944">
<ele>11.427005</ele>
<time>2026-07-15T10:01:37.000Z</time>
</trkpt>
<trkpt lat="57.081844" lon="8.837022">
<ele>11.458772</ele>
<time>2026-07-15T10:01:38.000Z</time>
</trkpt>
<trkpt lat="57.081837" lon="8.837110">
<ele>11.494366</ele>
<time>2026-07-15T10:01:39.000Z</time>
</trkpt>
<trkpt lat="57.081829" lon="8.837185">
<ele>11.524954</ele>
<time>2026-07-15T10:01:40.000Z</time>
</trkpt>
<trkpt lat="57.081821" lon="8.837259">
<ele>11.555149</ele>
<time>2026-07-15T10:01:41.000Z</time>
</trkpt>
<trkpt lat="57.081814" lon="8.837329">
<ele>11.583634</ele>
<time>2026-07-15T10:01:42.000Z</time>
</trkpt>
<trkpt lat="57.081802" lon="8.837397">
<ele>11.612247</ele>
<time>2026-07-15T10:01:43.000Z</time>
</trkpt>
<trkpt lat="57.081799" lon="8.837463">
<ele>11.638752</ele>
<time>2026-07-15T10:01:44.000Z</time>
</trkpt>
<trkpt lat="57.081787" lon="8.837531">
<ele>11.667365</ele>
<time>2026-07-15T10:01:45.000Z</time>
</trkpt>
<trkpt lat="57.081783" lon="8.837596">
<ele>11.693545</ele>
<time>2026-07-15T10:01:46.000Z</time>
</trkpt>
<trkpt lat="57.081776" lon="8.837668">
<ele>11.722817</ele>
<time>2026-07-15T10:01:47.000Z</time>
</trkpt>
<trkpt lat="57.081768" lon="8.837743">
<ele>11.753405</ele>
<time>2026-07-15T10:01:48.000Z</time>
</trkpt>
<trkpt lat="57.081756" lon="8.837819">
<ele>11.785079</ele>
<time>2026-07-15T10:01:49.000Z</time>
</trkpt>
<trkpt lat="57.081741" lon="8.837897">
<ele>11.818191</ele>
<time>2026-07-15T10:01:50.000Z</time>
</trkpt>
<trkpt lat="57.081722" lon="8.837976">
<ele>11.805377</ele>
<time>2026-07-15T10:01:51.000Z</time>
</trkpt>
<trkpt lat="57.081703" lon="8.838053">
<ele>11.789159</ele>
<time>2026-07-15T10:01:52.000Z</time>
</trkpt>
<trkpt lat="57.081692" lon="8.838131">
<ele>11.773705</ele>
<time>2026-07-15T10:01:53.000Z</time>
</trkpt>
<trkpt lat="57.081677" lon="8.838203">
<ele>11.758917</ele>
<time>2026-07-15T10:01:54.000Z</time>
</trkpt>
<trkpt lat="57.081673" lon="8.838279">
<ele>11.744274</ele>
<time>2026-07-15T10:01:55.000Z</time>
</trkpt>
<trkpt lat="57.081669" lon="8.838344">
<ele>11.731729</ele>
<time>2026-07-15T10:01:56.000Z</time>
</trkpt>
<trkpt lat="57.081665" lon="8.838414">
<ele>11.718230</ele>
<time>2026-07-15T10:01:57.000Z</time>
</trkpt>
<trkpt lat="57.081657" lon="8.838499">
<ele>11.701687</ele>
<time>2026-07-15T10:01:58.000Z</time>
</trkpt>
<trkpt lat="57.081650" lon="8.838584">
<ele>11.685199</ele>
<time>2026-07-15T10:01:59.000Z</time>
</trkpt>
<trkpt lat="57.081642" lon="8.838667">
<ele>11.669033</ele>
<time>2026-07-15T10:02:00.000Z</time>
</trkpt>
<trkpt lat="57.081634" lon="8.838757">
<ele>11.651544</ele>
<time>2026-07-15T10:02:01.000Z</time>
</trkpt>
<trkpt lat="57.081631" lon="8.838833">
<ele>11.636930</ele>
<time>2026-07-15T10:02:02.000Z</time>
</trkpt>
<trkpt lat="57.081623" lon="8.838915">
<ele>11.620953</ele>
<time>2026-07-15T10:02:03.000Z</time>
</trkpt>
<trkpt lat="57.081616" lon="8.838997">
<ele>11.605035</ele>
<time>2026-07-15T10:02:04.000Z</time>
</trkpt>
<trkpt lat="57.081604" lon="8.839082">
<ele>11.588192</ele>
<time>2026-07-15T10:02:05.000Z</time>
</trkpt>
<trkpt lat="57.081600" lon="8.839164">
<ele>11.572403</ele>
<time>2026-07-15T10:02:06.000Z</time>
</trkpt>
<trkpt lat="57.081596" lon="8.839241">
<ele>11.557569</ele>
<time>2026-07-15T10:02:07.000Z</time>
</trkpt>
<trkpt lat="57.081589" lon="8.839315">
<ele>11.543164</ele>
<time>2026-07-15T10:02:08.000Z</time>
</trkpt>
<trkpt lat="57.081585" lon="8.839415">
<ele>11.523934</ele>
<time>2026-07-15T10:02:09.000Z</time>
</trkpt>
<trkpt lat="57.081574" lon="8.839505">
<ele>11.506243</ele>
<time>2026-07-15T10:02:10.000Z</time>
</trkpt>
<trkpt lat="57.081574" lon="8.839596">
<ele>11.488791</ele>
<time>2026-07-15T10:02:11.000Z</time>
</trkpt>
<trkpt lat="57.081577" lon="8.839696">
<ele>11.469584</ele>
<time>2026-07-15T10:02:12.000Z</time>
</trkpt>
<trkpt lat="57.081573" lon="8.839786">
<ele>11.452267</ele>
<time>2026-07-15T10:02:13.000Z</time>
</trkpt>
<trkpt lat="57.081570" lon="8.839879">
<ele>11.434400</ele>
<time>2026-07-15T10:02:14.000Z</time>
</trkpt>
<trkpt lat="57.081558" lon="8.839971">
<ele>11.416255</ele>
<time>2026-07-15T10:02:15.000Z</time>
</trkpt>
<trkpt lat="57.081554" lon="8.840067">
<ele>11.397790</ele>
<time>2026-07-15T10:02:16.000Z</time>
</trkpt>
<trkpt lat="57.081547" lon="8.840161">
<ele>11.379595</ele>
<time>2026-07-15T10:02:17.000Z</time>
</trkpt>
<trkpt lat="57.081539" lon="8.840263">
<ele>11.359831</ele>
<time>2026-07-15T10:02:18.000Z</time>
</trkpt>
<trkpt lat="57.081531" lon="8.840360">
<ele>11.341015</ele>
<time>2026-07-15T10:02:19.000Z</time>
</trkpt>
<trkpt lat="57.081524" lon="8.840456">
<ele>11.322439</ele>
<time>2026-07-15T10:02:20.000Z</time>
</trkpt>
<trkpt lat="57.081524" lon="8.840554">
<ele>11.303645</ele>
<time>2026-07-15T10:02:21.000Z</time>
</trkpt>
<trkpt lat="57.081520" lon="8.840655">
<ele>11.284224</ele>
<time>2026-07-15T10:02:22.000Z</time>
</trkpt>
<trkpt lat="57.081516" lon="8.840753">
<ele>11.265377</ele>
<time>2026-07-15T10:02:23.000Z</time>
</trkpt>
<trkpt lat="57.081513" lon="8.840846">
<ele>11.247510</ele>
<time>2026-07-15T10:02:24.000Z</time>
</trkpt>
<trkpt lat="57.081509" lon="8.840944">
<ele>11.228663</ele>
<time>2026-07-15T10:02:25.000Z</time>
</trkpt>
<trkpt lat="57.081505" lon="8.841042">
<ele>11.209816</ele>
<time>2026-07-15T10:02:26.000Z</time>
</trkpt>
<trkpt lat="57.081493" lon="8.841144">
<ele>11.189801</ele>
<time>2026-07-15T10:02:27.000Z</time>
</trkpt>
<trkpt lat="57.081478" lon="8.841236">
<ele>11.176262</ele>
<time>2026-07-15T10:02:28.000Z</time>
</trkpt>
<trkpt lat="57.081467" lon="8.841343">
<ele>11.162352</ele>
<time>2026-07-15T10:02:29.000Z</time>
</trkpt>
<trkpt lat="57.081467" lon="8.841441">
<ele>11.149834</ele>
<time>2026-07-15T10:02:30.000Z</time>
</trkpt>
<trkpt lat="57.081451" lon="8.841560">
<ele>11.134175</ele>
<time>2026-07-15T10:02:31.000Z</time>
</trkpt>
<trkpt lat="57.081440" lon="8.841686">
<ele>11.117875</ele>
<time>2026-07-15T10:02:32.000Z</time>
</trkpt>
<trkpt lat="57.081428" lon="8.841817">
<ele>11.100905</ele>
<time>2026-07-15T10:02:33.000Z</time>
</trkpt>
<trkpt lat="57.081413" lon="8.841951">
<ele>11.083430</ele>
<time>2026-07-15T10:02:34.000Z</time>
</trkpt>
<trkpt lat="57.081402" lon="8.842066">
<ele>11.068514</ele>
<time>2026-07-15T10:02:35.000Z</time>
</trkpt>
<trkpt lat="57.081394" lon="8.842178">
<ele>11.054085</ele>
<time>2026-07-15T10:02:36.000Z</time>
</trkpt>
<trkpt lat="57.081386" lon="8.842295">
<ele>11.039022</ele>
<time>2026-07-15T10:02:37.000Z</time>
</trkpt>
<trkpt lat="57.081367" lon="8.842406">
<ele>11.024157</ele>
<time>2026-07-15T10:02:38.000Z</time>
</trkpt>
<trkpt lat="57.081356" lon="8.842519">
<ele>11.009493</ele>
<time>2026-07-15T10:02:39.000Z</time>
</trkpt>
<trkpt lat="57.081349" lon="8.842624">
<ele>10.995981</ele>
<time>2026-07-15T10:02:40.000Z</time>
</trkpt>
<trkpt lat="57.081348" lon="8.842734">
<ele>10.981928</ele>
<time>2026-07-15T10:02:41.000Z</time>
</trkpt>
<trkpt lat="57.081348" lon="8.842841">
<ele>10.968260</ele>
<time>2026-07-15T10:02:42.000Z</time>
</trkpt>
<trkpt lat="57.081348" lon="8.842954">
<ele>10.953826</ele>
<time>2026-07-15T10:02:43.000Z</time>
</trkpt>
<trkpt lat="57.081348" lon="8.843064">
<ele>10.939775</ele>
<time>2026-07-15T10:02:44.000Z</time>
</trkpt>
<trkpt lat="57.081348" lon="8.843162">
<ele>10.927257</ele>
<time>2026-07-15T10:02:45.000Z</time>
</trkpt>
<trkpt lat="57.081345" lon="8.843260">
<ele>10.914720</ele>
<time>2026-07-15T10:02:46.000Z</time>
</trkpt>
<trkpt lat="57.081348" lon="8.843372">
<ele>10.900396</ele>
<time>2026-07-15T10:02:47.000Z</time>
</trkpt>
<trkpt lat="57.081345" lon="8.843481">
<ele>10.886455</ele>
<time>2026-07-15T10:02:48.000Z</time>
</trkpt>
<trkpt lat="57.081352" lon="8.843588">
<ele>10.872689</ele>
<time>2026-07-15T10:02:49.000Z</time>
</trkpt>
<trkpt lat="57.081360" lon="8.843691">
<ele>10.859398</ele>
<time>2026-07-15T10:02:50.000Z</time>
</trkpt>
<trkpt lat="57.081360" lon="8.843791">
<ele>10.846625</ele>
<time>2026-07-15T10:02:51.000Z</time>
</trkpt>
<trkpt lat="57.081364" lon="8.843892">
<ele>10.833690</ele>
<time>2026-07-15T10:02:52.000Z</time>
</trkpt>
<trkpt lat="57.081368" lon="8.843999">
<ele>10.819990</ele>
<time>2026-07-15T10:02:53.000Z</time>
</trkpt>
<trkpt lat="57.081371" lon="8.844091">
<ele>10.808217</ele>
<time>2026-07-15T10:02:54.000Z</time>
</trkpt>
<trkpt lat="57.081375" lon="8.844194">
<ele>10.795027</ele>
<time>2026-07-15T10:02:55.000Z</time>
</trkpt>
<trkpt lat="57.081375" lon="8.844301">
<ele>10.781359</ele>
<time>2026-07-15T10:02:56.000Z</time>
</trkpt>
<trkpt lat="57.081383" lon="8.844409">
<ele>10.767436</ele>
<time>2026-07-15T10:02:57.000Z</time>
</trkpt>
<trkpt lat="57.081383" lon="8.844509">
<ele>10.767201</ele>
<time>2026-07-15T10:02:58.000Z</time>
</trkpt>
<trkpt lat="57.081387" lon="8.844605">
<ele>10.772889</ele>
<time>2026-07-15T10:02:59.000Z</time>
</trkpt>
<trkpt lat="57.081387" lon="8.844696">
<ele>10.778265</ele>
<time>2026-07-15T10:03:00.000Z</time>
</trkpt>
<trkpt lat="57.081387" lon="8.844777">
<ele>10.783050</ele>
<time>2026-07-15T10:03:01.000Z</time>
</trkpt>
<trkpt lat="57.081379" lon="8.844861">
<ele>10.788088</ele>
<time>2026-07-15T10:03:02.000Z</time>
</trkpt>
<trkpt lat="57.081375" lon="8.844941">
<ele>10.792834</ele>
<time>2026-07-15T10:03:03.000Z</time>
</trkpt>
<trkpt lat="57.081375" lon="8.845021">
<ele>10.797560</ele>
<time>2026-07-15T10:03:04.000Z</time>
</trkpt>
<trkpt lat="57.081379" lon="8.845092">
<ele>10.801777</ele>
<time>2026-07-15T10:03:05.000Z</time>
</trkpt>
<trkpt lat="57.081387" lon="8.845169">
<ele>10.806408</ele>
<time>2026-07-15T10:03:06.000Z</time>
</trkpt>
<trkpt lat="57.081398" lon="8.845240">
<ele>10.810769</ele>
<time>2026-07-15T10:03:07.000Z</time>
</trkpt>
<trkpt lat="57.081410" lon="8.845314">
<ele>10.815331</ele>
<time>2026-07-15T10:03:08.000Z</time>
</trkpt>
<trkpt lat="57.081417" lon="8.845385">
<ele>10.819594</ele>
<time>2026-07-15T10:03:09.000Z</time>
</trkpt>
<trkpt lat="57.081425" lon="8.845464">
<ele>10.824341</ele>
<time>2026-07-15T10:03:10.000Z</time>
</trkpt>
<trkpt lat="57.081425" lon="8.845534">
<ele>10.828476</ele>
<time>2026-07-15T10:03:11.000Z</time>
</trkpt>
<trkpt lat="57.081425" lon="8.845626">
<ele>10.833911</ele>
<time>2026-07-15T10:03:12.000Z</time>
</trkpt>
<trkpt lat="57.081429" lon="8.845705">
<ele>10.838598</ele>
<time>2026-07-15T10:03:13.000Z</time>
</trkpt>
<trkpt lat="57.081428" lon="8.845782">
<ele>10.843148</ele>
<time>2026-07-15T10:03:14.000Z</time>
</trkpt>
<trkpt lat="57.081421" lon="8.845854">
<ele>10.847469</ele>
<time>2026-07-15T10:03:15.000Z</time>
</trkpt>
<trkpt lat="57.081409" lon="8.845942">
<ele>10.852829</ele>
<time>2026-07-15T10:03:16.000Z</time>
</trkpt>
<trkpt lat="57.081396" lon="8.846014">
<ele>10.857311</ele>
<time>2026-07-15T10:03:17.000Z</time>
</trkpt>
<trkpt lat="57.081375" lon="8.846114">
<ele>10.863644</ele>
<time>2026-07-15T10:03:18.000Z</time>
</trkpt>
<trkpt lat="57.081364" lon="8.846201">
<ele>10.868920</ele>
<time>2026-07-15T10:03:19.000Z</time>
</trkpt>
<trkpt lat="57.081348" lon="8.846286">
<ele>10.874234</ele>
<time>2026-07-15T10:03:20.000Z</time>
</trkpt>
<trkpt lat="57.081337" lon="8.846372">
<ele>10.879454</ele>
<time>2026-07-15T10:03:21.000Z</time>
</trkpt>
<trkpt lat="57.081326" lon="8.846458">
<ele>10.884673</ele>
<time>2026-07-15T10:03:22.000Z</time>
</trkpt>
<trkpt lat="57.081310" lon="8.846554">
<ele>10.890605</ele>
<time>2026-07-15T10:03:23.000Z</time>
</trkpt>
<trkpt lat="57.081295" lon="8.846645">
<ele>10.896222</ele>
<time>2026-07-15T10:03:24.000Z</time>
</trkpt>
<trkpt lat="57.081280" lon="8.846736">
<ele>10.901840</ele>
<time>2026-07-15T10:03:25.000Z</time>
</trkpt>
<trkpt lat="57.081264" lon="8.846830">
<ele>10.907659</ele>
<time>2026-07-15T10:03:26.000Z</time>
</trkpt>
<trkpt lat="57.081245" lon="8.846928">
<ele>10.913806</ele>
<time>2026-07-15T10:03:27.000Z</time>
</trkpt>
<trkpt lat="57.081226" lon="8.847025">
<ele>10.919897</ele>
<time>2026-07-15T10:03:28.000Z</time>
</trkpt>
<trkpt lat="57.081207" lon="8.847123">
<ele>10.926043</ele>
<time>2026-07-15T10:03:29.000Z</time>
</trkpt>
<trkpt lat="57.081196" lon="8.847224">
<ele>10.932129</ele>
<time>2026-07-15T10:03:30.000Z</time>
</trkpt>
<trkpt lat="57.081177" lon="8.847330">
<ele>10.938722</ele>
<time>2026-07-15T10:03:31.000Z</time>
</trkpt>
<trkpt lat="57.081162" lon="8.847435">
<ele>10.945136</ele>
<time>2026-07-15T10:03:32.000Z</time>
</trkpt>
<trkpt lat="57.081150" lon="8.847538">
<ele>10.951359</ele>
<time>2026-07-15T10:03:33.000Z</time>
</trkpt>
<trkpt lat="57.081135" lon="8.847642">
<ele>10.957715</ele>
<time>2026-07-15T10:03:34.000Z</time>
</trkpt>
<trkpt lat="57.081119" lon="8.847744">
<ele>10.963749</ele>
<time>2026-07-15T10:03:35.000Z</time>
</trkpt>
<trkpt lat="57.081104" lon="8.847843">
<ele>10.969544</ele>
<time>2026-07-15T10:03:36.000Z</time>
</trkpt>
<trkpt lat="57.081089" lon="8.847942">
<ele>10.975340</ele>
<time>2026-07-15T10:03:37.000Z</time>
</trkpt>
<trkpt lat="57.081070" lon="8.848040">
<ele>10.981207</ele>
<time>2026-07-15T10:03:38.000Z</time>
</trkpt>
<trkpt lat="57.081058" lon="8.848141">
<ele>10.987037</ele>
<time>2026-07-15T10:03:39.000Z</time>
</trkpt>
<trkpt lat="57.081055" lon="8.848245">
<ele>10.992910</ele>
<time>2026-07-15T10:03:40.000Z</time>
</trkpt>
<trkpt lat="57.081047" lon="8.848350">
<ele>10.998889</ele>
<time>2026-07-15T10:03:41.000Z</time>
</trkpt>
<trkpt lat="57.081043" lon="8.848452">
<ele>11.004655</ele>
<time>2026-07-15T10:03:42.000Z</time>
</trkpt>
<trkpt lat="57.081043" lon="8.848556">
<ele>11.010520</ele>
<time>2026-07-15T10:03:43.000Z</time>
</trkpt>
<trkpt lat="57.081043" lon="8.848667">
<ele>11.016779</ele>
<time>2026-07-15T10:03:44.000Z</time>
</trkpt>
<trkpt lat="57.081047" lon="8.848775">
<ele>11.022883</ele>
<time>2026-07-15T10:03:45.000Z</time>
</trkpt>
<trkpt lat="57.081051" lon="8.848886">
<ele>11.029156</ele>
<time>2026-07-15T10:03:46.000Z</time>
</trkpt>
<trkpt lat="57.081059" lon="8.848992">
<ele>11.035191</ele>
<time>2026-07-15T10:03:47.000Z</time>
</trkpt>
<trkpt lat="57.081062" lon="8.849098">
<ele>11.041176</ele>
<time>2026-07-15T10:03:48.000Z</time>
</trkpt>
<trkpt lat="57.081062" lon="8.849203">
<ele>11.047097</ele>
<time>2026-07-15T10:03:49.000Z</time>
</trkpt>
<trkpt lat="57.081066" lon="8.849309">
<ele>11.053089</ele>
<time>2026-07-15T10:03:50.000Z</time>
</trkpt>
<trkpt lat="57.081074" lon="8.849414">
<ele>11.059068</ele>
<time>2026-07-15T10:03:51.000Z</time>
</trkpt>
<trkpt lat="57.081085" lon="8.849514">
<ele>11.064821</ele>
<time>2026-07-15T10:03:52.000Z</time>
</trkpt>
<trkpt lat="57.081100" lon="8.849614">
<ele>11.070671</ele>
<time>2026-07-15T10:03:53.000Z</time>
</trkpt>
<trkpt lat="57.081116" lon="8.849720">
<ele>11.076874</ele>
<time>2026-07-15T10:03:54.000Z</time>
</trkpt>
<trkpt lat="57.081131" lon="8.849816">
<ele>11.082507</ele>
<time>2026-07-15T10:03:55.000Z</time>
</trkpt>
<trkpt lat="57.081150" lon="8.849918">
<ele>11.088587</ele>
<time>2026-07-15T10:03:56.000Z</time>
</trkpt>
<trkpt lat="57.081173" lon="8.850016">
<ele>11.094606</ele>
<time>2026-07-15T10:03:57.000Z</time>
</trkpt>
<trkpt lat="57.081196" lon="8.850115">
<ele>11.100678</ele>
<time>2026-07-15T10:03:58.000Z</time>
</trkpt>
<trkpt lat="57.081219" lon="8.850214">
<ele>11.106749</ele>
<time>2026-07-15T10:03:59.000Z</time>
</trkpt>
<trkpt lat="57.081242" lon="8.850312">
<ele>11.112768</ele>
<time>2026-07-15T10:04:00.000Z</time>
</trkpt>
<trkpt lat="57.081264" lon="8.850403">
<ele>11.118385</ele>
<time>2026-07-15T10:04:01.000Z</time>
</trkpt>
<trkpt lat="57.081288" lon="8.850497">
<ele>11.124241</ele>
<time>2026-07-15T10:04:02.000Z</time>
</trkpt>
<trkpt lat="57.081311" lon="8.850587">
<ele>11.129849</ele>
<time>2026-07-15T10:04:03.000Z</time>
</trkpt>
<trkpt lat="57.081332" lon="8.850671">
<ele>11.135063</ele>
<time>2026-07-15T10:04:04.000Z</time>
</trkpt>
<trkpt lat="57.081356" lon="8.850763">
<ele>11.140818</ele>
<time>2026-07-15T10:04:05.000Z</time>
</trkpt>
<trkpt lat="57.081375" lon="8.850856">
<ele>11.147839</ele>
<time>2026-07-15T10:04:06.000Z</time>
</trkpt>
<trkpt lat="57.081398" lon="8.850947">
<ele>11.161249</ele>
<time>2026-07-15T10:04:07.000Z</time>
</trkpt>
<trkpt lat="57.081417" lon="8.851039">
<ele>11.174400</ele>
<time>2026-07-15T10:04:08.000Z</time>
</trkpt>
<trkpt lat="57.081440" lon="8.851131">
<ele>11.187932</ele>
<time>2026-07-15T10:04:09.000Z</time>
</trkpt>
<trkpt lat="57.081459" lon="8.851227">
<ele>11.201584</ele>
<time>2026-07-15T10:04:10.000Z</time>
</trkpt>
<trkpt lat="57.081478" lon="8.851321">
<ele>11.214985</ele>
<time>2026-07-15T10:04:11.000Z</time>
</trkpt>
<trkpt lat="57.081494" lon="8.851422">
<ele>11.229043</ele>
<time>2026-07-15T10:04:12.000Z</time>
</trkpt>
<trkpt lat="57.081509" lon="8.851514">
<ele>11.241877</ele>
<time>2026-07-15T10:04:13.000Z</time>
</trkpt>
<trkpt lat="57.081528" lon="8.851607">
<ele>11.255153</ele>
<time>2026-07-15T10:04:14.000Z</time>
</trkpt>
<trkpt lat="57.081543" lon="8.851691">
<ele>11.266968</ele>
<time>2026-07-15T10:04:15.000Z</time>
</trkpt>
<trkpt lat="57.081562" lon="8.851778">
<ele>11.279496</ele>
<time>2026-07-15T10:04:16.000Z</time>
</trkpt>
<trkpt lat="57.081581" lon="8.851870">
<ele>11.292647</ele>
<time>2026-07-15T10:04:17.000Z</time>
</trkpt>
<trkpt lat="57.081604" lon="8.851962">
<ele>11.306179</ele>
<time>2026-07-15T10:04:18.000Z</time>
</trkpt>
<trkpt lat="57.081627" lon="8.852053">
<ele>11.319589</ele>
<time>2026-07-15T10:04:19.000Z</time>
</trkpt>
<trkpt lat="57.081649" lon="8.852139">
<ele>11.332290</ele>
<time>2026-07-15T10:04:20.000Z</time>
</trkpt>
<trkpt lat="57.081673" lon="8.852231">
<ele>11.345926</ele>
<time>2026-07-15T10:04:21.000Z</time>
</trkpt>
<trkpt lat="57.081696" lon="8.852325">
<ele>11.359701</ele>
<time>2026-07-15T10:04:22.000Z</time>
</trkpt>
<trkpt lat="57.081719" lon="8.852419">
<ele>11.373476</ele>
<time>2026-07-15T10:04:23.000Z</time>
</trkpt>
<trkpt lat="57.081738" lon="8.852515">
<ele>11.387128</ele>
<time>2026-07-15T10:04:24.000Z</time>
</trkpt>
<trkpt lat="57.081757" lon="8.852610">
<ele>11.400654</ele>
<time>2026-07-15T10:04:25.000Z</time>
</trkpt>
<trkpt lat="57.081779" lon="8.852705">
<ele>11.414452</ele>
<time>2026-07-15T10:04:26.000Z</time>
</trkpt>
<trkpt lat="57.081795" lon="8.852803">
<ele>11.428125</ele>
<time>2026-07-15T10:04:27.000Z</time>
</trkpt>
<trkpt lat="57.081806" lon="8.852894">
<ele>11.440582</ele>
<time>2026-07-15T10:04:28.000Z</time>
</trkpt>
<trkpt lat="57.081821" lon="8.852987">
<ele>11.453545</ele>
<time>2026-07-15T10:04:29.000Z</time>
</trkpt>
<trkpt lat="57.081833" lon="8.853084">
<ele>11.466837</ele>
<time>2026-07-15T10:04:30.000Z</time>
</trkpt>
<trkpt lat="57.081840" lon="8.853181">
<ele>11.479912</ele>
<time>2026-07-15T10:04:31.000Z</time>
</trkpt>
<trkpt lat="57.081848" lon="8.853284">
<ele>11.493815</ele>
<time>2026-07-15T10:04:32.000Z</time>
</trkpt>
<trkpt lat="57.081856" lon="8.853385">
<ele>11.507453</ele>
<time>2026-07-15T10:04:33.000Z</time>
</trkpt>
<trkpt lat="57.081863" lon="8.853478">
<ele>11.519999</ele>
<time>2026-07-15T10:04:34.000Z</time>
</trkpt>
<trkpt lat="57.081867" lon="8.853583">
<ele>11.534063</ele>
<time>2026-07-15T10:04:35.000Z</time>
</trkpt>
<trkpt lat="57.081871" lon="8.853675">
<ele>11.546396</ele>
<time>2026-07-15T10:04:36.000Z</time>
</trkpt>
<trkpt lat="57.081871" lon="8.853785">
<ele>11.561094</ele>
<time>2026-07-15T10:04:37.000Z</time>
</trkpt>
<trkpt lat="57.081871" lon="8.853889">
<ele>11.574991</ele>
<time>2026-07-15T10:04:38.000Z</time>
</trkpt>
<trkpt lat="57.081875" lon="8.853996">
<ele>11.589153</ele>
<time>2026-07-15T10:04:39.000Z</time>
</trkpt>
<trkpt lat="57.081879" lon="8.854102">
<ele>11.601933</ele>
<time>2026-07-15T10:04:40.000Z</time>
</trkpt>
<trkpt lat="57.081886" lon="8.854203">
<ele>11.614179</ele>
<time>2026-07-15T10:04:41.000Z</time>
</trkpt>
<trkpt lat="57.081898" lon="8.854312">
<ele>11.627555</ele>
<time>2026-07-15T10:04:42.000Z</time>
</trkpt>
<trkpt lat="57.081909" lon="8.854421">
<ele>11.640889</ele>
<time>2026-07-15T10:04:43.000Z</time>
</trkpt>
<trkpt lat="57.081924" lon="8.854526">
<ele>11.653947</ele>
<time>2026-07-15T10:04:44.000Z</time>
</trkpt>
<trkpt lat="57.081944" lon="8.854641">
<ele>11.668470</ele>
<time>2026-07-15T10:04:45.000Z</time>
</trkpt>
<trkpt lat="57.081967" lon="8.854757">
<ele>11.683321</ele>
<time>2026-07-15T10:04:46.000Z</time>
</trkpt>
<trkpt lat="57.081996" lon="8.854870">
<ele>11.698351</ele>
<time>2026-07-15T10:04:47.000Z</time>
</trkpt>
<trkpt lat="57.082016" lon="8.854983">
<ele>11.712645</ele>
<time>2026-07-15T10:04:48.000Z</time>
</trkpt>
<trkpt lat="57.082028" lon="8.855094">
<ele>11.726257</ele>
<time>2026-07-15T10:04:49.000Z</time>
</trkpt>
<trkpt lat="57.082051" lon="8.855208">
<ele>11.740883</ele>
<time>2026-07-15T10:04:50.000Z</time>
</trkpt>
<trkpt lat="57.082070" lon="8.855316">
<ele>11.754536</ele>
<time>2026-07-15T10:04:51.000Z</time>
</trkpt>
<trkpt lat="57.082089" lon="8.855430">
<ele>11.768878</ele>
<time>2026-07-15T10:04:52.000Z</time>
</trkpt>
<trkpt lat="57.082104" lon="8.855543">
<ele>11.782868</ele>
<time>2026-07-15T10:04:53.000Z</time>
</trkpt>
<trkpt lat="57.082115" lon="8.855648">
<ele>11.795730</ele>
<time>2026-07-15T10:04:54.000Z</time>
</trkpt>
<trkpt lat="57.082131" lon="8.855759">
<ele>11.809542</ele>
<time>2026-07-15T10:04:55.000Z</time>
</trkpt>
<trkpt lat="57.082146" lon="8.855864">
<ele>11.822599</ele>
<time>2026-07-15T10:04:56.000Z</time>
</trkpt>
<trkpt lat="57.082165" lon="8.855973">
<ele>11.836367</ele>
<time>2026-07-15T10:04:57.000Z</time>
</trkpt>
<trkpt lat="57.082180" lon="8.856077">
<ele>11.849309</ele>
<time>2026-07-15T10:04:58.000Z</time>
</trkpt>
<trkpt lat="57.082195" lon="8.856177">
<ele>11.861786</ele>
<time>2026-07-15T10:04:59.000Z</time>
</trkpt>
<trkpt lat="57.082210" lon="8.856277">
<ele>11.874263</ele>
<time>2026-07-15T10:05:00.000Z</time>
</trkpt>
<trkpt lat="57.082226" lon="8.856383">
<ele>11.887495</ele>
<time>2026-07-15T10:05:01.000Z</time>
</trkpt>
<trkpt lat="57.082245" lon="8.856484">
<ele>11.900349</ele>
<time>2026-07-15T10:05:02.000Z</time>
</trkpt>
<trkpt lat="57.082264" lon="8.856584">
<ele>11.913091</ele>
<time>2026-07-15T10:05:03.000Z</time>
</trkpt>
<trkpt lat="57.082287" lon="8.856686">
<ele>11.926373</ele>
<time>2026-07-15T10:05:04.000Z</time>
</trkpt>
<trkpt lat="57.082306" lon="8.856781">
<ele>11.938548</ele>
<time>2026-07-15T10:05:05.000Z</time>
</trkpt>
<trkpt lat="57.082329" lon="8.856878">
<ele>11.951277</ele>
<time>2026-07-15T10:05:06.000Z</time>
</trkpt>
<trkpt lat="57.082352" lon="8.856974">
<ele>11.963895</ele>
<time>2026-07-15T10:05:07.000Z</time>
</trkpt>
<trkpt lat="57.082379" lon="8.857066">
<ele>11.976471</ele>
<time>2026-07-15T10:05:08.000Z</time>
</trkpt>
<trkpt lat="57.082405" lon="8.857152">
<ele>11.990531</ele>
<time>2026-07-15T10:05:09.000Z</time>
</trkpt>
<trkpt lat="57.082436" lon="8.857235">
<ele>12.013014</ele>
<time>2026-07-15T10:05:10.000Z</time>
</trkpt>
<trkpt lat="57.082466" lon="8.857316">
<ele>12.034897</ele>
<time>2026-07-15T10:05:11.000Z</time>
</trkpt>
<trkpt lat="57.082497" lon="8.857396">
<ele>12.056832</ele>
<time>2026-07-15T10:05:12.000Z</time>
</trkpt>
<trkpt lat="57.082531" lon="8.857476">
<ele>12.079505</ele>
<time>2026-07-15T10:05:13.000Z</time>
</trkpt>
<trkpt lat="57.082566" lon="8.857564">
<ele>12.103850</ele>
<time>2026-07-15T10:05:14.000Z</time>
</trkpt>
<trkpt lat="57.082604" lon="8.857655">
<ele>12.129470</ele>
<time>2026-07-15T10:05:15.000Z</time>
</trkpt>
<trkpt lat="57.082642" lon="8.857749">
<ele>12.155624</ele>
<time>2026-07-15T10:05:16.000Z</time>
</trkpt>
<trkpt lat="57.082672" lon="8.857840">
<ele>12.179385</ele>
<time>2026-07-15T10:05:17.000Z</time>
</trkpt>
<trkpt lat="57.082707" lon="8.857934">
<ele>12.204824</ele>
<time>2026-07-15T10:05:18.000Z</time>
</trkpt>
<trkpt lat="57.082737" lon="8.858031">
<ele>12.229739</ele>
<time>2026-07-15T10:05:19.000Z</time>
</trkpt>
<trkpt lat="57.082768" lon="8.858125">
<ele>12.254286</ele>
<time>2026-07-15T10:05:20.000Z</time>
</trkpt>
<trkpt lat="57.082802" lon="8.858215">
<ele>12.278756</ele>
<time>2026-07-15T10:05:21.000Z</time>
</trkpt>
<trkpt lat="57.082829" lon="8.858313">
<ele>12.303285</ele>
<time>2026-07-15T10:05:22.000Z</time>
</trkpt>
<trkpt lat="57.082859" lon="8.858408">
<ele>12.327813</ele>
<time>2026-07-15T10:05:23.000Z</time>
</trkpt>
<trkpt lat="57.082890" lon="8.858500">
<ele>12.351980</ele>
<time>2026-07-15T10:05:24.000Z</time>
</trkpt>
<trkpt lat="57.082917" lon="8.858598">
<ele>12.376508</ele>
<time>2026-07-15T10:05:25.000Z</time>
</trkpt>
<trkpt lat="57.082943" lon="8.858695">
<ele>12.400654</ele>
<time>2026-07-15T10:05:26.000Z</time>
</trkpt>
<trkpt lat="57.082970" lon="8.858792">
<ele>12.424983</ele>
<time>2026-07-15T10:05:27.000Z</time>
</trkpt>
<trkpt lat="57.082997" lon="8.858883">
<ele>12.448129</ele>
<time>2026-07-15T10:05:28.000Z</time>
</trkpt>
<trkpt lat="57.083023" lon="8.858968">
<ele>12.469904</ele>
<time>2026-07-15T10:05:29.000Z</time>
</trkpt>
<trkpt lat="57.083050" lon="8.859051">
<ele>12.491499</ele>
<time>2026-07-15T10:05:30.000Z</time>
</trkpt>
<trkpt lat="57.083075" lon="8.859135">
<ele>12.512880</ele>
<time>2026-07-15T10:05:31.000Z</time>
</trkpt>
<trkpt lat="57.083107" lon="8.859231">
<ele>12.538021</ele>
<time>2026-07-15T10:05:32.000Z</time>
</trkpt>
<trkpt lat="57.083134" lon="8.859323">
<ele>12.561363</ele>
<time>2026-07-15T10:05:33.000Z</time>
</trkpt>
<trkpt lat="57.083161" lon="8.859418">
<ele>12.585296</ele>
<time>2026-07-15T10:05:34.000Z</time>
</trkpt>
<trkpt lat="57.083187" lon="8.859507">
<ele>12.607853</ele>
<time>2026-07-15T10:05:35.000Z</time>
</trkpt>
<trkpt lat="57.083218" lon="8.859590">
<ele>12.630337</ele>
<time>2026-07-15T10:05:36.000Z</time>
</trkpt>
<trkpt lat="57.083248" lon="8.859674">
<ele>12.652776</ele>
<time>2026-07-15T10:05:37.000Z</time>
</trkpt>
<trkpt lat="57.083275" lon="8.859762">
<ele>12.675336</ele>
<time>2026-07-15T10:05:38.000Z</time>
</trkpt>
<trkpt lat="57.083302" lon="8.859851">
<ele>12.698091</ele>
<time>2026-07-15T10:05:39.000Z</time>
</trkpt>
<trkpt lat="57.083333" lon="8.859943">
<ele>12.722257</ele>
<time>2026-07-15T10:05:40.000Z</time>
</trkpt>
<trkpt lat="57.083363" lon="8.860034">
<ele>12.730581</ele>
<time>2026-07-15T10:05:41.000Z</time>
</trkpt>
<trkpt lat="57.083388" lon="8.860122">
<ele>12.736772</ele>
<time>2026-07-15T10:05:42.000Z</time>
</trkpt>
<trkpt lat="57.083424" lon="8.860209">
<ele>12.743588</ele>
<time>2026-07-15T10:05:43.000Z</time>
</trkpt>
<trkpt lat="57.083462" lon="8.860283">
<ele>12.749935</ele>
<time>2026-07-15T10:05:44.000Z</time>
</trkpt>
<trkpt lat="57.083500" lon="8.860366">
<ele>12.756701</ele>
<time>2026-07-15T10:05:45.000Z</time>
</trkpt>
<trkpt lat="57.083538" lon="8.860444">
<ele>12.763231</ele>
<time>2026-07-15T10:05:46.000Z</time>
</trkpt>
<trkpt lat="57.083568" lon="8.860516">
<ele>12.768887</ele>
<time>2026-07-15T10:05:47.000Z</time>
</trkpt>
<trkpt lat="57.083602" lon="8.860582">
<ele>12.774556</ele>
<time>2026-07-15T10:05:48.000Z</time>
</trkpt>
<trkpt lat="57.083639" lon="8.860665">
<ele>12.781248</ele>
<time>2026-07-15T10:05:49.000Z</time>
</trkpt>
<trkpt lat="57.083678" lon="8.860744">
<ele>12.787902</ele>
<time>2026-07-15T10:05:50.000Z</time>
</trkpt>
<trkpt lat="57.083709" lon="8.860811">
<ele>12.793387</ele>
<time>2026-07-15T10:05:51.000Z</time>
</trkpt>
<trkpt lat="57.083752" lon="8.860893">
<ele>12.800491</ele>
<time>2026-07-15T10:05:52.000Z</time>
</trkpt>
<trkpt lat="57.083789" lon="8.860962">
<ele>12.806534</ele>
<time>2026-07-15T10:05:53.000Z</time>
</trkpt>
<trkpt lat="57.083828" lon="8.861033">
<ele>12.812827</ele>
<time>2026-07-15T10:05:54.000Z</time>
</trkpt>
<trkpt lat="57.083874" lon="8.861094">
<ele>12.819331</ele>
<time>2026-07-15T10:05:55.000Z</time>
</trkpt>
<trkpt lat="57.083920" lon="8.861152">
<ele>12.825728</ele>
<time>2026-07-15T10:05:56.000Z</time>
</trkpt>
<trkpt lat="57.083962" lon="8.861206">
<ele>12.831605</ele>
<time>2026-07-15T10:05:57.000Z</time>
</trkpt>
<trkpt lat="57.084008" lon="8.861259">
<ele>12.837831</ele>
<time>2026-07-15T10:05:58.000Z</time>
</trkpt>
<trkpt lat="57.084049" lon="8.861306">
<ele>12.843373</ele>
<time>2026-07-15T10:05:59.000Z</time>
</trkpt>
<trkpt lat="57.084096" lon="8.861364">
<ele>12.849864</ele>
<time>2026-07-15T10:06:00.000Z</time>
</trkpt>
<trkpt lat="57.084141" lon="8.861420">
<ele>12.856096</ele>
<time>2026-07-15T10:06:01.000Z</time>
</trkpt>
<trkpt lat="57.084187" lon="8.861482">
<ele>12.862637</ele>
<time>2026-07-15T10:06:02.000Z</time>
</trkpt>
<trkpt lat="57.084231" lon="8.861541">
<ele>12.868882</ele>
<time>2026-07-15T10:06:03.000Z</time>
</trkpt>
<trkpt lat="57.084275" lon="8.861596">
<ele>12.874984</ele>
<time>2026-07-15T10:06:04.000Z</time>
</trkpt>
<trkpt lat="57.084321" lon="8.861647">
<ele>12.881144</ele>
<time>2026-07-15T10:06:05.000Z</time>
</trkpt>
<trkpt lat="57.084359" lon="8.861690">
<ele>12.886262</ele>
<time>2026-07-15T10:06:06.000Z</time>
</trkpt>
<trkpt lat="57.084403" lon="8.861741">
<ele>12.892227</ele>
<time>2026-07-15T10:06:07.000Z</time>
</trkpt>
<trkpt lat="57.084447" lon="8.861785">
<ele>12.897971</ele>
<time>2026-07-15T10:06:08.000Z</time>
</trkpt>
<trkpt lat="57.084484" lon="8.861822">
<ele>12.902802</ele>
<time>2026-07-15T10:06:09.000Z</time>
</trkpt>
<trkpt lat="57.084527" lon="8.861870">
<ele>12.908571</ele>
<time>2026-07-15T10:06:10.000Z</time>
</trkpt>
<trkpt lat="57.084570" lon="8.861908">
<ele>12.914043</ele>
<time>2026-07-15T10:06:11.000Z</time>
</trkpt>
<trkpt lat="57.084622" lon="8.861952">
<ele>12.920609</ele>
<time>2026-07-15T10:06:12.000Z</time>
</trkpt>
<trkpt lat="57.084668" lon="8.862001">
<ele>12.926706</ele>
<time>2026-07-15T10:06:13.000Z</time>
</trkpt>
<trkpt lat="57.084717" lon="8.862042">
<ele>12.934711</ele>
<time>2026-07-15T10:06:14.000Z</time>
</trkpt>
<trkpt lat="57.084755" lon="8.862079">
<ele>12.944273</ele>
<time>2026-07-15T10:06:15.000Z</time>
</trkpt>
<trkpt lat="57.084797" lon="8.862115">
<ele>12.954579</ele>
<time>2026-07-15T10:06:16.000Z</time>
</trkpt>
<trkpt lat="57.084839" lon="8.862153">
<ele>12.964989</ele>
<time>2026-07-15T10:06:17.000Z</time>
</trkpt>
<trkpt lat="57.084876" lon="8.862192">
<ele>12.974473</ele>
<time>2026-07-15T10:06:18.000Z</time>
</trkpt>
<trkpt lat="57.084923" lon="8.862237">
<ele>12.986258</ele>
<time>2026-07-15T10:06:19.000Z</time>
</trkpt>
<trkpt lat="57.084961" lon="8.862278">
<ele>12.996056</ele>
<time>2026-07-15T10:06:20.000Z</time>
</trkpt>
<trkpt lat="57.085003" lon="8.862318">
<ele>13.006575</ele>
<time>2026-07-15T10:06:21.000Z</time>
</trkpt>
<trkpt lat="57.085040" lon="8.862361">
<ele>13.016309</ele>
<time>2026-07-15T10:06:22.000Z</time>
</trkpt>
<trkpt lat="57.085082" lon="8.862399">
<ele>13.026719</ele>
<time>2026-07-15T10:06:23.000Z</time>
</trkpt>
<trkpt lat="57.085155" lon="8.862458">
<ele>13.044453</ele>
<time>2026-07-15T10:06:24.000Z</time>
</trkpt>
<trkpt lat="57.085206" lon="8.862503">
<ele>13.057034</ele>
<time>2026-07-15T10:06:25.000Z</time>
</trkpt>
<trkpt lat="57.085252" lon="8.862544">
<ele>13.068402</ele>
<time>2026-07-15T10:06:26.000Z</time>
</trkpt>
<trkpt lat="57.085324" lon="8.862597">
<ele>13.085651</ele>
<time>2026-07-15T10:06:27.000Z</time>
</trkpt>
<trkpt lat="57.085374" lon="8.862635">
<ele>13.097684</ele>
<time>2026-07-15T10:06:28.000Z</time>
</trkpt>
<trkpt lat="57.085438" lon="8.862679">
<ele>13.112880</ele>
<time>2026-07-15T10:06:29.000Z</time>
</trkpt>
<trkpt lat="57.085496" lon="8.862719">
<ele>13.126657</ele>
<time>2026-07-15T10:06:30.000Z</time>
</trkpt>
<trkpt lat="57.085557" lon="8.862755">
<ele>13.140906</ele>
<time>2026-07-15T10:06:31.000Z</time>
</trkpt>
<trkpt lat="57.085616" lon="8.862788">
<ele>13.154622</ele>
<time>2026-07-15T10:06:32.000Z</time>
</trkpt>
<trkpt lat="57.085678" lon="8.862817">
<ele>13.168852</ele>
<time>2026-07-15T10:06:33.000Z</time>
</trkpt>
<trkpt lat="57.085739" lon="8.862841">
<ele>13.182726</ele>
<time>2026-07-15T10:06:34.000Z</time>
</trkpt>
<trkpt lat="57.085799" lon="8.862865">
<ele>13.196384</ele>
<time>2026-07-15T10:06:35.000Z</time>
</trkpt>
<trkpt lat="57.085862" lon="8.862886">
<ele>13.210625</ele>
<time>2026-07-15T10:06:36.000Z</time>
</trkpt>
<trkpt lat="57.085918" lon="8.862906">
<ele>13.223314</ele>
<time>2026-07-15T10:06:37.000Z</time>
</trkpt>
<trkpt lat="57.085980" lon="8.862922">
<ele>13.237239</ele>
<time>2026-07-15T10:06:38.000Z</time>
</trkpt>
<trkpt lat="57.086028" lon="8.862933">
<ele>13.247998</ele>
<time>2026-07-15T10:06:39.000Z</time>
</trkpt>
<trkpt lat="57.086095" lon="8.862945">
<ele>13.262972</ele>
<time>2026-07-15T10:06:40.000Z</time>
</trkpt>
<trkpt lat="57.086152" lon="8.862957">
<ele>13.275733</ele>
<time>2026-07-15T10:06:41.000Z</time>
</trkpt>
<trkpt lat="57.086213" lon="8.862969">
<ele>13.289379</ele>
<time>2026-07-15T10:06:42.000Z</time>
</trkpt>
<trkpt lat="57.086273" lon="8.862978">
<ele>13.302769</ele>
<time>2026-07-15T10:06:43.000Z</time>
</trkpt>
<trkpt lat="57.086329" lon="8.862990">
<ele>13.315309</ele>
<time>2026-07-15T10:06:44.000Z</time>
</trkpt>
<trkpt lat="57.086392" lon="8.862998">
<ele>13.329355</ele>
<time>2026-07-15T10:06:45.000Z</time>
</trkpt>
<trkpt lat="57.086451" lon="8.863005">
<ele>13.329141</ele>
<time>2026-07-15T10:06:46.000Z</time>
</trkpt>
<trkpt lat="57.086510" lon="8.863013">
<ele>13.327006</ele>
<time>2026-07-15T10:06:47.000Z</time>
</trkpt>
<trkpt lat="57.086564" lon="8.863025">
<ele>13.325043</ele>
<time>2026-07-15T10:06:48.000Z</time>
</trkpt>
<trkpt lat="57.086621" lon="8.863047">
<ele>13.322941</ele>
<time>2026-07-15T10:06:49.000Z</time>
</trkpt>
<trkpt lat="57.086678" lon="8.863070">
<ele>13.320835</ele>
<time>2026-07-15T10:06:50.000Z</time>
</trkpt>
<trkpt lat="57.086727" lon="8.863085">
<ele>13.319042</ele>
<time>2026-07-15T10:06:51.000Z</time>
</trkpt>
<trkpt lat="57.086777" lon="8.863102">
<ele>13.317207</ele>
<time>2026-07-15T10:06:52.000Z</time>
</trkpt>
<trkpt lat="57.086819" lon="8.863121">
<ele>13.315646</ele>
<time>2026-07-15T10:06:53.000Z</time>
</trkpt>
<trkpt lat="57.086863" lon="8.863154">
<ele>13.313931</ele>
<time>2026-07-15T10:06:54.000Z</time>
</trkpt>
<trkpt lat="57.086903" lon="8.863187">
<ele>13.312349</ele>
<time>2026-07-15T10:06:55.000Z</time>
</trkpt>
<trkpt lat="57.086957" lon="8.863236">
<ele>13.310177</ele>
<time>2026-07-15T10:06:56.000Z</time>
</trkpt>
<trkpt lat="57.087001" lon="8.863286">
<ele>13.308310</ele>
<time>2026-07-15T10:06:57.000Z</time>
</trkpt>
<trkpt lat="57.087040" lon="8.863352">
<ele>13.306398</ele>
<time>2026-07-15T10:06:58.000Z</time>
</trkpt>
<trkpt lat="57.087077" lon="8.863422">
<ele>13.304483</ele>
<time>2026-07-15T10:06:59.000Z</time>
</trkpt>
<trkpt lat="57.087117" lon="8.863501">
<ele>13.302366</ele>
<time>2026-07-15T10:07:00.000Z</time>
</trkpt>
<trkpt lat="57.087151" lon="8.863581">
<ele>13.300374</ele>
<time>2026-07-15T10:07:01.000Z</time>
</trkpt>
<trkpt lat="57.087185" lon="8.863662">
<ele>13.298367</ele>
<time>2026-07-15T10:07:02.000Z</time>
</trkpt>
<trkpt lat="57.087216" lon="8.863750">
<ele>13.296310</ele>
<time>2026-07-15T10:07:03.000Z</time>
</trkpt>
<trkpt lat="57.087252" lon="8.863833">
<ele>13.294228</ele>
<time>2026-07-15T10:07:04.000Z</time>
</trkpt>
<trkpt lat="57.087284" lon="8.863923">
<ele>13.292118</ele>
<time>2026-07-15T10:07:05.000Z</time>
</trkpt>
<trkpt lat="57.087319" lon="8.864014">
<ele>13.289932</ele>
<time>2026-07-15T10:07:06.000Z</time>
</trkpt>
<trkpt lat="57.087353" lon="8.864102">
<ele>13.287815</ele>
<time>2026-07-15T10:07:07.000Z</time>
</trkpt>
<trkpt lat="57.087395" lon="8.864191">
<ele>13.285503</ele>
<time>2026-07-15T10:07:08.000Z</time>
</trkpt>
<trkpt lat="57.087436" lon="8.864271">
<ele>13.283347</ele>
<time>2026-07-15T10:07:09.000Z</time>
</trkpt>
<trkpt lat="57.087476" lon="8.864353">
<ele>13.281186</ele>
<time>2026-07-15T10:07:10.000Z</time>
</trkpt>
<trkpt lat="57.087517" lon="8.864425">
<ele>13.279140</ele>
<time>2026-07-15T10:07:11.000Z</time>
</trkpt>
<trkpt lat="57.087558" lon="8.864494">
<ele>13.277135</ele>
<time>2026-07-15T10:07:12.000Z</time>
</trkpt>
<trkpt lat="57.087605" lon="8.864553">
<ele>13.275082</ele>
<time>2026-07-15T10:07:13.000Z</time>
</trkpt>
<trkpt lat="57.087642" lon="8.864604">
<ele>13.273414</ele>
<time>2026-07-15T10:07:14.000Z</time>
</trkpt>
<trkpt lat="57.087684" lon="8.864651">
<ele>13.271640</ele>
<time>2026-07-15T10:07:15.000Z</time>
</trkpt>
<trkpt lat="57.087735" lon="8.864697">
<ele>13.269590</ele>
<time>2026-07-15T10:07:16.000Z</time>
</trkpt>
<trkpt lat="57.087777" lon="8.864737">
<ele>13.267884</ele>
<time>2026-07-15T10:07:17.000Z</time>
</trkpt>
<trkpt lat="57.087819" lon="8.864782">
<ele>13.266130</ele>
<time>2026-07-15T10:07:18.000Z</time>
</trkpt>
<trkpt lat="57.087872" lon="8.864831">
<ele>13.268971</ele>
<time>2026-07-15T10:07:19.000Z</time>
</trkpt>
<trkpt lat="57.087913" lon="8.864868">
<ele>13.271224</ele>
<time>2026-07-15T10:07:20.000Z</time>
</trkpt>
<trkpt lat="57.087964" lon="8.864907">
<ele>13.273949</ele>
<time>2026-07-15T10:07:21.000Z</time>
</trkpt>
<trkpt lat="57.088010" lon="8.864947">
<ele>13.276459</ele>
<time>2026-07-15T10:07:22.000Z</time>
</trkpt>
<trkpt lat="57.088059" lon="8.864989">
<ele>13.279126</ele>
<time>2026-07-15T10:07:23.000Z</time>
</trkpt>
<trkpt lat="57.088113" lon="8.865032">
<ele>13.282029</ele>
<time>2026-07-15T10:07:24.000Z</time>
</trkpt>
<trkpt lat="57.088161" lon="8.865070">
<ele>13.284607</ele>
<time>2026-07-15T10:07:25.000Z</time>
</trkpt>
<trkpt lat="57.088214" lon="8.865109">
<ele>13.287423</ele>
<time>2026-07-15T10:07:26.000Z</time>
</trkpt>
<trkpt lat="57.088272" lon="8.865157">
<ele>13.290560</ele>
<time>2026-07-15T10:07:27.000Z</time>
</trkpt>
<trkpt lat="57.088329" lon="8.865202">
<ele>13.293620</ele>
<time>2026-07-15T10:07:28.000Z</time>
</trkpt>
<trkpt lat="57.088384" lon="8.865245">
<ele>13.296568</ele>
<time>2026-07-15T10:07:29.000Z</time>
</trkpt>
<trkpt lat="57.088455" lon="8.865302">
<ele>13.300390</ele>
<time>2026-07-15T10:07:30.000Z</time>
</trkpt>
<trkpt lat="57.088520" lon="8.865350">
<ele>13.303845</ele>
<time>2026-07-15T10:07:31.000Z</time>
</trkpt>
<trkpt lat="57.088577" lon="8.865389">
<ele>13.306846</ele>
<time>2026-07-15T10:07:32.000Z</time>
</trkpt>
<trkpt lat="57.088639" lon="8.865432">
<ele>13.310114</ele>
<time>2026-07-15T10:07:33.000Z</time>
</trkpt>
<trkpt lat="57.088694" lon="8.865467">
<ele>13.312985</ele>
<time>2026-07-15T10:07:34.000Z</time>
</trkpt>
<trkpt lat="57.088752" lon="8.865507">
<ele>13.316041</ele>
<time>2026-07-15T10:07:35.000Z</time>
</trkpt>
<trkpt lat="57.088811" lon="8.865544">
<ele>13.319116</ele>
<time>2026-07-15T10:07:36.000Z</time>
</trkpt>
<trkpt lat="57.088866" lon="8.865583">
<ele>13.322024</ele>
<time>2026-07-15T10:07:37.000Z</time>
</trkpt>
<trkpt lat="57.088925" lon="8.865626">
<ele>13.325155</ele>
<time>2026-07-15T10:07:38.000Z</time>
</trkpt>
<trkpt lat="57.088979" lon="8.865664">
<ele>13.328007</ele>
<time>2026-07-15T10:07:39.000Z</time>
</trkpt>
<trkpt lat="57.089031" lon="8.865701">
<ele>13.330758</ele>
<time>2026-07-15T10:07:40.000Z</time>
</trkpt>
<trkpt lat="57.089085" lon="8.865737">
<ele>13.333591</ele>
<time>2026-07-15T10:07:41.000Z</time>
</trkpt>
<trkpt lat="57.089139" lon="8.865774">
<ele>13.336434</ele>
<time>2026-07-15T10:07:42.000Z</time>
</trkpt>
<trkpt lat="57.089191" lon="8.865808">
<ele>13.339157</ele>
<time>2026-07-15T10:07:43.000Z</time>
</trkpt>
<trkpt lat="57.089240" lon="8.865844">
<ele>13.341760</ele>
<time>2026-07-15T10:07:44.000Z</time>
</trkpt>
<trkpt lat="57.089291" lon="8.865883">
<ele>13.344484</ele>
<time>2026-07-15T10:07:45.000Z</time>
</trkpt>
<trkpt lat="57.089341" lon="8.865921">
<ele>13.347153</ele>
<time>2026-07-15T10:07:46.000Z</time>
</trkpt>
<trkpt lat="57.089387" lon="8.865952">
<ele>13.349570</ele>
<time>2026-07-15T10:07:47.000Z</time>
</trkpt>
<trkpt lat="57.089432" lon="8.865985">
<ele>13.351960</ele>
<time>2026-07-15T10:07:48.000Z</time>
</trkpt>
<trkpt lat="57.089478" lon="8.866016">
<ele>13.354377</ele>
<time>2026-07-15T10:07:49.000Z</time>
</trkpt>
<trkpt lat="57.089524" lon="8.866052">
<ele>13.360350</ele>
<time>2026-07-15T10:07:50.000Z</time>
</trkpt>
<trkpt lat="57.089570" lon="8.866085">
<ele>13.367035</ele>
<time>2026-07-15T10:07:51.000Z</time>
</trkpt>
<trkpt lat="57.089615" lon="8.866115">
<ele>13.373515</ele>
<time>2026-07-15T10:07:52.000Z</time>
</trkpt>
<trkpt lat="57.089667" lon="8.866160">
<ele>13.381295</ele>
<time>2026-07-15T10:07:53.000Z</time>
</trkpt>
<trkpt lat="57.089717" lon="8.866214">
<ele>13.389144</ele>
<time>2026-07-15T10:07:54.000Z</time>
</trkpt>
<trkpt lat="57.089760" lon="8.866274">
<ele>13.396450</ele>
<time>2026-07-15T10:07:55.000Z</time>
</trkpt>
<trkpt lat="57.089802" lon="8.866340">
<ele>13.403927</ele>
<time>2026-07-15T10:07:56.000Z</time>
</trkpt>
<trkpt lat="57.089844" lon="8.866412">
<ele>13.411698</ele>
<time>2026-07-15T10:07:57.000Z</time>
</trkpt>
<trkpt lat="57.089882" lon="8.866482">
<ele>13.418977</ele>
<time>2026-07-15T10:07:58.000Z</time>
</trkpt>
<trkpt lat="57.089924" lon="8.866573">
<ele>13.427760</ele>
<time>2026-07-15T10:07:59.000Z</time>
</trkpt>
<trkpt lat="57.089956" lon="8.866656">
<ele>13.435247</ele>
<time>2026-07-15T10:08:00.000Z</time>
</trkpt>
<trkpt lat="57.089993" lon="8.866748">
<ele>13.443667</ele>
<time>2026-07-15T10:08:01.000Z</time>
</trkpt>
<trkpt lat="57.090019" lon="8.866833">
<ele>13.450843</ele>
<time>2026-07-15T10:08:02.000Z</time>
</trkpt>
<trkpt lat="57.090046" lon="8.866918">
<ele>13.458086</ele>
<time>2026-07-15T10:08:03.000Z</time>
</trkpt>
<trkpt lat="57.090073" lon="8.867003">
<ele>13.465329</ele>
<time>2026-07-15T10:08:04.000Z</time>
</trkpt>
<trkpt lat="57.090103" lon="8.867084">
<ele>13.472540</ele>
<time>2026-07-15T10:08:05.000Z</time>
</trkpt>
<trkpt lat="57.090129" lon="8.867172">
<ele>13.479909</ele>
<time>2026-07-15T10:08:06.000Z</time>
</trkpt>
<trkpt lat="57.090160" lon="8.867262">
<ele>13.487748</ele>
<time>2026-07-15T10:08:07.000Z</time>
</trkpt>
<trkpt lat="57.090185" lon="8.867346">
<ele>13.494793</ele>
<time>2026-07-15T10:08:08.000Z</time>
</trkpt>
<trkpt lat="57.090210" lon="8.867450">
<ele>13.503159</ele>
<time>2026-07-15T10:08:09.000Z</time>
</trkpt>
<trkpt lat="57.090237" lon="8.867541">
<ele>13.510786</ele>
<time>2026-07-15T10:08:10.000Z</time>
</trkpt>
<trkpt lat="57.090263" lon="8.867639">
<ele>13.518809</ele>
<time>2026-07-15T10:08:11.000Z</time>
</trkpt>
<trkpt lat="57.090283" lon="8.867731">
<ele>13.526098</ele>
<time>2026-07-15T10:08:12.000Z</time>
</trkpt>
<trkpt lat="57.090298" lon="8.867816">
<ele>13.532672</ele>
<time>2026-07-15T10:08:13.000Z</time>
</trkpt>
<trkpt lat="57.090316" lon="8.867898">
<ele>13.539178</ele>
<time>2026-07-15T10:08:14.000Z</time>
</trkpt>
<trkpt lat="57.090328" lon="8.867991">
<ele>13.546210</ele>
<time>2026-07-15T10:08:15.000Z</time>
</trkpt>
<trkpt lat="57.090347" lon="8.868078">
<ele>13.553107</ele>
<time>2026-07-15T10:08:16.000Z</time>
</trkpt>
<trkpt lat="57.090367" lon="8.868175">
<ele>13.560739</ele>
<time>2026-07-15T10:08:17.000Z</time>
</trkpt>
<trkpt lat="57.090385" lon="8.868265">
<ele>13.567794</ele>
<time>2026-07-15T10:08:18.000Z</time>
</trkpt>
<trkpt lat="57.090401" lon="8.868369">
<ele>13.575745</ele>
<time>2026-07-15T10:08:19.000Z</time>
</trkpt>
<trkpt lat="57.090419" lon="8.868471">
<ele>13.583634</ele>
<time>2026-07-15T10:08:20.000Z</time>
</trkpt>
<trkpt lat="57.090435" lon="8.868585">
<ele>13.592295</ele>
<time>2026-07-15T10:08:21.000Z</time>
</trkpt>
<trkpt lat="57.090447" lon="8.868682">
<ele>13.599735</ele>
<time>2026-07-15T10:08:22.000Z</time>
</trkpt>
<trkpt lat="57.090466" lon="8.868775">
<ele>13.607748</ele>
<time>2026-07-15T10:08:23.000Z</time>
</trkpt>
<trkpt lat="57.090485" lon="8.868875">
<ele>13.616293</ele>
<time>2026-07-15T10:08:24.000Z</time>
</trkpt>
<trkpt lat="57.090507" lon="8.868972">
<ele>13.624771</ele>
<time>2026-07-15T10:08:25.000Z</time>
</trkpt>
<trkpt lat="57.090534" lon="8.869075">
<ele>13.633995</ele>
<time>2026-07-15T10:08:26.000Z</time>
</trkpt>
<trkpt lat="57.090565" lon="8.869171">
<ele>13.643002</ele>
<time>2026-07-15T10:08:27.000Z</time>
</trkpt>
<trkpt lat="57.090591" lon="8.869253">
<ele>13.650659</ele>
<time>2026-07-15T10:08:28.000Z</time>
</trkpt>
<trkpt lat="57.090618" lon="8.869345">
<ele>13.659093</ele>
<time>2026-07-15T10:08:29.000Z</time>
</trkpt>
<trkpt lat="57.090653" lon="8.869430">
<ele>13.667695</ele>
<time>2026-07-15T10:08:30.000Z</time>
</trkpt>
<trkpt lat="57.090687" lon="8.869510">
<ele>13.675887</ele>
<time>2026-07-15T10:08:31.000Z</time>
</trkpt>
<trkpt lat="57.090726" lon="8.869588">
<ele>13.684437</ele>
<time>2026-07-15T10:08:32.000Z</time>
</trkpt>
<trkpt lat="57.090767" lon="8.869657">
<ele>13.692684</ele>
<time>2026-07-15T10:08:33.000Z</time>
</trkpt>
<trkpt lat="57.090798" lon="8.869715">
<ele>13.699246</ele>
<time>2026-07-15T10:08:34.000Z</time>
</trkpt>
<trkpt lat="57.090833" lon="8.869766">
<ele>13.705873</ele>
<time>2026-07-15T10:08:35.000Z</time>
</trkpt>
<trkpt lat="57.090874" lon="8.869827">
<ele>13.713699</ele>
<time>2026-07-15T10:08:36.000Z</time>
</trkpt>
<trkpt lat="57.090915" lon="8.869882">
<ele>13.721231</ele>
<time>2026-07-15T10:08:37.000Z</time>
</trkpt>
<trkpt lat="57.090953" lon="8.869939">
<ele>13.728508</ele>
<time>2026-07-15T10:08:38.000Z</time>
</trkpt>
<trkpt lat="57.090992" lon="8.869993">
<ele>13.735753</ele>
<time>2026-07-15T10:08:39.000Z</time>
</trkpt>
<trkpt lat="57.091037" lon="8.870049">
<ele>13.743816</ele>
<time>2026-07-15T10:08:40.000Z</time>
</trkpt>
<trkpt lat="57.091079" lon="8.870112">
<ele>13.751860</ele>
<time>2026-07-15T10:08:41.000Z</time>
</trkpt>
<trkpt lat="57.091122" lon="8.870183">
<ele>13.760435</ele>
<time>2026-07-15T10:08:42.000Z</time>
</trkpt>
<trkpt lat="57.091160" lon="8.870251">
<ele>13.768303</ele>
<time>2026-07-15T10:08:43.000Z</time>
</trkpt>
<trkpt lat="57.091205" lon="8.870320">
<ele>13.776998</ele>
<time>2026-07-15T10:08:44.000Z</time>
</trkpt>
<trkpt lat="57.091247" lon="8.870393">
<ele>13.785573</ele>
<time>2026-07-15T10:08:45.000Z</time>
</trkpt>
<trkpt lat="57.091290" lon="8.870483">
<ele>13.795239</ele>
<time>2026-07-15T10:08:46.000Z</time>
</trkpt>
<trkpt lat="57.091325" lon="8.870563">
<ele>13.803524</ele>
<time>2026-07-15T10:08:47.000Z</time>
</trkpt>
<trkpt lat="57.091362" lon="8.870657">
<ele>13.812886</ele>
<time>2026-07-15T10:08:48.000Z</time>
</trkpt>
<trkpt lat="57.091397" lon="8.870750">
<ele>13.822010</ele>
<time>2026-07-15T10:08:49.000Z</time>
</trkpt>
<trkpt lat="57.091431" lon="8.870835">
<ele>13.830523</ele>
<time>2026-07-15T10:08:50.000Z</time>
</trkpt>
<trkpt lat="57.091485" lon="8.870952">
<ele>13.842905</ele>
<time>2026-07-15T10:08:51.000Z</time>
</trkpt>
<trkpt lat="57.091539" lon="8.871069">
<ele>13.855287</ele>
<time>2026-07-15T10:08:52.000Z</time>
</trkpt>
<trkpt lat="57.091593" lon="8.871185">
<ele>13.862017</ele>
<time>2026-07-15T10:08:53.000Z</time>
</trkpt>
<trkpt lat="57.091635" lon="8.871263">
<ele>13.848779</ele>
<time>2026-07-15T10:08:54.000Z</time>
</trkpt>
<trkpt lat="57.091667" lon="8.871343">
<ele>13.836805</ele>
<time>2026-07-15T10:08:55.000Z</time>
</trkpt>
<trkpt lat="57.091698" lon="8.871423">
<ele>13.824961</ele>
<time>2026-07-15T10:08:56.000Z</time>
</trkpt>
<trkpt lat="57.091731" lon="8.871503">
<ele>13.812853</ele>
<time>2026-07-15T10:08:57.000Z</time>
</trkpt>
<trkpt lat="57.091767" lon="8.871585">
<ele>13.800146</ele>
<time>2026-07-15T10:08:58.000Z</time>
</trkpt>
<trkpt lat="57.091805" lon="8.871668">
<ele>13.787063</ele>
<time>2026-07-15T10:08:59.000Z</time>
</trkpt>
<trkpt lat="57.091847" lon="8.871735">
<ele>13.774732</ele>
<time>2026-07-15T10:09:00.000Z</time>
</trkpt>
<trkpt lat="57.091885" lon="8.871791">
<ele>13.763932</ele>
<time>2026-07-15T10:09:01.000Z</time>
</trkpt>
<trkpt lat="57.091919" lon="8.871846">
<ele>13.753890</ele>
<time>2026-07-15T10:09:02.000Z</time>
</trkpt>
<trkpt lat="57.091954" lon="8.871921">
<ele>13.741973</ele>
<time>2026-07-15T10:09:03.000Z</time>
</trkpt>
<trkpt lat="57.091991" lon="8.871998">
<ele>13.729582</ele>
<time>2026-07-15T10:09:04.000Z</time>
</trkpt>
<trkpt lat="57.092033" lon="8.872070">
<ele>13.716848</ele>
<time>2026-07-15T10:09:05.000Z</time>
</trkpt>
<trkpt lat="57.092072" lon="8.872140">
<ele>13.704763</ele>
<time>2026-07-15T10:09:06.000Z</time>
</trkpt>
<trkpt lat="57.092109" lon="8.872199">
<ele>13.693902</ele>
<time>2026-07-15T10:09:07.000Z</time>
</trkpt>
<trkpt lat="57.092147" lon="8.872266">
<ele>13.682228</ele>
<time>2026-07-15T10:09:08.000Z</time>
</trkpt>
<trkpt lat="57.092186" lon="8.872344">
<ele>13.669450</ele>
<time>2026-07-15T10:09:09.000Z</time>
</trkpt>
<trkpt lat="57.092221" lon="8.872428">
<ele>13.656691</ele>
<time>2026-07-15T10:09:10.000Z</time>
</trkpt>
<trkpt lat="57.092259" lon="8.872515">
<ele>13.643236</ele>
<time>2026-07-15T10:09:11.000Z</time>
</trkpt>
<trkpt lat="57.092293" lon="8.872607">
<ele>13.629824</ele>
<time>2026-07-15T10:09:12.000Z</time>
</trkpt>
<trkpt lat="57.092324" lon="8.872696">
<ele>13.617081</ele>
<time>2026-07-15T10:09:13.000Z</time>
</trkpt>
<trkpt lat="57.092354" lon="8.872786">
<ele>13.604354</ele>
<time>2026-07-15T10:09:14.000Z</time>
</trkpt>
<trkpt lat="57.092381" lon="8.872877">
<ele>13.591857</ele>
<time>2026-07-15T10:09:15.000Z</time>
</trkpt>
<trkpt lat="57.092404" lon="8.872964">
<ele>13.580194</ele>
<time>2026-07-15T10:09:16.000Z</time>
</trkpt>
<trkpt lat="57.092430" lon="8.873050">
<ele>13.568332</ele>
<time>2026-07-15T10:09:17.000Z</time>
</trkpt>
<trkpt lat="57.092449" lon="8.873145">
<ele>13.556130</ele>
<time>2026-07-15T10:09:18.000Z</time>
</trkpt>
<trkpt lat="57.092465" lon="8.873238">
<ele>13.544372</ele>
<time>2026-07-15T10:09:19.000Z</time>
</trkpt>
<trkpt lat="57.092484" lon="8.873337">
<ele>13.531716</ele>
<time>2026-07-15T10:09:20.000Z</time>
</trkpt>
<trkpt lat="57.092495" lon="8.873434">
<ele>13.519773</ele>
<time>2026-07-15T10:09:21.000Z</time>
</trkpt>
<trkpt lat="57.092510" lon="8.873534">
<ele>13.507268</ele>
<time>2026-07-15T10:09:22.000Z</time>
</trkpt>
<trkpt lat="57.092521" lon="8.873633">
<ele>13.495088</ele>
<time>2026-07-15T10:09:23.000Z</time>
</trkpt>
<trkpt lat="57.092526" lon="8.873744">
<ele>13.481663</ele>
<time>2026-07-15T10:09:24.000Z</time>
</trkpt>
<trkpt lat="57.092533" lon="8.873849">
<ele>13.468913</ele>
<time>2026-07-15T10:09:25.000Z</time>
</trkpt>
<trkpt lat="57.092533" lon="8.873953">
<ele>13.459442</ele>
<time>2026-07-15T10:09:26.000Z</time>
</trkpt>
<trkpt lat="57.092533" lon="8.874058">
<ele>13.450688</ele>
<time>2026-07-15T10:09:27.000Z</time>
</trkpt>
<trkpt lat="57.092533" lon="8.874166">
<ele>13.441684</ele>
<time>2026-07-15T10:09:28.000Z</time>
</trkpt>
<trkpt lat="57.092526" lon="8.874273">
<ele>13.432699</ele>
<time>2026-07-15T10:09:29.000Z</time>
</trkpt>
<trkpt lat="57.092522" lon="8.874384">
<ele>13.423425</ele>
<time>2026-07-15T10:09:30.000Z</time>
</trkpt>
<trkpt lat="57.092514" lon="8.874488">
<ele>13.414667</ele>
<time>2026-07-15T10:09:31.000Z</time>
</trkpt>
<trkpt lat="57.092502" lon="8.874592">
<ele>13.405803</ele>
<time>2026-07-15T10:09:32.000Z</time>
</trkpt>
<trkpt lat="57.092495" lon="8.874695">
<ele>13.397149</ele>
<time>2026-07-15T10:09:33.000Z</time>
</trkpt>
<trkpt lat="57.092507" lon="8.874802">
<ele>13.388040</ele>
<time>2026-07-15T10:09:34.000Z</time>
</trkpt>
<trkpt lat="57.092514" lon="8.874904">
<ele>13.379469</ele>
<time>2026-07-15T10:09:35.000Z</time>
</trkpt>
<trkpt lat="57.092530" lon="8.875005">
<ele>13.370698</ele>
<time>2026-07-15T10:09:36.000Z</time>
</trkpt>
<trkpt lat="57.092544" lon="8.875101">
<ele>13.362411</ele>
<time>2026-07-15T10:09:37.000Z</time>
</trkpt>
<trkpt lat="57.092568" lon="8.875202">
<ele>13.353220</ele>
<time>2026-07-15T10:09:38.000Z</time>
</trkpt>
<trkpt lat="57.092586" lon="8.875295">
<ele>13.344989</ele>
<time>2026-07-15T10:09:39.000Z</time>
</trkpt>
<trkpt lat="57.092613" lon="8.875390">
<ele>13.336051</ele>
<time>2026-07-15T10:09:40.000Z</time>
</trkpt>
<trkpt lat="57.092640" lon="8.875484">
<ele>13.327186</ele>
<time>2026-07-15T10:09:41.000Z</time>
</trkpt>
<trkpt lat="57.092667" lon="8.875579">
<ele>13.318247</ele>
<time>2026-07-15T10:09:42.000Z</time>
</trkpt>
<trkpt lat="57.092693" lon="8.875673">
<ele>13.309453</ele>
<time>2026-07-15T10:09:43.000Z</time>
</trkpt>
<trkpt lat="57.092724" lon="8.875763">
<ele>13.300569</ele>
<time>2026-07-15T10:09:44.000Z</time>
</trkpt>
<trkpt lat="57.092758" lon="8.875842">
<ele>13.292166</ele>
<time>2026-07-15T10:09:45.000Z</time>
</trkpt>
<trkpt lat="57.092801" lon="8.875941">
<ele>13.281599</ele>
<time>2026-07-15T10:09:46.000Z</time>
</trkpt>
<trkpt lat="57.092834" lon="8.876027">
<ele>13.272821</ele>
<time>2026-07-15T10:09:47.000Z</time>
</trkpt>
<trkpt lat="57.092873" lon="8.876116">
<ele>13.263288</ele>
<time>2026-07-15T10:09:48.000Z</time>
</trkpt>
<trkpt lat="57.092907" lon="8.876199">
<ele>13.254622</ele>
<time>2026-07-15T10:09:49.000Z</time>
</trkpt>
<trkpt lat="57.092945" lon="8.876284">
<ele>13.245444</ele>
<time>2026-07-15T10:09:50.000Z</time>
</trkpt>
<trkpt lat="57.092983" lon="8.876371">
<ele>13.236138</ele>
<time>2026-07-15T10:09:51.000Z</time>
</trkpt>
<trkpt lat="57.093018" lon="8.876460">
<ele>13.226978</ele>
<time>2026-07-15T10:09:52.000Z</time>
</trkpt>
<trkpt lat="57.093051" lon="8.876544">
<ele>13.218335</ele>
<time>2026-07-15T10:09:53.000Z</time>
</trkpt>
<trkpt lat="57.093090" lon="8.876634">
<ele>13.208738</ele>
<time>2026-07-15T10:09:54.000Z</time>
</trkpt>
<trkpt lat="57.093129" lon="8.876718">
<ele>13.199526</ele>
<time>2026-07-15T10:09:55.000Z</time>
</trkpt>
<trkpt lat="57.093163" lon="8.876803">
<ele>13.190726</ele>
<time>2026-07-15T10:09:56.000Z</time>
</trkpt>
<trkpt lat="57.093201" lon="8.876885">
<ele>13.169519</ele>
<time>2026-07-15T10:09:57.000Z</time>
</trkpt>
<trkpt lat="57.093239" lon="8.876970">
<ele>13.147244</ele>
<time>2026-07-15T10:09:58.000Z</time>
</trkpt>
<trkpt lat="57.093281" lon="8.877049">
<ele>13.124877</ele>
<time>2026-07-15T10:09:59.000Z</time>
</trkpt>
<trkpt lat="57.093323" lon="8.877122">
<ele>13.103361</ele>
<time>2026-07-15T10:10:00.000Z</time>
</trkpt>
<trkpt lat="57.093369" lon="8.877190">
<ele>13.081386</ele>
<time>2026-07-15T10:10:01.000Z</time>
</trkpt>
<trkpt lat="57.093407" lon="8.877261">
<ele>13.061218</ele>
<time>2026-07-15T10:10:02.000Z</time>
</trkpt>
<trkpt lat="57.093449" lon="8.877333">
<ele>13.039840</ele>
<time>2026-07-15T10:10:03.000Z</time>
</trkpt>
<trkpt lat="57.093487" lon="8.877413">
<ele>13.018337</ele>
<time>2026-07-15T10:10:04.000Z</time>
</trkpt>
<trkpt lat="57.093529" lon="8.877493">
<ele>12.995825</ele>
<time>2026-07-15T10:10:05.000Z</time>
</trkpt>
<trkpt lat="57.093563" lon="8.877564">
<ele>12.976673</ele>
<time>2026-07-15T10:10:06.000Z</time>
</trkpt>
<trkpt lat="57.093606" lon="8.877647">
<ele>12.953465</ele>
<time>2026-07-15T10:10:07.000Z</time>
</trkpt>
<trkpt lat="57.093648" lon="8.877712">
<ele>12.933026</ele>
<time>2026-07-15T10:10:08.000Z</time>
</trkpt>
<trkpt lat="57.093686" lon="8.877779">
<ele>12.913427</ele>
<time>2026-07-15T10:10:09.000Z</time>
</trkpt>
<trkpt lat="57.093727" lon="8.877852">
<ele>12.892180</ele>
<time>2026-07-15T10:10:10.000Z</time>
</trkpt>
<trkpt lat="57.093766" lon="8.877935">
<ele>12.869974</ele>
<time>2026-07-15T10:10:11.000Z</time>
</trkpt>
<trkpt lat="57.093808" lon="8.878011">
<ele>12.848037</ele>
<time>2026-07-15T10:10:12.000Z</time>
</trkpt>
<trkpt lat="57.093845" lon="8.878080">
<ele>12.828419</ele>
<time>2026-07-15T10:10:13.000Z</time>
</trkpt>
<trkpt lat="57.093892" lon="8.878146">
<ele>12.806400</ele>
<time>2026-07-15T10:10:14.000Z</time>
</trkpt>
<trkpt lat="57.093930" lon="8.878216">
<ele>12.786376</ele>
<time>2026-07-15T10:10:15.000Z</time>
</trkpt>
<trkpt lat="57.093968" lon="8.878286">
<ele>12.766351</ele>
<time>2026-07-15T10:10:16.000Z</time>
</trkpt>
<trkpt lat="57.094006" lon="8.878356">
<ele>12.746327</ele>
<time>2026-07-15T10:10:17.000Z</time>
</trkpt>
<trkpt lat="57.094048" lon="8.878427">
<ele>12.725087</ele>
<time>2026-07-15T10:10:18.000Z</time>
</trkpt>
<trkpt lat="57.094090" lon="8.878494">
<ele>12.704386</ele>
<time>2026-07-15T10:10:19.000Z</time>
</trkpt>
<trkpt lat="57.094132" lon="8.878564">
<ele>12.683282</ele>
<time>2026-07-15T10:10:20.000Z</time>
</trkpt>
<trkpt lat="57.094170" lon="8.878630">
<ele>12.663822</ele>
<time>2026-07-15T10:10:21.000Z</time>
</trkpt>
<trkpt lat="57.094212" lon="8.878690">
<ele>12.644020</ele>
<time>2026-07-15T10:10:22.000Z</time>
</trkpt>
<trkpt lat="57.094250" lon="8.878749">
<ele>12.625503</ele>
<time>2026-07-15T10:10:23.000Z</time>
</trkpt>
<trkpt lat="57.094292" lon="8.878809">
<ele>12.605700</ele>
<time>2026-07-15T10:10:24.000Z</time>
</trkpt>
<trkpt lat="57.094334" lon="8.878867">
<ele>12.586144</ele>
<time>2026-07-15T10:10:25.000Z</time>
</trkpt>
<trkpt lat="57.094376" lon="8.878929">
<ele>12.566091</ele>
<time>2026-07-15T10:10:26.000Z</time>
</trkpt>
<trkpt lat="57.094419" lon="8.878982">
<ele>12.546815</ele>
<time>2026-07-15T10:10:27.000Z</time>
</trkpt>
<trkpt lat="57.094467" lon="8.879044">
<ele>12.524974</ele>
<time>2026-07-15T10:10:28.000Z</time>
</trkpt>
<trkpt lat="57.094517" lon="8.879111">
<ele>12.516143</ele>
<time>2026-07-15T10:10:29.000Z</time>
</trkpt>
<trkpt lat="57.094559" lon="8.879174">
<ele>12.511529</ele>
<time>2026-07-15T10:10:30.000Z</time>
</trkpt>
<trkpt lat="57.094605" lon="8.879243">
<ele>12.506475</ele>
<time>2026-07-15T10:10:31.000Z</time>
</trkpt>
<trkpt lat="57.094647" lon="8.879304">
<ele>12.501919</ele>
<time>2026-07-15T10:10:32.000Z</time>
</trkpt>
<trkpt lat="57.094689" lon="8.879366">
<ele>12.497333</ele>
<time>2026-07-15T10:10:33.000Z</time>
</trkpt>
<trkpt lat="57.094731" lon="8.879428">
<ele>12.492748</ele>
<time>2026-07-15T10:10:34.000Z</time>
</trkpt>
<trkpt lat="57.094766" lon="8.879480">
<ele>12.488917</ele>
<time>2026-07-15T10:10:35.000Z</time>
</trkpt>
<trkpt lat="57.094803" lon="8.879546">
<ele>12.484529</ele>
<time>2026-07-15T10:10:36.000Z</time>
</trkpt>
<trkpt lat="57.094839" lon="8.879598">
<ele>12.480632</ele>
<time>2026-07-15T10:10:37.000Z</time>
</trkpt>
<trkpt lat="57.094887" lon="8.879667">
<ele>12.475445</ele>
<time>2026-07-15T10:10:38.000Z</time>
</trkpt>
<trkpt lat="57.094931" lon="8.879727">
<ele>12.470781</ele>
<time>2026-07-15T10:10:39.000Z</time>
</trkpt>
<trkpt lat="57.094975" lon="8.879790">
<ele>12.466033</ele>
<time>2026-07-15T10:10:40.000Z</time>
</trkpt>
<trkpt lat="57.095017" lon="8.879858">
<ele>12.461269</ele>
<time>2026-07-15T10:10:41.000Z</time>
</trkpt>
<trkpt lat="57.095059" lon="8.879924">
<ele>12.456566</ele>
<time>2026-07-15T10:10:42.000Z</time>
</trkpt>
<trkpt lat="57.095105" lon="8.879987">
<ele>12.451683</ele>
<time>2026-07-15T10:10:43.000Z</time>
</trkpt>
<trkpt lat="57.095142" lon="8.880046">
<ele>12.447513</ele>
<time>2026-07-15T10:10:44.000Z</time>
</trkpt>
<trkpt lat="57.095184" lon="8.880112">
<ele>12.442810</ele>
<time>2026-07-15T10:10:45.000Z</time>
</trkpt>
<trkpt lat="57.095222" lon="8.880174">
<ele>12.438485</ele>
<time>2026-07-15T10:10:46.000Z</time>
</trkpt>
<trkpt lat="57.095261" lon="8.880241">
<ele>12.433942</ele>
<time>2026-07-15T10:10:47.000Z</time>
</trkpt>
<trkpt lat="57.095301" lon="8.880304">
<ele>12.429458</ele>
<time>2026-07-15T10:10:48.000Z</time>
</trkpt>
<trkpt lat="57.095343" lon="8.880368">
<ele>12.424814</ele>
<time>2026-07-15T10:10:49.000Z</time>
</trkpt>
<trkpt lat="57.095387" lon="8.880434">
<ele>12.419980</ele>
<time>2026-07-15T10:10:50.000Z</time>
</trkpt>
<trkpt lat="57.095433" lon="8.880499">
<ele>12.415041</ele>
<time>2026-07-15T10:10:51.000Z</time>
</trkpt>
<trkpt lat="57.095478" lon="8.880563">
<ele>12.410198</ele>
<time>2026-07-15T10:10:52.000Z</time>
</trkpt>
<trkpt lat="57.095521" lon="8.880626">
<ele>12.405517</ele>
<time>2026-07-15T10:10:53.000Z</time>
</trkpt>
<trkpt lat="57.095559" lon="8.880683">
<ele>12.401342</ele>
<time>2026-07-15T10:10:54.000Z</time>
</trkpt>
<trkpt lat="57.095593" lon="8.880736">
<ele>12.397548</ele>
<time>2026-07-15T10:10:55.000Z</time>
</trkpt>
<trkpt lat="57.095635" lon="8.880790">
<ele>12.393185</ele>
<time>2026-07-15T10:10:56.000Z</time>
</trkpt>
<trkpt lat="57.095680" lon="8.880845">
<ele>12.388584</ele>
<time>2026-07-15T10:10:57.000Z</time>
</trkpt>
<trkpt lat="57.095722" lon="8.880908">
<ele>12.383970</ele>
<time>2026-07-15T10:10:58.000Z</time>
</trkpt>
<trkpt lat="57.095772" lon="8.880979">
<ele>12.378591</ele>
<time>2026-07-15T10:10:59.000Z</time>
</trkpt>
<trkpt lat="57.095822" lon="8.881046">
<ele>12.373324</ele>
<time>2026-07-15T10:11:00.000Z</time>
</trkpt>
<trkpt lat="57.095867" lon="8.881118">
<ele>12.368246</ele>
<time>2026-07-15T10:11:01.000Z</time>
</trkpt>
<trkpt lat="57.095913" lon="8.881185">
<ele>12.346528</ele>
<time>2026-07-15T10:11:02.000Z</time>
</trkpt>
<trkpt lat="57.095955" lon="8.881243">
<ele>12.322950</ele>
<time>2026-07-15T10:11:03.000Z</time>
</trkpt>
<trkpt lat="57.095997" lon="8.881299">
<ele>12.299661</ele>
<time>2026-07-15T10:11:04.000Z</time>
</trkpt>
<trkpt lat="57.096043" lon="8.881390">
<ele>12.269337</ele>
<time>2026-07-15T10:11:05.000Z</time>
</trkpt>
<trkpt lat="57.096085" lon="8.881472">
<ele>12.241843</ele>
<time>2026-07-15T10:11:06.000Z</time>
</trkpt>
<trkpt lat="57.096129" lon="8.881548">
<ele>12.214747</ele>
<time>2026-07-15T10:11:07.000Z</time>
</trkpt>
<trkpt lat="57.096173" lon="8.881628">
<ele>12.186975</ele>
<time>2026-07-15T10:11:08.000Z</time>
</trkpt>
<trkpt lat="57.096218" lon="8.881710">
<ele>12.158540</ele>
<time>2026-07-15T10:11:09.000Z</time>
</trkpt>
<trkpt lat="57.096263" lon="8.881778">
<ele>12.132395</ele>
<time>2026-07-15T10:11:10.000Z</time>
</trkpt>
<trkpt lat="57.096310" lon="8.881848">
<ele>12.105245</ele>
<time>2026-07-15T10:11:11.000Z</time>
</trkpt>
<trkpt lat="57.096360" lon="8.881918">
<ele>12.077036</ele>
<time>2026-07-15T10:11:12.000Z</time>
</trkpt>
<trkpt lat="57.096404" lon="8.881984">
<ele>12.051547</ele>
<time>2026-07-15T10:11:13.000Z</time>
</trkpt>
<trkpt lat="57.096450" lon="8.882051">
<ele>12.025206</ele>
<time>2026-07-15T10:11:14.000Z</time>
</trkpt>
<trkpt lat="57.096497" lon="8.882113">
<ele>11.999240</ele>
<time>2026-07-15T10:11:15.000Z</time>
</trkpt>
<trkpt lat="57.096545" lon="8.882174">
<ele>11.973046</ele>
<time>2026-07-15T10:11:16.000Z</time>
</trkpt>
<trkpt lat="57.096596" lon="8.882238">
<ele>11.945328</ele>
<time>2026-07-15T10:11:17.000Z</time>
</trkpt>
<trkpt lat="57.096642" lon="8.882299">
<ele>11.919869</ele>
<time>2026-07-15T10:11:18.000Z</time>
</trkpt>
<trkpt lat="57.096686" lon="8.882363">
<ele>11.894686</ele>
<time>2026-07-15T10:11:19.000Z</time>
</trkpt>
<trkpt lat="57.096737" lon="8.882441">
<ele>11.864910</ele>
<time>2026-07-15T10:11:20.000Z</time>
</trkpt>
<trkpt lat="57.096783" lon="8.882511">
<ele>11.838108</ele>
<time>2026-07-15T10:11:21.000Z</time>
</trkpt>
<trkpt lat="57.096829" lon="8.882576">
<ele>11.812067</ele>
<time>2026-07-15T10:11:22.000Z</time>
</trkpt>
<trkpt lat="57.096875" lon="8.882646">
<ele>11.785265</ele>
<time>2026-07-15T10:11:23.000Z</time>
</trkpt>
<trkpt lat="57.096920" lon="8.882712">
<ele>11.759427</ele>
<time>2026-07-15T10:11:24.000Z</time>
</trkpt>
<trkpt lat="57.096963" lon="8.882786">
<ele>11.732993</ele>
<time>2026-07-15T10:11:25.000Z</time>
</trkpt>
<trkpt lat="57.097005" lon="8.882856">
<ele>11.707550</ele>
<time>2026-07-15T10:11:26.000Z</time>
</trkpt>
<trkpt lat="57.097049" lon="8.882917">
<ele>11.682814</ele>
<time>2026-07-15T10:11:27.000Z</time>
</trkpt>
<trkpt lat="57.097099" lon="8.882989">
<ele>11.654307</ele>
<time>2026-07-15T10:11:28.000Z</time>
</trkpt>
<trkpt lat="57.097141" lon="8.883057">
<ele>11.629189</ele>
<time>2026-07-15T10:11:29.000Z</time>
</trkpt>
<trkpt lat="57.097184" lon="8.883126">
<ele>11.603572</ele>
<time>2026-07-15T10:11:30.000Z</time>
</trkpt>
<trkpt lat="57.097225" lon="8.883188">
<ele>11.579745</ele>
<time>2026-07-15T10:11:31.000Z</time>
</trkpt>
<trkpt lat="57.097260" lon="8.883244">
<ele>11.559201</ele>
<time>2026-07-15T10:11:32.000Z</time>
</trkpt>
<trkpt lat="57.097302" lon="8.883298">
<ele>11.548673</ele>
<time>2026-07-15T10:11:33.000Z</time>
</trkpt>
<trkpt lat="57.097344" lon="8.883359">
<ele>11.537678</ele>
<time>2026-07-15T10:11:34.000Z</time>
</trkpt>
<trkpt lat="57.097389" lon="8.883428">
<ele>11.525643</ele>
<time>2026-07-15T10:11:35.000Z</time>
</trkpt>
<trkpt lat="57.097432" lon="8.883505">
<ele>11.513315</ele>
<time>2026-07-15T10:11:36.000Z</time>
</trkpt>
<trkpt lat="57.097476" lon="8.883595">
<ele>11.499797</ele>
<time>2026-07-15T10:11:37.000Z</time>
</trkpt>
<trkpt lat="57.097516" lon="8.883680">
<ele>11.487243</ele>
<time>2026-07-15T10:11:38.000Z</time>
</trkpt>
<trkpt lat="57.097546" lon="8.883768">
<ele>11.475645</ele>
<time>2026-07-15T10:11:39.000Z</time>
</trkpt>
<trkpt lat="57.097580" lon="8.883864">
<ele>11.462851</ele>
<time>2026-07-15T10:11:40.000Z</time>
</trkpt>
<trkpt lat="57.097606" lon="8.883959">
<ele>11.450976</ele>
<time>2026-07-15T10:11:41.000Z</time>
</trkpt>
<trkpt lat="57.097646" lon="8.884069">
<ele>11.436198</ele>
<time>2026-07-15T10:11:42.000Z</time>
</trkpt>
<trkpt lat="57.097683" lon="8.884174">
<ele>11.422226</ele>
<time>2026-07-15T10:11:43.000Z</time>
</trkpt>
<trkpt lat="57.097714" lon="8.884275">
<ele>11.409276</ele>
<time>2026-07-15T10:11:44.000Z</time>
</trkpt>
<trkpt lat="57.097747" lon="8.884369">
<ele>11.396781</ele>
<time>2026-07-15T10:11:45.000Z</time>
</trkpt>
<trkpt lat="57.097779" lon="8.884468">
<ele>11.383921</ele>
<time>2026-07-15T10:11:46.000Z</time>
</trkpt>
<trkpt lat="57.097809" lon="8.884561">
<ele>11.371846</ele>
<time>2026-07-15T10:11:47.000Z</time>
</trkpt>
<trkpt lat="57.097844" lon="8.884661">
<ele>11.358566</ele>
<time>2026-07-15T10:11:48.000Z</time>
</trkpt>
<trkpt lat="57.097878" lon="8.884753">
<ele>11.346144</ele>
<time>2026-07-15T10:11:49.000Z</time>
</trkpt>
<trkpt lat="57.097912" lon="8.884843">
<ele>11.333906</ele>
<time>2026-07-15T10:11:50.000Z</time>
</trkpt>
<trkpt lat="57.097950" lon="8.884928">
<ele>11.321617</ele>
<time>2026-07-15T10:11:51.000Z</time>
</trkpt>
<trkpt lat="57.097993" lon="8.885016">
<ele>11.308403</ele>
<time>2026-07-15T10:11:52.000Z</time>
</trkpt>
<trkpt lat="57.098030" lon="8.885098">
<ele>11.296503</ele>
<time>2026-07-15T10:11:53.000Z</time>
</trkpt>
<trkpt lat="57.098069" lon="8.885182">
<ele>11.284167</ele>
<time>2026-07-15T10:11:54.000Z</time>
</trkpt>
<trkpt lat="57.098107" lon="8.885265">
<ele>11.272049</ele>
<time>2026-07-15T10:11:55.000Z</time>
</trkpt>
<trkpt lat="57.098145" lon="8.885345">
<ele>11.260186</ele>
<time>2026-07-15T10:11:56.000Z</time>
</trkpt>
<trkpt lat="57.098187" lon="8.885421">
<ele>11.248083</ele>
<time>2026-07-15T10:11:57.000Z</time>
</trkpt>
<trkpt lat="57.098233" lon="8.885492">
<ele>11.235746</ele>
<time>2026-07-15T10:11:58.000Z</time>
</trkpt>
<trkpt lat="57.098277" lon="8.885562">
<ele>11.223795</ele>
<time>2026-07-15T10:11:59.000Z</time>
</trkpt>
<trkpt lat="57.098320" lon="8.885634">
<ele>11.211850</ele>
<time>2026-07-15T10:12:00.000Z</time>
</trkpt>
<trkpt lat="57.098370" lon="8.885706">
<ele>11.198804</ele>
<time>2026-07-15T10:12:01.000Z</time>
</trkpt>
<trkpt lat="57.098416" lon="8.885771">
<ele>11.186792</ele>
<time>2026-07-15T10:12:02.000Z</time>
</trkpt>
<trkpt lat="57.098466" lon="8.885837">
<ele>11.173737</ele>
<time>2026-07-15T10:12:03.000Z</time>
</trkpt>
<trkpt lat="57.098506" lon="8.885900">
<ele>11.162566</ele>
<time>2026-07-15T10:12:04.000Z</time>
</trkpt>
<trkpt lat="57.098557" lon="8.885964">
<ele>11.149469</ele>
<time>2026-07-15T10:12:05.000Z</time>
</trkpt>
<trkpt lat="57.098607" lon="8.886026">
<ele>11.136677</ele>
<time>2026-07-15T10:12:06.000Z</time>
</trkpt>
<trkpt lat="57.098652" lon="8.886084">
<ele>11.125020</ele>
<time>2026-07-15T10:12:07.000Z</time>
</trkpt>
<trkpt lat="57.098702" lon="8.886144">
<ele>11.112356</ele>
<time>2026-07-15T10:12:08.000Z</time>
</trkpt>
<trkpt lat="57.098746" lon="8.886200">
<ele>11.101005</ele>
<time>2026-07-15T10:12:09.000Z</time>
</trkpt>
<trkpt lat="57.098798" lon="8.886263">
<ele>11.087796</ele>
<time>2026-07-15T10:12:10.000Z</time>
</trkpt>
<trkpt lat="57.098842" lon="8.886322">
<ele>11.076245</ele>
<time>2026-07-15T10:12:11.000Z</time>
</trkpt>
<trkpt lat="57.098889" lon="8.886384">
<ele>11.063976</ele>
<time>2026-07-15T10:12:12.000Z</time>
</trkpt>
<trkpt lat="57.098939" lon="8.886449">
<ele>11.050987</ele>
<time>2026-07-15T10:12:13.000Z</time>
</trkpt>
<trkpt lat="57.098983" lon="8.886515">
<ele>11.038944</ele>
<time>2026-07-15T10:12:14.000Z</time>
</trkpt>
<trkpt lat="57.099030" lon="8.886587">
<ele>11.025969</ele>
<time>2026-07-15T10:12:15.000Z</time>
</trkpt>
<trkpt lat="57.099072" lon="8.886664">
<ele>11.013391</ele>
<time>2026-07-15T10:12:16.000Z</time>
</trkpt>
<trkpt lat="57.099114" lon="8.886743">
<ele>11.000650</ele>
<time>2026-07-15T10:12:17.000Z</time>
</trkpt>
<trkpt lat="57.099156" lon="8.886821">
<ele>10.987991</ele>
<time>2026-07-15T10:12:18.000Z</time>
</trkpt>
<trkpt lat="57.099185" lon="8.886879">
<ele>10.978904</ele>
<time>2026-07-15T10:12:19.000Z</time>
</trkpt>
<trkpt lat="57.099232" lon="8.886970">
<ele>10.964431</ele>
<time>2026-07-15T10:12:20.000Z</time>
</trkpt>
<trkpt lat="57.099269" lon="8.887048">
<ele>10.952495</ele>
<time>2026-07-15T10:12:21.000Z</time>
</trkpt>
<trkpt lat="57.099304" lon="8.887130">
<ele>10.940474</ele>
<time>2026-07-15T10:12:22.000Z</time>
</trkpt>
<trkpt lat="57.099339" lon="8.887209">
<ele>10.928724</ele>
<time>2026-07-15T10:12:23.000Z</time>
</trkpt>
<trkpt lat="57.099376" lon="8.887282">
<ele>10.917216</ele>
<time>2026-07-15T10:12:24.000Z</time>
</trkpt>
<trkpt lat="57.099415" lon="8.887361">
<ele>10.904911</ele>
<time>2026-07-15T10:12:25.000Z</time>
</trkpt>
<trkpt lat="57.099449" lon="8.887439">
<ele>10.893384</ele>
<time>2026-07-15T10:12:26.000Z</time>
</trkpt>
<trkpt lat="57.099488" lon="8.887518">
<ele>10.881079</ele>
<time>2026-07-15T10:12:27.000Z</time>
</trkpt>
<trkpt lat="57.099522" lon="8.887597">
<ele>10.869462</ele>
<time>2026-07-15T10:12:28.000Z</time>
</trkpt>
<trkpt lat="57.099559" lon="8.887672">
<ele>10.857784</ele>
<time>2026-07-15T10:12:29.000Z</time>
</trkpt>
<trkpt lat="57.099594" lon="8.887752">
<ele>10.845944</ele>
<time>2026-07-15T10:12:30.000Z</time>
</trkpt>
<trkpt lat="57.099628" lon="8.887830">
<ele>10.834417</ele>
<time>2026-07-15T10:12:31.000Z</time>
</trkpt>
<trkpt lat="57.099662" lon="8.887906">
<ele>10.823068</ele>
<time>2026-07-15T10:12:32.000Z</time>
</trkpt>
<trkpt lat="57.099698" lon="8.887979">
<ele>10.811704</ele>
<time>2026-07-15T10:12:33.000Z</time>
</trkpt>
<trkpt lat="57.099734" lon="8.888045">
<ele>10.808468</ele>
<time>2026-07-15T10:12:34.000Z</time>
</trkpt>
<trkpt lat="57.099770" lon="8.888122">
<ele>10.809017</ele>
<time>2026-07-15T10:12:35.000Z</time>
</trkpt>
<trkpt lat="57.099804" lon="8.888201">
<ele>10.809561</ele>
<time>2026-07-15T10:12:36.000Z</time>
</trkpt>
<trkpt lat="57.099839" lon="8.888278">
<ele>10.810103</ele>
<time>2026-07-15T10:12:37.000Z</time>
</trkpt>
<trkpt lat="57.099869" lon="8.888351">
<ele>10.810597</ele>
<time>2026-07-15T10:12:38.000Z</time>
</trkpt>
<trkpt lat="57.099901" lon="8.888421">
<ele>10.811091</ele>
<time>2026-07-15T10:12:39.000Z</time>
</trkpt>
<trkpt lat="57.099938" lon="8.888504">
<ele>10.811670</ele>
<time>2026-07-15T10:12:40.000Z</time>
</trkpt>
<trkpt lat="57.099971" lon="8.888575">
<ele>10.812175</ele>
<time>2026-07-15T10:12:41.000Z</time>
</trkpt>
<trkpt lat="57.100006" lon="8.888649">
<ele>10.812705</ele>
<time>2026-07-15T10:12:42.000Z</time>
</trkpt>
<trkpt lat="57.100041" lon="8.888722">
<ele>10.813230</ele>
<time>2026-07-15T10:12:43.000Z</time>
</trkpt>
<trkpt lat="57.100068" lon="8.888780">
<ele>10.813643</ele>
<time>2026-07-15T10:12:44.000Z</time>
</trkpt>
<trkpt lat="57.100109" lon="8.888868">
<ele>10.814268</ele>
<time>2026-07-15T10:12:45.000Z</time>
</trkpt>
<trkpt lat="57.100148" lon="8.888945">
<ele>10.814837</ele>
<time>2026-07-15T10:12:46.000Z</time>
</trkpt>
<trkpt lat="57.100181" lon="8.889019">
<ele>10.815354</ele>
<time>2026-07-15T10:12:47.000Z</time>
</trkpt>
<trkpt lat="57.100212" lon="8.889102">
<ele>10.815897</ele>
<time>2026-07-15T10:12:48.000Z</time>
</trkpt>
<trkpt lat="57.100245" lon="8.889181">
<ele>10.816435</ele>
<time>2026-07-15T10:12:49.000Z</time>
</trkpt>
<trkpt lat="57.100277" lon="8.889271">
<ele>10.817016</ele>
<time>2026-07-15T10:12:50.000Z</time>
</trkpt>
<trkpt lat="57.100308" lon="8.889355">
<ele>10.817564</ele>
<time>2026-07-15T10:12:51.000Z</time>
</trkpt>
<trkpt lat="57.100342" lon="8.889436">
<ele>10.818117</ele>
<time>2026-07-15T10:12:52.000Z</time>
</trkpt>
<trkpt lat="57.100373" lon="8.889516">
<ele>10.818647</ele>
<time>2026-07-15T10:12:53.000Z</time>
</trkpt>
<trkpt lat="57.100405" lon="8.889594">
<ele>10.819175</ele>
<time>2026-07-15T10:12:54.000Z</time>
</trkpt>
<trkpt lat="57.100437" lon="8.889677">
<ele>10.819725</ele>
<time>2026-07-15T10:12:55.000Z</time>
</trkpt>
<trkpt lat="57.100471" lon="8.889758">
<ele>10.820277</ele>
<time>2026-07-15T10:12:56.000Z</time>
</trkpt>
<trkpt lat="57.100502" lon="8.889843">
<ele>10.820830</ele>
<time>2026-07-15T10:12:57.000Z</time>
</trkpt>
<trkpt lat="57.100533" lon="8.889926">
<ele>10.821374</ele>
<time>2026-07-15T10:12:58.000Z</time>
</trkpt>
<trkpt lat="57.100563" lon="8.890008">
<ele>10.821907</ele>
<time>2026-07-15T10:12:59.000Z</time>
</trkpt>
<trkpt lat="57.100598" lon="8.890089">
<ele>10.822466</ele>
<time>2026-07-15T10:13:00.000Z</time>
</trkpt>
<trkpt lat="57.100628" lon="8.890171">
<ele>10.823000</ele>
<time>2026-07-15T10:13:01.000Z</time>
</trkpt>
<trkpt lat="57.100662" lon="8.890251">
<ele>10.823548</ele>
<time>2026-07-15T10:13:02.000Z</time>
</trkpt>
<trkpt lat="57.100693" lon="8.890336">
<ele>10.824101</ele>
<time>2026-07-15T10:13:03.000Z</time>
</trkpt>
<trkpt lat="57.100723" lon="8.890420">
<ele>10.824644</ele>
<time>2026-07-15T10:13:04.000Z</time>
</trkpt>
<trkpt lat="57.100754" lon="8.890506">
<ele>10.825201</ele>
<time>2026-07-15T10:13:05.000Z</time>
</trkpt>
<trkpt lat="57.100784" lon="8.890590">
<ele>10.825743</ele>
<time>2026-07-15T10:13:06.000Z</time>
</trkpt>
<trkpt lat="57.100815" lon="8.890676">
<ele>10.830636</ele>
<time>2026-07-15T10:13:07.000Z</time>
</trkpt>
<trkpt lat="57.100842" lon="8.890761">
<ele>10.839001</ele>
<time>2026-07-15T10:13:08.000Z</time>
</trkpt>
<trkpt lat="57.100872" lon="8.890847">
<ele>10.847683</ele>
<time>2026-07-15T10:13:09.000Z</time>
</trkpt>
<trkpt lat="57.100903" lon="8.890934">
<ele>10.856522</ele>
<time>2026-07-15T10:13:10.000Z</time>
</trkpt>
<trkpt lat="57.100933" lon="8.891020">
<ele>10.865205</ele>
<time>2026-07-15T10:13:11.000Z</time>
</trkpt>
<trkpt lat="57.100960" lon="8.891107">
<ele>10.873717</ele>
<time>2026-07-15T10:13:12.000Z</time>
</trkpt>
<trkpt lat="57.100991" lon="8.891195">
<ele>10.882627</ele>
<time>2026-07-15T10:13:13.000Z</time>
</trkpt>
<trkpt lat="57.101021" lon="8.891281">
<ele>10.891310</ele>
<time>2026-07-15T10:13:14.000Z</time>
</trkpt>
<trkpt lat="57.101050" lon="8.891364">
<ele>10.899694</ele>
<time>2026-07-15T10:13:15.000Z</time>
</trkpt>
<trkpt lat="57.101078" lon="8.891459">
<ele>10.908875</ele>
<time>2026-07-15T10:13:16.000Z</time>
</trkpt>
<trkpt lat="57.101108" lon="8.891546">
<ele>10.917630</ele>
<time>2026-07-15T10:13:17.000Z</time>
</trkpt>
<trkpt lat="57.101136" lon="8.891638">
<ele>10.926588</ele>
<time>2026-07-15T10:13:18.000Z</time>
</trkpt>
<trkpt lat="57.101162" lon="8.891725">
<ele>10.935024</ele>
<time>2026-07-15T10:13:19.000Z</time>
</trkpt>
<trkpt lat="57.101192" lon="8.891810">
<ele>10.943635</ele>
<time>2026-07-15T10:13:20.000Z</time>
</trkpt>
<trkpt lat="57.101222" lon="8.891892">
<ele>10.952034</ele>
<time>2026-07-15T10:13:21.000Z</time>
</trkpt>
<trkpt lat="57.101254" lon="8.891974">
<ele>10.960611</ele>
<time>2026-07-15T10:13:22.000Z</time>
</trkpt>
<trkpt lat="57.101288" lon="8.892053">
<ele>10.969174</ele>
<time>2026-07-15T10:13:23.000Z</time>
</trkpt>
<trkpt lat="57.101318" lon="8.892129">
<ele>10.977155</ele>
<time>2026-07-15T10:13:24.000Z</time>
</trkpt>
<trkpt lat="57.101353" lon="8.892206">
<ele>10.985684</ele>
<time>2026-07-15T10:13:25.000Z</time>
</trkpt>
<trkpt lat="57.101387" lon="8.892280">
<ele>10.993918</ele>
<time>2026-07-15T10:13:26.000Z</time>
</trkpt>
<trkpt lat="57.101418" lon="8.892356">
<ele>11.001992</ele>
<time>2026-07-15T10:13:27.000Z</time>
</trkpt>
<trkpt lat="57.101451" lon="8.892428">
<ele>11.009995</ele>
<time>2026-07-15T10:13:28.000Z</time>
</trkpt>
<trkpt lat="57.101486" lon="8.892500">
<ele>11.018203</ele>
<time>2026-07-15T10:13:29.000Z</time>
</trkpt>
<trkpt lat="57.101517" lon="8.892574">
<ele>11.026142</ele>
<time>2026-07-15T10:13:30.000Z</time>
</trkpt>
<trkpt lat="57.101551" lon="8.892647">
<ele>11.034311</ele>
<time>2026-07-15T10:13:31.000Z</time>
</trkpt>
<trkpt lat="57.101582" lon="8.892723">
<ele>11.042385</ele>
<time>2026-07-15T10:13:32.000Z</time>
</trkpt>
<trkpt lat="57.101615" lon="8.892796">
<ele>11.050453</ele>
<time>2026-07-15T10:13:33.000Z</time>
</trkpt>
<trkpt lat="57.101650" lon="8.892875">
<ele>11.059113</ele>
<time>2026-07-15T10:13:34.000Z</time>
</trkpt>
<trkpt lat="57.101681" lon="8.892952">
<ele>11.067255</ele>
<time>2026-07-15T10:13:35.000Z</time>
</trkpt>
<trkpt lat="57.101715" lon="8.893029">
<ele>11.075685</ele>
<time>2026-07-15T10:13:36.000Z</time>
</trkpt>
<trkpt lat="57.101745" lon="8.893103">
<ele>11.083529</ele>
<time>2026-07-15T10:13:37.000Z</time>
</trkpt>
<trkpt lat="57.101779" lon="8.893177">
<ele>11.091763</ele>
<time>2026-07-15T10:13:38.000Z</time>
</trkpt>
<trkpt lat="57.101811" lon="8.893256">
<ele>11.100134</ele>
<time>2026-07-15T10:13:39.000Z</time>
</trkpt>
<trkpt lat="57.101845" lon="8.893328">
<ele>11.109519</ele>
<time>2026-07-15T10:13:40.000Z</time>
</trkpt>
<trkpt lat="57.101879" lon="8.893402">
<ele>11.129153</ele>
<time>2026-07-15T10:13:41.000Z</time>
</trkpt>
<trkpt lat="57.101913" lon="8.893476">
<ele>11.148787</ele>
<time>2026-07-15T10:13:42.000Z</time>
</trkpt>
<trkpt lat="57.101945" lon="8.893555">
<ele>11.168750</ele>
<time>2026-07-15T10:13:43.000Z</time>
</trkpt>
<trkpt lat="57.101978" lon="8.893632">
<ele>11.188618</ele>
<time>2026-07-15T10:13:44.000Z</time>
</trkpt>
<trkpt lat="57.102008" lon="8.893705">
<ele>11.207161</ele>
<time>2026-07-15T10:13:45.000Z</time>
</trkpt>
<trkpt lat="57.102043" lon="8.893784">
<ele>11.227812</ele>
<time>2026-07-15T10:13:46.000Z</time>
</trkpt>
<trkpt lat="57.102074" lon="8.893858">
<ele>11.246743</ele>
<time>2026-07-15T10:13:47.000Z</time>
</trkpt>
<trkpt lat="57.102108" lon="8.893928">
<ele>11.265765</ele>
<time>2026-07-15T10:13:48.000Z</time>
</trkpt>
<trkpt lat="57.102139" lon="8.893993">
<ele>11.283287</ele>
<time>2026-07-15T10:13:49.000Z</time>
</trkpt>
<trkpt lat="57.102169" lon="8.894056">
<ele>11.300259</ele>
<time>2026-07-15T10:13:50.000Z</time>
</trkpt>
<trkpt lat="57.102195" lon="8.894118">
<ele>11.316126</ele>
<time>2026-07-15T10:13:51.000Z</time>
</trkpt>
<trkpt lat="57.102223" lon="8.894186">
<ele>11.333411</ele>
<time>2026-07-15T10:13:52.000Z</time>
</trkpt>
<trkpt lat="57.102253" lon="8.894250">
<ele>11.350536</ele>
<time>2026-07-15T10:13:53.000Z</time>
</trkpt>
<trkpt lat="57.102283" lon="8.894313">
<ele>11.367508</ele>
<time>2026-07-15T10:13:54.000Z</time>
</trkpt>
<trkpt lat="57.102314" lon="8.894382">
<ele>11.385646</ele>
<time>2026-07-15T10:13:55.000Z</time>
</trkpt>
<trkpt lat="57.102340" lon="8.894451">
<ele>11.402658</ele>
<time>2026-07-15T10:13:56.000Z</time>
</trkpt>
<trkpt lat="57.102372" lon="8.894519">
<ele>11.420883</ele>
<time>2026-07-15T10:13:57.000Z</time>
</trkpt>
<trkpt lat="57.102402" lon="8.894585">
<ele>11.438316</ele>
<time>2026-07-15T10:13:58.000Z</time>
</trkpt>
<trkpt lat="57.102433" lon="8.894654">
<ele>11.456455</ele>
<time>2026-07-15T10:13:59.000Z</time>
</trkpt>
<trkpt lat="57.102465" lon="8.894720">
<ele>11.474376</ele>
<time>2026-07-15T10:14:00.000Z</time>
</trkpt>
<trkpt lat="57.102497" lon="8.894789">
<ele>11.492755</ele>
<time>2026-07-15T10:14:01.000Z</time>
</trkpt>
<trkpt lat="57.102528" lon="8.894855">
<ele>11.510430</ele>
<time>2026-07-15T10:14:02.000Z</time>
</trkpt>
<trkpt lat="57.102558" lon="8.894922">
<ele>11.528019</ele>
<time>2026-07-15T10:14:03.000Z</time>
</trkpt>
<trkpt lat="57.102585" lon="8.894992">
<ele>11.545410</ele>
<time>2026-07-15T10:14:04.000Z</time>
</trkpt>
<trkpt lat="57.102612" lon="8.895064">
<ele>11.563133</ele>
<time>2026-07-15T10:14:05.000Z</time>
</trkpt>
<trkpt lat="57.102635" lon="8.895136">
<ele>11.580053</ele>
<time>2026-07-15T10:14:06.000Z</time>
</trkpt>
<trkpt lat="57.102664" lon="8.895207">
<ele>11.598048</ele>
<time>2026-07-15T10:14:07.000Z</time>
</trkpt>
<trkpt lat="57.102688" lon="8.895285">
<ele>11.616207</ele>
<time>2026-07-15T10:14:08.000Z</time>
</trkpt>
<trkpt lat="57.102707" lon="8.895363">
<ele>11.633523</ele>
<time>2026-07-15T10:14:09.000Z</time>
</trkpt>
<trkpt lat="57.102722" lon="8.895443">
<ele>11.650666</ele>
<time>2026-07-15T10:14:10.000Z</time>
</trkpt>
<trkpt lat="57.102741" lon="8.895524">
<ele>11.668538</ele>
<time>2026-07-15T10:14:11.000Z</time>
</trkpt>
<trkpt lat="57.102757" lon="8.895614">
<ele>11.687721</ele>
<time>2026-07-15T10:14:12.000Z</time>
</trkpt>
<trkpt lat="57.102768" lon="8.895699">
<ele>11.705420</ele>
<time>2026-07-15T10:14:13.000Z</time>
</trkpt>
<trkpt lat="57.102780" lon="8.895788">
<ele>11.723996</ele>
<time>2026-07-15T10:14:14.000Z</time>
</trkpt>
<trkpt lat="57.102791" lon="8.895872">
<ele>11.741498</ele>
<time>2026-07-15T10:14:15.000Z</time>
</trkpt>
<trkpt lat="57.102802" lon="8.895959">
<ele>11.759592</ele>
<time>2026-07-15T10:14:16.000Z</time>
</trkpt>
<trkpt lat="57.102814" lon="8.896044">
<ele>11.777382</ele>
<time>2026-07-15T10:14:17.000Z</time>
</trkpt>
<trkpt lat="57.102825" lon="8.896129">
<ele>11.787197</ele>
<time>2026-07-15T10:14:18.000Z</time>
</trkpt>
<trkpt lat="57.102833" lon="8.896213">
<ele>11.796443</ele>
<time>2026-07-15T10:14:19.000Z</time>
</trkpt>
<trkpt lat="57.102841" lon="8.896291">
<ele>11.805049</ele>
<time>2026-07-15T10:14:20.000Z</time>
</trkpt>
<trkpt lat="57.102852" lon="8.896363">
<ele>11.813158</ele>
<time>2026-07-15T10:14:21.000Z</time>
</trkpt>
<trkpt lat="57.102860" lon="8.896443">
<ele>11.821977</ele>
<time>2026-07-15T10:14:22.000Z</time>
</trkpt>
<trkpt lat="57.102867" lon="8.896527">
<ele>11.831191</ele>
<time>2026-07-15T10:14:23.000Z</time>
</trkpt>
<trkpt lat="57.102878" lon="8.896614">
<ele>11.840875</ele>
<time>2026-07-15T10:14:24.000Z</time>
</trkpt>
<trkpt lat="57.102890" lon="8.896707">
<ele>11.851239</ele>
<time>2026-07-15T10:14:25.000Z</time>
</trkpt>
<trkpt lat="57.102902" lon="8.896800">
<ele>11.861602</ele>
<time>2026-07-15T10:14:26.000Z</time>
</trkpt>
<trkpt lat="57.102909" lon="8.896893">
<ele>11.871781</ele>
<time>2026-07-15T10:14:27.000Z</time>
</trkpt>
<trkpt lat="57.102917" lon="8.896988">
<ele>11.882204</ele>
<time>2026-07-15T10:14:28.000Z</time>
</trkpt>
<trkpt lat="57.102924" lon="8.897088">
<ele>11.893135</ele>
<time>2026-07-15T10:14:29.000Z</time>
</trkpt>
<trkpt lat="57.102932" lon="8.897184">
<ele>11.903665</ele>
<time>2026-07-15T10:14:30.000Z</time>
</trkpt>
<trkpt lat="57.102939" lon="8.897282">
<ele>11.914382</ele>
<time>2026-07-15T10:14:31.000Z</time>
</trkpt>
<trkpt lat="57.102943" lon="8.897382">
<ele>11.925253</ele>
<time>2026-07-15T10:14:32.000Z</time>
</trkpt>
<trkpt lat="57.102951" lon="8.897484">
<ele>11.936426</ele>
<time>2026-07-15T10:14:33.000Z</time>
</trkpt>
<trkpt lat="57.102955" lon="8.897588">
<ele>11.947729</ele>
<time>2026-07-15T10:14:34.000Z</time>
</trkpt>
<trkpt lat="57.102963" lon="8.897696">
<ele>11.959547</ele>
<time>2026-07-15T10:14:35.000Z</time>
</trkpt>
<trkpt lat="57.102970" lon="8.897805">
<ele>11.971447</ele>
<time>2026-07-15T10:14:36.000Z</time>
</trkpt>
<trkpt lat="57.102974" lon="8.897915">
<ele>11.983399</ele>
<time>2026-07-15T10:14:37.000Z</time>
</trkpt>
<trkpt lat="57.102978" lon="8.898021">
<ele>11.994919</ele>
<time>2026-07-15T10:14:38.000Z</time>
</trkpt>
<trkpt lat="57.102982" lon="8.898125">
<ele>12.006223</ele>
<time>2026-07-15T10:14:39.000Z</time>
</trkpt>
<trkpt lat="57.102985" lon="8.898236">
<ele>12.018272</ele>
<time>2026-07-15T10:14:40.000Z</time>
</trkpt>
<trkpt lat="57.102993" lon="8.898342">
<ele>12.029874</ele>
<time>2026-07-15T10:14:41.000Z</time>
</trkpt>
<trkpt lat="57.102997" lon="8.898455">
<ele>12.042151</ele>
<time>2026-07-15T10:14:42.000Z</time>
</trkpt>
<trkpt lat="57.103001" lon="8.898560">
<ele>12.053563</ele>
<time>2026-07-15T10:14:43.000Z</time>
</trkpt>
<trkpt lat="57.103004" lon="8.898670">
<ele>12.065504</ele>
<time>2026-07-15T10:14:44.000Z</time>
</trkpt>
<trkpt lat="57.103008" lon="8.898777">
<ele>12.077132</ele>
<time>2026-07-15T10:14:45.000Z</time>
</trkpt>
<trkpt lat="57.103012" lon="8.898883">
<ele>12.088652</ele>
<time>2026-07-15T10:14:46.000Z</time>
</trkpt>
<trkpt lat="57.103016" lon="8.898986">
<ele>12.099847</ele>
<time>2026-07-15T10:14:47.000Z</time>
</trkpt>
<trkpt lat="57.103024" lon="8.899095">
<ele>12.111772</ele>
<time>2026-07-15T10:14:48.000Z</time>
</trkpt>
<trkpt lat="57.103027" lon="8.899193">
<ele>12.122414</ele>
<time>2026-07-15T10:14:49.000Z</time>
</trkpt>
<trkpt lat="57.103039" lon="8.899302">
<ele>12.134471</ele>
<time>2026-07-15T10:14:50.000Z</time>
</trkpt>
<trkpt lat="57.103046" lon="8.899403">
<ele>12.143608</ele>
<time>2026-07-15T10:14:51.000Z</time>
</trkpt>
<trkpt lat="57.103054" lon="8.899509">
<ele>12.152569</ele>
<time>2026-07-15T10:14:52.000Z</time>
</trkpt>
<trkpt lat="57.103062" lon="8.899615">
<ele>12.161531</ele>
<time>2026-07-15T10:14:53.000Z</time>
</trkpt>
<trkpt lat="57.103065" lon="8.899696">
<ele>12.168330</ele>
<time>2026-07-15T10:14:54.000Z</time>
</trkpt>
<trkpt lat="57.103069" lon="8.899829">
<ele>12.179484</ele>
<time>2026-07-15T10:14:55.000Z</time>
</trkpt>
<trkpt lat="57.103073" lon="8.899944">
<ele>12.189134</ele>
<time>2026-07-15T10:14:56.000Z</time>
</trkpt>
<trkpt lat="57.103081" lon="8.900051">
<ele>12.198178</ele>
<time>2026-07-15T10:14:57.000Z</time>
</trkpt>
<trkpt lat="57.103085" lon="8.900157">
<ele>12.207076</ele>
<time>2026-07-15T10:14:58.000Z</time>
</trkpt>
<trkpt lat="57.103092" lon="8.900261">
<ele>12.215851</ele>
<time>2026-07-15T10:14:59.000Z</time>
</trkpt>
<trkpt lat="57.103092" lon="8.900364">
<ele>12.224476</ele>
<time>2026-07-15T10:15:00.000Z</time>
</trkpt>
<trkpt lat="57.103096" lon="8.900467">
<ele>12.233123</ele>
<time>2026-07-15T10:15:01.000Z</time>
</trkpt>
<trkpt lat="57.103096" lon="8.900575">
<ele>12.242167</ele>
<time>2026-07-15T10:15:02.000Z</time>
</trkpt>
<trkpt lat="57.103100" lon="8.900682">
<ele>12.251148</ele>
<time>2026-07-15T10:15:03.000Z</time>
</trkpt>
<trkpt lat="57.103107" lon="8.900786">
<ele>12.259924</ele>
<time>2026-07-15T10:15:04.000Z</time>
</trkpt>
<trkpt lat="57.103115" lon="8.900889">
<ele>12.268637</ele>
<time>2026-07-15T10:15:05.000Z</time>
</trkpt>
<trkpt lat="57.103115" lon="8.900994">
<ele>12.277429</ele>
<time>2026-07-15T10:15:06.000Z</time>
</trkpt>
<trkpt lat="57.103119" lon="8.901098">
<ele>12.286160</ele>
<time>2026-07-15T10:15:07.000Z</time>
</trkpt>
<trkpt lat="57.103123" lon="8.901202">
<ele>12.294890</ele>
<time>2026-07-15T10:15:08.000Z</time>
</trkpt>
<trkpt lat="57.103127" lon="8.901306">
<ele>12.303621</ele>
<time>2026-07-15T10:15:09.000Z</time>
</trkpt>
<trkpt lat="57.103134" lon="8.901410">
<ele>12.312396</ele>
<time>2026-07-15T10:15:10.000Z</time>
</trkpt>
<trkpt lat="57.103142" lon="8.901509">
<ele>12.320778</ele>
<time>2026-07-15T10:15:11.000Z</time>
</trkpt>
<trkpt lat="57.103142" lon="8.901610">
<ele>12.329235</ele>
<time>2026-07-15T10:15:12.000Z</time>
</trkpt>
<trkpt lat="57.103146" lon="8.901716">
<ele>12.338133</ele>
<time>2026-07-15T10:15:13.000Z</time>
</trkpt>
<trkpt lat="57.103153" lon="8.901825">
<ele>12.347324</ele>
<time>2026-07-15T10:15:14.000Z</time>
</trkpt>
<trkpt lat="57.103157" lon="8.901933">
<ele>12.356389</ele>
<time>2026-07-15T10:15:15.000Z</time>
</trkpt>
<trkpt lat="57.103161" lon="8.902043">
<ele>12.365621</ele>
<time>2026-07-15T10:15:16.000Z</time>
</trkpt>
<trkpt lat="57.103169" lon="8.902154">
<ele>12.374997</ele>
<time>2026-07-15T10:15:17.000Z</time>
</trkpt>
<trkpt lat="57.103172" lon="8.902261">
<ele>12.383969</ele>
<time>2026-07-15T10:15:18.000Z</time>
</trkpt>
<trkpt lat="57.103176" lon="8.902371">
<ele>12.393201</ele>
<time>2026-07-15T10:15:19.000Z</time>
</trkpt>
<trkpt lat="57.103184" lon="8.902476">
<ele>12.402080</ele>
<time>2026-07-15T10:15:20.000Z</time>
</trkpt>
<trkpt lat="57.103187" lon="8.902575">
<ele>12.410383</ele>
<time>2026-07-15T10:15:21.000Z</time>
</trkpt>
<trkpt lat="57.103195" lon="8.902689">
<ele>12.417426</ele>
<time>2026-07-15T10:15:22.000Z</time>
</trkpt>
<trkpt lat="57.103195" lon="8.902798">
<ele>12.422303</ele>
<time>2026-07-15T10:15:23.000Z</time>
</trkpt>
<trkpt lat="57.103199" lon="8.902908">
<ele>12.427235</ele>
<time>2026-07-15T10:15:24.000Z</time>
</trkpt>
<trkpt lat="57.103207" lon="8.903017">
<ele>12.432156</ele>
<time>2026-07-15T10:15:25.000Z</time>
</trkpt>
<trkpt lat="57.103211" lon="8.903130">
<ele>12.437223</ele>
<time>2026-07-15T10:15:26.000Z</time>
</trkpt>
<trkpt lat="57.103214" lon="8.903239">
<ele>12.442106</ele>
<time>2026-07-15T10:15:27.000Z</time>
</trkpt>
<trkpt lat="57.103218" lon="8.903348">
<ele>12.446994</ele>
<time>2026-07-15T10:15:28.000Z</time>
</trkpt>
<trkpt lat="57.103222" lon="8.903460">
<ele>12.452015</ele>
<time>2026-07-15T10:15:29.000Z</time>
</trkpt>
<trkpt lat="57.103226" lon="8.903574">
<ele>12.457127</ele>
<time>2026-07-15T10:15:30.000Z</time>
</trkpt>
<trkpt lat="57.103229" lon="8.903689">
<ele>12.462278</ele>
<time>2026-07-15T10:15:31.000Z</time>
</trkpt>
<trkpt lat="57.103233" lon="8.903809">
<ele>12.467657</ele>
<time>2026-07-15T10:15:32.000Z</time>
</trkpt>
<trkpt lat="57.103241" lon="8.903921">
<ele>12.472711</ele>
<time>2026-07-15T10:15:33.000Z</time>
</trkpt>
<trkpt lat="57.103245" lon="8.904046">
<ele>12.478313</ele>
<time>2026-07-15T10:15:34.000Z</time>
</trkpt>
<trkpt lat="57.103252" lon="8.904162">
<ele>12.483535</ele>
<time>2026-07-15T10:15:35.000Z</time>
</trkpt>
<trkpt lat="57.103253" lon="8.904280">
<ele>12.488815</ele>
<time>2026-07-15T10:15:36.000Z</time>
</trkpt>
<trkpt lat="57.103260" lon="8.904399">
<ele>12.494170</ele>
<time>2026-07-15T10:15:37.000Z</time>
</trkpt>
<trkpt lat="57.103264" lon="8.904513">
<ele>12.499281</ele>
<time>2026-07-15T10:15:38.000Z</time>
</trkpt>
<trkpt lat="57.103268" lon="8.904628">
<ele>12.504437</ele>
<time>2026-07-15T10:15:39.000Z</time>
</trkpt>
<trkpt lat="57.103272" lon="8.904747">
<ele>12.509771</ele>
<time>2026-07-15T10:15:40.000Z</time>
</trkpt>
<trkpt lat="57.103279" lon="8.904859">
<ele>12.514815</ele>
<time>2026-07-15T10:15:41.000Z</time>
</trkpt>
<trkpt lat="57.103283" lon="8.904972">
<ele>12.519882</ele>
<time>2026-07-15T10:15:42.000Z</time>
</trkpt>
<trkpt lat="57.103287" lon="8.905085">
<ele>12.524948</ele>
<time>2026-07-15T10:15:43.000Z</time>
</trkpt>
<trkpt lat="57.103294" lon="8.905206">
<ele>12.530392</ele>
<time>2026-07-15T10:15:44.000Z</time>
</trkpt>
<trkpt lat="57.103302" lon="8.905323">
<ele>12.535668</ele>
<time>2026-07-15T10:15:45.000Z</time>
</trkpt>
<trkpt lat="57.103310" lon="8.905436">
<ele>12.540767</ele>
<time>2026-07-15T10:15:46.000Z</time>
</trkpt>
<trkpt lat="57.103314" lon="8.905552">
<ele>12.545967</ele>
<time>2026-07-15T10:15:47.000Z</time>
</trkpt>
<trkpt lat="57.103321" lon="8.905667">
<ele>12.551145</ele>
<time>2026-07-15T10:15:48.000Z</time>
</trkpt>
<trkpt lat="57.103325" lon="8.905774">
<ele>12.555943</ele>
<time>2026-07-15T10:15:49.000Z</time>
</trkpt>
<trkpt lat="57.103329" lon="8.905891">
<ele>12.561188</ele>
<time>2026-07-15T10:15:50.000Z</time>
</trkpt>
<trkpt lat="57.103336" lon="8.906003">
<ele>12.560088</ele>
<time>2026-07-15T10:15:51.000Z</time>
</trkpt>
<trkpt lat="57.103340" lon="8.906115">
<ele>12.556548</ele>
<time>2026-07-15T10:15:52.000Z</time>
</trkpt>
<trkpt lat="57.103344" lon="8.906223">
<ele>12.553133</ele>
<time>2026-07-15T10:15:53.000Z</time>
</trkpt>
<trkpt lat="57.103352" lon="8.906330">
<ele>12.549726</ele>
<time>2026-07-15T10:15:54.000Z</time>
</trkpt>
<trkpt lat="57.103359" lon="8.906436">
<ele>12.546358</ele>
<time>2026-07-15T10:15:55.000Z</time>
</trkpt>
<trkpt lat="57.103363" lon="8.906548">
<ele>12.542817</ele>
<time>2026-07-15T10:15:56.000Z</time>
</trkpt>
<trkpt lat="57.103367" lon="8.906650">
<ele>12.539591</ele>
<time>2026-07-15T10:15:57.000Z</time>
</trkpt>
<trkpt lat="57.103371" lon="8.906755">
<ele>12.536271</ele>
<time>2026-07-15T10:15:58.000Z</time>
</trkpt>
<trkpt lat="57.103374" lon="8.906863">
<ele>12.532859</ele>
<time>2026-07-15T10:15:59.000Z</time>
</trkpt>
<trkpt lat="57.103382" lon="8.906980">
<ele>12.529139</ele>
<time>2026-07-15T10:16:00.000Z</time>
</trkpt>
<trkpt lat="57.103390" lon="8.907089">
<ele>12.525670</ele>
<time>2026-07-15T10:16:01.000Z</time>
</trkpt>
<trkpt lat="57.103394" lon="8.907205">
<ele>12.522003</ele>
<time>2026-07-15T10:16:02.000Z</time>
</trkpt>
<trkpt lat="57.103397" lon="8.907318">
<ele>12.518434</ele>
<time>2026-07-15T10:16:03.000Z</time>
</trkpt>
<trkpt lat="57.103405" lon="8.907431">
<ele>12.514840</ele>
<time>2026-07-15T10:16:04.000Z</time>
</trkpt>
<trkpt lat="57.103409" lon="8.907540">
<ele>12.511393</ele>
<time>2026-07-15T10:16:05.000Z</time>
</trkpt>
<trkpt lat="57.103416" lon="8.907646">
<ele>12.508025</ele>
<time>2026-07-15T10:16:06.000Z</time>
</trkpt>
<trkpt lat="57.103420" lon="8.907760">
<ele>12.504421</ele>
<time>2026-07-15T10:16:07.000Z</time>
</trkpt>
<trkpt lat="57.103424" lon="8.907871">
<ele>12.500912</ele>
<time>2026-07-15T10:16:08.000Z</time>
</trkpt>
<trkpt lat="57.103428" lon="8.907978">
<ele>12.497529</ele>
<time>2026-07-15T10:16:09.000Z</time>
</trkpt>
<trkpt lat="57.103436" lon="8.908086">
<ele>12.494091</ele>
<time>2026-07-15T10:16:10.000Z</time>
</trkpt>
<trkpt lat="57.103443" lon="8.908197">
<ele>12.490566</ele>
<time>2026-07-15T10:16:11.000Z</time>
</trkpt>
<trkpt lat="57.103447" lon="8.908315">
<ele>12.486836</ele>
<time>2026-07-15T10:16:12.000Z</time>
</trkpt>
<trkpt lat="57.103451" lon="8.908431">
<ele>12.483170</ele>
<time>2026-07-15T10:16:13.000Z</time>
</trkpt>
<trkpt lat="57.103458" lon="8.908542">
<ele>12.479645</ele>
<time>2026-07-15T10:16:14.000Z</time>
</trkpt>
<trkpt lat="57.103462" lon="8.908653">
<ele>12.476135</ele>
<time>2026-07-15T10:16:15.000Z</time>
</trkpt>
<trkpt lat="57.103469" lon="8.908753">
<ele>12.472955</ele>
<time>2026-07-15T10:16:16.000Z</time>
</trkpt>
<trkpt lat="57.103474" lon="8.908872">
<ele>12.469190</ele>
<time>2026-07-15T10:16:17.000Z</time>
</trkpt>
<trkpt lat="57.103474" lon="8.908982">
<ele>12.465720</ele>
<time>2026-07-15T10:16:18.000Z</time>
</trkpt>
<trkpt lat="57.103481" lon="8.909094">
<ele>12.462164</ele>
<time>2026-07-15T10:16:19.000Z</time>
</trkpt>
<trkpt lat="57.103485" lon="8.909205">
<ele>12.458654</ele>
<time>2026-07-15T10:16:20.000Z</time>
</trkpt>
<trkpt lat="57.103489" lon="8.909317">
<ele>12.458941</ele>
<time>2026-07-15T10:16:21.000Z</time>
</trkpt>
<trkpt lat="57.103493" lon="8.909431">
<ele>12.459860</ele>
<time>2026-07-15T10:16:22.000Z</time>
</trkpt>
<trkpt lat="57.103497" lon="8.909543">
<ele>12.460764</ele>
<time>2026-07-15T10:16:23.000Z</time>
</trkpt>
<trkpt lat="57.103504" lon="8.909652">
<ele>12.461647</ele>
<time>2026-07-15T10:16:24.000Z</time>
</trkpt>
<trkpt lat="57.103512" lon="8.909765">
<ele>12.462564</ele>
<time>2026-07-15T10:16:25.000Z</time>
</trkpt>
<trkpt lat="57.103516" lon="8.909874">
<ele>12.463443</ele>
<time>2026-07-15T10:16:26.000Z</time>
</trkpt>
<trkpt lat="57.103519" lon="8.909988">
<ele>12.464361</ele>
<time>2026-07-15T10:16:27.000Z</time>
</trkpt>
<trkpt lat="57.103523" lon="8.910101">
<ele>12.465272</ele>
<time>2026-07-15T10:16:28.000Z</time>
</trkpt>
<trkpt lat="57.103531" lon="8.910214">
<ele>12.466189</ele>
<time>2026-07-15T10:16:29.000Z</time>
</trkpt>
<trkpt lat="57.103539" lon="8.910326">
<ele>12.467098</ele>
<time>2026-07-15T10:16:30.000Z</time>
</trkpt>
<trkpt lat="57.103542" lon="8.910436">
<ele>12.467984</ele>
<time>2026-07-15T10:16:31.000Z</time>
</trkpt>
<trkpt lat="57.103546" lon="8.910544">
<ele>12.468855</ele>
<time>2026-07-15T10:16:32.000Z</time>
</trkpt>
<trkpt lat="57.103550" lon="8.910659">
<ele>12.469783</ele>
<time>2026-07-15T10:16:33.000Z</time>
</trkpt>
<trkpt lat="57.103558" lon="8.910768">
<ele>12.470668</ele>
<time>2026-07-15T10:16:34.000Z</time>
</trkpt>
<trkpt lat="57.103561" lon="8.910877">
<ele>12.471546</ele>
<time>2026-07-15T10:16:35.000Z</time>
</trkpt>
<trkpt lat="57.103565" lon="8.910983">
<ele>12.472401</ele>
<time>2026-07-15T10:16:36.000Z</time>
</trkpt>
<trkpt lat="57.103573" lon="8.911093">
<ele>12.473294</ele>
<time>2026-07-15T10:16:37.000Z</time>
</trkpt>
<trkpt lat="57.103577" lon="8.911206">
<ele>12.474205</ele>
<time>2026-07-15T10:16:38.000Z</time>
</trkpt>
<trkpt lat="57.103577" lon="8.911313">
<ele>12.475066</ele>
<time>2026-07-15T10:16:39.000Z</time>
</trkpt>
<trkpt lat="57.103584" lon="8.911426">
<ele>12.475981</ele>
<time>2026-07-15T10:16:40.000Z</time>
</trkpt>
<trkpt lat="57.103592" lon="8.911539">
<ele>12.476898</ele>
<time>2026-07-15T10:16:41.000Z</time>
</trkpt>
<trkpt lat="57.103596" lon="8.911656">
<ele>12.477841</ele>
<time>2026-07-15T10:16:42.000Z</time>
</trkpt>
<trkpt lat="57.103600" lon="8.911768">
<ele>12.478745</ele>
<time>2026-07-15T10:16:43.000Z</time>
</trkpt>
<trkpt lat="57.103607" lon="8.911882">
<ele>12.479668</ele>
<time>2026-07-15T10:16:44.000Z</time>
</trkpt>
<trkpt lat="57.103611" lon="8.911999">
<ele>12.480611</ele>
<time>2026-07-15T10:16:45.000Z</time>
</trkpt>
<trkpt lat="57.103615" lon="8.912110">
<ele>12.481506</ele>
<time>2026-07-15T10:16:46.000Z</time>
</trkpt>
<trkpt lat="57.103615" lon="8.912223">
<ele>12.482415</ele>
<time>2026-07-15T10:16:47.000Z</time>
</trkpt>
<trkpt lat="57.103611" lon="8.912336">
<ele>12.483327</ele>
<time>2026-07-15T10:16:48.000Z</time>
</trkpt>
<trkpt lat="57.103611" lon="8.912446">
<ele>12.484212</ele>
<time>2026-07-15T10:16:49.000Z</time>
</trkpt>
<trkpt lat="57.103607" lon="8.912555">
<ele>12.484867</ele>
<time>2026-07-15T10:16:50.000Z</time>
</trkpt>
<trkpt lat="57.103600" lon="8.912662">
<ele>12.485042</ele>
<time>2026-07-15T10:16:51.000Z</time>
</trkpt>
<trkpt lat="57.103592" lon="8.912777">
<ele>12.485230</ele>
<time>2026-07-15T10:16:52.000Z</time>
</trkpt>
<trkpt lat="57.103585" lon="8.912881">
<ele>12.485400</ele>
<time>2026-07-15T10:16:53.000Z</time>
</trkpt>
<trkpt lat="57.103573" lon="8.912989">
<ele>12.485579</ele>
<time>2026-07-15T10:16:54.000Z</time>
</trkpt>
<trkpt lat="57.103561" lon="8.913096">
<ele>12.485757</ele>
<time>2026-07-15T10:16:55.000Z</time>
</trkpt>
<trkpt lat="57.103550" lon="8.913199">
<ele>12.485927</ele>
<time>2026-07-15T10:16:56.000Z</time>
</trkpt>
<trkpt lat="57.103535" lon="8.913295">
<ele>12.486089</ele>
<time>2026-07-15T10:16:57.000Z</time>
</trkpt>
<trkpt lat="57.103513" lon="8.913389">
<ele>12.486255</ele>
<time>2026-07-15T10:16:58.000Z</time>
</trkpt>
<trkpt lat="57.103493" lon="8.913482">
<ele>12.486418</ele>
<time>2026-07-15T10:16:59.000Z</time>
</trkpt>
<trkpt lat="57.103470" lon="8.913572">
<ele>12.486579</ele>
<time>2026-07-15T10:17:00.000Z</time>
</trkpt>
<trkpt lat="57.103455" lon="8.913659">
<ele>12.486727</ele>
<time>2026-07-15T10:17:01.000Z</time>
</trkpt>
<trkpt lat="57.103432" lon="8.913754">
<ele>12.486896</ele>
<time>2026-07-15T10:17:02.000Z</time>
</trkpt>
<trkpt lat="57.103410" lon="8.913842">
<ele>12.487053</ele>
<time>2026-07-15T10:17:03.000Z</time>
</trkpt>
<trkpt lat="57.103387" lon="8.913933">
<ele>12.487216</ele>
<time>2026-07-15T10:17:04.000Z</time>
</trkpt>
<trkpt lat="57.103361" lon="8.914022">
<ele>12.487380</ele>
<time>2026-07-15T10:17:05.000Z</time>
</trkpt>
<trkpt lat="57.103336" lon="8.914127">
<ele>12.487566</ele>
<time>2026-07-15T10:17:06.000Z</time>
</trkpt>
<trkpt lat="57.103314" lon="8.914219">
<ele>12.487730</ele>
<time>2026-07-15T10:17:07.000Z</time>
</trkpt>
<trkpt lat="57.103291" lon="8.914314">
<ele>12.487898</ele>
<time>2026-07-15T10:17:08.000Z</time>
</trkpt>
<trkpt lat="57.103269" lon="8.914405">
<ele>12.488060</ele>
<time>2026-07-15T10:17:09.000Z</time>
</trkpt>
<trkpt lat="57.103241" lon="8.914509">
<ele>12.488249</ele>
<time>2026-07-15T10:17:10.000Z</time>
</trkpt>
<trkpt lat="57.103222" lon="8.914604">
<ele>12.488413</ele>
<time>2026-07-15T10:17:11.000Z</time>
</trkpt>
<trkpt lat="57.103199" lon="8.914700">
<ele>12.488583</ele>
<time>2026-07-15T10:17:12.000Z</time>
</trkpt>
<trkpt lat="57.103176" lon="8.914797">
<ele>12.488755</ele>
<time>2026-07-15T10:17:13.000Z</time>
</trkpt>
<trkpt lat="57.103154" lon="8.914890">
<ele>12.488920</ele>
<time>2026-07-15T10:17:14.000Z</time>
</trkpt>
<trkpt lat="57.103130" lon="8.914991">
<ele>12.489099</ele>
<time>2026-07-15T10:17:15.000Z</time>
</trkpt>
<trkpt lat="57.103107" lon="8.915093">
<ele>12.489278</ele>
<time>2026-07-15T10:17:16.000Z</time>
</trkpt>
<trkpt lat="57.103081" lon="8.915197">
<ele>12.489464</ele>
<time>2026-07-15T10:17:17.000Z</time>
</trkpt>
<trkpt lat="57.103058" lon="8.915300">
<ele>12.489645</ele>
<time>2026-07-15T10:17:18.000Z</time>
</trkpt>
<trkpt lat="57.103035" lon="8.915412">
<ele>12.489839</ele>
<time>2026-07-15T10:17:19.000Z</time>
</trkpt>
<trkpt lat="57.103009" lon="8.915516">
<ele>12.490025</ele>
<time>2026-07-15T10:17:20.000Z</time>
</trkpt>
<trkpt lat="57.102985" lon="8.915633">
<ele>12.488321</ele>
<time>2026-07-15T10:17:21.000Z</time>
</trkpt>
<trkpt lat="57.102966" lon="8.915743">
<ele>12.479916</ele>
<time>2026-07-15T10:17:22.000Z</time>
</trkpt>
<trkpt lat="57.102944" lon="8.915852">
<ele>12.471449</ele>
<time>2026-07-15T10:17:23.000Z</time>
</trkpt>
<trkpt lat="57.102920" lon="8.915968">
<ele>12.462410</ele>
<time>2026-07-15T10:17:24.000Z</time>
</trkpt>
<trkpt lat="57.102894" lon="8.916080">
<ele>12.453541</ele>
<time>2026-07-15T10:17:25.000Z</time>
</trkpt>
<trkpt lat="57.102871" lon="8.916192">
<ele>12.444823</ele>
<time>2026-07-15T10:17:26.000Z</time>
</trkpt>
<trkpt lat="57.102844" lon="8.916302">
<ele>12.436033</ele>
<time>2026-07-15T10:17:27.000Z</time>
</trkpt>
<trkpt lat="57.102821" lon="8.916414">
<ele>12.427315</ele>
<time>2026-07-15T10:17:28.000Z</time>
</trkpt>
<trkpt lat="57.102800" lon="8.916501">
<ele>12.420382</ele>
<time>2026-07-15T10:17:29.000Z</time>
</trkpt>
<trkpt lat="57.102766" lon="8.916623">
<ele>12.410398</ele>
<time>2026-07-15T10:17:30.000Z</time>
</trkpt>
<trkpt lat="57.102738" lon="8.916736">
<ele>12.401354</ele>
<time>2026-07-15T10:17:31.000Z</time>
</trkpt>
<trkpt lat="57.102714" lon="8.916847">
<ele>12.392655</ele>
<time>2026-07-15T10:17:32.000Z</time>
</trkpt>
<trkpt lat="57.102692" lon="8.916952">
<ele>12.384460</ele>
<time>2026-07-15T10:17:33.000Z</time>
</trkpt>
<trkpt lat="57.102667" lon="8.917047">
<ele>12.376773</ele>
<time>2026-07-15T10:17:34.000Z</time>
</trkpt>
<trkpt lat="57.102638" lon="8.917157">
<ele>12.367870</ele>
<time>2026-07-15T10:17:35.000Z</time>
</trkpt>
<trkpt lat="57.102615" lon="8.917260">
<ele>12.359761</ele>
<time>2026-07-15T10:17:36.000Z</time>
</trkpt>
<trkpt lat="57.102596" lon="8.917369">
<ele>12.351425</ele>
<time>2026-07-15T10:17:37.000Z</time>
</trkpt>
<trkpt lat="57.102577" lon="8.917477">
<ele>12.343159</ele>
<time>2026-07-15T10:17:38.000Z</time>
</trkpt>
<trkpt lat="57.102551" lon="8.917579">
<ele>12.334955</ele>
<time>2026-07-15T10:17:39.000Z</time>
</trkpt>
<trkpt lat="57.102524" lon="8.917683">
<ele>12.326561</ele>
<time>2026-07-15T10:17:40.000Z</time>
</trkpt>
<trkpt lat="57.102503" lon="8.917779">
<ele>12.319025</ele>
<time>2026-07-15T10:17:41.000Z</time>
</trkpt>
<trkpt lat="57.102478" lon="8.917890">
<ele>12.310275</ele>
<time>2026-07-15T10:17:42.000Z</time>
</trkpt>
<trkpt lat="57.102459" lon="8.917995">
<ele>12.302217</ele>
<time>2026-07-15T10:17:43.000Z</time>
</trkpt>
<trkpt lat="57.102440" lon="8.918100">
<ele>12.294158</ele>
<time>2026-07-15T10:17:44.000Z</time>
</trkpt>
<trkpt lat="57.102425" lon="8.918204">
<ele>12.286323</ele>
<time>2026-07-15T10:17:45.000Z</time>
</trkpt>
<trkpt lat="57.102417" lon="8.918317">
<ele>12.278025</ele>
<time>2026-07-15T10:17:46.000Z</time>
</trkpt>
<trkpt lat="57.102406" lon="8.918423">
<ele>12.270167</ele>
<time>2026-07-15T10:17:47.000Z</time>
</trkpt>
<trkpt lat="57.102398" lon="8.918536">
<ele>12.261869</ele>
<time>2026-07-15T10:17:48.000Z</time>
</trkpt>
<trkpt lat="57.102394" lon="8.918642">
<ele>12.254132</ele>
<time>2026-07-15T10:17:49.000Z</time>
</trkpt>
<trkpt lat="57.102386" lon="8.918748">
<ele>12.249634</ele>
<time>2026-07-15T10:17:50.000Z</time>
</trkpt>
<trkpt lat="57.102376" lon="8.918843">
<ele>12.251144</ele>
<time>2026-07-15T10:17:51.000Z</time>
</trkpt>
<trkpt lat="57.102364" lon="8.918950">
<ele>12.252848</ele>
<time>2026-07-15T10:17:52.000Z</time>
</trkpt>
<trkpt lat="57.102356" lon="8.919048">
<ele>12.254393</ele>
<time>2026-07-15T10:17:53.000Z</time>
</trkpt>
<trkpt lat="57.102348" lon="8.919146">
<ele>12.255939</ele>
<time>2026-07-15T10:17:54.000Z</time>
</trkpt>
<trkpt lat="57.102341" lon="8.919240">
<ele>12.257419</ele>
<time>2026-07-15T10:17:55.000Z</time>
</trkpt>
<trkpt lat="57.102337" lon="8.919341">
<ele>12.258998</ele>
<time>2026-07-15T10:17:56.000Z</time>
</trkpt>
<trkpt lat="57.102322" lon="8.919444">
<ele>12.260661</ele>
<time>2026-07-15T10:17:57.000Z</time>
</trkpt>
<trkpt lat="57.102310" lon="8.919544">
<ele>12.262258</ele>
<time>2026-07-15T10:17:58.000Z</time>
</trkpt>
<trkpt lat="57.102303" lon="8.919647">
<ele>12.263877</ele>
<time>2026-07-15T10:17:59.000Z</time>
</trkpt>
<trkpt lat="57.102287" lon="8.919747">
<ele>12.265503</ele>
<time>2026-07-15T10:18:00.000Z</time>
</trkpt>
<trkpt lat="57.102276" lon="8.919840">
<ele>12.266988</ele>
<time>2026-07-15T10:18:01.000Z</time>
</trkpt>
<trkpt lat="57.102268" lon="8.919936">
<ele>12.268503</ele>
<time>2026-07-15T10:18:02.000Z</time>
</trkpt>
<trkpt lat="57.102254" lon="8.920024">
<ele>12.269933</ele>
<time>2026-07-15T10:18:03.000Z</time>
</trkpt>
<trkpt lat="57.102238" lon="8.920129">
<ele>12.271634</ele>
<time>2026-07-15T10:18:04.000Z</time>
</trkpt>
<trkpt lat="57.102223" lon="8.920224">
<ele>12.273177</ele>
<time>2026-07-15T10:18:05.000Z</time>
</trkpt>
<trkpt lat="57.102208" lon="8.920324">
<ele>12.274795</ele>
<time>2026-07-15T10:18:06.000Z</time>
</trkpt>
<trkpt lat="57.102196" lon="8.920430">
<ele>12.276483</ele>
<time>2026-07-15T10:18:07.000Z</time>
</trkpt>
<trkpt lat="57.102184" lon="8.920531">
<ele>12.278096</ele>
<time>2026-07-15T10:18:08.000Z</time>
</trkpt>
<trkpt lat="57.102169" lon="8.920631">
<ele>12.279714</ele>
<time>2026-07-15T10:18:09.000Z</time>
</trkpt>
<trkpt lat="57.102154" lon="8.920737">
<ele>12.281422</ele>
<time>2026-07-15T10:18:10.000Z</time>
</trkpt>
<trkpt lat="57.102139" lon="8.920838">
<ele>12.283055</ele>
<time>2026-07-15T10:18:11.000Z</time>
</trkpt>
<trkpt lat="57.102119" lon="8.920944">
<ele>12.284805</ele>
<time>2026-07-15T10:18:12.000Z</time>
</trkpt>
<trkpt lat="57.102100" lon="8.921046">
<ele>12.286487</ele>
<time>2026-07-15T10:18:13.000Z</time>
</trkpt>
<trkpt lat="57.102081" lon="8.921148">
<ele>12.288169</ele>
<time>2026-07-15T10:18:14.000Z</time>
</trkpt>
<trkpt lat="57.102066" lon="8.921250">
<ele>12.289817</ele>
<time>2026-07-15T10:18:15.000Z</time>
</trkpt>
<trkpt lat="57.102051" lon="8.921352">
<ele>12.291465</ele>
<time>2026-07-15T10:18:16.000Z</time>
</trkpt>
<trkpt lat="57.102036" lon="8.921453">
<ele>12.293098</ele>
<time>2026-07-15T10:18:17.000Z</time>
</trkpt>
<trkpt lat="57.102016" lon="8.921553">
<ele>12.294760</ele>
<time>2026-07-15T10:18:18.000Z</time>
</trkpt>
<trkpt lat="57.101998" lon="8.921646">
<ele>12.296300</ele>
<time>2026-07-15T10:18:19.000Z</time>
</trkpt>
<trkpt lat="57.101982" lon="8.921733">
<ele>12.297733</ele>
<time>2026-07-15T10:18:20.000Z</time>
</trkpt>
<trkpt lat="57.101960" lon="8.921854">
<ele>12.299723</ele>
<time>2026-07-15T10:18:21.000Z</time>
</trkpt>
<trkpt lat="57.101940" lon="8.921958">
<ele>12.286916</ele>
<time>2026-07-15T10:18:22.000Z</time>
</trkpt>
<trkpt lat="57.101922" lon="8.922051">
<ele>12.258311</ele>
<time>2026-07-15T10:18:23.000Z</time>
</trkpt>
<trkpt lat="57.101902" lon="8.922146">
<ele>12.228791</ele>
<time>2026-07-15T10:18:24.000Z</time>
</trkpt>
<trkpt lat="57.101887" lon="8.922235">
<ele>12.201791</ele>
<time>2026-07-15T10:18:25.000Z</time>
</trkpt>
<trkpt lat="57.101871" lon="8.922327">
<ele>12.173802</ele>
<time>2026-07-15T10:18:26.000Z</time>
</trkpt>
<trkpt lat="57.101860" lon="8.922420">
<ele>12.146225</ele>
<time>2026-07-15T10:18:27.000Z</time>
</trkpt>
<trkpt lat="57.101845" lon="8.922518">
<ele>12.116725</ele>
<time>2026-07-15T10:18:28.000Z</time>
</trkpt>
<trkpt lat="57.101826" lon="8.922623">
<ele>12.084658</ele>
<time>2026-07-15T10:18:29.000Z</time>
</trkpt>
<trkpt lat="57.101810" lon="8.922734">
<ele>12.051384</ele>
<time>2026-07-15T10:18:30.000Z</time>
</trkpt>
<trkpt lat="57.101788" lon="8.922843">
<ele>12.017692</ele>
<time>2026-07-15T10:18:31.000Z</time>
</trkpt>
<trkpt lat="57.101765" lon="8.922955">
<ele>11.983000</ele>
<time>2026-07-15T10:18:32.000Z</time>
</trkpt>
<trkpt lat="57.101743" lon="8.923069">
<ele>11.947946</ele>
<time>2026-07-15T10:18:33.000Z</time>
</trkpt>
<trkpt lat="57.101719" lon="8.923179">
<ele>11.913600</ele>
<time>2026-07-15T10:18:34.000Z</time>
</trkpt>
<trkpt lat="57.101701" lon="8.923271">
<ele>11.885267</ele>
<time>2026-07-15T10:18:35.000Z</time>
</trkpt>
<trkpt lat="57.101681" lon="8.923371">
<ele>11.854391</ele>
<time>2026-07-15T10:18:36.000Z</time>
</trkpt>
<trkpt lat="57.101662" lon="8.923468">
<ele>11.824515</ele>
<time>2026-07-15T10:18:37.000Z</time>
</trkpt>
<trkpt lat="57.101643" lon="8.923579">
<ele>11.790794</ele>
<time>2026-07-15T10:18:38.000Z</time>
</trkpt>
<trkpt lat="57.101624" lon="8.923685">
<ele>11.758453</ele>
<time>2026-07-15T10:18:39.000Z</time>
</trkpt>
<trkpt lat="57.101606" lon="8.923789">
<ele>11.726827</ele>
<time>2026-07-15T10:18:40.000Z</time>
</trkpt>
<trkpt lat="57.101590" lon="8.923903">
<ele>11.692711</ele>
<time>2026-07-15T10:18:41.000Z</time>
</trkpt>
<trkpt lat="57.101582" lon="8.924017">
<ele>11.659406</ele>
<time>2026-07-15T10:18:42.000Z</time>
</trkpt>
<trkpt lat="57.101570" lon="8.924122">
<ele>11.628318</ele>
<time>2026-07-15T10:18:43.000Z</time>
</trkpt>
<trkpt lat="57.101547" lon="8.924214">
<ele>11.598973</ele>
<time>2026-07-15T10:18:44.000Z</time>
</trkpt>
<trkpt lat="57.101540" lon="8.924312">
<ele>11.570334</ele>
<time>2026-07-15T10:18:45.000Z</time>
</trkpt>
<trkpt lat="57.101524" lon="8.924426">
<ele>11.536219</ele>
<time>2026-07-15T10:18:46.000Z</time>
</trkpt>
<trkpt lat="57.101513" lon="8.924525">
<ele>11.506940</ele>
<time>2026-07-15T10:18:47.000Z</time>
</trkpt>
<trkpt lat="57.101498" lon="8.924633">
<ele>11.474642</ele>
<time>2026-07-15T10:18:48.000Z</time>
</trkpt>
<trkpt lat="57.101490" lon="8.924736">
<ele>11.444495</ele>
<time>2026-07-15T10:18:49.000Z</time>
</trkpt>
<trkpt lat="57.101475" lon="8.924841">
<ele>11.413037</ele>
<time>2026-07-15T10:18:50.000Z</time>
</trkpt>
<trkpt lat="57.101452" lon="8.924939">
<ele>11.382105</ele>
<time>2026-07-15T10:18:51.000Z</time>
</trkpt>
<trkpt lat="57.101433" lon="8.925039">
<ele>11.351409</ele>
<time>2026-07-15T10:18:52.000Z</time>
</trkpt>
<trkpt lat="57.101414" lon="8.925135">
<ele>11.341885</ele>
<time>2026-07-15T10:18:53.000Z</time>
</trkpt>
<trkpt lat="57.101383" lon="8.925230">
<ele>11.342973</ele>
<time>2026-07-15T10:18:54.000Z</time>
</trkpt>
<trkpt lat="57.101357" lon="8.925332">
<ele>11.344080</ele>
<time>2026-07-15T10:18:55.000Z</time>
</trkpt>
<trkpt lat="57.101330" lon="8.925435">
<ele>11.345203</ele>
<time>2026-07-15T10:18:56.000Z</time>
</trkpt>
<trkpt lat="57.101307" lon="8.925534">
<ele>11.346260</ele>
<time>2026-07-15T10:18:57.000Z</time>
</trkpt>
<trkpt lat="57.101292" lon="8.925635">
<ele>11.347289</ele>
<time>2026-07-15T10:18:58.000Z</time>
</trkpt>
<trkpt lat="57.101276" lon="8.925742">
<ele>11.348379</ele>
<time>2026-07-15T10:18:59.000Z</time>
</trkpt>
<trkpt lat="57.101253" lon="8.925857">
<ele>11.349582</ele>
<time>2026-07-15T10:19:00.000Z</time>
</trkpt>
<trkpt lat="57.101235" lon="8.925965">
<ele>11.350691</ele>
<time>2026-07-15T10:19:01.000Z</time>
</trkpt>
<trkpt lat="57.101215" lon="8.926080">
<ele>11.351877</ele>
<time>2026-07-15T10:19:02.000Z</time>
</trkpt>
<trkpt lat="57.101196" lon="8.926194">
<ele>11.353048</ele>
<time>2026-07-15T10:19:03.000Z</time>
</trkpt>
<trkpt lat="57.101177" lon="8.926307">
<ele>11.354210</ele>
<time>2026-07-15T10:19:04.000Z</time>
</trkpt>
<trkpt lat="57.101158" lon="8.926417">
<ele>11.355344</ele>
<time>2026-07-15T10:19:05.000Z</time>
</trkpt>
<trkpt lat="57.101140" lon="8.926524">
<ele>11.356444</ele>
<time>2026-07-15T10:19:06.000Z</time>
</trkpt>
<trkpt lat="57.101124" lon="8.926640">
<ele>11.357619</ele>
<time>2026-07-15T10:19:07.000Z</time>
</trkpt>
<trkpt lat="57.101109" lon="8.926748">
<ele>11.358714</ele>
<time>2026-07-15T10:19:08.000Z</time>
</trkpt>
<trkpt lat="57.101090" lon="8.926853">
<ele>11.359800</ele>
<time>2026-07-15T10:19:09.000Z</time>
</trkpt>
<trkpt lat="57.101067" lon="8.926961">
<ele>11.360940</ele>
<time>2026-07-15T10:19:10.000Z</time>
</trkpt>
<trkpt lat="57.101053" lon="8.927060">
<ele>11.361944</ele>
<time>2026-07-15T10:19:11.000Z</time>
</trkpt>
<trkpt lat="57.101033" lon="8.927169">
<ele>11.363074</ele>
<time>2026-07-15T10:19:12.000Z</time>
</trkpt>
<trkpt lat="57.101017" lon="8.927277">
<ele>11.364173</ele>
<time>2026-07-15T10:19:13.000Z</time>
</trkpt>
<trkpt lat="57.101002" lon="8.927375">
<ele>11.365173</ele>
<time>2026-07-15T10:19:14.000Z</time>
</trkpt>
<trkpt lat="57.100982" lon="8.927476">
<ele>11.366229</ele>
<time>2026-07-15T10:19:15.000Z</time>
</trkpt>
<trkpt lat="57.100963" lon="8.927575">
<ele>11.367260</ele>
<time>2026-07-15T10:19:16.000Z</time>
</trkpt>
<trkpt lat="57.100948" lon="8.927675">
<ele>11.368279</ele>
<time>2026-07-15T10:19:17.000Z</time>
</trkpt>
<trkpt lat="57.100933" lon="8.927772">
<ele>11.369269</ele>
<time>2026-07-15T10:19:18.000Z</time>
</trkpt>
<trkpt lat="57.100918" lon="8.927869">
<ele>11.370260</ele>
<time>2026-07-15T10:19:19.000Z</time>
</trkpt>
<trkpt lat="57.100899" lon="8.927970">
<ele>11.371310</ele>
<time>2026-07-15T10:19:20.000Z</time>
</trkpt>
<trkpt lat="57.100876" lon="8.928063">
<ele>11.372313</ele>
<time>2026-07-15T10:19:21.000Z</time>
</trkpt>
<trkpt lat="57.100857" lon="8.928159">
<ele>11.373316</ele>
<time>2026-07-15T10:19:22.000Z</time>
</trkpt>
<trkpt lat="57.100842" lon="8.928263">
<ele>11.369070</ele>
<time>2026-07-15T10:19:23.000Z</time>
</trkpt>
<trkpt lat="57.100830" lon="8.928369">
<ele>11.361135</ele>
<time>2026-07-15T10:19:24.000Z</time>
</trkpt>
<trkpt lat="57.100819" lon="8.928471">
<ele>11.353514</ele>
<time>2026-07-15T10:19:25.000Z</time>
</trkpt>
<trkpt lat="57.100811" lon="8.928574">
<ele>11.345889</ele>
<time>2026-07-15T10:19:26.000Z</time>
</trkpt>
<trkpt lat="57.100804" lon="8.928676">
<ele>11.338355</ele>
<time>2026-07-15T10:19:27.000Z</time>
</trkpt>
<trkpt lat="57.100800" lon="8.928787">
<ele>11.330203</ele>
<time>2026-07-15T10:19:28.000Z</time>
</trkpt>
<trkpt lat="57.100800" lon="8.928897">
<ele>11.322141</ele>
<time>2026-07-15T10:19:29.000Z</time>
</trkpt>
<trkpt lat="57.100803" lon="8.929014">
<ele>11.313558</ele>
<time>2026-07-15T10:19:30.000Z</time>
</trkpt>
<trkpt lat="57.100811" lon="8.929127">
<ele>11.305207</ele>
<time>2026-07-15T10:19:31.000Z</time>
</trkpt>
<trkpt lat="57.100811" lon="8.929248">
<ele>11.296339</ele>
<time>2026-07-15T10:19:32.000Z</time>
</trkpt>
<trkpt lat="57.100811" lon="8.929367">
<ele>11.287619</ele>
<time>2026-07-15T10:19:33.000Z</time>
</trkpt>
<trkpt lat="57.100807" lon="8.929488">
<ele>11.278735</ele>
<time>2026-07-15T10:19:34.000Z</time>
</trkpt>
<trkpt lat="57.100807" lon="8.929603">
<ele>11.270307</ele>
<time>2026-07-15T10:19:35.000Z</time>
</trkpt>
<trkpt lat="57.100803" lon="8.929730">
<ele>11.260984</ele>
<time>2026-07-15T10:19:36.000Z</time>
</trkpt>
<trkpt lat="57.100796" lon="8.929850">
<ele>11.252140</ele>
<time>2026-07-15T10:19:37.000Z</time>
</trkpt>
<trkpt lat="57.100784" lon="8.929966">
<ele>11.243486</ele>
<time>2026-07-15T10:19:38.000Z</time>
</trkpt>
<trkpt lat="57.100766" lon="8.930085">
<ele>11.234434</ele>
<time>2026-07-15T10:19:39.000Z</time>
</trkpt>
<trkpt lat="57.100746" lon="8.930205">
<ele>11.225235</ele>
<time>2026-07-15T10:19:40.000Z</time>
</trkpt>
<trkpt lat="57.100723" lon="8.930328">
<ele>11.215702</ele>
<time>2026-07-15T10:19:41.000Z</time>
</trkpt>
<trkpt lat="57.100700" lon="8.930452">
<ele>11.206099</ele>
<time>2026-07-15T10:19:42.000Z</time>
</trkpt>
<trkpt lat="57.100682" lon="8.930567">
<ele>11.197329</ele>
<time>2026-07-15T10:19:43.000Z</time>
</trkpt>
<trkpt lat="57.100663" lon="8.930681">
<ele>11.188590</ele>
<time>2026-07-15T10:19:44.000Z</time>
</trkpt>
<trkpt lat="57.100644" lon="8.930791">
<ele>11.180131</ele>
<time>2026-07-15T10:19:45.000Z</time>
</trkpt>
<trkpt lat="57.100628" lon="8.930912">
<ele>11.171004</ele>
<time>2026-07-15T10:19:46.000Z</time>
</trkpt>
<trkpt lat="57.100613" lon="8.931031">
<ele>11.162052</ele>
<time>2026-07-15T10:19:47.000Z</time>
</trkpt>
<trkpt lat="57.100594" lon="8.931150">
<ele>11.152962</ele>
<time>2026-07-15T10:19:48.000Z</time>
</trkpt>
<trkpt lat="57.100579" lon="8.931268">
<ele>11.144081</ele>
<time>2026-07-15T10:19:49.000Z</time>
</trkpt>
<trkpt lat="57.100559" lon="8.931385">
<ele>11.135092</ele>
<time>2026-07-15T10:19:50.000Z</time>
</trkpt>
<trkpt lat="57.100540" lon="8.931493">
<ele>11.109689</ele>
<time>2026-07-15T10:19:51.000Z</time>
</trkpt>
<trkpt lat="57.100517" lon="8.931606">
<ele>11.065715</ele>
<time>2026-07-15T10:19:52.000Z</time>
</trkpt>
<trkpt lat="57.100498" lon="8.931718">
<ele>11.022956</ele>
<time>2026-07-15T10:19:53.000Z</time>
</trkpt>
<trkpt lat="57.100472" lon="8.931834">
<ele>10.977227</ele>
<time>2026-07-15T10:19:54.000Z</time>
</trkpt>
<trkpt lat="57.100449" lon="8.931951">
<ele>10.931884</ele>
<time>2026-07-15T10:19:55.000Z</time>
</trkpt>
<trkpt lat="57.100429" lon="8.932074">
<ele>10.885096</ele>
<time>2026-07-15T10:19:56.000Z</time>
</trkpt>
<trkpt lat="57.100407" lon="8.932189">
<ele>10.840666</ele>
<time>2026-07-15T10:19:57.000Z</time>
</trkpt>
<trkpt lat="57.100391" lon="8.932316">
<ele>10.793157</ele>
<time>2026-07-15T10:19:58.000Z</time>
</trkpt>
<trkpt lat="57.100370" lon="8.932432">
<ele>10.748599</ele>
<time>2026-07-15T10:19:59.000Z</time>
</trkpt>
<trkpt lat="57.100350" lon="8.932554">
<ele>10.702160</ele>
<time>2026-07-15T10:20:00.000Z</time>
</trkpt>
<trkpt lat="57.100330" lon="8.932655">
<ele>10.662985</ele>
<time>2026-07-15T10:20:01.000Z</time>
</trkpt>
<trkpt lat="57.100300" lon="8.932787">
<ele>10.610841</ele>
<time>2026-07-15T10:20:02.000Z</time>
</trkpt>
<trkpt lat="57.100277" lon="8.932897">
<ele>10.567888</ele>
<time>2026-07-15T10:20:03.000Z</time>
</trkpt>
<trkpt lat="57.100258" lon="8.933006">
<ele>10.526172</ele>
<time>2026-07-15T10:20:04.000Z</time>
</trkpt>
<trkpt lat="57.100235" lon="8.933111">
<ele>10.484914</ele>
<time>2026-07-15T10:20:05.000Z</time>
</trkpt>
<trkpt lat="57.100212" lon="8.933214">
<ele>10.444331</ele>
<time>2026-07-15T10:20:06.000Z</time>
</trkpt>
<trkpt lat="57.100189" lon="8.933317">
<ele>10.403749</ele>
<time>2026-07-15T10:20:07.000Z</time>
</trkpt>
<trkpt lat="57.100163" lon="8.933416">
<ele>10.363676</ele>
<time>2026-07-15T10:20:08.000Z</time>
</trkpt>
<trkpt lat="57.100143" lon="8.933511">
<ele>10.326547</ele>
<time>2026-07-15T10:20:09.000Z</time>
</trkpt>
<trkpt lat="57.100124" lon="8.933604">
<ele>10.290339</ele>
<time>2026-07-15T10:20:10.000Z</time>
</trkpt>
<trkpt lat="57.100109" lon="8.933690">
<ele>10.257423</ele>
<time>2026-07-15T10:20:11.000Z</time>
</trkpt>
<trkpt lat="57.100094" lon="8.933773">
<ele>10.225546</ele>
<time>2026-07-15T10:20:12.000Z</time>
</trkpt>
<trkpt lat="57.100075" lon="8.933856">
<ele>10.192723</ele>
<time>2026-07-15T10:20:13.000Z</time>
</trkpt>
<trkpt lat="57.100056" lon="8.933948">
<ele>10.156855</ele>
<time>2026-07-15T10:20:14.000Z</time>
</trkpt>
<trkpt lat="57.100037" lon="8.934033">
<ele>10.123360</ele>
<time>2026-07-15T10:20:15.000Z</time>
</trkpt>
<trkpt lat="57.100021" lon="8.934119">
<ele>10.090233</ele>
<time>2026-07-15T10:20:16.000Z</time>
</trkpt>
<trkpt lat="57.100003" lon="8.934198">
<ele>10.059014</ele>
<time>2026-07-15T10:20:17.000Z</time>
</trkpt>
<trkpt lat="57.099983" lon="8.934278">
<ele>10.026921</ele>
<time>2026-07-15T10:20:18.000Z</time>
</trkpt>
<trkpt lat="57.099968" lon="8.934368">
<ele>9.992614</ele>
<time>2026-07-15T10:20:19.000Z</time>
</trkpt>
<trkpt lat="57.099960" lon="8.934464">
<ele>9.957221</ele>
<time>2026-07-15T10:20:20.000Z</time>
</trkpt>
<trkpt lat="57.099956" lon="8.934558">
<ele>9.923892</ele>
<time>2026-07-15T10:20:21.000Z</time>
</trkpt>
<trkpt lat="57.099960" lon="8.934656">
<ele>9.912685</ele>
<time>2026-07-15T10:20:22.000Z</time>
</trkpt>
<trkpt lat="57.099972" lon="8.934748">
<ele>9.901896</ele>
<time>2026-07-15T10:20:23.000Z</time>
</trkpt>
<trkpt lat="57.099991" lon="8.934841">
<ele>9.890565</ele>
<time>2026-07-15T10:20:24.000Z</time>
</trkpt>
<trkpt lat="57.100010" lon="8.934940">
<ele>9.878592</ele>
<time>2026-07-15T10:20:25.000Z</time>
</trkpt>
<trkpt lat="57.100025" lon="8.935046">
<ele>9.866101</ele>
<time>2026-07-15T10:20:26.000Z</time>
</trkpt>
<trkpt lat="57.100040" lon="8.935157">
<ele>9.853057</ele>
<time>2026-07-15T10:20:27.000Z</time>
</trkpt>
<trkpt lat="57.100052" lon="8.935267">
<ele>9.840263</ele>
<time>2026-07-15T10:20:28.000Z</time>
</trkpt>
<trkpt lat="57.100067" lon="8.935377">
<ele>9.827330</ele>
<time>2026-07-15T10:20:29.000Z</time>
</trkpt>
<trkpt lat="57.100082" lon="8.935485">
<ele>9.814618</ele>
<time>2026-07-15T10:20:30.000Z</time>
</trkpt>
<trkpt lat="57.100101" lon="8.935586">
<ele>9.802429</ele>
<time>2026-07-15T10:20:31.000Z</time>
</trkpt>
<trkpt lat="57.100113" lon="8.935698">
<ele>9.789411</ele>
<time>2026-07-15T10:20:32.000Z</time>
</trkpt>
<trkpt lat="57.100128" lon="8.935812">
<ele>9.776036</ele>
<time>2026-07-15T10:20:33.000Z</time>
</trkpt>
<trkpt lat="57.100147" lon="8.935916">
<ele>9.763523</ele>
<time>2026-07-15T10:20:34.000Z</time>
</trkpt>
<trkpt lat="57.100166" lon="8.936018">
<ele>9.751227</ele>
<time>2026-07-15T10:20:35.000Z</time>
</trkpt>
<trkpt lat="57.100186" lon="8.936123">
<ele>9.738538</ele>
<time>2026-07-15T10:20:36.000Z</time>
</trkpt>
<trkpt lat="57.100208" lon="8.936228">
<ele>9.725705</ele>
<time>2026-07-15T10:20:37.000Z</time>
</trkpt>
<trkpt lat="57.100231" lon="8.936339">
<ele>9.712158</ele>
<time>2026-07-15T10:20:38.000Z</time>
</trkpt>
<trkpt lat="57.100246" lon="8.936451">
<ele>9.699003</ele>
<time>2026-07-15T10:20:39.000Z</time>
</trkpt>
<trkpt lat="57.100273" lon="8.936564">
<ele>9.684926</ele>
<time>2026-07-15T10:20:40.000Z</time>
</trkpt>
<trkpt lat="57.100295" lon="8.936669">
<ele>9.672092</ele>
<time>2026-07-15T10:20:41.000Z</time>
</trkpt>
<trkpt lat="57.100319" lon="8.936782">
<ele>9.658257</ele>
<time>2026-07-15T10:20:42.000Z</time>
</trkpt>
<trkpt lat="57.100341" lon="8.936893">
<ele>9.644783</ele>
<time>2026-07-15T10:20:43.000Z</time>
</trkpt>
<trkpt lat="57.100372" lon="8.937003">
<ele>9.630651</ele>
<time>2026-07-15T10:20:44.000Z</time>
</trkpt>
<trkpt lat="57.100402" lon="8.937099">
<ele>9.618022</ele>
<time>2026-07-15T10:20:45.000Z</time>
</trkpt>
<trkpt lat="57.100433" lon="8.937192">
<ele>9.605579</ele>
<time>2026-07-15T10:20:46.000Z</time>
</trkpt>
<trkpt lat="57.100458" lon="8.937284">
<ele>9.593848</ele>
<time>2026-07-15T10:20:47.000Z</time>
</trkpt>
<trkpt lat="57.100494" lon="8.937388">
<ele>9.579785</ele>
<time>2026-07-15T10:20:48.000Z</time>
</trkpt>
<trkpt lat="57.100521" lon="8.937488">
<ele>9.567051</ele>
<time>2026-07-15T10:20:49.000Z</time>
</trkpt>
<trkpt lat="57.100552" lon="8.937587">
<ele>9.554020</ele>
<time>2026-07-15T10:20:50.000Z</time>
</trkpt>
<trkpt lat="57.100585" lon="8.937683">
<ele>9.546215</ele>
<time>2026-07-15T10:20:51.000Z</time>
</trkpt>
<trkpt lat="57.100620" lon="8.937780">
<ele>9.544958</ele>
<time>2026-07-15T10:20:52.000Z</time>
</trkpt>
<trkpt lat="57.100652" lon="8.937871">
<ele>9.543787</ele>
<time>2026-07-15T10:20:53.000Z</time>
</trkpt>
<trkpt lat="57.100688" lon="8.937964">
<ele>9.542554</ele>
<time>2026-07-15T10:20:54.000Z</time>
</trkpt>
<trkpt lat="57.100726" lon="8.938053">
<ele>9.541331</ele>
<time>2026-07-15T10:20:55.000Z</time>
</trkpt>
<trkpt lat="57.100765" lon="8.938144">
<ele>9.540079</ele>
<time>2026-07-15T10:20:56.000Z</time>
</trkpt>
<trkpt lat="57.100803" lon="8.938228">
<ele>9.538899</ele>
<time>2026-07-15T10:20:57.000Z</time>
</trkpt>
<trkpt lat="57.100837" lon="8.938315">
<ele>9.537741</ele>
<time>2026-07-15T10:20:58.000Z</time>
</trkpt>
<trkpt lat="57.100875" lon="8.938399">
<ele>9.536560</ele>
<time>2026-07-15T10:20:59.000Z</time>
</trkpt>
<trkpt lat="57.100911" lon="8.938481">
<ele>9.535422</ele>
<time>2026-07-15T10:21:00.000Z</time>
</trkpt>
<trkpt lat="57.100948" lon="8.938571">
<ele>9.534203</ele>
<time>2026-07-15T10:21:01.000Z</time>
</trkpt>
<trkpt lat="57.100990" lon="8.938660">
<ele>9.532929</ele>
<time>2026-07-15T10:21:02.000Z</time>
</trkpt>
<trkpt lat="57.101028" lon="8.938745">
<ele>9.531741</ele>
<time>2026-07-15T10:21:03.000Z</time>
</trkpt>
<trkpt lat="57.101067" lon="8.938834">
<ele>9.530506</ele>
<time>2026-07-15T10:21:04.000Z</time>
</trkpt>
<trkpt lat="57.101104" lon="8.938915">
<ele>9.529363</ele>
<time>2026-07-15T10:21:05.000Z</time>
</trkpt>
<trkpt lat="57.101135" lon="8.939003">
<ele>9.528230</ele>
<time>2026-07-15T10:21:06.000Z</time>
</trkpt>
<trkpt lat="57.101166" lon="8.939094">
<ele>9.527070</ele>
<time>2026-07-15T10:21:07.000Z</time>
</trkpt>
<trkpt lat="57.101196" lon="8.939190">
<ele>9.525874</ele>
<time>2026-07-15T10:21:08.000Z</time>
</trkpt>
<trkpt lat="57.101225" lon="8.939280">
<ele>9.524744</ele>
<time>2026-07-15T10:21:09.000Z</time>
</trkpt>
<trkpt lat="57.101253" lon="8.939376">
<ele>9.523567</ele>
<time>2026-07-15T10:21:10.000Z</time>
</trkpt>
<trkpt lat="57.101276" lon="8.939467">
<ele>9.522483</ele>
<time>2026-07-15T10:21:11.000Z</time>
</trkpt>
<trkpt lat="57.101303" lon="8.939557">
<ele>9.521372</ele>
<time>2026-07-15T10:21:12.000Z</time>
</trkpt>
<trkpt lat="57.101330" lon="8.939643">
<ele>9.520300</ele>
<time>2026-07-15T10:21:13.000Z</time>
</trkpt>
<trkpt lat="57.101352" lon="8.939729">
<ele>9.519273</ele>
<time>2026-07-15T10:21:14.000Z</time>
</trkpt>
<trkpt lat="57.101371" lon="8.939818">
<ele>9.518240</ele>
<time>2026-07-15T10:21:15.000Z</time>
</trkpt>
<trkpt lat="57.101387" lon="8.939910">
<ele>9.517197</ele>
<time>2026-07-15T10:21:16.000Z</time>
</trkpt>
<trkpt lat="57.101410" lon="8.939998">
<ele>9.516142</ele>
<time>2026-07-15T10:21:17.000Z</time>
</trkpt>
<trkpt lat="57.101428" lon="8.940085">
<ele>9.515137</ele>
<time>2026-07-15T10:21:18.000Z</time>
</trkpt>
<trkpt lat="57.101448" lon="8.940185">
<ele>9.513986</ele>
<time>2026-07-15T10:21:19.000Z</time>
</trkpt>
<trkpt lat="57.101471" lon="8.940279">
<ele>9.512873</ele>
<time>2026-07-15T10:21:20.000Z</time>
</trkpt>
<trkpt lat="57.101493" lon="8.940367">
<ele>9.511827</ele>
<time>2026-07-15T10:21:21.000Z</time>
</trkpt>
<trkpt lat="57.101517" lon="8.940459">
<ele>9.510873</ele>
<time>2026-07-15T10:21:22.000Z</time>
</trkpt>
<trkpt lat="57.101539" lon="8.940547">
<ele>9.510409</ele>
<time>2026-07-15T10:21:23.000Z</time>
</trkpt>
<trkpt lat="57.101555" lon="8.940646">
<ele>9.509915</ele>
<time>2026-07-15T10:21:24.000Z</time>
</trkpt>
<trkpt lat="57.101570" lon="8.940739">
<ele>9.509450</ele>
<time>2026-07-15T10:21:25.000Z</time>
</trkpt>
<trkpt lat="57.101585" lon="8.940842">
<ele>9.508940</ele>
<time>2026-07-15T10:21:26.000Z</time>
</trkpt>
<trkpt lat="57.101601" lon="8.940949">
<ele>9.508408</ele>
<time>2026-07-15T10:21:27.000Z</time>
</trkpt>
<trkpt lat="57.101616" lon="8.941052">
<ele>9.507898</ele>
<time>2026-07-15T10:21:28.000Z</time>
</trkpt>
<trkpt lat="57.101627" lon="8.941165">
<ele>9.507348</ele>
<time>2026-07-15T10:21:29.000Z</time>
</trkpt>
<trkpt lat="57.101635" lon="8.941267">
<ele>9.506855</ele>
<time>2026-07-15T10:21:30.000Z</time>
</trkpt>
<trkpt lat="57.101643" lon="8.941366">
<ele>9.506375</ele>
<time>2026-07-15T10:21:31.000Z</time>
</trkpt>
<trkpt lat="57.101650" lon="8.941464">
<ele>9.505902</ele>
<time>2026-07-15T10:21:32.000Z</time>
</trkpt>
<trkpt lat="57.101658" lon="8.941570">
<ele>9.505390</ele>
<time>2026-07-15T10:21:33.000Z</time>
</trkpt>
<trkpt lat="57.101662" lon="8.941669">
<ele>9.504914</ele>
<time>2026-07-15T10:21:34.000Z</time>
</trkpt>
<trkpt lat="57.101662" lon="8.941775">
<ele>9.504407</ele>
<time>2026-07-15T10:21:35.000Z</time>
</trkpt>
<trkpt lat="57.101662" lon="8.941882">
<ele>9.503895</ele>
<time>2026-07-15T10:21:36.000Z</time>
</trkpt>
<trkpt lat="57.101658" lon="8.941989">
<ele>9.503381</ele>
<time>2026-07-15T10:21:37.000Z</time>
</trkpt>
<trkpt lat="57.101650" lon="8.942101">
<ele>9.502840</ele>
<time>2026-07-15T10:21:38.000Z</time>
</trkpt>
<trkpt lat="57.101646" lon="8.942209">
<ele>9.502322</ele>
<time>2026-07-15T10:21:39.000Z</time>
</trkpt>
<trkpt lat="57.101635" lon="8.942316">
<ele>9.501800</ele>
<time>2026-07-15T10:21:40.000Z</time>
</trkpt>
<trkpt lat="57.101624" lon="8.942425">
<ele>9.501270</ele>
<time>2026-07-15T10:21:41.000Z</time>
</trkpt>
<trkpt lat="57.101612" lon="8.942531">
<ele>9.500751</ele>
<time>2026-07-15T10:21:42.000Z</time>
</trkpt>
<trkpt lat="57.101601" lon="8.942635">
<ele>9.500244</ele>
<time>2026-07-15T10:21:43.000Z</time>
</trkpt>
<trkpt lat="57.101589" lon="8.942740">
<ele>9.499730</ele>
<time>2026-07-15T10:21:44.000Z</time>
</trkpt>
<trkpt lat="57.101574" lon="8.942849">
<ele>9.499192</ele>
<time>2026-07-15T10:21:45.000Z</time>
</trkpt>
<trkpt lat="57.101562" lon="8.942953">
<ele>9.498683</ele>
<time>2026-07-15T10:21:46.000Z</time>
</trkpt>
<trkpt lat="57.101548" lon="8.943056">
<ele>9.498174</ele>
<time>2026-07-15T10:21:47.000Z</time>
</trkpt>
<trkpt lat="57.101528" lon="8.943166">
<ele>9.497619</ele>
<time>2026-07-15T10:21:48.000Z</time>
</trkpt>
<trkpt lat="57.101513" lon="8.943271">
<ele>9.497099</ele>
<time>2026-07-15T10:21:49.000Z</time>
</trkpt>
<trkpt lat="57.101498" lon="8.943380">
<ele>9.496561</ele>
<time>2026-07-15T10:21:50.000Z</time>
</trkpt>
<trkpt lat="57.101482" lon="8.943486">
<ele>9.496034</ele>
<time>2026-07-15T10:21:51.000Z</time>
</trkpt>
<trkpt lat="57.101468" lon="8.943587">
<ele>9.495535</ele>
<time>2026-07-15T10:21:52.000Z</time>
</trkpt>
<trkpt lat="57.101452" lon="8.943692">
<ele>9.494917</ele>
<time>2026-07-15T10:21:53.000Z</time>
</trkpt>
<trkpt lat="57.101437" lon="8.943792">
<ele>9.494034</ele>
<time>2026-07-15T10:21:54.000Z</time>
</trkpt>
<trkpt lat="57.101425" lon="8.943896">
<ele>9.493130</ele>
<time>2026-07-15T10:21:55.000Z</time>
</trkpt>
<trkpt lat="57.101414" lon="8.943996">
<ele>9.492262</ele>
<time>2026-07-15T10:21:56.000Z</time>
</trkpt>
<trkpt lat="57.101399" lon="8.944096">
<ele>9.491380</ele>
<time>2026-07-15T10:21:57.000Z</time>
</trkpt>
<trkpt lat="57.101383" lon="8.944198">
<ele>9.490477</ele>
<time>2026-07-15T10:21:58.000Z</time>
</trkpt>
<trkpt lat="57.101368" lon="8.944302">
<ele>9.489562</ele>
<time>2026-07-15T10:21:59.000Z</time>
</trkpt>
<trkpt lat="57.101353" lon="8.944399">
<ele>9.488704</ele>
<time>2026-07-15T10:22:00.000Z</time>
</trkpt>
<trkpt lat="57.101342" lon="8.944503">
<ele>9.487803</ele>
<time>2026-07-15T10:22:01.000Z</time>
</trkpt>
<trkpt lat="57.101334" lon="8.944608">
<ele>9.486901</ele>
<time>2026-07-15T10:22:02.000Z</time>
</trkpt>
<trkpt lat="57.101334" lon="8.944713">
<ele>9.486008</ele>
<time>2026-07-15T10:22:03.000Z</time>
</trkpt>
<trkpt lat="57.101348" lon="8.944811">
<ele>9.485146</ele>
<time>2026-07-15T10:22:04.000Z</time>
</trkpt>
<trkpt lat="57.101378" lon="8.944901">
<ele>9.484248</ele>
<time>2026-07-15T10:22:05.000Z</time>
</trkpt>
<trkpt lat="57.101413" lon="8.944984">
<ele>9.483354</ele>
<time>2026-07-15T10:22:06.000Z</time>
</trkpt>
<trkpt lat="57.101455" lon="8.945050">
<ele>9.482489</ele>
<time>2026-07-15T10:22:07.000Z</time>
</trkpt>
<trkpt lat="57.101497" lon="8.945104">
<ele>9.481687</ele>
<time>2026-07-15T10:22:08.000Z</time>
</trkpt>
<trkpt lat="57.101539" lon="8.945149">
<ele>9.480926</ele>
<time>2026-07-15T10:22:09.000Z</time>
</trkpt>
<trkpt lat="57.101585" lon="8.945193">
<ele>9.480115</ele>
<time>2026-07-15T10:22:10.000Z</time>
</trkpt>
<trkpt lat="57.101631" lon="8.945229">
<ele>9.479332</ele>
<time>2026-07-15T10:22:11.000Z</time>
</trkpt>
<trkpt lat="57.101673" lon="8.945263">
<ele>9.478613</ele>
<time>2026-07-15T10:22:12.000Z</time>
</trkpt>
<trkpt lat="57.101717" lon="8.945295">
<ele>9.477873</ele>
<time>2026-07-15T10:22:13.000Z</time>
</trkpt>
<trkpt lat="57.101763" lon="8.945330">
<ele>9.477093</ele>
<time>2026-07-15T10:22:14.000Z</time>
</trkpt>
<trkpt lat="57.101805" lon="8.945367">
<ele>9.476364</ele>
<time>2026-07-15T10:22:15.000Z</time>
</trkpt>
<trkpt lat="57.101852" lon="8.945407">
<ele>9.475553</ele>
<time>2026-07-15T10:22:16.000Z</time>
</trkpt>
<trkpt lat="57.101892" lon="8.945448">
<ele>9.474836</ele>
<time>2026-07-15T10:22:17.000Z</time>
</trkpt>
<trkpt lat="57.101939" lon="8.945493">
<ele>9.474007</ele>
<time>2026-07-15T10:22:18.000Z</time>
</trkpt>
<trkpt lat="57.101988" lon="8.945539">
<ele>9.473146</ele>
<time>2026-07-15T10:22:19.000Z</time>
</trkpt>
<trkpt lat="57.102039" lon="8.945583">
<ele>9.472264</ele>
<time>2026-07-15T10:22:20.000Z</time>
</trkpt>
<trkpt lat="57.102088" lon="8.945625">
<ele>9.471417</ele>
<time>2026-07-15T10:22:21.000Z</time>
</trkpt>
<trkpt lat="57.102138" lon="8.945672">
<ele>9.470538</ele>
<time>2026-07-15T10:22:22.000Z</time>
</trkpt>
<trkpt lat="57.102188" lon="8.945719">
<ele>9.469659</ele>
<time>2026-07-15T10:22:23.000Z</time>
</trkpt>
<trkpt lat="57.102238" lon="8.945768">
<ele>9.468772</ele>
<time>2026-07-15T10:22:24.000Z</time>
</trkpt>
<trkpt lat="57.102284" lon="8.945813">
<ele>9.467956</ele>
<time>2026-07-15T10:22:25.000Z</time>
</trkpt>
<trkpt lat="57.102336" lon="8.945863">
<ele>9.467038</ele>
<time>2026-07-15T10:22:26.000Z</time>
</trkpt>
<trkpt lat="57.102386" lon="8.945906">
<ele>9.475488</ele>
<time>2026-07-15T10:22:27.000Z</time>
</trkpt>
<trkpt lat="57.102431" lon="8.945949">
<ele>9.483968</ele>
<time>2026-07-15T10:22:28.000Z</time>
</trkpt>
<trkpt lat="57.102482" lon="8.945993">
<ele>9.493389</ele>
<time>2026-07-15T10:22:29.000Z</time>
</trkpt>
<trkpt lat="57.102530" lon="8.946035">
<ele>9.502278</ele>
<time>2026-07-15T10:22:30.000Z</time>
</trkpt>
<trkpt lat="57.102583" lon="8.946077">
<ele>9.511929</ele>
<time>2026-07-15T10:22:31.000Z</time>
</trkpt>
<trkpt lat="57.102634" lon="8.946118">
<ele>9.521237</ele>
<time>2026-07-15T10:22:32.000Z</time>
</trkpt>
<trkpt lat="57.102684" lon="8.946161">
<ele>9.530468</ele>
<time>2026-07-15T10:22:33.000Z</time>
</trkpt>
<trkpt lat="57.102733" lon="8.946206">
<ele>9.539627</ele>
<time>2026-07-15T10:22:34.000Z</time>
</trkpt>
<trkpt lat="57.102774" lon="8.946249">
<ele>9.547519</ele>
<time>2026-07-15T10:22:35.000Z</time>
</trkpt>
<trkpt lat="57.102816" lon="8.946291">
<ele>9.555513</ele>
<time>2026-07-15T10:22:36.000Z</time>
</trkpt>
<trkpt lat="57.102862" lon="8.946338">
<ele>9.564313</ele>
<time>2026-07-15T10:22:37.000Z</time>
</trkpt>
<trkpt lat="57.102906" lon="8.946376">
<ele>9.572442</ele>
<time>2026-07-15T10:22:38.000Z</time>
</trkpt>
<trkpt lat="57.102957" lon="8.946421">
<ele>9.581901</ele>
<time>2026-07-15T10:22:39.000Z</time>
</trkpt>
<trkpt lat="57.103007" lon="8.946470">
<ele>9.591375</ele>
<time>2026-07-15T10:22:40.000Z</time>
</trkpt>
<trkpt lat="57.103055" lon="8.946515">
<ele>9.600385</ele>
<time>2026-07-15T10:22:41.000Z</time>
</trkpt>
<trkpt lat="57.103103" lon="8.946559">
<ele>9.609353</ele>
<time>2026-07-15T10:22:42.000Z</time>
</trkpt>
<trkpt lat="57.103153" lon="8.946604">
<ele>9.618662</ele>
<time>2026-07-15T10:22:43.000Z</time>
</trkpt>
<trkpt lat="57.103203" lon="8.946651">
<ele>9.628052</ele>
<time>2026-07-15T10:22:44.000Z</time>
</trkpt>
<trkpt lat="57.103251" lon="8.946694">
<ele>9.636981</ele>
<time>2026-07-15T10:22:45.000Z</time>
</trkpt>
<trkpt lat="57.103302" lon="8.946736">
<ele>9.646326</ele>
<time>2026-07-15T10:22:46.000Z</time>
</trkpt>
<trkpt lat="57.103351" lon="8.946778">
<ele>9.655366</ele>
<time>2026-07-15T10:22:47.000Z</time>
</trkpt>
<trkpt lat="57.103400" lon="8.946820">
<ele>9.664407</ele>
<time>2026-07-15T10:22:48.000Z</time>
</trkpt>
<trkpt lat="57.103450" lon="8.946860">
<ele>9.673525</ele>
<time>2026-07-15T10:22:49.000Z</time>
</trkpt>
<trkpt lat="57.103500" lon="8.946900">
<ele>9.682644</ele>
<time>2026-07-15T10:22:50.000Z</time>
</trkpt>
<trkpt lat="57.103553" lon="8.946938">
<ele>9.692157</ele>
<time>2026-07-15T10:22:51.000Z</time>
</trkpt>
<trkpt lat="57.103602" lon="8.946978">
<ele>9.701122</ele>
<time>2026-07-15T10:22:52.000Z</time>
</trkpt>
<trkpt lat="57.103655" lon="8.947018">
<ele>9.710703</ele>
<time>2026-07-15T10:22:53.000Z</time>
</trkpt>
<trkpt lat="57.103709" lon="8.947063">
<ele>9.720617</ele>
<time>2026-07-15T10:22:54.000Z</time>
</trkpt>
<trkpt lat="57.103757" lon="8.947106">
<ele>9.729546</ele>
<time>2026-07-15T10:22:55.000Z</time>
</trkpt>
<trkpt lat="57.103809" lon="8.947156">
<ele>9.739358</ele>
<time>2026-07-15T10:22:56.000Z</time>
</trkpt>
<trkpt lat="57.103856" lon="8.947205">
<ele>9.748392</ele>
<time>2026-07-15T10:22:57.000Z</time>
</trkpt>
<trkpt lat="57.103907" lon="8.947254">
<ele>9.758014</ele>
<time>2026-07-15T10:22:58.000Z</time>
</trkpt>
<trkpt lat="57.103961" lon="8.947297">
<ele>9.767856</ele>
<time>2026-07-15T10:22:59.000Z</time>
</trkpt>
<trkpt lat="57.104010" lon="8.947335">
<ele>9.777028</ele>
<time>2026-07-15T10:23:00.000Z</time>
</trkpt>
<trkpt lat="57.104064" lon="8.947371">
<ele>9.786936</ele>
<time>2026-07-15T10:23:01.000Z</time>
</trkpt>
<trkpt lat="57.104117" lon="8.947402">
<ele>9.796529</ele>
<time>2026-07-15T10:23:02.000Z</time>
</trkpt>
<trkpt lat="57.104172" lon="8.947423">
<ele>9.806219</ele>
<time>2026-07-15T10:23:03.000Z</time>
</trkpt>
<trkpt lat="57.104224" lon="8.947438">
<ele>9.815298</ele>
<time>2026-07-15T10:23:04.000Z</time>
</trkpt>
<trkpt lat="57.104278" lon="8.947445">
<ele>9.824637</ele>
<time>2026-07-15T10:23:05.000Z</time>
</trkpt>
<trkpt lat="57.104332" lon="8.947442">
<ele>9.833957</ele>
<time>2026-07-15T10:23:06.000Z</time>
</trkpt>
<trkpt lat="57.104385" lon="8.947427">
<ele>9.843207</ele>
<time>2026-07-15T10:23:07.000Z</time>
</trkpt>
<trkpt lat="57.104441" lon="8.947410">
<ele>9.852998</ele>
<time>2026-07-15T10:23:08.000Z</time>
</trkpt>
<trkpt lat="57.104494" lon="8.947390">
<ele>9.862331</ele>
<time>2026-07-15T10:23:09.000Z</time>
</trkpt>
<trkpt lat="57.104549" lon="8.947365">
<ele>9.872104</ele>
<time>2026-07-15T10:23:10.000Z</time>
</trkpt>
<trkpt lat="57.104600" lon="8.947338">
<ele>9.881258</ele>
<time>2026-07-15T10:23:11.000Z</time>
</trkpt>
<trkpt lat="57.104651" lon="8.947305">
<ele>9.890584</ele>
<time>2026-07-15T10:23:12.000Z</time>
</trkpt>
<trkpt lat="57.104702" lon="8.947272">
<ele>9.899909</ele>
<time>2026-07-15T10:23:13.000Z</time>
</trkpt>
<trkpt lat="57.104749" lon="8.947241">
<ele>9.908521</ele>
<time>2026-07-15T10:23:14.000Z</time>
</trkpt>
<trkpt lat="57.104800" lon="8.947208">
<ele>9.917847</ele>
<time>2026-07-15T10:23:15.000Z</time>
</trkpt>
<trkpt lat="57.104850" lon="8.947174">
<ele>9.927042</ele>
<time>2026-07-15T10:23:16.000Z</time>
</trkpt>
<trkpt lat="57.104900" lon="8.947144">
<ele>9.936113</ele>
<time>2026-07-15T10:23:17.000Z</time>
</trkpt>
<trkpt lat="57.104949" lon="8.947119">
<ele>9.944885</ele>
<time>2026-07-15T10:23:18.000Z</time>
</trkpt>
<trkpt lat="57.104999" lon="8.947095">
<ele>9.953799</ele>
<time>2026-07-15T10:23:19.000Z</time>
</trkpt>
<trkpt lat="57.105044" lon="8.947064">
<ele>9.962087</ele>
<time>2026-07-15T10:23:20.000Z</time>
</trkpt>
<trkpt lat="57.105091" lon="8.947027">
<ele>9.970905</ele>
<time>2026-07-15T10:23:21.000Z</time>
</trkpt>
<trkpt lat="57.105136" lon="8.946995">
<ele>9.979227</ele>
<time>2026-07-15T10:23:22.000Z</time>
</trkpt>
<trkpt lat="57.105182" lon="8.946964">
<ele>9.987677</ele>
<time>2026-07-15T10:23:23.000Z</time>
</trkpt>
<trkpt lat="57.105228" lon="8.946931">
<ele>9.996193</ele>
<time>2026-07-15T10:23:24.000Z</time>
</trkpt>
<trkpt lat="57.105263" lon="8.946905">
<ele>10.002704</ele>
<time>2026-07-15T10:23:25.000Z</time>
</trkpt>
<trkpt lat="57.105319" lon="8.946866">
<ele>10.013032</ele>
<time>2026-07-15T10:23:26.000Z</time>
</trkpt>
<trkpt lat="57.105363" lon="8.946832">
<ele>10.021264</ele>
<time>2026-07-15T10:23:27.000Z</time>
</trkpt>
<trkpt lat="57.105411" lon="8.946797">
<ele>10.030170</ele>
<time>2026-07-15T10:23:28.000Z</time>
</trkpt>
<trkpt lat="57.105457" lon="8.946762">
<ele>10.038756</ele>
<time>2026-07-15T10:23:29.000Z</time>
</trkpt>
<trkpt lat="57.105505" lon="8.946731">
<ele>10.047531</ele>
<time>2026-07-15T10:23:30.000Z</time>
</trkpt>
<trkpt lat="57.105552" lon="8.946701">
<ele>10.056113</ele>
<time>2026-07-15T10:23:31.000Z</time>
</trkpt>
<trkpt lat="57.105598" lon="8.946667">
<ele>10.064663</ele>
<time>2026-07-15T10:23:32.000Z</time>
</trkpt>
<trkpt lat="57.105644" lon="8.946636">
<ele>10.073114</ele>
<time>2026-07-15T10:23:33.000Z</time>
</trkpt>
<trkpt lat="57.105693" lon="8.946607">
<ele>10.083680</ele>
<time>2026-07-15T10:23:34.000Z</time>
</trkpt>
<trkpt lat="57.105738" lon="8.946578">
<ele>10.095471</ele>
<time>2026-07-15T10:23:35.000Z</time>
</trkpt>
<trkpt lat="57.105784" lon="8.946545">
<ele>10.107681</ele>
<time>2026-07-15T10:23:36.000Z</time>
</trkpt>
<trkpt lat="57.105834" lon="8.946518">
<ele>10.120567</ele>
<time>2026-07-15T10:23:37.000Z</time>
</trkpt>
<trkpt lat="57.105880" lon="8.946494">
<ele>10.132391</ele>
<time>2026-07-15T10:23:38.000Z</time>
</trkpt>
<trkpt lat="57.105930" lon="8.946471">
<ele>10.145137</ele>
<time>2026-07-15T10:23:39.000Z</time>
</trkpt>
<trkpt lat="57.105976" lon="8.946442">
<ele>10.157161</ele>
<time>2026-07-15T10:23:40.000Z</time>
</trkpt>
<trkpt lat="57.106021" lon="8.946417">
<ele>10.168786</ele>
<time>2026-07-15T10:23:41.000Z</time>
</trkpt>
<trkpt lat="57.106075" lon="8.946389">
<ele>10.182660</ele>
<time>2026-07-15T10:23:42.000Z</time>
</trkpt>
<trkpt lat="57.106124" lon="8.946360">
<ele>10.195389</ele>
<time>2026-07-15T10:23:43.000Z</time>
</trkpt>
<trkpt lat="57.106170" lon="8.946327">
<ele>10.207598</ele>
<time>2026-07-15T10:23:44.000Z</time>
</trkpt>
<trkpt lat="57.106219" lon="8.946296">
<ele>10.220411</ele>
<time>2026-07-15T10:23:45.000Z</time>
</trkpt>
<trkpt lat="57.106269" lon="8.946268">
<ele>10.233336</ele>
<time>2026-07-15T10:23:46.000Z</time>
</trkpt>
<trkpt lat="57.106318" lon="8.946248">
<ele>10.245748</ele>
<time>2026-07-15T10:23:47.000Z</time>
</trkpt>
<trkpt lat="57.106366" lon="8.946223">
<ele>10.258085</ele>
<time>2026-07-15T10:23:48.000Z</time>
</trkpt>
<trkpt lat="57.106417" lon="8.946199">
<ele>10.271103</ele>
<time>2026-07-15T10:23:49.000Z</time>
</trkpt>
<trkpt lat="57.106468" lon="8.946174">
<ele>10.284155</ele>
<time>2026-07-15T10:23:50.000Z</time>
</trkpt>
<trkpt lat="57.106517" lon="8.946152">
<ele>10.296629</ele>
<time>2026-07-15T10:23:51.000Z</time>
</trkpt>
<trkpt lat="57.106566" lon="8.946132">
<ele>10.309041</ele>
<time>2026-07-15T10:23:52.000Z</time>
</trkpt>
<trkpt lat="57.106612" lon="8.946114">
<ele>10.320671</ele>
<time>2026-07-15T10:23:53.000Z</time>
</trkpt>
<trkpt lat="57.106666" lon="8.946094">
<ele>10.334293</ele>
<time>2026-07-15T10:23:54.000Z</time>
</trkpt>
<trkpt lat="57.106719" lon="8.946069">
<ele>10.347824</ele>
<time>2026-07-15T10:23:55.000Z</time>
</trkpt>
<trkpt lat="57.106765" lon="8.946045">
<ele>10.359648</ele>
<time>2026-07-15T10:23:56.000Z</time>
</trkpt>
<trkpt lat="57.106811" lon="8.946023">
<ele>10.371402</ele>
<time>2026-07-15T10:23:57.000Z</time>
</trkpt>
<trkpt lat="57.106860" lon="8.946005">
<ele>10.383759</ele>
<time>2026-07-15T10:23:58.000Z</time>
</trkpt>
<trkpt lat="57.106909" lon="8.945986">
<ele>10.396143</ele>
<time>2026-07-15T10:23:59.000Z</time>
</trkpt>
<trkpt lat="57.106967" lon="8.945965">
<ele>10.410762</ele>
<time>2026-07-15T10:24:00.000Z</time>
</trkpt>
<trkpt lat="57.107021" lon="8.945949">
<ele>10.424288</ele>
<time>2026-07-15T10:24:01.000Z</time>
</trkpt>
<trkpt lat="57.107078" lon="8.945934">
<ele>10.438528</ele>
<time>2026-07-15T10:24:02.000Z</time>
</trkpt>
<trkpt lat="57.107127" lon="8.945918">
<ele>10.450835</ele>
<time>2026-07-15T10:24:03.000Z</time>
</trkpt>
<trkpt lat="57.107181" lon="8.945911">
<ele>10.464223</ele>
<time>2026-07-15T10:24:04.000Z</time>
</trkpt>
<trkpt lat="57.107229" lon="8.945910">
<ele>10.476095</ele>
<time>2026-07-15T10:24:05.000Z</time>
</trkpt>
<trkpt lat="57.107283" lon="8.945910">
<ele>10.489450</ele>
<time>2026-07-15T10:24:06.000Z</time>
</trkpt>
<trkpt lat="57.107337" lon="8.945913">
<ele>10.502810</ele>
<time>2026-07-15T10:24:07.000Z</time>
</trkpt>
<trkpt lat="57.107391" lon="8.945918">
<ele>10.516182</ele>
<time>2026-07-15T10:24:08.000Z</time>
</trkpt>
<trkpt lat="57.107445" lon="8.945925">
<ele>10.526240</ele>
<time>2026-07-15T10:24:09.000Z</time>
</trkpt>
<trkpt lat="57.107498" lon="8.945935">
<ele>10.532817</ele>
<time>2026-07-15T10:24:10.000Z</time>
</trkpt>
<trkpt lat="57.107547" lon="8.945946">
<ele>10.538910</ele>
<time>2026-07-15T10:24:11.000Z</time>
</trkpt>
<trkpt lat="57.107596" lon="8.945960">
<ele>10.545030</ele>
<time>2026-07-15T10:24:12.000Z</time>
</trkpt>
<trkpt lat="57.107649" lon="8.945976">
<ele>10.551660</ele>
<time>2026-07-15T10:24:13.000Z</time>
</trkpt>
<trkpt lat="57.107700" lon="8.945998">
<ele>10.558126</ele>
<time>2026-07-15T10:24:14.000Z</time>
</trkpt>
<trkpt lat="57.107750" lon="8.946023">
<ele>10.564521</ele>
<time>2026-07-15T10:24:15.000Z</time>
</trkpt>
<trkpt lat="57.107806" lon="8.946048">
<ele>10.571634</ele>
<time>2026-07-15T10:24:16.000Z</time>
</trkpt>
<trkpt lat="57.107856" lon="8.946068">
<ele>10.577949</ele>
<time>2026-07-15T10:24:17.000Z</time>
</trkpt>
<trkpt lat="57.107901" lon="8.946086">
<ele>10.583633</ele>
<time>2026-07-15T10:24:18.000Z</time>
</trkpt>
<trkpt lat="57.107949" lon="8.946107">
<ele>10.589723</ele>
<time>2026-07-15T10:24:19.000Z</time>
</trkpt>
<trkpt lat="57.108001" lon="8.946136">
<ele>10.596430</ele>
<time>2026-07-15T10:24:20.000Z</time>
</trkpt>
<trkpt lat="57.108050" lon="8.946163">
<ele>10.602743</ele>
<time>2026-07-15T10:24:21.000Z</time>
</trkpt>
<trkpt lat="57.108100" lon="8.946193">
<ele>10.609234</ele>
<time>2026-07-15T10:24:22.000Z</time>
</trkpt>
<trkpt lat="57.108152" lon="8.946222">
<ele>10.615941</ele>
<time>2026-07-15T10:24:23.000Z</time>
</trkpt>
<trkpt lat="57.108203" lon="8.946254">
<ele>10.622592</ele>
<time>2026-07-15T10:24:24.000Z</time>
</trkpt>
<trkpt lat="57.108251" lon="8.946284">
<ele>10.628849</ele>
<time>2026-07-15T10:24:25.000Z</time>
</trkpt>
<trkpt lat="57.108303" lon="8.946323">
<ele>10.635779</ele>
<time>2026-07-15T10:24:26.000Z</time>
</trkpt>
<trkpt lat="57.108357" lon="8.946364">
<ele>10.642989</ele>
<time>2026-07-15T10:24:27.000Z</time>
</trkpt>
<trkpt lat="57.108403" lon="8.946411">
<ele>10.649483</ele>
<time>2026-07-15T10:24:28.000Z</time>
</trkpt>
<trkpt lat="57.108453" lon="8.946461">
<ele>10.656506</ele>
<time>2026-07-15T10:24:29.000Z</time>
</trkpt>
<trkpt lat="57.108502" lon="8.946512">
<ele>10.663453</ele>
<time>2026-07-15T10:24:30.000Z</time>
</trkpt>
<trkpt lat="57.108549" lon="8.946562">
<ele>10.670154</ele>
<time>2026-07-15T10:24:31.000Z</time>
</trkpt>
<trkpt lat="57.108598" lon="8.946619">
<ele>10.677308</ele>
<time>2026-07-15T10:24:32.000Z</time>
</trkpt>
<trkpt lat="57.108642" lon="8.946671">
<ele>10.683761</ele>
<time>2026-07-15T10:24:33.000Z</time>
</trkpt>
<trkpt lat="57.108689" lon="8.946724">
<ele>10.690564</ele>
<time>2026-07-15T10:24:34.000Z</time>
</trkpt>
<trkpt lat="57.108729" lon="8.946775">
<ele>10.696569</ele>
<time>2026-07-15T10:24:35.000Z</time>
</trkpt>
<trkpt lat="57.108777" lon="8.946837">
<ele>10.703807</ele>
<time>2026-07-15T10:24:36.000Z</time>
</trkpt>
<trkpt lat="57.108817" lon="8.946891">
<ele>10.709929</ele>
<time>2026-07-15T10:24:37.000Z</time>
</trkpt>
<trkpt lat="57.108869" lon="8.946962">
<ele>10.717919</ele>
<time>2026-07-15T10:24:38.000Z</time>
</trkpt>
<trkpt lat="57.108914" lon="8.947018">
<ele>10.724623</ele>
<time>2026-07-15T10:24:39.000Z</time>
</trkpt>
<trkpt lat="57.108956" lon="8.947066">
<ele>10.730725</ele>
<time>2026-07-15T10:24:40.000Z</time>
</trkpt>
<trkpt lat="57.108998" lon="8.947114">
<ele>10.736827</ele>
<time>2026-07-15T10:24:41.000Z</time>
</trkpt>
<trkpt lat="57.109040" lon="8.947162">
<ele>10.742928</ele>
<time>2026-07-15T10:24:42.000Z</time>
</trkpt>
<trkpt lat="57.109086" lon="8.947216">
<ele>10.749671</ele>
<time>2026-07-15T10:24:43.000Z</time>
</trkpt>
<trkpt lat="57.109124" lon="8.947272">
<ele>10.755691</ele>
<time>2026-07-15T10:24:44.000Z</time>
</trkpt>
<trkpt lat="57.109166" lon="8.947329">
<ele>10.762144</ele>
<time>2026-07-15T10:24:45.000Z</time>
</trkpt>
<trkpt lat="57.109212" lon="8.947388">
<ele>10.769077</ele>
<time>2026-07-15T10:24:46.000Z</time>
</trkpt>
<trkpt lat="57.109250" lon="8.947448">
<ele>10.775269</ele>
<time>2026-07-15T10:24:47.000Z</time>
</trkpt>
<trkpt lat="57.109288" lon="8.947515">
<ele>10.781775</ele>
<time>2026-07-15T10:24:48.000Z</time>
</trkpt>
<trkpt lat="57.109326" lon="8.947582">
<ele>10.788282</ele>
<time>2026-07-15T10:24:49.000Z</time>
</trkpt>
<trkpt lat="57.109360" lon="8.947658">
<ele>10.794896</ele>
<time>2026-07-15T10:24:50.000Z</time>
</trkpt>
<trkpt lat="57.109391" lon="8.947736">
<ele>10.801388</ele>
<time>2026-07-15T10:24:51.000Z</time>
</trkpt>
<trkpt lat="57.109425" lon="8.947813">
<ele>10.808054</ele>
<time>2026-07-15T10:24:52.000Z</time>
</trkpt>
<trkpt lat="57.109455" lon="8.947891">
<ele>10.814473</ele>
<time>2026-07-15T10:24:53.000Z</time>
</trkpt>
<trkpt lat="57.109478" lon="8.947973">
<ele>10.820672</ele>
<time>2026-07-15T10:24:54.000Z</time>
</trkpt>
<trkpt lat="57.109505" lon="8.948055">
<ele>10.827113</ele>
<time>2026-07-15T10:24:55.000Z</time>
</trkpt>
<trkpt lat="57.109524" lon="8.948142">
<ele>10.833411</ele>
<time>2026-07-15T10:24:56.000Z</time>
</trkpt>
<trkpt lat="57.109547" lon="8.948228">
<ele>10.839850</ele>
<time>2026-07-15T10:24:57.000Z</time>
</trkpt>
<trkpt lat="57.109562" lon="8.948315">
<ele>10.845980</ele>
<time>2026-07-15T10:24:58.000Z</time>
</trkpt>
<trkpt lat="57.109574" lon="8.948403">
<ele>10.852074</ele>
<time>2026-07-15T10:24:59.000Z</time>
</trkpt>
<trkpt lat="57.109589" lon="8.948493">
<ele>10.858397</ele>
<time>2026-07-15T10:25:00.000Z</time>
</trkpt>
<trkpt lat="57.109600" lon="8.948583">
<ele>10.864593</ele>
<time>2026-07-15T10:25:01.000Z</time>
</trkpt>
<trkpt lat="57.109608" lon="8.948675">
<ele>10.870851</ele>
<time>2026-07-15T10:25:02.000Z</time>
</trkpt>
<trkpt lat="57.109615" lon="8.948763">
<ele>10.876825</ele>
<time>2026-07-15T10:25:03.000Z</time>
</trkpt>
<trkpt lat="57.109623" lon="8.948851">
<ele>10.882817</ele>
<time>2026-07-15T10:25:04.000Z</time>
</trkpt>
<trkpt lat="57.109627" lon="8.948935">
<ele>10.888481</ele>
<time>2026-07-15T10:25:05.000Z</time>
</trkpt>
<trkpt lat="57.109631" lon="8.949022">
<ele>10.894345</ele>
<time>2026-07-15T10:25:06.000Z</time>
</trkpt>
<trkpt lat="57.109631" lon="8.949112">
<ele>10.900390</ele>
<time>2026-07-15T10:25:07.000Z</time>
</trkpt>
<trkpt lat="57.109627" lon="8.949205">
<ele>10.906656</ele>
<time>2026-07-15T10:25:08.000Z</time>
</trkpt>
<trkpt lat="57.109627" lon="8.949296">
<ele>10.912767</ele>
<time>2026-07-15T10:25:09.000Z</time>
</trkpt>
<trkpt lat="57.109631" lon="8.949390">
<ele>10.919100</ele>
<time>2026-07-15T10:25:10.000Z</time>
</trkpt>
<trkpt lat="57.109631" lon="8.949482">
<ele>10.925279</ele>
<time>2026-07-15T10:25:11.000Z</time>
</trkpt>
<trkpt lat="57.109627" lon="8.949582">
<ele>10.932014</ele>
<time>2026-07-15T10:25:12.000Z</time>
</trkpt>
<trkpt lat="57.109627" lon="8.949676">
<ele>10.938327</ele>
<time>2026-07-15T10:25:13.000Z</time>
</trkpt>
<trkpt lat="57.109619" lon="8.949772">
<ele>10.944851</ele>
<time>2026-07-15T10:25:14.000Z</time>
</trkpt>
<trkpt lat="57.109611" lon="8.949874">
<ele>10.951772</ele>
<time>2026-07-15T10:25:15.000Z</time>
</trkpt>
<trkpt lat="57.109608" lon="8.949973">
<ele>10.958432</ele>
<time>2026-07-15T10:25:16.000Z</time>
</trkpt>
<trkpt lat="57.109608" lon="8.950069">
<ele>10.964880</ele>
<time>2026-07-15T10:25:17.000Z</time>
</trkpt>
<trkpt lat="57.109608" lon="8.950170">
<ele>10.972660</ele>
<time>2026-07-15T10:25:18.000Z</time>
</trkpt>
<trkpt lat="57.109608" lon="8.950268">
<ele>10.980782</ele>
<time>2026-07-15T10:25:19.000Z</time>
</trkpt>
<trkpt lat="57.109608" lon="8.950368">
<ele>10.989069</ele>
<time>2026-07-15T10:25:20.000Z</time>
</trkpt>
<trkpt lat="57.109608" lon="8.950469">
<ele>10.997439</ele>
<time>2026-07-15T10:25:21.000Z</time>
</trkpt>
<trkpt lat="57.109604" lon="8.950568">
<ele>11.005666</ele>
<time>2026-07-15T10:25:22.000Z</time>
</trkpt>
<trkpt lat="57.109604" lon="8.950664">
<ele>11.013622</ele>
<time>2026-07-15T10:25:23.000Z</time>
</trkpt>
<trkpt lat="57.109604" lon="8.950766">
<ele>11.022075</ele>
<time>2026-07-15T10:25:24.000Z</time>
</trkpt>
<trkpt lat="57.109600" lon="8.950864">
<ele>11.030220</ele>
<time>2026-07-15T10:25:25.000Z</time>
</trkpt>
<trkpt lat="57.109596" lon="8.950964">
<ele>11.038529</ele>
<time>2026-07-15T10:25:26.000Z</time>
</trkpt>
<trkpt lat="57.109592" lon="8.951063">
<ele>11.046756</ele>
<time>2026-07-15T10:25:27.000Z</time>
</trkpt>
<trkpt lat="57.109585" lon="8.951159">
<ele>11.054784</ele>
<time>2026-07-15T10:25:28.000Z</time>
</trkpt>
<trkpt lat="57.109585" lon="8.951256">
<ele>11.062822</ele>
<time>2026-07-15T10:25:29.000Z</time>
</trkpt>
<trkpt lat="57.109585" lon="8.951354">
<ele>11.070944</ele>
<time>2026-07-15T10:25:30.000Z</time>
</trkpt>
<trkpt lat="57.109592" lon="8.951450">
<ele>11.078971</ele>
<time>2026-07-15T10:25:31.000Z</time>
</trkpt>
<trkpt lat="57.109600" lon="8.951551">
<ele>11.087430</ele>
<time>2026-07-15T10:25:32.000Z</time>
</trkpt>
<trkpt lat="57.109608" lon="8.951648">
<ele>11.095561</ele>
<time>2026-07-15T10:25:33.000Z</time>
</trkpt>
<trkpt lat="57.109623" lon="8.951747">
<ele>11.104079</ele>
<time>2026-07-15T10:25:34.000Z</time>
</trkpt>
<trkpt lat="57.109638" lon="8.951844">
<ele>11.112437</ele>
<time>2026-07-15T10:25:35.000Z</time>
</trkpt>
<trkpt lat="57.109654" lon="8.951937">
<ele>11.120522</ele>
<time>2026-07-15T10:25:36.000Z</time>
</trkpt>
<trkpt lat="57.109673" lon="8.952031">
<ele>11.128834</ele>
<time>2026-07-15T10:25:37.000Z</time>
</trkpt>
<trkpt lat="57.109692" lon="8.952119">
<ele>11.136682</ele>
<time>2026-07-15T10:25:38.000Z</time>
</trkpt>
<trkpt lat="57.109715" lon="8.952208">
<ele>11.144850</ele>
<time>2026-07-15T10:25:39.000Z</time>
</trkpt>
<trkpt lat="57.109734" lon="8.952290">
<ele>11.152239</ele>
<time>2026-07-15T10:25:40.000Z</time>
</trkpt>
<trkpt lat="57.109761" lon="8.952370">
<ele>11.160044</ele>
<time>2026-07-15T10:25:41.000Z</time>
</trkpt>
<trkpt lat="57.109791" lon="8.952449">
<ele>11.168033</ele>
<time>2026-07-15T10:25:42.000Z</time>
</trkpt>
<trkpt lat="57.109822" lon="8.952533">
<ele>11.176450</ele>
<time>2026-07-15T10:25:43.000Z</time>
</trkpt>
<trkpt lat="57.109852" lon="8.952609">
<ele>11.184237</ele>
<time>2026-07-15T10:25:44.000Z</time>
</trkpt>
<trkpt lat="57.109883" lon="8.952682">
<ele>11.191917</ele>
<time>2026-07-15T10:25:45.000Z</time>
</trkpt>
<trkpt lat="57.109921" lon="8.952751">
<ele>11.200061</ele>
<time>2026-07-15T10:25:46.000Z</time>
</trkpt>
<trkpt lat="57.109967" lon="8.952820">
<ele>11.209115</ele>
<time>2026-07-15T10:25:47.000Z</time>
</trkpt>
<trkpt lat="57.110013" lon="8.952888">
<ele>11.218117</ele>
<time>2026-07-15T10:25:48.000Z</time>
</trkpt>
<trkpt lat="57.110058" lon="8.952950">
<ele>11.226694</ele>
<time>2026-07-15T10:25:49.000Z</time>
</trkpt>
<trkpt lat="57.110100" lon="8.953009">
<ele>11.234756</ele>
<time>2026-07-15T10:25:50.000Z</time>
</trkpt>
<trkpt lat="57.110150" lon="8.953059">
<ele>11.240924</ele>
<time>2026-07-15T10:25:51.000Z</time>
</trkpt>
<trkpt lat="57.110199" lon="8.953102">
<ele>11.235716</ele>
<time>2026-07-15T10:25:52.000Z</time>
</trkpt>
<trkpt lat="57.110248" lon="8.953140">
<ele>11.230614</ele>
<time>2026-07-15T10:25:53.000Z</time>
</trkpt>
<trkpt lat="57.110297" lon="8.953178">
<ele>11.225513</ele>
<time>2026-07-15T10:25:54.000Z</time>
</trkpt>
<trkpt lat="57.110351" lon="8.953215">
<ele>11.219985</ele>
<time>2026-07-15T10:25:55.000Z</time>
</trkpt>
<trkpt lat="57.110404" lon="8.953253">
<ele>11.214527</ele>
<time>2026-07-15T10:25:56.000Z</time>
</trkpt>
<trkpt lat="57.110455" lon="8.953295">
<ele>11.209167</ele>
<time>2026-07-15T10:25:57.000Z</time>
</trkpt>
<trkpt lat="57.110500" lon="8.953339">
<ele>11.204278</ele>
<time>2026-07-15T10:25:58.000Z</time>
</trkpt>
<trkpt lat="57.110549" lon="8.953374">
<ele>11.199236</ele>
<time>2026-07-15T10:25:59.000Z</time>
</trkpt>
<trkpt lat="57.110602" lon="8.953405">
<ele>11.193900</ele>
<time>2026-07-15T10:26:00.000Z</time>
</trkpt>
<trkpt lat="57.110657" lon="8.953437">
<ele>11.188365</ele>
<time>2026-07-15T10:26:01.000Z</time>
</trkpt>
<trkpt lat="57.110707" lon="8.953472">
<ele>11.183233</ele>
<time>2026-07-15T10:26:02.000Z</time>
</trkpt>
<trkpt lat="57.110752" lon="8.953515">
<ele>11.178369</ele>
<time>2026-07-15T10:26:03.000Z</time>
</trkpt>
<trkpt lat="57.110801" lon="8.953561">
<ele>11.173091</ele>
<time>2026-07-15T10:26:04.000Z</time>
</trkpt>
<trkpt lat="57.110856" lon="8.953605">
<ele>11.167338</ele>
<time>2026-07-15T10:26:05.000Z</time>
</trkpt>
<trkpt lat="57.110909" lon="8.953645">
<ele>11.161842</ele>
<time>2026-07-15T10:26:06.000Z</time>
</trkpt>
<trkpt lat="57.110963" lon="8.953686">
<ele>11.156238</ele>
<time>2026-07-15T10:26:07.000Z</time>
</trkpt>
<trkpt lat="57.111016" lon="8.953727">
<ele>11.150722</ele>
<time>2026-07-15T10:26:08.000Z</time>
</trkpt>
<trkpt lat="57.111069" lon="8.953772">
<ele>11.145122</ele>
<time>2026-07-15T10:26:09.000Z</time>
</trkpt>
<trkpt lat="57.111119" lon="8.953814">
<ele>11.139849</ele>
<time>2026-07-15T10:26:10.000Z</time>
</trkpt>
<trkpt lat="57.111169" lon="8.953853">
<ele>11.134639</ele>
<time>2026-07-15T10:26:11.000Z</time>
</trkpt>
<trkpt lat="57.111225" lon="8.953899">
<ele>11.128755</ele>
<time>2026-07-15T10:26:12.000Z</time>
</trkpt>
<trkpt lat="57.111275" lon="8.953942">
<ele>11.123460</ele>
<time>2026-07-15T10:26:13.000Z</time>
</trkpt>
<trkpt lat="57.111328" lon="8.953988">
<ele>11.117839</ele>
<time>2026-07-15T10:26:14.000Z</time>
</trkpt>
<trkpt lat="57.111378" lon="8.954030">
<ele>11.112566</ele>
<time>2026-07-15T10:26:15.000Z</time>
</trkpt>
<trkpt lat="57.111428" lon="8.954069">
<ele>11.107356</ele>
<time>2026-07-15T10:26:16.000Z</time>
</trkpt>
<trkpt lat="57.111477" lon="8.954106">
<ele>11.102274</ele>
<time>2026-07-15T10:26:17.000Z</time>
</trkpt>
<trkpt lat="57.111523" lon="8.954140">
<ele>11.097518</ele>
<time>2026-07-15T10:26:18.000Z</time>
</trkpt>
<trkpt lat="57.111569" lon="8.954180">
<ele>11.092637</ele>
<time>2026-07-15T10:26:19.000Z</time>
</trkpt>
<trkpt lat="57.111618" lon="8.954220">
<ele>11.087495</ele>
<time>2026-07-15T10:26:20.000Z</time>
</trkpt>
<trkpt lat="57.111660" lon="8.954261">
<ele>11.082933</ele>
<time>2026-07-15T10:26:21.000Z</time>
</trkpt>
<trkpt lat="57.111699" lon="8.954309">
<ele>11.078433</ele>
<time>2026-07-15T10:26:22.000Z</time>
</trkpt>
<trkpt lat="57.111740" lon="8.954363">
<ele>11.073596</ele>
<time>2026-07-15T10:26:23.000Z</time>
</trkpt>
<trkpt lat="57.111783" lon="8.954428">
<ele>11.074762</ele>
<time>2026-07-15T10:26:24.000Z</time>
</trkpt>
<trkpt lat="57.111824" lon="8.954498">
<ele>11.102421</ele>
<time>2026-07-15T10:26:25.000Z</time>
</trkpt>
<trkpt lat="57.111855" lon="8.954569">
<ele>11.126895</ele>
<time>2026-07-15T10:26:26.000Z</time>
</trkpt>
<trkpt lat="57.111893" lon="8.954637">
<ele>11.153108</ele>
<time>2026-07-15T10:26:27.000Z</time>
</trkpt>
<trkpt lat="57.111920" lon="8.954704">
<ele>11.175521</ele>
<time>2026-07-15T10:26:28.000Z</time>
</trkpt>
<trkpt lat="57.111946" lon="8.954759">
<ele>11.195111</ele>
<time>2026-07-15T10:26:29.000Z</time>
</trkpt>
<trkpt lat="57.111973" lon="8.954823">
<ele>11.216882</ele>
<time>2026-07-15T10:26:30.000Z</time>
</trkpt>
<trkpt lat="57.111996" lon="8.954882">
<ele>11.236393</ele>
<time>2026-07-15T10:26:31.000Z</time>
</trkpt>
<trkpt lat="57.112007" lon="8.954943">
<ele>11.253660</ele>
<time>2026-07-15T10:26:32.000Z</time>
</trkpt>
<trkpt lat="57.112030" lon="8.955018">
<ele>11.276798</ele>
<time>2026-07-15T10:26:33.000Z</time>
</trkpt>
<trkpt lat="57.112045" lon="8.955085">
<ele>11.296267</ele>
<time>2026-07-15T10:26:34.000Z</time>
</trkpt>
<trkpt lat="57.112064" lon="8.955150">
<ele>11.316097</ele>
<time>2026-07-15T10:26:35.000Z</time>
</trkpt>
<trkpt lat="57.112084" lon="8.955219">
<ele>11.337108</ele>
<time>2026-07-15T10:26:36.000Z</time>
</trkpt>
<trkpt lat="57.112099" lon="8.955294">
<ele>11.358579</ele>
<time>2026-07-15T10:26:37.000Z</time>
</trkpt>
<trkpt lat="57.112110" lon="8.955366">
<ele>11.378671</ele>
<time>2026-07-15T10:26:38.000Z</time>
</trkpt>
<trkpt lat="57.112121" lon="8.955440">
<ele>11.399281</ele>
<time>2026-07-15T10:26:39.000Z</time>
</trkpt>
<trkpt lat="57.112125" lon="8.955524">
<ele>11.421933</ele>
<time>2026-07-15T10:26:40.000Z</time>
</trkpt>
<trkpt lat="57.112128" lon="8.955588">
<ele>11.439190</ele>
<time>2026-07-15T10:26:41.000Z</time>
</trkpt>
<trkpt lat="57.112129" lon="8.955686">
<ele>11.465520</ele>
<time>2026-07-15T10:26:42.000Z</time>
</trkpt>
<trkpt lat="57.112133" lon="8.955773">
<ele>11.488975</ele>
<time>2026-07-15T10:26:43.000Z</time>
</trkpt>
<trkpt lat="57.112126" lon="8.955855">
<ele>11.511273</ele>
<time>2026-07-15T10:26:44.000Z</time>
</trkpt>
<trkpt lat="57.112125" lon="8.955950">
<ele>11.536798</ele>
<time>2026-07-15T10:26:45.000Z</time>
</trkpt>
<trkpt lat="57.112125" lon="8.956039">
<ele>11.560706</ele>
<time>2026-07-15T10:26:46.000Z</time>
</trkpt>
<trkpt lat="57.112129" lon="8.956184">
<ele>11.599708</ele>
<time>2026-07-15T10:26:47.000Z</time>
</trkpt>
<trkpt lat="57.112129" lon="8.956284">
<ele>11.626571</ele>
<time>2026-07-15T10:26:48.000Z</time>
</trkpt>
<trkpt lat="57.112129" lon="8.956393">
<ele>11.655852</ele>
<time>2026-07-15T10:26:49.000Z</time>
</trkpt>
<trkpt lat="57.112125" lon="8.956508">
<ele>11.686808</ele>
<time>2026-07-15T10:26:50.000Z</time>
</trkpt>
<trkpt lat="57.112122" lon="8.956621">
<ele>11.717200</ele>
<time>2026-07-15T10:26:51.000Z</time>
</trkpt>
<trkpt lat="57.112125" lon="8.956739">
<ele>11.748933</ele>
<time>2026-07-15T10:26:52.000Z</time>
</trkpt>
<trkpt lat="57.112125" lon="8.956855">
<ele>11.780095</ele>
<time>2026-07-15T10:26:53.000Z</time>
</trkpt>
<trkpt lat="57.112133" lon="8.956969">
<ele>11.810973</ele>
<time>2026-07-15T10:26:54.000Z</time>
</trkpt>
<trkpt lat="57.112129" lon="8.957079">
<ele>11.840589</ele>
<time>2026-07-15T10:26:55.000Z</time>
</trkpt>
<trkpt lat="57.112126" lon="8.957165">
<ele>11.863739</ele>
<time>2026-07-15T10:26:56.000Z</time>
</trkpt>
<trkpt lat="57.112123" lon="8.957268">
<ele>11.891448</ele>
<time>2026-07-15T10:26:57.000Z</time>
</trkpt>
<trkpt lat="57.112119" lon="8.957366">
<ele>11.917848</ele>
<time>2026-07-15T10:26:58.000Z</time>
</trkpt>
<trkpt lat="57.112115" lon="8.957474">
<ele>11.946928</ele>
<time>2026-07-15T10:26:59.000Z</time>
</trkpt>
<trkpt lat="57.112114" lon="8.957587">
<ele>11.962415</ele>
<time>2026-07-15T10:27:00.000Z</time>
</trkpt>
<trkpt lat="57.112121" lon="8.957677">
<ele>11.966820</ele>
<time>2026-07-15T10:27:01.000Z</time>
</trkpt>
<trkpt lat="57.112125" lon="8.957762">
<ele>11.970954</ele>
<time>2026-07-15T10:27:02.000Z</time>
</trkpt>
<trkpt lat="57.112129" lon="8.957852">
<ele>11.975329</ele>
<time>2026-07-15T10:27:03.000Z</time>
</trkpt>
<trkpt lat="57.112136" lon="8.957917">
<ele>11.978540</ele>
<time>2026-07-15T10:27:04.000Z</time>
</trkpt>
<trkpt lat="57.112141" lon="8.957977">
<ele>11.981481</ele>
<time>2026-07-15T10:27:05.000Z</time>
</trkpt>
<trkpt lat="57.112149" lon="8.958002">
<ele>11.982887</ele>
<time>2026-07-15T10:27:06.000Z</time>
</trkpt>
<trkpt lat="57.112160" lon="8.958018">
<ele>11.984137</ele>
<time>2026-07-15T10:27:07.000Z</time>
</trkpt>
<trkpt lat="57.112163" lon="8.958010">
<ele>11.984608</ele>
<time>2026-07-15T10:27:08.000Z</time>
</trkpt>
<trkpt lat="57.112160" lon="8.957995">
<ele>11.985383</ele>
<time>2026-07-15T10:27:09.000Z</time>
</trkpt>
<trkpt lat="57.112160" lon="8.957969">
<ele>11.986643</ele>
<time>2026-07-15T10:27:10.000Z</time>
</trkpt>
<trkpt lat="57.112156" lon="8.957940">
<ele>11.988092</ele>
<time>2026-07-15T10:27:11.000Z</time>
</trkpt>
<trkpt lat="57.112163" lon="8.957904">
<ele>11.989945</ele>
<time>2026-07-15T10:27:12.000Z</time>
</trkpt>
<trkpt lat="57.112164" lon="8.957861">
<ele>11.992030</ele>
<time>2026-07-15T10:27:13.000Z</time>
</trkpt>
<trkpt lat="57.112167" lon="8.957821">
<ele>11.993987</ele>
<time>2026-07-15T10:27:14.000Z</time>
</trkpt>
<trkpt lat="57.112171" lon="8.957777">
<ele>11.996148</ele>
<time>2026-07-15T10:27:15.000Z</time>
</trkpt>
<trkpt lat="57.112178" lon="8.957737">
<ele>11.998184</ele>
<time>2026-07-15T10:27:16.000Z</time>
</trkpt>
<trkpt lat="57.112179" lon="8.957683">
<ele>12.000802</ele>
<time>2026-07-15T10:27:17.000Z</time>
</trkpt>
<trkpt lat="57.112179" lon="8.957633">
<ele>12.003225</ele>
<time>2026-07-15T10:27:18.000Z</time>
</trkpt>
<trkpt lat="57.112182" lon="8.957582">
<ele>12.005710</ele>
<time>2026-07-15T10:27:19.000Z</time>
</trkpt>
<trkpt lat="57.112183" lon="8.957526">
<ele>12.008425</ele>
<time>2026-07-15T10:27:20.000Z</time>
</trkpt>
<trkpt lat="57.112186" lon="8.957473">
<ele>12.011007</ele>
<time>2026-07-15T10:27:21.000Z</time>
</trkpt>
<trkpt lat="57.112186" lon="8.957414">
<ele>12.013865</ele>
<time>2026-07-15T10:27:22.000Z</time>
</trkpt>
<trkpt lat="57.112190" lon="8.957356">
<ele>12.016698</ele>
<time>2026-07-15T10:27:23.000Z</time>
</trkpt>
<trkpt lat="57.112190" lon="8.957300">
<ele>12.019411</ele>
<time>2026-07-15T10:27:24.000Z</time>
</trkpt>
<trkpt lat="57.112194" lon="8.957239">
<ele>12.022388</ele>
<time>2026-07-15T10:27:25.000Z</time>
</trkpt>
<trkpt lat="57.112201" lon="8.957187">
<ele>12.024984</ele>
<time>2026-07-15T10:27:26.000Z</time>
</trkpt>
<trkpt lat="57.112205" lon="8.957119">
<ele>12.028298</ele>
<time>2026-07-15T10:27:27.000Z</time>
</trkpt>
<trkpt lat="57.112209" lon="8.957062">
<ele>12.031082</ele>
<time>2026-07-15T10:27:28.000Z</time>
</trkpt>
<trkpt lat="57.112213" lon="8.956989">
<ele>12.034637</ele>
<time>2026-07-15T10:27:29.000Z</time>
</trkpt>
<trkpt lat="57.112220" lon="8.956926">
<ele>12.037753</ele>
<time>2026-07-15T10:27:30.000Z</time>
</trkpt>
<trkpt lat="57.112221" lon="8.956850">
<ele>12.041436</ele>
<time>2026-07-15T10:27:31.000Z</time>
</trkpt>
<trkpt lat="57.112224" lon="8.956778">
<ele>12.044935</ele>
<time>2026-07-15T10:27:32.000Z</time>
</trkpt>
<trkpt lat="57.112228" lon="8.956706">
<ele>12.048441</ele>
<time>2026-07-15T10:27:33.000Z</time>
</trkpt>
<trkpt lat="57.112232" lon="8.956645">
<ele>12.051418</ele>
<time>2026-07-15T10:27:34.000Z</time>
</trkpt>
<trkpt lat="57.112236" lon="8.956572">
<ele>12.054973</ele>
<time>2026-07-15T10:27:35.000Z</time>
</trkpt>
<trkpt lat="57.112240" lon="8.956506">
<ele>12.058191</ele>
<time>2026-07-15T10:27:36.000Z</time>
</trkpt>
<trkpt lat="57.112247" lon="8.956442">
<ele>12.061354</ele>
<time>2026-07-15T10:27:37.000Z</time>
</trkpt>
<trkpt lat="57.112244" lon="8.956385">
<ele>12.064129</ele>
<time>2026-07-15T10:27:38.000Z</time>
</trkpt>
<trkpt lat="57.112244" lon="8.956343">
<ele>12.066163</ele>
<time>2026-07-15T10:27:39.000Z</time>
</trkpt>
<trkpt lat="57.112240" lon="8.956274">
<ele>12.069526</ele>
<time>2026-07-15T10:27:40.000Z</time>
</trkpt>
<trkpt lat="57.112240" lon="8.956213">
<ele>12.072481</ele>
<time>2026-07-15T10:27:41.000Z</time>
</trkpt>
<trkpt lat="57.112240" lon="8.956148">
<ele>12.075630</ele>
<time>2026-07-15T10:27:42.000Z</time>
</trkpt>
<trkpt lat="57.112236" lon="8.956078">
<ele>12.079041</ele>
<time>2026-07-15T10:27:43.000Z</time>
</trkpt>
<trkpt lat="57.112233" lon="8.956030">
<ele>12.081381</ele>
<time>2026-07-15T10:27:44.000Z</time>
</trkpt>
<trkpt lat="57.112236" lon="8.955959">
<ele>12.084832</ele>
<time>2026-07-15T10:27:45.000Z</time>
</trkpt>
<trkpt lat="57.112240" lon="8.955906">
<ele>12.087424</ele>
<time>2026-07-15T10:27:46.000Z</time>
</trkpt>
<trkpt lat="57.112240" lon="8.955859">
<ele>12.089702</ele>
<time>2026-07-15T10:27:47.000Z</time>
</trkpt>
<trkpt lat="57.112240" lon="8.955799">
<ele>12.092609</ele>
<time>2026-07-15T10:27:48.000Z</time>
</trkpt>
<trkpt lat="57.112236" lon="8.955753">
<ele>12.094866</ele>
<time>2026-07-15T10:27:49.000Z</time>
</trkpt>
<trkpt lat="57.112236" lon="8.955705">
<ele>12.097191</ele>
<time>2026-07-15T10:27:50.000Z</time>
</trkpt>
<trkpt lat="57.112233" lon="8.955660">
<ele>12.099388</ele>
<time>2026-07-15T10:27:51.000Z</time>
</trkpt>
<trkpt lat="57.112221" lon="8.955610">
<ele>12.102037</ele>
<time>2026-07-15T10:27:52.000Z</time>
</trkpt>
<trkpt lat="57.112214" lon="8.955570">
<ele>12.104073</ele>
<time>2026-07-15T10:27:53.000Z</time>
</trkpt>
<trkpt lat="57.112202" lon="8.955525">
<ele>12.106502</ele>
<time>2026-07-15T10:27:54.000Z</time>
</trkpt>
<trkpt lat="57.112198" lon="8.955488">
<ele>12.108330</ele>
<time>2026-07-15T10:27:55.000Z</time>
</trkpt>
<trkpt lat="57.112198" lon="8.955445">
<ele>12.110413</ele>
<time>2026-07-15T10:27:56.000Z</time>
</trkpt>
<trkpt lat="57.112194" lon="8.955391">
<ele>12.113054</ele>
<time>2026-07-15T10:27:57.000Z</time>
</trkpt>
<trkpt lat="57.112205" lon="8.955355">
<ele>12.115055</ele>
<time>2026-07-15T10:27:58.000Z</time>
</trkpt>
<trkpt lat="57.112206" lon="8.955318">
<ele>12.116850</ele>
<time>2026-07-15T10:27:59.000Z</time>
</trkpt>
<trkpt lat="57.112224" lon="8.955289">
<ele>12.118984</ele>
<time>2026-07-15T10:28:00.000Z</time>
</trkpt>
<trkpt lat="57.112240" lon="8.955250">
<ele>12.115260</ele>
<time>2026-07-15T10:28:01.000Z</time>
</trkpt>
<trkpt lat="57.112251" lon="8.955220">
<ele>12.110803</ele>
<time>2026-07-15T10:28:02.000Z</time>
</trkpt>
<trkpt lat="57.112267" lon="8.955186">
<ele>12.105264</ele>
<time>2026-07-15T10:28:03.000Z</time>
</trkpt>
<trkpt lat="57.112282" lon="8.955158">
<ele>12.100421</ele>
<time>2026-07-15T10:28:04.000Z</time>
</trkpt>
<trkpt lat="57.112282" lon="8.955115">
<ele>12.095126</ele>
<time>2026-07-15T10:28:05.000Z</time>
</trkpt>
<trkpt lat="57.112293" lon="8.955090">
<ele>12.091164</ele>
<time>2026-07-15T10:28:06.000Z</time>
</trkpt>
<trkpt lat="57.112305" lon="8.955085">
<ele>12.088375</ele>
<time>2026-07-15T10:28:07.000Z</time>
</trkpt>
<trkpt lat="57.112332" lon="8.955099">
<ele>12.082014</ele>
<time>2026-07-15T10:28:08.000Z</time>
</trkpt>
<trkpt lat="57.112355" lon="8.955116">
<ele>12.076395</ele>
<time>2026-07-15T10:28:09.000Z</time>
</trkpt>
<trkpt lat="57.112373" lon="8.955130">
<ele>12.071964</ele>
<time>2026-07-15T10:28:10.000Z</time>
</trkpt>
<trkpt lat="57.112404" lon="8.955152">
<ele>12.064431</ele>
<time>2026-07-15T10:28:11.000Z</time>
</trkpt>
<trkpt lat="57.112431" lon="8.955180">
<ele>12.057405</ele>
<time>2026-07-15T10:28:12.000Z</time>
</trkpt>
<trkpt lat="57.112453" lon="8.955208">
<ele>12.051341</ele>
<time>2026-07-15T10:28:13.000Z</time>
</trkpt>
<trkpt lat="57.112484" lon="8.955241">
<ele>12.043222</ele>
<time>2026-07-15T10:28:14.000Z</time>
</trkpt>
<trkpt lat="57.112511" lon="8.955281">
<ele>12.035364</ele>
<time>2026-07-15T10:28:15.000Z</time>
</trkpt>
<trkpt lat="57.112540" lon="8.955319">
<ele>12.027294</ele>
<time>2026-07-15T10:28:16.000Z</time>
</trkpt>
<trkpt lat="57.112572" lon="8.955362">
<ele>12.018312</ele>
<time>2026-07-15T10:28:17.000Z</time>
</trkpt>
<trkpt lat="57.112606" lon="8.955408">
<ele>12.008745</ele>
<time>2026-07-15T10:28:18.000Z</time>
</trkpt>
<trkpt lat="57.112645" lon="8.955458">
<ele>11.997970</ele>
<time>2026-07-15T10:28:19.000Z</time>
</trkpt>
<trkpt lat="57.112679" lon="8.955508">
<ele>11.988104</ele>
<time>2026-07-15T10:28:20.000Z</time>
</trkpt>
<trkpt lat="57.112717" lon="8.955562">
<ele>11.977221</ele>
<time>2026-07-15T10:28:21.000Z</time>
</trkpt>
<trkpt lat="57.112752" lon="8.955616">
<ele>11.966867</ele>
<time>2026-07-15T10:28:22.000Z</time>
</trkpt>
<trkpt lat="57.112782" lon="8.955665">
<ele>11.957775</ele>
<time>2026-07-15T10:28:23.000Z</time>
</trkpt>
<trkpt lat="57.112816" lon="8.955715">
<ele>11.947909</ele>
<time>2026-07-15T10:28:24.000Z</time>
</trkpt>
<trkpt lat="57.112849" lon="8.955767">
<ele>11.938061</ele>
<time>2026-07-15T10:28:25.000Z</time>
</trkpt>
<trkpt lat="57.112885" lon="8.955823">
<ele>11.927376</ele>
<time>2026-07-15T10:28:26.000Z</time>
</trkpt>
<trkpt lat="57.112919" lon="8.955876">
<ele>11.917275</ele>
<time>2026-07-15T10:28:27.000Z</time>
</trkpt>
<trkpt lat="57.112954" lon="8.955931">
<ele>11.906842</ele>
<time>2026-07-15T10:28:28.000Z</time>
</trkpt>
<trkpt lat="57.112988" lon="8.955985">
<ele>11.896662</ele>
<time>2026-07-15T10:28:29.000Z</time>
</trkpt>
<trkpt lat="57.113022" lon="8.956037">
<ele>11.886641</ele>
<time>2026-07-15T10:28:30.000Z</time>
</trkpt>
<trkpt lat="57.113061" lon="8.956095">
<ele>11.875274</ele>
<time>2026-07-15T10:28:31.000Z</time>
</trkpt>
<trkpt lat="57.113095" lon="8.956153">
<ele>11.864765</ele>
<time>2026-07-15T10:28:32.000Z</time>
</trkpt>
<trkpt lat="57.113133" lon="8.956211">
<ele>11.853574</ele>
<time>2026-07-15T10:28:33.000Z</time>
</trkpt>
<trkpt lat="57.113175" lon="8.956271">
<ele>11.841521</ele>
<time>2026-07-15T10:28:34.000Z</time>
</trkpt>
<trkpt lat="57.113209" lon="8.956329">
<ele>11.831013</ele>
<time>2026-07-15T10:28:35.000Z</time>
</trkpt>
<trkpt lat="57.113246" lon="8.956390">
<ele>11.819752</ele>
<time>2026-07-15T10:28:36.000Z</time>
</trkpt>
<trkpt lat="57.113285" lon="8.956450">
<ele>11.808229</ele>
<time>2026-07-15T10:28:37.000Z</time>
</trkpt>
<trkpt lat="57.113323" lon="8.956506">
<ele>11.797194</ele>
<time>2026-07-15T10:28:38.000Z</time>
</trkpt>
<trkpt lat="57.113357" lon="8.956563">
<ele>11.786768</ele>
<time>2026-07-15T10:28:39.000Z</time>
</trkpt>
<trkpt lat="57.113396" lon="8.956620">
<ele>11.775479</ele>
<time>2026-07-15T10:28:40.000Z</time>
</trkpt>
<trkpt lat="57.113433" lon="8.956677">
<ele>11.764541</ele>
<time>2026-07-15T10:28:41.000Z</time>
</trkpt>
<trkpt lat="57.113472" lon="8.956734">
<ele>11.753251</ele>
<time>2026-07-15T10:28:42.000Z</time>
</trkpt>
<trkpt lat="57.113510" lon="8.956793">
<ele>11.741981</ele>
<time>2026-07-15T10:28:43.000Z</time>
</trkpt>
<trkpt lat="57.113548" lon="8.956851">
<ele>11.730790</ele>
<time>2026-07-15T10:28:44.000Z</time>
</trkpt>
<trkpt lat="57.113583" lon="8.956912">
<ele>11.719863</ele>
<time>2026-07-15T10:28:45.000Z</time>
</trkpt>
<trkpt lat="57.113617" lon="8.956974">
<ele>11.712978</ele>
<time>2026-07-15T10:28:46.000Z</time>
</trkpt>
<trkpt lat="57.113651" lon="8.957036">
<ele>11.717646</ele>
<time>2026-07-15T10:28:47.000Z</time>
</trkpt>
<trkpt lat="57.113688" lon="8.957096">
<ele>11.722455</ele>
<time>2026-07-15T10:28:48.000Z</time>
</trkpt>
<trkpt lat="57.113727" lon="8.957160">
<ele>11.727551</ele>
<time>2026-07-15T10:28:49.000Z</time>
</trkpt>
<trkpt lat="57.113770" lon="8.957220">
<ele>11.732814</ele>
<time>2026-07-15T10:28:50.000Z</time>
</trkpt>
<trkpt lat="57.113806" lon="8.957279">
<ele>11.737516</ele>
<time>2026-07-15T10:28:51.000Z</time>
</trkpt>
<trkpt lat="57.113845" lon="8.957344">
<ele>11.742647</ele>
<time>2026-07-15T10:28:52.000Z</time>
</trkpt>
<trkpt lat="57.113887" lon="8.957407">
<ele>11.747932</ele>
<time>2026-07-15T10:28:53.000Z</time>
</trkpt>
<trkpt lat="57.113925" lon="8.957471">
<ele>11.752955</ele>
<time>2026-07-15T10:28:54.000Z</time>
</trkpt>
<trkpt lat="57.113968" lon="8.957535">
<ele>11.758349</ele>
<time>2026-07-15T10:28:55.000Z</time>
</trkpt>
<trkpt lat="57.114006" lon="8.957597">
<ele>11.763302</ele>
<time>2026-07-15T10:28:56.000Z</time>
</trkpt>
<trkpt lat="57.114041" lon="8.957657">
<ele>11.767966</ele>
<time>2026-07-15T10:28:57.000Z</time>
</trkpt>
<trkpt lat="57.114079" lon="8.957719">
<ele>11.772919</ele>
<time>2026-07-15T10:28:58.000Z</time>
</trkpt>
<trkpt lat="57.114111" lon="8.957774">
<ele>11.777189</ele>
<time>2026-07-15T10:28:59.000Z</time>
</trkpt>
<trkpt lat="57.114146" lon="8.957834">
<ele>11.781854</ele>
<time>2026-07-15T10:29:00.000Z</time>
</trkpt>
<trkpt lat="57.114181" lon="8.957889">
<ele>11.786343</ele>
<time>2026-07-15T10:29:01.000Z</time>
</trkpt>
<trkpt lat="57.114216" lon="8.957949">
<ele>11.791008</ele>
<time>2026-07-15T10:29:02.000Z</time>
</trkpt>
<trkpt lat="57.114250" lon="8.958007">
<ele>11.795529</ele>
<time>2026-07-15T10:29:03.000Z</time>
</trkpt>
<trkpt lat="57.114283" lon="8.958065">
<ele>11.799979</ele>
<time>2026-07-15T10:29:04.000Z</time>
</trkpt>
<trkpt lat="57.114323" lon="8.958130">
<ele>11.805183</ele>
<time>2026-07-15T10:29:05.000Z</time>
</trkpt>
<trkpt lat="57.114360" lon="8.958193">
<ele>11.810099</ele>
<time>2026-07-15T10:29:06.000Z</time>
</trkpt>
<trkpt lat="57.114395" lon="8.958256">
<ele>11.814873</ele>
<time>2026-07-15T10:29:07.000Z</time>
</trkpt>
<trkpt lat="57.114433" lon="8.958321">
<ele>11.819933</ele>
<time>2026-07-15T10:29:08.000Z</time>
</trkpt>
<trkpt lat="57.114474" lon="8.958385">
<ele>11.825176</ele>
<time>2026-07-15T10:29:09.000Z</time>
</trkpt>
<trkpt lat="57.114513" lon="8.958451">
<ele>11.830343</ele>
<time>2026-07-15T10:29:10.000Z</time>
</trkpt>
<trkpt lat="57.114552" lon="8.958518">
<ele>11.835546</ele>
<time>2026-07-15T10:29:11.000Z</time>
</trkpt>
<trkpt lat="57.114590" lon="8.958581">
<ele>11.840534</ele>
<time>2026-07-15T10:29:12.000Z</time>
</trkpt>
<trkpt lat="57.114630" lon="8.958646">
<ele>11.845739</ele>
<time>2026-07-15T10:29:13.000Z</time>
</trkpt>
<trkpt lat="57.114670" lon="8.958710">
<ele>11.850908</ele>
<time>2026-07-15T10:29:14.000Z</time>
</trkpt>
<trkpt lat="57.114708" lon="8.958774">
<ele>11.855931</ele>
<time>2026-07-15T10:29:15.000Z</time>
</trkpt>
<trkpt lat="57.114743" lon="8.958835">
<ele>11.860632</ele>
<time>2026-07-15T10:29:16.000Z</time>
</trkpt>
<trkpt lat="57.114781" lon="8.958895">
<ele>11.865515</ele>
<time>2026-07-15T10:29:17.000Z</time>
</trkpt>
<trkpt lat="57.114815" lon="8.958957">
<ele>11.870183</ele>
<time>2026-07-15T10:29:18.000Z</time>
</trkpt>
<trkpt lat="57.114849" lon="8.959017">
<ele>11.874777</ele>
<time>2026-07-15T10:29:19.000Z</time>
</trkpt>
<trkpt lat="57.114884" lon="8.959074">
<ele>11.879335</ele>
<time>2026-07-15T10:29:20.000Z</time>
</trkpt>
<trkpt lat="57.114917" lon="8.959130">
<ele>11.883713</ele>
<time>2026-07-15T10:29:21.000Z</time>
</trkpt>
<trkpt lat="57.114953" lon="8.959192">
<ele>11.887909</ele>
<time>2026-07-15T10:29:22.000Z</time>
</trkpt>
<trkpt lat="57.114990" lon="8.959251">
<ele>11.890371</ele>
<time>2026-07-15T10:29:23.000Z</time>
</trkpt>
<trkpt lat="57.115027" lon="8.959309">
<ele>11.892815</ele>
<time>2026-07-15T10:29:24.000Z</time>
</trkpt>
<trkpt lat="57.115063" lon="8.959368">
<ele>11.895238</ele>
<time>2026-07-15T10:29:25.000Z</time>
</trkpt>
<trkpt lat="57.115097" lon="8.959426">
<ele>11.897569</ele>
<time>2026-07-15T10:29:26.000Z</time>
</trkpt>
<trkpt lat="57.115132" lon="8.959482">
<ele>11.899901</ele>
<time>2026-07-15T10:29:27.000Z</time>
</trkpt>
<trkpt lat="57.115166" lon="8.959539">
<ele>11.902214</ele>
<time>2026-07-15T10:29:28.000Z</time>
</trkpt>
<trkpt lat="57.115200" lon="8.959594">
<ele>11.904490</ele>
<time>2026-07-15T10:29:29.000Z</time>
</trkpt>
<trkpt lat="57.115231" lon="8.959652">
<ele>11.906712</ele>
<time>2026-07-15T10:29:30.000Z</time>
</trkpt>
<trkpt lat="57.115265" lon="8.959709">
<ele>11.909025</ele>
<time>2026-07-15T10:29:31.000Z</time>
</trkpt>
<trkpt lat="57.115303" lon="8.959769">
<ele>11.911542</ele>
<time>2026-07-15T10:29:32.000Z</time>
</trkpt>
<trkpt lat="57.115337" lon="8.959830">
<ele>11.913930</ele>
<time>2026-07-15T10:29:33.000Z</time>
</trkpt>
<trkpt lat="57.115376" lon="8.959891">
<ele>11.916503</ele>
<time>2026-07-15T10:29:34.000Z</time>
</trkpt>
<trkpt lat="57.115414" lon="8.959952">
<ele>11.919038</ele>
<time>2026-07-15T10:29:35.000Z</time>
</trkpt>
<trkpt lat="57.115452" lon="8.960014">
<ele>11.921592</ele>
<time>2026-07-15T10:29:36.000Z</time>
</trkpt>
<trkpt lat="57.115488" lon="8.960073">
<ele>11.924015</ele>
<time>2026-07-15T10:29:37.000Z</time>
</trkpt>
<trkpt lat="57.115528" lon="8.960136">
<ele>11.926663</ele>
<time>2026-07-15T10:29:38.000Z</time>
</trkpt>
<trkpt lat="57.115566" lon="8.960196">
<ele>11.929180</ele>
<time>2026-07-15T10:29:39.000Z</time>
</trkpt>
<trkpt lat="57.115605" lon="8.960261">
<ele>11.931825</ele>
<time>2026-07-15T10:29:40.000Z</time>
</trkpt>
<trkpt lat="57.115642" lon="8.960324">
<ele>11.934360</ele>
<time>2026-07-15T10:29:41.000Z</time>
</trkpt>
<trkpt lat="57.115681" lon="8.960387">
<ele>11.936969</ele>
<time>2026-07-15T10:29:42.000Z</time>
</trkpt>
<trkpt lat="57.115719" lon="8.960446">
<ele>11.939469</ele>
<time>2026-07-15T10:29:43.000Z</time>
</trkpt>
<trkpt lat="57.115757" lon="8.960505">
<ele>11.941969</ele>
<time>2026-07-15T10:29:44.000Z</time>
</trkpt>
<trkpt lat="57.115789" lon="8.960564">
<ele>11.944246</ele>
<time>2026-07-15T10:29:45.000Z</time>
</trkpt>
<trkpt lat="57.115825" lon="8.960629">
<ele>11.946782</ele>
<time>2026-07-15T10:29:46.000Z</time>
</trkpt>
<trkpt lat="57.115864" lon="8.960692">
<ele>11.949391</ele>
<time>2026-07-15T10:29:47.000Z</time>
</trkpt>
<trkpt lat="57.115899" lon="8.960757">
<ele>11.951891</ele>
<time>2026-07-15T10:29:48.000Z</time>
</trkpt>
<trkpt lat="57.115937" lon="8.960819">
<ele>11.954444</ele>
<time>2026-07-15T10:29:49.000Z</time>
</trkpt>
<trkpt lat="57.115971" lon="8.960882">
<ele>11.956870</ele>
<time>2026-07-15T10:29:50.000Z</time>
</trkpt>
<trkpt lat="57.116005" lon="8.960943">
<ele>11.959257</ele>
<time>2026-07-15T10:29:51.000Z</time>
</trkpt>
<trkpt lat="57.116043" lon="8.961005">
<ele>11.961810</ele>
<time>2026-07-15T10:29:52.000Z</time>
</trkpt>
<trkpt lat="57.116081" lon="8.961066">
<ele>11.964346</ele>
<time>2026-07-15T10:29:53.000Z</time>
</trkpt>
<trkpt lat="57.116119" lon="8.961126">
<ele>11.966863</ele>
<time>2026-07-15T10:29:54.000Z</time>
</trkpt>
<trkpt lat="57.116154" lon="8.961194">
<ele>11.969422</ele>
<time>2026-07-15T10:29:55.000Z</time>
</trkpt>
<trkpt lat="57.116196" lon="8.961260">
<ele>11.972199</ele>
<time>2026-07-15T10:29:56.000Z</time>
</trkpt>
<trkpt lat="57.116234" lon="8.961324">
<ele>11.974788</ele>
<time>2026-07-15T10:29:57.000Z</time>
</trkpt>
<trkpt lat="57.116269" lon="8.961385">
<ele>11.977212</ele>
<time>2026-07-15T10:29:58.000Z</time>
</trkpt>
<trkpt lat="57.116306" lon="8.961449">
<ele>11.982569</ele>
<time>2026-07-15T10:29:59.000Z</time>
</trkpt>
<trkpt lat="57.116345" lon="8.961514">
<ele>11.988849</ele>
<time>2026-07-15T10:30:00.000Z</time>
</trkpt>
<trkpt lat="57.116383" lon="8.961574">
<ele>11.994825</ele>
<time>2026-07-15T10:30:01.000Z</time>
</trkpt>
<trkpt lat="57.116418" lon="8.961635">
<ele>12.000579</ele>
<time>2026-07-15T10:30:02.000Z</time>
</trkpt>
<trkpt lat="57.116455" lon="8.961693">
<ele>12.006380</ele>
<time>2026-07-15T10:30:03.000Z</time>
</trkpt>
<trkpt lat="57.116489" lon="8.961754">
<ele>12.012047</ele>
<time>2026-07-15T10:30:04.000Z</time>
</trkpt>
<trkpt lat="57.116528" lon="8.961817">
<ele>12.018241</ele>
<time>2026-07-15T10:30:05.000Z</time>
</trkpt>
<trkpt lat="57.116562" lon="8.961879">
<ele>12.023953</ele>
<time>2026-07-15T10:30:06.000Z</time>
</trkpt>
<trkpt lat="57.116600" lon="8.961938">
<ele>12.029887</ele>
<time>2026-07-15T10:30:07.000Z</time>
</trkpt>
<trkpt lat="57.116635" lon="8.961996">
<ele>12.035509</ele>
<time>2026-07-15T10:30:08.000Z</time>
</trkpt>
<trkpt lat="57.116672" lon="8.962053">
<ele>12.041268</ele>
<time>2026-07-15T10:30:09.000Z</time>
</trkpt>
<trkpt lat="57.116711" lon="8.962117">
<ele>12.047505</ele>
<time>2026-07-15T10:30:10.000Z</time>
</trkpt>
<trkpt lat="57.116749" lon="8.962182">
<ele>12.053697</ele>
<time>2026-07-15T10:30:11.000Z</time>
</trkpt>
<trkpt lat="57.116787" lon="8.962249">
<ele>12.059978</ele>
<time>2026-07-15T10:30:12.000Z</time>
</trkpt>
<trkpt lat="57.116827" lon="8.962309">
<ele>12.066137</ele>
<time>2026-07-15T10:30:13.000Z</time>
</trkpt>
<trkpt lat="57.116871" lon="8.962372">
<ele>12.072791</ele>
<time>2026-07-15T10:30:14.000Z</time>
</trkpt>
<trkpt lat="57.116909" lon="8.962439">
<ele>12.079072</ele>
<time>2026-07-15T10:30:15.000Z</time>
</trkpt>
<trkpt lat="57.116947" lon="8.962501">
<ele>12.085133</ele>
<time>2026-07-15T10:30:16.000Z</time>
</trkpt>
<trkpt lat="57.116985" lon="8.962562">
<ele>12.091152</ele>
<time>2026-07-15T10:30:17.000Z</time>
</trkpt>
<trkpt lat="57.117024" lon="8.962621">
<ele>12.097178</ele>
<time>2026-07-15T10:30:18.000Z</time>
</trkpt>
<trkpt lat="57.117062" lon="8.962679">
<ele>12.103070</ele>
<time>2026-07-15T10:30:19.000Z</time>
</trkpt>
<trkpt lat="57.117104" lon="8.962739">
<ele>12.109416</ele>
<time>2026-07-15T10:30:20.000Z</time>
</trkpt>
<trkpt lat="57.117142" lon="8.962792">
<ele>12.115108</ele>
<time>2026-07-15T10:30:21.000Z</time>
</trkpt>
<trkpt lat="57.117180" lon="8.962861">
<ele>12.121479</ele>
<time>2026-07-15T10:30:22.000Z</time>
</trkpt>
<trkpt lat="57.117218" lon="8.962925">
<ele>12.127627</ele>
<time>2026-07-15T10:30:23.000Z</time>
</trkpt>
<trkpt lat="57.117252" lon="8.962991">
<ele>12.133525</ele>
<time>2026-07-15T10:30:24.000Z</time>
</trkpt>
<trkpt lat="57.117291" lon="8.963057">
<ele>12.139848</ele>
<time>2026-07-15T10:30:25.000Z</time>
</trkpt>
<trkpt lat="57.117325" lon="8.963121">
<ele>12.145653</ele>
<time>2026-07-15T10:30:26.000Z</time>
</trkpt>
<trkpt lat="57.117367" lon="8.963180">
<ele>12.151959</ele>
<time>2026-07-15T10:30:27.000Z</time>
</trkpt>
<trkpt lat="57.117400" lon="8.963243">
<ele>12.157634</ele>
<time>2026-07-15T10:30:28.000Z</time>
</trkpt>
<trkpt lat="57.117443" lon="8.963317">
<ele>12.164661</ele>
<time>2026-07-15T10:30:29.000Z</time>
</trkpt>
<trkpt lat="57.117482" lon="8.963385">
<ele>12.171073</ele>
<time>2026-07-15T10:30:30.000Z</time>
</trkpt>
<trkpt lat="57.117524" lon="8.963449">
<ele>12.177581</ele>
<time>2026-07-15T10:30:31.000Z</time>
</trkpt>
<trkpt lat="57.117566" lon="8.963506">
<ele>12.183810</ele>
<time>2026-07-15T10:30:32.000Z</time>
</trkpt>
<trkpt lat="57.117604" lon="8.963566">
<ele>12.189786</ele>
<time>2026-07-15T10:30:33.000Z</time>
</trkpt>
<trkpt lat="57.117642" lon="8.963626">
<ele>12.192044</ele>
<time>2026-07-15T10:30:34.000Z</time>
</trkpt>
<trkpt lat="57.117680" lon="8.963691">
<ele>12.191224</ele>
<time>2026-07-15T10:30:35.000Z</time>
</trkpt>
<trkpt lat="57.117722" lon="8.963759">
<ele>12.190340</ele>
<time>2026-07-15T10:30:36.000Z</time>
</trkpt>
<trkpt lat="57.117760" lon="8.963822">
<ele>12.189531</ele>
<time>2026-07-15T10:30:37.000Z</time>
</trkpt>
<trkpt lat="57.117802" lon="8.963888">
<ele>12.188658</ele>
<time>2026-07-15T10:30:38.000Z</time>
</trkpt>
<trkpt lat="57.117840" lon="8.963949">
<ele>12.187861</ele>
<time>2026-07-15T10:30:39.000Z</time>
</trkpt>
<trkpt lat="57.117878" lon="8.964016">
<ele>12.187029</ele>
<time>2026-07-15T10:30:40.000Z</time>
</trkpt>
<trkpt lat="57.117913" lon="8.964085">
<ele>12.186218</ele>
<time>2026-07-15T10:30:41.000Z</time>
</trkpt>
<trkpt lat="57.117954" lon="8.964154">
<ele>12.185340</ele>
<time>2026-07-15T10:30:42.000Z</time>
</trkpt>
<trkpt lat="57.117985" lon="8.964220">
<ele>12.184590</ele>
<time>2026-07-15T10:30:43.000Z</time>
</trkpt>
<trkpt lat="57.118022" lon="8.964282">
<ele>12.183799</ele>
<time>2026-07-15T10:30:44.000Z</time>
</trkpt>
<trkpt lat="57.118061" lon="8.964350">
<ele>12.182950</ele>
<time>2026-07-15T10:30:45.000Z</time>
</trkpt>
<trkpt lat="57.118095" lon="8.964413">
<ele>12.182187</ele>
<time>2026-07-15T10:30:46.000Z</time>
</trkpt>
<trkpt lat="57.118130" lon="8.964476">
<ele>12.181413</ele>
<time>2026-07-15T10:30:47.000Z</time>
</trkpt>
<trkpt lat="57.118164" lon="8.964533">
<ele>12.180686</ele>
<time>2026-07-15T10:30:48.000Z</time>
</trkpt>
<trkpt lat="57.118199" lon="8.964594">
<ele>12.179924</ele>
<time>2026-07-15T10:30:49.000Z</time>
</trkpt>
<trkpt lat="57.118233" lon="8.964649">
<ele>12.179208</ele>
<time>2026-07-15T10:30:50.000Z</time>
</trkpt>
<trkpt lat="57.118267" lon="8.964713">
<ele>12.178439</ele>
<time>2026-07-15T10:30:51.000Z</time>
</trkpt>
<trkpt lat="57.118305" lon="8.964778">
<ele>12.177619</ele>
<time>2026-07-15T10:30:52.000Z</time>
</trkpt>
<trkpt lat="57.118340" lon="8.964838">
<ele>12.176863</ele>
<time>2026-07-15T10:30:53.000Z</time>
</trkpt>
<trkpt lat="57.118378" lon="8.964906">
<ele>12.176025</ele>
<time>2026-07-15T10:30:54.000Z</time>
</trkpt>
<trkpt lat="57.118412" lon="8.964961">
<ele>12.175309</ele>
<time>2026-07-15T10:30:55.000Z</time>
</trkpt>
<trkpt lat="57.118450" lon="8.965022">
<ele>12.174512</ele>
<time>2026-07-15T10:30:56.000Z</time>
</trkpt>
<trkpt lat="57.118485" lon="8.965075">
<ele>12.173796</ele>
<time>2026-07-15T10:30:57.000Z</time>
</trkpt>
<trkpt lat="57.118515" lon="8.965126">
<ele>12.173150</ele>
<time>2026-07-15T10:30:58.000Z</time>
</trkpt>
<trkpt lat="57.118552" lon="8.965188">
<ele>12.172359</ele>
<time>2026-07-15T10:30:59.000Z</time>
</trkpt>
<trkpt lat="57.118591" lon="8.965258">
<ele>12.171498</ele>
<time>2026-07-15T10:31:00.000Z</time>
</trkpt>
<trkpt lat="57.118626" lon="8.965327">
<ele>12.170687</ele>
<time>2026-07-15T10:31:01.000Z</time>
</trkpt>
<trkpt lat="57.118660" lon="8.965386">
<ele>12.169948</ele>
<time>2026-07-15T10:31:02.000Z</time>
</trkpt>
<trkpt lat="57.118703" lon="8.965456">
<ele>12.169040</ele>
<time>2026-07-15T10:31:03.000Z</time>
</trkpt>
<trkpt lat="57.118744" lon="8.965521">
<ele>12.168185</ele>
<time>2026-07-15T10:31:04.000Z</time>
</trkpt>
<trkpt lat="57.118782" lon="8.965584">
<ele>12.167376</ele>
<time>2026-07-15T10:31:05.000Z</time>
</trkpt>
<trkpt lat="57.118817" lon="8.965645">
<ele>12.166614</ele>
<time>2026-07-15T10:31:06.000Z</time>
</trkpt>
<trkpt lat="57.118855" lon="8.965708">
<ele>12.165806</ele>
<time>2026-07-15T10:31:07.000Z</time>
</trkpt>
<trkpt lat="57.118886" lon="8.965766">
<ele>12.165107</ele>
<time>2026-07-15T10:31:08.000Z</time>
</trkpt>
<trkpt lat="57.118920" lon="8.965822">
<ele>12.164385</ele>
<time>2026-07-15T10:31:09.000Z</time>
</trkpt>
<trkpt lat="57.118950" lon="8.965875">
<ele>12.155077</ele>
<time>2026-07-15T10:31:10.000Z</time>
</trkpt>
<trkpt lat="57.118992" lon="8.965929">
<ele>12.131244</ele>
<time>2026-07-15T10:31:11.000Z</time>
</trkpt>
<trkpt lat="57.119017" lon="8.965973">
<ele>12.115154</ele>
<time>2026-07-15T10:31:12.000Z</time>
</trkpt>
<trkpt lat="57.119046" lon="8.966024">
<ele>12.096498</ele>
<time>2026-07-15T10:31:13.000Z</time>
</trkpt>
<trkpt lat="57.119068" lon="8.966066">
<ele>12.081755</ele>
<time>2026-07-15T10:31:14.000Z</time>
</trkpt>
<trkpt lat="57.119095" lon="8.966117">
<ele>12.063760</ele>
<time>2026-07-15T10:31:15.000Z</time>
</trkpt>
<trkpt lat="57.119121" lon="8.966158">
<ele>12.047834</ele>
<time>2026-07-15T10:31:16.000Z</time>
</trkpt>
<trkpt lat="57.119144" lon="8.966198">
<ele>12.033115</ele>
<time>2026-07-15T10:31:17.000Z</time>
</trkpt>
<trkpt lat="57.119175" lon="8.966243">
<ele>12.014749</ele>
<time>2026-07-15T10:31:18.000Z</time>
</trkpt>
<trkpt lat="57.119206" lon="8.966289">
<ele>11.996226</ele>
<time>2026-07-15T10:31:19.000Z</time>
</trkpt>
<trkpt lat="57.119236" lon="8.966330">
<ele>11.978844</ele>
<time>2026-07-15T10:31:20.000Z</time>
</trkpt>
<trkpt lat="57.119290" lon="8.966405">
<ele>11.947375</ele>
<time>2026-07-15T10:31:21.000Z</time>
</trkpt>
<trkpt lat="57.119314" lon="8.966446">
<ele>11.932144</ele>
<time>2026-07-15T10:31:22.000Z</time>
</trkpt>
<trkpt lat="57.119343" lon="8.966508">
<ele>11.911471</ele>
<time>2026-07-15T10:31:23.000Z</time>
</trkpt>
<trkpt lat="57.119376" lon="8.966570">
<ele>11.889537</ele>
<time>2026-07-15T10:31:24.000Z</time>
</trkpt>
<trkpt lat="57.119408" lon="8.966626">
<ele>11.868999</ele>
<time>2026-07-15T10:31:25.000Z</time>
</trkpt>
<trkpt lat="57.119435" lon="8.966673">
<ele>11.851713</ele>
<time>2026-07-15T10:31:26.000Z</time>
</trkpt>
<trkpt lat="57.119460" lon="8.966730">
<ele>11.833202</ele>
<time>2026-07-15T10:31:27.000Z</time>
</trkpt>
<trkpt lat="57.119492" lon="8.966800">
<ele>11.810085</ele>
<time>2026-07-15T10:31:28.000Z</time>
</trkpt>
<trkpt lat="57.119533" lon="8.966866">
<ele>11.784749</ele>
<time>2026-07-15T10:31:29.000Z</time>
</trkpt>
<trkpt lat="57.119576" lon="8.966952">
<ele>11.755214</ele>
<time>2026-07-15T10:31:30.000Z</time>
</trkpt>
<trkpt lat="57.119621" lon="8.967035">
<ele>11.725582</ele>
<time>2026-07-15T10:31:31.000Z</time>
</trkpt>
<trkpt lat="57.119659" lon="8.967115">
<ele>11.698730</ele>
<time>2026-07-15T10:31:32.000Z</time>
</trkpt>
<trkpt lat="57.119698" lon="8.967195">
<ele>11.671569</ele>
<time>2026-07-15T10:31:33.000Z</time>
</trkpt>
<trkpt lat="57.119744" lon="8.967275">
<ele>11.642132</ele>
<time>2026-07-15T10:31:34.000Z</time>
</trkpt>
<trkpt lat="57.119790" lon="8.967347">
<ele>11.614044</ele>
<time>2026-07-15T10:31:35.000Z</time>
</trkpt>
<trkpt lat="57.119835" lon="8.967419">
<ele>11.586309</ele>
<time>2026-07-15T10:31:36.000Z</time>
</trkpt>
<trkpt lat="57.119881" lon="8.967494">
<ele>11.557724</ele>
<time>2026-07-15T10:31:37.000Z</time>
</trkpt>
<trkpt lat="57.119927" lon="8.967571">
<ele>11.528802</ele>
<time>2026-07-15T10:31:38.000Z</time>
</trkpt>
<trkpt lat="57.119973" lon="8.967644">
<ele>11.500550</ele>
<time>2026-07-15T10:31:39.000Z</time>
</trkpt>
<trkpt lat="57.120022" lon="8.967724">
<ele>11.470083</ele>
<time>2026-07-15T10:31:40.000Z</time>
</trkpt>
<trkpt lat="57.120067" lon="8.967794">
<ele>11.442676</ele>
<time>2026-07-15T10:31:41.000Z</time>
</trkpt>
<trkpt lat="57.120112" lon="8.967861">
<ele>11.415752</ele>
<time>2026-07-15T10:31:42.000Z</time>
</trkpt>
<trkpt lat="57.120152" lon="8.967929">
<ele>11.390425</ele>
<time>2026-07-15T10:31:43.000Z</time>
</trkpt>
<trkpt lat="57.120210" lon="8.968015">
<ele>11.355780</ele>
<time>2026-07-15T10:31:44.000Z</time>
</trkpt>
<trkpt lat="57.120255" lon="8.968093">
<ele>11.327095</ele>
<time>2026-07-15T10:31:45.000Z</time>
</trkpt>
<trkpt lat="57.120312" lon="8.968189">
<ele>11.322671</ele>
<time>2026-07-15T10:31:46.000Z</time>
</trkpt>
<trkpt lat="57.120365" lon="8.968278">
<ele>11.318564</ele>
<time>2026-07-15T10:31:47.000Z</time>
</trkpt>
<trkpt lat="57.120430" lon="8.968367">
<ele>11.313926</ele>
<time>2026-07-15T10:31:48.000Z</time>
</trkpt>
<trkpt lat="57.120503" lon="8.968479">
<ele>11.308485</ele>
<time>2026-07-15T10:31:49.000Z</time>
</trkpt>
<trkpt lat="57.120575" lon="8.968590">
<ele>11.303108</ele>
<time>2026-07-15T10:31:50.000Z</time>
</trkpt>
<trkpt lat="57.120635" lon="8.968688">
<ele>11.298515</ele>
<time>2026-07-15T10:31:51.000Z</time>
</trkpt>
<trkpt lat="57.120694" lon="8.968784">
<ele>11.294007</ele>
<time>2026-07-15T10:31:52.000Z</time>
</trkpt>
<trkpt lat="57.120751" lon="8.968876">
<ele>11.289667</ele>
<time>2026-07-15T10:31:53.000Z</time>
</trkpt>
<trkpt lat="57.120800" lon="8.968962">
<ele>11.285790</ele>
<time>2026-07-15T10:31:54.000Z</time>
</trkpt>
<trkpt lat="57.120850" lon="8.969046">
<ele>11.281915</ele>
<time>2026-07-15T10:31:55.000Z</time>
</trkpt>
<trkpt lat="57.120896" lon="8.969121">
<ele>11.278397</ele>
<time>2026-07-15T10:31:56.000Z</time>
</trkpt>
<trkpt lat="57.120942" lon="8.969192">
<ele>11.274960</ele>
<time>2026-07-15T10:31:57.000Z</time>
</trkpt>
<trkpt lat="57.120983" lon="8.969264">
<ele>11.271716</ele>
<time>2026-07-15T10:31:58.000Z</time>
</trkpt>
<trkpt lat="57.121030" lon="8.969335">
<ele>11.268235</ele>
<time>2026-07-15T10:31:59.000Z</time>
</trkpt>
<trkpt lat="57.121075" lon="8.969411">
<ele>11.264738</ele>
<time>2026-07-15T10:32:00.000Z</time>
</trkpt>
<trkpt lat="57.121117" lon="8.969480">
<ele>11.261515</ele>
<time>2026-07-15T10:32:01.000Z</time>
</trkpt>
<trkpt lat="57.121159" lon="8.969546">
<ele>11.258354</ele>
<time>2026-07-15T10:32:02.000Z</time>
</trkpt>
<trkpt lat="57.121192" lon="8.969610">
<ele>11.255609</ele>
<time>2026-07-15T10:32:03.000Z</time>
</trkpt>
<trkpt lat="57.121228" lon="8.969665">
<ele>11.252931</ele>
<time>2026-07-15T10:32:04.000Z</time>
</trkpt>
<trkpt lat="57.121258" lon="8.969702">
<ele>11.250863</ele>
<time>2026-07-15T10:32:05.000Z</time>
</trkpt>
<trkpt lat="57.121293" lon="8.969715">
<ele>11.248818</ele>
<time>2026-07-15T10:32:06.000Z</time>
</trkpt>
<trkpt lat="57.121327" lon="8.969704">
<ele>11.246841</ele>
<time>2026-07-15T10:32:07.000Z</time>
</trkpt>
<trkpt lat="57.121352" lon="8.969674">
<ele>11.245133</ele>
<time>2026-07-15T10:32:08.000Z</time>
</trkpt>
<trkpt lat="57.121376" lon="8.969621">
<ele>11.242987</ele>
<time>2026-07-15T10:32:09.000Z</time>
</trkpt>
<trkpt lat="57.121395" lon="8.969559">
<ele>11.240773</ele>
<time>2026-07-15T10:32:10.000Z</time>
</trkpt>
<trkpt lat="57.121414" lon="8.969498">
<ele>11.238587</ele>
<time>2026-07-15T10:32:11.000Z</time>
</trkpt>
<trkpt lat="57.121437" lon="8.969438">
<ele>11.236303</ele>
<time>2026-07-15T10:32:12.000Z</time>
</trkpt>
<trkpt lat="57.121460" lon="8.969372">
<ele>11.233865</ele>
<time>2026-07-15T10:32:13.000Z</time>
</trkpt>
<trkpt lat="57.121482" lon="8.969304">
<ele>11.231404</ele>
<time>2026-07-15T10:32:14.000Z</time>
</trkpt>
<trkpt lat="57.121506" lon="8.969236">
<ele>11.228882</ele>
<time>2026-07-15T10:32:15.000Z</time>
</trkpt>
<trkpt lat="57.121529" lon="8.969173">
<ele>11.226522</ele>
<time>2026-07-15T10:32:16.000Z</time>
</trkpt>
<trkpt lat="57.121552" lon="8.969106">
<ele>11.224133</ele>
<time>2026-07-15T10:32:17.000Z</time>
</trkpt>
<trkpt lat="57.121574" lon="8.969039">
<ele>11.226595</ele>
<time>2026-07-15T10:32:18.000Z</time>
</trkpt>
<trkpt lat="57.121598" lon="8.968967">
<ele>11.229251</ele>
<time>2026-07-15T10:32:19.000Z</time>
</trkpt>
<trkpt lat="57.121620" lon="8.968901">
<ele>11.231686</ele>
<time>2026-07-15T10:32:20.000Z</time>
</trkpt>
<trkpt lat="57.121643" lon="8.968838">
<ele>11.234073</ele>
<time>2026-07-15T10:32:21.000Z</time>
</trkpt>
<trkpt lat="57.121663" lon="8.968773">
<ele>11.236422</ele>
<time>2026-07-15T10:32:22.000Z</time>
</trkpt>
<trkpt lat="57.121685" lon="8.968706">
<ele>11.238884</ele>
<time>2026-07-15T10:32:23.000Z</time>
</trkpt>
<trkpt lat="57.121700" lon="8.968636">
<ele>11.241250</ele>
<time>2026-07-15T10:32:24.000Z</time>
</trkpt>
<trkpt lat="57.121723" lon="8.968568">
<ele>11.243769</ele>
<time>2026-07-15T10:32:25.000Z</time>
</trkpt>
<trkpt lat="57.121738" lon="8.968504">
<ele>11.245960</ele>
<time>2026-07-15T10:32:26.000Z</time>
</trkpt>
<trkpt lat="57.121762" lon="8.968434">
<ele>11.248563</ele>
<time>2026-07-15T10:32:27.000Z</time>
</trkpt>
<trkpt lat="57.121780" lon="8.968365">
<ele>11.250970</ele>
<time>2026-07-15T10:32:28.000Z</time>
</trkpt>
<trkpt lat="57.121803" lon="8.968297">
<ele>11.253489</ele>
<time>2026-07-15T10:32:29.000Z</time>
</trkpt>
<trkpt lat="57.121826" lon="8.968227">
<ele>11.256061</ele>
<time>2026-07-15T10:32:30.000Z</time>
</trkpt>
<trkpt lat="57.121853" lon="8.968159">
<ele>11.258710</ele>
<time>2026-07-15T10:32:31.000Z</time>
</trkpt>
<trkpt lat="57.121876" lon="8.968096">
<ele>11.261097</ele>
<time>2026-07-15T10:32:32.000Z</time>
</trkpt>
<trkpt lat="57.121899" lon="8.968031">
<ele>11.263536</ele>
<time>2026-07-15T10:32:33.000Z</time>
</trkpt>
<trkpt lat="57.121922" lon="8.967965">
<ele>11.266002</ele>
<time>2026-07-15T10:32:34.000Z</time>
</trkpt>
<trkpt lat="57.121949" lon="8.967898">
<ele>11.268625</ele>
<time>2026-07-15T10:32:35.000Z</time>
</trkpt>
<trkpt lat="57.121975" lon="8.967834">
<ele>11.271138</ele>
<time>2026-07-15T10:32:36.000Z</time>
</trkpt>
<trkpt lat="57.122002" lon="8.967773">
<ele>11.273613</ele>
<time>2026-07-15T10:32:37.000Z</time>
</trkpt>
<trkpt lat="57.122025" lon="8.967713">
<ele>11.275922</ele>
<time>2026-07-15T10:32:38.000Z</time>
</trkpt>
<trkpt lat="57.122051" lon="8.967656">
<ele>11.278262</ele>
<time>2026-07-15T10:32:39.000Z</time>
</trkpt>
<trkpt lat="57.122078" lon="8.967596">
<ele>11.280713</ele>
<time>2026-07-15T10:32:40.000Z</time>
</trkpt>
<trkpt lat="57.122101" lon="8.967533">
<ele>11.283099</ele>
<time>2026-07-15T10:32:41.000Z</time>
</trkpt>
<trkpt lat="57.122128" lon="8.967472">
<ele>11.285574</ele>
<time>2026-07-15T10:32:42.000Z</time>
</trkpt>
<trkpt lat="57.122155" lon="8.967411">
<ele>11.288048</ele>
<time>2026-07-15T10:32:43.000Z</time>
</trkpt>
<trkpt lat="57.122181" lon="8.967345">
<ele>11.290612</ele>
<time>2026-07-15T10:32:44.000Z</time>
</trkpt>
<trkpt lat="57.122208" lon="8.967281">
<ele>11.293160</ele>
<time>2026-07-15T10:32:45.000Z</time>
</trkpt>
<trkpt lat="57.122238" lon="8.967221">
<ele>11.295725</ele>
<time>2026-07-15T10:32:46.000Z</time>
</trkpt>
<trkpt lat="57.122273" lon="8.967162">
<ele>11.298472</ele>
<time>2026-07-15T10:32:47.000Z</time>
</trkpt>
<trkpt lat="57.122303" lon="8.967104">
<ele>11.300991</ele>
<time>2026-07-15T10:32:48.000Z</time>
</trkpt>
<trkpt lat="57.122334" lon="8.967051">
<ele>11.303440</ele>
<time>2026-07-15T10:32:49.000Z</time>
</trkpt>
<trkpt lat="57.122368" lon="8.967004">
<ele>11.305902</ele>
<time>2026-07-15T10:32:50.000Z</time>
</trkpt>
<trkpt lat="57.122409" lon="8.966963">
<ele>11.308604</ele>
<time>2026-07-15T10:32:51.000Z</time>
</trkpt>
<trkpt lat="57.122452" lon="8.966920">
<ele>11.311437</ele>
<time>2026-07-15T10:32:52.000Z</time>
</trkpt>
<trkpt lat="57.122494" lon="8.966875">
<ele>11.314251</ele>
<time>2026-07-15T10:32:53.000Z</time>
</trkpt>
<trkpt lat="57.122543" lon="8.966838">
<ele>11.317318</ele>
<time>2026-07-15T10:32:54.000Z</time>
</trkpt>
<trkpt lat="57.122590" lon="8.966803">
<ele>11.320254</ele>
<time>2026-07-15T10:32:55.000Z</time>
</trkpt>
<trkpt lat="57.122635" lon="8.966773">
<ele>11.323026</ele>
<time>2026-07-15T10:32:56.000Z</time>
</trkpt>
<trkpt lat="57.122677" lon="8.966736">
<ele>11.325722</ele>
<time>2026-07-15T10:32:57.000Z</time>
</trkpt>
<trkpt lat="57.122715" lon="8.966703">
<ele>11.328155</ele>
<time>2026-07-15T10:32:58.000Z</time>
</trkpt>
<trkpt lat="57.122754" lon="8.966668">
<ele>11.338891</ele>
<time>2026-07-15T10:32:59.000Z</time>
</trkpt>
<trkpt lat="57.122792" lon="8.966634">
<ele>11.349698</ele>
<time>2026-07-15T10:33:00.000Z</time>
</trkpt>
<trkpt lat="57.122830" lon="8.966597">
<ele>11.360694</ele>
<time>2026-07-15T10:33:01.000Z</time>
</trkpt>
<trkpt lat="57.122872" lon="8.966565">
<ele>11.372322</ele>
<time>2026-07-15T10:33:02.000Z</time>
</trkpt>
<trkpt lat="57.122908" lon="8.966538">
<ele>11.382266</ele>
<time>2026-07-15T10:33:03.000Z</time>
</trkpt>
<trkpt lat="57.122952" lon="8.966509">
<ele>11.394222</ele>
<time>2026-07-15T10:33:04.000Z</time>
</trkpt>
<trkpt lat="57.122990" lon="8.966480">
<ele>11.404744</ele>
<time>2026-07-15T10:33:05.000Z</time>
</trkpt>
<trkpt lat="57.123028" lon="8.966446">
<ele>11.415552</ele>
<time>2026-07-15T10:33:06.000Z</time>
</trkpt>
<trkpt lat="57.123069" lon="8.966414">
<ele>11.426944</ele>
<time>2026-07-15T10:33:07.000Z</time>
</trkpt>
<trkpt lat="57.123108" lon="8.966378">
<ele>11.438104</ele>
<time>2026-07-15T10:33:08.000Z</time>
</trkpt>
<trkpt lat="57.123141" lon="8.966338">
<ele>11.448210</ele>
<time>2026-07-15T10:33:09.000Z</time>
</trkpt>
<trkpt lat="57.123181" lon="8.966296">
<ele>11.459989</ele>
<time>2026-07-15T10:33:10.000Z</time>
</trkpt>
<trkpt lat="57.123215" lon="8.966250">
<ele>11.470781</ele>
<time>2026-07-15T10:33:11.000Z</time>
</trkpt>
<trkpt lat="57.123249" lon="8.966201">
<ele>11.481825</ele>
<time>2026-07-15T10:33:12.000Z</time>
</trkpt>
<trkpt lat="57.123276" lon="8.966144">
<ele>11.492331</ele>
<time>2026-07-15T10:33:13.000Z</time>
</trkpt>
<trkpt lat="57.123299" lon="8.966085">
<ele>11.502418</ele>
<time>2026-07-15T10:33:14.000Z</time>
</trkpt>
<trkpt lat="57.123321" lon="8.966023">
<ele>11.512705</ele>
<time>2026-07-15T10:33:15.000Z</time>
</trkpt>
<trkpt lat="57.123337" lon="8.965955">
<ele>11.522997</ele>
<time>2026-07-15T10:33:16.000Z</time>
</trkpt>
<trkpt lat="57.123352" lon="8.965887">
<ele>11.533191</ele>
<time>2026-07-15T10:33:17.000Z</time>
</trkpt>
<trkpt lat="57.123364" lon="8.965809">
<ele>11.544450</ele>
<time>2026-07-15T10:33:18.000Z</time>
</trkpt>
<trkpt lat="57.123371" lon="8.965740">
<ele>11.554198</ele>
<time>2026-07-15T10:33:19.000Z</time>
</trkpt>
<trkpt lat="57.123379" lon="8.965659">
<ele>11.565631</ele>
<time>2026-07-15T10:33:20.000Z</time>
</trkpt>
<trkpt lat="57.123390" lon="8.965584">
<ele>11.576420</ele>
<time>2026-07-15T10:33:21.000Z</time>
</trkpt>
<trkpt lat="57.123398" lon="8.965508">
<ele>11.587171</ele>
<time>2026-07-15T10:33:22.000Z</time>
</trkpt>
<trkpt lat="57.123409" lon="8.965432">
<ele>11.598095</ele>
<time>2026-07-15T10:33:23.000Z</time>
</trkpt>
<trkpt lat="57.123421" lon="8.965351">
<ele>11.609755</ele>
<time>2026-07-15T10:33:24.000Z</time>
</trkpt>
<trkpt lat="57.123428" lon="8.965275">
<ele>11.620460</ele>
<time>2026-07-15T10:33:25.000Z</time>
</trkpt>
<trkpt lat="57.123444" lon="8.965197">
<ele>11.632040</ele>
<time>2026-07-15T10:33:26.000Z</time>
</trkpt>
<trkpt lat="57.123459" lon="8.965120">
<ele>11.643401</ele>
<time>2026-07-15T10:33:27.000Z</time>
</trkpt>
<trkpt lat="57.123474" lon="8.965041">
<ele>11.655024</ele>
<time>2026-07-15T10:33:28.000Z</time>
</trkpt>
<trkpt lat="57.123489" lon="8.964970">
<ele>11.665604</ele>
<time>2026-07-15T10:33:29.000Z</time>
</trkpt>
<trkpt lat="57.123508" lon="8.964897">
<ele>11.676847</ele>
<time>2026-07-15T10:33:30.000Z</time>
</trkpt>
<trkpt lat="57.123524" lon="8.964823">
<ele>11.687909</ele>
<time>2026-07-15T10:33:31.000Z</time>
</trkpt>
<trkpt lat="57.123543" lon="8.964749">
<ele>11.699277</ele>
<time>2026-07-15T10:33:32.000Z</time>
</trkpt>
<trkpt lat="57.123562" lon="8.964678">
<ele>11.710270</ele>
<time>2026-07-15T10:33:33.000Z</time>
</trkpt>
<trkpt lat="57.123573" lon="8.964606">
<ele>11.720658</ele>
<time>2026-07-15T10:33:34.000Z</time>
</trkpt>
<trkpt lat="57.123588" lon="8.964533">
<ele>11.731498</ele>
<time>2026-07-15T10:33:35.000Z</time>
</trkpt>
<trkpt lat="57.123600" lon="8.964459">
<ele>11.742223</ele>
<time>2026-07-15T10:33:36.000Z</time>
</trkpt>
<trkpt lat="57.123611" lon="8.964390">
<ele>11.752210</ele>
<time>2026-07-15T10:33:37.000Z</time>
</trkpt>
<trkpt lat="57.123623" lon="8.964317">
<ele>11.762802</ele>
<time>2026-07-15T10:33:38.000Z</time>
</trkpt>
<trkpt lat="57.123630" lon="8.964245">
<ele>11.772960</ele>
<time>2026-07-15T10:33:39.000Z</time>
</trkpt>
<trkpt lat="57.123642" lon="8.964164">
<ele>11.784620</ele>
<time>2026-07-15T10:33:40.000Z</time>
</trkpt>
<trkpt lat="57.123654" lon="8.964088">
<ele>11.792065</ele>
<time>2026-07-15T10:33:41.000Z</time>
</trkpt>
<trkpt lat="57.123665" lon="8.964009">
<ele>11.797809</ele>
<time>2026-07-15T10:33:42.000Z</time>
</trkpt>
<trkpt lat="57.123676" lon="8.963935">
<ele>11.803214</ele>
<time>2026-07-15T10:33:43.000Z</time>
</trkpt>
<trkpt lat="57.123688" lon="8.963857">
<ele>11.808924</ele>
<time>2026-07-15T10:33:44.000Z</time>
</trkpt>
<trkpt lat="57.123699" lon="8.963783">
<ele>11.814329</ele>
<time>2026-07-15T10:33:45.000Z</time>
</trkpt>
<trkpt lat="57.123707" lon="8.963707">
<ele>11.819782</ele>
<time>2026-07-15T10:33:46.000Z</time>
</trkpt>
<trkpt lat="57.123711" lon="8.963631">
<ele>11.825160</ele>
<time>2026-07-15T10:33:47.000Z</time>
</trkpt>
<trkpt lat="57.123718" lon="8.963553">
<ele>11.830729</ele>
<time>2026-07-15T10:33:48.000Z</time>
</trkpt>
<trkpt lat="57.123726" lon="8.963475">
<ele>11.836320</ele>
<time>2026-07-15T10:33:49.000Z</time>
</trkpt>
<trkpt lat="57.123737" lon="8.963394">
<ele>11.842202</ele>
<time>2026-07-15T10:33:50.000Z</time>
</trkpt>
<trkpt lat="57.123745" lon="8.963314">
<ele>11.847932</ele>
<time>2026-07-15T10:33:51.000Z</time>
</trkpt>
<trkpt lat="57.123760" lon="8.963231">
<ele>11.854093</ele>
<time>2026-07-15T10:33:52.000Z</time>
</trkpt>
<trkpt lat="57.123767" lon="8.963154">
<ele>11.859593</ele>
<time>2026-07-15T10:33:53.000Z</time>
</trkpt>
<trkpt lat="57.123776" lon="8.963069">
<ele>11.865693</ele>
<time>2026-07-15T10:33:54.000Z</time>
</trkpt>
<trkpt lat="57.123783" lon="8.962991">
<ele>11.871262</ele>
<time>2026-07-15T10:33:55.000Z</time>
</trkpt>
<trkpt lat="57.123795" lon="8.962912">
<ele>11.877040</ele>
<time>2026-07-15T10:33:56.000Z</time>
</trkpt>
<trkpt lat="57.123806" lon="8.962834">
<ele>11.882717</ele>
<time>2026-07-15T10:33:57.000Z</time>
</trkpt>
<trkpt lat="57.123817" lon="8.962754">
<ele>11.888530</ele>
<time>2026-07-15T10:33:58.000Z</time>
</trkpt>
<trkpt lat="57.123833" lon="8.962674">
<ele>11.894535</ele>
<time>2026-07-15T10:33:59.000Z</time>
</trkpt>
<trkpt lat="57.123844" lon="8.962596">
<ele>11.900211</ele>
<time>2026-07-15T10:34:00.000Z</time>
</trkpt>
<trkpt lat="57.123856" lon="8.962518">
<ele>11.905922</ele>
<time>2026-07-15T10:34:01.000Z</time>
</trkpt>
<trkpt lat="57.123863" lon="8.962439">
<ele>11.911560</ele>
<time>2026-07-15T10:34:02.000Z</time>
</trkpt>
<trkpt lat="57.123875" lon="8.962362">
<ele>11.917203</ele>
<time>2026-07-15T10:34:03.000Z</time>
</trkpt>
<trkpt lat="57.123881" lon="8.962294">
<ele>11.922056</ele>
<time>2026-07-15T10:34:04.000Z</time>
</trkpt>
<trkpt lat="57.123890" lon="8.962204">
<ele>11.928502</ele>
<time>2026-07-15T10:34:05.000Z</time>
</trkpt>
<trkpt lat="57.123901" lon="8.962133">
<ele>11.933703</ele>
<time>2026-07-15T10:34:06.000Z</time>
</trkpt>
<trkpt lat="57.123909" lon="8.962054">
<ele>11.939363</ele>
<time>2026-07-15T10:34:07.000Z</time>
</trkpt>
<trkpt lat="57.123931" lon="8.961987">
<ele>11.944879</ele>
<time>2026-07-15T10:34:08.000Z</time>
</trkpt>
<trkpt lat="57.123943" lon="8.961910">
<ele>11.950522</ele>
<time>2026-07-15T10:34:09.000Z</time>
</trkpt>
<trkpt lat="57.123955" lon="8.961838">
<ele>11.955827</ele>
<time>2026-07-15T10:34:10.000Z</time>
</trkpt>
<trkpt lat="57.123966" lon="8.961763">
<ele>11.961299</ele>
<time>2026-07-15T10:34:11.000Z</time>
</trkpt>
<trkpt lat="57.123978" lon="8.961687">
<ele>11.966874</ele>
<time>2026-07-15T10:34:12.000Z</time>
</trkpt>
<trkpt lat="57.123993" lon="8.961609">
<ele>11.972703</ele>
<time>2026-07-15T10:34:13.000Z</time>
</trkpt>
<trkpt lat="57.124004" lon="8.961537">
<ele>11.977972</ele>
<time>2026-07-15T10:34:14.000Z</time>
</trkpt>
<trkpt lat="57.124016" lon="8.961461">
<ele>11.983547</ele>
<time>2026-07-15T10:34:15.000Z</time>
</trkpt>
<trkpt lat="57.124031" lon="8.961382">
<ele>11.989442</ele>
<time>2026-07-15T10:34:16.000Z</time>
</trkpt>
<trkpt lat="57.124054" lon="8.961311">
<ele>11.995266</ele>
<time>2026-07-15T10:34:17.000Z</time>
</trkpt>
<trkpt lat="57.124073" lon="8.961245">
<ele>12.000528</ele>
<time>2026-07-15T10:34:18.000Z</time>
</trkpt>
<trkpt lat="57.124088" lon="8.961169">
<ele>12.006224</ele>
<time>2026-07-15T10:34:19.000Z</time>
</trkpt>
<trkpt lat="57.124104" lon="8.961094">
<ele>12.011900</ele>
<time>2026-07-15T10:34:20.000Z</time>
</trkpt>
<trkpt lat="57.124119" lon="8.961021">
<ele>12.017398</ele>
<time>2026-07-15T10:34:21.000Z</time>
</trkpt>
<trkpt lat="57.124134" lon="8.960950">
<ele>12.022713</ele>
<time>2026-07-15T10:34:22.000Z</time>
</trkpt>
<trkpt lat="57.124146" lon="8.960873">
<ele>12.028051</ele>
<time>2026-07-15T10:34:23.000Z</time>
</trkpt>
<trkpt lat="57.124161" lon="8.960803">
<ele>12.033066</ele>
<time>2026-07-15T10:34:24.000Z</time>
</trkpt>
<trkpt lat="57.124172" lon="8.960730">
<ele>12.038114</ele>
<time>2026-07-15T10:34:25.000Z</time>
</trkpt>
<trkpt lat="57.124186" lon="8.960664">
<ele>12.042835</ele>
<time>2026-07-15T10:34:26.000Z</time>
</trkpt>
<trkpt lat="57.124203" lon="8.960581">
<ele>12.048746</ele>
<time>2026-07-15T10:34:27.000Z</time>
</trkpt>
<trkpt lat="57.124214" lon="8.960512">
<ele>12.053538</ele>
<time>2026-07-15T10:34:28.000Z</time>
</trkpt>
<trkpt lat="57.124230" lon="8.960436">
<ele>12.058970</ele>
<time>2026-07-15T10:34:29.000Z</time>
</trkpt>
<trkpt lat="57.124240" lon="8.960368">
<ele>12.063664</ele>
<time>2026-07-15T10:34:30.000Z</time>
</trkpt>
<trkpt lat="57.124256" lon="8.960287">
<ele>12.069407</ele>
<time>2026-07-15T10:34:31.000Z</time>
</trkpt>
<trkpt lat="57.124271" lon="8.960217">
<ele>12.074422</ele>
<time>2026-07-15T10:34:32.000Z</time>
</trkpt>
<trkpt lat="57.124283" lon="8.960139">
<ele>12.079824</ele>
<time>2026-07-15T10:34:33.000Z</time>
</trkpt>
<trkpt lat="57.124294" lon="8.960070">
<ele>12.084616</ele>
<time>2026-07-15T10:34:34.000Z</time>
</trkpt>
<trkpt lat="57.124310" lon="8.959996">
<ele>12.089923</ele>
<time>2026-07-15T10:34:35.000Z</time>
</trkpt>
<trkpt lat="57.124317" lon="8.959924">
<ele>12.094797</ele>
<time>2026-07-15T10:34:36.000Z</time>
</trkpt>
<trkpt lat="57.124329" lon="8.959850">
<ele>12.099943</ele>
<time>2026-07-15T10:34:37.000Z</time>
</trkpt>
<trkpt lat="57.124340" lon="8.959778">
<ele>12.104927</ele>
<time>2026-07-15T10:34:38.000Z</time>
</trkpt>
<trkpt lat="57.124348" lon="8.959705">
<ele>12.109889</ele>
<time>2026-07-15T10:34:39.000Z</time>
</trkpt>
<trkpt lat="57.124363" lon="8.959633">
<ele>12.115028</ele>
<time>2026-07-15T10:34:40.000Z</time>
</trkpt>
<trkpt lat="57.124371" lon="8.959565">
<ele>12.119664</ele>
<time>2026-07-15T10:34:41.000Z</time>
</trkpt>
<trkpt lat="57.124382" lon="8.959497">
<ele>12.124392</ele>
<time>2026-07-15T10:34:42.000Z</time>
</trkpt>
<trkpt lat="57.124397" lon="8.959426">
<ele>12.129468</ele>
<time>2026-07-15T10:34:43.000Z</time>
</trkpt>
<trkpt lat="57.124405" lon="8.959355">
<ele>12.134300</ele>
<time>2026-07-15T10:34:44.000Z</time>
</trkpt>
<trkpt lat="57.124420" lon="8.959279">
<ele>12.139688</ele>
<time>2026-07-15T10:34:45.000Z</time>
</trkpt>
<trkpt lat="57.124428" lon="8.959204">
<ele>12.144781</ele>
<time>2026-07-15T10:34:46.000Z</time>
</trkpt>
<trkpt lat="57.124436" lon="8.959133">
<ele>12.149613</ele>
<time>2026-07-15T10:34:47.000Z</time>
</trkpt>
<trkpt lat="57.124447" lon="8.959073">
<ele>12.153833</ele>
<time>2026-07-15T10:34:48.000Z</time>
</trkpt>
<trkpt lat="57.124455" lon="8.959012">
<ele>12.158014</ele>
<time>2026-07-15T10:34:49.000Z</time>
</trkpt>
<trkpt lat="57.124462" lon="8.958952">
<ele>12.162104</ele>
<time>2026-07-15T10:34:50.000Z</time>
</trkpt>
<trkpt lat="57.124474" lon="8.958882">
<ele>12.166995</ele>
<time>2026-07-15T10:34:51.000Z</time>
</trkpt>
<trkpt lat="57.124485" lon="8.958813">
<ele>12.171787</ele>
<time>2026-07-15T10:34:52.000Z</time>
</trkpt>
<trkpt lat="57.124497" lon="8.958744">
<ele>12.176614</ele>
<time>2026-07-15T10:34:53.000Z</time>
</trkpt>
<trkpt lat="57.124507" lon="8.958695">
<ele>12.180102</ele>
<time>2026-07-15T10:34:54.000Z</time>
</trkpt>
<trkpt lat="57.124519" lon="8.958639">
<ele>12.184114</ele>
<time>2026-07-15T10:34:55.000Z</time>
</trkpt>
<trkpt lat="57.124529" lon="8.958589">
<ele>12.187664</ele>
<time>2026-07-15T10:34:56.000Z</time>
</trkpt>
<trkpt lat="57.124542" lon="8.958517">
<ele>12.192720</ele>
<time>2026-07-15T10:34:57.000Z</time>
</trkpt>
<trkpt lat="57.124554" lon="8.958454">
<ele>12.197169</ele>
<time>2026-07-15T10:34:58.000Z</time>
</trkpt>
<trkpt lat="57.124565" lon="8.958383">
<ele>12.202089</ele>
<time>2026-07-15T10:34:59.000Z</time>
</trkpt>
<trkpt lat="57.124572" lon="8.958316">
<ele>12.206635</ele>
<time>2026-07-15T10:35:00.000Z</time>
</trkpt>
<trkpt lat="57.124577" lon="8.958225">
<ele>12.212729</ele>
<time>2026-07-15T10:35:01.000Z</time>
</trkpt>
<trkpt lat="57.124580" lon="8.958154">
<ele>12.217475</ele>
<time>2026-07-15T10:35:02.000Z</time>
</trkpt>
<trkpt lat="57.124581" lon="8.958079">
<ele>12.222473</ele>
<time>2026-07-15T10:35:03.000Z</time>
</trkpt>
<trkpt lat="57.124592" lon="8.958005">
<ele>12.227586</ele>
<time>2026-07-15T10:35:04.000Z</time>
</trkpt>
<trkpt lat="57.124603" lon="8.957933">
<ele>12.232570</ele>
<time>2026-07-15T10:35:05.000Z</time>
</trkpt>
<trkpt lat="57.124622" lon="8.957875">
<ele>12.237083</ele>
<time>2026-07-15T10:35:06.000Z</time>
</trkpt>
<trkpt lat="57.124646" lon="8.957833">
<ele>12.241147</ele>
<time>2026-07-15T10:35:07.000Z</time>
</trkpt>
<trkpt lat="57.124675" lon="8.957812">
<ele>12.240851</ele>
<time>2026-07-15T10:35:08.000Z</time>
</trkpt>
<trkpt lat="57.124710" lon="8.957815">
<ele>12.237696</ele>
<time>2026-07-15T10:35:09.000Z</time>
</trkpt>
<trkpt lat="57.124748" lon="8.957831">
<ele>12.234186</ele>
<time>2026-07-15T10:35:10.000Z</time>
</trkpt>
<trkpt lat="57.124791" lon="8.957858">
<ele>12.230095</ele>
<time>2026-07-15T10:35:11.000Z</time>
</trkpt>
<trkpt lat="57.124821" lon="8.957887">
<ele>12.227044</ele>
<time>2026-07-15T10:35:12.000Z</time>
</trkpt>
<trkpt lat="57.124855" lon="8.957914">
<ele>12.223710</ele>
<time>2026-07-15T10:35:13.000Z</time>
</trkpt>
<trkpt lat="57.124893" lon="8.957942">
<ele>12.220024</ele>
<time>2026-07-15T10:35:14.000Z</time>
</trkpt>
<trkpt lat="57.124928" lon="8.957969">
<ele>12.216607</ele>
<time>2026-07-15T10:35:15.000Z</time>
</trkpt>
<trkpt lat="57.124966" lon="8.957994">
<ele>12.212974</ele>
<time>2026-07-15T10:35:16.000Z</time>
</trkpt>
<trkpt lat="57.125000" lon="8.958014">
<ele>12.209760</ele>
<time>2026-07-15T10:35:17.000Z</time>
</trkpt>
<trkpt lat="57.125034" lon="8.958033">
<ele>12.206560</ele>
<time>2026-07-15T10:35:18.000Z</time>
</trkpt>
<trkpt lat="57.125073" lon="8.958057">
<ele>12.202857</ele>
<time>2026-07-15T10:35:19.000Z</time>
</trkpt>
<trkpt lat="57.125107" lon="8.958079">
<ele>12.199612</ele>
<time>2026-07-15T10:35:20.000Z</time>
</trkpt>
<trkpt lat="57.125138" lon="8.958099">
<ele>12.196654</ele>
<time>2026-07-15T10:35:21.000Z</time>
</trkpt>
<trkpt lat="57.125167" lon="8.958120">
<ele>12.193848</ele>
<time>2026-07-15T10:35:22.000Z</time>
</trkpt>
<trkpt lat="57.125206" lon="8.958157">
<ele>12.189898</ele>
<time>2026-07-15T10:35:23.000Z</time>
</trkpt>
<trkpt lat="57.125245" lon="8.958192">
<ele>12.185991</ele>
<time>2026-07-15T10:35:24.000Z</time>
</trkpt>
<trkpt lat="57.125290" lon="8.958224">
<ele>12.181647</ele>
<time>2026-07-15T10:35:25.000Z</time>
</trkpt>
<trkpt lat="57.125332" lon="8.958246">
<ele>12.177715</ele>
<time>2026-07-15T10:35:26.000Z</time>
</trkpt>
<trkpt lat="57.125371" lon="8.958268">
<ele>12.174042</ele>
<time>2026-07-15T10:35:27.000Z</time>
</trkpt>
<trkpt lat="57.125401" lon="8.958292">
<ele>12.171097</ele>
<time>2026-07-15T10:35:28.000Z</time>
</trkpt>
<trkpt lat="57.125430" lon="8.958318">
<ele>12.168193</ele>
<time>2026-07-15T10:35:29.000Z</time>
</trkpt>
<trkpt lat="57.125466" lon="8.958349">
<ele>12.164614</ele>
<time>2026-07-15T10:35:30.000Z</time>
</trkpt>
<trkpt lat="57.125500" lon="8.958380">
<ele>12.161198</ele>
<time>2026-07-15T10:35:31.000Z</time>
</trkpt>
<trkpt lat="57.125533" lon="8.958404">
<ele>12.158003</ele>
<time>2026-07-15T10:35:32.000Z</time>
</trkpt>
<trkpt lat="57.125569" lon="8.958431">
<ele>12.154503</ele>
<time>2026-07-15T10:35:33.000Z</time>
</trkpt>
<trkpt lat="57.125594" lon="8.958444">
<ele>12.152163</ele>
<time>2026-07-15T10:35:34.000Z</time>
</trkpt>
<trkpt lat="57.125626" lon="8.958464">
<ele>12.149120</ele>
<time>2026-07-15T10:35:35.000Z</time>
</trkpt>
<trkpt lat="57.125648" lon="8.958480">
<ele>12.146991</ele>
<time>2026-07-15T10:35:36.000Z</time>
</trkpt>
<trkpt lat="57.125675" lon="8.958500">
<ele>12.144370</ele>
<time>2026-07-15T10:35:37.000Z</time>
</trkpt>
<trkpt lat="57.125701" lon="8.958519">
<ele>12.141851</ele>
<time>2026-07-15T10:35:38.000Z</time>
</trkpt>
<trkpt lat="57.125733" lon="8.958540">
<ele>12.138792</ele>
<time>2026-07-15T10:35:39.000Z</time>
</trkpt>
<trkpt lat="57.125767" lon="8.958564">
<ele>12.135513</ele>
<time>2026-07-15T10:35:40.000Z</time>
</trkpt>
<trkpt lat="57.125798" lon="8.958590">
<ele>12.132446</ele>
<time>2026-07-15T10:35:41.000Z</time>
</trkpt>
<trkpt lat="57.125824" lon="8.958618">
<ele>12.129734</ele>
<time>2026-07-15T10:35:42.000Z</time>
</trkpt>
<trkpt lat="57.125851" lon="8.958642">
<ele>12.127034</ele>
<time>2026-07-15T10:35:43.000Z</time>
</trkpt>
<trkpt lat="57.125876" lon="8.958661">
<ele>12.124599</ele>
<time>2026-07-15T10:35:44.000Z</time>
</trkpt>
<trkpt lat="57.125905" lon="8.958687">
<ele>12.121695</ele>
<time>2026-07-15T10:35:45.000Z</time>
</trkpt>
<trkpt lat="57.125939" lon="8.958716">
<ele>12.118321</ele>
<time>2026-07-15T10:35:46.000Z</time>
</trkpt>
<trkpt lat="57.125973" lon="8.958754">
<ele>12.114739</ele>
<time>2026-07-15T10:35:47.000Z</time>
</trkpt>
<trkpt lat="57.125998" lon="8.958782">
<ele>12.112105</ele>
<time>2026-07-15T10:35:48.000Z</time>
</trkpt>
<trkpt lat="57.126030" lon="8.958808">
<ele>12.108955</ele>
<time>2026-07-15T10:35:49.000Z</time>
</trkpt>
<trkpt lat="57.126061" lon="8.958832">
<ele>12.105927</ele>
<time>2026-07-15T10:35:50.000Z</time>
</trkpt>
<trkpt lat="57.126087" lon="8.958858">
<ele>12.103263</ele>
<time>2026-07-15T10:35:51.000Z</time>
</trkpt>
<trkpt lat="57.126113" lon="8.958887">
<ele>12.100526</ele>
<time>2026-07-15T10:35:52.000Z</time>
</trkpt>
<trkpt lat="57.126141" lon="8.958908">
<ele>12.097804</ele>
<time>2026-07-15T10:35:53.000Z</time>
</trkpt>
<trkpt lat="57.126174" lon="8.958921">
<ele>12.094765</ele>
<time>2026-07-15T10:35:54.000Z</time>
</trkpt>
<trkpt lat="57.126209" lon="8.958942">
<ele>12.091450</ele>
<time>2026-07-15T10:35:55.000Z</time>
</trkpt>
<trkpt lat="57.126239" lon="8.958959">
<ele>12.088623</ele>
<time>2026-07-15T10:35:56.000Z</time>
</trkpt>
<trkpt lat="57.126267" lon="8.958982">
<ele>12.085863</ele>
<time>2026-07-15T10:35:57.000Z</time>
</trkpt>
<trkpt lat="57.126301" lon="8.959008">
<ele>12.082548</ele>
<time>2026-07-15T10:35:58.000Z</time>
</trkpt>
<trkpt lat="57.126347" lon="8.959044">
<ele>12.074629</ele>
<time>2026-07-15T10:35:59.000Z</time>
</trkpt>
<trkpt lat="57.126408" lon="8.959091">
<ele>12.060774</ele>
<time>2026-07-15T10:36:00.000Z</time>
</trkpt>
<trkpt lat="57.126446" lon="8.959120">
<ele>12.052155</ele>
<time>2026-07-15T10:36:01.000Z</time>
</trkpt>
<trkpt lat="57.126485" lon="8.959147">
<ele>12.043424</ele>
<time>2026-07-15T10:36:02.000Z</time>
</trkpt>
<trkpt lat="57.126522" lon="8.959178">
<ele>12.034907</ele>
<time>2026-07-15T10:36:03.000Z</time>
</trkpt>
<trkpt lat="57.126561" lon="8.959205">
<ele>12.026177</ele>
<time>2026-07-15T10:36:04.000Z</time>
</trkpt>
<trkpt lat="57.126617" lon="8.959250">
<ele>12.013374</ele>
<time>2026-07-15T10:36:05.000Z</time>
</trkpt>
<trkpt lat="57.126682" lon="8.959306">
<ele>11.998338</ele>
<time>2026-07-15T10:36:06.000Z</time>
</trkpt>
<trkpt lat="57.126745" lon="8.959360">
<ele>11.983777</ele>
<time>2026-07-15T10:36:07.000Z</time>
</trkpt>
<trkpt lat="57.126794" lon="8.959403">
<ele>11.972404</ele>
<time>2026-07-15T10:36:08.000Z</time>
</trkpt>
<trkpt lat="57.126833" lon="8.959443">
<ele>11.963050</ele>
<time>2026-07-15T10:36:09.000Z</time>
</trkpt>
<trkpt lat="57.126866" lon="8.959479">
<ele>11.955014</ele>
<time>2026-07-15T10:36:10.000Z</time>
</trkpt>
<trkpt lat="57.126903" lon="8.959512">
<ele>11.946400</ele>
<time>2026-07-15T10:36:11.000Z</time>
</trkpt>
<trkpt lat="57.126942" lon="8.959550">
<ele>11.937155</ele>
<time>2026-07-15T10:36:12.000Z</time>
</trkpt>
<trkpt lat="57.126972" lon="8.959576">
<ele>11.930207</ele>
<time>2026-07-15T10:36:13.000Z</time>
</trkpt>
<trkpt lat="57.127007" lon="8.959609">
<ele>11.921968</ele>
<time>2026-07-15T10:36:14.000Z</time>
</trkpt>
<trkpt lat="57.127051" lon="8.959642">
<ele>11.912014</ele>
<time>2026-07-15T10:36:15.000Z</time>
</trkpt>
<trkpt lat="57.127091" lon="8.959673">
<ele>11.902920</ele>
<time>2026-07-15T10:36:16.000Z</time>
</trkpt>
<trkpt lat="57.127125" lon="8.959700">
<ele>11.895162</ele>
<time>2026-07-15T10:36:17.000Z</time>
</trkpt>
<trkpt lat="57.127155" lon="8.959721">
<ele>11.888437</ele>
<time>2026-07-15T10:36:18.000Z</time>
</trkpt>
<trkpt lat="57.127194" lon="8.959753">
<ele>11.879490</ele>
<time>2026-07-15T10:36:19.000Z</time>
</trkpt>
<trkpt lat="57.127231" lon="8.959785">
<ele>11.870925</ele>
<time>2026-07-15T10:36:20.000Z</time>
</trkpt>
<trkpt lat="57.127263" lon="8.959811">
<ele>11.863597</ele>
<time>2026-07-15T10:36:21.000Z</time>
</trkpt>
<trkpt lat="57.127299" lon="8.959837">
<ele>11.855494</ele>
<time>2026-07-15T10:36:22.000Z</time>
</trkpt>
<trkpt lat="57.127354" lon="8.959871">
<ele>11.843337</ele>
<time>2026-07-15T10:36:23.000Z</time>
</trkpt>
<trkpt lat="57.127402" lon="8.959903">
<ele>11.832640</ele>
<time>2026-07-15T10:36:24.000Z</time>
</trkpt>
<trkpt lat="57.127442" lon="8.959932">
<ele>11.823633</ele>
<time>2026-07-15T10:36:25.000Z</time>
</trkpt>
<trkpt lat="57.127480" lon="8.959958">
<ele>11.815139</ele>
<time>2026-07-15T10:36:26.000Z</time>
</trkpt>
<trkpt lat="57.127518" lon="8.959992">
<ele>11.806286</ele>
<time>2026-07-15T10:36:27.000Z</time>
</trkpt>
<trkpt lat="57.127552" lon="8.960020">
<ele>11.798482</ele>
<time>2026-07-15T10:36:28.000Z</time>
</trkpt>
<trkpt lat="57.127589" lon="8.960048">
<ele>11.790100</ele>
<time>2026-07-15T10:36:29.000Z</time>
</trkpt>
<trkpt lat="57.127629" lon="8.960074">
<ele>11.781212</ele>
<time>2026-07-15T10:36:30.000Z</time>
</trkpt>
<trkpt lat="57.127659" lon="8.960092">
<ele>11.774600</ele>
<time>2026-07-15T10:36:31.000Z</time>
</trkpt>
<trkpt lat="57.127697" lon="8.960110">
<ele>11.766379</ele>
<time>2026-07-15T10:36:32.000Z</time>
</trkpt>
<trkpt lat="57.127735" lon="8.960129">
<ele>11.758128</ele>
<time>2026-07-15T10:36:33.000Z</time>
</trkpt>
<trkpt lat="57.127766" lon="8.960150">
<ele>11.751206</ele>
<time>2026-07-15T10:36:34.000Z</time>
</trkpt>
<trkpt lat="57.127797" lon="8.960174">
<ele>11.744160</ele>
<time>2026-07-15T10:36:35.000Z</time>
</trkpt>
<trkpt lat="57.127831" lon="8.960194">
<ele>11.736681</ele>
<time>2026-07-15T10:36:36.000Z</time>
</trkpt>
<trkpt lat="57.127873" lon="8.960224">
<ele>11.727242</ele>
<time>2026-07-15T10:36:37.000Z</time>
</trkpt>
<trkpt lat="57.127934" lon="8.960272">
<ele>11.713342</ele>
<time>2026-07-15T10:36:38.000Z</time>
</trkpt>
<trkpt lat="57.127982" lon="8.960311">
<ele>11.705679</ele>
<time>2026-07-15T10:36:39.000Z</time>
</trkpt>
<trkpt lat="57.128037" lon="8.960355">
<ele>11.723723</ele>
<time>2026-07-15T10:36:40.000Z</time>
</trkpt>
<trkpt lat="57.128082" lon="8.960382">
<ele>11.737964</ele>
<time>2026-07-15T10:36:41.000Z</time>
</trkpt>
<trkpt lat="57.128120" lon="8.960403">
<ele>11.749903</ele>
<time>2026-07-15T10:36:42.000Z</time>
</trkpt>
<trkpt lat="57.128163" lon="8.960435">
<ele>11.763858</ele>
<time>2026-07-15T10:36:43.000Z</time>
</trkpt>
<trkpt lat="57.128214" lon="8.960480">
<ele>11.780874</ele>
<time>2026-07-15T10:36:44.000Z</time>
</trkpt>
<trkpt lat="57.128255" lon="8.960518">
<ele>11.794685</ele>
<time>2026-07-15T10:36:45.000Z</time>
</trkpt>
<trkpt lat="57.128304" lon="8.960571">
<ele>11.811783</ele>
<time>2026-07-15T10:36:46.000Z</time>
</trkpt>
<trkpt lat="57.128349" lon="8.960617">
<ele>11.827269</ele>
<time>2026-07-15T10:36:47.000Z</time>
</trkpt>
<trkpt lat="57.128391" lon="8.960655">
<ele>11.841349</ele>
<time>2026-07-15T10:36:48.000Z</time>
</trkpt>
<trkpt lat="57.128436" lon="8.960691">
<ele>11.856112</ele>
<time>2026-07-15T10:36:49.000Z</time>
</trkpt>
<trkpt lat="57.128476" lon="8.960727">
<ele>11.869508</ele>
<time>2026-07-15T10:36:50.000Z</time>
</trkpt>
<trkpt lat="57.128517" lon="8.960763">
<ele>11.883175</ele>
<time>2026-07-15T10:36:51.000Z</time>
</trkpt>
<trkpt lat="57.128550" lon="8.960794">
<ele>11.894322</ele>
<time>2026-07-15T10:36:52.000Z</time>
</trkpt>
<trkpt lat="57.128594" lon="8.960832">
<ele>11.908945</ele>
<time>2026-07-15T10:36:53.000Z</time>
</trkpt>
<trkpt lat="57.128630" lon="8.960866">
<ele>11.921118</ele>
<time>2026-07-15T10:36:54.000Z</time>
</trkpt>
<trkpt lat="57.128677" lon="8.960908">
<ele>11.936837</ele>
<time>2026-07-15T10:36:55.000Z</time>
</trkpt>
<trkpt lat="57.128715" lon="8.960943">
<ele>11.949622</ele>
<time>2026-07-15T10:36:56.000Z</time>
</trkpt>
<trkpt lat="57.128754" lon="8.960981">
<ele>11.962897</ele>
<time>2026-07-15T10:36:57.000Z</time>
</trkpt>
<trkpt lat="57.128788" lon="8.961010">
<ele>11.974172</ele>
<time>2026-07-15T10:36:58.000Z</time>
</trkpt>
<trkpt lat="57.128818" lon="8.961037">
<ele>11.984219</ele>
<time>2026-07-15T10:36:59.000Z</time>
</trkpt>
<trkpt lat="57.128852" lon="8.961061">
<ele>11.995175</ele>
<time>2026-07-15T10:37:00.000Z</time>
</trkpt>
<trkpt lat="57.128888" lon="8.961090">
<ele>12.006999</ele>
<time>2026-07-15T10:37:01.000Z</time>
</trkpt>
<trkpt lat="57.128918" lon="8.961117">
<ele>12.017046</ele>
<time>2026-07-15T10:37:02.000Z</time>
</trkpt>
<trkpt lat="57.128949" lon="8.961142">
<ele>12.027229</ele>
<time>2026-07-15T10:37:03.000Z</time>
</trkpt>
<trkpt lat="57.128980" lon="8.961168">
<ele>12.037478</ele>
<time>2026-07-15T10:37:04.000Z</time>
</trkpt>
<trkpt lat="57.129013" lon="8.961197">
<ele>12.048480</ele>
<time>2026-07-15T10:37:05.000Z</time>
</trkpt>
<trkpt lat="57.129042" lon="8.961220">
<ele>12.057981</ele>
<time>2026-07-15T10:37:06.000Z</time>
</trkpt>
<trkpt lat="57.129082" lon="8.961255">
<ele>12.071306</ele>
<time>2026-07-15T10:37:07.000Z</time>
</trkpt>
<trkpt lat="57.129116" lon="8.961283">
<ele>12.082513</ele>
<time>2026-07-15T10:37:08.000Z</time>
</trkpt>
<trkpt lat="57.129162" lon="8.961325">
<ele>12.097962</ele>
<time>2026-07-15T10:37:09.000Z</time>
</trkpt>
<trkpt lat="57.129201" lon="8.961364">
<ele>12.111315</ele>
<time>2026-07-15T10:37:10.000Z</time>
</trkpt>
<trkpt lat="57.129238" lon="8.961402">
<ele>12.124062</ele>
<time>2026-07-15T10:37:11.000Z</time>
</trkpt>
<trkpt lat="57.129280" lon="8.961438">
<ele>12.138001</ele>
<time>2026-07-15T10:37:12.000Z</time>
</trkpt>
<trkpt lat="57.129319" lon="8.961477">
<ele>12.151354</ele>
<time>2026-07-15T10:37:13.000Z</time>
</trkpt>
<trkpt lat="57.129361" lon="8.961519">
<ele>12.165734</ele>
<time>2026-07-15T10:37:14.000Z</time>
</trkpt>
<trkpt lat="57.129398" lon="8.961557">
<ele>12.178481</ele>
<time>2026-07-15T10:37:15.000Z</time>
</trkpt>
<trkpt lat="57.129437" lon="8.961587">
<ele>12.191199</ele>
<time>2026-07-15T10:37:16.000Z</time>
</trkpt>
<trkpt lat="57.129474" lon="8.961620">
<ele>12.203569</ele>
<time>2026-07-15T10:37:17.000Z</time>
</trkpt>
<trkpt lat="57.129513" lon="8.961657">
<ele>12.216769</ele>
<time>2026-07-15T10:37:18.000Z</time>
</trkpt>
<trkpt lat="57.129551" lon="8.961690">
<ele>12.229411</ele>
<time>2026-07-15T10:37:19.000Z</time>
</trkpt>
<trkpt lat="57.129593" lon="8.961724">
<ele>12.243215</ele>
<time>2026-07-15T10:37:20.000Z</time>
</trkpt>
<trkpt lat="57.129631" lon="8.961752">
<ele>12.239140</ele>
<time>2026-07-15T10:37:21.000Z</time>
</trkpt>
<trkpt lat="57.129670" lon="8.961780">
<ele>12.232199</ele>
<time>2026-07-15T10:37:22.000Z</time>
</trkpt>
<trkpt lat="57.129705" lon="8.961810">
<ele>12.225797</ele>
<time>2026-07-15T10:37:23.000Z</time>
</trkpt>
<trkpt lat="57.129746" lon="8.961846">
<ele>12.218265</ele>
<time>2026-07-15T10:37:24.000Z</time>
</trkpt>
<trkpt lat="57.129782" lon="8.961874">
<ele>12.211784</ele>
<time>2026-07-15T10:37:25.000Z</time>
</trkpt>
<trkpt lat="57.129822" lon="8.961904">
<ele>12.204622</ele>
<time>2026-07-15T10:37:26.000Z</time>
</trkpt>
<trkpt lat="57.129855" lon="8.961930">
<ele>12.198670</ele>
<time>2026-07-15T10:37:27.000Z</time>
</trkpt>
<trkpt lat="57.129891" lon="8.961960">
<ele>12.192117</ele>
<time>2026-07-15T10:37:28.000Z</time>
</trkpt>
<trkpt lat="57.129923" lon="8.961979">
<ele>12.186541</ele>
<time>2026-07-15T10:37:29.000Z</time>
</trkpt>
<trkpt lat="57.129956" lon="8.962002">
<ele>12.180690</ele>
<time>2026-07-15T10:37:30.000Z</time>
</trkpt>
<trkpt lat="57.129990" lon="8.962024">
<ele>12.174714</ele>
<time>2026-07-15T10:37:31.000Z</time>
</trkpt>
<trkpt lat="57.130020" lon="8.962047">
<ele>12.169325</ele>
<time>2026-07-15T10:37:32.000Z</time>
</trkpt>
<trkpt lat="57.130047" lon="8.962069">
<ele>12.164429</ele>
<time>2026-07-15T10:37:33.000Z</time>
</trkpt>
<trkpt lat="57.130078" lon="8.962094">
<ele>12.158817</ele>
<time>2026-07-15T10:37:34.000Z</time>
</trkpt>
<trkpt lat="57.130111" lon="8.962124">
<ele>12.152714</ele>
<time>2026-07-15T10:37:35.000Z</time>
</trkpt>
<trkpt lat="57.130146" lon="8.962156">
<ele>12.146234</ele>
<time>2026-07-15T10:37:36.000Z</time>
</trkpt>
<trkpt lat="57.130176" lon="8.962189">
<ele>12.140440</ele>
<time>2026-07-15T10:37:37.000Z</time>
</trkpt>
<trkpt lat="57.130215" lon="8.962217">
<ele>12.133498</ele>
<time>2026-07-15T10:37:38.000Z</time>
</trkpt>
<trkpt lat="57.130249" lon="8.962242">
<ele>12.127427</ele>
<time>2026-07-15T10:37:39.000Z</time>
</trkpt>
<trkpt lat="57.130279" lon="8.962265">
<ele>12.122038</ele>
<time>2026-07-15T10:37:40.000Z</time>
</trkpt>
<trkpt lat="57.130310" lon="8.962285">
<ele>12.116591</ele>
<time>2026-07-15T10:37:41.000Z</time>
</trkpt>
<trkpt lat="57.130345" lon="8.962306">
<ele>12.110486</ele>
<time>2026-07-15T10:37:42.000Z</time>
</trkpt>
<trkpt lat="57.130379" lon="8.962334">
<ele>12.104310</ele>
<time>2026-07-15T10:37:43.000Z</time>
</trkpt>
<trkpt lat="57.130413" lon="8.962362">
<ele>12.098134</ele>
<time>2026-07-15T10:37:44.000Z</time>
</trkpt>
<trkpt lat="57.130444" lon="8.962383">
<ele>12.092656</ele>
<time>2026-07-15T10:37:45.000Z</time>
</trkpt>
<trkpt lat="57.130463" lon="8.962399">
<ele>12.089192</ele>
<time>2026-07-15T10:37:46.000Z</time>
</trkpt>
<trkpt lat="57.130489" lon="8.962417">
<ele>12.084585</ele>
<time>2026-07-15T10:37:47.000Z</time>
</trkpt>
<trkpt lat="57.130513" lon="8.962437">
<ele>12.080217</ele>
<time>2026-07-15T10:37:48.000Z</time>
</trkpt>
<trkpt lat="57.130536" lon="8.962455">
<ele>12.076073</ele>
<time>2026-07-15T10:37:49.000Z</time>
</trkpt>
<trkpt lat="57.130562" lon="8.962473">
<ele>12.071466</ele>
<time>2026-07-15T10:37:50.000Z</time>
</trkpt>
<trkpt lat="57.130588" lon="8.962495">
<ele>12.066722</ele>
<time>2026-07-15T10:37:51.000Z</time>
</trkpt>
<trkpt lat="57.130616" lon="8.962515">
<ele>12.061741</ele>
<time>2026-07-15T10:37:52.000Z</time>
</trkpt>
<trkpt lat="57.130646" lon="8.962540">
<ele>12.056281</ele>
<time>2026-07-15T10:37:53.000Z</time>
</trkpt>
<trkpt lat="57.130673" lon="8.962564">
<ele>12.051309</ele>
<time>2026-07-15T10:37:54.000Z</time>
</trkpt>
<trkpt lat="57.130701" lon="8.962584">
<ele>12.046329</ele>
<time>2026-07-15T10:37:55.000Z</time>
</trkpt>
<trkpt lat="57.130726" lon="8.962604">
<ele>12.041809</ele>
<time>2026-07-15T10:37:56.000Z</time>
</trkpt>
<trkpt lat="57.130745" lon="8.962613">
<ele>12.038555</ele>
<time>2026-07-15T10:37:57.000Z</time>
</trkpt>
<trkpt lat="57.130771" lon="8.962630">
<ele>12.033980</ele>
<time>2026-07-15T10:37:58.000Z</time>
</trkpt>
<trkpt lat="57.130796" lon="8.962649">
<ele>12.029495</ele>
<time>2026-07-15T10:37:59.000Z</time>
</trkpt>
<trkpt lat="57.130829" lon="8.962669">
<ele>12.023734</ele>
<time>2026-07-15T10:38:00.000Z</time>
</trkpt>
<trkpt lat="57.130850" lon="8.962685">
<ele>12.019965</ele>
<time>2026-07-15T10:38:01.000Z</time>
</trkpt>
<trkpt lat="57.130906" lon="8.962736">
<ele>12.009605</ele>
<time>2026-07-15T10:38:02.000Z</time>
</trkpt>
<trkpt lat="57.130959" lon="8.962790">
<ele>11.999561</ele>
<time>2026-07-15T10:38:03.000Z</time>
</trkpt>
<trkpt lat="57.131008" lon="8.962835">
<ele>11.990481</ele>
<time>2026-07-15T10:38:04.000Z</time>
</trkpt>
<trkpt lat="57.131049" lon="8.962872">
<ele>11.982910</ele>
<time>2026-07-15T10:38:05.000Z</time>
</trkpt>
<trkpt lat="57.131099" lon="8.962916">
<ele>11.973721</ele>
<time>2026-07-15T10:38:06.000Z</time>
</trkpt>
<trkpt lat="57.131137" lon="8.962955">
<ele>11.966507</ele>
<time>2026-07-15T10:38:07.000Z</time>
</trkpt>
<trkpt lat="57.131172" lon="8.962987">
<ele>11.960027</ele>
<time>2026-07-15T10:38:08.000Z</time>
</trkpt>
<trkpt lat="57.131207" lon="8.963022">
<ele>11.953423</ele>
<time>2026-07-15T10:38:09.000Z</time>
</trkpt>
<trkpt lat="57.131252" lon="8.963060">
<ele>11.947955</ele>
<time>2026-07-15T10:38:10.000Z</time>
</trkpt>
<trkpt lat="57.131293" lon="8.963093">
<ele>11.954502</ele>
<time>2026-07-15T10:38:11.000Z</time>
</trkpt>
<trkpt lat="57.131336" lon="8.963125">
<ele>11.961289</ele>
<time>2026-07-15T10:38:12.000Z</time>
</trkpt>
<trkpt lat="57.131375" lon="8.963160">
<ele>11.967637</ele>
<time>2026-07-15T10:38:13.000Z</time>
</trkpt>
<trkpt lat="57.131415" lon="8.963191">
<ele>11.973986</ele>
<time>2026-07-15T10:38:14.000Z</time>
</trkpt>
<trkpt lat="57.131458" lon="8.963225">
<ele>11.980834</ele>
<time>2026-07-15T10:38:15.000Z</time>
</trkpt>
<trkpt lat="57.131503" lon="8.963259">
<ele>11.987951</ele>
<time>2026-07-15T10:38:16.000Z</time>
</trkpt>
<trkpt lat="57.131542" lon="8.963286">
<ele>11.994047</ele>
<time>2026-07-15T10:38:17.000Z</time>
</trkpt>
<trkpt lat="57.131585" lon="8.963320">
<ele>12.000894</ele>
<time>2026-07-15T10:38:18.000Z</time>
</trkpt>
<trkpt lat="57.131618" lon="8.963353">
<ele>12.006389</ele>
<time>2026-07-15T10:38:19.000Z</time>
</trkpt>
<trkpt lat="57.131657" lon="8.963389">
<ele>12.012772</ele>
<time>2026-07-15T10:38:20.000Z</time>
</trkpt>
<trkpt lat="57.131689" lon="8.963420">
<ele>12.018062</ele>
<time>2026-07-15T10:38:21.000Z</time>
</trkpt>
<trkpt lat="57.131722" lon="8.963449">
<ele>12.023412</ele>
<time>2026-07-15T10:38:22.000Z</time>
</trkpt>
<trkpt lat="57.131761" lon="8.963475">
<ele>12.029481</ele>
<time>2026-07-15T10:38:23.000Z</time>
</trkpt>
<trkpt lat="57.131802" lon="8.963505">
<ele>12.035937</ele>
<time>2026-07-15T10:38:24.000Z</time>
</trkpt>
<trkpt lat="57.131833" lon="8.963533">
<ele>12.040989</ele>
<time>2026-07-15T10:38:25.000Z</time>
</trkpt>
<trkpt lat="57.131875" lon="8.963565">
<ele>12.047639</ele>
<time>2026-07-15T10:38:26.000Z</time>
</trkpt>
<trkpt lat="57.131911" lon="8.963590">
<ele>12.053269</ele>
<time>2026-07-15T10:38:27.000Z</time>
</trkpt>
<trkpt lat="57.131955" lon="8.963625">
<ele>12.060282</ele>
<time>2026-07-15T10:38:28.000Z</time>
</trkpt>
<trkpt lat="57.132000" lon="8.963660">
<ele>12.067429</ele>
<time>2026-07-15T10:38:29.000Z</time>
</trkpt>
<trkpt lat="57.132038" lon="8.963693">
<ele>12.073577</ele>
<time>2026-07-15T10:38:30.000Z</time>
</trkpt>
<trkpt lat="57.132077" lon="8.963730">
<ele>12.079996</ele>
<time>2026-07-15T10:38:31.000Z</time>
</trkpt>
<trkpt lat="57.132111" lon="8.963766">
<ele>12.085734</ele>
<time>2026-07-15T10:38:32.000Z</time>
</trkpt>
<trkpt lat="57.132153" lon="8.963802">
<ele>12.092512</ele>
<time>2026-07-15T10:38:33.000Z</time>
</trkpt>
<trkpt lat="57.132187" lon="8.963834">
<ele>12.098099</ele>
<time>2026-07-15T10:38:34.000Z</time>
</trkpt>
<trkpt lat="57.132229" lon="8.963872">
<ele>12.104946</ele>
<time>2026-07-15T10:38:35.000Z</time>
</trkpt>
<trkpt lat="57.132267" lon="8.963905">
<ele>12.111093</ele>
<time>2026-07-15T10:38:36.000Z</time>
</trkpt>
<trkpt lat="57.132309" lon="8.963935">
<ele>12.117685</ele>
<time>2026-07-15T10:38:37.000Z</time>
</trkpt>
<trkpt lat="57.132346" lon="8.963965">
<ele>12.123600</ele>
<time>2026-07-15T10:38:38.000Z</time>
</trkpt>
<trkpt lat="57.132382" lon="8.963994">
<ele>12.129350</ele>
<time>2026-07-15T10:38:39.000Z</time>
</trkpt>
<trkpt lat="57.132424" lon="8.964029">
<ele>12.136095</ele>
<time>2026-07-15T10:38:40.000Z</time>
</trkpt>
<trkpt lat="57.132462" lon="8.964060">
<ele>12.142176</ele>
<time>2026-07-15T10:38:41.000Z</time>
</trkpt>
<trkpt lat="57.132495" lon="8.964088">
<ele>12.147492</ele>
<time>2026-07-15T10:38:42.000Z</time>
</trkpt>
<trkpt lat="57.132534" lon="8.964122">
<ele>12.153806</ele>
<time>2026-07-15T10:38:43.000Z</time>
</trkpt>
<trkpt lat="57.132572" lon="8.964151">
<ele>12.159825</ele>
<time>2026-07-15T10:38:44.000Z</time>
</trkpt>
<trkpt lat="57.132607" lon="8.964177">
<ele>12.165347</ele>
<time>2026-07-15T10:38:45.000Z</time>
</trkpt>
<trkpt lat="57.132637" lon="8.964198">
<ele>12.170043</ele>
<time>2026-07-15T10:38:46.000Z</time>
</trkpt>
<trkpt lat="57.132672" lon="8.964218">
<ele>12.175405</ele>
<time>2026-07-15T10:38:47.000Z</time>
</trkpt>
<trkpt lat="57.132697" lon="8.964245">
<ele>12.179645</ele>
<time>2026-07-15T10:38:48.000Z</time>
</trkpt>
<trkpt lat="57.132737" lon="8.964272">
<ele>12.185879</ele>
<time>2026-07-15T10:38:49.000Z</time>
</trkpt>
<trkpt lat="57.132765" lon="8.964291">
<ele>12.190245</ele>
<time>2026-07-15T10:38:50.000Z</time>
</trkpt>
<trkpt lat="57.132805" lon="8.964319">
<ele>12.196507</ele>
<time>2026-07-15T10:38:51.000Z</time>
</trkpt>
<trkpt lat="57.132844" lon="8.964345">
<ele>12.202576</ele>
<time>2026-07-15T10:38:52.000Z</time>
</trkpt>
<trkpt lat="57.132885" lon="8.964375">
<ele>12.209031</ele>
<time>2026-07-15T10:38:53.000Z</time>
</trkpt>
<trkpt lat="57.132923" lon="8.964407">
<ele>12.211633</ele>
<time>2026-07-15T10:38:54.000Z</time>
</trkpt>
<trkpt lat="57.132958" lon="8.964439">
<ele>12.213543</ele>
<time>2026-07-15T10:38:55.000Z</time>
</trkpt>
<trkpt lat="57.132996" lon="8.964475">
<ele>12.215632</ele>
<time>2026-07-15T10:38:56.000Z</time>
</trkpt>
<trkpt lat="57.133030" lon="8.964503">
<ele>12.217452</ele>
<time>2026-07-15T10:38:57.000Z</time>
</trkpt>
<trkpt lat="57.133063" lon="8.964533">
<ele>12.219251</ele>
<time>2026-07-15T10:38:58.000Z</time>
</trkpt>
<trkpt lat="57.133095" lon="8.964559">
<ele>12.220961</ele>
<time>2026-07-15T10:38:59.000Z</time>
</trkpt>
<trkpt lat="57.133117" lon="8.964574">
<ele>12.222108</ele>
<time>2026-07-15T10:39:00.000Z</time>
</trkpt>
<trkpt lat="57.133152" lon="8.964602">
<ele>12.223973</ele>
<time>2026-07-15T10:39:01.000Z</time>
</trkpt>
<trkpt lat="57.133186" lon="8.964632">
<ele>12.225816</ele>
<time>2026-07-15T10:39:02.000Z</time>
</trkpt>
<trkpt lat="57.133219" lon="8.964660">
<ele>12.227592</ele>
<time>2026-07-15T10:39:03.000Z</time>
</trkpt>
<trkpt lat="57.133256" lon="8.964693">
<ele>12.229602</ele>
<time>2026-07-15T10:39:04.000Z</time>
</trkpt>
<trkpt lat="57.133294" lon="8.964736">
<ele>12.231782</ele>
<time>2026-07-15T10:39:05.000Z</time>
</trkpt>
<trkpt lat="57.133331" lon="8.964783">
<ele>12.233979</ele>
<time>2026-07-15T10:39:06.000Z</time>
</trkpt>
<trkpt lat="57.133369" lon="8.964834">
<ele>12.236277</ele>
<time>2026-07-15T10:39:07.000Z</time>
</trkpt>
<trkpt lat="57.133404" lon="8.964888">
<ele>12.238509</ele>
<time>2026-07-15T10:39:08.000Z</time>
</trkpt>
<trkpt lat="57.133441" lon="8.964947">
<ele>12.240901</ele>
<time>2026-07-15T10:39:09.000Z</time>
</trkpt>
<trkpt lat="57.133480" lon="8.965007">
<ele>12.243385</ele>
<time>2026-07-15T10:39:10.000Z</time>
</trkpt>
<trkpt lat="57.133510" lon="8.965065">
<ele>12.245510</ele>
<time>2026-07-15T10:39:11.000Z</time>
</trkpt>
<trkpt lat="57.133538" lon="8.965126">
<ele>12.247630</ele>
<time>2026-07-15T10:39:12.000Z</time>
</trkpt>
<trkpt lat="57.133568" lon="8.965185">
<ele>12.249775</ele>
<time>2026-07-15T10:39:13.000Z</time>
</trkpt>
<trkpt lat="57.133595" lon="8.965246">
<ele>12.251863</ele>
<time>2026-07-15T10:39:14.000Z</time>
</trkpt>
<trkpt lat="57.133621" lon="8.965310">
<ele>12.253984</ele>
<time>2026-07-15T10:39:15.000Z</time>
</trkpt>
<trkpt lat="57.133648" lon="8.965367">
<ele>12.255992</ele>
<time>2026-07-15T10:39:16.000Z</time>
</trkpt>
<trkpt lat="57.133675" lon="8.965427">
<ele>12.258060</ele>
<time>2026-07-15T10:39:17.000Z</time>
</trkpt>
<trkpt lat="57.133701" lon="8.965485">
<ele>12.260055</ele>
<time>2026-07-15T10:39:18.000Z</time>
</trkpt>
<trkpt lat="57.133718" lon="8.965529">
<ele>12.261488</ele>
<time>2026-07-15T10:39:19.000Z</time>
</trkpt>
<trkpt lat="57.133743" lon="8.965582">
<ele>12.263351</ele>
<time>2026-07-15T10:39:20.000Z</time>
</trkpt>
<trkpt lat="57.133762" lon="8.965624">
<ele>12.264802</ele>
<time>2026-07-15T10:39:21.000Z</time>
</trkpt>
<trkpt lat="57.133782" lon="8.965672">
<ele>12.266408</ele>
<time>2026-07-15T10:39:22.000Z</time>
</trkpt>
<trkpt lat="57.133800" lon="8.965715">
<ele>12.267848</ele>
<time>2026-07-15T10:39:23.000Z</time>
</trkpt>
<trkpt lat="57.133820" lon="8.965761">
<ele>12.269412</ele>
<time>2026-07-15T10:39:24.000Z</time>
</trkpt>
<trkpt lat="57.133839" lon="8.965799">
<ele>12.270783</ele>
<time>2026-07-15T10:39:25.000Z</time>
</trkpt>
<trkpt lat="57.133858" lon="8.965839">
<ele>12.272193</ele>
<time>2026-07-15T10:39:26.000Z</time>
</trkpt>
<trkpt lat="57.133877" lon="8.965879">
<ele>12.273604</ele>
<time>2026-07-15T10:39:27.000Z</time>
</trkpt>
<trkpt lat="57.133896" lon="8.965922">
<ele>12.275075</ele>
<time>2026-07-15T10:39:28.000Z</time>
</trkpt>
<trkpt lat="57.133922" lon="8.965971">
<ele>12.276893</ele>
<time>2026-07-15T10:39:29.000Z</time>
</trkpt>
<trkpt lat="57.133946" lon="8.966024">
<ele>12.278724</ele>
<time>2026-07-15T10:39:30.000Z</time>
</trkpt>
<trkpt lat="57.133965" lon="8.966073">
<ele>12.280322</ele>
<time>2026-07-15T10:39:31.000Z</time>
</trkpt>
<trkpt lat="57.133992" lon="8.966131">
<ele>12.282349</ele>
<time>2026-07-15T10:39:32.000Z</time>
</trkpt>
<trkpt lat="57.134018" lon="8.966188">
<ele>12.284325</ele>
<time>2026-07-15T10:39:33.000Z</time>
</trkpt>
<trkpt lat="57.134045" lon="8.966247">
<ele>12.286372</ele>
<time>2026-07-15T10:39:34.000Z</time>
</trkpt>
<trkpt lat="57.134079" lon="8.966311">
<ele>12.288748</ele>
<time>2026-07-15T10:39:35.000Z</time>
</trkpt>
<trkpt lat="57.134113" lon="8.966385">
<ele>12.291321</ele>
<time>2026-07-15T10:39:36.000Z</time>
</trkpt>
<trkpt lat="57.134155" lon="8.966458">
<ele>12.294143</ele>
<time>2026-07-15T10:39:37.000Z</time>
</trkpt>
<trkpt lat="57.134193" lon="8.966527">
<ele>12.296752</ele>
<time>2026-07-15T10:39:38.000Z</time>
</trkpt>
<trkpt lat="57.134228" lon="8.966585">
<ele>12.284963</ele>
<time>2026-07-15T10:39:39.000Z</time>
</trkpt>
<trkpt lat="57.134258" lon="8.966647">
<ele>12.262337</ele>
<time>2026-07-15T10:39:40.000Z</time>
</trkpt>
<trkpt lat="57.134296" lon="8.966709">
<ele>12.236861</ele>
<time>2026-07-15T10:39:41.000Z</time>
</trkpt>
<trkpt lat="57.134329" lon="8.966769">
<ele>12.213592</ele>
<time>2026-07-15T10:39:42.000Z</time>
</trkpt>
<trkpt lat="57.134365" lon="8.966820">
<ele>12.190800</ele>
<time>2026-07-15T10:39:43.000Z</time>
</trkpt>
<trkpt lat="57.134404" lon="8.966860">
<ele>12.168397</ele>
<time>2026-07-15T10:39:44.000Z</time>
</trkpt>
<trkpt lat="57.134434" lon="8.966892">
<ele>12.150999</ele>
<time>2026-07-15T10:39:45.000Z</time>
</trkpt>
<trkpt lat="57.134468" lon="8.966922">
<ele>12.132077</ele>
<time>2026-07-15T10:39:46.000Z</time>
</trkpt>
<trkpt lat="57.134497" lon="8.966947">
<ele>12.116007</ele>
<time>2026-07-15T10:39:47.000Z</time>
</trkpt>
<trkpt lat="57.134529" lon="8.966982">
<ele>12.097329</ele>
<time>2026-07-15T10:39:48.000Z</time>
</trkpt>
<trkpt lat="57.134564" lon="8.967012">
<ele>12.077954</ele>
<time>2026-07-15T10:39:49.000Z</time>
</trkpt>
<trkpt lat="57.134598" lon="8.967042">
<ele>12.059033</ele>
<time>2026-07-15T10:39:50.000Z</time>
</trkpt>
<trkpt lat="57.134632" lon="8.967076">
<ele>12.039617</ele>
<time>2026-07-15T10:39:51.000Z</time>
</trkpt>
<trkpt lat="57.134663" lon="8.967109">
<ele>12.021647</ele>
<time>2026-07-15T10:39:52.000Z</time>
</trkpt>
<trkpt lat="57.134697" lon="8.967140">
<ele>12.002607</ele>
<time>2026-07-15T10:39:53.000Z</time>
</trkpt>
<trkpt lat="57.134735" lon="8.967172">
<ele>11.981637</ele>
<time>2026-07-15T10:39:54.000Z</time>
</trkpt>
<trkpt lat="57.134776" lon="8.967206">
<ele>11.959070</ele>
<time>2026-07-15T10:39:55.000Z</time>
</trkpt>
<trkpt lat="57.134816" lon="8.967237">
<ele>11.937289</ele>
<time>2026-07-15T10:39:56.000Z</time>
</trkpt>
<trkpt lat="57.134854" lon="8.967264">
<ele>11.916847</ele>
<time>2026-07-15T10:39:57.000Z</time>
</trkpt>
<trkpt lat="57.134891" lon="8.967292">
<ele>11.896771</ele>
<time>2026-07-15T10:39:58.000Z</time>
</trkpt>
<trkpt lat="57.134930" lon="8.967324">
<ele>11.875343</ele>
<time>2026-07-15T10:39:59.000Z</time>
</trkpt>
<trkpt lat="57.134971" lon="8.967352">
<ele>11.853396</ele>
<time>2026-07-15T10:40:00.000Z</time>
</trkpt>
<trkpt lat="57.135011" lon="8.967387">
<ele>11.831170</ele>
<time>2026-07-15T10:40:01.000Z</time>
</trkpt>
<trkpt lat="57.135052" lon="8.967419">
<ele>11.808821</ele>
<time>2026-07-15T10:40:02.000Z</time>
</trkpt>
<trkpt lat="57.135090" lon="8.967448">
<ele>11.788177</ele>
<time>2026-07-15T10:40:03.000Z</time>
</trkpt>
<trkpt lat="57.135132" lon="8.967479">
<ele>11.765468</ele>
<time>2026-07-15T10:40:04.000Z</time>
</trkpt>
<trkpt lat="57.135170" lon="8.967507">
<ele>11.744926</ele>
<time>2026-07-15T10:40:05.000Z</time>
</trkpt>
<trkpt lat="57.135207" lon="8.967532">
<ele>11.725146</ele>
<time>2026-07-15T10:40:06.000Z</time>
</trkpt>
<trkpt lat="57.135250" lon="8.967558">
<ele>11.702431</ele>
<time>2026-07-15T10:40:07.000Z</time>
</trkpt>
<trkpt lat="57.135288" lon="8.967585">
<ele>11.681989</ele>
<time>2026-07-15T10:40:08.000Z</time>
</trkpt>
<trkpt lat="57.135327" lon="8.967614">
<ele>11.660880</ele>
<time>2026-07-15T10:40:09.000Z</time>
</trkpt>
<trkpt lat="57.135355" lon="8.967642">
<ele>11.644890</ele>
<time>2026-07-15T10:40:10.000Z</time>
</trkpt>
<trkpt lat="57.135391" lon="8.967677">
<ele>11.624460</ele>
<time>2026-07-15T10:40:11.000Z</time>
</trkpt>
<trkpt lat="57.135421" lon="8.967701">
<ele>11.608044</ele>
<time>2026-07-15T10:40:12.000Z</time>
</trkpt>
<trkpt lat="57.135460" lon="8.967723">
<ele>11.587572</ele>
<time>2026-07-15T10:40:13.000Z</time>
</trkpt>
<trkpt lat="57.135501" lon="8.967746">
<ele>11.566061</ele>
<time>2026-07-15T10:40:14.000Z</time>
</trkpt>
<trkpt lat="57.135548" lon="8.967774">
<ele>11.541268</ele>
<time>2026-07-15T10:40:15.000Z</time>
</trkpt>
<trkpt lat="57.135595" lon="8.967810">
<ele>11.515721</ele>
<time>2026-07-15T10:40:16.000Z</time>
</trkpt>
<trkpt lat="57.135650" lon="8.967852">
<ele>11.485838</ele>
<time>2026-07-15T10:40:17.000Z</time>
</trkpt>
<trkpt lat="57.135701" lon="8.967888">
<ele>11.458426</ele>
<time>2026-07-15T10:40:18.000Z</time>
</trkpt>
<trkpt lat="57.135754" lon="8.967922">
<ele>11.430258</ele>
<time>2026-07-15T10:40:19.000Z</time>
</trkpt>
<trkpt lat="57.135808" lon="8.967959">
<ele>11.401341</ele>
<time>2026-07-15T10:40:20.000Z</time>
</trkpt>
<trkpt lat="57.135860" lon="8.967990">
<ele>11.412488</ele>
<time>2026-07-15T10:40:21.000Z</time>
</trkpt>
<trkpt lat="57.135904" lon="8.968020">
<ele>11.431993</ele>
<time>2026-07-15T10:40:22.000Z</time>
</trkpt>
<trkpt lat="57.135954" lon="8.968058">
<ele>11.454480</ele>
<time>2026-07-15T10:40:23.000Z</time>
</trkpt>
<trkpt lat="57.136002" lon="8.968093">
<ele>11.475942</ele>
<time>2026-07-15T10:40:24.000Z</time>
</trkpt>
<trkpt lat="57.136048" lon="8.968132">
<ele>11.496994</ele>
<time>2026-07-15T10:40:25.000Z</time>
</trkpt>
<trkpt lat="57.136093" lon="8.968167">
<ele>11.517301</ele>
<time>2026-07-15T10:40:26.000Z</time>
</trkpt>
<trkpt lat="57.136133" lon="8.968195">
<ele>11.535091</ele>
<time>2026-07-15T10:40:27.000Z</time>
</trkpt>
<trkpt lat="57.136187" lon="8.968230">
<ele>11.558890</ele>
<time>2026-07-15T10:40:28.000Z</time>
</trkpt>
<trkpt lat="57.136233" lon="8.968264">
<ele>11.579496</ele>
<time>2026-07-15T10:40:29.000Z</time>
</trkpt>
<trkpt lat="57.136288" lon="8.968300">
<ele>11.603762</ele>
<time>2026-07-15T10:40:30.000Z</time>
</trkpt>
<trkpt lat="57.136333" lon="8.968333">
<ele>11.623899</ele>
<time>2026-07-15T10:40:31.000Z</time>
</trkpt>
<trkpt lat="57.136380" lon="8.968369">
<ele>11.645060</ele>
<time>2026-07-15T10:40:32.000Z</time>
</trkpt>
<trkpt lat="57.136425" lon="8.968402">
<ele>11.665196</ele>
<time>2026-07-15T10:40:33.000Z</time>
</trkpt>
<trkpt lat="57.136463" lon="8.968434">
<ele>11.682566</ele>
<time>2026-07-15T10:40:34.000Z</time>
</trkpt>
<trkpt lat="57.136502" lon="8.968463">
<ele>11.700051</ele>
<time>2026-07-15T10:40:35.000Z</time>
</trkpt>
<trkpt lat="57.136543" lon="8.968496">
<ele>11.718652</ele>
<time>2026-07-15T10:40:36.000Z</time>
</trkpt>
<trkpt lat="57.136579" lon="8.968527">
<ele>11.735173</ele>
<time>2026-07-15T10:40:37.000Z</time>
</trkpt>
<trkpt lat="57.136608" lon="8.968551">
<ele>11.748390</ele>
<time>2026-07-15T10:40:38.000Z</time>
</trkpt>
<trkpt lat="57.136644" lon="8.968581">
<ele>11.764817</ele>
<time>2026-07-15T10:40:39.000Z</time>
</trkpt>
<trkpt lat="57.136681" lon="8.968612">
<ele>11.781715</ele>
<time>2026-07-15T10:40:40.000Z</time>
</trkpt>
<trkpt lat="57.136714" lon="8.968644">
<ele>11.797219</ele>
<time>2026-07-15T10:40:41.000Z</time>
</trkpt>
<trkpt lat="57.136749" lon="8.968681">
<ele>11.813995</ele>
<time>2026-07-15T10:40:42.000Z</time>
</trkpt>
<trkpt lat="57.136780" lon="8.968719">
<ele>11.829474</ele>
<time>2026-07-15T10:40:43.000Z</time>
</trkpt>
<trkpt lat="57.136818" lon="8.968769">
<ele>11.848887</ele>
<time>2026-07-15T10:40:44.000Z</time>
</trkpt>
<trkpt lat="57.136848" lon="8.968813">
<ele>11.864828</ele>
<time>2026-07-15T10:40:45.000Z</time>
</trkpt>
<trkpt lat="57.136895" lon="8.968880">
<ele>11.889532</ele>
<time>2026-07-15T10:40:46.000Z</time>
</trkpt>
<trkpt lat="57.136943" lon="8.968958">
<ele>11.916139</ele>
<time>2026-07-15T10:40:47.000Z</time>
</trkpt>
<trkpt lat="57.136993" lon="8.969044">
<ele>11.944575</ele>
<time>2026-07-15T10:40:48.000Z</time>
</trkpt>
<trkpt lat="57.137034" lon="8.969110">
<ele>11.967209</ele>
<time>2026-07-15T10:40:49.000Z</time>
</trkpt>
<trkpt lat="57.137077" lon="8.969188">
<ele>11.992294</ele>
<time>2026-07-15T10:40:50.000Z</time>
</trkpt>
<trkpt lat="57.137112" lon="8.969259">
<ele>12.013935</ele>
<time>2026-07-15T10:40:51.000Z</time>
</trkpt>
<trkpt lat="57.137141" lon="8.969320">
<ele>12.032231</ele>
<time>2026-07-15T10:40:52.000Z</time>
</trkpt>
<trkpt lat="57.137169" lon="8.969396">
<ele>12.052956</ele>
<time>2026-07-15T10:40:53.000Z</time>
</trkpt>
<trkpt lat="57.137184" lon="8.969467">
<ele>12.070145</ele>
<time>2026-07-15T10:40:54.000Z</time>
</trkpt>
<trkpt lat="57.137203" lon="8.969546">
<ele>12.089640</ele>
<time>2026-07-15T10:40:55.000Z</time>
</trkpt>
<trkpt lat="57.137218" lon="8.969626">
<ele>12.108735</ele>
<time>2026-07-15T10:40:56.000Z</time>
</trkpt>
<trkpt lat="57.137229" lon="8.969702">
<ele>12.126481</ele>
<time>2026-07-15T10:40:57.000Z</time>
</trkpt>
<trkpt lat="57.137245" lon="8.969783">
<ele>12.144768</ele>
<time>2026-07-15T10:40:58.000Z</time>
</trkpt>
<trkpt lat="57.137264" lon="8.969874">
<ele>12.158574</ele>
<time>2026-07-15T10:40:59.000Z</time>
</trkpt>
<trkpt lat="57.137276" lon="8.969959">
<ele>12.171009</ele>
<time>2026-07-15T10:41:00.000Z</time>
</trkpt>
<trkpt lat="57.137289" lon="8.970032">
<ele>12.181887</ele>
<time>2026-07-15T10:41:01.000Z</time>
</trkpt>
<trkpt lat="57.137306" lon="8.970131">
<ele>12.196589</ele>
<time>2026-07-15T10:41:02.000Z</time>
</trkpt>
<trkpt lat="57.137321" lon="8.970221">
<ele>12.209919</ele>
<time>2026-07-15T10:41:03.000Z</time>
</trkpt>
<trkpt lat="57.137337" lon="8.970310">
<ele>12.223193</ele>
<time>2026-07-15T10:41:04.000Z</time>
</trkpt>
<trkpt lat="57.137348" lon="8.970399">
<ele>12.236117</ele>
<time>2026-07-15T10:41:05.000Z</time>
</trkpt>
<trkpt lat="57.137363" lon="8.970480">
<ele>12.248235</ele>
<time>2026-07-15T10:41:06.000Z</time>
</trkpt>
<trkpt lat="57.137375" lon="8.970563">
<ele>12.260396</ele>
<time>2026-07-15T10:41:07.000Z</time>
</trkpt>
<trkpt lat="57.137390" lon="8.970649">
<ele>12.273186</ele>
<time>2026-07-15T10:41:08.000Z</time>
</trkpt>
<trkpt lat="57.137401" lon="8.970734">
<ele>12.285558</ele>
<time>2026-07-15T10:41:09.000Z</time>
</trkpt>
<trkpt lat="57.137417" lon="8.970819">
<ele>12.298296</ele>
<time>2026-07-15T10:41:10.000Z</time>
</trkpt>
<trkpt lat="57.137428" lon="8.970900">
<ele>12.310118</ele>
<time>2026-07-15T10:41:11.000Z</time>
</trkpt>
<trkpt lat="57.137443" lon="8.970974">
<ele>12.321303</ele>
<time>2026-07-15T10:41:12.000Z</time>
</trkpt>
<trkpt lat="57.137455" lon="8.971054">
<ele>12.333054</ele>
<time>2026-07-15T10:41:13.000Z</time>
</trkpt>
<trkpt lat="57.137466" lon="8.971130">
<ele>12.344191</ele>
<time>2026-07-15T10:41:14.000Z</time>
</trkpt>
<trkpt lat="57.137482" lon="8.971205">
<ele>12.355601</ele>
<time>2026-07-15T10:41:15.000Z</time>
</trkpt>
<trkpt lat="57.137497" lon="8.971279">
<ele>12.366785</ele>
<time>2026-07-15T10:41:16.000Z</time>
</trkpt>
<trkpt lat="57.137516" lon="8.971348">
<ele>12.377740</ele>
<time>2026-07-15T10:41:17.000Z</time>
</trkpt>
<trkpt lat="57.137531" lon="8.971412">
<ele>12.387611</ele>
<time>2026-07-15T10:41:18.000Z</time>
</trkpt>
<trkpt lat="57.137547" lon="8.971488">
<ele>12.399152</ele>
<time>2026-07-15T10:41:19.000Z</time>
</trkpt>
<trkpt lat="57.137554" lon="8.971562">
<ele>12.409788</ele>
<time>2026-07-15T10:41:20.000Z</time>
</trkpt>
<trkpt lat="57.137566" lon="8.971646">
<ele>12.422086</ele>
<time>2026-07-15T10:41:21.000Z</time>
</trkpt>
<trkpt lat="57.137573" lon="8.971722">
<ele>12.433000</ele>
<time>2026-07-15T10:41:22.000Z</time>
</trkpt>
<trkpt lat="57.137585" lon="8.971803">
<ele>12.444888</ele>
<time>2026-07-15T10:41:23.000Z</time>
</trkpt>
<trkpt lat="57.137596" lon="8.971876">
<ele>12.455615</ele>
<time>2026-07-15T10:41:24.000Z</time>
</trkpt>
<trkpt lat="57.137604" lon="8.971943">
<ele>12.465328</ele>
<time>2026-07-15T10:41:25.000Z</time>
</trkpt>
<trkpt lat="57.137611" lon="8.972006">
<ele>12.474432</ele>
<time>2026-07-15T10:41:26.000Z</time>
</trkpt>
<trkpt lat="57.137615" lon="8.972059">
<ele>12.482009</ele>
<time>2026-07-15T10:41:27.000Z</time>
</trkpt>
<trkpt lat="57.137619" lon="8.972124">
<ele>12.491270</ele>
<time>2026-07-15T10:41:28.000Z</time>
</trkpt>
<trkpt lat="57.137619" lon="8.972178">
<ele>12.498916</ele>
<time>2026-07-15T10:41:29.000Z</time>
</trkpt>
<trkpt lat="57.137623" lon="8.972232">
<ele>12.506632</ele>
<time>2026-07-15T10:41:30.000Z</time>
</trkpt>
<trkpt lat="57.137626" lon="8.972272">
<ele>12.512349</ele>
<time>2026-07-15T10:41:31.000Z</time>
</trkpt>
<trkpt lat="57.137627" lon="8.972332">
<ele>12.520848</ele>
<time>2026-07-15T10:41:32.000Z</time>
</trkpt>
<trkpt lat="57.137627" lon="8.972390">
<ele>12.529060</ele>
<time>2026-07-15T10:41:33.000Z</time>
</trkpt>
<trkpt lat="57.137627" lon="8.972445">
<ele>12.536847</ele>
<time>2026-07-15T10:41:34.000Z</time>
</trkpt>
<trkpt lat="57.137627" lon="8.972500">
<ele>12.544634</ele>
<time>2026-07-15T10:41:35.000Z</time>
</trkpt>
<trkpt lat="57.137627" lon="8.972563">
<ele>12.553554</ele>
<time>2026-07-15T10:41:36.000Z</time>
</trkpt>
<trkpt lat="57.137623" lon="8.972622">
<ele>12.561972</ele>
<time>2026-07-15T10:41:37.000Z</time>
</trkpt>
<trkpt lat="57.137619" lon="8.972688">
<ele>12.571375</ele>
<time>2026-07-15T10:41:38.000Z</time>
</trkpt>
<trkpt lat="57.137615" lon="8.972753">
<ele>12.580637</ele>
<time>2026-07-15T10:41:39.000Z</time>
</trkpt>
<trkpt lat="57.137611" lon="8.972817">
<ele>12.589758</ele>
<time>2026-07-15T10:41:40.000Z</time>
</trkpt>
<trkpt lat="57.137608" lon="8.972881">
<ele>12.598853</ele>
<time>2026-07-15T10:41:41.000Z</time>
</trkpt>
<trkpt lat="57.137600" lon="8.972942">
<ele>12.607738</ele>
<time>2026-07-15T10:41:42.000Z</time>
</trkpt>
<trkpt lat="57.137596" lon="8.972994">
<ele>12.613000</ele>
<time>2026-07-15T10:41:43.000Z</time>
</trkpt>
<trkpt lat="57.137588" lon="8.973047">
<ele>12.615240</ele>
<time>2026-07-15T10:41:44.000Z</time>
</trkpt>
<trkpt lat="57.137577" lon="8.973095">
<ele>12.617361</ele>
<time>2026-07-15T10:41:45.000Z</time>
</trkpt>
<trkpt lat="57.137565" lon="8.973147">
<ele>12.619662</ele>
<time>2026-07-15T10:41:46.000Z</time>
</trkpt>
<trkpt lat="57.137554" lon="8.973192">
<ele>12.621672</ele>
<time>2026-07-15T10:41:47.000Z</time>
</trkpt>
<trkpt lat="57.137542" lon="8.973239">
<ele>12.623786</ele>
<time>2026-07-15T10:41:48.000Z</time>
</trkpt>
<trkpt lat="57.137524" lon="8.973293">
<ele>12.626367</ele>
<time>2026-07-15T10:41:49.000Z</time>
</trkpt>
<trkpt lat="57.137504" lon="8.973359">
<ele>12.629444</ele>
<time>2026-07-15T10:41:50.000Z</time>
</trkpt>
<trkpt lat="57.137486" lon="8.973415">
<ele>12.632094</ele>
<time>2026-07-15T10:41:51.000Z</time>
</trkpt>
<trkpt lat="57.137474" lon="8.973474">
<ele>12.634660</ele>
<time>2026-07-15T10:41:52.000Z</time>
</trkpt>
<trkpt lat="57.137463" lon="8.973537">
<ele>12.637354</ele>
<time>2026-07-15T10:41:53.000Z</time>
</trkpt>
<trkpt lat="57.137444" lon="8.973605">
<ele>12.640468</ele>
<time>2026-07-15T10:41:54.000Z</time>
</trkpt>
<trkpt lat="57.137428" lon="8.973653">
<ele>12.642762</ele>
<time>2026-07-15T10:41:55.000Z</time>
</trkpt>
<trkpt lat="57.137413" lon="8.973695">
<ele>12.644809</ele>
<time>2026-07-15T10:41:56.000Z</time>
</trkpt>
<trkpt lat="57.137394" lon="8.973745">
<ele>12.647294</ele>
<time>2026-07-15T10:41:57.000Z</time>
</trkpt>
<trkpt lat="57.137375" lon="8.973809">
<ele>12.650265</ele>
<time>2026-07-15T10:41:58.000Z</time>
</trkpt>
<trkpt lat="57.137360" lon="8.973863">
<ele>12.652735</ele>
<time>2026-07-15T10:41:59.000Z</time>
</trkpt>
<trkpt lat="57.137340" lon="8.973932">
<ele>12.655919</ele>
<time>2026-07-15T10:42:00.000Z</time>
</trkpt>
<trkpt lat="57.137325" lon="8.974006">
<ele>12.659136</ele>
<time>2026-07-15T10:42:01.000Z</time>
</trkpt>
<trkpt lat="57.137314" lon="8.974080">
<ele>12.662260</ele>
<time>2026-07-15T10:42:02.000Z</time>
</trkpt>
<trkpt lat="57.137302" lon="8.974140">
<ele>12.664863</ele>
<time>2026-07-15T10:42:03.000Z</time>
</trkpt>
<trkpt lat="57.137295" lon="8.974201">
<ele>12.667402</ele>
<time>2026-07-15T10:42:04.000Z</time>
</trkpt>
<trkpt lat="57.137280" lon="8.974255">
<ele>12.669872</ele>
<time>2026-07-15T10:42:05.000Z</time>
</trkpt>
<trkpt lat="57.137268" lon="8.974315">
<ele>12.672475</ele>
<time>2026-07-15T10:42:06.000Z</time>
</trkpt>
<trkpt lat="57.137257" lon="8.974365">
<ele>12.674672</ele>
<time>2026-07-15T10:42:07.000Z</time>
</trkpt>
<trkpt lat="57.137245" lon="8.974422">
<ele>12.677161</ele>
<time>2026-07-15T10:42:08.000Z</time>
</trkpt>
<trkpt lat="57.137227" lon="8.974479">
<ele>12.679846</ele>
<time>2026-07-15T10:42:09.000Z</time>
</trkpt>
<trkpt lat="57.137211" lon="8.974556">
<ele>12.683203</ele>
<time>2026-07-15T10:42:10.000Z</time>
</trkpt>
<trkpt lat="57.137196" lon="8.974614">
<ele>12.685819</ele>
<time>2026-07-15T10:42:11.000Z</time>
</trkpt>
<trkpt lat="57.137177" lon="8.974691">
<ele>12.689263</ele>
<time>2026-07-15T10:42:12.000Z</time>
</trkpt>
<trkpt lat="57.137173" lon="8.974766">
<ele>12.692331</ele>
<time>2026-07-15T10:42:13.000Z</time>
</trkpt>
<trkpt lat="57.137161" lon="8.974849">
<ele>12.695829</ele>
<time>2026-07-15T10:42:14.000Z</time>
</trkpt>
<trkpt lat="57.137158" lon="8.974928">
<ele>12.699053</ele>
<time>2026-07-15T10:42:15.000Z</time>
</trkpt>
<trkpt lat="57.137150" lon="8.975007">
<ele>12.702325</ele>
<time>2026-07-15T10:42:16.000Z</time>
</trkpt>
<trkpt lat="57.137142" lon="8.975094">
<ele>12.705918</ele>
<time>2026-07-15T10:42:17.000Z</time>
</trkpt>
<trkpt lat="57.137138" lon="8.975165">
<ele>12.708824</ele>
<time>2026-07-15T10:42:18.000Z</time>
</trkpt>
<trkpt lat="57.137131" lon="8.975251">
<ele>12.712365</ele>
<time>2026-07-15T10:42:19.000Z</time>
</trkpt>
<trkpt lat="57.137119" lon="8.975335">
<ele>12.715901</ele>
<time>2026-07-15T10:42:20.000Z</time>
</trkpt>
<trkpt lat="57.137108" lon="8.975416">
<ele>12.719301</ele>
<time>2026-07-15T10:42:21.000Z</time>
</trkpt>
<trkpt lat="57.137096" lon="8.975499">
<ele>12.722798</ele>
<time>2026-07-15T10:42:22.000Z</time>
</trkpt>
<trkpt lat="57.137085" lon="8.975586">
<ele>12.726435</ele>
<time>2026-07-15T10:42:23.000Z</time>
</trkpt>
<trkpt lat="57.137074" lon="8.975663">
<ele>12.729677</ele>
<time>2026-07-15T10:42:24.000Z</time>
</trkpt>
<trkpt lat="57.137066" lon="8.975750">
<ele>12.733270</ele>
<time>2026-07-15T10:42:25.000Z</time>
</trkpt>
<trkpt lat="57.137058" lon="8.975827">
<ele>12.736462</ele>
<time>2026-07-15T10:42:26.000Z</time>
</trkpt>
<trkpt lat="57.137051" lon="8.975906">
<ele>12.739721</ele>
<time>2026-07-15T10:42:27.000Z</time>
</trkpt>
<trkpt lat="57.137043" lon="8.975979">
<ele>12.742753</ele>
<time>2026-07-15T10:42:28.000Z</time>
</trkpt>
<trkpt lat="57.137039" lon="8.976069">
<ele>12.746430</ele>
<time>2026-07-15T10:42:29.000Z</time>
</trkpt>
<trkpt lat="57.137032" lon="8.976151">
<ele>12.759709</ele>
<time>2026-07-15T10:42:30.000Z</time>
</trkpt>
<trkpt lat="57.137024" lon="8.976218">
<ele>12.772629</ele>
<time>2026-07-15T10:42:31.000Z</time>
</trkpt>
<trkpt lat="57.137012" lon="8.976287">
<ele>12.786276</ele>
<time>2026-07-15T10:42:32.000Z</time>
</trkpt>
<trkpt lat="57.137005" lon="8.976365">
<ele>12.801166</ele>
<time>2026-07-15T10:42:33.000Z</time>
</trkpt>
<trkpt lat="57.136997" lon="8.976448">
<ele>12.817043</ele>
<time>2026-07-15T10:42:34.000Z</time>
</trkpt>
<trkpt lat="57.136994" lon="8.976519">
<ele>12.830456</ele>
<time>2026-07-15T10:42:35.000Z</time>
</trkpt>
<trkpt lat="57.136993" lon="8.976619">
<ele>12.849293</ele>
<time>2026-07-15T10:42:36.000Z</time>
</trkpt>
<trkpt lat="57.136982" lon="8.976694">
<ele>12.863925</ele>
<time>2026-07-15T10:42:37.000Z</time>
</trkpt>
<trkpt lat="57.136982" lon="8.976785">
<ele>12.881064</ele>
<time>2026-07-15T10:42:38.000Z</time>
</trkpt>
<trkpt lat="57.136978" lon="8.976864">
<ele>12.896008</ele>
<time>2026-07-15T10:42:39.000Z</time>
</trkpt>
<trkpt lat="57.136971" lon="8.976945">
<ele>12.911456</ele>
<time>2026-07-15T10:42:40.000Z</time>
</trkpt>
<trkpt lat="57.136963" lon="8.977021">
<ele>12.926036</ele>
<time>2026-07-15T10:42:41.000Z</time>
</trkpt>
<trkpt lat="57.136955" lon="8.977095">
<ele>12.940248</ele>
<time>2026-07-15T10:42:42.000Z</time>
</trkpt>
<trkpt lat="57.136944" lon="8.977158">
<ele>12.952712</ele>
<time>2026-07-15T10:42:43.000Z</time>
</trkpt>
<trkpt lat="57.136936" lon="8.977228">
<ele>12.966185</ele>
<time>2026-07-15T10:42:44.000Z</time>
</trkpt>
<trkpt lat="57.136921" lon="8.977298">
<ele>12.980360</ele>
<time>2026-07-15T10:42:45.000Z</time>
</trkpt>
<trkpt lat="57.136913" lon="8.977367">
<ele>12.993649</ele>
<time>2026-07-15T10:42:46.000Z</time>
</trkpt>
<trkpt lat="57.136913" lon="8.977422">
<ele>13.004007</ele>
<time>2026-07-15T10:42:47.000Z</time>
</trkpt>
<trkpt lat="57.136906" lon="8.977482">
<ele>13.015566</ele>
<time>2026-07-15T10:42:48.000Z</time>
</trkpt>
<trkpt lat="57.136902" lon="8.977515">
<ele>13.021935</ele>
<time>2026-07-15T10:42:49.000Z</time>
</trkpt>
<trkpt lat="57.136875" lon="8.977702">
<ele>13.058380</ele>
<time>2026-07-15T10:43:01.000Z</time>
</trkpt>
<trkpt lat="57.136879" lon="8.977755">
<ele>13.068458</ele>
<time>2026-07-15T10:43:02.000Z</time>
</trkpt>
<trkpt lat="57.136887" lon="8.977803">
<ele>13.077915</ele>
<time>2026-07-15T10:43:03.000Z</time>
</trkpt>
<trkpt lat="57.136890" lon="8.977850">
<ele>13.086828</ele>
<time>2026-07-15T10:43:04.000Z</time>
</trkpt>
<trkpt lat="57.136890" lon="8.977897">
<ele>13.095680</ele>
<time>2026-07-15T10:43:05.000Z</time>
</trkpt>
<trkpt lat="57.136890" lon="8.977944">
<ele>13.104532</ele>
<time>2026-07-15T10:43:06.000Z</time>
</trkpt>
<trkpt lat="57.136887" lon="8.977997">
<ele>13.114569</ele>
<time>2026-07-15T10:43:07.000Z</time>
</trkpt>
<trkpt lat="57.136887" lon="8.978064">
<ele>13.127187</ele>
<time>2026-07-15T10:43:08.000Z</time>
</trkpt>
<trkpt lat="57.136883" lon="8.978131">
<ele>13.139882</ele>
<time>2026-07-15T10:43:09.000Z</time>
</trkpt>
<trkpt lat="57.136875" lon="8.978198">
<ele>13.152803</ele>
<time>2026-07-15T10:43:10.000Z</time>
</trkpt>
<trkpt lat="57.136871" lon="8.978260">
<ele>13.164562</ele>
<time>2026-07-15T10:43:11.000Z</time>
</trkpt>
<trkpt lat="57.136867" lon="8.978327">
<ele>13.177258</ele>
<time>2026-07-15T10:43:12.000Z</time>
</trkpt>
<trkpt lat="57.136864" lon="8.978400">
<ele>13.191046</ele>
<time>2026-07-15T10:43:13.000Z</time>
</trkpt>
<trkpt lat="57.136864" lon="8.978475">
<ele>13.205171</ele>
<time>2026-07-15T10:43:14.000Z</time>
</trkpt>
<trkpt lat="57.136864" lon="8.978538">
<ele>13.217037</ele>
<time>2026-07-15T10:43:15.000Z</time>
</trkpt>
<trkpt lat="57.136860" lon="8.978600">
<ele>13.228796</ele>
<time>2026-07-15T10:43:16.000Z</time>
</trkpt>
<trkpt lat="57.136852" lon="8.978664">
<ele>13.241166</ele>
<time>2026-07-15T10:43:17.000Z</time>
</trkpt>
<trkpt lat="57.136845" lon="8.978729">
<ele>13.253647</ele>
<time>2026-07-15T10:43:18.000Z</time>
</trkpt>
<trkpt lat="57.136830" lon="8.978793">
<ele>13.266777</ele>
<time>2026-07-15T10:43:19.000Z</time>
</trkpt>
<trkpt lat="57.136818" lon="8.978865">
<ele>13.280963</ele>
<time>2026-07-15T10:43:20.000Z</time>
</trkpt>
<trkpt lat="57.136810" lon="8.978940">
<ele>13.295359</ele>
<time>2026-07-15T10:43:21.000Z</time>
</trkpt>
<trkpt lat="57.136803" lon="8.979012">
<ele>13.309135</ele>
<time>2026-07-15T10:43:22.000Z</time>
</trkpt>
<trkpt lat="57.136795" lon="8.979083">
<ele>13.322793</ele>
<time>2026-07-15T10:43:23.000Z</time>
</trkpt>
<trkpt lat="57.136787" lon="8.979150">
<ele>13.335713</ele>
<time>2026-07-15T10:43:24.000Z</time>
</trkpt>
<trkpt lat="57.136780" lon="8.979213">
<ele>13.347825</ele>
<time>2026-07-15T10:43:25.000Z</time>
</trkpt>
<trkpt lat="57.136772" lon="8.979261">
<ele>13.357282</ele>
<time>2026-07-15T10:43:26.000Z</time>
</trkpt>
<trkpt lat="57.136768" lon="8.979285">
<ele>13.362011</ele>
<time>2026-07-15T10:43:27.000Z</time>
</trkpt>
<trkpt lat="57.136772" lon="8.979285">
<ele>13.363399</ele>
<time>2026-07-15T10:43:28.000Z</time>
</trkpt>
<trkpt lat="57.136772" lon="8.979292">
<ele>13.364718</ele>
<time>2026-07-15T10:43:29.000Z</time>
</trkpt>
<trkpt lat="57.136731" lon="8.979700">
<ele>13.361663</ele>
<time>2026-07-15T10:46:19.000Z</time>
</trkpt>
<trkpt lat="57.136723" lon="8.979777">
<ele>13.359659</ele>
<time>2026-07-15T10:46:20.000Z</time>
</trkpt>
<trkpt lat="57.136715" lon="8.979853">
<ele>13.357681</ele>
<time>2026-07-15T10:46:21.000Z</time>
</trkpt>
<trkpt lat="57.136707" lon="8.979931">
<ele>13.355652</ele>
<time>2026-07-15T10:46:22.000Z</time>
</trkpt>
<trkpt lat="57.136704" lon="8.980012">
<ele>13.353577</ele>
<time>2026-07-15T10:46:23.000Z</time>
</trkpt>
<trkpt lat="57.136693" lon="8.980095">
<ele>13.351394</ele>
<time>2026-07-15T10:46:24.000Z</time>
</trkpt>
<trkpt lat="57.136685" lon="8.980180">
<ele>13.349189</ele>
<time>2026-07-15T10:46:25.000Z</time>
</trkpt>
<trkpt lat="57.136677" lon="8.980257">
<ele>13.347186</ele>
<time>2026-07-15T10:46:26.000Z</time>
</trkpt>
<trkpt lat="57.136661" lon="8.980338">
<ele>13.344983</ele>
<time>2026-07-15T10:46:27.000Z</time>
</trkpt>
<trkpt lat="57.136654" lon="8.980413">
<ele>13.343038</ele>
<time>2026-07-15T10:46:28.000Z</time>
</trkpt>
<trkpt lat="57.136642" lon="8.980498">
<ele>13.340793</ele>
<time>2026-07-15T10:46:29.000Z</time>
</trkpt>
<trkpt lat="57.136631" lon="8.980579">
<ele>13.338659</ele>
<time>2026-07-15T10:46:30.000Z</time>
</trkpt>
<trkpt lat="57.136619" lon="8.980662">
<ele>13.336464</ele>
<time>2026-07-15T10:46:31.000Z</time>
</trkpt>
<trkpt lat="57.136608" lon="8.980739">
<ele>13.334429</ele>
<time>2026-07-15T10:46:32.000Z</time>
</trkpt>
<trkpt lat="57.136597" lon="8.980819">
<ele>13.332320</ele>
<time>2026-07-15T10:46:33.000Z</time>
</trkpt>
<trkpt lat="57.136586" lon="8.980900">
<ele>13.330186</ele>
<time>2026-07-15T10:46:34.000Z</time>
</trkpt>
<trkpt lat="57.136578" lon="8.980987">
<ele>13.327931</ele>
<time>2026-07-15T10:46:35.000Z</time>
</trkpt>
<trkpt lat="57.136570" lon="8.981071">
<ele>13.325752</ele>
<time>2026-07-15T10:46:36.000Z</time>
</trkpt>
<trkpt lat="57.136562" lon="8.981150">
<ele>13.323698</ele>
<time>2026-07-15T10:46:37.000Z</time>
</trkpt>
<trkpt lat="57.136559" lon="8.981222">
<ele>13.321853</ele>
<time>2026-07-15T10:46:38.000Z</time>
</trkpt>
<trkpt lat="57.136555" lon="8.981301">
<ele>13.319825</ele>
<time>2026-07-15T10:46:39.000Z</time>
</trkpt>
<trkpt lat="57.136548" lon="8.981363">
<ele>13.318207</ele>
<time>2026-07-15T10:46:40.000Z</time>
</trkpt>
<trkpt lat="57.136536" lon="8.981449">
<ele>13.315937</ele>
<time>2026-07-15T10:46:41.000Z</time>
</trkpt>
<trkpt lat="57.136529" lon="8.981517">
<ele>13.314169</ele>
<time>2026-07-15T10:46:42.000Z</time>
</trkpt>
<trkpt lat="57.136520" lon="8.981599">
<ele>13.312031</ele>
<time>2026-07-15T10:46:43.000Z</time>
</trkpt>
<trkpt lat="57.136517" lon="8.981670">
<ele>13.310211</ele>
<time>2026-07-15T10:46:44.000Z</time>
</trkpt>
<trkpt lat="57.136513" lon="8.981743">
<ele>13.308335</ele>
<time>2026-07-15T10:46:45.000Z</time>
</trkpt>
<trkpt lat="57.136505" lon="8.981817">
<ele>13.306407</ele>
<time>2026-07-15T10:46:46.000Z</time>
</trkpt>
<trkpt lat="57.136494" lon="8.981904">
<ele>13.304124</ele>
<time>2026-07-15T10:46:47.000Z</time>
</trkpt>
<trkpt lat="57.136487" lon="8.981985">
<ele>13.302028</ele>
<time>2026-07-15T10:46:48.000Z</time>
</trkpt>
<trkpt lat="57.136475" lon="8.982078">
<ele>13.299585</ele>
<time>2026-07-15T10:46:49.000Z</time>
</trkpt>
<trkpt lat="57.136467" lon="8.982156">
<ele>13.297557</ele>
<time>2026-07-15T10:46:50.000Z</time>
</trkpt>
<trkpt lat="57.136463" lon="8.982243">
<ele>13.295325</ele>
<time>2026-07-15T10:46:51.000Z</time>
</trkpt>
<trkpt lat="57.136455" lon="8.982325">
<ele>13.293196</ele>
<time>2026-07-15T10:46:52.000Z</time>
</trkpt>
<trkpt lat="57.136444" lon="8.982413">
<ele>13.290888</ele>
<time>2026-07-15T10:46:53.000Z</time>
</trkpt>
<trkpt lat="57.136436" lon="8.982496">
<ele>13.288734</ele>
<time>2026-07-15T10:46:54.000Z</time>
</trkpt>
<trkpt lat="57.136425" lon="8.982575">
<ele>13.286662</ele>
<time>2026-07-15T10:46:55.000Z</time>
</trkpt>
<trkpt lat="57.136417" lon="8.982652">
<ele>13.288171</ele>
<time>2026-07-15T10:46:56.000Z</time>
</trkpt>
<trkpt lat="57.136410" lon="8.982727">
<ele>13.289635</ele>
<time>2026-07-15T10:46:57.000Z</time>
</trkpt>
<trkpt lat="57.136403" lon="8.982795">
<ele>13.290966</ele>
<time>2026-07-15T10:46:58.000Z</time>
</trkpt>
<trkpt lat="57.136398" lon="8.982895">
<ele>13.292899</ele>
<time>2026-07-15T10:46:59.000Z</time>
</trkpt>
<trkpt lat="57.136392" lon="8.982966">
<ele>13.294281</ele>
<time>2026-07-15T10:47:00.000Z</time>
</trkpt>
<trkpt lat="57.136383" lon="8.983067">
<ele>13.296251</ele>
<time>2026-07-15T10:47:01.000Z</time>
</trkpt>
<trkpt lat="57.136372" lon="8.983157">
<ele>13.298026</ele>
<time>2026-07-15T10:47:02.000Z</time>
</trkpt>
<trkpt lat="57.136360" lon="8.983247">
<ele>13.299809</ele>
<time>2026-07-15T10:47:03.000Z</time>
</trkpt>
<trkpt lat="57.136353" lon="8.983332">
<ele>13.301463</ele>
<time>2026-07-15T10:47:04.000Z</time>
</trkpt>
<trkpt lat="57.136341" lon="8.983420">
<ele>13.303209</ele>
<time>2026-07-15T10:47:05.000Z</time>
</trkpt>
<trkpt lat="57.136330" lon="8.983514">
<ele>13.305059</ele>
<time>2026-07-15T10:47:06.000Z</time>
</trkpt>
<trkpt lat="57.136318" lon="8.983600">
<ele>13.306767</ele>
<time>2026-07-15T10:47:07.000Z</time>
</trkpt>
<trkpt lat="57.136307" lon="8.983686">
<ele>13.308467</ele>
<time>2026-07-15T10:47:08.000Z</time>
</trkpt>
<trkpt lat="57.136291" lon="8.983771">
<ele>13.310198</ele>
<time>2026-07-15T10:47:09.000Z</time>
</trkpt>
<trkpt lat="57.136284" lon="8.983857">
<ele>13.311872</ele>
<time>2026-07-15T10:47:10.000Z</time>
</trkpt>
<trkpt lat="57.136272" lon="8.983946">
<ele>13.313636</ele>
<time>2026-07-15T10:47:11.000Z</time>
</trkpt>
<trkpt lat="57.136265" lon="8.984031">
<ele>13.315290</ele>
<time>2026-07-15T10:47:12.000Z</time>
</trkpt>
<trkpt lat="57.136253" lon="8.984121">
<ele>13.317074</ele>
<time>2026-07-15T10:47:13.000Z</time>
</trkpt>
<trkpt lat="57.136238" lon="8.984206">
<ele>13.318793</ele>
<time>2026-07-15T10:47:14.000Z</time>
</trkpt>
<trkpt lat="57.136228" lon="8.984279">
<ele>13.320242</ele>
<time>2026-07-15T10:47:15.000Z</time>
</trkpt>
<trkpt lat="57.136219" lon="8.984366">
<ele>13.321946</ele>
<time>2026-07-15T10:47:16.000Z</time>
</trkpt>
<trkpt lat="57.136212" lon="8.984441">
<ele>13.323410</ele>
<time>2026-07-15T10:47:17.000Z</time>
</trkpt>
<trkpt lat="57.136200" lon="8.984525">
<ele>13.325081</ele>
<time>2026-07-15T10:47:18.000Z</time>
</trkpt>
<trkpt lat="57.136189" lon="8.984599">
<ele>13.326558</ele>
<time>2026-07-15T10:47:19.000Z</time>
</trkpt>
<trkpt lat="57.136181" lon="8.984674">
<ele>13.328028</ele>
<time>2026-07-15T10:47:20.000Z</time>
</trkpt>
<trkpt lat="57.136173" lon="8.984745">
<ele>13.329424</ele>
<time>2026-07-15T10:47:21.000Z</time>
</trkpt>
<trkpt lat="57.136165" lon="8.984824">
<ele>13.330970</ele>
<time>2026-07-15T10:47:22.000Z</time>
</trkpt>
<trkpt lat="57.136154" lon="8.984897">
<ele>13.332428</ele>
<time>2026-07-15T10:47:23.000Z</time>
</trkpt>
<trkpt lat="57.136146" lon="8.984974">
<ele>13.333936</ele>
<time>2026-07-15T10:47:24.000Z</time>
</trkpt>
<trkpt lat="57.136140" lon="8.985045">
<ele>13.335319</ele>
<time>2026-07-15T10:47:25.000Z</time>
</trkpt>
<trkpt lat="57.136128" lon="8.985141">
<ele>13.337214</ele>
<time>2026-07-15T10:47:26.000Z</time>
</trkpt>
<trkpt lat="57.136115" lon="8.985211">
<ele>13.338638</ele>
<time>2026-07-15T10:47:27.000Z</time>
</trkpt>
<trkpt lat="57.136101" lon="8.985316">
<ele>13.340718</ele>
<time>2026-07-15T10:47:28.000Z</time>
</trkpt>
<trkpt lat="57.136093" lon="8.985392">
<ele>13.342208</ele>
<time>2026-07-15T10:47:29.000Z</time>
</trkpt>
<trkpt lat="57.136082" lon="8.985484">
<ele>13.344020</ele>
<time>2026-07-15T10:47:30.000Z</time>
</trkpt>
<trkpt lat="57.136078" lon="8.985570">
<ele>13.345681</ele>
<time>2026-07-15T10:47:31.000Z</time>
</trkpt>
<trkpt lat="57.136071" lon="8.985644">
<ele>13.347126</ele>
<time>2026-07-15T10:47:32.000Z</time>
</trkpt>
<trkpt lat="57.136063" lon="8.985722">
<ele>13.348654</ele>
<time>2026-07-15T10:47:33.000Z</time>
</trkpt>
<trkpt lat="57.136055" lon="8.985797">
<ele>13.350124</ele>
<time>2026-07-15T10:47:34.000Z</time>
</trkpt>
<trkpt lat="57.136043" lon="8.985881">
<ele>13.349721</ele>
<time>2026-07-15T10:47:35.000Z</time>
</trkpt>
<trkpt lat="57.136036" lon="8.985955">
<ele>13.348969</ele>
<time>2026-07-15T10:47:36.000Z</time>
</trkpt>
<trkpt lat="57.136024" lon="8.986041">
<ele>13.348079</ele>
<time>2026-07-15T10:47:37.000Z</time>
</trkpt>
<trkpt lat="57.136013" lon="8.986123">
<ele>13.347232</ele>
<time>2026-07-15T10:47:38.000Z</time>
</trkpt>
<trkpt lat="57.136005" lon="8.986202">
<ele>13.346427</ele>
<time>2026-07-15T10:47:39.000Z</time>
</trkpt>
<trkpt lat="57.135994" lon="8.986278">
<ele>13.345639</ele>
<time>2026-07-15T10:47:40.000Z</time>
</trkpt>
<trkpt lat="57.135985" lon="8.986344">
<ele>13.344957</ele>
<time>2026-07-15T10:47:41.000Z</time>
</trkpt>
<trkpt lat="57.135975" lon="8.986446">
<ele>13.343918</ele>
<time>2026-07-15T10:47:42.000Z</time>
</trkpt>
<trkpt lat="57.135967" lon="8.986527">
<ele>13.343093</ele>
<time>2026-07-15T10:47:43.000Z</time>
</trkpt>
<trkpt lat="57.135960" lon="8.986612">
<ele>13.342232</ele>
<time>2026-07-15T10:47:44.000Z</time>
</trkpt>
<trkpt lat="57.135956" lon="8.986690">
<ele>13.341447</ele>
<time>2026-07-15T10:47:45.000Z</time>
</trkpt>
<trkpt lat="57.135948" lon="8.986774">
<ele>13.340592</ele>
<time>2026-07-15T10:47:46.000Z</time>
</trkpt>
<trkpt lat="57.135937" lon="8.986848">
<ele>13.339824</ele>
<time>2026-07-15T10:47:47.000Z</time>
</trkpt>
<trkpt lat="57.135929" lon="8.986920">
<ele>13.339087</ele>
<time>2026-07-15T10:47:48.000Z</time>
</trkpt>
<trkpt lat="57.135921" lon="8.986997">
<ele>13.338302</ele>
<time>2026-07-15T10:47:49.000Z</time>
</trkpt>
<trkpt lat="57.135914" lon="8.987073">
<ele>13.337529</ele>
<time>2026-07-15T10:47:50.000Z</time>
</trkpt>
<trkpt lat="57.135910" lon="8.987140">
<ele>13.336854</ele>
<time>2026-07-15T10:47:51.000Z</time>
</trkpt>
<trkpt lat="57.135906" lon="8.987210">
<ele>13.336148</ele>
<time>2026-07-15T10:47:52.000Z</time>
</trkpt>
<trkpt lat="57.135895" lon="8.987294">
<ele>13.335283</ele>
<time>2026-07-15T10:47:53.000Z</time>
</trkpt>
<trkpt lat="57.135887" lon="8.987365">
<ele>13.334556</ele>
<time>2026-07-15T10:47:54.000Z</time>
</trkpt>
<trkpt lat="57.135879" lon="8.987443">
<ele>13.333761</ele>
<time>2026-07-15T10:47:55.000Z</time>
</trkpt>
<trkpt lat="57.135872" lon="8.987507">
<ele>13.333106</ele>
<time>2026-07-15T10:47:56.000Z</time>
</trkpt>
<trkpt lat="57.135864" lon="8.987599">
<ele>13.332173</ele>
<time>2026-07-15T10:47:57.000Z</time>
</trkpt>
<trkpt lat="57.135857" lon="8.987677">
<ele>13.331380</ele>
<time>2026-07-15T10:47:58.000Z</time>
</trkpt>
<trkpt lat="57.135849" lon="8.987751">
<ele>13.330624</ele>
<time>2026-07-15T10:47:59.000Z</time>
</trkpt>
<trkpt lat="57.135842" lon="8.987827">
<ele>13.329852</ele>
<time>2026-07-15T10:48:00.000Z</time>
</trkpt>
<trkpt lat="57.135830" lon="8.987912">
<ele>13.328972</ele>
<time>2026-07-15T10:48:01.000Z</time>
</trkpt>
<trkpt lat="57.135819" lon="8.987988">
<ele>13.328184</ele>
<time>2026-07-15T10:48:02.000Z</time>
</trkpt>
<trkpt lat="57.135811" lon="8.988079">
<ele>13.327260</ele>
<time>2026-07-15T10:48:03.000Z</time>
</trkpt>
<trkpt lat="57.135803" lon="8.988161">
<ele>13.326425</ele>
<time>2026-07-15T10:48:04.000Z</time>
</trkpt>
<trkpt lat="57.135796" lon="8.988242">
<ele>13.325603</ele>
<time>2026-07-15T10:48:05.000Z</time>
</trkpt>
<trkpt lat="57.135788" lon="8.988324">
<ele>13.324768</ele>
<time>2026-07-15T10:48:06.000Z</time>
</trkpt>
<trkpt lat="57.135777" lon="8.988405">
<ele>13.323932</ele>
<time>2026-07-15T10:48:07.000Z</time>
</trkpt>
<trkpt lat="57.135765" lon="8.988487">
<ele>13.323081</ele>
<time>2026-07-15T10:48:08.000Z</time>
</trkpt>
<trkpt lat="57.135758" lon="8.988582">
<ele>13.322120</ele>
<time>2026-07-15T10:48:09.000Z</time>
</trkpt>
<trkpt lat="57.135742" lon="8.988677">
<ele>13.321123</ele>
<time>2026-07-15T10:48:10.000Z</time>
</trkpt>
<trkpt lat="57.135727" lon="8.988783">
<ele>13.320026</ele>
<time>2026-07-15T10:48:11.000Z</time>
</trkpt>
<trkpt lat="57.135715" lon="8.988887">
<ele>13.318960</ele>
<time>2026-07-15T10:48:12.000Z</time>
</trkpt>
<trkpt lat="57.135700" lon="8.988987">
<ele>13.317921</ele>
<time>2026-07-15T10:48:13.000Z</time>
</trkpt>
<trkpt lat="57.135685" lon="8.989082">
<ele>13.316806</ele>
<time>2026-07-15T10:48:14.000Z</time>
</trkpt>
<trkpt lat="57.135673" lon="8.989166">
<ele>13.315565</ele>
<time>2026-07-15T10:48:15.000Z</time>
</trkpt>
<trkpt lat="57.135662" lon="8.989260">
<ele>13.314191</ele>
<time>2026-07-15T10:48:16.000Z</time>
</trkpt>
<trkpt lat="57.135651" lon="8.989355">
<ele>13.312803</ele>
<time>2026-07-15T10:48:17.000Z</time>
</trkpt>
<trkpt lat="57.135643" lon="8.989452">
<ele>13.311402</ele>
<time>2026-07-15T10:48:18.000Z</time>
</trkpt>
<trkpt lat="57.135631" lon="8.989532">
<ele>13.310216</ele>
<time>2026-07-15T10:48:19.000Z</time>
</trkpt>
<trkpt lat="57.135620" lon="8.989623">
<ele>13.308884</ele>
<time>2026-07-15T10:48:20.000Z</time>
</trkpt>
<trkpt lat="57.135613" lon="8.989707">
<ele>13.307670</ele>
<time>2026-07-15T10:48:21.000Z</time>
</trkpt>
<trkpt lat="57.135597" lon="8.989794">
<ele>13.306357</ele>
<time>2026-07-15T10:48:22.000Z</time>
</trkpt>
<trkpt lat="57.135590" lon="8.989872">
<ele>13.305228</ele>
<time>2026-07-15T10:48:23.000Z</time>
</trkpt>
<trkpt lat="57.135578" lon="8.989947">
<ele>13.304110</ele>
<time>2026-07-15T10:48:24.000Z</time>
</trkpt>
<trkpt lat="57.135571" lon="8.990016">
<ele>13.303108</ele>
<time>2026-07-15T10:48:25.000Z</time>
</trkpt>
<trkpt lat="57.135563" lon="8.990087">
<ele>13.302072</ele>
<time>2026-07-15T10:48:26.000Z</time>
</trkpt>
<trkpt lat="57.135552" lon="8.990155">
<ele>13.301058</ele>
<time>2026-07-15T10:48:27.000Z</time>
</trkpt>
<trkpt lat="57.135548" lon="8.990232">
<ele>13.299953</ele>
<time>2026-07-15T10:48:28.000Z</time>
</trkpt>
<trkpt lat="57.135540" lon="8.990305">
<ele>13.298889</ele>
<time>2026-07-15T10:48:29.000Z</time>
</trkpt>
<trkpt lat="57.135532" lon="8.990393">
<ele>13.297614</ele>
<time>2026-07-15T10:48:30.000Z</time>
</trkpt>
<trkpt lat="57.135525" lon="8.990476">
<ele>13.296414</ele>
<time>2026-07-15T10:48:31.000Z</time>
</trkpt>
<trkpt lat="57.135517" lon="8.990561">
<ele>13.295181</ele>
<time>2026-07-15T10:48:32.000Z</time>
</trkpt>
<trkpt lat="57.135513" lon="8.990649">
<ele>13.293920</ele>
<time>2026-07-15T10:48:33.000Z</time>
</trkpt>
<trkpt lat="57.135506" lon="8.990734">
<ele>13.292691</ele>
<time>2026-07-15T10:48:34.000Z</time>
</trkpt>
<trkpt lat="57.135502" lon="8.990814">
<ele>13.291543</ele>
<time>2026-07-15T10:48:35.000Z</time>
</trkpt>
<trkpt lat="57.135498" lon="8.990894">
<ele>13.290396</ele>
<time>2026-07-15T10:48:36.000Z</time>
</trkpt>
<trkpt lat="57.135487" lon="8.990967">
<ele>13.289313</ele>
<time>2026-07-15T10:48:37.000Z</time>
</trkpt>
<trkpt lat="57.135483" lon="8.991057">
<ele>13.288023</ele>
<time>2026-07-15T10:48:38.000Z</time>
</trkpt>
<trkpt lat="57.135479" lon="8.991138">
<ele>13.286861</ele>
<time>2026-07-15T10:48:39.000Z</time>
</trkpt>
<trkpt lat="57.135479" lon="8.991225">
<ele>13.285618</ele>
<time>2026-07-15T10:48:40.000Z</time>
</trkpt>
<trkpt lat="57.135479" lon="8.991305">
<ele>13.284475</ele>
<time>2026-07-15T10:48:41.000Z</time>
</trkpt>
<trkpt lat="57.135479" lon="8.991394">
<ele>13.283204</ele>
<time>2026-07-15T10:48:42.000Z</time>
</trkpt>
<trkpt lat="57.135479" lon="8.991476">
<ele>13.282032</ele>
<time>2026-07-15T10:48:43.000Z</time>
</trkpt>
<trkpt lat="57.135483" lon="8.991564">
<ele>13.280770</ele>
<time>2026-07-15T10:48:44.000Z</time>
</trkpt>
<trkpt lat="57.135487" lon="8.991650">
<ele>13.279537</ele>
<time>2026-07-15T10:48:45.000Z</time>
</trkpt>
<trkpt lat="57.135494" lon="8.991737">
<ele>13.278281</ele>
<time>2026-07-15T10:48:46.000Z</time>
</trkpt>
<trkpt lat="57.135498" lon="8.991825">
<ele>13.277019</ele>
<time>2026-07-15T10:48:47.000Z</time>
</trkpt>
<trkpt lat="57.135502" lon="8.991919">
<ele>13.275672</ele>
<time>2026-07-15T10:48:48.000Z</time>
</trkpt>
<trkpt lat="57.135502" lon="8.992003">
<ele>13.274472</ele>
<time>2026-07-15T10:48:49.000Z</time>
</trkpt>
<trkpt lat="57.135510" lon="8.992091">
<ele>13.273197</ele>
<time>2026-07-15T10:48:50.000Z</time>
</trkpt>
<trkpt lat="57.135525" lon="8.992172">
<ele>13.271974</ele>
<time>2026-07-15T10:48:51.000Z</time>
</trkpt>
<trkpt lat="57.135532" lon="8.992251">
<ele>13.270830</ele>
<time>2026-07-15T10:48:52.000Z</time>
</trkpt>
<trkpt lat="57.135548" lon="8.992337">
<ele>13.266522</ele>
<time>2026-07-15T10:48:53.000Z</time>
</trkpt>
<trkpt lat="57.135558" lon="8.992411">
<ele>13.255556</ele>
<time>2026-07-15T10:48:54.000Z</time>
</trkpt>
<trkpt lat="57.135575" lon="8.992486">
<ele>13.243869</ele>
<time>2026-07-15T10:48:55.000Z</time>
</trkpt>
<trkpt lat="57.135593" lon="8.992563">
<ele>13.231813</ele>
<time>2026-07-15T10:48:56.000Z</time>
</trkpt>
<trkpt lat="57.135613" lon="8.992637">
<ele>13.219926</ele>
<time>2026-07-15T10:48:57.000Z</time>
</trkpt>
<trkpt lat="57.135632" lon="8.992711">
<ele>13.208155</ele>
<time>2026-07-15T10:48:58.000Z</time>
</trkpt>
<trkpt lat="57.135650" lon="8.992780">
<ele>13.197146</ele>
<time>2026-07-15T10:48:59.000Z</time>
</trkpt>
<trkpt lat="57.135674" lon="8.992853">
<ele>13.184873</ele>
<time>2026-07-15T10:49:00.000Z</time>
</trkpt>
<trkpt lat="57.135688" lon="8.992915">
<ele>13.175217</ele>
<time>2026-07-15T10:49:01.000Z</time>
</trkpt>
<trkpt lat="57.135712" lon="8.992983">
<ele>13.163553</ele>
<time>2026-07-15T10:49:02.000Z</time>
</trkpt>
<trkpt lat="57.135735" lon="8.993050">
<ele>13.152153</ele>
<time>2026-07-15T10:49:03.000Z</time>
</trkpt>
<trkpt lat="57.135753" lon="8.993116">
<ele>13.141532</ele>
<time>2026-07-15T10:49:04.000Z</time>
</trkpt>
<trkpt lat="57.135772" lon="8.993181">
<ele>13.130915</ele>
<time>2026-07-15T10:49:05.000Z</time>
</trkpt>
<trkpt lat="57.135792" lon="8.993248">
<ele>13.119920</ele>
<time>2026-07-15T10:49:06.000Z</time>
</trkpt>
<trkpt lat="57.135807" lon="8.993307">
<ele>13.110551</ele>
<time>2026-07-15T10:49:07.000Z</time>
</trkpt>
<trkpt lat="57.135826" lon="8.993364">
<ele>13.100932</ele>
<time>2026-07-15T10:49:08.000Z</time>
</trkpt>
<trkpt lat="57.135840" lon="8.993409">
<ele>13.093474</ele>
<time>2026-07-15T10:49:09.000Z</time>
</trkpt>
<trkpt lat="57.135860" lon="8.993486">
<ele>13.081199</ele>
<time>2026-07-15T10:49:10.000Z</time>
</trkpt>
<trkpt lat="57.135875" lon="8.993530">
<ele>13.073727</ele>
<time>2026-07-15T10:49:11.000Z</time>
</trkpt>
<trkpt lat="57.135899" lon="8.993613">
<ele>13.060204</ele>
<time>2026-07-15T10:49:12.000Z</time>
</trkpt>
<trkpt lat="57.135921" lon="8.993686">
<ele>13.048197</ele>
<time>2026-07-15T10:49:13.000Z</time>
</trkpt>
<trkpt lat="57.135944" lon="8.993757">
<ele>13.036307</ele>
<time>2026-07-15T10:49:14.000Z</time>
</trkpt>
<trkpt lat="57.135963" lon="8.993821">
<ele>13.025818</ele>
<time>2026-07-15T10:49:15.000Z</time>
</trkpt>
<trkpt lat="57.135986" lon="8.993892">
<ele>13.013928</ele>
<time>2026-07-15T10:49:16.000Z</time>
</trkpt>
<trkpt lat="57.136001" lon="8.993956">
<ele>13.003903</ele>
<time>2026-07-15T10:49:17.000Z</time>
</trkpt>
<trkpt lat="57.136027" lon="8.994008">
<ele>12.993736</ele>
<time>2026-07-15T10:49:18.000Z</time>
</trkpt>
<trkpt lat="57.136051" lon="8.994071">
<ele>12.982668</ele>
<time>2026-07-15T10:49:19.000Z</time>
</trkpt>
<trkpt lat="57.136070" lon="8.994126">
<ele>12.973293</ele>
<time>2026-07-15T10:49:20.000Z</time>
</trkpt>
<trkpt lat="57.136093" lon="8.994178">
<ele>12.963647</ele>
<time>2026-07-15T10:49:21.000Z</time>
</trkpt>
<trkpt lat="57.136115" lon="8.994228">
<ele>12.954391</ele>
<time>2026-07-15T10:49:22.000Z</time>
</trkpt>
<trkpt lat="57.136139" lon="8.994284">
<ele>12.944130</ele>
<time>2026-07-15T10:49:23.000Z</time>
</trkpt>
<trkpt lat="57.136161" lon="8.994331">
<ele>12.935205</ele>
<time>2026-07-15T10:49:24.000Z</time>
</trkpt>
<trkpt lat="57.136189" lon="8.994383">
<ele>12.924672</ele>
<time>2026-07-15T10:49:25.000Z</time>
</trkpt>
<trkpt lat="57.136210" lon="8.994434">
<ele>12.915466</ele>
<time>2026-07-15T10:49:26.000Z</time>
</trkpt>
<trkpt lat="57.136231" lon="8.994492">
<ele>12.905440</ele>
<time>2026-07-15T10:49:27.000Z</time>
</trkpt>
<trkpt lat="57.136252" lon="8.994543">
<ele>12.896235</ele>
<time>2026-07-15T10:49:28.000Z</time>
</trkpt>
<trkpt lat="57.136273" lon="8.994592">
<ele>12.887257</ele>
<time>2026-07-15T10:49:29.000Z</time>
</trkpt>
<trkpt lat="57.136291" lon="8.994641">
<ele>12.878748</ele>
<time>2026-07-15T10:49:30.000Z</time>
</trkpt>
<trkpt lat="57.136318" lon="8.994709">
<ele>12.866633</ele>
<time>2026-07-15T10:49:31.000Z</time>
</trkpt>
<trkpt lat="57.136343" lon="8.994773">
<ele>12.855294</ele>
<time>2026-07-15T10:49:32.000Z</time>
</trkpt>
<trkpt lat="57.136372" lon="8.994863">
<ele>12.840243</ele>
<time>2026-07-15T10:49:33.000Z</time>
</trkpt>
<trkpt lat="57.136395" lon="8.994944">
<ele>12.827098</ele>
<time>2026-07-15T10:49:34.000Z</time>
</trkpt>
<trkpt lat="57.136417" lon="8.995020">
<ele>12.814713</ele>
<time>2026-07-15T10:49:35.000Z</time>
</trkpt>
<trkpt lat="57.136440" lon="8.995102">
<ele>12.801440</ele>
<time>2026-07-15T10:49:36.000Z</time>
</trkpt>
<trkpt lat="57.136463" lon="8.995172">
<ele>12.788407</ele>
<time>2026-07-15T10:49:37.000Z</time>
</trkpt>
<trkpt lat="57.136490" lon="8.995263">
<ele>12.768230</ele>
<time>2026-07-15T10:49:38.000Z</time>
</trkpt>
<trkpt lat="57.136509" lon="8.995343">
<ele>12.751240</ele>
<time>2026-07-15T10:49:39.000Z</time>
</trkpt>
<trkpt lat="57.136532" lon="8.995421">
<ele>12.733970</ele>
<time>2026-07-15T10:49:40.000Z</time>
</trkpt>
<trkpt lat="57.136551" lon="8.995494">
<ele>12.718218</ele>
<time>2026-07-15T10:49:41.000Z</time>
</trkpt>
<trkpt lat="57.136573" lon="8.995562">
<ele>12.702816</ele>
<time>2026-07-15T10:49:42.000Z</time>
</trkpt>
<trkpt lat="57.136589" lon="8.995644">
<ele>12.685863</ele>
<time>2026-07-15T10:49:43.000Z</time>
</trkpt>
<trkpt lat="57.136610" lon="8.995710">
<ele>12.670978</ele>
<time>2026-07-15T10:49:44.000Z</time>
</trkpt>
<trkpt lat="57.136635" lon="8.995790">
<ele>12.653018</ele>
<time>2026-07-15T10:49:45.000Z</time>
</trkpt>
<trkpt lat="57.136656" lon="8.995856">
<ele>12.638133</ele>
<time>2026-07-15T10:49:46.000Z</time>
</trkpt>
<trkpt lat="57.136677" lon="8.995934">
<ele>12.621193</ele>
<time>2026-07-15T10:49:47.000Z</time>
</trkpt>
<trkpt lat="57.136695" lon="8.995998">
<ele>12.607169</ele>
<time>2026-07-15T10:49:48.000Z</time>
</trkpt>
<trkpt lat="57.136715" lon="8.996061">
<ele>12.592969</ele>
<time>2026-07-15T10:49:49.000Z</time>
</trkpt>
<trkpt lat="57.136729" lon="8.996124">
<ele>12.579724</ele>
<time>2026-07-15T10:49:50.000Z</time>
</trkpt>
<trkpt lat="57.136746" lon="8.996197">
<ele>12.564270</ele>
<time>2026-07-15T10:49:51.000Z</time>
</trkpt>
<trkpt lat="57.136759" lon="8.996262">
<ele>12.550793</ele>
<time>2026-07-15T10:49:52.000Z</time>
</trkpt>
<trkpt lat="57.136780" lon="8.996340">
<ele>12.533853</ele>
<time>2026-07-15T10:49:53.000Z</time>
</trkpt>
<trkpt lat="57.136794" lon="8.996410">
<ele>12.519339</ele>
<time>2026-07-15T10:49:54.000Z</time>
</trkpt>
<trkpt lat="57.136810" lon="8.996481">
<ele>12.504382</ele>
<time>2026-07-15T10:49:55.000Z</time>
</trkpt>
<trkpt lat="57.136825" lon="8.996546">
<ele>12.490640</ele>
<time>2026-07-15T10:49:56.000Z</time>
</trkpt>
<trkpt lat="57.136845" lon="8.996612">
<ele>12.475934</ele>
<time>2026-07-15T10:49:57.000Z</time>
</trkpt>
<trkpt lat="57.136859" lon="8.996677">
<ele>12.462328</ele>
<time>2026-07-15T10:49:58.000Z</time>
</trkpt>
<trkpt lat="57.136883" lon="8.996745">
<ele>12.446547</ele>
<time>2026-07-15T10:49:59.000Z</time>
</trkpt>
<trkpt lat="57.136902" lon="8.996802">
<ele>12.433533</ele>
<time>2026-07-15T10:50:00.000Z</time>
</trkpt>
<trkpt lat="57.136921" lon="8.996879">
<ele>12.417076</ele>
<time>2026-07-15T10:50:01.000Z</time>
</trkpt>
<trkpt lat="57.136938" lon="8.996943">
<ele>12.403213</ele>
<time>2026-07-15T10:50:02.000Z</time>
</trkpt>
<trkpt lat="57.136955" lon="8.997024">
<ele>12.386318</ele>
<time>2026-07-15T10:50:03.000Z</time>
</trkpt>
<trkpt lat="57.136977" lon="8.997098">
<ele>12.369902</ele>
<time>2026-07-15T10:50:04.000Z</time>
</trkpt>
<trkpt lat="57.136993" lon="8.997176">
<ele>12.353679</ele>
<time>2026-07-15T10:50:05.000Z</time>
</trkpt>
<trkpt lat="57.137009" lon="8.997249">
<ele>12.338362</ele>
<time>2026-07-15T10:50:06.000Z</time>
</trkpt>
<trkpt lat="57.137026" lon="8.997323">
<ele>12.322729</ele>
<time>2026-07-15T10:50:07.000Z</time>
</trkpt>
<trkpt lat="57.137046" lon="8.997405">
<ele>12.305239</ele>
<time>2026-07-15T10:50:08.000Z</time>
</trkpt>
<trkpt lat="57.137058" lon="8.997497">
<ele>12.286830</ele>
<time>2026-07-15T10:50:09.000Z</time>
</trkpt>
<trkpt lat="57.137081" lon="8.997596">
<ele>12.265879</ele>
<time>2026-07-15T10:50:10.000Z</time>
</trkpt>
<trkpt lat="57.137099" lon="8.997693">
<ele>12.245935</ele>
<time>2026-07-15T10:50:11.000Z</time>
</trkpt>
<trkpt lat="57.137123" lon="8.997783">
<ele>12.226426</ele>
<time>2026-07-15T10:50:12.000Z</time>
</trkpt>
<trkpt lat="57.137142" lon="8.997869">
<ele>12.208362</ele>
<time>2026-07-15T10:50:13.000Z</time>
</trkpt>
<trkpt lat="57.137157" lon="8.997966">
<ele>12.188739</ele>
<time>2026-07-15T10:50:14.000Z</time>
</trkpt>
<trkpt lat="57.137176" lon="8.998062">
<ele>12.168859</ele>
<time>2026-07-15T10:50:15.000Z</time>
</trkpt>
<trkpt lat="57.137192" lon="8.998158">
<ele>12.149322</ele>
<time>2026-07-15T10:50:16.000Z</time>
</trkpt>
<trkpt lat="57.137207" lon="8.998248">
<ele>12.150654</ele>
<time>2026-07-15T10:50:17.000Z</time>
</trkpt>
<trkpt lat="57.137226" lon="8.998344">
<ele>12.153228</ele>
<time>2026-07-15T10:50:18.000Z</time>
</trkpt>
<trkpt lat="57.137245" lon="8.998432">
<ele>12.155614</ele>
<time>2026-07-15T10:50:19.000Z</time>
</trkpt>
<trkpt lat="57.137264" lon="8.998522">
<ele>12.158046</ele>
<time>2026-07-15T10:50:20.000Z</time>
</trkpt>
<trkpt lat="57.137280" lon="8.998612">
<ele>12.160432</ele>
<time>2026-07-15T10:50:21.000Z</time>
</trkpt>
<trkpt lat="57.137294" lon="8.998706">
<ele>12.162888</ele>
<time>2026-07-15T10:50:22.000Z</time>
</trkpt>
<trkpt lat="57.137310" lon="8.998802">
<ele>12.165417</ele>
<time>2026-07-15T10:50:23.000Z</time>
</trkpt>
<trkpt lat="57.137329" lon="8.998895">
<ele>12.167921</ele>
<time>2026-07-15T10:50:24.000Z</time>
</trkpt>
<trkpt lat="57.137348" lon="8.998985">
<ele>12.170353</ele>
<time>2026-07-15T10:50:25.000Z</time>
</trkpt>
<trkpt lat="57.137367" lon="8.999068">
<ele>12.172622</ele>
<time>2026-07-15T10:50:26.000Z</time>
</trkpt>
<trkpt lat="57.137383" lon="8.999158">
<ele>12.175008</ele>
<time>2026-07-15T10:50:27.000Z</time>
</trkpt>
<trkpt lat="57.137401" lon="8.999244">
<ele>12.177330</ele>
<time>2026-07-15T10:50:28.000Z</time>
</trkpt>
<trkpt lat="57.137415" lon="8.999318">
<ele>12.179304</ele>
<time>2026-07-15T10:50:29.000Z</time>
</trkpt>
<trkpt lat="57.137436" lon="8.999413">
<ele>12.181888</ele>
<time>2026-07-15T10:50:30.000Z</time>
</trkpt>
<trkpt lat="57.137455" lon="8.999498">
<ele>12.184204</ele>
<time>2026-07-15T10:50:31.000Z</time>
</trkpt>
<trkpt lat="57.137470" lon="8.999584">
<ele>12.186480</ele>
<time>2026-07-15T10:50:32.000Z</time>
</trkpt>
<trkpt lat="57.137489" lon="8.999664">
<ele>12.188679</ele>
<time>2026-07-15T10:50:33.000Z</time>
</trkpt>
<trkpt lat="57.137508" lon="8.999744">
<ele>12.190879</ele>
<time>2026-07-15T10:50:34.000Z</time>
</trkpt>
<trkpt lat="57.137524" lon="8.999835">
<ele>12.193289</ele>
<time>2026-07-15T10:50:35.000Z</time>
</trkpt>
<trkpt lat="57.137543" lon="8.999917">
<ele>12.195535</ele>
<time>2026-07-15T10:50:36.000Z</time>
</trkpt>
<trkpt lat="57.137558" lon="9.000008">
<ele>12.197931</ele>
<time>2026-07-15T10:50:37.000Z</time>
</trkpt>
<trkpt lat="57.137573" lon="9.000098">
<ele>12.200302</ele>
<time>2026-07-15T10:50:38.000Z</time>
</trkpt>
<trkpt lat="57.137588" lon="9.000189">
<ele>12.202698</ele>
<time>2026-07-15T10:50:39.000Z</time>
</trkpt>
<trkpt lat="57.137608" lon="9.000287">
<ele>12.205335</ele>
<time>2026-07-15T10:50:40.000Z</time>
</trkpt>
<trkpt lat="57.137626" lon="9.000373">
<ele>12.207657</ele>
<time>2026-07-15T10:50:41.000Z</time>
</trkpt>
<trkpt lat="57.137642" lon="9.000460">
<ele>12.209971</ele>
<time>2026-07-15T10:50:42.000Z</time>
</trkpt>
<trkpt lat="57.137660" lon="9.000547">
<ele>12.212317</ele>
<time>2026-07-15T10:50:43.000Z</time>
</trkpt>
<trkpt lat="57.137680" lon="9.000636">
<ele>12.214743</ele>
<time>2026-07-15T10:50:44.000Z</time>
</trkpt>
<trkpt lat="57.137695" lon="9.000724">
<ele>12.217067</ele>
<time>2026-07-15T10:50:45.000Z</time>
</trkpt>
<trkpt lat="57.137714" lon="9.000812">
<ele>12.219453</ele>
<time>2026-07-15T10:50:46.000Z</time>
</trkpt>
<trkpt lat="57.137733" lon="9.000899">
<ele>12.221815</ele>
<time>2026-07-15T10:50:47.000Z</time>
</trkpt>
<trkpt lat="57.137752" lon="9.000986">
<ele>12.224177</ele>
<time>2026-07-15T10:50:48.000Z</time>
</trkpt>
<trkpt lat="57.137771" lon="9.001072">
<ele>12.226516</ele>
<time>2026-07-15T10:50:49.000Z</time>
</trkpt>
<trkpt lat="57.137786" lon="9.001155">
<ele>12.228720</ele>
<time>2026-07-15T10:50:50.000Z</time>
</trkpt>
<trkpt lat="57.137806" lon="9.001245">
<ele>12.231170</ele>
<time>2026-07-15T10:50:51.000Z</time>
</trkpt>
<trkpt lat="57.137824" lon="9.001332">
<ele>12.227973</ele>
<time>2026-07-15T10:50:52.000Z</time>
</trkpt>
<trkpt lat="57.137844" lon="9.001423">
<ele>12.221963</ele>
<time>2026-07-15T10:50:53.000Z</time>
</trkpt>
<trkpt lat="57.137863" lon="9.001510">
<ele>12.216222</ele>
<time>2026-07-15T10:50:54.000Z</time>
</trkpt>
<trkpt lat="57.137882" lon="9.001598">
<ele>12.210425</ele>
<time>2026-07-15T10:50:55.000Z</time>
</trkpt>
<trkpt lat="57.137900" lon="9.001681">
<ele>12.204953</ele>
<time>2026-07-15T10:50:56.000Z</time>
</trkpt>
<trkpt lat="57.137916" lon="9.001769">
<ele>12.199272</ele>
<time>2026-07-15T10:50:57.000Z</time>
</trkpt>
<trkpt lat="57.137935" lon="9.001848">
<ele>12.193983</ele>
<time>2026-07-15T10:50:58.000Z</time>
</trkpt>
<trkpt lat="57.137953" lon="9.001922">
<ele>12.189018</ele>
<time>2026-07-15T10:50:59.000Z</time>
</trkpt>
<trkpt lat="57.137970" lon="9.002004">
<ele>12.183645</ele>
<time>2026-07-15T10:51:00.000Z</time>
</trkpt>
<trkpt lat="57.137989" lon="9.002076">
<ele>12.178744</ele>
<time>2026-07-15T10:51:01.000Z</time>
</trkpt>
<trkpt lat="57.138008" lon="9.002152">
<ele>12.173622</ele>
<time>2026-07-15T10:51:02.000Z</time>
</trkpt>
<trkpt lat="57.138026" lon="9.002220">
<ele>12.168991</ele>
<time>2026-07-15T10:51:03.000Z</time>
</trkpt>
<trkpt lat="57.138049" lon="9.002291">
<ele>12.163929</ele>
<time>2026-07-15T10:51:04.000Z</time>
</trkpt>
<trkpt lat="57.138068" lon="9.002368">
<ele>12.158751</ele>
<time>2026-07-15T10:51:05.000Z</time>
</trkpt>
<trkpt lat="57.138088" lon="9.002449">
<ele>12.153303</ele>
<time>2026-07-15T10:51:06.000Z</time>
</trkpt>
<trkpt lat="57.138111" lon="9.002522">
<ele>12.148136</ele>
<time>2026-07-15T10:51:07.000Z</time>
</trkpt>
<trkpt lat="57.138134" lon="9.002593">
<ele>12.143075</ele>
<time>2026-07-15T10:51:08.000Z</time>
</trkpt>
<trkpt lat="57.138149" lon="9.002673">
<ele>12.137893</ele>
<time>2026-07-15T10:51:09.000Z</time>
</trkpt>
<trkpt lat="57.138168" lon="9.002748">
<ele>12.132827</ele>
<time>2026-07-15T10:51:10.000Z</time>
</trkpt>
<trkpt lat="57.138187" lon="9.002828">
<ele>12.127481</ele>
<time>2026-07-15T10:51:11.000Z</time>
</trkpt>
<trkpt lat="57.138206" lon="9.002902">
<ele>12.122470</ele>
<time>2026-07-15T10:51:12.000Z</time>
</trkpt>
<trkpt lat="57.138221" lon="9.002979">
<ele>12.117462</ele>
<time>2026-07-15T10:51:13.000Z</time>
</trkpt>
<trkpt lat="57.138233" lon="9.003059">
<ele>12.112381</ele>
<time>2026-07-15T10:51:14.000Z</time>
</trkpt>
<trkpt lat="57.138249" lon="9.003123">
<ele>12.108068</ele>
<time>2026-07-15T10:51:15.000Z</time>
</trkpt>
<trkpt lat="57.138268" lon="9.003219">
<ele>12.101813</ele>
<time>2026-07-15T10:51:16.000Z</time>
</trkpt>
<trkpt lat="57.138284" lon="9.003287">
<ele>12.097276</ele>
<time>2026-07-15T10:51:17.000Z</time>
</trkpt>
<trkpt lat="57.138306" lon="9.003383">
<ele>12.090897</ele>
<time>2026-07-15T10:51:18.000Z</time>
</trkpt>
<trkpt lat="57.138324" lon="9.003471">
<ele>12.085140</ele>
<time>2026-07-15T10:51:19.000Z</time>
</trkpt>
<trkpt lat="57.138340" lon="9.003570">
<ele>12.078817</ele>
<time>2026-07-15T10:51:20.000Z</time>
</trkpt>
<trkpt lat="57.138359" lon="9.003658">
<ele>12.073019</ele>
<time>2026-07-15T10:51:21.000Z</time>
</trkpt>
<trkpt lat="57.138382" lon="9.003743">
<ele>12.067205</ele>
<time>2026-07-15T10:51:22.000Z</time>
</trkpt>
<trkpt lat="57.138405" lon="9.003828">
<ele>12.061391</ele>
<time>2026-07-15T10:51:23.000Z</time>
</trkpt>
<trkpt lat="57.138424" lon="9.003916">
<ele>12.055593</ele>
<time>2026-07-15T10:51:24.000Z</time>
</trkpt>
<trkpt lat="57.138443" lon="9.004012">
<ele>12.049338</ele>
<time>2026-07-15T10:51:25.000Z</time>
</trkpt>
<trkpt lat="57.138462" lon="9.004109">
<ele>12.043026</ele>
<time>2026-07-15T10:51:26.000Z</time>
</trkpt>
<trkpt lat="57.138481" lon="9.004199">
<ele>12.037114</ele>
<time>2026-07-15T10:51:27.000Z</time>
</trkpt>
<trkpt lat="57.138499" lon="9.004289">
<ele>12.031243</ele>
<time>2026-07-15T10:51:28.000Z</time>
</trkpt>
<trkpt lat="57.138515" lon="9.004383">
<ele>12.011149</ele>
<time>2026-07-15T10:51:29.000Z</time>
</trkpt>
<trkpt lat="57.138533" lon="9.004471">
<ele>11.983976</ele>
<time>2026-07-15T10:51:30.000Z</time>
</trkpt>
<trkpt lat="57.138549" lon="9.004565">
<ele>11.955511</ele>
<time>2026-07-15T10:51:31.000Z</time>
</trkpt>
<trkpt lat="57.138568" lon="9.004647">
<ele>11.929748</ele>
<time>2026-07-15T10:51:32.000Z</time>
</trkpt>
<trkpt lat="57.138588" lon="9.004739">
<ele>11.901112</ele>
<time>2026-07-15T10:51:33.000Z</time>
</trkpt>
<trkpt lat="57.138603" lon="9.004822">
<ele>11.875835</ele>
<time>2026-07-15T10:51:34.000Z</time>
</trkpt>
<trkpt lat="57.138622" lon="9.004902">
<ele>11.850603</ele>
<time>2026-07-15T10:51:35.000Z</time>
</trkpt>
<trkpt lat="57.138644" lon="9.004986">
<ele>11.823653</ele>
<time>2026-07-15T10:51:36.000Z</time>
</trkpt>
<trkpt lat="57.138663" lon="9.005077">
<ele>11.795481</ele>
<time>2026-07-15T10:51:37.000Z</time>
</trkpt>
<trkpt lat="57.138687" lon="9.005170">
<ele>11.765725</ele>
<time>2026-07-15T10:51:38.000Z</time>
</trkpt>
<trkpt lat="57.138706" lon="9.005253">
<ele>11.739697</ele>
<time>2026-07-15T10:51:39.000Z</time>
</trkpt>
<trkpt lat="57.138729" lon="9.005331">
<ele>11.714047</ele>
<time>2026-07-15T10:51:40.000Z</time>
</trkpt>
<trkpt lat="57.138744" lon="9.005412">
<ele>11.689318</ele>
<time>2026-07-15T10:51:41.000Z</time>
</trkpt>
<trkpt lat="57.138762" lon="9.005474">
<ele>11.669001</ele>
<time>2026-07-15T10:51:42.000Z</time>
</trkpt>
<trkpt lat="57.138789" lon="9.005560">
<ele>11.640293</ele>
<time>2026-07-15T10:51:43.000Z</time>
</trkpt>
<trkpt lat="57.138809" lon="9.005625">
<ele>11.618702</ele>
<time>2026-07-15T10:51:44.000Z</time>
</trkpt>
<trkpt lat="57.138832" lon="9.005694">
<ele>11.595304</ele>
<time>2026-07-15T10:51:45.000Z</time>
</trkpt>
<trkpt lat="57.138854" lon="9.005764">
<ele>11.571931</ele>
<time>2026-07-15T10:51:46.000Z</time>
</trkpt>
<trkpt lat="57.138870" lon="9.005848">
<ele>11.546209</ele>
<time>2026-07-15T10:51:47.000Z</time>
</trkpt>
<trkpt lat="57.138893" lon="9.005926">
<ele>11.520559</ele>
<time>2026-07-15T10:51:48.000Z</time>
</trkpt>
<trkpt lat="57.138912" lon="9.006016">
<ele>11.492656</ele>
<time>2026-07-15T10:51:49.000Z</time>
</trkpt>
<trkpt lat="57.138935" lon="9.006110">
<ele>11.462862</ele>
<time>2026-07-15T10:51:50.000Z</time>
</trkpt>
<trkpt lat="57.138953" lon="9.006191">
<ele>11.437572</ele>
<time>2026-07-15T10:51:51.000Z</time>
</trkpt>
<trkpt lat="57.138971" lon="9.006276">
<ele>11.411209</ele>
<time>2026-07-15T10:51:52.000Z</time>
</trkpt>
<trkpt lat="57.138992" lon="9.006367">
<ele>11.382637</ele>
<time>2026-07-15T10:51:53.000Z</time>
</trkpt>
<trkpt lat="57.139015" lon="9.006450">
<ele>11.355709</ele>
<time>2026-07-15T10:51:54.000Z</time>
</trkpt>
<trkpt lat="57.139034" lon="9.006526">
<ele>11.331531</ele>
<time>2026-07-15T10:51:55.000Z</time>
</trkpt>
<trkpt lat="57.139049" lon="9.006606">
<ele>11.307075</ele>
<time>2026-07-15T10:51:56.000Z</time>
</trkpt>
<trkpt lat="57.139061" lon="9.006687">
<ele>11.282815</ele>
<time>2026-07-15T10:51:57.000Z</time>
</trkpt>
<trkpt lat="57.139080" lon="9.006767">
<ele>11.257583</ele>
<time>2026-07-15T10:51:58.000Z</time>
</trkpt>
<trkpt lat="57.139091" lon="9.006842">
<ele>11.235135</ele>
<time>2026-07-15T10:51:59.000Z</time>
</trkpt>
<trkpt lat="57.139110" lon="9.006917">
<ele>11.211220</ele>
<time>2026-07-15T10:52:00.000Z</time>
</trkpt>
<trkpt lat="57.139129" lon="9.006989">
<ele>11.188087</ele>
<time>2026-07-15T10:52:01.000Z</time>
</trkpt>
<trkpt lat="57.139149" lon="9.007062">
<ele>11.164459</ele>
<time>2026-07-15T10:52:02.000Z</time>
</trkpt>
<trkpt lat="57.139164" lon="9.007140">
<ele>11.140549</ele>
<time>2026-07-15T10:52:03.000Z</time>
</trkpt>
<trkpt lat="57.139175" lon="9.007216">
<ele>11.117822</ele>
<time>2026-07-15T10:52:04.000Z</time>
</trkpt>
<trkpt lat="57.139194" lon="9.007299">
<ele>11.091794</ele>
<time>2026-07-15T10:52:05.000Z</time>
</trkpt>
<trkpt lat="57.139207" lon="9.007367">
<ele>11.071330</ele>
<time>2026-07-15T10:52:06.000Z</time>
</trkpt>
<trkpt lat="57.139232" lon="9.007471">
<ele>11.084767</ele>
<time>2026-07-15T10:52:07.000Z</time>
</trkpt>
<trkpt lat="57.139246" lon="9.007535">
<ele>11.092919</ele>
<time>2026-07-15T10:52:08.000Z</time>
</trkpt>
<trkpt lat="57.139273" lon="9.007650">
<ele>11.107721</ele>
<time>2026-07-15T10:52:09.000Z</time>
</trkpt>
<trkpt lat="57.139297" lon="9.007738">
<ele>11.119355</ele>
<time>2026-07-15T10:52:10.000Z</time>
</trkpt>
<trkpt lat="57.139316" lon="9.007829">
<ele>11.130874</ele>
<time>2026-07-15T10:52:11.000Z</time>
</trkpt>
<trkpt lat="57.139339" lon="9.007919">
<ele>11.142625</ele>
<time>2026-07-15T10:52:12.000Z</time>
</trkpt>
<trkpt lat="57.139351" lon="9.008020">
<ele>11.154839</ele>
<time>2026-07-15T10:52:13.000Z</time>
</trkpt>
<trkpt lat="57.139370" lon="9.008113">
<ele>11.166578</ele>
<time>2026-07-15T10:52:14.000Z</time>
</trkpt>
<trkpt lat="57.139389" lon="9.008204">
<ele>11.178096</ele>
<time>2026-07-15T10:52:15.000Z</time>
</trkpt>
<trkpt lat="57.139408" lon="9.008293">
<ele>11.189394</ele>
<time>2026-07-15T10:52:16.000Z</time>
</trkpt>
<trkpt lat="57.139427" lon="9.008380">
<ele>11.200472</ele>
<time>2026-07-15T10:52:17.000Z</time>
</trkpt>
<trkpt lat="57.139450" lon="9.008461">
<ele>11.211272</ele>
<time>2026-07-15T10:52:18.000Z</time>
</trkpt>
<trkpt lat="57.139472" lon="9.008538">
<ele>11.221552</ele>
<time>2026-07-15T10:52:19.000Z</time>
</trkpt>
<trkpt lat="57.139496" lon="9.008622">
<ele>11.232766</ele>
<time>2026-07-15T10:52:20.000Z</time>
</trkpt>
<trkpt lat="57.139518" lon="9.008708">
<ele>11.243998</ele>
<time>2026-07-15T10:52:21.000Z</time>
</trkpt>
<trkpt lat="57.139538" lon="9.008792">
<ele>11.254834</ele>
<time>2026-07-15T10:52:22.000Z</time>
</trkpt>
<trkpt lat="57.139561" lon="9.008870">
<ele>11.265320</ele>
<time>2026-07-15T10:52:23.000Z</time>
</trkpt>
<trkpt lat="57.139583" lon="9.008953">
<ele>11.276232</ele>
<time>2026-07-15T10:52:24.000Z</time>
</trkpt>
<trkpt lat="57.139606" lon="9.009037">
<ele>11.287347</ele>
<time>2026-07-15T10:52:25.000Z</time>
</trkpt>
<trkpt lat="57.139629" lon="9.009121">
<ele>11.298461</ele>
<time>2026-07-15T10:52:26.000Z</time>
</trkpt>
<trkpt lat="57.139648" lon="9.009195">
<ele>11.308132</ele>
<time>2026-07-15T10:52:27.000Z</time>
</trkpt>
<trkpt lat="57.139671" lon="9.009268">
<ele>11.318104</ele>
<time>2026-07-15T10:52:28.000Z</time>
</trkpt>
<trkpt lat="57.139687" lon="9.009334">
<ele>11.326643</ele>
<time>2026-07-15T10:52:29.000Z</time>
</trkpt>
<trkpt lat="57.139690" lon="9.009414">
<ele>11.336116</ele>
<time>2026-07-15T10:52:30.000Z</time>
</trkpt>
<trkpt lat="57.139690" lon="9.009458">
<ele>11.341314</ele>
<time>2026-07-15T10:52:31.000Z</time>
</trkpt>
<trkpt lat="57.139698" lon="9.009497">
<ele>11.346239</ele>
<time>2026-07-15T10:52:32.000Z</time>
</trkpt>
<trkpt lat="57.139709" lon="9.009720">
<ele>11.372690</ele>
<time>2026-07-15T10:52:47.000Z</time>
</trkpt>
<trkpt lat="57.139719" lon="9.009752">
<ele>11.377052</ele>
<time>2026-07-15T10:52:48.000Z</time>
</trkpt>
<trkpt lat="57.139732" lon="9.009793">
<ele>11.382662</ele>
<time>2026-07-15T10:52:49.000Z</time>
</trkpt>
<trkpt lat="57.139744" lon="9.009821">
<ele>11.386876</ele>
<time>2026-07-15T10:52:50.000Z</time>
</trkpt>
<trkpt lat="57.139751" lon="9.009859">
<ele>11.391617</ele>
<time>2026-07-15T10:52:51.000Z</time>
</trkpt>
<trkpt lat="57.139759" lon="9.009896">
<ele>11.396322</ele>
<time>2026-07-15T10:52:52.000Z</time>
</trkpt>
<trkpt lat="57.139769" lon="9.009928">
<ele>11.400684</ele>
<time>2026-07-15T10:52:53.000Z</time>
</trkpt>
<trkpt lat="57.139782" lon="9.009962">
<ele>11.405597</ele>
<time>2026-07-15T10:52:54.000Z</time>
</trkpt>
<trkpt lat="57.139797" lon="9.009996">
<ele>11.410774</ele>
<time>2026-07-15T10:52:55.000Z</time>
</trkpt>
<trkpt lat="57.139812" lon="9.010029">
<ele>11.415859</ele>
<time>2026-07-15T10:52:56.000Z</time>
</trkpt>
<trkpt lat="57.139831" lon="9.010058">
<ele>11.421230</ele>
<time>2026-07-15T10:52:57.000Z</time>
</trkpt>
<trkpt lat="57.139854" lon="9.010089">
<ele>11.427433</ele>
<time>2026-07-15T10:52:58.000Z</time>
</trkpt>
<trkpt lat="57.139883" lon="9.010124">
<ele>11.434980</ele>
<time>2026-07-15T10:52:59.000Z</time>
</trkpt>
<trkpt lat="57.139911" lon="9.010157">
<ele>11.442216</ele>
<time>2026-07-15T10:53:00.000Z</time>
</trkpt>
<trkpt lat="57.139941" lon="9.010180">
<ele>11.449290</ele>
<time>2026-07-15T10:53:01.000Z</time>
</trkpt>
<trkpt lat="57.139967" lon="9.010200">
<ele>11.455424</ele>
<time>2026-07-15T10:53:02.000Z</time>
</trkpt>
<trkpt lat="57.139998" lon="9.010229">
<ele>11.462931</ele>
<time>2026-07-15T10:53:03.000Z</time>
</trkpt>
<trkpt lat="57.140024" lon="9.010247">
<ele>11.467002</ele>
<time>2026-07-15T10:53:04.000Z</time>
</trkpt>
<trkpt lat="57.140052" lon="9.010265">
<ele>11.471349</ele>
<time>2026-07-15T10:53:05.000Z</time>
</trkpt>
<trkpt lat="57.140082" lon="9.010278">
<ele>11.475867</ele>
<time>2026-07-15T10:53:06.000Z</time>
</trkpt>
<trkpt lat="57.140110" lon="9.010299">
<ele>11.480298</ele>
<time>2026-07-15T10:53:07.000Z</time>
</trkpt>
<trkpt lat="57.140139" lon="9.010314">
<ele>11.484713</ele>
<time>2026-07-15T10:53:08.000Z</time>
</trkpt>
<trkpt lat="57.140173" lon="9.010334">
<ele>11.489945</ele>
<time>2026-07-15T10:53:09.000Z</time>
</trkpt>
<trkpt lat="57.140208" lon="9.010357">
<ele>11.495391</ele>
<time>2026-07-15T10:53:10.000Z</time>
</trkpt>
<trkpt lat="57.140247" lon="9.010375">
<ele>11.501285</ele>
<time>2026-07-15T10:53:11.000Z</time>
</trkpt>
<trkpt lat="57.140283" lon="9.010396">
<ele>11.506820</ele>
<time>2026-07-15T10:53:12.000Z</time>
</trkpt>
<trkpt lat="57.140327" lon="9.010421">
<ele>11.513569</ele>
<time>2026-07-15T10:53:13.000Z</time>
</trkpt>
<trkpt lat="57.140366" lon="9.010445">
<ele>11.519596</ele>
<time>2026-07-15T10:53:14.000Z</time>
</trkpt>
<trkpt lat="57.140411" lon="9.010466">
<ele>11.526400</ele>
<time>2026-07-15T10:53:15.000Z</time>
</trkpt>
<trkpt lat="57.140453" lon="9.010495">
<ele>11.532975</ele>
<time>2026-07-15T10:53:16.000Z</time>
</trkpt>
<trkpt lat="57.140503" lon="9.010526">
<ele>11.540708</ele>
<time>2026-07-15T10:53:17.000Z</time>
</trkpt>
<trkpt lat="57.140542" lon="9.010554">
<ele>11.546843</ele>
<time>2026-07-15T10:53:18.000Z</time>
</trkpt>
<trkpt lat="57.140589" lon="9.010588">
<ele>11.554244</ele>
<time>2026-07-15T10:53:19.000Z</time>
</trkpt>
<trkpt lat="57.140631" lon="9.010611">
<ele>11.560667</ele>
<time>2026-07-15T10:53:20.000Z</time>
</trkpt>
<trkpt lat="57.140673" lon="9.010631">
<ele>11.567025</ele>
<time>2026-07-15T10:53:21.000Z</time>
</trkpt>
<trkpt lat="57.140717" lon="9.010647">
<ele>11.573599</ele>
<time>2026-07-15T10:53:22.000Z</time>
</trkpt>
<trkpt lat="57.140766" lon="9.010665">
<ele>11.580923</ele>
<time>2026-07-15T10:53:23.000Z</time>
</trkpt>
<trkpt lat="57.140803" lon="9.010686">
<ele>11.586598</ele>
<time>2026-07-15T10:53:24.000Z</time>
</trkpt>
<trkpt lat="57.140841" lon="9.010722">
<ele>11.592861</ele>
<time>2026-07-15T10:53:25.000Z</time>
</trkpt>
<trkpt lat="57.140870" lon="9.010752">
<ele>11.597736</ele>
<time>2026-07-15T10:53:26.000Z</time>
</trkpt>
<trkpt lat="57.140906" lon="9.010794">
<ele>11.603981</ele>
<time>2026-07-15T10:53:27.000Z</time>
</trkpt>
<trkpt lat="57.140940" lon="9.010827">
<ele>11.609614</ele>
<time>2026-07-15T10:53:28.000Z</time>
</trkpt>
<trkpt lat="57.140980" lon="9.010854">
<ele>11.615858</ele>
<time>2026-07-15T10:53:29.000Z</time>
</trkpt>
<trkpt lat="57.141010" lon="9.010876">
<ele>11.620591</ele>
<time>2026-07-15T10:53:30.000Z</time>
</trkpt>
<trkpt lat="57.141032" lon="9.010902">
<ele>11.624422</ele>
<time>2026-07-15T10:53:31.000Z</time>
</trkpt>
<trkpt lat="57.141044" lon="9.010923">
<ele>11.626848</ele>
<time>2026-07-15T10:53:32.000Z</time>
</trkpt>
<trkpt lat="57.141113" lon="9.010935">
<ele>11.637007</ele>
<time>2026-07-15T10:54:22.000Z</time>
</trkpt>
<trkpt lat="57.141144" lon="9.010952">
<ele>11.641748</ele>
<time>2026-07-15T10:54:23.000Z</time>
</trkpt>
<trkpt lat="57.141182" lon="9.010972">
<ele>11.647541</ele>
<time>2026-07-15T10:54:24.000Z</time>
</trkpt>
<trkpt lat="57.141224" lon="9.010993">
<ele>11.653920</ele>
<time>2026-07-15T10:54:25.000Z</time>
</trkpt>
<trkpt lat="57.141255" lon="9.011017">
<ele>11.658848</ele>
<time>2026-07-15T10:54:26.000Z</time>
</trkpt>
<trkpt lat="57.141301" lon="9.011047">
<ele>11.666001</ele>
<time>2026-07-15T10:54:27.000Z</time>
</trkpt>
<trkpt lat="57.141339" lon="9.011074">
<ele>11.671971</ele>
<time>2026-07-15T10:54:28.000Z</time>
</trkpt>
<trkpt lat="57.141385" lon="9.011102">
<ele>11.679072</ele>
<time>2026-07-15T10:54:29.000Z</time>
</trkpt>
<trkpt lat="57.141430" lon="9.011129">
<ele>11.686009</ele>
<time>2026-07-15T10:54:30.000Z</time>
</trkpt>
<trkpt lat="57.141471" lon="9.011157">
<ele>11.692418</ele>
<time>2026-07-15T10:54:31.000Z</time>
</trkpt>
<trkpt lat="57.141522" lon="9.011184">
<ele>11.700196</ele>
<time>2026-07-15T10:54:32.000Z</time>
</trkpt>
<trkpt lat="57.141568" lon="9.011209">
<ele>11.707226</ele>
<time>2026-07-15T10:54:33.000Z</time>
</trkpt>
<trkpt lat="57.141614" lon="9.011236">
<ele>11.714303</ele>
<time>2026-07-15T10:54:34.000Z</time>
</trkpt>
<trkpt lat="57.141659" lon="9.011260">
<ele>11.721169</ele>
<time>2026-07-15T10:54:35.000Z</time>
</trkpt>
<trkpt lat="57.141705" lon="9.011287">
<ele>11.723385</ele>
<time>2026-07-15T10:54:36.000Z</time>
</trkpt>
<trkpt lat="57.141751" lon="9.011312">
<ele>11.711307</ele>
<time>2026-07-15T10:54:37.000Z</time>
</trkpt>
<trkpt lat="57.141797" lon="9.011336">
<ele>11.699266</ele>
<time>2026-07-15T10:54:38.000Z</time>
</trkpt>
<trkpt lat="57.141846" lon="9.011365">
<ele>11.686305</ele>
<time>2026-07-15T10:54:39.000Z</time>
</trkpt>
<trkpt lat="57.141892" lon="9.011397">
<ele>11.673922</ele>
<time>2026-07-15T10:54:40.000Z</time>
</trkpt>
<trkpt lat="57.141941" lon="9.011423">
<ele>11.661080</ele>
<time>2026-07-15T10:54:41.000Z</time>
</trkpt>
<trkpt lat="57.141987" lon="9.011447">
<ele>11.649040</ele>
<time>2026-07-15T10:54:42.000Z</time>
</trkpt>
<trkpt lat="57.142033" lon="9.011467">
<ele>11.637136</ele>
<time>2026-07-15T10:54:43.000Z</time>
</trkpt>
<trkpt lat="57.142075" lon="9.011488">
<ele>11.626176</ele>
<time>2026-07-15T10:54:44.000Z</time>
</trkpt>
<trkpt lat="57.142120" lon="9.011520">
<ele>11.614028</ele>
<time>2026-07-15T10:54:45.000Z</time>
</trkpt>
<trkpt lat="57.142171" lon="9.011552">
<ele>11.600460</ele>
<time>2026-07-15T10:54:46.000Z</time>
</trkpt>
<trkpt lat="57.142219" lon="9.011585">
<ele>11.587558</ele>
<time>2026-07-15T10:54:47.000Z</time>
</trkpt>
<trkpt lat="57.142269" lon="9.011617">
<ele>11.574227</ele>
<time>2026-07-15T10:54:48.000Z</time>
</trkpt>
<trkpt lat="57.142316" lon="9.011652">
<ele>11.561461</ele>
<time>2026-07-15T10:54:49.000Z</time>
</trkpt>
<trkpt lat="57.142365" lon="9.011686">
<ele>11.548274</ele>
<time>2026-07-15T10:54:50.000Z</time>
</trkpt>
<trkpt lat="57.142411" lon="9.011720">
<ele>11.535792</ele>
<time>2026-07-15T10:54:51.000Z</time>
</trkpt>
<trkpt lat="57.142457" lon="9.011760">
<ele>11.522982</ele>
<time>2026-07-15T10:54:52.000Z</time>
</trkpt>
<trkpt lat="57.142510" lon="9.011800">
<ele>11.508558</ele>
<time>2026-07-15T10:54:53.000Z</time>
</trkpt>
<trkpt lat="57.142559" lon="9.011844">
<ele>11.494831</ele>
<time>2026-07-15T10:54:54.000Z</time>
</trkpt>
<trkpt lat="57.142605" lon="9.011891">
<ele>11.481585</ele>
<time>2026-07-15T10:54:55.000Z</time>
</trkpt>
<trkpt lat="57.142659" lon="9.011943">
<ele>11.466240</ele>
<time>2026-07-15T10:54:56.000Z</time>
</trkpt>
<trkpt lat="57.142705" lon="9.011994">
<ele>11.452721</ele>
<time>2026-07-15T10:54:57.000Z</time>
</trkpt>
<trkpt lat="57.142750" lon="9.012046">
<ele>11.439344</ele>
<time>2026-07-15T10:54:58.000Z</time>
</trkpt>
<trkpt lat="57.142792" lon="9.012104">
<ele>11.426127</ele>
<time>2026-07-15T10:54:59.000Z</time>
</trkpt>
<trkpt lat="57.142838" lon="9.012164">
<ele>11.411934</ele>
<time>2026-07-15T10:55:00.000Z</time>
</trkpt>
<trkpt lat="57.142884" lon="9.012222">
<ele>11.397897</ele>
<time>2026-07-15T10:55:01.000Z</time>
</trkpt>
<trkpt lat="57.142925" lon="9.012285">
<ele>11.384453</ele>
<time>2026-07-15T10:55:02.000Z</time>
</trkpt>
<trkpt lat="57.142964" lon="9.012351">
<ele>11.371119</ele>
<time>2026-07-15T10:55:03.000Z</time>
</trkpt>
<trkpt lat="57.143006" lon="9.012417">
<ele>11.357219</ele>
<time>2026-07-15T10:55:04.000Z</time>
</trkpt>
<trkpt lat="57.143048" lon="9.012485">
<ele>11.343139</ele>
<time>2026-07-15T10:55:05.000Z</time>
</trkpt>
<trkpt lat="57.143090" lon="9.012558">
<ele>11.328600</ele>
<time>2026-07-15T10:55:06.000Z</time>
</trkpt>
<trkpt lat="57.143128" lon="9.012629">
<ele>11.314973</ele>
<time>2026-07-15T10:55:07.000Z</time>
</trkpt>
<trkpt lat="57.143166" lon="9.012697">
<ele>11.301634</ele>
<time>2026-07-15T10:55:08.000Z</time>
</trkpt>
<trkpt lat="57.143200" lon="9.012765">
<ele>11.288998</ele>
<time>2026-07-15T10:55:09.000Z</time>
</trkpt>
<trkpt lat="57.143242" lon="9.012834">
<ele>11.274828</ele>
<time>2026-07-15T10:55:10.000Z</time>
</trkpt>
<trkpt lat="57.143280" lon="9.012901">
<ele>11.267256</ele>
<time>2026-07-15T10:55:11.000Z</time>
</trkpt>
<trkpt lat="57.143318" lon="9.012970">
<ele>11.260236</ele>
<time>2026-07-15T10:55:12.000Z</time>
</trkpt>
<trkpt lat="57.143357" lon="9.013042">
<ele>11.252971</ele>
<time>2026-07-15T10:55:13.000Z</time>
</trkpt>
<trkpt lat="57.143391" lon="9.013113">
<ele>11.246210</ele>
<time>2026-07-15T10:55:14.000Z</time>
</trkpt>
<trkpt lat="57.143429" lon="9.013184">
<ele>11.239088</ele>
<time>2026-07-15T10:55:15.000Z</time>
</trkpt>
<trkpt lat="57.143464" lon="9.013258">
<ele>11.232079</ele>
<time>2026-07-15T10:55:16.000Z</time>
</trkpt>
<trkpt lat="57.143505" lon="9.013327">
<ele>11.224772</ele>
<time>2026-07-15T10:55:17.000Z</time>
</trkpt>
<trkpt lat="57.143544" lon="9.013394">
<ele>11.217756</ele>
<time>2026-07-15T10:55:18.000Z</time>
</trkpt>
<trkpt lat="57.143582" lon="9.013463">
<ele>11.210736</ele>
<time>2026-07-15T10:55:19.000Z</time>
</trkpt>
<trkpt lat="57.143616" lon="9.013532">
<ele>11.204080</ele>
<time>2026-07-15T10:55:20.000Z</time>
</trkpt>
<trkpt lat="57.143654" lon="9.013604">
<ele>11.196908</ele>
<time>2026-07-15T10:55:21.000Z</time>
</trkpt>
<trkpt lat="57.143688" lon="9.013672">
<ele>11.190306</ele>
<time>2026-07-15T10:55:22.000Z</time>
</trkpt>
<trkpt lat="57.143727" lon="9.013740">
<ele>11.183240</ele>
<time>2026-07-15T10:55:23.000Z</time>
</trkpt>
<trkpt lat="57.143761" lon="9.013807">
<ele>11.176690</ele>
<time>2026-07-15T10:55:24.000Z</time>
</trkpt>
<trkpt lat="57.143795" lon="9.013874">
<ele>11.170140</ele>
<time>2026-07-15T10:55:25.000Z</time>
</trkpt>
<trkpt lat="57.143833" lon="9.013945">
<ele>11.163019</ele>
<time>2026-07-15T10:55:26.000Z</time>
</trkpt>
<trkpt lat="57.143868" lon="9.014014">
<ele>11.156274</ele>
<time>2026-07-15T10:55:27.000Z</time>
</trkpt>
<trkpt lat="57.143906" lon="9.014084">
<ele>11.149204</ele>
<time>2026-07-15T10:55:28.000Z</time>
</trkpt>
<trkpt lat="57.143941" lon="9.014155">
<ele>11.142354</ele>
<time>2026-07-15T10:55:29.000Z</time>
</trkpt>
<trkpt lat="57.143978" lon="9.014222">
<ele>11.135528</ele>
<time>2026-07-15T10:55:30.000Z</time>
</trkpt>
<trkpt lat="57.144017" lon="9.014290">
<ele>11.128463</ele>
<time>2026-07-15T10:55:31.000Z</time>
</trkpt>
<trkpt lat="57.144055" lon="9.014360">
<ele>11.121393</ele>
<time>2026-07-15T10:55:32.000Z</time>
</trkpt>
<trkpt lat="57.144093" lon="9.014429">
<ele>11.114373</ele>
<time>2026-07-15T10:55:33.000Z</time>
</trkpt>
<trkpt lat="57.144131" lon="9.014499">
<ele>11.107302</ele>
<time>2026-07-15T10:55:34.000Z</time>
</trkpt>
<trkpt lat="57.144173" lon="9.014569">
<ele>11.099850</ele>
<time>2026-07-15T10:55:35.000Z</time>
</trkpt>
<trkpt lat="57.144207" lon="9.014637">
<ele>11.093248</ele>
<time>2026-07-15T10:55:36.000Z</time>
</trkpt>
<trkpt lat="57.144246" lon="9.014706">
<ele>11.086133</ele>
<time>2026-07-15T10:55:37.000Z</time>
</trkpt>
<trkpt lat="57.144288" lon="9.014772">
<ele>11.078870</ele>
<time>2026-07-15T10:55:38.000Z</time>
</trkpt>
<trkpt lat="57.144326" lon="9.014844">
<ele>11.071698</ele>
<time>2026-07-15T10:55:39.000Z</time>
</trkpt>
<trkpt lat="57.144363" lon="9.014913">
<ele>11.064771</ele>
<time>2026-07-15T10:55:40.000Z</time>
</trkpt>
<trkpt lat="57.144402" lon="9.014986">
<ele>11.057456</ele>
<time>2026-07-15T10:55:41.000Z</time>
</trkpt>
<trkpt lat="57.144440" lon="9.015057">
<ele>11.050335</ele>
<time>2026-07-15T10:55:42.000Z</time>
</trkpt>
<trkpt lat="57.144475" lon="9.015131">
<ele>11.043325</ele>
<time>2026-07-15T10:55:43.000Z</time>
</trkpt>
<trkpt lat="57.144513" lon="9.015204">
<ele>11.035764</ele>
<time>2026-07-15T10:55:44.000Z</time>
</trkpt>
<trkpt lat="57.144547" lon="9.015279">
<ele>11.025162</ele>
<time>2026-07-15T10:55:45.000Z</time>
</trkpt>
<trkpt lat="57.144581" lon="9.015351">
<ele>11.014807</ele>
<time>2026-07-15T10:55:46.000Z</time>
</trkpt>
<trkpt lat="57.144616" lon="9.015423">
<ele>11.004319</ele>
<time>2026-07-15T10:55:47.000Z</time>
</trkpt>
<trkpt lat="57.144654" lon="9.015496">
<ele>10.993344</ele>
<time>2026-07-15T10:55:48.000Z</time>
</trkpt>
<trkpt lat="57.144688" lon="9.015570">
<ele>10.982825</ele>
<time>2026-07-15T10:55:49.000Z</time>
</trkpt>
<trkpt lat="57.144719" lon="9.015648">
<ele>10.972336</ele>
<time>2026-07-15T10:55:50.000Z</time>
</trkpt>
<trkpt lat="57.144753" lon="9.015726">
<ele>10.961481</ele>
<time>2026-07-15T10:55:51.000Z</time>
</trkpt>
<trkpt lat="57.144787" lon="9.015805">
<ele>10.950542</ele>
<time>2026-07-15T10:55:52.000Z</time>
</trkpt>
<trkpt lat="57.144818" lon="9.015882">
<ele>10.940141</ele>
<time>2026-07-15T10:55:53.000Z</time>
</trkpt>
<trkpt lat="57.144852" lon="9.015960">
<ele>10.929286</ele>
<time>2026-07-15T10:55:54.000Z</time>
</trkpt>
<trkpt lat="57.144886" lon="9.016040">
<ele>10.918262</ele>
<time>2026-07-15T10:55:55.000Z</time>
</trkpt>
<trkpt lat="57.144921" lon="9.016119">
<ele>10.907198</ele>
<time>2026-07-15T10:55:56.000Z</time>
</trkpt>
<trkpt lat="57.144955" lon="9.016199">
<ele>10.896173</ele>
<time>2026-07-15T10:55:57.000Z</time>
</trkpt>
<trkpt lat="57.144989" lon="9.016279">
<ele>10.885149</ele>
<time>2026-07-15T10:55:58.000Z</time>
</trkpt>
<trkpt lat="57.145024" lon="9.016357">
<ele>10.874168</ele>
<time>2026-07-15T10:55:59.000Z</time>
</trkpt>
<trkpt lat="57.145054" lon="9.016434">
<ele>10.863885</ele>
<time>2026-07-15T10:56:00.000Z</time>
</trkpt>
<trkpt lat="57.145088" lon="9.016512">
<ele>10.853030</ele>
<time>2026-07-15T10:56:01.000Z</time>
</trkpt>
<trkpt lat="57.145119" lon="9.016589">
<ele>10.842629</ele>
<time>2026-07-15T10:56:02.000Z</time>
</trkpt>
<trkpt lat="57.145153" lon="9.016664">
<ele>10.832026</ele>
<time>2026-07-15T10:56:03.000Z</time>
</trkpt>
<trkpt lat="57.145188" lon="9.016738">
<ele>10.821376</ele>
<time>2026-07-15T10:56:04.000Z</time>
</trkpt>
<trkpt lat="57.145222" lon="9.016811">
<ele>10.810940</ele>
<time>2026-07-15T10:56:05.000Z</time>
</trkpt>
<trkpt lat="57.145260" lon="9.016886">
<ele>10.799807</ele>
<time>2026-07-15T10:56:06.000Z</time>
</trkpt>
<trkpt lat="57.145294" lon="9.016961">
<ele>10.789205</ele>
<time>2026-07-15T10:56:07.000Z</time>
</trkpt>
<trkpt lat="57.145333" lon="9.017035">
<ele>10.778013</ele>
<time>2026-07-15T10:56:08.000Z</time>
</trkpt>
<trkpt lat="57.145371" lon="9.017104">
<ele>10.767347</ele>
<time>2026-07-15T10:56:09.000Z</time>
</trkpt>
<trkpt lat="57.145405" lon="9.017176">
<ele>10.756992</ele>
<time>2026-07-15T10:56:10.000Z</time>
</trkpt>
<trkpt lat="57.145447" lon="9.017244">
<ele>10.745815</ele>
<time>2026-07-15T10:56:11.000Z</time>
</trkpt>
<trkpt lat="57.145486" lon="9.017313">
<ele>10.735005</ele>
<time>2026-07-15T10:56:12.000Z</time>
</trkpt>
<trkpt lat="57.145527" lon="9.017377">
<ele>10.724262</ele>
<time>2026-07-15T10:56:13.000Z</time>
</trkpt>
<trkpt lat="57.145565" lon="9.017440">
<ele>10.714043</ele>
<time>2026-07-15T10:56:14.000Z</time>
</trkpt>
<trkpt lat="57.145608" lon="9.017505">
<ele>10.702923</ele>
<time>2026-07-15T10:56:15.000Z</time>
</trkpt>
<trkpt lat="57.145646" lon="9.017563">
<ele>10.693058</ele>
<time>2026-07-15T10:56:16.000Z</time>
</trkpt>
<trkpt lat="57.145687" lon="9.017621">
<ele>10.682724</ele>
<time>2026-07-15T10:56:17.000Z</time>
</trkpt>
<trkpt lat="57.145733" lon="9.017677">
<ele>10.677003</ele>
<time>2026-07-15T10:56:18.000Z</time>
</trkpt>
<trkpt lat="57.145776" lon="9.017736">
<ele>10.676809</ele>
<time>2026-07-15T10:56:19.000Z</time>
</trkpt>
<trkpt lat="57.145821" lon="9.017794">
<ele>10.676610</ele>
<time>2026-07-15T10:56:20.000Z</time>
</trkpt>
<trkpt lat="57.145867" lon="9.017852">
<ele>10.676408</ele>
<time>2026-07-15T10:56:21.000Z</time>
</trkpt>
<trkpt lat="57.145912" lon="9.017908">
<ele>10.676212</ele>
<time>2026-07-15T10:56:22.000Z</time>
</trkpt>
<trkpt lat="57.145958" lon="9.017964">
<ele>10.676012</ele>
<time>2026-07-15T10:56:23.000Z</time>
</trkpt>
<trkpt lat="57.146004" lon="9.018017">
<ele>10.675816</ele>
<time>2026-07-15T10:56:24.000Z</time>
</trkpt>
<trkpt lat="57.146053" lon="9.018068">
<ele>10.675612</ele>
<time>2026-07-15T10:56:25.000Z</time>
</trkpt>
<trkpt lat="57.146103" lon="9.018120">
<ele>10.675405</ele>
<time>2026-07-15T10:56:26.000Z</time>
</trkpt>
<trkpt lat="57.146150" lon="9.018172">
<ele>10.675206</ele>
<time>2026-07-15T10:56:27.000Z</time>
</trkpt>
<trkpt lat="57.146199" lon="9.018222">
<ele>10.675003</ele>
<time>2026-07-15T10:56:28.000Z</time>
</trkpt>
<trkpt lat="57.146248" lon="9.018270">
<ele>10.674803</ele>
<time>2026-07-15T10:56:29.000Z</time>
</trkpt>
<trkpt lat="57.146294" lon="9.018322">
<ele>10.674607</ele>
<time>2026-07-15T10:56:30.000Z</time>
</trkpt>
<trkpt lat="57.146344" lon="9.018370">
<ele>10.674403</ele>
<time>2026-07-15T10:56:31.000Z</time>
</trkpt>
<trkpt lat="57.146390" lon="9.018416">
<ele>10.674214</ele>
<time>2026-07-15T10:56:32.000Z</time>
</trkpt>
<trkpt lat="57.146435" lon="9.018462">
<ele>10.674028</ele>
<time>2026-07-15T10:56:33.000Z</time>
</trkpt>
<trkpt lat="57.146485" lon="9.018506">
<ele>10.673827</ele>
<time>2026-07-15T10:56:34.000Z</time>
</trkpt>
<trkpt lat="57.146531" lon="9.018548">
<ele>10.673641</ele>
<time>2026-07-15T10:56:35.000Z</time>
</trkpt>
<trkpt lat="57.146576" lon="9.018590">
<ele>10.673459</ele>
<time>2026-07-15T10:56:36.000Z</time>
</trkpt>
<trkpt lat="57.146622" lon="9.018633">
<ele>10.673272</ele>
<time>2026-07-15T10:56:37.000Z</time>
</trkpt>
<trkpt lat="57.146668" lon="9.018680">
<ele>10.673082</ele>
<time>2026-07-15T10:56:38.000Z</time>
</trkpt>
<trkpt lat="57.146714" lon="9.018724">
<ele>10.672894</ele>
<time>2026-07-15T10:56:39.000Z</time>
</trkpt>
<trkpt lat="57.146759" lon="9.018766">
<ele>10.672711</ele>
<time>2026-07-15T10:56:40.000Z</time>
</trkpt>
<trkpt lat="57.146806" lon="9.018809">
<ele>10.672521</ele>
<time>2026-07-15T10:56:41.000Z</time>
</trkpt>
<trkpt lat="57.146851" lon="9.018853">
<ele>10.672337</ele>
<time>2026-07-15T10:56:42.000Z</time>
</trkpt>
<trkpt lat="57.146901" lon="9.018898">
<ele>10.672136</ele>
<time>2026-07-15T10:56:43.000Z</time>
</trkpt>
<trkpt lat="57.146947" lon="9.018942">
<ele>10.671948</ele>
<time>2026-07-15T10:56:44.000Z</time>
</trkpt>
<trkpt lat="57.146992" lon="9.018987">
<ele>10.671763</ele>
<time>2026-07-15T10:56:45.000Z</time>
</trkpt>
<trkpt lat="57.147042" lon="9.019030">
<ele>10.671563</ele>
<time>2026-07-15T10:56:46.000Z</time>
</trkpt>
<trkpt lat="57.147087" lon="9.019077">
<ele>10.671376</ele>
<time>2026-07-15T10:56:47.000Z</time>
</trkpt>
<trkpt lat="57.147133" lon="9.019119">
<ele>10.671190</ele>
<time>2026-07-15T10:56:48.000Z</time>
</trkpt>
<trkpt lat="57.147179" lon="9.019163">
<ele>10.671002</ele>
<time>2026-07-15T10:56:49.000Z</time>
</trkpt>
<trkpt lat="57.147229" lon="9.019209">
<ele>10.670800</ele>
<time>2026-07-15T10:56:50.000Z</time>
</trkpt>
<trkpt lat="57.147274" lon="9.019255">
<ele>10.670614</ele>
<time>2026-07-15T10:56:51.000Z</time>
</trkpt>
<trkpt lat="57.147320" lon="9.019302">
<ele>10.659401</ele>
<time>2026-07-15T10:56:52.000Z</time>
</trkpt>
<trkpt lat="57.147362" lon="9.019349">
<ele>10.647465</ele>
<time>2026-07-15T10:56:53.000Z</time>
</trkpt>
<trkpt lat="57.147412" lon="9.019395">
<ele>10.633889</ele>
<time>2026-07-15T10:56:54.000Z</time>
</trkpt>
<trkpt lat="57.147461" lon="9.019442">
<ele>10.620471</ele>
<time>2026-07-15T10:56:55.000Z</time>
</trkpt>
<trkpt lat="57.147507" lon="9.019489">
<ele>10.607694</ele>
<time>2026-07-15T10:56:56.000Z</time>
</trkpt>
<trkpt lat="57.147557" lon="9.019534">
<ele>10.594177</ele>
<time>2026-07-15T10:56:57.000Z</time>
</trkpt>
<trkpt lat="57.147603" lon="9.019580">
<ele>10.581464</ele>
<time>2026-07-15T10:56:58.000Z</time>
</trkpt>
<trkpt lat="57.147652" lon="9.019627">
<ele>10.568045</ele>
<time>2026-07-15T10:56:59.000Z</time>
</trkpt>
<trkpt lat="57.147702" lon="9.019672">
<ele>10.554528</ele>
<time>2026-07-15T10:57:00.000Z</time>
</trkpt>
<trkpt lat="57.147748" lon="9.019719">
<ele>10.541751</ele>
<time>2026-07-15T10:57:01.000Z</time>
</trkpt>
<trkpt lat="57.147797" lon="9.019765">
<ele>10.528393</ele>
<time>2026-07-15T10:57:02.000Z</time>
</trkpt>
<trkpt lat="57.147847" lon="9.019812">
<ele>10.514758</ele>
<time>2026-07-15T10:57:03.000Z</time>
</trkpt>
<trkpt lat="57.147896" lon="9.019859">
<ele>10.501339</ele>
<time>2026-07-15T10:57:04.000Z</time>
</trkpt>
<trkpt lat="57.147946" lon="9.019905">
<ele>10.487764</ele>
<time>2026-07-15T10:57:05.000Z</time>
</trkpt>
<trkpt lat="57.147995" lon="9.019952">
<ele>10.474345</ele>
<time>2026-07-15T10:57:06.000Z</time>
</trkpt>
<trkpt lat="57.148045" lon="9.019999">
<ele>10.460710</ele>
<time>2026-07-15T10:57:07.000Z</time>
</trkpt>
<trkpt lat="57.148091" lon="9.020046">
<ele>10.447934</ele>
<time>2026-07-15T10:57:08.000Z</time>
</trkpt>
<trkpt lat="57.148140" lon="9.020092">
<ele>10.434575</ele>
<time>2026-07-15T10:57:09.000Z</time>
</trkpt>
<trkpt lat="57.148187" lon="9.020140">
<ele>10.421522</ele>
<time>2026-07-15T10:57:10.000Z</time>
</trkpt>
<trkpt lat="57.148236" lon="9.020186">
<ele>10.408164</ele>
<time>2026-07-15T10:57:11.000Z</time>
</trkpt>
<trkpt lat="57.148282" lon="9.020232">
<ele>10.395451</ele>
<time>2026-07-15T10:57:12.000Z</time>
</trkpt>
<trkpt lat="57.148327" lon="9.020275">
<ele>10.383137</ele>
<time>2026-07-15T10:57:13.000Z</time>
</trkpt>
<trkpt lat="57.148377" lon="9.020321">
<ele>10.369562</ele>
<time>2026-07-15T10:57:14.000Z</time>
</trkpt>
<trkpt lat="57.148423" lon="9.020365">
<ele>10.356972</ele>
<time>2026-07-15T10:57:15.000Z</time>
</trkpt>
<trkpt lat="57.148471" lon="9.020410">
<ele>10.343890</ele>
<time>2026-07-15T10:57:16.000Z</time>
</trkpt>
<trkpt lat="57.148522" lon="9.020457">
<ele>10.330039</ele>
<time>2026-07-15T10:57:17.000Z</time>
</trkpt>
<trkpt lat="57.148567" lon="9.020505">
<ele>10.317408</ele>
<time>2026-07-15T10:57:18.000Z</time>
</trkpt>
<trkpt lat="57.148617" lon="9.020554">
<ele>10.303652</ele>
<time>2026-07-15T10:57:19.000Z</time>
</trkpt>
<trkpt lat="57.148666" lon="9.020601">
<ele>10.290233</ele>
<time>2026-07-15T10:57:20.000Z</time>
</trkpt>
<trkpt lat="57.148716" lon="9.020652">
<ele>10.276351</ele>
<time>2026-07-15T10:57:21.000Z</time>
</trkpt>
<trkpt lat="57.148767" lon="9.020701">
<ele>10.262380</ele>
<time>2026-07-15T10:57:22.000Z</time>
</trkpt>
<trkpt lat="57.148816" lon="9.020747">
<ele>10.249022</ele>
<time>2026-07-15T10:57:23.000Z</time>
</trkpt>
<trkpt lat="57.148865" lon="9.020794">
<ele>10.235603</ele>
<time>2026-07-15T10:57:24.000Z</time>
</trkpt>
<trkpt lat="57.148911" lon="9.020840">
<ele>10.221915</ele>
<time>2026-07-15T10:57:25.000Z</time>
</trkpt>
<trkpt lat="57.148961" lon="9.020889">
<ele>10.206911</ele>
<time>2026-07-15T10:57:26.000Z</time>
</trkpt>
<trkpt lat="57.149010" lon="9.020934">
<ele>10.192406</ele>
<time>2026-07-15T10:57:27.000Z</time>
</trkpt>
<trkpt lat="57.149060" lon="9.020980">
<ele>10.177600</ele>
<time>2026-07-15T10:57:28.000Z</time>
</trkpt>
<trkpt lat="57.149105" lon="9.021029">
<ele>10.163752</ele>
<time>2026-07-15T10:57:29.000Z</time>
</trkpt>
<trkpt lat="57.149158" lon="9.021073">
<ele>10.148350</ele>
<time>2026-07-15T10:57:30.000Z</time>
</trkpt>
<trkpt lat="57.149205" lon="9.021121">
<ele>10.134114</ele>
<time>2026-07-15T10:57:31.000Z</time>
</trkpt>
<trkpt lat="57.149254" lon="9.021167">
<ele>10.119544</ele>
<time>2026-07-15T10:57:32.000Z</time>
</trkpt>
<trkpt lat="57.149303" lon="9.021212">
<ele>10.105039</ele>
<time>2026-07-15T10:57:33.000Z</time>
</trkpt>
<trkpt lat="57.149354" lon="9.021259">
<ele>10.089932</ele>
<time>2026-07-15T10:57:34.000Z</time>
</trkpt>
<trkpt lat="57.149399" lon="9.021306">
<ele>10.076228</ele>
<time>2026-07-15T10:57:35.000Z</time>
</trkpt>
<trkpt lat="57.149449" lon="9.021355">
<ele>10.061224</ele>
<time>2026-07-15T10:57:36.000Z</time>
</trkpt>
<trkpt lat="57.149495" lon="9.021401">
<ele>10.047358</ele>
<time>2026-07-15T10:57:37.000Z</time>
</trkpt>
<trkpt lat="57.149544" lon="9.021447">
<ele>10.032788</ele>
<time>2026-07-15T10:57:38.000Z</time>
</trkpt>
<trkpt lat="57.149590" lon="9.021492">
<ele>10.018990</ele>
<time>2026-07-15T10:57:39.000Z</time>
</trkpt>
<trkpt lat="57.149639" lon="9.021539">
<ele>10.004355</ele>
<time>2026-07-15T10:57:40.000Z</time>
</trkpt>
<trkpt lat="57.149685" lon="9.021587">
<ele>9.990350</ele>
<time>2026-07-15T10:57:41.000Z</time>
</trkpt>
<trkpt lat="57.149730" lon="9.021631">
<ele>9.976853</ele>
<time>2026-07-15T10:57:42.000Z</time>
</trkpt>
<trkpt lat="57.149785" lon="9.021687">
<ele>9.960205</ele>
<time>2026-07-15T10:57:43.000Z</time>
</trkpt>
<trkpt lat="57.149830" lon="9.021737">
<ele>9.946284</ele>
<time>2026-07-15T10:57:44.000Z</time>
</trkpt>
<trkpt lat="57.149880" lon="9.021789">
<ele>9.931073</ele>
<time>2026-07-15T10:57:45.000Z</time>
</trkpt>
<trkpt lat="57.149926" lon="9.021839">
<ele>9.916924</ele>
<time>2026-07-15T10:57:46.000Z</time>
</trkpt>
<trkpt lat="57.149975" lon="9.021890">
<ele>9.902014</ele>
<time>2026-07-15T10:57:47.000Z</time>
</trkpt>
<trkpt lat="57.150021" lon="9.021942">
<ele>9.887717</ele>
<time>2026-07-15T10:57:48.000Z</time>
</trkpt>
<trkpt lat="57.150071" lon="9.021992">
<ele>9.872645</ele>
<time>2026-07-15T10:57:49.000Z</time>
</trkpt>
<trkpt lat="57.150120" lon="9.022042">
<ele>9.857806</ele>
<time>2026-07-15T10:57:50.000Z</time>
</trkpt>
<trkpt lat="57.150170" lon="9.022094">
<ele>9.842595</ele>
<time>2026-07-15T10:57:51.000Z</time>
</trkpt>
<trkpt lat="57.150214" lon="9.022145">
<ele>9.828824</ele>
<time>2026-07-15T10:57:52.000Z</time>
</trkpt>
<trkpt lat="57.150261" lon="9.022199">
<ele>9.814150</ele>
<time>2026-07-15T10:57:53.000Z</time>
</trkpt>
<trkpt lat="57.150311" lon="9.022251">
<ele>9.798939</ele>
<time>2026-07-15T10:57:54.000Z</time>
</trkpt>
<trkpt lat="57.150361" lon="9.022298">
<ele>9.784068</ele>
<time>2026-07-15T10:57:55.000Z</time>
</trkpt>
<trkpt lat="57.150406" lon="9.022345">
<ele>9.770364</ele>
<time>2026-07-15T10:57:56.000Z</time>
</trkpt>
<trkpt lat="57.150452" lon="9.022396">
<ele>9.757449</ele>
<time>2026-07-15T10:57:57.000Z</time>
</trkpt>
<trkpt lat="57.150502" lon="9.022444">
<ele>9.763599</ele>
<time>2026-07-15T10:57:58.000Z</time>
</trkpt>
<trkpt lat="57.150544" lon="9.022494">
<ele>9.769054</ele>
<time>2026-07-15T10:57:59.000Z</time>
</trkpt>
<trkpt lat="57.150593" lon="9.022544">
<ele>9.775165</ele>
<time>2026-07-15T10:58:00.000Z</time>
</trkpt>
<trkpt lat="57.150635" lon="9.022592">
<ele>9.780556</ele>
<time>2026-07-15T10:58:01.000Z</time>
</trkpt>
<trkpt lat="57.150680" lon="9.022640">
<ele>9.786229</ele>
<time>2026-07-15T10:58:02.000Z</time>
</trkpt>
<trkpt lat="57.150731" lon="9.022689">
<ele>9.792504</ele>
<time>2026-07-15T10:58:03.000Z</time>
</trkpt>
<trkpt lat="57.150776" lon="9.022735">
<ele>9.798118</ele>
<time>2026-07-15T10:58:04.000Z</time>
</trkpt>
<trkpt lat="57.150823" lon="9.022782">
<ele>9.803952</ele>
<time>2026-07-15T10:58:05.000Z</time>
</trkpt>
<trkpt lat="57.150868" lon="9.022832">
<ele>9.809684</ele>
<time>2026-07-15T10:58:06.000Z</time>
</trkpt>
<trkpt lat="57.150914" lon="9.022880">
<ele>9.815451</ele>
<time>2026-07-15T10:58:07.000Z</time>
</trkpt>
<trkpt lat="57.150959" lon="9.022926">
<ele>9.821066</ele>
<time>2026-07-15T10:58:08.000Z</time>
</trkpt>
<trkpt lat="57.151008" lon="9.022971">
<ele>9.827038</ele>
<time>2026-07-15T10:58:09.000Z</time>
</trkpt>
<trkpt lat="57.151059" lon="9.023017">
<ele>9.833233</ele>
<time>2026-07-15T10:58:10.000Z</time>
</trkpt>
<trkpt lat="57.151104" lon="9.023064">
<ele>9.838876</ele>
<time>2026-07-15T10:58:11.000Z</time>
</trkpt>
<trkpt lat="57.151154" lon="9.023112">
<ele>9.845027</ele>
<time>2026-07-15T10:58:12.000Z</time>
</trkpt>
<trkpt lat="57.151204" lon="9.023160">
<ele>9.851178</ele>
<time>2026-07-15T10:58:13.000Z</time>
</trkpt>
<trkpt lat="57.151257" lon="9.023207">
<ele>9.857594</ele>
<time>2026-07-15T10:58:14.000Z</time>
</trkpt>
<trkpt lat="57.151307" lon="9.023252">
<ele>9.863665</ele>
<time>2026-07-15T10:58:15.000Z</time>
</trkpt>
<trkpt lat="57.151352" lon="9.023296">
<ele>9.869223</ele>
<time>2026-07-15T10:58:16.000Z</time>
</trkpt>
<trkpt lat="57.151402" lon="9.023339">
<ele>9.875243</ele>
<time>2026-07-15T10:58:17.000Z</time>
</trkpt>
<trkpt lat="57.151448" lon="9.023381">
<ele>9.880843</ele>
<time>2026-07-15T10:58:18.000Z</time>
</trkpt>
<trkpt lat="57.151493" lon="9.023423">
<ele>9.886346</ele>
<time>2026-07-15T10:58:19.000Z</time>
</trkpt>
<trkpt lat="57.151536" lon="9.023466">
<ele>9.891684</ele>
<time>2026-07-15T10:58:20.000Z</time>
</trkpt>
<trkpt lat="57.151581" lon="9.023506">
<ele>9.897134</ele>
<time>2026-07-15T10:58:21.000Z</time>
</trkpt>
<trkpt lat="57.151626" lon="9.023545">
<ele>9.902560</ele>
<time>2026-07-15T10:58:22.000Z</time>
</trkpt>
<trkpt lat="57.151669" lon="9.023584">
<ele>9.907788</ele>
<time>2026-07-15T10:58:23.000Z</time>
</trkpt>
<trkpt lat="57.151715" lon="9.023624">
<ele>9.913338</ele>
<time>2026-07-15T10:58:24.000Z</time>
</trkpt>
<trkpt lat="57.151760" lon="9.023666">
<ele>9.918841</ele>
<time>2026-07-15T10:58:25.000Z</time>
</trkpt>
<trkpt lat="57.151803" lon="9.023707">
<ele>9.924123</ele>
<time>2026-07-15T10:58:26.000Z</time>
</trkpt>
<trkpt lat="57.151848" lon="9.023749">
<ele>9.929626</ele>
<time>2026-07-15T10:58:27.000Z</time>
</trkpt>
<trkpt lat="57.151890" lon="9.023787">
<ele>9.934730</ele>
<time>2026-07-15T10:58:28.000Z</time>
</trkpt>
<trkpt lat="57.151932" lon="9.023827">
<ele>9.939888</ele>
<time>2026-07-15T10:58:29.000Z</time>
</trkpt>
<trkpt lat="57.151974" lon="9.023865">
<ele>9.944993</ele>
<time>2026-07-15T10:58:30.000Z</time>
</trkpt>
<trkpt lat="57.152020" lon="9.023903">
<ele>9.950493</ele>
<time>2026-07-15T10:58:31.000Z</time>
</trkpt>
<trkpt lat="57.152062" lon="9.023943">
<ele>10.016444</ele>
<time>2026-07-15T10:58:32.000Z</time>
</trkpt>
<trkpt lat="57.152108" lon="9.023983">
<ele>10.166296</ele>
<time>2026-07-15T10:58:33.000Z</time>
</trkpt>
<trkpt lat="57.152158" lon="9.024023">
<ele>10.326886</ele>
<time>2026-07-15T10:58:34.000Z</time>
</trkpt>
<trkpt lat="57.152199" lon="9.024061">
<ele>10.462092</ele>
<time>2026-07-15T10:58:35.000Z</time>
</trkpt>
<trkpt lat="57.152245" lon="9.024101">
<ele>10.611944</ele>
<time>2026-07-15T10:58:36.000Z</time>
</trkpt>
<trkpt lat="57.152291" lon="9.024141">
<ele>10.761796</ele>
<time>2026-07-15T10:58:37.000Z</time>
</trkpt>
<trkpt lat="57.152337" lon="9.024182">
<ele>10.912336</ele>
<time>2026-07-15T10:58:38.000Z</time>
</trkpt>
<trkpt lat="57.152383" lon="9.024224">
<ele>11.063579</ele>
<time>2026-07-15T10:58:39.000Z</time>
</trkpt>
<trkpt lat="57.152424" lon="9.024266">
<ele>11.201775</ele>
<time>2026-07-15T10:58:40.000Z</time>
</trkpt>
<trkpt lat="57.152470" lon="9.024305">
<ele>11.350952</ele>
<time>2026-07-15T10:58:41.000Z</time>
</trkpt>
<trkpt lat="57.152512" lon="9.024344">
<ele>11.489509</ele>
<time>2026-07-15T10:58:42.000Z</time>
</trkpt>
<trkpt lat="57.152554" lon="9.024384">
<ele>11.628792</ele>
<time>2026-07-15T10:58:43.000Z</time>
</trkpt>
<trkpt lat="57.152596" lon="9.024424">
<ele>11.768075</ele>
<time>2026-07-15T10:58:44.000Z</time>
</trkpt>
<trkpt lat="57.152637" lon="9.024458">
<ele>11.900533</ele>
<time>2026-07-15T10:58:45.000Z</time>
</trkpt>
<trkpt lat="57.152684" lon="9.024492">
<ele>12.049291</ele>
<time>2026-07-15T10:58:46.000Z</time>
</trkpt>
<trkpt lat="57.152730" lon="9.024524">
<ele>12.194151</ele>
<time>2026-07-15T10:58:47.000Z</time>
</trkpt>
<trkpt lat="57.152775" lon="9.024558">
<ele>12.337439</ele>
<time>2026-07-15T10:58:48.000Z</time>
</trkpt>
<trkpt lat="57.152821" lon="9.024598">
<ele>12.487290</ele>
<time>2026-07-15T10:58:49.000Z</time>
</trkpt>
<trkpt lat="57.152867" lon="9.024645">
<ele>12.642245</ele>
<time>2026-07-15T10:58:50.000Z</time>
</trkpt>
<trkpt lat="57.152912" lon="9.024695">
<ele>12.797048</ele>
<time>2026-07-15T10:58:51.000Z</time>
</trkpt>
<trkpt lat="57.152955" lon="9.024755">
<ele>12.955936</ele>
<time>2026-07-15T10:58:52.000Z</time>
</trkpt>
<trkpt lat="57.152989" lon="9.024826">
<ele>13.107295</ele>
<time>2026-07-15T10:58:53.000Z</time>
</trkpt>
<trkpt lat="57.153015" lon="9.024908">
<ele>13.259088</ele>
<time>2026-07-15T10:58:54.000Z</time>
</trkpt>
<trkpt lat="57.153027" lon="9.024989">
<ele>13.393275</ele>
<time>2026-07-15T10:58:55.000Z</time>
</trkpt>
<trkpt lat="57.153034" lon="9.025077">
<ele>13.535412</ele>
<time>2026-07-15T10:58:56.000Z</time>
</trkpt>
<trkpt lat="57.153038" lon="9.025160">
<ele>13.668577</ele>
<time>2026-07-15T10:58:57.000Z</time>
</trkpt>
<trkpt lat="57.153034" lon="9.025243">
<ele>13.801742</ele>
<time>2026-07-15T10:58:58.000Z</time>
</trkpt>
<trkpt lat="57.153030" lon="9.025323">
<ele>13.930132</ele>
<time>2026-07-15T10:58:59.000Z</time>
</trkpt>
<trkpt lat="57.153027" lon="9.025396">
<ele>14.047127</ele>
<time>2026-07-15T10:59:00.000Z</time>
</trkpt>
<trkpt lat="57.153019" lon="9.025465">
<ele>14.159887</ele>
<time>2026-07-15T10:59:01.000Z</time>
</trkpt>
<trkpt lat="57.153015" lon="9.025537">
<ele>14.275552</ele>
<time>2026-07-15T10:59:02.000Z</time>
</trkpt>
<trkpt lat="57.153011" lon="9.025606">
<ele>14.386449</ele>
<time>2026-07-15T10:59:03.000Z</time>
</trkpt>
<trkpt lat="57.153004" lon="9.025674">
<ele>14.497060</ele>
<time>2026-07-15T10:59:04.000Z</time>
</trkpt>
<trkpt lat="57.153000" lon="9.025731">
<ele>14.588911</ele>
<time>2026-07-15T10:59:05.000Z</time>
</trkpt>
<trkpt lat="57.152996" lon="9.025796">
<ele>14.693454</ele>
<time>2026-07-15T10:59:06.000Z</time>
</trkpt>
<trkpt lat="57.152992" lon="9.025855">
<ele>14.788475</ele>
<time>2026-07-15T10:59:07.000Z</time>
</trkpt>
<trkpt lat="57.152988" lon="9.025913">
<ele>14.881912</ele>
<time>2026-07-15T10:59:08.000Z</time>
</trkpt>
<trkpt lat="57.152985" lon="9.025973">
<ele>14.978204</ele>
<time>2026-07-15T10:59:09.000Z</time>
</trkpt>
<trkpt lat="57.152981" lon="9.026032">
<ele>15.073226</ele>
<time>2026-07-15T10:59:10.000Z</time>
</trkpt>
<trkpt lat="57.152973" lon="9.026091">
<ele>15.170415</ele>
<time>2026-07-15T10:59:11.000Z</time>
</trkpt>
<trkpt lat="57.152969" lon="9.026145">
<ele>15.265317</ele>
<time>2026-07-15T10:59:12.000Z</time>
</trkpt>
<trkpt lat="57.152965" lon="9.026199">
<ele>15.495645</ele>
<time>2026-07-15T10:59:13.000Z</time>
</trkpt>
<trkpt lat="57.152962" lon="9.026252">
<ele>15.720845</ele>
<time>2026-07-15T10:59:14.000Z</time>
</trkpt>
<trkpt lat="57.152962" lon="9.026305">
<ele>15.944828</ele>
<time>2026-07-15T10:59:15.000Z</time>
</trkpt>
<trkpt lat="57.152958" lon="9.026360">
<ele>16.179344</ele>
<time>2026-07-15T10:59:16.000Z</time>
</trkpt>
<trkpt lat="57.152950" lon="9.026408">
<ele>16.391558</ele>
<time>2026-07-15T10:59:17.000Z</time>
</trkpt>
<trkpt lat="57.152946" lon="9.026455">
<ele>16.592615</ele>
<time>2026-07-15T10:59:18.000Z</time>
</trkpt>
<trkpt lat="57.152946" lon="9.026500">
<ele>16.782790</ele>
<time>2026-07-15T10:59:19.000Z</time>
</trkpt>
<trkpt lat="57.152946" lon="9.026547">
<ele>16.981416</ele>
<time>2026-07-15T10:59:20.000Z</time>
</trkpt>
<trkpt lat="57.152943" lon="9.026590">
<ele>17.164636</ele>
<time>2026-07-15T10:59:21.000Z</time>
</trkpt>
<trkpt lat="57.152935" lon="9.026632">
<ele>17.352759</ele>
<time>2026-07-15T10:59:22.000Z</time>
</trkpt>
<trkpt lat="57.152935" lon="9.026673">
<ele>17.526029</ele>
<time>2026-07-15T10:59:23.000Z</time>
</trkpt>
<trkpt lat="57.152931" lon="9.026714">
<ele>17.702080</ele>
<time>2026-07-15T10:59:24.000Z</time>
</trkpt>
<trkpt lat="57.152931" lon="9.026751">
<ele>17.858446</ele>
<time>2026-07-15T10:59:25.000Z</time>
</trkpt>
<trkpt lat="57.152931" lon="9.026792">
<ele>18.031717</ele>
<time>2026-07-15T10:59:26.000Z</time>
</trkpt>
<trkpt lat="57.152927" lon="9.026829">
<ele>18.191158</ele>
<time>2026-07-15T10:59:27.000Z</time>
</trkpt>
<trkpt lat="57.152924" lon="9.026866">
<ele>18.349262</ele>
<time>2026-07-15T10:59:28.000Z</time>
</trkpt>
<trkpt lat="57.152924" lon="9.026898">
<ele>18.484497</ele>
<time>2026-07-15T10:59:29.000Z</time>
</trkpt>
<trkpt lat="57.152920" lon="9.026945">
<ele>18.685554</ele>
<time>2026-07-15T10:59:30.000Z</time>
</trkpt>
<trkpt lat="57.152920" lon="9.026983">
<ele>18.846146</ele>
<time>2026-07-15T10:59:31.000Z</time>
</trkpt>
<trkpt lat="57.152916" lon="9.027024">
<ele>19.022197</ele>
<time>2026-07-15T10:59:32.000Z</time>
</trkpt>
<trkpt lat="57.152912" lon="9.027062">
<ele>19.185786</ele>
<time>2026-07-15T10:59:33.000Z</time>
</trkpt>
<trkpt lat="57.152912" lon="9.027102">
<ele>19.354830</ele>
<time>2026-07-15T10:59:34.000Z</time>
</trkpt>
<trkpt lat="57.152916" lon="9.027142">
<ele>19.526723</ele>
<time>2026-07-15T10:59:35.000Z</time>
</trkpt>
<trkpt lat="57.152916" lon="9.027182">
<ele>19.695768</ele>
<time>2026-07-15T10:59:36.000Z</time>
</trkpt>
<trkpt lat="57.152916" lon="9.027218">
<ele>19.847908</ele>
<time>2026-07-15T10:59:37.000Z</time>
</trkpt>
<trkpt lat="57.152916" lon="9.027257">
<ele>20.012726</ele>
<time>2026-07-15T10:59:38.000Z</time>
</trkpt>
<trkpt lat="57.152916" lon="9.027295">
<ele>20.173318</ele>
<time>2026-07-15T10:59:39.000Z</time>
</trkpt>
<trkpt lat="57.152920" lon="9.027332">
<ele>20.332759</ele>
<time>2026-07-15T10:59:40.000Z</time>
</trkpt>
<trkpt lat="57.152924" lon="9.027368">
<ele>20.488059</ele>
<time>2026-07-15T10:59:41.000Z</time>
</trkpt>
<trkpt lat="57.152927" lon="9.027402">
<ele>20.633635</ele>
<time>2026-07-15T10:59:42.000Z</time>
</trkpt>
<trkpt lat="57.152935" lon="9.027440">
<ele>20.805900</ele>
<time>2026-07-15T10:59:43.000Z</time>
</trkpt>
<trkpt lat="57.152939" lon="9.027476">
<ele>20.961199</ele>
<time>2026-07-15T10:59:44.000Z</time>
</trkpt>
<trkpt lat="57.152943" lon="9.027514">
<ele>21.124787</ele>
<time>2026-07-15T10:59:45.000Z</time>
</trkpt>
<trkpt lat="57.152950" lon="9.027552">
<ele>21.294388</ele>
<time>2026-07-15T10:59:46.000Z</time>
</trkpt>
<trkpt lat="57.152954" lon="9.027588">
<ele>21.449687</ele>
<time>2026-07-15T10:59:47.000Z</time>
</trkpt>
<trkpt lat="57.152962" lon="9.027623">
<ele>21.610198</ele>
<time>2026-07-15T10:59:48.000Z</time>
</trkpt>
<trkpt lat="57.152969" lon="9.027654">
<ele>21.752107</ele>
<time>2026-07-15T10:59:49.000Z</time>
</trkpt>
<trkpt lat="57.152977" lon="9.027684">
<ele>21.893384</ele>
<time>2026-07-15T10:59:50.000Z</time>
</trkpt>
<trkpt lat="57.152988" lon="9.027717">
<ele>22.057076</ele>
<time>2026-07-15T10:59:51.000Z</time>
</trkpt>
<trkpt lat="57.152996" lon="9.027748">
<ele>22.202157</ele>
<time>2026-07-15T10:59:52.000Z</time>
</trkpt>
<trkpt lat="57.153004" lon="9.027779">
<ele>22.347239</ele>
<time>2026-07-15T10:59:53.000Z</time>
</trkpt>
<trkpt lat="57.153015" lon="9.027808">
<ele>22.496791</ele>
<time>2026-07-15T10:59:54.000Z</time>
</trkpt>
<trkpt lat="57.153023" lon="9.027838">
<ele>22.638068</ele>
<time>2026-07-15T10:59:55.000Z</time>
</trkpt>
<trkpt lat="57.153034" lon="9.027866">
<ele>22.784177</ele>
<time>2026-07-15T10:59:56.000Z</time>
</trkpt>
<trkpt lat="57.153045" lon="9.027890">
<ele>22.916966</ele>
<time>2026-07-15T10:59:57.000Z</time>
</trkpt>
<trkpt lat="57.153053" lon="9.027917">
<ele>23.046986</ele>
<time>2026-07-15T10:59:58.000Z</time>
</trkpt>
<trkpt lat="57.153064" lon="9.027941">
<ele>23.179774</ele>
<time>2026-07-15T10:59:59.000Z</time>
</trkpt>
<trkpt lat="57.153076" lon="9.027967">
<ele>23.324049</ele>
<time>2026-07-15T11:00:00.000Z</time>
</trkpt>
<trkpt lat="57.153088" lon="9.027991">
<ele>23.461995</ele>
<time>2026-07-15T11:00:01.000Z</time>
</trkpt>
<trkpt lat="57.153102" lon="9.028011">
<ele>23.599990</ele>
<time>2026-07-15T11:00:02.000Z</time>
</trkpt>
<trkpt lat="57.153114" lon="9.028035">
<ele>23.737937</ele>
<time>2026-07-15T11:00:03.000Z</time>
</trkpt>
<trkpt lat="57.153118" lon="9.028060">
<ele>23.848090</ele>
<time>2026-07-15T11:00:04.000Z</time>
</trkpt>
<trkpt lat="57.153114" lon="9.028094">
<ele>23.995118</ele>
<time>2026-07-15T11:00:05.000Z</time>
</trkpt>
<trkpt lat="57.153103" lon="9.028120">
<ele>24.134469</ele>
<time>2026-07-15T11:00:06.000Z</time>
</trkpt>
<trkpt lat="57.153091" lon="9.028140">
<ele>24.260508</ele>
<time>2026-07-15T11:00:07.000Z</time>
</trkpt>
<trkpt lat="57.153072" lon="9.028158">
<ele>24.426948</ele>
<time>2026-07-15T11:00:08.000Z</time>
</trkpt>
<trkpt lat="57.153053" lon="9.028175">
<ele>24.591498</ele>
<time>2026-07-15T11:00:09.000Z</time>
</trkpt>
<trkpt lat="57.153034" lon="9.028189">
<ele>24.750922</ele>
<time>2026-07-15T11:00:10.000Z</time>
</trkpt>
<trkpt lat="57.153011" lon="9.028207">
<ele>24.945604</ele>
<time>2026-07-15T11:00:11.000Z</time>
</trkpt>
<trkpt lat="57.152988" lon="9.028229">
<ele>25.147492</ele>
<time>2026-07-15T11:00:12.000Z</time>
</trkpt>
<trkpt lat="57.152961" lon="9.028254">
<ele>25.382903</ele>
<time>2026-07-15T11:00:13.000Z</time>
</trkpt>
<trkpt lat="57.152935" lon="9.028282">
<ele>25.617510</ele>
<time>2026-07-15T11:00:14.000Z</time>
</trkpt>
<trkpt lat="57.152904" lon="9.028310">
<ele>25.886475</ele>
<time>2026-07-15T11:00:15.000Z</time>
</trkpt>
<trkpt lat="57.152878" lon="9.028345">
<ele>26.137308</ele>
<time>2026-07-15T11:00:16.000Z</time>
</trkpt>
<trkpt lat="57.152851" lon="9.028384">
<ele>26.404555</ele>
<time>2026-07-15T11:00:17.000Z</time>
</trkpt>
<trkpt lat="57.152828" lon="9.028427">
<ele>26.659775</ele>
<time>2026-07-15T11:00:18.000Z</time>
</trkpt>
<trkpt lat="57.152805" lon="9.028472">
<ele>26.921082</ele>
<time>2026-07-15T11:00:19.000Z</time>
</trkpt>
<trkpt lat="57.152786" lon="9.028517">
<ele>27.162084</ele>
<time>2026-07-15T11:00:20.000Z</time>
</trkpt>
<trkpt lat="57.152763" lon="9.028564">
<ele>27.429605</ele>
<time>2026-07-15T11:00:21.000Z</time>
</trkpt>
<trkpt lat="57.152744" lon="9.028616">
<ele>27.694576</ele>
<time>2026-07-15T11:00:22.000Z</time>
</trkpt>
<trkpt lat="57.152726" lon="9.028670">
<ele>27.962437</ele>
<time>2026-07-15T11:00:23.000Z</time>
</trkpt>
<trkpt lat="57.152706" lon="9.028732">
<ele>28.267293</ele>
<time>2026-07-15T11:00:24.000Z</time>
</trkpt>
<trkpt lat="57.152691" lon="9.028799">
<ele>28.573616</ele>
<time>2026-07-15T11:00:25.000Z</time>
</trkpt>
<trkpt lat="57.152679" lon="9.028869">
<ele>28.883869</ele>
<time>2026-07-15T11:00:26.000Z</time>
</trkpt>
<trkpt lat="57.152672" lon="9.028939">
<ele>29.184684</ele>
<time>2026-07-15T11:00:27.000Z</time>
</trkpt>
<trkpt lat="57.152660" lon="9.029012">
<ele>29.344793</ele>
<time>2026-07-15T11:00:28.000Z</time>
</trkpt>
<trkpt lat="57.152657" lon="9.029080">
<ele>29.438295</ele>
<time>2026-07-15T11:00:29.000Z</time>
</trkpt>
<trkpt lat="57.152653" lon="9.029152">
<ele>29.537487</ele>
<time>2026-07-15T11:00:30.000Z</time>
</trkpt>
<trkpt lat="57.152649" lon="9.029224">
<ele>29.636679</ele>
<time>2026-07-15T11:00:31.000Z</time>
</trkpt>
<trkpt lat="57.152645" lon="9.029295">
<ele>29.734508</ele>
<time>2026-07-15T11:00:32.000Z</time>
</trkpt>
<trkpt lat="57.152636" lon="9.029360">
<ele>29.826447</ele>
<time>2026-07-15T11:00:33.000Z</time>
</trkpt>
<trkpt lat="57.152630" lon="9.029442">
<ele>29.939846</ele>
<time>2026-07-15T11:00:34.000Z</time>
</trkpt>
<trkpt lat="57.152622" lon="9.029516">
<ele>30.043257</ele>
<time>2026-07-15T11:00:35.000Z</time>
</trkpt>
<trkpt lat="57.152614" lon="9.029590">
<ele>30.146669</ele>
<time>2026-07-15T11:00:36.000Z</time>
</trkpt>
<trkpt lat="57.152604" lon="9.029660">
<ele>30.245876</ele>
<time>2026-07-15T11:00:37.000Z</time>
</trkpt>
<trkpt lat="57.152595" lon="9.029741">
<ele>30.359191</ele>
<time>2026-07-15T11:00:38.000Z</time>
</trkpt>
<trkpt lat="57.152588" lon="9.029821">
<ele>30.470249</ele>
<time>2026-07-15T11:00:39.000Z</time>
</trkpt>
<trkpt lat="57.152580" lon="9.029900">
<ele>30.580389</ele>
<time>2026-07-15T11:00:40.000Z</time>
</trkpt>
<trkpt lat="57.152573" lon="9.029980">
<ele>30.691447</ele>
<time>2026-07-15T11:00:41.000Z</time>
</trkpt>
<trkpt lat="57.152565" lon="9.030057">
<ele>30.798894</ele>
<time>2026-07-15T11:00:42.000Z</time>
</trkpt>
<trkpt lat="57.152557" lon="9.030138">
<ele>30.911730</ele>
<time>2026-07-15T11:00:43.000Z</time>
</trkpt>
<trkpt lat="57.152553" lon="9.030211">
<ele>31.012285</ele>
<time>2026-07-15T11:00:44.000Z</time>
</trkpt>
<trkpt lat="57.152542" lon="9.030284">
<ele>31.116121</ele>
<time>2026-07-15T11:00:45.000Z</time>
</trkpt>
<trkpt lat="57.152538" lon="9.030356">
<ele>31.215313</ele>
<time>2026-07-15T11:00:46.000Z</time>
</trkpt>
<trkpt lat="57.152527" lon="9.030421">
<ele>31.308631</ele>
<time>2026-07-15T11:00:47.000Z</time>
</trkpt>
<trkpt lat="57.152523" lon="9.030488">
<ele>31.401009</ele>
<time>2026-07-15T11:00:48.000Z</time>
</trkpt>
<trkpt lat="57.152515" lon="9.030552">
<ele>31.491021</ele>
<time>2026-07-15T11:00:49.000Z</time>
</trkpt>
<trkpt lat="57.152512" lon="9.030613">
<ele>31.574964</ele>
<time>2026-07-15T11:00:50.000Z</time>
</trkpt>
<trkpt lat="57.152508" lon="9.030671">
<ele>31.655093</ele>
<time>2026-07-15T11:00:51.000Z</time>
</trkpt>
<trkpt lat="57.152501" lon="9.030719">
<ele>31.723214</ele>
<time>2026-07-15T11:00:52.000Z</time>
</trkpt>
<trkpt lat="57.152493" lon="9.030784">
<ele>31.814561</ele>
<time>2026-07-15T11:00:53.000Z</time>
</trkpt>
<trkpt lat="57.152485" lon="9.030842">
<ele>31.896580</ele>
<time>2026-07-15T11:00:54.000Z</time>
</trkpt>
<trkpt lat="57.152477" lon="9.030898">
<ele>31.975946</ele>
<time>2026-07-15T11:00:55.000Z</time>
</trkpt>
<trkpt lat="57.152466" lon="9.030952">
<ele>32.055000</ele>
<time>2026-07-15T11:00:56.000Z</time>
</trkpt>
<trkpt lat="57.152454" lon="9.031007">
<ele>32.136247</ele>
<time>2026-07-15T11:00:57.000Z</time>
</trkpt>
<trkpt lat="57.152443" lon="9.031059">
<ele>32.212742</ele>
<time>2026-07-15T11:00:58.000Z</time>
</trkpt>
<trkpt lat="57.152428" lon="9.031105">
<ele>32.286301</ele>
<time>2026-07-15T11:00:59.000Z</time>
</trkpt>
<trkpt lat="57.152412" lon="9.031150">
<ele>32.360043</ele>
<time>2026-07-15T11:01:00.000Z</time>
</trkpt>
<trkpt lat="57.152393" lon="9.031192">
<ele>32.434996</ele>
<time>2026-07-15T11:01:01.000Z</time>
</trkpt>
<trkpt lat="57.152370" lon="9.031230">
<ele>32.513032</ele>
<time>2026-07-15T11:01:02.000Z</time>
</trkpt>
<trkpt lat="57.152348" lon="9.031265">
<ele>32.586455</ele>
<time>2026-07-15T11:01:03.000Z</time>
</trkpt>
<trkpt lat="57.152324" lon="9.031297">
<ele>32.661293</ele>
<time>2026-07-15T11:01:04.000Z</time>
</trkpt>
<trkpt lat="57.152294" lon="9.031320">
<ele>32.743387</ele>
<time>2026-07-15T11:01:05.000Z</time>
</trkpt>
<trkpt lat="57.152263" lon="9.031339">
<ele>32.825930</ele>
<time>2026-07-15T11:01:06.000Z</time>
</trkpt>
<trkpt lat="57.152233" lon="9.031353">
<ele>32.904123</ele>
<time>2026-07-15T11:01:07.000Z</time>
</trkpt>
<trkpt lat="57.152200" lon="9.031366">
<ele>32.989386</ele>
<time>2026-07-15T11:01:08.000Z</time>
</trkpt>
<trkpt lat="57.152160" lon="9.031380">
<ele>33.092260</ele>
<time>2026-07-15T11:01:09.000Z</time>
</trkpt>
<trkpt lat="57.152126" lon="9.031392">
<ele>33.179729</ele>
<time>2026-07-15T11:01:10.000Z</time>
</trkpt>
<trkpt lat="57.152088" lon="9.031405">
<ele>33.277383</ele>
<time>2026-07-15T11:01:11.000Z</time>
</trkpt>
<trkpt lat="57.152058" lon="9.031414">
<ele>33.354182</ele>
<time>2026-07-15T11:01:12.000Z</time>
</trkpt>
<trkpt lat="57.152015" lon="9.031420">
<ele>33.463141</ele>
<time>2026-07-15T11:01:13.000Z</time>
</trkpt>
<trkpt lat="57.151977" lon="9.031426">
<ele>33.559508</ele>
<time>2026-07-15T11:01:14.000Z</time>
</trkpt>
<trkpt lat="57.151939" lon="9.031435">
<ele>33.656312</ele>
<time>2026-07-15T11:01:15.000Z</time>
</trkpt>
<trkpt lat="57.151901" lon="9.031445">
<ele>33.753301</ele>
<time>2026-07-15T11:01:16.000Z</time>
</trkpt>
<trkpt lat="57.151859" lon="9.031453">
<ele>33.850567</ele>
<time>2026-07-15T11:01:17.000Z</time>
</trkpt>
<trkpt lat="57.151817" lon="9.031462">
<ele>33.936609</ele>
<time>2026-07-15T11:01:18.000Z</time>
</trkpt>
<trkpt lat="57.151775" lon="9.031470">
<ele>34.022532</ele>
<time>2026-07-15T11:01:19.000Z</time>
</trkpt>
<trkpt lat="57.151733" lon="9.031484">
<ele>34.109385</ele>
<time>2026-07-15T11:01:20.000Z</time>
</trkpt>
<trkpt lat="57.151691" lon="9.031497">
<ele>34.196049</ele>
<time>2026-07-15T11:01:21.000Z</time>
</trkpt>
<trkpt lat="57.151650" lon="9.031508">
<ele>34.280360</ele>
<time>2026-07-15T11:01:22.000Z</time>
</trkpt>
<trkpt lat="57.151607" lon="9.031517">
<ele>34.368424</ele>
<time>2026-07-15T11:01:23.000Z</time>
</trkpt>
<trkpt lat="57.151569" lon="9.031529">
<ele>34.446878</ele>
<time>2026-07-15T11:01:24.000Z</time>
</trkpt>
<trkpt lat="57.151527" lon="9.031537">
<ele>34.532801</ele>
<time>2026-07-15T11:01:25.000Z</time>
</trkpt>
<trkpt lat="57.151485" lon="9.031542">
<ele>34.618446</ele>
<time>2026-07-15T11:01:26.000Z</time>
</trkpt>
<trkpt lat="57.151443" lon="9.031551">
<ele>34.704489</ele>
<time>2026-07-15T11:01:27.000Z</time>
</trkpt>
<trkpt lat="57.151405" lon="9.031564">
<ele>34.783137</ele>
<time>2026-07-15T11:01:28.000Z</time>
</trkpt>
<trkpt lat="57.151363" lon="9.031569">
<ele>34.868782</ele>
<time>2026-07-15T11:01:29.000Z</time>
</trkpt>
<trkpt lat="57.151325" lon="9.031577">
<ele>34.946612</ele>
<time>2026-07-15T11:01:30.000Z</time>
</trkpt>
<trkpt lat="57.151279" lon="9.031587">
<ele>35.040868</ele>
<time>2026-07-15T11:01:31.000Z</time>
</trkpt>
<trkpt lat="57.151237" lon="9.031597">
<ele>35.127045</ele>
<time>2026-07-15T11:01:32.000Z</time>
</trkpt>
<trkpt lat="57.151195" lon="9.031605">
<ele>35.212968</ele>
<time>2026-07-15T11:01:33.000Z</time>
</trkpt>
<trkpt lat="57.151153" lon="9.031615">
<ele>35.299145</ele>
<time>2026-07-15T11:01:34.000Z</time>
</trkpt>
<trkpt lat="57.151112" lon="9.031625">
<ele>35.383305</ele>
<time>2026-07-15T11:01:35.000Z</time>
</trkpt>
<trkpt lat="57.151065" lon="9.031635">
<ele>35.479581</ele>
<time>2026-07-15T11:01:36.000Z</time>
</trkpt>
<trkpt lat="57.151024" lon="9.031645">
<ele>35.563741</ele>
<time>2026-07-15T11:01:37.000Z</time>
</trkpt>
<trkpt lat="57.150982" lon="9.031651">
<ele>35.649465</ele>
<time>2026-07-15T11:01:38.000Z</time>
</trkpt>
<trkpt lat="57.150940" lon="9.031656">
<ele>35.735110</ele>
<time>2026-07-15T11:01:39.000Z</time>
</trkpt>
<trkpt lat="57.150902" lon="9.031665">
<ele>35.813073</ele>
<time>2026-07-15T11:01:40.000Z</time>
</trkpt>
<trkpt lat="57.150857" lon="9.031675">
<ele>35.905308</ele>
<time>2026-07-15T11:01:41.000Z</time>
</trkpt>
<trkpt lat="57.150810" lon="9.031685">
<ele>36.001585</ele>
<time>2026-07-15T11:01:42.000Z</time>
</trkpt>
<trkpt lat="57.150768" lon="9.031695">
<ele>36.087763</ele>
<time>2026-07-15T11:01:43.000Z</time>
</trkpt>
<trkpt lat="57.150726" lon="9.031705">
<ele>36.173940</ele>
<time>2026-07-15T11:01:44.000Z</time>
</trkpt>
<trkpt lat="57.150684" lon="9.031716">
<ele>36.260265</ele>
<time>2026-07-15T11:01:45.000Z</time>
</trkpt>
<trkpt lat="57.150642" lon="9.031723">
<ele>36.346081</ele>
<time>2026-07-15T11:01:46.000Z</time>
</trkpt>
<trkpt lat="57.150600" lon="9.031729">
<ele>36.431805</ele>
<time>2026-07-15T11:01:47.000Z</time>
</trkpt>
<trkpt lat="57.150562" lon="9.031734">
<ele>36.509329</ele>
<time>2026-07-15T11:01:48.000Z</time>
</trkpt>
<trkpt lat="57.150528" lon="9.031740">
<ele>36.578834</ele>
<time>2026-07-15T11:01:49.000Z</time>
</trkpt>
<trkpt lat="57.150491" lon="9.031745">
<ele>36.654328</ele>
<time>2026-07-15T11:01:50.000Z</time>
</trkpt>
<trkpt lat="57.150451" lon="9.031752">
<ele>36.736092</ele>
<time>2026-07-15T11:01:51.000Z</time>
</trkpt>
<trkpt lat="57.150417" lon="9.031763">
<ele>36.806337</ele>
<time>2026-07-15T11:01:52.000Z</time>
</trkpt>
<trkpt lat="57.150386" lon="9.031772">
<ele>36.870198</ele>
<time>2026-07-15T11:01:53.000Z</time>
</trkpt>
<trkpt lat="57.150349" lon="9.031780">
<ele>36.946006</ele>
<time>2026-07-15T11:01:54.000Z</time>
</trkpt>
<trkpt lat="57.150318" lon="9.031788">
<ele>37.009705</ele>
<time>2026-07-15T11:01:55.000Z</time>
</trkpt>
<trkpt lat="57.150287" lon="9.031795">
<ele>37.073259</ele>
<time>2026-07-15T11:01:56.000Z</time>
</trkpt>
<trkpt lat="57.150253" lon="9.031800">
<ele>37.142667</ele>
<time>2026-07-15T11:01:57.000Z</time>
</trkpt>
<trkpt lat="57.150226" lon="9.031807">
<ele>37.198151</ele>
<time>2026-07-15T11:01:58.000Z</time>
</trkpt>
<trkpt lat="57.150192" lon="9.031814">
<ele>37.267769</ele>
<time>2026-07-15T11:01:59.000Z</time>
</trkpt>
<trkpt lat="57.150158" lon="9.031820">
<ele>37.337273</ele>
<time>2026-07-15T11:02:00.000Z</time>
</trkpt>
<trkpt lat="57.150123" lon="9.031823">
<ele>37.408573</ele>
<time>2026-07-15T11:02:01.000Z</time>
</trkpt>
<trkpt lat="57.150093" lon="9.031828">
<ele>37.469870</ele>
<time>2026-07-15T11:02:02.000Z</time>
</trkpt>
<trkpt lat="57.150058" lon="9.031834">
<ele>37.566078</ele>
<time>2026-07-15T11:02:03.000Z</time>
</trkpt>
<trkpt lat="57.150028" lon="9.031838">
<ele>37.648961</ele>
<time>2026-07-15T11:02:04.000Z</time>
</trkpt>
<trkpt lat="57.149997" lon="9.031845">
<ele>37.735022</ele>
<time>2026-07-15T11:02:05.000Z</time>
</trkpt>
<trkpt lat="57.149963" lon="9.031854">
<ele>37.829673</ele>
<time>2026-07-15T11:02:06.000Z</time>
</trkpt>
<trkpt lat="57.149933" lon="9.031861">
<ele>37.912999</ele>
<time>2026-07-15T11:02:07.000Z</time>
</trkpt>
<trkpt lat="57.149898" lon="9.031870">
<ele>38.010378</ele>
<time>2026-07-15T11:02:08.000Z</time>
</trkpt>
<trkpt lat="57.149868" lon="9.031877">
<ele>38.093704</ele>
<time>2026-07-15T11:02:09.000Z</time>
</trkpt>
<trkpt lat="57.149833" lon="9.031883">
<ele>38.190565</ele>
<time>2026-07-15T11:02:10.000Z</time>
</trkpt>
<trkpt lat="57.149803" lon="9.031892">
<ele>38.274320</ele>
<time>2026-07-15T11:02:11.000Z</time>
</trkpt>
<trkpt lat="57.149768" lon="9.031896">
<ele>38.370950</ele>
<time>2026-07-15T11:02:12.000Z</time>
</trkpt>
<trkpt lat="57.149731" lon="9.031901">
<ele>38.473179</ele>
<time>2026-07-15T11:02:13.000Z</time>
</trkpt>
<trkpt lat="57.149692" lon="9.031907">
<ele>38.581020</ele>
<time>2026-07-15T11:02:14.000Z</time>
</trkpt>
<trkpt lat="57.149658" lon="9.031915">
<ele>38.675469</ele>
<time>2026-07-15T11:02:15.000Z</time>
</trkpt>
<trkpt lat="57.149620" lon="9.031925">
<ele>38.781242</ele>
<time>2026-07-15T11:02:16.000Z</time>
</trkpt>
<trkpt lat="57.149581" lon="9.031932">
<ele>38.889217</ele>
<time>2026-07-15T11:02:17.000Z</time>
</trkpt>
<trkpt lat="57.149543" lon="9.031941">
<ele>38.994790</ele>
<time>2026-07-15T11:02:18.000Z</time>
</trkpt>
<trkpt lat="57.149505" lon="9.031948">
<ele>39.100023</ele>
<time>2026-07-15T11:02:19.000Z</time>
</trkpt>
<trkpt lat="57.149467" lon="9.031955">
<ele>39.205256</ele>
<time>2026-07-15T11:02:20.000Z</time>
</trkpt>
<trkpt lat="57.149429" lon="9.031962">
<ele>39.310489</ele>
<time>2026-07-15T11:02:21.000Z</time>
</trkpt>
<trkpt lat="57.149392" lon="9.031968">
<ele>39.412838</ele>
<time>2026-07-15T11:02:22.000Z</time>
</trkpt>
<trkpt lat="57.149354" lon="9.031975">
<ele>39.518071</ele>
<time>2026-07-15T11:02:23.000Z</time>
</trkpt>
<trkpt lat="57.149316" lon="9.031983">
<ele>39.623464</ele>
<time>2026-07-15T11:02:24.000Z</time>
</trkpt>
<trkpt lat="57.149281" lon="9.031992">
<ele>39.720842</ele>
<time>2026-07-15T11:02:25.000Z</time>
</trkpt>
<trkpt lat="57.149246" lon="9.031997">
<ele>39.817576</ele>
<time>2026-07-15T11:02:26.000Z</time>
</trkpt>
<trkpt lat="57.149212" lon="9.032001">
<ele>39.911456</ele>
<time>2026-07-15T11:02:27.000Z</time>
</trkpt>
<trkpt lat="57.149182" lon="9.032005">
<ele>39.994339</ele>
<time>2026-07-15T11:02:28.000Z</time>
</trkpt>
<trkpt lat="57.149149" lon="9.032012">
<ele>40.085873</ele>
<time>2026-07-15T11:02:29.000Z</time>
</trkpt>
<trkpt lat="57.149113" lon="9.032017">
<ele>40.185354</ele>
<time>2026-07-15T11:02:30.000Z</time>
</trkpt>
<trkpt lat="57.149079" lon="9.032023">
<ele>40.279472</ele>
<time>2026-07-15T11:02:31.000Z</time>
</trkpt>
<trkpt lat="57.149049" lon="9.032030">
<ele>40.362798</ele>
<time>2026-07-15T11:02:32.000Z</time>
</trkpt>
<trkpt lat="57.149014" lon="9.032035">
<ele>40.459532</ele>
<time>2026-07-15T11:02:33.000Z</time>
</trkpt>
<trkpt lat="57.148983" lon="9.032040">
<ele>40.545281</ele>
<time>2026-07-15T11:02:34.000Z</time>
</trkpt>
<trkpt lat="57.148953" lon="9.032048">
<ele>40.628809</ele>
<time>2026-07-15T11:02:35.000Z</time>
</trkpt>
<trkpt lat="57.148922" lon="9.032057">
<ele>40.715284</ele>
<time>2026-07-15T11:02:36.000Z</time>
</trkpt>
<trkpt lat="57.148892" lon="9.032063">
<ele>40.798436</ele>
<time>2026-07-15T11:02:37.000Z</time>
</trkpt>
<trkpt lat="57.148857" lon="9.032072">
<ele>40.895815</ele>
<time>2026-07-15T11:02:38.000Z</time>
</trkpt>
<trkpt lat="57.148826" lon="9.032082">
<ele>40.982535</ele>
<time>2026-07-15T11:02:39.000Z</time>
</trkpt>
<trkpt lat="57.148792" lon="9.032093">
<ele>41.077657</ele>
<time>2026-07-15T11:02:40.000Z</time>
</trkpt>
<trkpt lat="57.148758" lon="9.032105">
<ele>41.173048</ele>
<time>2026-07-15T11:02:41.000Z</time>
</trkpt>
<trkpt lat="57.148720" lon="9.032115">
<ele>41.278821</ele>
<time>2026-07-15T11:02:42.000Z</time>
</trkpt>
<trkpt lat="57.148688" lon="9.032125">
<ele>41.368257</ele>
<time>2026-07-15T11:02:43.000Z</time>
</trkpt>
<trkpt lat="57.148655" lon="9.032135">
<ele>41.460411</ele>
<time>2026-07-15T11:02:44.000Z</time>
</trkpt>
<trkpt lat="57.148621" lon="9.032146">
<ele>41.555532</ele>
<time>2026-07-15T11:02:45.000Z</time>
</trkpt>
<trkpt lat="57.148590" lon="9.032162">
<ele>41.644240</ele>
<time>2026-07-15T11:02:46.000Z</time>
</trkpt>
<trkpt lat="57.148556" lon="9.032180">
<ele>41.741716</ele>
<time>2026-07-15T11:02:47.000Z</time>
</trkpt>
<trkpt lat="57.148521" lon="9.032202">
<ele>41.843613</ele>
<time>2026-07-15T11:02:48.000Z</time>
</trkpt>
<trkpt lat="57.148492" lon="9.032223">
<ele>41.929469</ele>
<time>2026-07-15T11:02:49.000Z</time>
</trkpt>
<trkpt lat="57.148460" lon="9.032247">
<ele>42.024666</ele>
<time>2026-07-15T11:02:50.000Z</time>
</trkpt>
<trkpt lat="57.148434" lon="9.032275">
<ele>42.107640</ele>
<time>2026-07-15T11:02:51.000Z</time>
</trkpt>
<trkpt lat="57.148407" lon="9.032309">
<ele>42.197742</ele>
<time>2026-07-15T11:02:52.000Z</time>
</trkpt>
<trkpt lat="57.148376" lon="9.032345">
<ele>42.298702</ele>
<time>2026-07-15T11:02:53.000Z</time>
</trkpt>
<trkpt lat="57.148350" lon="9.032380">
<ele>42.387416</ele>
<time>2026-07-15T11:02:54.000Z</time>
</trkpt>
<trkpt lat="57.148319" lon="9.032416">
<ele>42.446327</ele>
<time>2026-07-15T11:02:55.000Z</time>
</trkpt>
<trkpt lat="57.148287" lon="9.032452">
<ele>42.477691</ele>
<time>2026-07-15T11:02:56.000Z</time>
</trkpt>
<trkpt lat="57.148255" lon="9.032491">
<ele>42.509785</ele>
<time>2026-07-15T11:02:57.000Z</time>
</trkpt>
<trkpt lat="57.148221" lon="9.032529">
<ele>42.543050</ele>
<time>2026-07-15T11:02:58.000Z</time>
</trkpt>
<trkpt lat="57.148191" lon="9.032566">
<ele>42.573248</ele>
<time>2026-07-15T11:02:59.000Z</time>
</trkpt>
<trkpt lat="57.148156" lon="9.032605">
<ele>42.607464</ele>
<time>2026-07-15T11:03:00.000Z</time>
</trkpt>
<trkpt lat="57.148125" lon="9.032641">
<ele>42.638117</ele>
<time>2026-07-15T11:03:01.000Z</time>
</trkpt>
<trkpt lat="57.148097" lon="9.032675">
<ele>42.666168</ele>
<time>2026-07-15T11:03:02.000Z</time>
</trkpt>
<trkpt lat="57.148067" lon="9.032713">
<ele>42.696621</ele>
<time>2026-07-15T11:03:03.000Z</time>
</trkpt>
<trkpt lat="57.148041" lon="9.032744">
<ele>42.722527</ele>
<time>2026-07-15T11:03:04.000Z</time>
</trkpt>
<trkpt lat="57.148018" lon="9.032776">
<ele>42.746635</ele>
<time>2026-07-15T11:03:05.000Z</time>
</trkpt>
<trkpt lat="57.147996" lon="9.032805">
<ele>42.769262</ele>
<time>2026-07-15T11:03:06.000Z</time>
</trkpt>
<trkpt lat="57.147969" lon="9.032838">
<ele>42.796365</ele>
<time>2026-07-15T11:03:07.000Z</time>
</trkpt>
<trkpt lat="57.147942" lon="9.032867">
<ele>42.822509</ele>
<time>2026-07-15T11:03:08.000Z</time>
</trkpt>
<trkpt lat="57.147911" lon="9.032902">
<ele>42.852922</ele>
<time>2026-07-15T11:03:09.000Z</time>
</trkpt>
<trkpt lat="57.147884" lon="9.032935">
<ele>42.880025</ele>
<time>2026-07-15T11:03:10.000Z</time>
</trkpt>
<trkpt lat="57.147858" lon="9.032967">
<ele>42.906180</ele>
<time>2026-07-15T11:03:11.000Z</time>
</trkpt>
<trkpt lat="57.147834" lon="9.032990">
<ele>42.928811</ele>
<time>2026-07-15T11:03:12.000Z</time>
</trkpt>
<trkpt lat="57.147804" lon="9.033023">
<ele>42.958039</ele>
<time>2026-07-15T11:03:13.000Z</time>
</trkpt>
<trkpt lat="57.147782" lon="9.033055">
<ele>42.981484</ele>
<time>2026-07-15T11:03:14.000Z</time>
</trkpt>
<trkpt lat="57.147755" lon="9.033089">
<ele>43.008841</ele>
<time>2026-07-15T11:03:15.000Z</time>
</trkpt>
<trkpt lat="57.147724" lon="9.033127">
<ele>43.039987</ele>
<time>2026-07-15T11:03:16.000Z</time>
</trkpt>
<trkpt lat="57.147693" lon="9.033159">
<ele>43.069712</ele>
<time>2026-07-15T11:03:17.000Z</time>
</trkpt>
<trkpt lat="57.147659" lon="9.033195">
<ele>43.102516</ele>
<time>2026-07-15T11:03:18.000Z</time>
</trkpt>
<trkpt lat="57.147625" lon="9.033230">
<ele>43.135096</ele>
<time>2026-07-15T11:03:19.000Z</time>
</trkpt>
<trkpt lat="57.147595" lon="9.033266">
<ele>43.165044</ele>
<time>2026-07-15T11:03:20.000Z</time>
</trkpt>
<trkpt lat="57.147564" lon="9.033304">
<ele>43.196190</ele>
<time>2026-07-15T11:03:21.000Z</time>
</trkpt>
<trkpt lat="57.147534" lon="9.033338">
<ele>43.225653</ele>
<time>2026-07-15T11:03:22.000Z</time>
</trkpt>
<trkpt lat="57.147499" lon="9.033370">
<ele>43.258339</ele>
<time>2026-07-15T11:03:23.000Z</time>
</trkpt>
<trkpt lat="57.147469" lon="9.033405">
<ele>43.288042</ele>
<time>2026-07-15T11:03:24.000Z</time>
</trkpt>
<trkpt lat="57.147438" lon="9.033440">
<ele>43.318456</ele>
<time>2026-07-15T11:03:25.000Z</time>
</trkpt>
<trkpt lat="57.147412" lon="9.033478">
<ele>43.346216</ele>
<time>2026-07-15T11:03:26.000Z</time>
</trkpt>
<trkpt lat="57.147385" lon="9.033519">
<ele>43.375482</ele>
<time>2026-07-15T11:03:27.000Z</time>
</trkpt>
<trkpt lat="57.147362" lon="9.033564">
<ele>43.403543</ele>
<time>2026-07-15T11:03:28.000Z</time>
</trkpt>
<trkpt lat="57.147344" lon="9.033616">
<ele>43.431538</ele>
<time>2026-07-15T11:03:29.000Z</time>
</trkpt>
<trkpt lat="57.147328" lon="9.033681">
<ele>43.463934</ele>
<time>2026-07-15T11:03:30.000Z</time>
</trkpt>
<trkpt lat="57.147312" lon="9.033749">
<ele>43.497574</ele>
<time>2026-07-15T11:03:31.000Z</time>
</trkpt>
<trkpt lat="57.147297" lon="9.033819">
<ele>43.531733</ele>
<time>2026-07-15T11:03:32.000Z</time>
</trkpt>
<trkpt lat="57.147282" lon="9.033894">
<ele>43.568012</ele>
<time>2026-07-15T11:03:33.000Z</time>
</trkpt>
<trkpt lat="57.147270" lon="9.033970">
<ele>43.603936</ele>
<time>2026-07-15T11:03:34.000Z</time>
</trkpt>
<trkpt lat="57.147259" lon="9.034049">
<ele>43.640953</ele>
<time>2026-07-15T11:03:35.000Z</time>
</trkpt>
<trkpt lat="57.147247" lon="9.034131">
<ele>43.679499</ele>
<time>2026-07-15T11:03:36.000Z</time>
</trkpt>
<trkpt lat="57.147243" lon="9.034215">
<ele>43.717770</ele>
<time>2026-07-15T11:03:37.000Z</time>
</trkpt>
<trkpt lat="57.147236" lon="9.034305">
<ele>43.759035</ele>
<time>2026-07-15T11:03:38.000Z</time>
</trkpt>
<trkpt lat="57.147224" lon="9.034395">
<ele>43.801097</ele>
<time>2026-07-15T11:03:39.000Z</time>
</trkpt>
<trkpt lat="57.147213" lon="9.034483">
<ele>43.842083</ele>
<time>2026-07-15T11:03:40.000Z</time>
</trkpt>
<trkpt lat="57.147202" lon="9.034575">
<ele>43.884840</ele>
<time>2026-07-15T11:03:41.000Z</time>
</trkpt>
<trkpt lat="57.147187" lon="9.034667">
<ele>43.928440</ele>
<time>2026-07-15T11:03:42.000Z</time>
</trkpt>
<trkpt lat="57.147171" lon="9.034768">
<ele>43.897179</ele>
<time>2026-07-15T11:03:43.000Z</time>
</trkpt>
<trkpt lat="57.147156" lon="9.034864">
<ele>43.859974</ele>
<time>2026-07-15T11:03:44.000Z</time>
</trkpt>
<trkpt lat="57.147140" lon="9.034958">
<ele>43.823286</ele>
<time>2026-07-15T11:03:45.000Z</time>
</trkpt>
<trkpt lat="57.147125" lon="9.035051">
<ele>43.787153</ele>
<time>2026-07-15T11:03:46.000Z</time>
</trkpt>
<trkpt lat="57.147114" lon="9.035147">
<ele>43.750613</ele>
<time>2026-07-15T11:03:47.000Z</time>
</trkpt>
<trkpt lat="57.147099" lon="9.035245">
<ele>43.712693</ele>
<time>2026-07-15T11:03:48.000Z</time>
</trkpt>
<trkpt lat="57.147091" lon="9.035341">
<ele>43.676522</ele>
<time>2026-07-15T11:03:49.000Z</time>
</trkpt>
<trkpt lat="57.147076" lon="9.035437">
<ele>43.639318</ele>
<time>2026-07-15T11:03:50.000Z</time>
</trkpt>
<trkpt lat="57.147064" lon="9.035528">
<ele>43.604442</ele>
<time>2026-07-15T11:03:51.000Z</time>
</trkpt>
<trkpt lat="57.147050" lon="9.035616">
<ele>43.570289</ele>
<time>2026-07-15T11:03:52.000Z</time>
</trkpt>
<trkpt lat="57.147037" lon="9.035719">
<ele>43.530907</ele>
<time>2026-07-15T11:03:53.000Z</time>
</trkpt>
<trkpt lat="57.147026" lon="9.035816">
<ele>43.494003</ele>
<time>2026-07-15T11:03:54.000Z</time>
</trkpt>
<trkpt lat="57.147015" lon="9.035909">
<ele>43.458555</ele>
<time>2026-07-15T11:03:55.000Z</time>
</trkpt>
<trkpt lat="57.146999" lon="9.036006">
<ele>43.420798</ele>
<time>2026-07-15T11:03:56.000Z</time>
</trkpt>
<trkpt lat="57.146984" lon="9.036102">
<ele>43.383594</ele>
<time>2026-07-15T11:03:57.000Z</time>
</trkpt>
<trkpt lat="57.146969" lon="9.036195">
<ele>43.347461</ele>
<time>2026-07-15T11:03:58.000Z</time>
</trkpt>
<trkpt lat="57.146958" lon="9.036283">
<ele>43.313831</ele>
<time>2026-07-15T11:03:59.000Z</time>
</trkpt>
<trkpt lat="57.146946" lon="9.036378">
<ele>43.277505</ele>
<time>2026-07-15T11:04:00.000Z</time>
</trkpt>
<trkpt lat="57.146931" lon="9.036469">
<ele>43.242086</ele>
<time>2026-07-15T11:04:01.000Z</time>
</trkpt>
<trkpt lat="57.146919" lon="9.036557">
<ele>43.208295</ele>
<time>2026-07-15T11:04:02.000Z</time>
</trkpt>
<trkpt lat="57.146904" lon="9.036646">
<ele>43.173587</ele>
<time>2026-07-15T11:04:03.000Z</time>
</trkpt>
<trkpt lat="57.146889" lon="9.036739">
<ele>43.137455</ele>
<time>2026-07-15T11:04:04.000Z</time>
</trkpt>
<trkpt lat="57.146874" lon="9.036828">
<ele>43.102748</ele>
<time>2026-07-15T11:04:05.000Z</time>
</trkpt>
<trkpt lat="57.146862" lon="9.036920">
<ele>43.067510</ele>
<time>2026-07-15T11:04:06.000Z</time>
</trkpt>
<trkpt lat="57.146850" lon="9.037016">
<ele>43.030821</ele>
<time>2026-07-15T11:04:07.000Z</time>
</trkpt>
<trkpt lat="57.146839" lon="9.037118">
<ele>42.992092</ele>
<time>2026-07-15T11:04:08.000Z</time>
</trkpt>
<trkpt lat="57.146828" lon="9.037224">
<ele>42.951901</ele>
<time>2026-07-15T11:04:09.000Z</time>
</trkpt>
<trkpt lat="57.146816" lon="9.037324">
<ele>42.913760</ele>
<time>2026-07-15T11:04:10.000Z</time>
</trkpt>
<trkpt lat="57.146805" lon="9.037427">
<ele>42.874665</ele>
<time>2026-07-15T11:04:11.000Z</time>
</trkpt>
<trkpt lat="57.146790" lon="9.037521">
<ele>42.838176</ele>
<time>2026-07-15T11:04:12.000Z</time>
</trkpt>
<trkpt lat="57.146774" lon="9.037617">
<ele>42.800775</ele>
<time>2026-07-15T11:04:13.000Z</time>
</trkpt>
<trkpt lat="57.146763" lon="9.037706">
<ele>42.766781</ele>
<time>2026-07-15T11:04:14.000Z</time>
</trkpt>
<trkpt lat="57.146748" lon="9.037795">
<ele>42.732074</ele>
<time>2026-07-15T11:04:15.000Z</time>
</trkpt>
<trkpt lat="57.146728" lon="9.037872">
<ele>42.700281</ele>
<time>2026-07-15T11:04:16.000Z</time>
</trkpt>
<trkpt lat="57.146706" lon="9.037933">
<ele>42.634693</ele>
<time>2026-07-15T11:04:17.000Z</time>
</trkpt>
<trkpt lat="57.146679" lon="9.037982">
<ele>42.568903</ele>
<time>2026-07-15T11:04:18.000Z</time>
</trkpt>
<trkpt lat="57.146656" lon="9.038022">
<ele>42.513996</ele>
<time>2026-07-15T11:04:19.000Z</time>
</trkpt>
<trkpt lat="57.146633" lon="9.038053">
<ele>42.464522</ele>
<time>2026-07-15T11:04:20.000Z</time>
</trkpt>
<trkpt lat="57.146606" lon="9.038080">
<ele>42.411185</ele>
<time>2026-07-15T11:04:21.000Z</time>
</trkpt>
<trkpt lat="57.146592" lon="9.038100">
<ele>42.380430</ele>
<time>2026-07-15T11:04:22.000Z</time>
</trkpt>
<trkpt lat="57.146652" lon="9.038317">
<ele>42.151002</ele>
<time>2026-07-15T11:36:36.000Z</time>
</trkpt>
<trkpt lat="57.146649" lon="9.038366">
<ele>42.104552</ele>
<time>2026-07-15T11:36:37.000Z</time>
</trkpt>
<trkpt lat="57.146641" lon="9.038424">
<ele>42.048179</ele>
<time>2026-07-15T11:36:38.000Z</time>
</trkpt>
<trkpt lat="57.146633" lon="9.038476">
<ele>41.997264</ele>
<time>2026-07-15T11:36:39.000Z</time>
</trkpt>
<trkpt lat="57.146622" lon="9.038530">
<ele>41.942930</ele>
<time>2026-07-15T11:36:40.000Z</time>
</trkpt>
<trkpt lat="57.146610" lon="9.038585">
<ele>41.887088</ele>
<time>2026-07-15T11:36:41.000Z</time>
</trkpt>
<trkpt lat="57.146603" lon="9.038637">
<ele>41.836619</ele>
<time>2026-07-15T11:36:42.000Z</time>
</trkpt>
<trkpt lat="57.146591" lon="9.038692">
<ele>41.780777</ele>
<time>2026-07-15T11:36:43.000Z</time>
</trkpt>
<trkpt lat="57.146580" lon="9.038741">
<ele>41.730824</ele>
<time>2026-07-15T11:36:44.000Z</time>
</trkpt>
<trkpt lat="57.146564" lon="9.038790">
<ele>41.676951</ele>
<time>2026-07-15T11:36:45.000Z</time>
</trkpt>
<trkpt lat="57.146549" lon="9.038838">
<ele>41.624771</ele>
<time>2026-07-15T11:36:46.000Z</time>
</trkpt>
<trkpt lat="57.146534" lon="9.038888">
<ele>41.570950</ele>
<time>2026-07-15T11:36:47.000Z</time>
</trkpt>
<trkpt lat="57.146519" lon="9.038942">
<ele>41.513802</ele>
<time>2026-07-15T11:36:48.000Z</time>
</trkpt>
<trkpt lat="57.146507" lon="9.038999">
<ele>41.456208</ele>
<time>2026-07-15T11:36:49.000Z</time>
</trkpt>
<trkpt lat="57.146489" lon="9.039051">
<ele>41.398103</ele>
<time>2026-07-15T11:36:50.000Z</time>
</trkpt>
<trkpt lat="57.146473" lon="9.039110">
<ele>41.335969</ele>
<time>2026-07-15T11:36:51.000Z</time>
</trkpt>
<trkpt lat="57.146459" lon="9.039161">
<ele>41.282127</ele>
<time>2026-07-15T11:36:52.000Z</time>
</trkpt>
<trkpt lat="57.146446" lon="9.039225">
<ele>41.217753</ele>
<time>2026-07-15T11:36:53.000Z</time>
</trkpt>
<trkpt lat="57.146431" lon="9.039284">
<ele>41.156375</ele>
<time>2026-07-15T11:36:54.000Z</time>
</trkpt>
<trkpt lat="57.146416" lon="9.039341">
<ele>41.096698</ele>
<time>2026-07-15T11:36:55.000Z</time>
</trkpt>
<trkpt lat="57.146406" lon="9.039390">
<ele>41.047383</ele>
<time>2026-07-15T11:36:56.000Z</time>
</trkpt>
<trkpt lat="57.146389" lon="9.039460">
<ele>40.975138</ele>
<time>2026-07-15T11:36:57.000Z</time>
</trkpt>
<trkpt lat="57.146378" lon="9.039513">
<ele>40.921684</ele>
<time>2026-07-15T11:36:58.000Z</time>
</trkpt>
<trkpt lat="57.146370" lon="9.039573">
<ele>40.863483</ele>
<time>2026-07-15T11:36:59.000Z</time>
</trkpt>
<trkpt lat="57.146359" lon="9.039629">
<ele>40.807381</ele>
<time>2026-07-15T11:37:00.000Z</time>
</trkpt>
<trkpt lat="57.146343" lon="9.039699">
<ele>40.735828</ele>
<time>2026-07-15T11:37:01.000Z</time>
</trkpt>
<trkpt lat="57.146321" lon="9.039773">
<ele>40.656340</ele>
<time>2026-07-15T11:37:02.000Z</time>
</trkpt>
<trkpt lat="57.146297" lon="9.039856">
<ele>40.567742</ele>
<time>2026-07-15T11:37:03.000Z</time>
</trkpt>
<trkpt lat="57.146278" lon="9.039937">
<ele>40.484614</ele>
<time>2026-07-15T11:37:04.000Z</time>
</trkpt>
<trkpt lat="57.146252" lon="9.040023">
<ele>40.391873</ele>
<time>2026-07-15T11:37:05.000Z</time>
</trkpt>
<trkpt lat="57.146227" lon="9.040109">
<ele>40.299964</ele>
<time>2026-07-15T11:37:06.000Z</time>
</trkpt>
<trkpt lat="57.146199" lon="9.040213">
<ele>40.190596</ele>
<time>2026-07-15T11:37:07.000Z</time>
</trkpt>
<trkpt lat="57.146168" lon="9.040326">
<ele>40.071315</ele>
<time>2026-07-15T11:37:08.000Z</time>
</trkpt>
<trkpt lat="57.146142" lon="9.040434">
<ele>39.960013</ele>
<time>2026-07-15T11:37:09.000Z</time>
</trkpt>
<trkpt lat="57.146114" lon="9.040539">
<ele>39.849800</ele>
<time>2026-07-15T11:37:10.000Z</time>
</trkpt>
<trkpt lat="57.146088" lon="9.040644">
<ele>39.741075</ele>
<time>2026-07-15T11:37:11.000Z</time>
</trkpt>
<trkpt lat="57.146061" lon="9.040749">
<ele>39.631617</ele>
<time>2026-07-15T11:37:12.000Z</time>
</trkpt>
<trkpt lat="57.146035" lon="9.040849">
<ele>39.510385</ele>
<time>2026-07-15T11:37:13.000Z</time>
</trkpt>
<trkpt lat="57.146004" lon="9.040961">
<ele>39.350326</ele>
<time>2026-07-15T11:37:14.000Z</time>
</trkpt>
<trkpt lat="57.145973" lon="9.041069">
<ele>39.194785</ele>
<time>2026-07-15T11:37:15.000Z</time>
</trkpt>
<trkpt lat="57.145945" lon="9.041171">
<ele>39.049264</ele>
<time>2026-07-15T11:37:16.000Z</time>
</trkpt>
<trkpt lat="57.145909" lon="9.041284">
<ele>38.882446</ele>
<time>2026-07-15T11:37:17.000Z</time>
</trkpt>
<trkpt lat="57.145878" lon="9.041397">
<ele>38.721252</ele>
<time>2026-07-15T11:37:18.000Z</time>
</trkpt>
<trkpt lat="57.145848" lon="9.041509">
<ele>38.562245</ele>
<time>2026-07-15T11:37:19.000Z</time>
</trkpt>
<trkpt lat="57.145818" lon="9.041627">
<ele>38.396355</ele>
<time>2026-07-15T11:37:20.000Z</time>
</trkpt>
<trkpt lat="57.145785" lon="9.041742">
<ele>38.230742</ele>
<time>2026-07-15T11:37:21.000Z</time>
</trkpt>
<trkpt lat="57.145756" lon="9.041863">
<ele>38.062348</ele>
<time>2026-07-15T11:37:22.000Z</time>
</trkpt>
<trkpt lat="57.145730" lon="9.041964">
<ele>37.920035</ele>
<time>2026-07-15T11:37:23.000Z</time>
</trkpt>
<trkpt lat="57.145700" lon="9.042073">
<ele>37.764443</ele>
<time>2026-07-15T11:37:24.000Z</time>
</trkpt>
<trkpt lat="57.145672" lon="9.042189">
<ele>37.602818</ele>
<time>2026-07-15T11:37:25.000Z</time>
</trkpt>
<trkpt lat="57.145646" lon="9.042299">
<ele>37.450075</ele>
<time>2026-07-15T11:37:26.000Z</time>
</trkpt>
<trkpt lat="57.145615" lon="9.042418">
<ele>37.282028</ele>
<time>2026-07-15T11:37:27.000Z</time>
</trkpt>
<trkpt lat="57.145585" lon="9.042544">
<ele>37.106862</ele>
<time>2026-07-15T11:37:28.000Z</time>
</trkpt>
<trkpt lat="57.145550" lon="9.042671">
<ele>36.925526</ele>
<time>2026-07-15T11:37:29.000Z</time>
</trkpt>
<trkpt lat="57.145520" lon="9.042784">
<ele>36.765376</ele>
<time>2026-07-15T11:37:30.000Z</time>
</trkpt>
<trkpt lat="57.145485" lon="9.042909">
<ele>36.586306</ele>
<time>2026-07-15T11:37:31.000Z</time>
</trkpt>
<trkpt lat="57.145451" lon="9.043027">
<ele>36.416220</ele>
<time>2026-07-15T11:37:32.000Z</time>
</trkpt>
<trkpt lat="57.145424" lon="9.043141">
<ele>36.257870</ele>
<time>2026-07-15T11:37:33.000Z</time>
</trkpt>
<trkpt lat="57.145394" lon="9.043258">
<ele>36.093130</ele>
<time>2026-07-15T11:37:34.000Z</time>
</trkpt>
<trkpt lat="57.145367" lon="9.043376">
<ele>35.930101</ele>
<time>2026-07-15T11:37:35.000Z</time>
</trkpt>
<trkpt lat="57.145336" lon="9.043498">
<ele>35.758603</ele>
<time>2026-07-15T11:37:36.000Z</time>
</trkpt>
<trkpt lat="57.145303" lon="9.043616">
<ele>35.589603</ele>
<time>2026-07-15T11:37:37.000Z</time>
</trkpt>
<trkpt lat="57.145271" lon="9.043742">
<ele>35.412498</ele>
<time>2026-07-15T11:37:38.000Z</time>
</trkpt>
<trkpt lat="57.145240" lon="9.043862">
<ele>35.320664</ele>
<time>2026-07-15T11:37:39.000Z</time>
</trkpt>
<trkpt lat="57.145206" lon="9.043980">
<ele>35.269071</ele>
<time>2026-07-15T11:37:40.000Z</time>
</trkpt>
<trkpt lat="57.145176" lon="9.044096">
<ele>35.219450</ele>
<time>2026-07-15T11:37:41.000Z</time>
</trkpt>
<trkpt lat="57.145146" lon="9.044213">
<ele>35.169480</ele>
<time>2026-07-15T11:37:42.000Z</time>
</trkpt>
<trkpt lat="57.145115" lon="9.044329">
<ele>35.119548</ele>
<time>2026-07-15T11:37:43.000Z</time>
</trkpt>
<trkpt lat="57.145089" lon="9.044441">
<ele>35.072507</ele>
<time>2026-07-15T11:37:44.000Z</time>
</trkpt>
<trkpt lat="57.145058" lon="9.044554">
<ele>35.023612</ele>
<time>2026-07-15T11:37:45.000Z</time>
</trkpt>
<trkpt lat="57.145029" lon="9.044662">
<ele>34.977080</ele>
<time>2026-07-15T11:37:46.000Z</time>
</trkpt>
<trkpt lat="57.145000" lon="9.044778">
<ele>34.927760</ele>
<time>2026-07-15T11:37:47.000Z</time>
</trkpt>
<trkpt lat="57.144971" lon="9.044887">
<ele>34.880882</ele>
<time>2026-07-15T11:37:48.000Z</time>
</trkpt>
<trkpt lat="57.144939" lon="9.045007">
<ele>34.829250</ele>
<time>2026-07-15T11:37:49.000Z</time>
</trkpt>
<trkpt lat="57.144909" lon="9.045124">
<ele>34.779279</ele>
<time>2026-07-15T11:37:50.000Z</time>
</trkpt>
<trkpt lat="57.144878" lon="9.045239">
<ele>34.729693</ele>
<time>2026-07-15T11:37:51.000Z</time>
</trkpt>
<trkpt lat="57.144848" lon="9.045351">
<ele>34.681461</ele>
<time>2026-07-15T11:37:52.000Z</time>
</trkpt>
<trkpt lat="57.144814" lon="9.045461">
<ele>34.632575</ele>
<time>2026-07-15T11:37:53.000Z</time>
</trkpt>
<trkpt lat="57.144783" lon="9.045577">
<ele>34.582643</ele>
<time>2026-07-15T11:37:54.000Z</time>
</trkpt>
<trkpt lat="57.144748" lon="9.045693">
<ele>34.531389</ele>
<time>2026-07-15T11:37:55.000Z</time>
</trkpt>
<trkpt lat="57.144714" lon="9.045803">
<ele>34.482503</ele>
<time>2026-07-15T11:37:56.000Z</time>
</trkpt>
<trkpt lat="57.144681" lon="9.045910">
<ele>34.434976</ele>
<time>2026-07-15T11:37:57.000Z</time>
</trkpt>
<trkpt lat="57.144649" lon="9.046017">
<ele>34.387796</ele>
<time>2026-07-15T11:37:58.000Z</time>
</trkpt>
<trkpt lat="57.144615" lon="9.046131">
<ele>34.337563</ele>
<time>2026-07-15T11:37:59.000Z</time>
</trkpt>
<trkpt lat="57.144585" lon="9.046244">
<ele>34.288984</ele>
<time>2026-07-15T11:38:00.000Z</time>
</trkpt>
<trkpt lat="57.144558" lon="9.046354">
<ele>34.242362</ele>
<time>2026-07-15T11:38:01.000Z</time>
</trkpt>
<trkpt lat="57.144529" lon="9.046463">
<ele>34.195484</ele>
<time>2026-07-15T11:38:02.000Z</time>
</trkpt>
<trkpt lat="57.144501" lon="9.046575">
<ele>34.147864</ele>
<time>2026-07-15T11:38:03.000Z</time>
</trkpt>
<trkpt lat="57.144478" lon="9.046678">
<ele>34.104854</ele>
<time>2026-07-15T11:38:04.000Z</time>
</trkpt>
<trkpt lat="57.144452" lon="9.046779">
<ele>34.096362</ele>
<time>2026-07-15T11:38:05.000Z</time>
</trkpt>
<trkpt lat="57.144424" lon="9.046880">
<ele>34.174501</ele>
<time>2026-07-15T11:38:06.000Z</time>
</trkpt>
<trkpt lat="57.144396" lon="9.046968">
<ele>34.244783</ele>
<time>2026-07-15T11:38:07.000Z</time>
</trkpt>
<trkpt lat="57.144367" lon="9.047056">
<ele>34.315717</ele>
<time>2026-07-15T11:38:08.000Z</time>
</trkpt>
<trkpt lat="57.144337" lon="9.047122">
<ele>34.375035</ele>
<time>2026-07-15T11:38:09.000Z</time>
</trkpt>
<trkpt lat="57.144307" lon="9.047172">
<ele>34.426395</ele>
<time>2026-07-15T11:38:10.000Z</time>
</trkpt>
<trkpt lat="57.144268" lon="9.047213">
<ele>34.483407</ele>
<time>2026-07-15T11:38:11.000Z</time>
</trkpt>
<trkpt lat="57.144226" lon="9.047241">
<ele>34.540122</ele>
<time>2026-07-15T11:38:12.000Z</time>
</trkpt>
<trkpt lat="57.144184" lon="9.047263">
<ele>34.595568</ele>
<time>2026-07-15T11:38:13.000Z</time>
</trkpt>
<trkpt lat="57.144150" lon="9.047278">
<ele>34.639962</ele>
<time>2026-07-15T11:38:14.000Z</time>
</trkpt>
<trkpt lat="57.144111" lon="9.047294">
<ele>34.690698</ele>
<time>2026-07-15T11:38:15.000Z</time>
</trkpt>
<trkpt lat="57.144074" lon="9.047310">
<ele>34.738958</ele>
<time>2026-07-15T11:38:16.000Z</time>
</trkpt>
<trkpt lat="57.144031" lon="9.047328">
<ele>34.794952</ele>
<time>2026-07-15T11:38:17.000Z</time>
</trkpt>
<trkpt lat="57.143995" lon="9.047338">
<ele>34.841182</ele>
<time>2026-07-15T11:38:18.000Z</time>
</trkpt>
<trkpt lat="57.143943" lon="9.047352">
<ele>34.907915</ele>
<time>2026-07-15T11:38:19.000Z</time>
</trkpt>
<trkpt lat="57.143901" lon="9.047367">
<ele>34.962241</ele>
<time>2026-07-15T11:38:20.000Z</time>
</trkpt>
<trkpt lat="57.143857" lon="9.047387">
<ele>35.019788</ele>
<time>2026-07-15T11:38:21.000Z</time>
</trkpt>
<trkpt lat="57.143814" lon="9.047401">
<ele>35.075236</ele>
<time>2026-07-15T11:38:22.000Z</time>
</trkpt>
<trkpt lat="57.143765" lon="9.047410">
<ele>35.137767</ele>
<time>2026-07-15T11:38:23.000Z</time>
</trkpt>
<trkpt lat="57.143715" lon="9.047417">
<ele>35.201442</ele>
<time>2026-07-15T11:38:24.000Z</time>
</trkpt>
<trkpt lat="57.143673" lon="9.047419">
<ele>35.254794</ele>
<time>2026-07-15T11:38:25.000Z</time>
</trkpt>
<trkpt lat="57.143625" lon="9.047432">
<ele>35.316401</ele>
<time>2026-07-15T11:38:26.000Z</time>
</trkpt>
<trkpt lat="57.143571" lon="9.047448">
<ele>35.385853</ele>
<time>2026-07-15T11:38:27.000Z</time>
</trkpt>
<trkpt lat="57.143517" lon="9.047459">
<ele>35.454842</ele>
<time>2026-07-15T11:38:28.000Z</time>
</trkpt>
<trkpt lat="57.143464" lon="9.047468">
<ele>35.522429</ele>
<time>2026-07-15T11:38:29.000Z</time>
</trkpt>
<trkpt lat="57.143405" lon="9.047470">
<ele>35.597363</ele>
<time>2026-07-15T11:38:30.000Z</time>
</trkpt>
<trkpt lat="57.143354" lon="9.047467">
<ele>35.662158</ele>
<time>2026-07-15T11:38:31.000Z</time>
</trkpt>
<trkpt lat="57.143295" lon="9.047463">
<ele>35.737129</ele>
<time>2026-07-15T11:38:32.000Z</time>
</trkpt>
<trkpt lat="57.143246" lon="9.047465">
<ele>35.799367</ele>
<time>2026-07-15T11:38:33.000Z</time>
</trkpt>
<trkpt lat="57.143197" lon="9.047460">
<ele>35.861685</ele>
<time>2026-07-15T11:38:34.000Z</time>
</trkpt>
<trkpt lat="57.143143" lon="9.047453">
<ele>35.930426</ele>
<time>2026-07-15T11:38:35.000Z</time>
</trkpt>
<trkpt lat="57.143100" lon="9.047449">
<ele>35.985099</ele>
<time>2026-07-15T11:38:36.000Z</time>
</trkpt>
<trkpt lat="57.143044" lon="9.047443">
<ele>36.056331</ele>
<time>2026-07-15T11:38:37.000Z</time>
</trkpt>
<trkpt lat="57.142991" lon="9.047433">
<ele>36.123984</ele>
<time>2026-07-15T11:38:38.000Z</time>
</trkpt>
<trkpt lat="57.142941" lon="9.047419">
<ele>36.188205</ele>
<time>2026-07-15T11:38:39.000Z</time>
</trkpt>
<trkpt lat="57.142891" lon="9.047403">
<ele>36.252647</ele>
<time>2026-07-15T11:38:40.000Z</time>
</trkpt>
<trkpt lat="57.142842" lon="9.047394">
<ele>36.315178</ele>
<time>2026-07-15T11:38:41.000Z</time>
</trkpt>
<trkpt lat="57.142788" lon="9.047381">
<ele>36.322189</ele>
<time>2026-07-15T11:38:42.000Z</time>
</trkpt>
<trkpt lat="57.142740" lon="9.047364">
<ele>36.236983</ele>
<time>2026-07-15T11:38:43.000Z</time>
</trkpt>
<trkpt lat="57.142685" lon="9.047347">
<ele>36.139765</ele>
<time>2026-07-15T11:38:44.000Z</time>
</trkpt>
<trkpt lat="57.142636" lon="9.047334">
<ele>36.053466</ele>
<time>2026-07-15T11:38:45.000Z</time>
</trkpt>
<trkpt lat="57.142597" lon="9.047327">
<ele>35.985158</ele>
<time>2026-07-15T11:38:46.000Z</time>
</trkpt>
<trkpt lat="57.142559" lon="9.047337">
<ele>35.918243</ele>
<time>2026-07-15T11:38:47.000Z</time>
</trkpt>
<trkpt lat="57.142529" lon="9.047365">
<ele>35.859623</ele>
<time>2026-07-15T11:38:48.000Z</time>
</trkpt>
<trkpt lat="57.142506" lon="9.047406">
<ele>35.803844</ele>
<time>2026-07-15T11:38:49.000Z</time>
</trkpt>
<trkpt lat="57.142491" lon="9.047461">
<ele>35.745623</ele>
<time>2026-07-15T11:38:50.000Z</time>
</trkpt>
<trkpt lat="57.142483" lon="9.047527">
<ele>35.681661</ele>
<time>2026-07-15T11:38:51.000Z</time>
</trkpt>
<trkpt lat="57.142475" lon="9.047589">
<ele>35.621386</ele>
<time>2026-07-15T11:38:52.000Z</time>
</trkpt>
<trkpt lat="57.142471" lon="9.047656">
<ele>35.557635</ele>
<time>2026-07-15T11:38:53.000Z</time>
</trkpt>
<trkpt lat="57.142460" lon="9.047712">
<ele>35.501306</ele>
<time>2026-07-15T11:38:54.000Z</time>
</trkpt>
<trkpt lat="57.142444" lon="9.047776">
<ele>35.434658</ele>
<time>2026-07-15T11:38:55.000Z</time>
</trkpt>
<trkpt lat="57.142422" lon="9.047841">
<ele>35.362199</ele>
<time>2026-07-15T11:38:56.000Z</time>
</trkpt>
<trkpt lat="57.142403" lon="9.047907">
<ele>35.291533</ele>
<time>2026-07-15T11:38:57.000Z</time>
</trkpt>
<trkpt lat="57.142392" lon="9.047959">
<ele>35.238745</ele>
<time>2026-07-15T11:38:58.000Z</time>
</trkpt>
<trkpt lat="57.142380" lon="9.048014">
<ele>35.182678</ele>
<time>2026-07-15T11:38:59.000Z</time>
</trkpt>
<trkpt lat="57.142369" lon="9.048060">
<ele>35.135132</ele>
<time>2026-07-15T11:39:00.000Z</time>
</trkpt>
<trkpt lat="57.142353" lon="9.048112">
<ele>35.078592</ele>
<time>2026-07-15T11:39:01.000Z</time>
</trkpt>
<trkpt lat="57.142340" lon="9.048165">
<ele>35.023580</ele>
<time>2026-07-15T11:39:02.000Z</time>
</trkpt>
<trkpt lat="57.142326" lon="9.048238">
<ele>34.950350</ele>
<time>2026-07-15T11:39:03.000Z</time>
</trkpt>
<trkpt lat="57.142315" lon="9.048300">
<ele>34.888654</ele>
<time>2026-07-15T11:39:04.000Z</time>
</trkpt>
<trkpt lat="57.142304" lon="9.048351">
<ele>34.836746</ele>
<time>2026-07-15T11:39:05.000Z</time>
</trkpt>
<trkpt lat="57.142300" lon="9.048413">
<ele>34.777693</ele>
<time>2026-07-15T11:39:06.000Z</time>
</trkpt>
<trkpt lat="57.142288" lon="9.048475">
<ele>34.715434</ele>
<time>2026-07-15T11:39:07.000Z</time>
</trkpt>
<trkpt lat="57.142277" lon="9.048546">
<ele>34.645598</ele>
<time>2026-07-15T11:39:08.000Z</time>
</trkpt>
<trkpt lat="57.142254" lon="9.048619">
<ele>34.565756</ele>
<time>2026-07-15T11:39:09.000Z</time>
</trkpt>
<trkpt lat="57.142235" lon="9.048688">
<ele>34.492572</ele>
<time>2026-07-15T11:39:10.000Z</time>
</trkpt>
<trkpt lat="57.142212" lon="9.048762">
<ele>34.411911</ele>
<time>2026-07-15T11:39:11.000Z</time>
</trkpt>
<trkpt lat="57.142197" lon="9.048826">
<ele>34.345973</ele>
<time>2026-07-15T11:39:12.000Z</time>
</trkpt>
<trkpt lat="57.142185" lon="9.048894">
<ele>34.278342</ele>
<time>2026-07-15T11:39:13.000Z</time>
</trkpt>
<trkpt lat="57.142170" lon="9.048974">
<ele>34.198286</ele>
<time>2026-07-15T11:39:14.000Z</time>
</trkpt>
<trkpt lat="57.142147" lon="9.049068">
<ele>34.100758</ele>
<time>2026-07-15T11:39:15.000Z</time>
</trkpt>
<trkpt lat="57.142132" lon="9.049146">
<ele>34.022488</ele>
<time>2026-07-15T11:39:16.000Z</time>
</trkpt>
<trkpt lat="57.142117" lon="9.049218">
<ele>33.949542</ele>
<time>2026-07-15T11:39:17.000Z</time>
</trkpt>
<trkpt lat="57.142097" lon="9.049296">
<ele>33.867945</ele>
<time>2026-07-15T11:39:18.000Z</time>
</trkpt>
<trkpt lat="57.142079" lon="9.049377">
<ele>33.785157</ele>
<time>2026-07-15T11:39:19.000Z</time>
</trkpt>
<trkpt lat="57.142063" lon="9.049456">
<ele>33.705402</ele>
<time>2026-07-15T11:39:20.000Z</time>
</trkpt>
<trkpt lat="57.142028" lon="9.049566">
<ele>33.584792</ele>
<time>2026-07-15T11:39:21.000Z</time>
</trkpt>
<trkpt lat="57.141991" lon="9.049669">
<ele>33.467956</ele>
<time>2026-07-15T11:39:22.000Z</time>
</trkpt>
<trkpt lat="57.141964" lon="9.049757">
<ele>33.372338</ele>
<time>2026-07-15T11:39:23.000Z</time>
</trkpt>
<trkpt lat="57.141934" lon="9.049852">
<ele>33.268374</ele>
<time>2026-07-15T11:39:24.000Z</time>
</trkpt>
<trkpt lat="57.141903" lon="9.049966">
<ele>33.127954</ele>
<time>2026-07-15T11:39:25.000Z</time>
</trkpt>
<trkpt lat="57.141877" lon="9.050066">
<ele>32.995331</ele>
<time>2026-07-15T11:39:26.000Z</time>
</trkpt>
<trkpt lat="57.141847" lon="9.050184">
<ele>32.839477</ele>
<time>2026-07-15T11:39:27.000Z</time>
</trkpt>
<trkpt lat="57.141815" lon="9.050324">
<ele>32.657785</ele>
<time>2026-07-15T11:39:28.000Z</time>
</trkpt>
<trkpt lat="57.141781" lon="9.050459">
<ele>32.479778</ele>
<time>2026-07-15T11:39:29.000Z</time>
</trkpt>
<trkpt lat="57.141737" lon="9.050612">
<ele>32.272674</ele>
<time>2026-07-15T11:39:30.000Z</time>
</trkpt>
<trkpt lat="57.141685" lon="9.050781">
<ele>32.040309</ele>
<time>2026-07-15T11:39:31.000Z</time>
</trkpt>
<trkpt lat="57.141645" lon="9.050928">
<ele>31.843624</ele>
<time>2026-07-15T11:39:32.000Z</time>
</trkpt>
<trkpt lat="57.141595" lon="9.051084">
<ele>31.626924</ele>
<time>2026-07-15T11:39:33.000Z</time>
</trkpt>
<trkpt lat="57.141557" lon="9.051209">
<ele>31.455555</ele>
<time>2026-07-15T11:39:34.000Z</time>
</trkpt>
<trkpt lat="57.141518" lon="9.051352">
<ele>31.264135</ele>
<time>2026-07-15T11:39:35.000Z</time>
</trkpt>
<trkpt lat="57.141484" lon="9.051471">
<ele>31.103282</ele>
<time>2026-07-15T11:39:36.000Z</time>
</trkpt>
<trkpt lat="57.141452" lon="9.051596">
<ele>30.937975</ele>
<time>2026-07-15T11:39:37.000Z</time>
</trkpt>
<trkpt lat="57.141423" lon="9.051711">
<ele>30.786303</ele>
<time>2026-07-15T11:39:38.000Z</time>
</trkpt>
<trkpt lat="57.141396" lon="9.051830">
<ele>30.632034</ele>
<time>2026-07-15T11:39:39.000Z</time>
</trkpt>
<trkpt lat="57.141373" lon="9.051942">
<ele>30.488807</ele>
<time>2026-07-15T11:39:40.000Z</time>
</trkpt>
<trkpt lat="57.141346" lon="9.052050">
<ele>30.346585</ele>
<time>2026-07-15T11:39:41.000Z</time>
</trkpt>
<trkpt lat="57.141323" lon="9.052155">
<ele>30.211155</ele>
<time>2026-07-15T11:39:42.000Z</time>
</trkpt>
<trkpt lat="57.141293" lon="9.052265">
<ele>30.063908</ele>
<time>2026-07-15T11:39:43.000Z</time>
</trkpt>
<trkpt lat="57.141266" lon="9.052376">
<ele>29.918419</ele>
<time>2026-07-15T11:39:44.000Z</time>
</trkpt>
<trkpt lat="57.141232" lon="9.052491">
<ele>29.761782</ele>
<time>2026-07-15T11:39:45.000Z</time>
</trkpt>
<trkpt lat="57.141201" lon="9.052602">
<ele>29.612469</ele>
<time>2026-07-15T11:39:46.000Z</time>
</trkpt>
<trkpt lat="57.141176" lon="9.052706">
<ele>29.476421</ele>
<time>2026-07-15T11:39:47.000Z</time>
</trkpt>
<trkpt lat="57.141148" lon="9.052817">
<ele>29.330017</ele>
<time>2026-07-15T11:39:48.000Z</time>
</trkpt>
<trkpt lat="57.141129" lon="9.052918">
<ele>29.226670</ele>
<time>2026-07-15T11:39:49.000Z</time>
</trkpt>
<trkpt lat="57.141102" lon="9.053019">
<ele>29.151304</ele>
<time>2026-07-15T11:39:50.000Z</time>
</trkpt>
<trkpt lat="57.141075" lon="9.053126">
<ele>29.072316</ele>
<time>2026-07-15T11:39:51.000Z</time>
</trkpt>
<trkpt lat="57.141045" lon="9.053238">
<ele>28.988709</ele>
<time>2026-07-15T11:39:52.000Z</time>
</trkpt>
<trkpt lat="57.141014" lon="9.053354">
<ele>28.902156</ele>
<time>2026-07-15T11:39:53.000Z</time>
</trkpt>
<trkpt lat="57.140976" lon="9.053468">
<ele>28.812598</ele>
<time>2026-07-15T11:39:54.000Z</time>
</trkpt>
<trkpt lat="57.140950" lon="9.053572">
<ele>28.735950</ele>
<time>2026-07-15T11:39:55.000Z</time>
</trkpt>
<trkpt lat="57.140919" lon="9.053682">
<ele>28.652980</ele>
<time>2026-07-15T11:39:56.000Z</time>
</trkpt>
<trkpt lat="57.140889" lon="9.053789">
<ele>28.572361</ele>
<time>2026-07-15T11:39:57.000Z</time>
</trkpt>
<trkpt lat="57.140862" lon="9.053889">
<ele>28.497595</ele>
<time>2026-07-15T11:39:58.000Z</time>
</trkpt>
<trkpt lat="57.140842" lon="9.053982">
<ele>28.430632</ele>
<time>2026-07-15T11:39:59.000Z</time>
</trkpt>
<trkpt lat="57.140820" lon="9.054061">
<ele>28.371194</ele>
<time>2026-07-15T11:40:00.000Z</time>
</trkpt>
<trkpt lat="57.140797" lon="9.054165">
<ele>28.296019</ele>
<time>2026-07-15T11:40:01.000Z</time>
</trkpt>
<trkpt lat="57.140770" lon="9.054271">
<ele>28.217636</ele>
<time>2026-07-15T11:40:02.000Z</time>
</trkpt>
<trkpt lat="57.140741" lon="9.054382">
<ele>28.135172</ele>
<time>2026-07-15T11:40:03.000Z</time>
</trkpt>
<trkpt lat="57.140718" lon="9.054486">
<ele>28.059997</ele>
<time>2026-07-15T11:40:04.000Z</time>
</trkpt>
<trkpt lat="57.140690" lon="9.054596">
<ele>27.978666</ele>
<time>2026-07-15T11:40:05.000Z</time>
</trkpt>
<trkpt lat="57.140660" lon="9.054698">
<ele>27.901004</ele>
<time>2026-07-15T11:40:06.000Z</time>
</trkpt>
<trkpt lat="57.140637" lon="9.054794">
<ele>27.830759</ele>
<time>2026-07-15T11:40:07.000Z</time>
</trkpt>
<trkpt lat="57.140614" lon="9.054900">
<ele>27.754343</ele>
<time>2026-07-15T11:40:08.000Z</time>
</trkpt>
<trkpt lat="57.140587" lon="9.055002">
<ele>27.678375</ele>
<time>2026-07-15T11:40:09.000Z</time>
</trkpt>
<trkpt lat="57.140564" lon="9.055108">
<ele>27.601958</ele>
<time>2026-07-15T11:40:10.000Z</time>
</trkpt>
<trkpt lat="57.140534" lon="9.055211">
<ele>27.523707</ele>
<time>2026-07-15T11:40:11.000Z</time>
</trkpt>
<trkpt lat="57.140507" lon="9.055310">
<ele>27.449539</ele>
<time>2026-07-15T11:40:12.000Z</time>
</trkpt>
<trkpt lat="57.140480" lon="9.055410">
<ele>27.374772</ele>
<time>2026-07-15T11:40:13.000Z</time>
</trkpt>
<trkpt lat="57.140455" lon="9.055505">
<ele>27.304097</ele>
<time>2026-07-15T11:40:14.000Z</time>
</trkpt>
<trkpt lat="57.140423" lon="9.055614">
<ele>27.221140</ele>
<time>2026-07-15T11:40:15.000Z</time>
</trkpt>
<trkpt lat="57.140393" lon="9.055714">
<ele>27.144652</ele>
<time>2026-07-15T11:40:16.000Z</time>
</trkpt>
<trkpt lat="57.140370" lon="9.055820">
<ele>27.068235</ele>
<time>2026-07-15T11:40:17.000Z</time>
</trkpt>
<trkpt lat="57.140346" lon="9.055913">
<ele>27.014618</ele>
<time>2026-07-15T11:40:18.000Z</time>
</trkpt>
<trkpt lat="57.140320" lon="9.056007">
<ele>26.971336</ele>
<time>2026-07-15T11:40:19.000Z</time>
</trkpt>
<trkpt lat="57.140291" lon="9.056096">
<ele>26.928749</ele>
<time>2026-07-15T11:40:20.000Z</time>
</trkpt>
<trkpt lat="57.140255" lon="9.056214">
<ele>26.873216</ele>
<time>2026-07-15T11:40:21.000Z</time>
</trkpt>
<trkpt lat="57.140224" lon="9.056336">
<ele>26.817954</ele>
<time>2026-07-15T11:40:22.000Z</time>
</trkpt>
<trkpt lat="57.140192" lon="9.056436">
<ele>26.770329</ele>
<time>2026-07-15T11:40:23.000Z</time>
</trkpt>
<trkpt lat="57.140141" lon="9.056571">
<ele>26.702848</ele>
<time>2026-07-15T11:40:24.000Z</time>
</trkpt>
<trkpt lat="57.140072" lon="9.056731">
<ele>26.619007</ele>
<time>2026-07-15T11:40:25.000Z</time>
</trkpt>
<trkpt lat="57.140007" lon="9.056871">
<ele>26.543420</ele>
<time>2026-07-15T11:40:26.000Z</time>
</trkpt>
<trkpt lat="57.139958" lon="9.057006">
<ele>26.476792</ele>
<time>2026-07-15T11:40:27.000Z</time>
</trkpt>
<trkpt lat="57.139912" lon="9.057134">
<ele>26.413811</ele>
<time>2026-07-15T11:40:28.000Z</time>
</trkpt>
<trkpt lat="57.139866" lon="9.057262">
<ele>26.350829</ele>
<time>2026-07-15T11:40:29.000Z</time>
</trkpt>
<trkpt lat="57.139824" lon="9.057384">
<ele>26.291558</ele>
<time>2026-07-15T11:40:30.000Z</time>
</trkpt>
<trkpt lat="57.139786" lon="9.057497">
<ele>26.237022</ele>
<time>2026-07-15T11:40:31.000Z</time>
</trkpt>
<trkpt lat="57.139752" lon="9.057604">
<ele>26.186155</ele>
<time>2026-07-15T11:40:32.000Z</time>
</trkpt>
<trkpt lat="57.139717" lon="9.057710">
<ele>26.135253</ele>
<time>2026-07-15T11:40:33.000Z</time>
</trkpt>
<trkpt lat="57.139684" lon="9.057813">
<ele>26.086183</ele>
<time>2026-07-15T11:40:34.000Z</time>
</trkpt>
<trkpt lat="57.139648" lon="9.057928">
<ele>26.031719</ele>
<time>2026-07-15T11:40:35.000Z</time>
</trkpt>
<trkpt lat="57.139619" lon="9.058030">
<ele>25.984480</ele>
<time>2026-07-15T11:40:36.000Z</time>
</trkpt>
<trkpt lat="57.139592" lon="9.058135">
<ele>25.936814</ele>
<time>2026-07-15T11:40:37.000Z</time>
</trkpt>
<trkpt lat="57.139565" lon="9.058229">
<ele>25.893183</ele>
<time>2026-07-15T11:40:38.000Z</time>
</trkpt>
<trkpt lat="57.139538" lon="9.058326">
<ele>25.848460</ele>
<time>2026-07-15T11:40:39.000Z</time>
</trkpt>
<trkpt lat="57.139511" lon="9.058418">
<ele>25.805553</ele>
<time>2026-07-15T11:40:40.000Z</time>
</trkpt>
<trkpt lat="57.139489" lon="9.058507">
<ele>25.765432</ele>
<time>2026-07-15T11:40:41.000Z</time>
</trkpt>
<trkpt lat="57.139460" lon="9.058604">
<ele>25.720000</ele>
<time>2026-07-15T11:40:42.000Z</time>
</trkpt>
<trkpt lat="57.139435" lon="9.058703">
<ele>25.674170</ele>
<time>2026-07-15T11:40:43.000Z</time>
</trkpt>
<trkpt lat="57.139416" lon="9.058797">
<ele>25.621827</ele>
<time>2026-07-15T11:40:44.000Z</time>
</trkpt>
<trkpt lat="57.139400" lon="9.058899">
<ele>25.566424</ele>
<time>2026-07-15T11:40:45.000Z</time>
</trkpt>
<trkpt lat="57.139386" lon="9.058998">
<ele>25.513040</ele>
<time>2026-07-15T11:40:46.000Z</time>
</trkpt>
<trkpt lat="57.139366" lon="9.059077">
<ele>25.467551</ele>
<time>2026-07-15T11:40:47.000Z</time>
</trkpt>
<trkpt lat="57.139347" lon="9.059178">
<ele>25.411771</ele>
<time>2026-07-15T11:40:48.000Z</time>
</trkpt>
<trkpt lat="57.139325" lon="9.059278">
<ele>25.355465</ele>
<time>2026-07-15T11:40:49.000Z</time>
</trkpt>
<trkpt lat="57.139305" lon="9.059389">
<ele>25.294435</ele>
<time>2026-07-15T11:40:50.000Z</time>
</trkpt>
<trkpt lat="57.139272" lon="9.059495">
<ele>25.230666</ele>
<time>2026-07-15T11:40:51.000Z</time>
</trkpt>
<trkpt lat="57.139253" lon="9.059583">
<ele>25.181245</ele>
<time>2026-07-15T11:40:52.000Z</time>
</trkpt>
<trkpt lat="57.139229" lon="9.059678">
<ele>25.126564</ele>
<time>2026-07-15T11:40:53.000Z</time>
</trkpt>
<trkpt lat="57.139217" lon="9.059757">
<ele>25.083756</ele>
<time>2026-07-15T11:40:54.000Z</time>
</trkpt>
<trkpt lat="57.139203" lon="9.059831">
<ele>25.042863</ele>
<time>2026-07-15T11:40:55.000Z</time>
</trkpt>
<trkpt lat="57.139175" lon="9.059917">
<ele>24.990529</ele>
<time>2026-07-15T11:40:56.000Z</time>
</trkpt>
<trkpt lat="57.139156" lon="9.059987">
<ele>24.949687</ele>
<time>2026-07-15T11:40:57.000Z</time>
</trkpt>
<trkpt lat="57.139114" lon="9.060101">
<ele>24.877784</ele>
<time>2026-07-15T11:40:58.000Z</time>
</trkpt>
<trkpt lat="57.139096" lon="9.060184">
<ele>24.831143</ele>
<time>2026-07-15T11:40:59.000Z</time>
</trkpt>
<trkpt lat="57.139070" lon="9.060267">
<ele>24.781134</ele>
<time>2026-07-15T11:41:00.000Z</time>
</trkpt>
<trkpt lat="57.139042" lon="9.060370">
<ele>24.721019</ele>
<time>2026-07-15T11:41:01.000Z</time>
</trkpt>
<trkpt lat="57.139012" lon="9.060473">
<ele>24.660019</ele>
<time>2026-07-15T11:41:02.000Z</time>
</trkpt>
<trkpt lat="57.138984" lon="9.060574">
<ele>24.600836</ele>
<time>2026-07-15T11:41:03.000Z</time>
</trkpt>
<trkpt lat="57.138954" lon="9.060671">
<ele>24.542576</ele>
<time>2026-07-15T11:41:04.000Z</time>
</trkpt>
<trkpt lat="57.138906" lon="9.060816">
<ele>24.453944</ele>
<time>2026-07-15T11:41:05.000Z</time>
</trkpt>
<trkpt lat="57.138866" lon="9.060938">
<ele>24.379564</ele>
<time>2026-07-15T11:41:06.000Z</time>
</trkpt>
<trkpt lat="57.138825" lon="9.061051">
<ele>24.308631</ele>
<time>2026-07-15T11:41:07.000Z</time>
</trkpt>
<trkpt lat="57.138778" lon="9.061174">
<ele>24.230130</ele>
<time>2026-07-15T11:41:08.000Z</time>
</trkpt>
<trkpt lat="57.138748" lon="9.061289">
<ele>24.163547</ele>
<time>2026-07-15T11:41:09.000Z</time>
</trkpt>
<trkpt lat="57.138715" lon="9.061404">
<ele>24.095663</ele>
<time>2026-07-15T11:41:10.000Z</time>
</trkpt>
<trkpt lat="57.138695" lon="9.061509">
<ele>24.037595</ele>
<time>2026-07-15T11:41:11.000Z</time>
</trkpt>
<trkpt lat="57.138657" lon="9.061628">
<ele>23.965544</ele>
<time>2026-07-15T11:41:12.000Z</time>
</trkpt>
<trkpt lat="57.138611" lon="9.061761">
<ele>23.875966</ele>
<time>2026-07-15T11:41:13.000Z</time>
</trkpt>
<trkpt lat="57.138573" lon="9.061878">
<ele>23.796973</ele>
<time>2026-07-15T11:41:14.000Z</time>
</trkpt>
<trkpt lat="57.138539" lon="9.061983">
<ele>23.726139</ele>
<time>2026-07-15T11:41:15.000Z</time>
</trkpt>
<trkpt lat="57.138488" lon="9.062102">
<ele>23.638292</ele>
<time>2026-07-15T11:41:16.000Z</time>
</trkpt>
<trkpt lat="57.138447" lon="9.062211">
<ele>23.561459</ele>
<time>2026-07-15T11:41:17.000Z</time>
</trkpt>
<trkpt lat="57.138417" lon="9.062311">
<ele>23.495264</ele>
<time>2026-07-15T11:41:18.000Z</time>
</trkpt>
<trkpt lat="57.138360" lon="9.062444">
<ele>23.397082</ele>
<time>2026-07-15T11:41:19.000Z</time>
</trkpt>
<trkpt lat="57.138311" lon="9.062563">
<ele>23.310542</ele>
<time>2026-07-15T11:41:20.000Z</time>
</trkpt>
<trkpt lat="57.138264" lon="9.062679">
<ele>23.226675</ele>
<time>2026-07-15T11:41:21.000Z</time>
</trkpt>
<trkpt lat="57.138241" lon="9.062760">
<ele>23.173714</ele>
<time>2026-07-15T11:41:22.000Z</time>
</trkpt>
<trkpt lat="57.138222" lon="9.062835">
<ele>23.125764</ele>
<time>2026-07-15T11:41:23.000Z</time>
</trkpt>
<trkpt lat="57.138188" lon="9.062922">
<ele>23.063653</ele>
<time>2026-07-15T11:41:24.000Z</time>
</trkpt>
<trkpt lat="57.138161" lon="9.062994">
<ele>23.012951</ele>
<time>2026-07-15T11:41:25.000Z</time>
</trkpt>
<trkpt lat="57.138145" lon="9.063057">
<ele>22.972654</ele>
<time>2026-07-15T11:41:26.000Z</time>
</trkpt>
<trkpt lat="57.138115" lon="9.063134">
<ele>22.917739</ele>
<time>2026-07-15T11:41:27.000Z</time>
</trkpt>
<trkpt lat="57.138070" lon="9.063235">
<ele>22.842032</ele>
<time>2026-07-15T11:41:28.000Z</time>
</trkpt>
<trkpt lat="57.138040" lon="9.063320">
<ele>22.783290</ele>
<time>2026-07-15T11:41:29.000Z</time>
</trkpt>
<trkpt lat="57.138042" lon="9.063357">
<ele>22.761749</ele>
<time>2026-07-15T11:41:30.000Z</time>
</trkpt>
<trkpt lat="57.138050" lon="9.063370">
<ele>22.750362</ele>
<time>2026-07-15T11:41:31.000Z</time>
</trkpt>
<trkpt lat="57.138069" lon="9.063383">
<ele>22.728725</ele>
<time>2026-07-15T11:41:32.000Z</time>
</trkpt>
<trkpt lat="57.138095" lon="9.063400">
<ele>22.699271</ele>
<time>2026-07-15T11:41:33.000Z</time>
</trkpt>
<trkpt lat="57.138118" lon="9.063420">
<ele>22.672119</ele>
<time>2026-07-15T11:41:34.000Z</time>
</trkpt>
<trkpt lat="57.138146" lon="9.063437">
<ele>22.640645</ele>
<time>2026-07-15T11:41:35.000Z</time>
</trkpt>
<trkpt lat="57.138166" lon="9.063449">
<ele>22.618190</ele>
<time>2026-07-15T11:41:36.000Z</time>
</trkpt>
<trkpt lat="57.138199" lon="9.063458">
<ele>22.582574</ele>
<time>2026-07-15T11:41:37.000Z</time>
</trkpt>
<trkpt lat="57.138225" lon="9.063470">
<ele>22.553959</ele>
<time>2026-07-15T11:41:38.000Z</time>
</trkpt>
<trkpt lat="57.138267" lon="9.063477">
<ele>22.508935</ele>
<time>2026-07-15T11:41:39.000Z</time>
</trkpt>
<trkpt lat="57.138299" lon="9.063483">
<ele>22.474595</ele>
<time>2026-07-15T11:41:40.000Z</time>
</trkpt>
<trkpt lat="57.138336" lon="9.063500">
<ele>22.433883</ele>
<time>2026-07-15T11:41:41.000Z</time>
</trkpt>
<trkpt lat="57.138378" lon="9.063518">
<ele>22.387846</ele>
<time>2026-07-15T11:41:42.000Z</time>
</trkpt>
<trkpt lat="57.138405" lon="9.063535">
<ele>22.357385</ele>
<time>2026-07-15T11:41:43.000Z</time>
</trkpt>
<trkpt lat="57.138439" lon="9.063543">
<ele>22.320791</ele>
<time>2026-07-15T11:41:44.000Z</time>
</trkpt>
<trkpt lat="57.138474" lon="9.063557">
<ele>22.282554</ele>
<time>2026-07-15T11:41:45.000Z</time>
</trkpt>
<trkpt lat="57.138518" lon="9.063566">
<ele>22.235290</ele>
<time>2026-07-15T11:41:46.000Z</time>
</trkpt>
<trkpt lat="57.138566" lon="9.063578">
<ele>22.183574</ele>
<time>2026-07-15T11:41:47.000Z</time>
</trkpt>
<trkpt lat="57.138617" lon="9.063599">
<ele>22.127782</ele>
<time>2026-07-15T11:41:48.000Z</time>
</trkpt>
<trkpt lat="57.138690" lon="9.063628">
<ele>22.048056</ele>
<time>2026-07-15T11:41:49.000Z</time>
</trkpt>
<trkpt lat="57.138763" lon="9.063659">
<ele>21.976035</ele>
<time>2026-07-15T11:41:50.000Z</time>
</trkpt>
<trkpt lat="57.138839" lon="9.063679">
<ele>21.904776</ele>
<time>2026-07-15T11:41:51.000Z</time>
</trkpt>
<trkpt lat="57.138915" lon="9.063705">
<ele>21.833029</ele>
<time>2026-07-15T11:41:52.000Z</time>
</trkpt>
<trkpt lat="57.138985" lon="9.063724">
<ele>21.767354</ele>
<time>2026-07-15T11:41:53.000Z</time>
</trkpt>
<trkpt lat="57.139052" lon="9.063743">
<ele>21.704433</ele>
<time>2026-07-15T11:41:54.000Z</time>
</trkpt>
<trkpt lat="57.139116" lon="9.063759">
<ele>21.644485</ele>
<time>2026-07-15T11:41:55.000Z</time>
</trkpt>
<trkpt lat="57.139183" lon="9.063778">
<ele>21.581564</ele>
<time>2026-07-15T11:41:56.000Z</time>
</trkpt>
<trkpt lat="57.139247" lon="9.063790">
<ele>21.521853</ele>
<time>2026-07-15T11:41:57.000Z</time>
</trkpt>
<trkpt lat="57.139306" lon="9.063795">
<ele>21.467031</ele>
<time>2026-07-15T11:41:58.000Z</time>
</trkpt>
<trkpt lat="57.139369" lon="9.063808">
<ele>21.408190</ele>
<time>2026-07-15T11:41:59.000Z</time>
</trkpt>
<trkpt lat="57.139431" lon="9.063817">
<ele>21.350463</ele>
<time>2026-07-15T11:42:00.000Z</time>
</trkpt>
<trkpt lat="57.139484" lon="9.063828">
<ele>21.300958</ele>
<time>2026-07-15T11:42:01.000Z</time>
</trkpt>
<trkpt lat="57.139541" lon="9.063837">
<ele>21.247857</ele>
<time>2026-07-15T11:42:02.000Z</time>
</trkpt>
<trkpt lat="57.139592" lon="9.063845">
<ele>21.200348</ele>
<time>2026-07-15T11:42:03.000Z</time>
</trkpt>
<trkpt lat="57.139645" lon="9.063845">
<ele>21.151154</ele>
<time>2026-07-15T11:42:04.000Z</time>
</trkpt>
<trkpt lat="57.139697" lon="9.063851">
<ele>21.102793</ele>
<time>2026-07-15T11:42:05.000Z</time>
</trkpt>
<trkpt lat="57.139747" lon="9.063855">
<ele>21.056340</ele>
<time>2026-07-15T11:42:06.000Z</time>
</trkpt>
<trkpt lat="57.139785" lon="9.063868">
<ele>21.020466</ele>
<time>2026-07-15T11:42:07.000Z</time>
</trkpt>
<trkpt lat="57.139828" lon="9.063885">
<ele>20.979646</ele>
<time>2026-07-15T11:42:08.000Z</time>
</trkpt>
<trkpt lat="57.139873" lon="9.063902">
<ele>20.937009</ele>
<time>2026-07-15T11:42:09.000Z</time>
</trkpt>
<trkpt lat="57.139922" lon="9.063918">
<ele>20.890819</ele>
<time>2026-07-15T11:42:10.000Z</time>
</trkpt>
<trkpt lat="57.139972" lon="9.063927">
<ele>20.844188</ele>
<time>2026-07-15T11:42:11.000Z</time>
</trkpt>
<trkpt lat="57.140025" lon="9.063933">
<ele>20.794901</ele>
<time>2026-07-15T11:42:12.000Z</time>
</trkpt>
<trkpt lat="57.140076" lon="9.063940">
<ele>20.747432</ele>
<time>2026-07-15T11:42:13.000Z</time>
</trkpt>
<trkpt lat="57.140128" lon="9.063949">
<ele>20.698954</ele>
<time>2026-07-15T11:42:14.000Z</time>
</trkpt>
<trkpt lat="57.140178" lon="9.063955">
<ele>20.652446</ele>
<time>2026-07-15T11:42:15.000Z</time>
</trkpt>
<trkpt lat="57.140231" lon="9.063958">
<ele>20.603228</ele>
<time>2026-07-15T11:42:16.000Z</time>
</trkpt>
<trkpt lat="57.140281" lon="9.063958">
<ele>20.556819</ele>
<time>2026-07-15T11:42:17.000Z</time>
</trkpt>
<trkpt lat="57.140331" lon="9.063963">
<ele>20.510341</ele>
<time>2026-07-15T11:42:18.000Z</time>
</trkpt>
<trkpt lat="57.140380" lon="9.063975">
<ele>20.464459</ele>
<time>2026-07-15T11:42:19.000Z</time>
</trkpt>
<trkpt lat="57.140426" lon="9.063980">
<ele>20.421688</ele>
<time>2026-07-15T11:42:20.000Z</time>
</trkpt>
<trkpt lat="57.140480" lon="9.063980">
<ele>20.371566</ele>
<time>2026-07-15T11:42:21.000Z</time>
</trkpt>
<trkpt lat="57.140533" lon="9.063990">
<ele>20.353823</ele>
<time>2026-07-15T11:42:22.000Z</time>
</trkpt>
<trkpt lat="57.140588" lon="9.064002">
<ele>20.345993</ele>
<time>2026-07-15T11:42:23.000Z</time>
</trkpt>
<trkpt lat="57.140652" lon="9.064015">
<ele>20.336889</ele>
<time>2026-07-15T11:42:24.000Z</time>
</trkpt>
<trkpt lat="57.140708" lon="9.064025">
<ele>20.328934</ele>
<time>2026-07-15T11:42:25.000Z</time>
</trkpt>
<trkpt lat="57.140765" lon="9.064045">
<ele>20.320730</ele>
<time>2026-07-15T11:42:26.000Z</time>
</trkpt>
<trkpt lat="57.140814" lon="9.064059">
<ele>20.313719</ele>
<time>2026-07-15T11:42:27.000Z</time>
</trkpt>
<trkpt lat="57.140881" lon="9.064067">
<ele>20.304226</ele>
<time>2026-07-15T11:42:28.000Z</time>
</trkpt>
<trkpt lat="57.140939" lon="9.064073">
<ele>20.296012</ele>
<time>2026-07-15T11:42:29.000Z</time>
</trkpt>
<trkpt lat="57.140998" lon="9.064083">
<ele>20.287635</ele>
<time>2026-07-15T11:42:30.000Z</time>
</trkpt>
<trkpt lat="57.141055" lon="9.064100">
<ele>20.279471</ele>
<time>2026-07-15T11:42:31.000Z</time>
</trkpt>
<trkpt lat="57.141101" lon="9.064108">
<ele>20.272938</ele>
<time>2026-07-15T11:42:32.000Z</time>
</trkpt>
<trkpt lat="57.141154" lon="9.064123">
<ele>20.265357</ele>
<time>2026-07-15T11:42:33.000Z</time>
</trkpt>
<trkpt lat="57.141201" lon="9.064130">
<ele>20.258690</ele>
<time>2026-07-15T11:42:34.000Z</time>
</trkpt>
<trkpt lat="57.141243" lon="9.064134">
<ele>20.252743</ele>
<time>2026-07-15T11:42:35.000Z</time>
</trkpt>
<trkpt lat="57.141288" lon="9.064135">
<ele>20.246380</ele>
<time>2026-07-15T11:42:36.000Z</time>
</trkpt>
<trkpt lat="57.141337" lon="9.064135">
<ele>20.239452</ele>
<time>2026-07-15T11:42:37.000Z</time>
</trkpt>
<trkpt lat="57.141392" lon="9.064143">
<ele>20.231651</ele>
<time>2026-07-15T11:42:38.000Z</time>
</trkpt>
<trkpt lat="57.141441" lon="9.064152">
<ele>20.224689</ele>
<time>2026-07-15T11:42:39.000Z</time>
</trkpt>
<trkpt lat="57.141494" lon="9.064161">
<ele>20.217164</ele>
<time>2026-07-15T11:42:40.000Z</time>
</trkpt>
<trkpt lat="57.141544" lon="9.064174">
<ele>20.210024</ele>
<time>2026-07-15T11:42:41.000Z</time>
</trkpt>
<trkpt lat="57.141589" lon="9.064193">
<ele>20.203497</ele>
<time>2026-07-15T11:42:42.000Z</time>
</trkpt>
<trkpt lat="57.141643" lon="9.064203">
<ele>20.195823</ele>
<time>2026-07-15T11:42:43.000Z</time>
</trkpt>
<trkpt lat="57.141697" lon="9.064215">
<ele>20.188133</ele>
<time>2026-07-15T11:42:44.000Z</time>
</trkpt>
<trkpt lat="57.141758" lon="9.064223">
<ele>20.179486</ele>
<time>2026-07-15T11:42:45.000Z</time>
</trkpt>
<trkpt lat="57.141816" lon="9.064231">
<ele>20.171263</ele>
<time>2026-07-15T11:42:46.000Z</time>
</trkpt>
<trkpt lat="57.141871" lon="9.064241">
<ele>20.163448</ele>
<time>2026-07-15T11:42:47.000Z</time>
</trkpt>
<trkpt lat="57.141917" lon="9.064247">
<ele>20.156928</ele>
<time>2026-07-15T11:42:48.000Z</time>
</trkpt>
<trkpt lat="57.141971" lon="9.064252">
<ele>20.149283</ele>
<time>2026-07-15T11:42:49.000Z</time>
</trkpt>
<trkpt lat="57.142021" lon="9.064261">
<ele>20.142180</ele>
<time>2026-07-15T11:42:50.000Z</time>
</trkpt>
<trkpt lat="57.142074" lon="9.064270">
<ele>20.134655</ele>
<time>2026-07-15T11:42:51.000Z</time>
</trkpt>
<trkpt lat="57.142129" lon="9.064285">
<ele>20.126794</ele>
<time>2026-07-15T11:42:52.000Z</time>
</trkpt>
<trkpt lat="57.142182" lon="9.064294">
<ele>20.119268</ele>
<time>2026-07-15T11:42:53.000Z</time>
</trkpt>
<trkpt lat="57.142238" lon="9.064312">
<ele>20.111231</ele>
<time>2026-07-15T11:42:54.000Z</time>
</trkpt>
<trkpt lat="57.142292" lon="9.064328">
<ele>20.123888</ele>
<time>2026-07-15T11:42:55.000Z</time>
</trkpt>
<trkpt lat="57.142342" lon="9.064349">
<ele>20.202961</ele>
<time>2026-07-15T11:42:56.000Z</time>
</trkpt>
<trkpt lat="57.142399" lon="9.064363">
<ele>20.291628</ele>
<time>2026-07-15T11:42:57.000Z</time>
</trkpt>
<trkpt lat="57.142460" lon="9.064372">
<ele>20.385987</ele>
<time>2026-07-15T11:42:58.000Z</time>
</trkpt>
<trkpt lat="57.142508" lon="9.064381">
<ele>20.460382</ele>
<time>2026-07-15T11:42:59.000Z</time>
</trkpt>
<trkpt lat="57.142564" lon="9.064386">
<ele>20.546831</ele>
<time>2026-07-15T11:43:00.000Z</time>
</trkpt>
<trkpt lat="57.142620" lon="9.064395">
<ele>20.633507</ele>
<time>2026-07-15T11:43:01.000Z</time>
</trkpt>
<trkpt lat="57.142670" lon="9.064402">
<ele>20.710826</ele>
<time>2026-07-15T11:43:02.000Z</time>
</trkpt>
<trkpt lat="57.142716" lon="9.064405">
<ele>20.781799</ele>
<time>2026-07-15T11:43:03.000Z</time>
</trkpt>
<trkpt lat="57.142760" lon="9.064405">
<ele>20.849644</ele>
<time>2026-07-15T11:43:04.000Z</time>
</trkpt>
<trkpt lat="57.142806" lon="9.064405">
<ele>20.920573</ele>
<time>2026-07-15T11:43:05.000Z</time>
</trkpt>
<trkpt lat="57.142851" lon="9.064408">
<ele>20.990005</ele>
<time>2026-07-15T11:43:06.000Z</time>
</trkpt>
<trkpt lat="57.142898" lon="9.064415">
<ele>21.062712</ele>
<time>2026-07-15T11:43:07.000Z</time>
</trkpt>
<trkpt lat="57.142939" lon="9.064420">
<ele>21.126070</ele>
<time>2026-07-15T11:43:08.000Z</time>
</trkpt>
<trkpt lat="57.142986" lon="9.064426">
<ele>21.198714</ele>
<time>2026-07-15T11:43:09.000Z</time>
</trkpt>
<trkpt lat="57.143031" lon="9.064435">
<ele>21.268509</ele>
<time>2026-07-15T11:43:10.000Z</time>
</trkpt>
<trkpt lat="57.143072" lon="9.064446">
<ele>21.332394</ele>
<time>2026-07-15T11:43:11.000Z</time>
</trkpt>
<trkpt lat="57.143119" lon="9.064455">
<ele>21.405255</ele>
<time>2026-07-15T11:43:12.000Z</time>
</trkpt>
<trkpt lat="57.143166" lon="9.064462">
<ele>21.477962</ele>
<time>2026-07-15T11:43:13.000Z</time>
</trkpt>
<trkpt lat="57.143212" lon="9.064470">
<ele>21.549206</ele>
<time>2026-07-15T11:43:14.000Z</time>
</trkpt>
<trkpt lat="57.143256" lon="9.064480">
<ele>21.617565</ele>
<time>2026-07-15T11:43:15.000Z</time>
</trkpt>
<trkpt lat="57.143302" lon="9.064485">
<ele>21.688617</ele>
<time>2026-07-15T11:43:16.000Z</time>
</trkpt>
<trkpt lat="57.143344" lon="9.064491">
<ele>21.753572</ele>
<time>2026-07-15T11:43:17.000Z</time>
</trkpt>
<trkpt lat="57.143387" lon="9.064497">
<ele>21.820065</ele>
<time>2026-07-15T11:43:18.000Z</time>
</trkpt>
<trkpt lat="57.143425" lon="9.064498">
<ele>21.878664</ele>
<time>2026-07-15T11:43:19.000Z</time>
</trkpt>
<trkpt lat="57.143463" lon="9.064500">
<ele>21.937282</ele>
<time>2026-07-15T11:43:20.000Z</time>
</trkpt>
<trkpt lat="57.143500" lon="9.064501">
<ele>21.994339</ele>
<time>2026-07-15T11:43:21.000Z</time>
</trkpt>
<trkpt lat="57.143535" lon="9.064500">
<ele>22.048313</ele>
<time>2026-07-15T11:43:22.000Z</time>
</trkpt>
<trkpt lat="57.143566" lon="9.064504">
<ele>22.096230</ele>
<time>2026-07-15T11:43:23.000Z</time>
</trkpt>
<trkpt lat="57.143601" lon="9.064504">
<ele>22.150198</ele>
<time>2026-07-15T11:43:24.000Z</time>
</trkpt>
<trkpt lat="57.143630" lon="9.064504">
<ele>22.194914</ele>
<time>2026-07-15T11:43:25.000Z</time>
</trkpt>
<trkpt lat="57.143665" lon="9.064502">
<ele>22.248908</ele>
<time>2026-07-15T11:43:26.000Z</time>
</trkpt>
<trkpt lat="57.143695" lon="9.064505">
<ele>22.295234</ele>
<time>2026-07-15T11:43:27.000Z</time>
</trkpt>
<trkpt lat="57.143730" lon="9.064508">
<ele>22.349260</ele>
<time>2026-07-15T11:43:28.000Z</time>
</trkpt>
<trkpt lat="57.143764" lon="9.064510">
<ele>22.401712</ele>
<time>2026-07-15T11:43:29.000Z</time>
</trkpt>
<trkpt lat="57.143791" lon="9.064511">
<ele>22.443353</ele>
<time>2026-07-15T11:43:30.000Z</time>
</trkpt>
<trkpt lat="57.143825" lon="9.064507">
<ele>22.495885</ele>
<time>2026-07-15T11:43:31.000Z</time>
</trkpt>
<trkpt lat="57.143860" lon="9.064505">
<ele>22.549878</ele>
<time>2026-07-15T11:43:32.000Z</time>
</trkpt>
<trkpt lat="57.143890" lon="9.064504">
<ele>22.596144</ele>
<time>2026-07-15T11:43:33.000Z</time>
</trkpt>
<trkpt lat="57.143925" lon="9.064502">
<ele>22.650138</ele>
<time>2026-07-15T11:43:34.000Z</time>
</trkpt>
<trkpt lat="57.143961" lon="9.064504">
<ele>22.705672</ele>
<time>2026-07-15T11:43:35.000Z</time>
</trkpt>
<trkpt lat="57.144009" lon="9.064508">
<ele>22.779761</ele>
<time>2026-07-15T11:43:36.000Z</time>
</trkpt>
<trkpt lat="57.144054" lon="9.064517">
<ele>22.849555</ele>
<time>2026-07-15T11:43:37.000Z</time>
</trkpt>
<trkpt lat="57.144096" lon="9.064522">
<ele>22.893528</ele>
<time>2026-07-15T11:43:38.000Z</time>
</trkpt>
<trkpt lat="57.144138" lon="9.064524">
<ele>22.920505</ele>
<time>2026-07-15T11:43:39.000Z</time>
</trkpt>
<trkpt lat="57.144176" lon="9.064527">
<ele>22.944928</ele>
<time>2026-07-15T11:43:40.000Z</time>
</trkpt>
<trkpt lat="57.144211" lon="9.064533">
<ele>22.967499</ele>
<time>2026-07-15T11:43:41.000Z</time>
</trkpt>
<trkpt lat="57.144245" lon="9.064542">
<ele>22.989554</ele>
<time>2026-07-15T11:43:42.000Z</time>
</trkpt>
<trkpt lat="57.144284" lon="9.064553">
<ele>23.014888</ele>
<time>2026-07-15T11:43:43.000Z</time>
</trkpt>
<trkpt lat="57.144317" lon="9.064566">
<ele>23.036556</ele>
<time>2026-07-15T11:43:44.000Z</time>
</trkpt>
<trkpt lat="57.144344" lon="9.064571">
<ele>23.053980</ele>
<time>2026-07-15T11:43:45.000Z</time>
</trkpt>
<trkpt lat="57.144370" lon="9.064575">
<ele>23.070733</ele>
<time>2026-07-15T11:43:46.000Z</time>
</trkpt>
<trkpt lat="57.144405" lon="9.064577">
<ele>23.093218</ele>
<time>2026-07-15T11:43:47.000Z</time>
</trkpt>
<trkpt lat="57.144435" lon="9.064587">
<ele>23.112794</ele>
<time>2026-07-15T11:43:48.000Z</time>
</trkpt>
<trkpt lat="57.144481" lon="9.064602">
<ele>23.142789</ele>
<time>2026-07-15T11:43:49.000Z</time>
</trkpt>
<trkpt lat="57.144519" lon="9.064609">
<ele>23.167311</ele>
<time>2026-07-15T11:43:50.000Z</time>
</trkpt>
<trkpt lat="57.144562" lon="9.064620">
<ele>23.195186</ele>
<time>2026-07-15T11:43:51.000Z</time>
</trkpt>
<trkpt lat="57.144600" lon="9.064627">
<ele>23.219708</ele>
<time>2026-07-15T11:43:52.000Z</time>
</trkpt>
<trkpt lat="57.144646" lon="9.064630">
<ele>23.249264</ele>
<time>2026-07-15T11:43:53.000Z</time>
</trkpt>
<trkpt lat="57.144687" lon="9.064636">
<ele>23.275673</ele>
<time>2026-07-15T11:43:54.000Z</time>
</trkpt>
<trkpt lat="57.144734" lon="9.064650">
<ele>23.306244</ele>
<time>2026-07-15T11:43:55.000Z</time>
</trkpt>
<trkpt lat="57.144778" lon="9.064662">
<ele>23.334804</ele>
<time>2026-07-15T11:43:56.000Z</time>
</trkpt>
<trkpt lat="57.144821" lon="9.064670">
<ele>23.362555</ele>
<time>2026-07-15T11:43:57.000Z</time>
</trkpt>
<trkpt lat="57.144860" lon="9.064675">
<ele>23.387658</ele>
<time>2026-07-15T11:43:58.000Z</time>
</trkpt>
<trkpt lat="57.144900" lon="9.064688">
<ele>23.413738</ele>
<time>2026-07-15T11:43:59.000Z</time>
</trkpt>
<trkpt lat="57.144943" lon="9.064698">
<ele>23.441568</ele>
<time>2026-07-15T11:44:00.000Z</time>
</trkpt>
<trkpt lat="57.144995" lon="9.064713">
<ele>23.475364</ele>
<time>2026-07-15T11:44:01.000Z</time>
</trkpt>
<trkpt lat="57.145035" lon="9.064727">
<ele>23.501507</ele>
<time>2026-07-15T11:44:02.000Z</time>
</trkpt>
<trkpt lat="57.145073" lon="9.064735">
<ele>23.526066</ele>
<time>2026-07-15T11:44:03.000Z</time>
</trkpt>
<trkpt lat="57.145103" lon="9.064742">
<ele>23.545483</ele>
<time>2026-07-15T11:44:04.000Z</time>
</trkpt>
<trkpt lat="57.145130" lon="9.064754">
<ele>23.563317</ele>
<time>2026-07-15T11:44:05.000Z</time>
</trkpt>
<trkpt lat="57.145162" lon="9.064755">
<ele>23.583867</ele>
<time>2026-07-15T11:44:06.000Z</time>
</trkpt>
<trkpt lat="57.145203" lon="9.064756">
<ele>23.610196</ele>
<time>2026-07-15T11:44:07.000Z</time>
</trkpt>
<trkpt lat="57.145233" lon="9.064763">
<ele>23.629613</ele>
<time>2026-07-15T11:44:08.000Z</time>
</trkpt>
<trkpt lat="57.145298" lon="9.064769">
<ele>23.671402</ele>
<time>2026-07-15T11:44:09.000Z</time>
</trkpt>
<trkpt lat="57.145328" lon="9.064769">
<ele>23.690666</ele>
<time>2026-07-15T11:44:10.000Z</time>
</trkpt>
<trkpt lat="57.145370" lon="9.064776">
<ele>23.717744</ele>
<time>2026-07-15T11:44:11.000Z</time>
</trkpt>
<trkpt lat="57.145396" lon="9.064781">
<ele>23.734530</ele>
<time>2026-07-15T11:44:12.000Z</time>
</trkpt>
<trkpt lat="57.145443" lon="9.064795">
<ele>23.765100</ele>
<time>2026-07-15T11:44:13.000Z</time>
</trkpt>
<trkpt lat="57.145481" lon="9.064816">
<ele>23.790574</ele>
<time>2026-07-15T11:44:14.000Z</time>
</trkpt>
<trkpt lat="57.145523" lon="9.064854">
<ele>23.820616</ele>
<time>2026-07-15T11:44:15.000Z</time>
</trkpt>
<trkpt lat="57.145562" lon="9.064898">
<ele>23.849976</ele>
<time>2026-07-15T11:44:16.000Z</time>
</trkpt>
<trkpt lat="57.145592" lon="9.064972">
<ele>23.882157</ele>
<time>2026-07-15T11:44:17.000Z</time>
</trkpt>
<trkpt lat="57.145618" lon="9.065041">
<ele>23.911422</ele>
<time>2026-07-15T11:44:18.000Z</time>
</trkpt>
<trkpt lat="57.145634" lon="9.065124">
<ele>23.942106</ele>
<time>2026-07-15T11:44:19.000Z</time>
</trkpt>
<trkpt lat="57.145645" lon="9.065194">
<ele>23.967492</ele>
<time>2026-07-15T11:44:20.000Z</time>
</trkpt>
<trkpt lat="57.145660" lon="9.065269">
<ele>23.995337</ele>
<time>2026-07-15T11:44:21.000Z</time>
</trkpt>
<trkpt lat="57.145672" lon="9.065358">
<ele>24.027283</ele>
<time>2026-07-15T11:44:22.000Z</time>
</trkpt>
<trkpt lat="57.145679" lon="9.065448">
<ele>24.049833</ele>
<time>2026-07-15T11:44:23.000Z</time>
</trkpt>
<trkpt lat="57.145687" lon="9.065544">
<ele>24.071531</ele>
<time>2026-07-15T11:44:24.000Z</time>
</trkpt>
<trkpt lat="57.145699" lon="9.065641">
<ele>24.093757</ele>
<time>2026-07-15T11:44:25.000Z</time>
</trkpt>
<trkpt lat="57.145710" lon="9.065739">
<ele>24.116114</ele>
<time>2026-07-15T11:44:26.000Z</time>
</trkpt>
<trkpt lat="57.145718" lon="9.065850">
<ele>24.141130</ele>
<time>2026-07-15T11:44:27.000Z</time>
</trkpt>
<trkpt lat="57.145729" lon="9.065957">
<ele>24.165459</ele>
<time>2026-07-15T11:44:28.000Z</time>
</trkpt>
<trkpt lat="57.145737" lon="9.066069">
<ele>24.190696</ele>
<time>2026-07-15T11:44:29.000Z</time>
</trkpt>
<trkpt lat="57.145748" lon="9.066173">
<ele>24.214367</ele>
<time>2026-07-15T11:44:30.000Z</time>
</trkpt>
<trkpt lat="57.145756" lon="9.066282">
<ele>24.238940</ele>
<time>2026-07-15T11:44:31.000Z</time>
</trkpt>
<trkpt lat="57.145760" lon="9.066386">
<ele>24.262232</ele>
<time>2026-07-15T11:44:32.000Z</time>
</trkpt>
<trkpt lat="57.145767" lon="9.066477">
<ele>24.282765</ele>
<time>2026-07-15T11:44:33.000Z</time>
</trkpt>
<trkpt lat="57.145775" lon="9.066571">
<ele>24.304021</ele>
<time>2026-07-15T11:44:34.000Z</time>
</trkpt>
<trkpt lat="57.145779" lon="9.066658">
<ele>24.323527</ele>
<time>2026-07-15T11:44:35.000Z</time>
</trkpt>
<trkpt lat="57.145786" lon="9.066750">
<ele>24.344281</ele>
<time>2026-07-15T11:44:36.000Z</time>
</trkpt>
<trkpt lat="57.145790" lon="9.066840">
<ele>24.364454</ele>
<time>2026-07-15T11:44:37.000Z</time>
</trkpt>
<trkpt lat="57.145794" lon="9.066928">
<ele>24.384182</ele>
<time>2026-07-15T11:44:38.000Z</time>
</trkpt>
<trkpt lat="57.145790" lon="9.067021">
<ele>24.405024</ele>
<time>2026-07-15T11:44:39.000Z</time>
</trkpt>
<trkpt lat="57.145794" lon="9.067114">
<ele>24.425865</ele>
<time>2026-07-15T11:44:40.000Z</time>
</trkpt>
<trkpt lat="57.145802" lon="9.067202">
<ele>24.445799</ele>
<time>2026-07-15T11:44:41.000Z</time>
</trkpt>
<trkpt lat="57.145802" lon="9.067296">
<ele>24.466798</ele>
<time>2026-07-15T11:44:42.000Z</time>
</trkpt>
<trkpt lat="57.145805" lon="9.067385">
<ele>24.486719</ele>
<time>2026-07-15T11:44:43.000Z</time>
</trkpt>
<trkpt lat="57.145809" lon="9.067487">
<ele>24.509566</ele>
<time>2026-07-15T11:44:44.000Z</time>
</trkpt>
<trkpt lat="57.145813" lon="9.067581">
<ele>24.530630</ele>
<time>2026-07-15T11:44:45.000Z</time>
</trkpt>
<trkpt lat="57.145813" lon="9.067677">
<ele>24.552076</ele>
<time>2026-07-15T11:44:46.000Z</time>
</trkpt>
<trkpt lat="57.145817" lon="9.067775">
<ele>24.574031</ele>
<time>2026-07-15T11:44:47.000Z</time>
</trkpt>
<trkpt lat="57.145821" lon="9.067870">
<ele>24.595318</ele>
<time>2026-07-15T11:44:48.000Z</time>
</trkpt>
<trkpt lat="57.145824" lon="9.067968">
<ele>24.617246</ele>
<time>2026-07-15T11:44:49.000Z</time>
</trkpt>
<trkpt lat="57.145832" lon="9.068069">
<ele>24.640049</ele>
<time>2026-07-15T11:44:50.000Z</time>
</trkpt>
<trkpt lat="57.145836" lon="9.068170">
<ele>24.662673</ele>
<time>2026-07-15T11:44:51.000Z</time>
</trkpt>
<trkpt lat="57.145840" lon="9.068264">
<ele>24.683737</ele>
<time>2026-07-15T11:44:52.000Z</time>
</trkpt>
<trkpt lat="57.145843" lon="9.068352">
<ele>24.703435</ele>
<time>2026-07-15T11:44:53.000Z</time>
</trkpt>
<trkpt lat="57.145844" lon="9.068461">
<ele>24.727789</ele>
<time>2026-07-15T11:44:54.000Z</time>
</trkpt>
<trkpt lat="57.145851" lon="9.068560">
<ele>24.750093</ele>
<time>2026-07-15T11:44:55.000Z</time>
</trkpt>
<trkpt lat="57.145855" lon="9.068659">
<ele>24.772271</ele>
<time>2026-07-15T11:44:56.000Z</time>
</trkpt>
<trkpt lat="57.145863" lon="9.068761">
<ele>24.583424</ele>
<time>2026-07-15T11:44:57.000Z</time>
</trkpt>
<trkpt lat="57.145866" lon="9.068863">
<ele>24.377070</ele>
<time>2026-07-15T11:44:58.000Z</time>
</trkpt>
<trkpt lat="57.145870" lon="9.068970">
<ele>24.160405</ele>
<time>2026-07-15T11:44:59.000Z</time>
</trkpt>
<trkpt lat="57.145870" lon="9.069067">
<ele>23.964453</ele>
<time>2026-07-15T11:45:00.000Z</time>
</trkpt>
<trkpt lat="57.145870" lon="9.069161">
<ele>23.774562</ele>
<time>2026-07-15T11:45:01.000Z</time>
</trkpt>
<trkpt lat="57.145859" lon="9.069255">
<ele>23.580304</ele>
<time>2026-07-15T11:45:02.000Z</time>
</trkpt>
<trkpt lat="57.145841" lon="9.069332">
<ele>23.410928</ele>
<time>2026-07-15T11:45:03.000Z</time>
</trkpt>
<trkpt lat="57.145813" lon="9.069411">
<ele>23.220299</ele>
<time>2026-07-15T11:45:04.000Z</time>
</trkpt>
<trkpt lat="57.145774" lon="9.069479">
<ele>23.020398</ele>
<time>2026-07-15T11:45:05.000Z</time>
</trkpt>
<trkpt lat="57.145729" lon="9.069543">
<ele>22.808752</ele>
<time>2026-07-15T11:45:06.000Z</time>
</trkpt>
<trkpt lat="57.145683" lon="9.069609">
<ele>22.591688</ele>
<time>2026-07-15T11:45:07.000Z</time>
</trkpt>
<trkpt lat="57.145634" lon="9.069681">
<ele>22.358348</ele>
<time>2026-07-15T11:45:08.000Z</time>
</trkpt>
<trkpt lat="57.145587" lon="9.069755">
<ele>22.128181</ele>
<time>2026-07-15T11:45:09.000Z</time>
</trkpt>
<trkpt lat="57.145535" lon="9.069834">
<ele>21.877257</ele>
<time>2026-07-15T11:45:10.000Z</time>
</trkpt>
<trkpt lat="57.145486" lon="9.069905">
<ele>21.645170</ele>
<time>2026-07-15T11:45:11.000Z</time>
</trkpt>
<trkpt lat="57.145439" lon="9.069977">
<ele>21.417606</ele>
<time>2026-07-15T11:45:12.000Z</time>
</trkpt>
<trkpt lat="57.145394" lon="9.070046">
<ele>21.199642</ele>
<time>2026-07-15T11:45:13.000Z</time>
</trkpt>
<trkpt lat="57.145351" lon="9.070115">
<ele>20.987351</ele>
<time>2026-07-15T11:45:14.000Z</time>
</trkpt>
<trkpt lat="57.145305" lon="9.070182">
<ele>20.769039</ele>
<time>2026-07-15T11:45:15.000Z</time>
</trkpt>
<trkpt lat="57.145260" lon="9.070249">
<ele>20.553637</ele>
<time>2026-07-15T11:45:16.000Z</time>
</trkpt>
<trkpt lat="57.145214" lon="9.070319">
<ele>20.331517</ele>
<time>2026-07-15T11:45:17.000Z</time>
</trkpt>
<trkpt lat="57.145168" lon="9.070392">
<ele>20.105490</ele>
<time>2026-07-15T11:45:18.000Z</time>
</trkpt>
<trkpt lat="57.145115" lon="9.070463">
<ele>19.861519</ele>
<time>2026-07-15T11:45:19.000Z</time>
</trkpt>
<trkpt lat="57.145061" lon="9.070535">
<ele>19.613347</ele>
<time>2026-07-15T11:45:20.000Z</time>
</trkpt>
<trkpt lat="57.145012" lon="9.070605">
<ele>19.382502</ele>
<time>2026-07-15T11:45:21.000Z</time>
</trkpt>
<trkpt lat="57.144959" lon="9.070672">
<ele>19.143192</ele>
<time>2026-07-15T11:45:22.000Z</time>
</trkpt>
<trkpt lat="57.144913" lon="9.070735">
<ele>18.929795</ele>
<time>2026-07-15T11:45:23.000Z</time>
</trkpt>
<trkpt lat="57.144867" lon="9.070795">
<ele>18.719956</ele>
<time>2026-07-15T11:45:24.000Z</time>
</trkpt>
<trkpt lat="57.144825" lon="9.070854">
<ele>18.523320</ele>
<time>2026-07-15T11:45:25.000Z</time>
</trkpt>
<trkpt lat="57.144780" lon="9.070910">
<ele>18.321139</ele>
<time>2026-07-15T11:45:26.000Z</time>
</trkpt>
<trkpt lat="57.144733" lon="9.070965">
<ele>18.113835</ele>
<time>2026-07-15T11:45:27.000Z</time>
</trkpt>
<trkpt lat="57.144684" lon="9.071020">
<ele>17.916625</ele>
<time>2026-07-15T11:45:28.000Z</time>
</trkpt>
<trkpt lat="57.144638" lon="9.071076">
<ele>17.730457</ele>
<time>2026-07-15T11:45:29.000Z</time>
</trkpt>
<trkpt lat="57.144594" lon="9.071134">
<ele>17.547779</ele>
<time>2026-07-15T11:45:30.000Z</time>
</trkpt>
<trkpt lat="57.144546" lon="9.071197">
<ele>17.348785</ele>
<time>2026-07-15T11:45:31.000Z</time>
</trkpt>
<trkpt lat="57.144493" lon="9.071270">
<ele>17.125350</ele>
<time>2026-07-15T11:45:32.000Z</time>
</trkpt>
<trkpt lat="57.144447" lon="9.071347">
<ele>16.915508</ele>
<time>2026-07-15T11:45:33.000Z</time>
</trkpt>
<trkpt lat="57.144397" lon="9.071434">
<ele>16.683305</ele>
<time>2026-07-15T11:45:34.000Z</time>
</trkpt>
<trkpt lat="57.144348" lon="9.071530">
<ele>16.441814</ele>
<time>2026-07-15T11:45:35.000Z</time>
</trkpt>
<trkpt lat="57.144294" lon="9.071631">
<ele>16.182011</ele>
<time>2026-07-15T11:45:36.000Z</time>
</trkpt>
<trkpt lat="57.144241" lon="9.071737">
<ele>15.917906</ele>
<time>2026-07-15T11:45:37.000Z</time>
</trkpt>
<trkpt lat="57.144191" lon="9.071842">
<ele>15.661938</ele>
<time>2026-07-15T11:45:38.000Z</time>
</trkpt>
<trkpt lat="57.144142" lon="9.071946">
<ele>15.409572</ele>
<time>2026-07-15T11:45:39.000Z</time>
</trkpt>
<trkpt lat="57.144096" lon="9.072044">
<ele>15.172147</ele>
<time>2026-07-15T11:45:40.000Z</time>
</trkpt>
<trkpt lat="57.144046" lon="9.072137">
<ele>14.932264</ele>
<time>2026-07-15T11:45:41.000Z</time>
</trkpt>
<trkpt lat="57.143998" lon="9.072225">
<ele>14.703635</ele>
<time>2026-07-15T11:45:42.000Z</time>
</trkpt>
<trkpt lat="57.143951" lon="9.072317">
<ele>14.472109</ele>
<time>2026-07-15T11:45:43.000Z</time>
</trkpt>
<trkpt lat="57.143910" lon="9.072405">
<ele>14.259586</ele>
<time>2026-07-15T11:45:44.000Z</time>
</trkpt>
<trkpt lat="57.143864" lon="9.072498">
<ele>14.029011</ele>
<time>2026-07-15T11:45:45.000Z</time>
</trkpt>
<trkpt lat="57.143819" lon="9.072587">
<ele>13.806113</ele>
<time>2026-07-15T11:45:46.000Z</time>
</trkpt>
<trkpt lat="57.143769" lon="9.072686">
<ele>13.558299</ele>
<time>2026-07-15T11:45:47.000Z</time>
</trkpt>
<trkpt lat="57.143724" lon="9.072783">
<ele>13.324465</ele>
<time>2026-07-15T11:45:48.000Z</time>
</trkpt>
<trkpt lat="57.143677" lon="9.072884">
<ele>13.080670</ele>
<time>2026-07-15T11:45:49.000Z</time>
</trkpt>
<trkpt lat="57.143632" lon="9.072980">
<ele>12.848225</ele>
<time>2026-07-15T11:45:50.000Z</time>
</trkpt>
<trkpt lat="57.143585" lon="9.073071">
<ele>12.618028</ele>
<time>2026-07-15T11:45:51.000Z</time>
</trkpt>
<trkpt lat="57.143545" lon="9.073153">
<ele>12.415991</ele>
<time>2026-07-15T11:45:52.000Z</time>
</trkpt>
<trkpt lat="57.143503" lon="9.073242">
<ele>12.199872</ele>
<time>2026-07-15T11:45:53.000Z</time>
</trkpt>
<trkpt lat="57.143459" lon="9.073335">
<ele>12.002466</ele>
<time>2026-07-15T11:45:54.000Z</time>
</trkpt>
<trkpt lat="57.143418" lon="9.073421">
<ele>12.002492</ele>
<time>2026-07-15T11:45:55.000Z</time>
</trkpt>
<trkpt lat="57.143382" lon="9.073494">
<ele>12.002514</ele>
<time>2026-07-15T11:45:56.000Z</time>
</trkpt>
<trkpt lat="57.143341" lon="9.073574">
<ele>12.002540</ele>
<time>2026-07-15T11:45:57.000Z</time>
</trkpt>
<trkpt lat="57.143284" lon="9.073681">
<ele>12.002574</ele>
<time>2026-07-15T11:45:58.000Z</time>
</trkpt>
<trkpt lat="57.143243" lon="9.073766">
<ele>12.002600</ele>
<time>2026-07-15T11:45:59.000Z</time>
</trkpt>
<trkpt lat="57.143200" lon="9.073855">
<ele>12.002627</ele>
<time>2026-07-15T11:46:00.000Z</time>
</trkpt>
<trkpt lat="57.143158" lon="9.073947">
<ele>12.002654</ele>
<time>2026-07-15T11:46:01.000Z</time>
</trkpt>
<trkpt lat="57.143120" lon="9.074041">
<ele>12.002681</ele>
<time>2026-07-15T11:46:02.000Z</time>
</trkpt>
<trkpt lat="57.143086" lon="9.074128">
<ele>12.002705</ele>
<time>2026-07-15T11:46:03.000Z</time>
</trkpt>
<trkpt lat="57.143051" lon="9.074216">
<ele>12.002730</ele>
<time>2026-07-15T11:46:04.000Z</time>
</trkpt>
<trkpt lat="57.143005" lon="9.074298">
<ele>12.002757</ele>
<time>2026-07-15T11:46:05.000Z</time>
</trkpt>
<trkpt lat="57.142971" lon="9.074385">
<ele>12.002781</ele>
<time>2026-07-15T11:46:06.000Z</time>
</trkpt>
<trkpt lat="57.142934" lon="9.074465">
<ele>12.002805</ele>
<time>2026-07-15T11:46:07.000Z</time>
</trkpt>
<trkpt lat="57.142894" lon="9.074543">
<ele>12.002830</ele>
<time>2026-07-15T11:46:08.000Z</time>
</trkpt>
<trkpt lat="57.142858" lon="9.074615">
<ele>12.002852</ele>
<time>2026-07-15T11:46:09.000Z</time>
</trkpt>
<trkpt lat="57.142826" lon="9.074689">
<ele>12.002874</ele>
<time>2026-07-15T11:46:10.000Z</time>
</trkpt>
<trkpt lat="57.142795" lon="9.074759">
<ele>12.002894</ele>
<time>2026-07-15T11:46:11.000Z</time>
</trkpt>
<trkpt lat="57.142765" lon="9.074822">
<ele>12.002913</ele>
<time>2026-07-15T11:46:12.000Z</time>
</trkpt>
<trkpt lat="57.142734" lon="9.074886">
<ele>12.002933</ele>
<time>2026-07-15T11:46:13.000Z</time>
</trkpt>
<trkpt lat="57.142700" lon="9.074949">
<ele>12.002953</ele>
<time>2026-07-15T11:46:14.000Z</time>
</trkpt>
<trkpt lat="57.142673" lon="9.075012">
<ele>12.002971</ele>
<time>2026-07-15T11:46:15.000Z</time>
</trkpt>
<trkpt lat="57.142643" lon="9.075077">
<ele>12.002991</ele>
<time>2026-07-15T11:46:16.000Z</time>
</trkpt>
<trkpt lat="57.142617" lon="9.075143">
<ele>12.003009</ele>
<time>2026-07-15T11:46:17.000Z</time>
</trkpt>
<trkpt lat="57.142586" lon="9.075215">
<ele>12.003030</ele>
<time>2026-07-15T11:46:18.000Z</time>
</trkpt>
<trkpt lat="57.142555" lon="9.075281">
<ele>12.003050</ele>
<time>2026-07-15T11:46:19.000Z</time>
</trkpt>
<trkpt lat="57.142533" lon="9.075338">
<ele>12.003066</ele>
<time>2026-07-15T11:46:20.000Z</time>
</trkpt>
<trkpt lat="57.142505" lon="9.075401">
<ele>12.003085</ele>
<time>2026-07-15T11:46:21.000Z</time>
</trkpt>
<trkpt lat="57.142481" lon="9.075447">
<ele>12.003099</ele>
<time>2026-07-15T11:46:22.000Z</time>
</trkpt>
<trkpt lat="57.142456" lon="9.075505">
<ele>12.003116</ele>
<time>2026-07-15T11:46:23.000Z</time>
</trkpt>
<trkpt lat="57.142436" lon="9.075556">
<ele>12.003131</ele>
<time>2026-07-15T11:46:24.000Z</time>
</trkpt>
<trkpt lat="57.142406" lon="9.075650">
<ele>12.003155</ele>
<time>2026-07-15T11:46:25.000Z</time>
</trkpt>
<trkpt lat="57.142384" lon="9.075724">
<ele>12.003175</ele>
<time>2026-07-15T11:46:26.000Z</time>
</trkpt>
<trkpt lat="57.142372" lon="9.075802">
<ele>12.003193</ele>
<time>2026-07-15T11:46:27.000Z</time>
</trkpt>
<trkpt lat="57.142349" lon="9.075896">
<ele>12.003217</ele>
<time>2026-07-15T11:46:28.000Z</time>
</trkpt>
<trkpt lat="57.142324" lon="9.075991">
<ele>11.996670</ele>
<time>2026-07-15T11:46:29.000Z</time>
</trkpt>
<trkpt lat="57.142307" lon="9.076087">
<ele>11.990132</ele>
<time>2026-07-15T11:46:30.000Z</time>
</trkpt>
<trkpt lat="57.142296" lon="9.076175">
<ele>11.984285</ele>
<time>2026-07-15T11:46:31.000Z</time>
</trkpt>
<trkpt lat="57.142273" lon="9.076278">
<ele>11.977074</ele>
<time>2026-07-15T11:46:32.000Z</time>
</trkpt>
<trkpt lat="57.142247" lon="9.076390">
<ele>11.969187</ele>
<time>2026-07-15T11:46:33.000Z</time>
</trkpt>
<trkpt lat="57.142200" lon="9.076525">
<ele>11.958803</ele>
<time>2026-07-15T11:46:34.000Z</time>
</trkpt>
<trkpt lat="57.142178" lon="9.076642">
<ele>11.950786</ele>
<time>2026-07-15T11:46:35.000Z</time>
</trkpt>
<trkpt lat="57.142147" lon="9.076759">
<ele>11.942356</ele>
<time>2026-07-15T11:46:36.000Z</time>
</trkpt>
<trkpt lat="57.142120" lon="9.076868">
<ele>11.934599</ele>
<time>2026-07-15T11:46:37.000Z</time>
</trkpt>
<trkpt lat="57.142090" lon="9.076983">
<ele>11.926337</ele>
<time>2026-07-15T11:46:38.000Z</time>
</trkpt>
<trkpt lat="57.142059" lon="9.077103">
<ele>11.917733</ele>
<time>2026-07-15T11:46:39.000Z</time>
</trkpt>
<trkpt lat="57.142026" lon="9.077214">
<ele>11.909538</ele>
<time>2026-07-15T11:46:40.000Z</time>
</trkpt>
<trkpt lat="57.141998" lon="9.077323">
<ele>11.901730</ele>
<time>2026-07-15T11:46:41.000Z</time>
</trkpt>
<trkpt lat="57.141976" lon="9.077421">
<ele>11.894864</ele>
<time>2026-07-15T11:46:42.000Z</time>
</trkpt>
<trkpt lat="57.141956" lon="9.077514">
<ele>11.888387</ele>
<time>2026-07-15T11:46:43.000Z</time>
</trkpt>
<trkpt lat="57.141933" lon="9.077603">
<ele>11.882005</ele>
<time>2026-07-15T11:46:44.000Z</time>
</trkpt>
<trkpt lat="57.141916" lon="9.077688">
<ele>11.876140</ele>
<time>2026-07-15T11:46:45.000Z</time>
</trkpt>
<trkpt lat="57.141891" lon="9.077791">
<ele>11.868835</ele>
<time>2026-07-15T11:46:46.000Z</time>
</trkpt>
<trkpt lat="57.141869" lon="9.077893">
<ele>11.861728</ele>
<time>2026-07-15T11:46:47.000Z</time>
</trkpt>
<trkpt lat="57.141842" lon="9.078000">
<ele>11.854088</ele>
<time>2026-07-15T11:46:48.000Z</time>
</trkpt>
<trkpt lat="57.141819" lon="9.078101">
<ele>11.846997</ele>
<time>2026-07-15T11:46:49.000Z</time>
</trkpt>
<trkpt lat="57.141794" lon="9.078202">
<ele>11.839809</ele>
<time>2026-07-15T11:46:50.000Z</time>
</trkpt>
<trkpt lat="57.141773" lon="9.078306">
<ele>11.832625</ele>
<time>2026-07-15T11:46:51.000Z</time>
</trkpt>
<trkpt lat="57.141750" lon="9.078399">
<ele>11.826008</ele>
<time>2026-07-15T11:46:52.000Z</time>
</trkpt>
<trkpt lat="57.141732" lon="9.078491">
<ele>11.819676</ele>
<time>2026-07-15T11:46:53.000Z</time>
</trkpt>
<trkpt lat="57.141708" lon="9.078587">
<ele>11.812833</ele>
<time>2026-07-15T11:46:54.000Z</time>
</trkpt>
<trkpt lat="57.141694" lon="9.078680">
<ele>11.806584</ele>
<time>2026-07-15T11:46:55.000Z</time>
</trkpt>
<trkpt lat="57.141674" lon="9.078780">
<ele>11.799684</ele>
<time>2026-07-15T11:46:56.000Z</time>
</trkpt>
<trkpt lat="57.141655" lon="9.078878">
<ele>11.792947</ele>
<time>2026-07-15T11:46:57.000Z</time>
</trkpt>
<trkpt lat="57.141640" lon="9.078977">
<ele>11.784586</ele>
<time>2026-07-15T11:46:58.000Z</time>
</trkpt>
<trkpt lat="57.141617" lon="9.079076">
<ele>11.772438</ele>
<time>2026-07-15T11:46:59.000Z</time>
</trkpt>
<trkpt lat="57.141598" lon="9.079173">
<ele>11.760806</ele>
<time>2026-07-15T11:47:00.000Z</time>
</trkpt>
<trkpt lat="57.141575" lon="9.079274">
<ele>11.748450</ele>
<time>2026-07-15T11:47:01.000Z</time>
</trkpt>
<trkpt lat="57.141552" lon="9.079372">
<ele>11.736406</ele>
<time>2026-07-15T11:47:02.000Z</time>
</trkpt>
<trkpt lat="57.141525" lon="9.079473">
<ele>11.723706</ele>
<time>2026-07-15T11:47:03.000Z</time>
</trkpt>
<trkpt lat="57.141506" lon="9.079571">
<ele>11.711967</ele>
<time>2026-07-15T11:47:04.000Z</time>
</trkpt>
<trkpt lat="57.141484" lon="9.079671">
<ele>11.699796</ele>
<time>2026-07-15T11:47:05.000Z</time>
</trkpt>
<trkpt lat="57.141456" lon="9.079779">
<ele>11.686294</ele>
<time>2026-07-15T11:47:06.000Z</time>
</trkpt>
<trkpt lat="57.141434" lon="9.079884">
<ele>11.673598</ele>
<time>2026-07-15T11:47:07.000Z</time>
</trkpt>
<trkpt lat="57.141411" lon="9.079986">
<ele>11.661139</ele>
<time>2026-07-15T11:47:08.000Z</time>
</trkpt>
<trkpt lat="57.141392" lon="9.080092">
<ele>11.648547</ele>
<time>2026-07-15T11:47:09.000Z</time>
</trkpt>
<trkpt lat="57.141376" lon="9.080183">
<ele>11.637757</ele>
<time>2026-07-15T11:47:10.000Z</time>
</trkpt>
<trkpt lat="57.141354" lon="9.080302">
<ele>11.623576</ele>
<time>2026-07-15T11:47:11.000Z</time>
</trkpt>
<trkpt lat="57.141335" lon="9.080401">
<ele>11.611731</ele>
<time>2026-07-15T11:47:12.000Z</time>
</trkpt>
<trkpt lat="57.141312" lon="9.080538">
<ele>11.595555</ele>
<time>2026-07-15T11:47:13.000Z</time>
</trkpt>
<trkpt lat="57.141293" lon="9.080650">
<ele>11.582318</ele>
<time>2026-07-15T11:47:14.000Z</time>
</trkpt>
<trkpt lat="57.141270" lon="9.080761">
<ele>11.568916</ele>
<time>2026-07-15T11:47:15.000Z</time>
</trkpt>
<trkpt lat="57.141250" lon="9.080871">
<ele>11.555830</ele>
<time>2026-07-15T11:47:16.000Z</time>
</trkpt>
<trkpt lat="57.141232" lon="9.080978">
<ele>11.543194</ele>
<time>2026-07-15T11:47:17.000Z</time>
</trkpt>
<trkpt lat="57.141212" lon="9.081088">
<ele>11.530108</ele>
<time>2026-07-15T11:47:18.000Z</time>
</trkpt>
<trkpt lat="57.141193" lon="9.081193">
<ele>11.517623</ele>
<time>2026-07-15T11:47:19.000Z</time>
</trkpt>
<trkpt lat="57.141174" lon="9.081298">
<ele>11.505138</ele>
<time>2026-07-15T11:47:20.000Z</time>
</trkpt>
<trkpt lat="57.141155" lon="9.081404">
<ele>11.492545</ele>
<time>2026-07-15T11:47:21.000Z</time>
</trkpt>
<trkpt lat="57.141136" lon="9.081508">
<ele>11.480167</ele>
<time>2026-07-15T11:47:22.000Z</time>
</trkpt>
<trkpt lat="57.141117" lon="9.081609">
<ele>11.468109</ele>
<time>2026-07-15T11:47:23.000Z</time>
</trkpt>
<trkpt lat="57.141102" lon="9.081711">
<ele>11.456189</ele>
<time>2026-07-15T11:47:24.000Z</time>
</trkpt>
<trkpt lat="57.141087" lon="9.081810">
<ele>11.444594</ele>
<time>2026-07-15T11:47:25.000Z</time>
</trkpt>
<trkpt lat="57.141067" lon="9.081910">
<ele>11.432573</ele>
<time>2026-07-15T11:47:26.000Z</time>
</trkpt>
<trkpt lat="57.141050" lon="9.082007">
<ele>11.421075</ele>
<time>2026-07-15T11:47:27.000Z</time>
</trkpt>
<trkpt lat="57.141029" lon="9.082112">
<ele>11.406675</ele>
<time>2026-07-15T11:47:28.000Z</time>
</trkpt>
<trkpt lat="57.141007" lon="9.082211">
<ele>11.391156</ele>
<time>2026-07-15T11:47:29.000Z</time>
</trkpt>
<trkpt lat="57.140987" lon="9.082316">
<ele>11.375013</ele>
<time>2026-07-15T11:47:30.000Z</time>
</trkpt>
<trkpt lat="57.140968" lon="9.082421">
<ele>11.358956</ele>
<time>2026-07-15T11:47:31.000Z</time>
</trkpt>
<trkpt lat="57.140947" lon="9.082519">
<ele>11.343671</ele>
<time>2026-07-15T11:47:32.000Z</time>
</trkpt>
<trkpt lat="57.140930" lon="9.082625">
<ele>11.327637</ele>
<time>2026-07-15T11:47:33.000Z</time>
</trkpt>
<trkpt lat="57.140911" lon="9.082727">
<ele>11.311992</ele>
<time>2026-07-15T11:47:34.000Z</time>
</trkpt>
<trkpt lat="57.140896" lon="9.082825">
<ele>11.297221</ele>
<time>2026-07-15T11:47:35.000Z</time>
</trkpt>
<trkpt lat="57.140884" lon="9.082924">
<ele>11.282506</ele>
<time>2026-07-15T11:47:36.000Z</time>
</trkpt>
<trkpt lat="57.140874" lon="9.083011">
<ele>11.269605</ele>
<time>2026-07-15T11:47:37.000Z</time>
</trkpt>
<trkpt lat="57.140869" lon="9.083104">
<ele>11.256048</ele>
<time>2026-07-15T11:47:38.000Z</time>
</trkpt>
<trkpt lat="57.140869" lon="9.083193">
<ele>11.243137</ele>
<time>2026-07-15T11:47:39.000Z</time>
</trkpt>
<trkpt lat="57.140873" lon="9.083284">
<ele>11.229893</ele>
<time>2026-07-15T11:47:40.000Z</time>
</trkpt>
<trkpt lat="57.140877" lon="9.083378">
<ele>11.216215</ele>
<time>2026-07-15T11:47:41.000Z</time>
</trkpt>
<trkpt lat="57.140880" lon="9.083476">
<ele>11.201976</ele>
<time>2026-07-15T11:47:42.000Z</time>
</trkpt>
<trkpt lat="57.140888" lon="9.083583">
<ele>11.186307</ele>
<time>2026-07-15T11:47:43.000Z</time>
</trkpt>
<trkpt lat="57.140896" lon="9.083691">
<ele>11.170494</ele>
<time>2026-07-15T11:47:44.000Z</time>
</trkpt>
<trkpt lat="57.140911" lon="9.083797">
<ele>11.154603</ele>
<time>2026-07-15T11:47:45.000Z</time>
</trkpt>
<trkpt lat="57.140923" lon="9.083912">
<ele>11.137615</ele>
<time>2026-07-15T11:47:46.000Z</time>
</trkpt>
<trkpt lat="57.140930" lon="9.084026">
<ele>11.120972</ele>
<time>2026-07-15T11:47:47.000Z</time>
</trkpt>
<trkpt lat="57.140938" lon="9.084148">
<ele>11.103145</ele>
<time>2026-07-15T11:47:48.000Z</time>
</trkpt>
<trkpt lat="57.140942" lon="9.084272">
<ele>11.085125</ele>
<time>2026-07-15T11:47:49.000Z</time>
</trkpt>
<trkpt lat="57.140945" lon="9.084391">
<ele>11.067844</ele>
<time>2026-07-15T11:47:50.000Z</time>
</trkpt>
<trkpt lat="57.140949" lon="9.084509">
<ele>11.050693</ele>
<time>2026-07-15T11:47:51.000Z</time>
</trkpt>
<trkpt lat="57.140953" lon="9.084641">
<ele>11.031514</ele>
<time>2026-07-15T11:47:52.000Z</time>
</trkpt>
<trkpt lat="57.140953" lon="9.084765">
<ele>11.013526</ele>
<time>2026-07-15T11:47:53.000Z</time>
</trkpt>
<trkpt lat="57.140957" lon="9.084891">
<ele>10.995217</ele>
<time>2026-07-15T11:47:54.000Z</time>
</trkpt>
<trkpt lat="57.140957" lon="9.085009">
<ele>10.978099</ele>
<time>2026-07-15T11:47:55.000Z</time>
</trkpt>
<trkpt lat="57.140953" lon="9.085119">
<ele>10.962106</ele>
<time>2026-07-15T11:47:56.000Z</time>
</trkpt>
<trkpt lat="57.140953" lon="9.085226">
<ele>10.946584</ele>
<time>2026-07-15T11:47:57.000Z</time>
</trkpt>
<trkpt lat="57.140957" lon="9.085333">
<ele>10.933230</ele>
<time>2026-07-15T11:47:58.000Z</time>
</trkpt>
<trkpt lat="57.140965" lon="9.085436">
<ele>10.930275</ele>
<time>2026-07-15T11:47:59.000Z</time>
</trkpt>
<trkpt lat="57.140968" lon="9.085547">
<ele>10.927117</ele>
<time>2026-07-15T11:48:00.000Z</time>
</trkpt>
<trkpt lat="57.140972" lon="9.085658">
<ele>10.923957</ele>
<time>2026-07-15T11:48:01.000Z</time>
</trkpt>
<trkpt lat="57.140980" lon="9.085764">
<ele>10.920917</ele>
<time>2026-07-15T11:48:02.000Z</time>
</trkpt>
<trkpt lat="57.140987" lon="9.085872">
<ele>10.917827</ele>
<time>2026-07-15T11:48:03.000Z</time>
</trkpt>
<trkpt lat="57.140987" lon="9.085986">
<ele>10.914589</ele>
<time>2026-07-15T11:48:04.000Z</time>
</trkpt>
<trkpt lat="57.140991" lon="9.086094">
<ele>10.911514</ele>
<time>2026-07-15T11:48:05.000Z</time>
</trkpt>
<trkpt lat="57.140995" lon="9.086201">
<ele>10.908467</ele>
<time>2026-07-15T11:48:06.000Z</time>
</trkpt>
<trkpt lat="57.140995" lon="9.086309">
<ele>10.905399</ele>
<time>2026-07-15T11:48:07.000Z</time>
</trkpt>
<trkpt lat="57.141003" lon="9.086430">
<ele>10.901937</ele>
<time>2026-07-15T11:48:08.000Z</time>
</trkpt>
<trkpt lat="57.141006" lon="9.086535">
<ele>10.898950</ele>
<time>2026-07-15T11:48:09.000Z</time>
</trkpt>
<trkpt lat="57.141007" lon="9.086648">
<ele>10.895739</ele>
<time>2026-07-15T11:48:10.000Z</time>
</trkpt>
<trkpt lat="57.141014" lon="9.086746">
<ele>10.892931</ele>
<time>2026-07-15T11:48:11.000Z</time>
</trkpt>
<trkpt lat="57.141018" lon="9.086844">
<ele>10.890140</ele>
<time>2026-07-15T11:48:12.000Z</time>
</trkpt>
<trkpt lat="57.141022" lon="9.086935">
<ele>10.887546</ele>
<time>2026-07-15T11:48:13.000Z</time>
</trkpt>
<trkpt lat="57.141022" lon="9.087029">
<ele>10.884876</ele>
<time>2026-07-15T11:48:14.000Z</time>
</trkpt>
<trkpt lat="57.141026" lon="9.087121">
<ele>10.882254</ele>
<time>2026-07-15T11:48:15.000Z</time>
</trkpt>
<trkpt lat="57.141026" lon="9.087214">
<ele>10.879612</ele>
<time>2026-07-15T11:48:16.000Z</time>
</trkpt>
<trkpt lat="57.141029" lon="9.087306">
<ele>10.876994</ele>
<time>2026-07-15T11:48:17.000Z</time>
</trkpt>
<trkpt lat="57.141029" lon="9.087397">
<ele>10.874409</ele>
<time>2026-07-15T11:48:18.000Z</time>
</trkpt>
<trkpt lat="57.141033" lon="9.087496">
<ele>10.871589</ele>
<time>2026-07-15T11:48:19.000Z</time>
</trkpt>
<trkpt lat="57.141044" lon="9.087587">
<ele>10.868941</ele>
<time>2026-07-15T11:48:20.000Z</time>
</trkpt>
<trkpt lat="57.141052" lon="9.087691">
<ele>10.865957</ele>
<time>2026-07-15T11:48:21.000Z</time>
</trkpt>
<trkpt lat="57.141060" lon="9.087797">
<ele>10.862917</ele>
<time>2026-07-15T11:48:22.000Z</time>
</trkpt>
<trkpt lat="57.141063" lon="9.087895">
<ele>10.860128</ele>
<time>2026-07-15T11:48:23.000Z</time>
</trkpt>
<trkpt lat="57.141067" lon="9.088009">
<ele>10.856883</ele>
<time>2026-07-15T11:48:24.000Z</time>
</trkpt>
<trkpt lat="57.141064" lon="9.088118">
<ele>10.853783</ele>
<time>2026-07-15T11:48:25.000Z</time>
</trkpt>
<trkpt lat="57.141060" lon="9.088225">
<ele>10.850736</ele>
<time>2026-07-15T11:48:26.000Z</time>
</trkpt>
<trkpt lat="57.141060" lon="9.088326">
<ele>10.847867</ele>
<time>2026-07-15T11:48:27.000Z</time>
</trkpt>
<trkpt lat="57.141052" lon="9.088423">
<ele>10.845080</ele>
<time>2026-07-15T11:48:28.000Z</time>
</trkpt>
<trkpt lat="57.141041" lon="9.088527">
<ele>10.842070</ele>
<time>2026-07-15T11:48:29.000Z</time>
</trkpt>
<trkpt lat="57.141022" lon="9.088629">
<ele>10.841944</ele>
<time>2026-07-15T11:48:30.000Z</time>
</trkpt>
<trkpt lat="57.141004" lon="9.088713">
<ele>10.852129</ele>
<time>2026-07-15T11:48:31.000Z</time>
</trkpt>
<trkpt lat="57.140980" lon="9.088808">
<ele>10.863946</ele>
<time>2026-07-15T11:48:32.000Z</time>
</trkpt>
<trkpt lat="57.140957" lon="9.088893">
<ele>10.874657</ele>
<time>2026-07-15T11:48:33.000Z</time>
</trkpt>
<trkpt lat="57.140934" lon="9.088973">
<ele>10.884867</ele>
<time>2026-07-15T11:48:34.000Z</time>
</trkpt>
<trkpt lat="57.140911" lon="9.089063">
<ele>10.896086</ele>
<time>2026-07-15T11:48:35.000Z</time>
</trkpt>
<trkpt lat="57.140889" lon="9.089155">
<ele>10.907424</ele>
<time>2026-07-15T11:48:36.000Z</time>
</trkpt>
<trkpt lat="57.140857" lon="9.089257">
<ele>10.920710</ele>
<time>2026-07-15T11:48:37.000Z</time>
</trkpt>
<trkpt lat="57.140831" lon="9.089354">
<ele>10.932911</ele>
<time>2026-07-15T11:48:38.000Z</time>
</trkpt>
<trkpt lat="57.140796" lon="9.089451">
<ele>10.946048</ele>
<time>2026-07-15T11:48:39.000Z</time>
</trkpt>
<trkpt lat="57.140774" lon="9.089546">
<ele>10.957696</ele>
<time>2026-07-15T11:48:40.000Z</time>
</trkpt>
<trkpt lat="57.140751" lon="9.089641">
<ele>10.969427</ele>
<time>2026-07-15T11:48:41.000Z</time>
</trkpt>
<trkpt lat="57.140724" lon="9.089734">
<ele>10.981322</ele>
<time>2026-07-15T11:48:42.000Z</time>
</trkpt>
<trkpt lat="57.140701" lon="9.089829">
<ele>10.993053</ele>
<time>2026-07-15T11:48:43.000Z</time>
</trkpt>
<trkpt lat="57.140678" lon="9.089924">
<ele>11.004784</ele>
<time>2026-07-15T11:48:44.000Z</time>
</trkpt>
<trkpt lat="57.140652" lon="9.090018">
<ele>11.016682</ele>
<time>2026-07-15T11:48:45.000Z</time>
</trkpt>
<trkpt lat="57.140625" lon="9.090112">
<ele>11.028677</ele>
<time>2026-07-15T11:48:46.000Z</time>
</trkpt>
<trkpt lat="57.140599" lon="9.090207">
<ele>11.040675</ele>
<time>2026-07-15T11:48:47.000Z</time>
</trkpt>
<trkpt lat="57.140571" lon="9.090306">
<ele>11.053265</ele>
<time>2026-07-15T11:48:48.000Z</time>
</trkpt>
<trkpt lat="57.140545" lon="9.090402">
<ele>11.065365</ele>
<time>2026-07-15T11:48:49.000Z</time>
</trkpt>
<trkpt lat="57.140518" lon="9.090498">
<ele>11.077559</ele>
<time>2026-07-15T11:48:50.000Z</time>
</trkpt>
<trkpt lat="57.140496" lon="9.090586">
<ele>11.088486</ele>
<time>2026-07-15T11:48:51.000Z</time>
</trkpt>
<trkpt lat="57.140469" lon="9.090680">
<ele>11.100480</ele>
<time>2026-07-15T11:48:52.000Z</time>
</trkpt>
<trkpt lat="57.140446" lon="9.090772">
<ele>11.111903</ele>
<time>2026-07-15T11:48:53.000Z</time>
</trkpt>
<trkpt lat="57.140423" lon="9.090866">
<ele>11.123531</ele>
<time>2026-07-15T11:48:54.000Z</time>
</trkpt>
<trkpt lat="57.140400" lon="9.090952">
<ele>11.134344</ele>
<time>2026-07-15T11:48:55.000Z</time>
</trkpt>
<trkpt lat="57.140379" lon="9.091021">
<ele>11.143266</ele>
<time>2026-07-15T11:48:56.000Z</time>
</trkpt>
<trkpt lat="57.140354" lon="9.091127">
<ele>11.156300</ele>
<time>2026-07-15T11:48:57.000Z</time>
</trkpt>
<trkpt lat="57.140336" lon="9.091207">
<ele>11.166066</ele>
<time>2026-07-15T11:48:58.000Z</time>
</trkpt>
<trkpt lat="57.140316" lon="9.091291">
<ele>11.176411</ele>
<time>2026-07-15T11:48:59.000Z</time>
</trkpt>
<trkpt lat="57.140301" lon="9.091365">
<ele>11.185319</ele>
<time>2026-07-15T11:49:00.000Z</time>
</trkpt>
<trkpt lat="57.140282" lon="9.091440">
<ele>11.194654</ele>
<time>2026-07-15T11:49:01.000Z</time>
</trkpt>
<trkpt lat="57.140263" lon="9.091518">
<ele>11.204296</ele>
<time>2026-07-15T11:49:02.000Z</time>
</trkpt>
<trkpt lat="57.140244" lon="9.091599">
<ele>11.217920</ele>
<time>2026-07-15T11:49:03.000Z</time>
</trkpt>
<trkpt lat="57.140221" lon="9.091687">
<ele>11.278374</ele>
<time>2026-07-15T11:49:04.000Z</time>
</trkpt>
<trkpt lat="57.140201" lon="9.091779">
<ele>11.339715</ele>
<time>2026-07-15T11:49:05.000Z</time>
</trkpt>
<trkpt lat="57.140175" lon="9.091871">
<ele>11.403917</ele>
<time>2026-07-15T11:49:06.000Z</time>
</trkpt>
<trkpt lat="57.140157" lon="9.091954">
<ele>11.459238</ele>
<time>2026-07-15T11:49:07.000Z</time>
</trkpt>
<trkpt lat="57.140129" lon="9.092045">
<ele>11.523986</ele>
<time>2026-07-15T11:49:08.000Z</time>
</trkpt>
<trkpt lat="57.140106" lon="9.092130">
<ele>11.582773</ele>
<time>2026-07-15T11:49:09.000Z</time>
</trkpt>
<trkpt lat="57.140083" lon="9.092214">
<ele>11.641007</ele>
<time>2026-07-15T11:49:10.000Z</time>
</trkpt>
<trkpt lat="57.140061" lon="9.092304">
<ele>11.702102</ele>
<time>2026-07-15T11:49:11.000Z</time>
</trkpt>
<trkpt lat="57.140038" lon="9.092394">
<ele>11.763675</ele>
<time>2026-07-15T11:49:12.000Z</time>
</trkpt>
<trkpt lat="57.140011" lon="9.092490">
<ele>11.830599</ele>
<time>2026-07-15T11:49:13.000Z</time>
</trkpt>
<trkpt lat="57.139988" lon="9.092581">
<ele>11.892732</ele>
<time>2026-07-15T11:49:14.000Z</time>
</trkpt>
<trkpt lat="57.139961" lon="9.092672">
<ele>11.956925</ele>
<time>2026-07-15T11:49:15.000Z</time>
</trkpt>
<trkpt lat="57.139938" lon="9.092759">
<ele>12.016823</ele>
<time>2026-07-15T11:49:16.000Z</time>
</trkpt>
<trkpt lat="57.139916" lon="9.092845">
<ele>12.075669</ele>
<time>2026-07-15T11:49:17.000Z</time>
</trkpt>
<trkpt lat="57.139889" lon="9.092937">
<ele>12.140406</ele>
<time>2026-07-15T11:49:18.000Z</time>
</trkpt>
<trkpt lat="57.139871" lon="9.093011">
<ele>12.190598</ele>
<time>2026-07-15T11:49:19.000Z</time>
</trkpt>
<trkpt lat="57.139847" lon="9.093097">
<ele>12.250453</ele>
<time>2026-07-15T11:49:20.000Z</time>
</trkpt>
<trkpt lat="57.139824" lon="9.093178">
<ele>12.307036</ele>
<time>2026-07-15T11:49:21.000Z</time>
</trkpt>
<trkpt lat="57.139805" lon="9.093251">
<ele>12.357147</ele>
<time>2026-07-15T11:49:22.000Z</time>
</trkpt>
<trkpt lat="57.139790" lon="9.093319">
<ele>12.402579</ele>
<time>2026-07-15T11:49:23.000Z</time>
</trkpt>
<trkpt lat="57.139767" lon="9.093387">
<ele>12.452174</ele>
<time>2026-07-15T11:49:24.000Z</time>
</trkpt>
<trkpt lat="57.139751" lon="9.093457">
<ele>12.499186</ele>
<time>2026-07-15T11:49:25.000Z</time>
</trkpt>
<trkpt lat="57.139733" lon="9.093522">
<ele>12.544353</ele>
<time>2026-07-15T11:49:26.000Z</time>
</trkpt>
<trkpt lat="57.139713" lon="9.093589">
<ele>12.591683</ele>
<time>2026-07-15T11:49:27.000Z</time>
</trkpt>
<trkpt lat="57.139699" lon="9.093653">
<ele>12.634392</ele>
<time>2026-07-15T11:49:28.000Z</time>
</trkpt>
<trkpt lat="57.139679" lon="9.093727">
<ele>12.685560</ele>
<time>2026-07-15T11:49:29.000Z</time>
</trkpt>
<trkpt lat="57.139660" lon="9.093797">
<ele>12.734004</ele>
<time>2026-07-15T11:49:30.000Z</time>
</trkpt>
<trkpt lat="57.139645" lon="9.093865">
<ele>12.779436</ele>
<time>2026-07-15T11:49:31.000Z</time>
</trkpt>
<trkpt lat="57.139627" lon="9.093931">
<ele>12.825155</ele>
<time>2026-07-15T11:49:32.000Z</time>
</trkpt>
<trkpt lat="57.139606" lon="9.094016">
<ele>12.882961</ele>
<time>2026-07-15T11:49:33.000Z</time>
</trkpt>
<trkpt lat="57.139585" lon="9.094096">
<ele>12.937965</ele>
<time>2026-07-15T11:49:34.000Z</time>
</trkpt>
<trkpt lat="57.139561" lon="9.094186">
<ele>13.000033</ele>
<time>2026-07-15T11:49:35.000Z</time>
</trkpt>
<trkpt lat="57.139539" lon="9.094272">
<ele>13.058880</ele>
<time>2026-07-15T11:49:36.000Z</time>
</trkpt>
<trkpt lat="57.139515" lon="9.094363">
<ele>13.121504</ele>
<time>2026-07-15T11:49:37.000Z</time>
</trkpt>
<trkpt lat="57.139492" lon="9.094448">
<ele>13.180292</ele>
<time>2026-07-15T11:49:38.000Z</time>
</trkpt>
<trkpt lat="57.139470" lon="9.094527">
<ele>13.235251</ele>
<time>2026-07-15T11:49:39.000Z</time>
</trkpt>
<trkpt lat="57.139446" lon="9.094607">
<ele>13.250883</ele>
<time>2026-07-15T11:49:40.000Z</time>
</trkpt>
<trkpt lat="57.139427" lon="9.094679">
<ele>13.224476</ele>
<time>2026-07-15T11:49:41.000Z</time>
</trkpt>
<trkpt lat="57.139408" lon="9.094751">
<ele>13.198069</ele>
<time>2026-07-15T11:49:42.000Z</time>
</trkpt>
<trkpt lat="57.139390" lon="9.094813">
<ele>13.174877</ele>
<time>2026-07-15T11:49:43.000Z</time>
</trkpt>
<trkpt lat="57.139374" lon="9.094880">
<ele>13.150733</ele>
<time>2026-07-15T11:49:44.000Z</time>
</trkpt>
<trkpt lat="57.139358" lon="9.094944">
<ele>13.127492</ele>
<time>2026-07-15T11:49:45.000Z</time>
</trkpt>
<trkpt lat="57.139343" lon="9.095006">
<ele>13.105102</ele>
<time>2026-07-15T11:49:46.000Z</time>
</trkpt>
<trkpt lat="57.139333" lon="9.095059">
<ele>13.086595</ele>
<time>2026-07-15T11:49:47.000Z</time>
</trkpt>
<trkpt lat="57.139317" lon="9.095130">
<ele>13.061238</ele>
<time>2026-07-15T11:49:48.000Z</time>
</trkpt>
<trkpt lat="57.139306" lon="9.095183">
<ele>13.042522</ele>
<time>2026-07-15T11:49:49.000Z</time>
</trkpt>
<trkpt lat="57.139294" lon="9.095242">
<ele>13.021741</ele>
<time>2026-07-15T11:49:50.000Z</time>
</trkpt>
<trkpt lat="57.139275" lon="9.095303">
<ele>12.998542</ele>
<time>2026-07-15T11:49:51.000Z</time>
</trkpt>
<trkpt lat="57.139252" lon="9.095368">
<ele>12.972948</ele>
<time>2026-07-15T11:49:52.000Z</time>
</trkpt>
<trkpt lat="57.139234" lon="9.095433">
<ele>12.948879</ele>
<time>2026-07-15T11:49:53.000Z</time>
</trkpt>
<trkpt lat="57.139217" lon="9.095512">
<ele>12.920848</ele>
<time>2026-07-15T11:49:54.000Z</time>
</trkpt>
<trkpt lat="57.139199" lon="9.095592">
<ele>12.892284</ele>
<time>2026-07-15T11:49:55.000Z</time>
</trkpt>
<trkpt lat="57.139183" lon="9.095687">
<ele>12.859476</ele>
<time>2026-07-15T11:49:56.000Z</time>
</trkpt>
<trkpt lat="57.139172" lon="9.095794">
<ele>12.823557</ele>
<time>2026-07-15T11:49:57.000Z</time>
</trkpt>
<trkpt lat="57.139168" lon="9.095910">
<ele>12.785220</ele>
<time>2026-07-15T11:49:58.000Z</time>
</trkpt>
<trkpt lat="57.139164" lon="9.096033">
<ele>12.744579</ele>
<time>2026-07-15T11:49:59.000Z</time>
</trkpt>
<trkpt lat="57.139172" lon="9.096147">
<ele>12.706666</ele>
<time>2026-07-15T11:50:00.000Z</time>
</trkpt>
<trkpt lat="57.139176" lon="9.096259">
<ele>12.669646</ele>
<time>2026-07-15T11:50:01.000Z</time>
</trkpt>
<trkpt lat="57.139187" lon="9.096362">
<ele>12.635022</ele>
<time>2026-07-15T11:50:02.000Z</time>
</trkpt>
<trkpt lat="57.139195" lon="9.096465">
<ele>12.600704</ele>
<time>2026-07-15T11:50:03.000Z</time>
</trkpt>
<trkpt lat="57.139198" lon="9.096566">
<ele>12.567342</ele>
<time>2026-07-15T11:50:04.000Z</time>
</trkpt>
<trkpt lat="57.139209" lon="9.096659">
<ele>12.535948</ele>
<time>2026-07-15T11:50:05.000Z</time>
</trkpt>
<trkpt lat="57.139213" lon="9.096765">
<ele>12.500902</ele>
<time>2026-07-15T11:50:06.000Z</time>
</trkpt>
<trkpt lat="57.139214" lon="9.096866">
<ele>12.467584</ele>
<time>2026-07-15T11:50:07.000Z</time>
</trkpt>
<trkpt lat="57.139214" lon="9.096964">
<ele>12.435261</ele>
<time>2026-07-15T11:50:08.000Z</time>
</trkpt>
<trkpt lat="57.139214" lon="9.097062">
<ele>12.402939</ele>
<time>2026-07-15T11:50:09.000Z</time>
</trkpt>
<trkpt lat="57.139214" lon="9.097154">
<ele>12.372595</ele>
<time>2026-07-15T11:50:10.000Z</time>
</trkpt>
<trkpt lat="57.139217" lon="9.097234">
<ele>12.346146</ele>
<time>2026-07-15T11:50:11.000Z</time>
</trkpt>
<trkpt lat="57.139217" lon="9.097337">
<ele>12.312174</ele>
<time>2026-07-15T11:50:12.000Z</time>
</trkpt>
<trkpt lat="57.139217" lon="9.097429">
<ele>12.281830</ele>
<time>2026-07-15T11:50:13.000Z</time>
</trkpt>
<trkpt lat="57.139217" lon="9.097518">
<ele>12.252476</ele>
<time>2026-07-15T11:50:14.000Z</time>
</trkpt>
<trkpt lat="57.139217" lon="9.097613">
<ele>12.221143</ele>
<time>2026-07-15T11:50:15.000Z</time>
</trkpt>
<trkpt lat="57.139214" lon="9.097703">
<ele>12.191403</ele>
<time>2026-07-15T11:50:16.000Z</time>
</trkpt>
<trkpt lat="57.139210" lon="9.097797">
<ele>12.174412</ele>
<time>2026-07-15T11:50:17.000Z</time>
</trkpt>
<trkpt lat="57.139202" lon="9.097889">
<ele>12.181405</ele>
<time>2026-07-15T11:50:18.000Z</time>
</trkpt>
<trkpt lat="57.139187" lon="9.097980">
<ele>12.188543</ele>
<time>2026-07-15T11:50:19.000Z</time>
</trkpt>
<trkpt lat="57.139171" lon="9.098071">
<ele>12.195722</ele>
<time>2026-07-15T11:50:20.000Z</time>
</trkpt>
<trkpt lat="57.139153" lon="9.098153">
<ele>12.202361</ele>
<time>2026-07-15T11:50:21.000Z</time>
</trkpt>
<trkpt lat="57.139133" lon="9.098234">
<ele>12.209040</ele>
<time>2026-07-15T11:50:22.000Z</time>
</trkpt>
<trkpt lat="57.139107" lon="9.098307">
<ele>12.215593</ele>
<time>2026-07-15T11:50:23.000Z</time>
</trkpt>
<trkpt lat="57.139084" lon="9.098382">
<ele>12.222059</ele>
<time>2026-07-15T11:50:24.000Z</time>
</trkpt>
<trkpt lat="57.139057" lon="9.098459">
<ele>12.228940</ele>
<time>2026-07-15T11:50:25.000Z</time>
</trkpt>
<trkpt lat="57.139032" lon="9.098531">
<ele>12.235355</ele>
<time>2026-07-15T11:50:26.000Z</time>
</trkpt>
<trkpt lat="57.139004" lon="9.098621">
<ele>12.243141</ele>
<time>2026-07-15T11:50:27.000Z</time>
</trkpt>
<trkpt lat="57.138977" lon="9.098700">
<ele>12.250148</ele>
<time>2026-07-15T11:50:28.000Z</time>
</trkpt>
<trkpt lat="57.138954" lon="9.098780">
<ele>12.256943</ele>
<time>2026-07-15T11:50:29.000Z</time>
</trkpt>
<trkpt lat="57.138928" lon="9.098855">
<ele>12.263623</ele>
<time>2026-07-15T11:50:30.000Z</time>
</trkpt>
<trkpt lat="57.138905" lon="9.098932">
<ele>12.270219</ele>
<time>2026-07-15T11:50:31.000Z</time>
</trkpt>
<trkpt lat="57.138885" lon="9.098997">
<ele>12.275828</ele>
<time>2026-07-15T11:50:32.000Z</time>
</trkpt>
<trkpt lat="57.138870" lon="9.099056">
<ele>12.280718</ele>
<time>2026-07-15T11:50:33.000Z</time>
</trkpt>
<trkpt lat="57.138851" lon="9.099117">
<ele>12.285996</ele>
<time>2026-07-15T11:50:34.000Z</time>
</trkpt>
<trkpt lat="57.138836" lon="9.099181">
<ele>12.291229</ele>
<time>2026-07-15T11:50:35.000Z</time>
</trkpt>
<trkpt lat="57.138822" lon="9.099230">
<ele>12.295385</ele>
<time>2026-07-15T11:50:36.000Z</time>
</trkpt>
<trkpt lat="57.138798" lon="9.099301">
<ele>12.301663</ele>
<time>2026-07-15T11:50:37.000Z</time>
</trkpt>
<trkpt lat="57.138777" lon="9.099360">
<ele>12.306959</ele>
<time>2026-07-15T11:50:38.000Z</time>
</trkpt>
<trkpt lat="57.138748" lon="9.099443">
<ele>12.314368</ele>
<time>2026-07-15T11:50:39.000Z</time>
</trkpt>
<trkpt lat="57.138730" lon="9.099510">
<ele>12.319979</ele>
<time>2026-07-15T11:50:40.000Z</time>
</trkpt>
<trkpt lat="57.138706" lon="9.099582">
<ele>12.326321</ele>
<time>2026-07-15T11:50:41.000Z</time>
</trkpt>
<trkpt lat="57.138691" lon="9.099637">
<ele>12.330941</ele>
<time>2026-07-15T11:50:42.000Z</time>
</trkpt>
<trkpt lat="57.138672" lon="9.099697">
<ele>12.336154</ele>
<time>2026-07-15T11:50:43.000Z</time>
</trkpt>
<trkpt lat="57.138649" lon="9.099760">
<ele>12.341853</ele>
<time>2026-07-15T11:50:44.000Z</time>
</trkpt>
<trkpt lat="57.138630" lon="9.099826">
<ele>12.347461</ele>
<time>2026-07-15T11:50:45.000Z</time>
</trkpt>
<trkpt lat="57.138593" lon="9.099911">
<ele>12.355639</ele>
<time>2026-07-15T11:50:46.000Z</time>
</trkpt>
<trkpt lat="57.138566" lon="9.099992">
<ele>12.362774</ele>
<time>2026-07-15T11:50:47.000Z</time>
</trkpt>
<trkpt lat="57.138523" lon="9.100084">
<ele>12.371887</ele>
<time>2026-07-15T11:50:48.000Z</time>
</trkpt>
<trkpt lat="57.138487" lon="9.100179">
<ele>12.380584</ele>
<time>2026-07-15T11:50:49.000Z</time>
</trkpt>
<trkpt lat="57.138451" lon="9.100271">
<ele>12.389097</ele>
<time>2026-07-15T11:50:50.000Z</time>
</trkpt>
<trkpt lat="57.138425" lon="9.100352">
<ele>12.396160</ele>
<time>2026-07-15T11:50:51.000Z</time>
</trkpt>
<trkpt lat="57.138390" lon="9.100448">
<ele>12.404840</ele>
<time>2026-07-15T11:50:52.000Z</time>
</trkpt>
<trkpt lat="57.138357" lon="9.100538">
<ele>12.412993</ele>
<time>2026-07-15T11:50:53.000Z</time>
</trkpt>
<trkpt lat="57.138321" lon="9.100645">
<ele>12.420865</ele>
<time>2026-07-15T11:50:54.000Z</time>
</trkpt>
<trkpt lat="57.138291" lon="9.100744">
<ele>12.422169</ele>
<time>2026-07-15T11:50:55.000Z</time>
</trkpt>
<trkpt lat="57.138268" lon="9.100830">
<ele>12.423272</ele>
<time>2026-07-15T11:50:56.000Z</time>
</trkpt>
<trkpt lat="57.138248" lon="9.100922">
<ele>12.424411</ele>
<time>2026-07-15T11:50:57.000Z</time>
</trkpt>
<trkpt lat="57.138226" lon="9.101017">
<ele>12.425599</ele>
<time>2026-07-15T11:50:58.000Z</time>
</trkpt>
<trkpt lat="57.138203" lon="9.101124">
<ele>12.426922</ele>
<time>2026-07-15T11:50:59.000Z</time>
</trkpt>
<trkpt lat="57.138176" lon="9.101232">
<ele>12.428290</ele>
<time>2026-07-15T11:51:00.000Z</time>
</trkpt>
<trkpt lat="57.138154" lon="9.101319">
<ele>12.429393</ele>
<time>2026-07-15T11:51:01.000Z</time>
</trkpt>
<trkpt lat="57.138130" lon="9.101442">
<ele>12.430896</ele>
<time>2026-07-15T11:51:02.000Z</time>
</trkpt>
<trkpt lat="57.138115" lon="9.101539">
<ele>12.432056</ele>
<time>2026-07-15T11:51:03.000Z</time>
</trkpt>
<trkpt lat="57.138115" lon="9.101638">
<ele>12.433194</ele>
<time>2026-07-15T11:51:04.000Z</time>
</trkpt>
<trkpt lat="57.138123" lon="9.101740">
<ele>12.434379</ele>
<time>2026-07-15T11:51:05.000Z</time>
</trkpt>
<trkpt lat="57.138133" lon="9.101828">
<ele>12.435413</ele>
<time>2026-07-15T11:51:06.000Z</time>
</trkpt>
<trkpt lat="57.138153" lon="9.101911">
<ele>12.436457</ele>
<time>2026-07-15T11:51:07.000Z</time>
</trkpt>
<trkpt lat="57.138172" lon="9.101973">
<ele>12.437276</ele>
<time>2026-07-15T11:51:08.000Z</time>
</trkpt>
<trkpt lat="57.138194" lon="9.102033">
<ele>12.438109</ele>
<time>2026-07-15T11:51:09.000Z</time>
</trkpt>
<trkpt lat="57.138218" lon="9.102113">
<ele>12.439160</ele>
<time>2026-07-15T11:51:10.000Z</time>
</trkpt>
<trkpt lat="57.138233" lon="9.102195">
<ele>12.440155</ele>
<time>2026-07-15T11:51:11.000Z</time>
</trkpt>
<trkpt lat="57.138248" lon="9.102286">
<ele>12.441249</ele>
<time>2026-07-15T11:51:12.000Z</time>
</trkpt>
<trkpt lat="57.138256" lon="9.102381">
<ele>12.442354</ele>
<time>2026-07-15T11:51:13.000Z</time>
</trkpt>
<trkpt lat="57.138256" lon="9.102479">
<ele>12.443481</ele>
<time>2026-07-15T11:51:14.000Z</time>
</trkpt>
<trkpt lat="57.138256" lon="9.102574">
<ele>12.444573</ele>
<time>2026-07-15T11:51:15.000Z</time>
</trkpt>
<trkpt lat="57.138260" lon="9.102657">
<ele>12.445531</ele>
<time>2026-07-15T11:51:16.000Z</time>
</trkpt>
<trkpt lat="57.138263" lon="9.102731">
<ele>12.446385</ele>
<time>2026-07-15T11:51:17.000Z</time>
</trkpt>
<trkpt lat="57.138275" lon="9.102815">
<ele>12.447383</ele>
<time>2026-07-15T11:51:18.000Z</time>
</trkpt>
<trkpt lat="57.138279" lon="9.102895">
<ele>12.448307</ele>
<time>2026-07-15T11:51:19.000Z</time>
</trkpt>
<trkpt lat="57.138290" lon="9.102982">
<ele>12.449334</ele>
<time>2026-07-15T11:51:20.000Z</time>
</trkpt>
<trkpt lat="57.138290" lon="9.103072">
<ele>12.450369</ele>
<time>2026-07-15T11:51:21.000Z</time>
</trkpt>
<trkpt lat="57.138287" lon="9.103171">
<ele>12.451509</ele>
<time>2026-07-15T11:51:22.000Z</time>
</trkpt>
<trkpt lat="57.138294" lon="9.103251">
<ele>12.452441</ele>
<time>2026-07-15T11:51:23.000Z</time>
</trkpt>
<trkpt lat="57.138298" lon="9.103349">
<ele>12.453571</ele>
<time>2026-07-15T11:51:24.000Z</time>
</trkpt>
<trkpt lat="57.138302" lon="9.103437">
<ele>12.454586</ele>
<time>2026-07-15T11:51:25.000Z</time>
</trkpt>
<trkpt lat="57.138309" lon="9.103535">
<ele>12.455723</ele>
<time>2026-07-15T11:51:26.000Z</time>
</trkpt>
<trkpt lat="57.138309" lon="9.103615">
<ele>12.456643</ele>
<time>2026-07-15T11:51:27.000Z</time>
</trkpt>
<trkpt lat="57.138309" lon="9.103717">
<ele>12.457816</ele>
<time>2026-07-15T11:51:28.000Z</time>
</trkpt>
<trkpt lat="57.138313" lon="9.103805">
<ele>12.460716</ele>
<time>2026-07-15T11:51:29.000Z</time>
</trkpt>
<trkpt lat="57.138317" lon="9.103892">
<ele>12.475614</ele>
<time>2026-07-15T11:51:30.000Z</time>
</trkpt>
<trkpt lat="57.138329" lon="9.103978">
<ele>12.490765</ele>
<time>2026-07-15T11:51:31.000Z</time>
</trkpt>
<trkpt lat="57.138332" lon="9.104059">
<ele>12.504617</ele>
<time>2026-07-15T11:51:32.000Z</time>
</trkpt>
<trkpt lat="57.138340" lon="9.104145">
<ele>12.519505</ele>
<time>2026-07-15T11:51:33.000Z</time>
</trkpt>
<trkpt lat="57.138351" lon="9.104226">
<ele>12.533752</ele>
<time>2026-07-15T11:51:34.000Z</time>
</trkpt>
<trkpt lat="57.138363" lon="9.104311">
<ele>12.548737</ele>
<time>2026-07-15T11:51:35.000Z</time>
</trkpt>
<trkpt lat="57.138374" lon="9.104392">
<ele>12.562984</ele>
<time>2026-07-15T11:51:36.000Z</time>
</trkpt>
<trkpt lat="57.138367" lon="9.104480">
<ele>12.578159</ele>
<time>2026-07-15T11:51:37.000Z</time>
</trkpt>
<trkpt lat="57.138371" lon="9.104567">
<ele>12.593057</ele>
<time>2026-07-15T11:51:38.000Z</time>
</trkpt>
<trkpt lat="57.138378" lon="9.104653">
<ele>12.607895</ele>
<time>2026-07-15T11:51:39.000Z</time>
</trkpt>
<trkpt lat="57.138386" lon="9.104742">
<ele>12.623287</ele>
<time>2026-07-15T11:51:40.000Z</time>
</trkpt>
<trkpt lat="57.138386" lon="9.104849">
<ele>12.641544</ele>
<time>2026-07-15T11:51:41.000Z</time>
</trkpt>
<trkpt lat="57.138386" lon="9.104963">
<ele>12.660995</ele>
<time>2026-07-15T11:51:42.000Z</time>
</trkpt>
<trkpt lat="57.138386" lon="9.105078">
<ele>12.680616</ele>
<time>2026-07-15T11:51:43.000Z</time>
</trkpt>
<trkpt lat="57.138378" lon="9.105201">
<ele>12.701753</ele>
<time>2026-07-15T11:51:44.000Z</time>
</trkpt>
<trkpt lat="57.138367" lon="9.105332">
<ele>12.724371</ele>
<time>2026-07-15T11:51:45.000Z</time>
</trkpt>
<trkpt lat="57.138345" lon="9.105460">
<ele>12.747280</ele>
<time>2026-07-15T11:51:46.000Z</time>
</trkpt>
<trkpt lat="57.138325" lon="9.105586">
<ele>12.769679</ele>
<time>2026-07-15T11:51:47.000Z</time>
</trkpt>
<trkpt lat="57.138314" lon="9.105680">
<ele>12.786087</ele>
<time>2026-07-15T11:51:48.000Z</time>
</trkpt>
<trkpt lat="57.138298" lon="9.105786">
<ele>12.804860</ele>
<time>2026-07-15T11:51:49.000Z</time>
</trkpt>
<trkpt lat="57.138279" lon="9.105884">
<ele>12.822616</ele>
<time>2026-07-15T11:51:50.000Z</time>
</trkpt>
<trkpt lat="57.138256" lon="9.105992">
<ele>12.842412</ele>
<time>2026-07-15T11:51:51.000Z</time>
</trkpt>
<trkpt lat="57.138237" lon="9.106094">
<ele>12.860812</ele>
<time>2026-07-15T11:51:52.000Z</time>
</trkpt>
<trkpt lat="57.138224" lon="9.106176">
<ele>12.875388</ele>
<time>2026-07-15T11:51:53.000Z</time>
</trkpt>
<trkpt lat="57.138207" lon="9.106280">
<ele>12.893921</ele>
<time>2026-07-15T11:51:54.000Z</time>
</trkpt>
<trkpt lat="57.138195" lon="9.106370">
<ele>12.909734</ele>
<time>2026-07-15T11:51:55.000Z</time>
</trkpt>
<trkpt lat="57.138172" lon="9.106465">
<ele>12.927483</ele>
<time>2026-07-15T11:51:56.000Z</time>
</trkpt>
<trkpt lat="57.138146" lon="9.106566">
<ele>12.946557</ele>
<time>2026-07-15T11:51:57.000Z</time>
</trkpt>
<trkpt lat="57.138125" lon="9.106662">
<ele>12.964218</ele>
<time>2026-07-15T11:51:58.000Z</time>
</trkpt>
<trkpt lat="57.138111" lon="9.106770">
<ele>12.983164</ele>
<time>2026-07-15T11:51:59.000Z</time>
</trkpt>
<trkpt lat="57.138096" lon="9.106866">
<ele>13.000210</ele>
<time>2026-07-15T11:52:00.000Z</time>
</trkpt>
<trkpt lat="57.138088" lon="9.106968">
<ele>13.017794</ele>
<time>2026-07-15T11:52:01.000Z</time>
</trkpt>
<trkpt lat="57.138077" lon="9.107071">
<ele>13.028405</ele>
<time>2026-07-15T11:52:02.000Z</time>
</trkpt>
<trkpt lat="57.138058" lon="9.107181">
<ele>13.035521</ele>
<time>2026-07-15T11:52:03.000Z</time>
</trkpt>
<trkpt lat="57.138042" lon="9.107291">
<ele>13.042543</ele>
<time>2026-07-15T11:52:04.000Z</time>
</trkpt>
<trkpt lat="57.138031" lon="9.107385">
<ele>13.048471</ele>
<time>2026-07-15T11:52:05.000Z</time>
</trkpt>
<trkpt lat="57.138027" lon="9.107477">
<ele>13.054161</ele>
<time>2026-07-15T11:52:06.000Z</time>
</trkpt>
<trkpt lat="57.138023" lon="9.107584">
<ele>13.060773</ele>
<time>2026-07-15T11:52:07.000Z</time>
</trkpt>
<trkpt lat="57.138023" lon="9.107682">
<ele>13.066815</ele>
<time>2026-07-15T11:52:08.000Z</time>
</trkpt>
<trkpt lat="57.138023" lon="9.107781">
<ele>13.072919</ele>
<time>2026-07-15T11:52:09.000Z</time>
</trkpt>
<trkpt lat="57.138008" lon="9.107883">
<ele>13.079434</ele>
<time>2026-07-15T11:52:10.000Z</time>
</trkpt>
<trkpt lat="57.137989" lon="9.107971">
<ele>13.085273</ele>
<time>2026-07-15T11:52:11.000Z</time>
</trkpt>
<trkpt lat="57.137981" lon="9.108053">
<ele>13.090410</ele>
<time>2026-07-15T11:52:12.000Z</time>
</trkpt>
<trkpt lat="57.137978" lon="9.108124">
<ele>13.094800</ele>
<time>2026-07-15T11:52:13.000Z</time>
</trkpt>
<trkpt lat="57.137970" lon="9.108190">
<ele>13.098969</ele>
<time>2026-07-15T11:52:14.000Z</time>
</trkpt>
<trkpt lat="57.137970" lon="9.108252">
<ele>13.102792</ele>
<time>2026-07-15T11:52:15.000Z</time>
</trkpt>
<trkpt lat="57.137951" lon="9.108330">
<ele>13.108063</ele>
<time>2026-07-15T11:52:16.000Z</time>
</trkpt>
<trkpt lat="57.137938" lon="9.108397">
<ele>13.112450</ele>
<time>2026-07-15T11:52:17.000Z</time>
</trkpt>
<trkpt lat="57.137922" lon="9.108465">
<ele>13.117019</ele>
<time>2026-07-15T11:52:18.000Z</time>
</trkpt>
<trkpt lat="57.137898" lon="9.108560">
<ele>13.123480</ele>
<time>2026-07-15T11:52:19.000Z</time>
</trkpt>
<trkpt lat="57.137878" lon="9.108634">
<ele>13.128576</ele>
<time>2026-07-15T11:52:20.000Z</time>
</trkpt>
<trkpt lat="57.137855" lon="9.108701">
<ele>13.133464</ele>
<time>2026-07-15T11:52:21.000Z</time>
</trkpt>
<trkpt lat="57.137822" lon="9.108780">
<ele>13.139611</ele>
<time>2026-07-15T11:52:22.000Z</time>
</trkpt>
<trkpt lat="57.137784" lon="9.108860">
<ele>13.146166</ele>
<time>2026-07-15T11:52:23.000Z</time>
</trkpt>
<trkpt lat="57.137745" lon="9.108946">
<ele>13.153076</ele>
<time>2026-07-15T11:52:24.000Z</time>
</trkpt>
<trkpt lat="57.137703" lon="9.109035">
<ele>13.160347</ele>
<time>2026-07-15T11:52:25.000Z</time>
</trkpt>
<trkpt lat="57.137657" lon="9.109126">
<ele>13.168015</ele>
<time>2026-07-15T11:52:26.000Z</time>
</trkpt>
<trkpt lat="57.137619" lon="9.109214">
<ele>13.174949</ele>
<time>2026-07-15T11:52:27.000Z</time>
</trkpt>
<trkpt lat="57.137585" lon="9.109297">
<ele>13.181360</ele>
<time>2026-07-15T11:52:28.000Z</time>
</trkpt>
<trkpt lat="57.137550" lon="9.109385">
<ele>13.188087</ele>
<time>2026-07-15T11:52:29.000Z</time>
</trkpt>
<trkpt lat="57.137508" lon="9.109465">
<ele>13.194950</ele>
<time>2026-07-15T11:52:30.000Z</time>
</trkpt>
<trkpt lat="57.137458" lon="9.109531">
<ele>13.201938</ele>
<time>2026-07-15T11:52:31.000Z</time>
</trkpt>
<trkpt lat="57.137406" lon="9.109573">
<ele>13.208388</ele>
<time>2026-07-15T11:52:32.000Z</time>
</trkpt>
<trkpt lat="57.137352" lon="9.109593">
<ele>13.214646</ele>
<time>2026-07-15T11:52:33.000Z</time>
</trkpt>
<trkpt lat="57.137298" lon="9.109598">
<ele>13.220789</ele>
<time>2026-07-15T11:52:34.000Z</time>
</trkpt>
<trkpt lat="57.137249" lon="9.109585">
<ele>13.226414</ele>
<time>2026-07-15T11:52:35.000Z</time>
</trkpt>
<trkpt lat="57.137204" lon="9.109560">
<ele>13.241300</ele>
<time>2026-07-15T11:52:36.000Z</time>
</trkpt>
<trkpt lat="57.137157" lon="9.109530">
<ele>13.264234</ele>
<time>2026-07-15T11:52:37.000Z</time>
</trkpt>
<trkpt lat="57.137111" lon="9.109505">
<ele>13.286347</ele>
<time>2026-07-15T11:52:38.000Z</time>
</trkpt>
<trkpt lat="57.137069" lon="9.109482">
<ele>13.306550</ele>
<time>2026-07-15T11:52:39.000Z</time>
</trkpt>
<trkpt lat="57.137020" lon="9.109457">
<ele>13.329993</ele>
<time>2026-07-15T11:52:40.000Z</time>
</trkpt>
<trkpt lat="57.136975" lon="9.109429">
<ele>13.351892</ele>
<time>2026-07-15T11:52:41.000Z</time>
</trkpt>
<trkpt lat="57.136932" lon="9.109402">
<ele>13.372838</ele>
<time>2026-07-15T11:52:42.000Z</time>
</trkpt>
<trkpt lat="57.136899" lon="9.109380">
<ele>13.389019</ele>
<time>2026-07-15T11:52:43.000Z</time>
</trkpt>
<trkpt lat="57.136860" lon="9.109355">
<ele>13.408058</ele>
<time>2026-07-15T11:52:44.000Z</time>
</trkpt>
<trkpt lat="57.136826" lon="9.109343">
<ele>13.424020</ele>
<time>2026-07-15T11:52:45.000Z</time>
</trkpt>
<trkpt lat="57.136780" lon="9.109325">
<ele>13.445703</ele>
<time>2026-07-15T11:52:46.000Z</time>
</trkpt>
<trkpt lat="57.136735" lon="9.109313">
<ele>13.466668</ele>
<time>2026-07-15T11:52:47.000Z</time>
</trkpt>
<trkpt lat="57.136693" lon="9.109302">
<ele>13.486228</ele>
<time>2026-07-15T11:52:48.000Z</time>
</trkpt>
<trkpt lat="57.136654" lon="9.109290">
<ele>13.504459</ele>
<time>2026-07-15T11:52:49.000Z</time>
</trkpt>
<trkpt lat="57.136615" lon="9.109286">
<ele>13.522469</ele>
<time>2026-07-15T11:52:50.000Z</time>
</trkpt>
<trkpt lat="57.136582" lon="9.109286">
<ele>13.537685</ele>
<time>2026-07-15T11:52:51.000Z</time>
</trkpt>
<trkpt lat="57.136539" lon="9.109275">
<ele>13.557702</ele>
<time>2026-07-15T11:52:52.000Z</time>
</trkpt>
<trkpt lat="57.136499" lon="9.109278">
<ele>13.576161</ele>
<time>2026-07-15T11:52:53.000Z</time>
</trkpt>
<trkpt lat="57.136452" lon="9.109282">
<ele>13.597855</ele>
<time>2026-07-15T11:52:54.000Z</time>
</trkpt>
<trkpt lat="57.136410" lon="9.109285">
<ele>13.617235</ele>
<time>2026-07-15T11:52:55.000Z</time>
</trkpt>
<trkpt lat="57.136368" lon="9.109282">
<ele>13.636615</ele>
<time>2026-07-15T11:52:56.000Z</time>
</trkpt>
<trkpt lat="57.136320" lon="9.109273">
<ele>13.658862</ele>
<time>2026-07-15T11:52:57.000Z</time>
</trkpt>
<trkpt lat="57.136276" lon="9.109277">
<ele>13.679174</ele>
<time>2026-07-15T11:52:58.000Z</time>
</trkpt>
<trkpt lat="57.136235" lon="9.109281">
<ele>13.698105</ele>
<time>2026-07-15T11:52:59.000Z</time>
</trkpt>
<trkpt lat="57.136198" lon="9.109286">
<ele>13.715211</ele>
<time>2026-07-15T11:53:00.000Z</time>
</trkpt>
<trkpt lat="57.136146" lon="9.109288">
<ele>13.739193</ele>
<time>2026-07-15T11:53:01.000Z</time>
</trkpt>
<trkpt lat="57.136102" lon="9.109295">
<ele>13.759556</ele>
<time>2026-07-15T11:53:02.000Z</time>
</trkpt>
<trkpt lat="57.136055" lon="9.109308">
<ele>13.781470</ele>
<time>2026-07-15T11:53:03.000Z</time>
</trkpt>
<trkpt lat="57.136017" lon="9.109323">
<ele>13.799388</ele>
<time>2026-07-15T11:53:04.000Z</time>
</trkpt>
<trkpt lat="57.135975" lon="9.109328">
<ele>13.818794</ele>
<time>2026-07-15T11:53:05.000Z</time>
</trkpt>
<trkpt lat="57.135934" lon="9.109341">
<ele>13.837977</ele>
<time>2026-07-15T11:53:06.000Z</time>
</trkpt>
<trkpt lat="57.135894" lon="9.109364">
<ele>13.857297</ele>
<time>2026-07-15T11:53:07.000Z</time>
</trkpt>
<trkpt lat="57.135856" lon="9.109376">
<ele>13.875074</ele>
<time>2026-07-15T11:53:08.000Z</time>
</trkpt>
<trkpt lat="57.135811" lon="9.109390">
<ele>13.896116</ele>
<time>2026-07-15T11:53:09.000Z</time>
</trkpt>
<trkpt lat="57.135772" lon="9.109397">
<ele>13.914184</ele>
<time>2026-07-15T11:53:10.000Z</time>
</trkpt>
<trkpt lat="57.135708" lon="9.109405">
<ele>13.943761</ele>
<time>2026-07-15T11:53:11.000Z</time>
</trkpt>
<trkpt lat="57.135654" lon="9.109416">
<ele>13.968811</ele>
<time>2026-07-15T11:53:12.000Z</time>
</trkpt>
<trkpt lat="57.135596" lon="9.109436">
<ele>13.996018</ele>
<time>2026-07-15T11:53:13.000Z</time>
</trkpt>
<trkpt lat="57.135544" lon="9.109450">
<ele>14.020249</ele>
<time>2026-07-15T11:53:14.000Z</time>
</trkpt>
<trkpt lat="57.135498" lon="9.109462">
<ele>14.041671</ele>
<time>2026-07-15T11:53:15.000Z</time>
</trkpt>
<trkpt lat="57.135444" lon="9.109480">
<ele>14.062054</ele>
<time>2026-07-15T11:53:16.000Z</time>
</trkpt>
<trkpt lat="57.135396" lon="9.109495">
<ele>14.072249</ele>
<time>2026-07-15T11:53:17.000Z</time>
</trkpt>
<trkpt lat="57.135341" lon="9.109513">
<ele>14.083946</ele>
<time>2026-07-15T11:53:18.000Z</time>
</trkpt>
<trkpt lat="57.135288" lon="9.109527">
<ele>14.095157</ele>
<time>2026-07-15T11:53:19.000Z</time>
</trkpt>
<trkpt lat="57.135231" lon="9.109542">
<ele>14.107214</ele>
<time>2026-07-15T11:53:20.000Z</time>
</trkpt>
<trkpt lat="57.135180" lon="9.109556">
<ele>14.118011</ele>
<time>2026-07-15T11:53:21.000Z</time>
</trkpt>
<trkpt lat="57.135128" lon="9.109575">
<ele>14.129111</ele>
<time>2026-07-15T11:53:22.000Z</time>
</trkpt>
<trkpt lat="57.135078" lon="9.109589">
<ele>14.139701</ele>
<time>2026-07-15T11:53:23.000Z</time>
</trkpt>
<trkpt lat="57.135032" lon="9.109600">
<ele>14.149414</ele>
<time>2026-07-15T11:53:24.000Z</time>
</trkpt>
<trkpt lat="57.134984" lon="9.109615">
<ele>14.159609</ele>
<time>2026-07-15T11:53:25.000Z</time>
</trkpt>
<trkpt lat="57.134933" lon="9.109636">
<ele>14.170551</ele>
<time>2026-07-15T11:53:26.000Z</time>
</trkpt>
<trkpt lat="57.134883" lon="9.109654">
<ele>14.181219</ele>
<time>2026-07-15T11:53:27.000Z</time>
</trkpt>
<trkpt lat="57.134838" lon="9.109676">
<ele>14.190968</ele>
<time>2026-07-15T11:53:28.000Z</time>
</trkpt>
<trkpt lat="57.134796" lon="9.109698">
<ele>14.200111</ele>
<time>2026-07-15T11:53:29.000Z</time>
</trkpt>
<trkpt lat="57.134742" lon="9.109712">
<ele>14.211530</ele>
<time>2026-07-15T11:53:30.000Z</time>
</trkpt>
<trkpt lat="57.134693" lon="9.109741">
<ele>14.222306</ele>
<time>2026-07-15T11:53:31.000Z</time>
</trkpt>
<trkpt lat="57.134640" lon="9.109774">
<ele>14.234020</ele>
<time>2026-07-15T11:53:32.000Z</time>
</trkpt>
<trkpt lat="57.134579" lon="9.109803">
<ele>14.247212</ele>
<time>2026-07-15T11:53:33.000Z</time>
</trkpt>
<trkpt lat="57.134514" lon="9.109837">
<ele>14.261360</ele>
<time>2026-07-15T11:53:34.000Z</time>
</trkpt>
<trkpt lat="57.134452" lon="9.109868">
<ele>14.274812</ele>
<time>2026-07-15T11:53:35.000Z</time>
</trkpt>
<trkpt lat="57.134392" lon="9.109897">
<ele>14.287801</ele>
<time>2026-07-15T11:53:36.000Z</time>
</trkpt>
<trkpt lat="57.134338" lon="9.109922">
<ele>14.299460</ele>
<time>2026-07-15T11:53:37.000Z</time>
</trkpt>
<trkpt lat="57.134285" lon="9.109945">
<ele>14.310861</ele>
<time>2026-07-15T11:53:38.000Z</time>
</trkpt>
<trkpt lat="57.134232" lon="9.109973">
<ele>14.322406</ele>
<time>2026-07-15T11:53:39.000Z</time>
</trkpt>
<trkpt lat="57.134191" lon="9.109997">
<ele>14.331414</ele>
<time>2026-07-15T11:53:40.000Z</time>
</trkpt>
<trkpt lat="57.134124" lon="9.110032">
<ele>14.345997</ele>
<time>2026-07-15T11:53:41.000Z</time>
</trkpt>
<trkpt lat="57.134075" lon="9.110057">
<ele>14.356643</ele>
<time>2026-07-15T11:53:42.000Z</time>
</trkpt>
<trkpt lat="57.134021" lon="9.110087">
<ele>14.368453</ele>
<time>2026-07-15T11:53:43.000Z</time>
</trkpt>
<trkpt lat="57.133972" lon="9.110127">
<ele>14.379675</ele>
<time>2026-07-15T11:53:44.000Z</time>
</trkpt>
<trkpt lat="57.133924" lon="9.110167">
<ele>14.390706</ele>
<time>2026-07-15T11:53:45.000Z</time>
</trkpt>
<trkpt lat="57.133877" lon="9.110209">
<ele>14.401644</ele>
<time>2026-07-15T11:53:46.000Z</time>
</trkpt>
<trkpt lat="57.133838" lon="9.110254">
<ele>14.411279</ele>
<time>2026-07-15T11:53:47.000Z</time>
</trkpt>
<trkpt lat="57.133800" lon="9.110299">
<ele>14.420738</ele>
<time>2026-07-15T11:53:48.000Z</time>
</trkpt>
<trkpt lat="57.133758" lon="9.110350">
<ele>14.431270</ele>
<time>2026-07-15T11:53:49.000Z</time>
</trkpt>
<trkpt lat="57.133722" lon="9.110403">
<ele>14.446183</ele>
<time>2026-07-15T11:53:50.000Z</time>
</trkpt>
<trkpt lat="57.133683" lon="9.110462">
<ele>14.465536</ele>
<time>2026-07-15T11:53:51.000Z</time>
</trkpt>
<trkpt lat="57.133647" lon="9.110524">
<ele>14.484435</ele>
<time>2026-07-15T11:53:52.000Z</time>
</trkpt>
<trkpt lat="57.133606" lon="9.110590">
<ele>14.505315</ele>
<time>2026-07-15T11:53:53.000Z</time>
</trkpt>
<trkpt lat="57.133575" lon="9.110653">
<ele>14.523016</ele>
<time>2026-07-15T11:53:54.000Z</time>
</trkpt>
<trkpt lat="57.133549" lon="9.110709">
<ele>14.538355</ele>
<time>2026-07-15T11:53:55.000Z</time>
</trkpt>
<trkpt lat="57.133526" lon="9.110779">
<ele>14.555388</ele>
<time>2026-07-15T11:53:56.000Z</time>
</trkpt>
<trkpt lat="57.133507" lon="9.110844">
<ele>14.570754</ele>
<time>2026-07-15T11:53:57.000Z</time>
</trkpt>
<trkpt lat="57.133491" lon="9.110914">
<ele>14.586564</ele>
<time>2026-07-15T11:53:58.000Z</time>
</trkpt>
<trkpt lat="57.133477" lon="9.110972">
<ele>14.599776</ele>
<time>2026-07-15T11:53:59.000Z</time>
</trkpt>
<trkpt lat="57.133454" lon="9.111039">
<ele>14.616278</ele>
<time>2026-07-15T11:54:00.000Z</time>
</trkpt>
<trkpt lat="57.133439" lon="9.111091">
<ele>14.628535</ele>
<time>2026-07-15T11:54:01.000Z</time>
</trkpt>
<trkpt lat="57.133419" lon="9.111165">
<ele>14.645742</ele>
<time>2026-07-15T11:54:02.000Z</time>
</trkpt>
<trkpt lat="57.133408" lon="9.111225">
<ele>14.658924</ele>
<time>2026-07-15T11:54:03.000Z</time>
</trkpt>
<trkpt lat="57.133400" lon="9.111281">
<ele>14.670977</ele>
<time>2026-07-15T11:54:04.000Z</time>
</trkpt>
<trkpt lat="57.133386" lon="9.111340">
<ele>14.684379</ele>
<time>2026-07-15T11:54:05.000Z</time>
</trkpt>
<trkpt lat="57.133362" lon="9.111415">
<ele>14.702502</ele>
<time>2026-07-15T11:54:06.000Z</time>
</trkpt>
<trkpt lat="57.133347" lon="9.111478">
<ele>14.716821</ele>
<time>2026-07-15T11:54:07.000Z</time>
</trkpt>
<trkpt lat="57.133324" lon="9.111538">
<ele>14.732111</ele>
<time>2026-07-15T11:54:08.000Z</time>
</trkpt>
<trkpt lat="57.133303" lon="9.111606">
<ele>14.748396</ele>
<time>2026-07-15T11:54:09.000Z</time>
</trkpt>
<trkpt lat="57.133262" lon="9.111702">
<ele>14.773823</ele>
<time>2026-07-15T11:54:10.000Z</time>
</trkpt>
<trkpt lat="57.133229" lon="9.111786">
<ele>14.795408</ele>
<time>2026-07-15T11:54:11.000Z</time>
</trkpt>
<trkpt lat="57.133198" lon="9.111861">
<ele>14.815030</ele>
<time>2026-07-15T11:54:12.000Z</time>
</trkpt>
<trkpt lat="57.133171" lon="9.111932">
<ele>14.833076</ele>
<time>2026-07-15T11:54:13.000Z</time>
</trkpt>
<trkpt lat="57.133148" lon="9.112000">
<ele>14.849753</ele>
<time>2026-07-15T11:54:14.000Z</time>
</trkpt>
<trkpt lat="57.133121" lon="9.112084">
<ele>14.870074</ele>
<time>2026-07-15T11:54:15.000Z</time>
</trkpt>
<trkpt lat="57.133088" lon="9.112158">
<ele>14.890010</ele>
<time>2026-07-15T11:54:16.000Z</time>
</trkpt>
<trkpt lat="57.133053" lon="9.112224">
<ele>14.909217</ele>
<time>2026-07-15T11:54:17.000Z</time>
</trkpt>
<trkpt lat="57.133026" lon="9.112301">
<ele>14.928298</ele>
<time>2026-07-15T11:54:18.000Z</time>
</trkpt>
<trkpt lat="57.132996" lon="9.112390">
<ele>14.950106</ele>
<time>2026-07-15T11:54:19.000Z</time>
</trkpt>
<trkpt lat="57.132973" lon="9.112468">
<ele>14.968582</ele>
<time>2026-07-15T11:54:20.000Z</time>
</trkpt>
<trkpt lat="57.132947" lon="9.112539">
<ele>14.986410</ele>
<time>2026-07-15T11:54:21.000Z</time>
</trkpt>
<trkpt lat="57.132915" lon="9.112615">
<ele>15.006432</ele>
<time>2026-07-15T11:54:22.000Z</time>
</trkpt>
<trkpt lat="57.132889" lon="9.112688">
<ele>15.024607</ele>
<time>2026-07-15T11:54:23.000Z</time>
</trkpt>
<trkpt lat="57.132870" lon="9.112770">
<ele>15.043165</ele>
<time>2026-07-15T11:54:24.000Z</time>
</trkpt>
<trkpt lat="57.132847" lon="9.112847">
<ele>15.061460</ele>
<time>2026-07-15T11:54:25.000Z</time>
</trkpt>
<trkpt lat="57.132828" lon="9.112917">
<ele>15.077750</ele>
<time>2026-07-15T11:54:26.000Z</time>
</trkpt>
<trkpt lat="57.132805" lon="9.112984">
<ele>15.094252</ele>
<time>2026-07-15T11:54:27.000Z</time>
</trkpt>
<trkpt lat="57.132780" lon="9.113044">
<ele>15.109997</ele>
<time>2026-07-15T11:54:28.000Z</time>
</trkpt>
<trkpt lat="57.132744" lon="9.113137">
<ele>15.130111</ele>
<time>2026-07-15T11:54:29.000Z</time>
</trkpt>
<trkpt lat="57.132716" lon="9.113224">
<ele>15.142904</ele>
<time>2026-07-15T11:54:30.000Z</time>
</trkpt>
<trkpt lat="57.132698" lon="9.113309">
<ele>15.154443</ele>
<time>2026-07-15T11:54:31.000Z</time>
</trkpt>
<trkpt lat="57.132683" lon="9.113380">
<ele>15.164079</ele>
<time>2026-07-15T11:54:32.000Z</time>
</trkpt>
<trkpt lat="57.132668" lon="9.113444">
<ele>15.172896</ele>
<time>2026-07-15T11:54:33.000Z</time>
</trkpt>
<trkpt lat="57.132637" lon="9.113542">
<ele>15.187241</ele>
<time>2026-07-15T11:54:34.000Z</time>
</trkpt>
<trkpt lat="57.132612" lon="9.113634">
<ele>15.200254</ele>
<time>2026-07-15T11:54:35.000Z</time>
</trkpt>
<trkpt lat="57.132595" lon="9.113712">
<ele>15.210884</ele>
<time>2026-07-15T11:54:36.000Z</time>
</trkpt>
<trkpt lat="57.132584" lon="9.113787">
<ele>15.220710</ele>
<time>2026-07-15T11:54:37.000Z</time>
</trkpt>
<trkpt lat="57.132569" lon="9.113865">
<ele>15.231176</ele>
<time>2026-07-15T11:54:38.000Z</time>
</trkpt>
<trkpt lat="57.132553" lon="9.113949">
<ele>15.242434</ele>
<time>2026-07-15T11:54:39.000Z</time>
</trkpt>
<trkpt lat="57.132538" lon="9.114025">
<ele>15.252662</ele>
<time>2026-07-15T11:54:40.000Z</time>
</trkpt>
<trkpt lat="57.132530" lon="9.114097">
<ele>15.261957</ele>
<time>2026-07-15T11:54:41.000Z</time>
</trkpt>
<trkpt lat="57.132526" lon="9.114170">
<ele>15.271236</ele>
<time>2026-07-15T11:54:42.000Z</time>
</trkpt>
<trkpt lat="57.132516" lon="9.114244">
<ele>15.280881</ele>
<time>2026-07-15T11:54:43.000Z</time>
</trkpt>
<trkpt lat="57.132511" lon="9.114320">
<ele>15.290563</ele>
<time>2026-07-15T11:54:44.000Z</time>
</trkpt>
<trkpt lat="57.132504" lon="9.114394">
<ele>15.300063</ele>
<time>2026-07-15T11:54:45.000Z</time>
</trkpt>
<trkpt lat="57.132492" lon="9.114474">
<ele>15.310560</ele>
<time>2026-07-15T11:54:46.000Z</time>
</trkpt>
<trkpt lat="57.132485" lon="9.114546">
<ele>15.319811</ele>
<time>2026-07-15T11:54:47.000Z</time>
</trkpt>
<trkpt lat="57.132469" lon="9.114630">
<ele>15.331070</ele>
<time>2026-07-15T11:54:48.000Z</time>
</trkpt>
<trkpt lat="57.132454" lon="9.114711">
<ele>15.341894</ele>
<time>2026-07-15T11:54:49.000Z</time>
</trkpt>
<trkpt lat="57.132435" lon="9.114797">
<ele>15.353637</ele>
<time>2026-07-15T11:54:50.000Z</time>
</trkpt>
<trkpt lat="57.132419" lon="9.114873">
<ele>15.363947</ele>
<time>2026-07-15T11:54:51.000Z</time>
</trkpt>
<trkpt lat="57.132385" lon="9.114964">
<ele>15.377919</ele>
<time>2026-07-15T11:54:52.000Z</time>
</trkpt>
<trkpt lat="57.132368" lon="9.115017">
<ele>15.385705</ele>
<time>2026-07-15T11:54:53.000Z</time>
</trkpt>
<trkpt lat="57.132339" lon="9.115107">
<ele>15.398943</ele>
<time>2026-07-15T11:54:54.000Z</time>
</trkpt>
<trkpt lat="57.132319" lon="9.115167">
<ele>15.407848</ele>
<time>2026-07-15T11:54:55.000Z</time>
</trkpt>
<trkpt lat="57.132263" lon="9.115310">
<ele>15.430151</ele>
<time>2026-07-15T11:54:56.000Z</time>
</trkpt>
<trkpt lat="57.132220" lon="9.115422">
<ele>15.447502</ele>
<time>2026-07-15T11:54:57.000Z</time>
</trkpt>
<trkpt lat="57.132162" lon="9.115552">
<ele>15.468786</ele>
<time>2026-07-15T11:54:58.000Z</time>
</trkpt>
<trkpt lat="57.132114" lon="9.115674">
<ele>15.487843</ele>
<time>2026-07-15T11:54:59.000Z</time>
</trkpt>
<trkpt lat="57.132075" lon="9.115772">
<ele>15.503213</ele>
<time>2026-07-15T11:55:00.000Z</time>
</trkpt>
<trkpt lat="57.132003" lon="9.115919">
<ele>15.528256</ele>
<time>2026-07-15T11:55:01.000Z</time>
</trkpt>
<trkpt lat="57.131958" lon="9.116013">
<ele>15.544087</ele>
<time>2026-07-15T11:55:02.000Z</time>
</trkpt>
<trkpt lat="57.131917" lon="9.116099">
<ele>15.557927</ele>
<time>2026-07-15T11:55:03.000Z</time>
</trkpt>
<trkpt lat="57.131877" lon="9.116189">
<ele>15.571993</ele>
<time>2026-07-15T11:55:04.000Z</time>
</trkpt>
<trkpt lat="57.131837" lon="9.116275">
<ele>15.585687</ele>
<time>2026-07-15T11:55:05.000Z</time>
</trkpt>
<trkpt lat="57.131798" lon="9.116359">
<ele>15.599053</ele>
<time>2026-07-15T11:55:06.000Z</time>
</trkpt>
<trkpt lat="57.131761" lon="9.116439">
<ele>15.611762</ele>
<time>2026-07-15T11:55:07.000Z</time>
</trkpt>
<trkpt lat="57.131719" lon="9.116525">
<ele>15.625751</ele>
<time>2026-07-15T11:55:08.000Z</time>
</trkpt>
<trkpt lat="57.131672" lon="9.116619">
<ele>15.641205</ele>
<time>2026-07-15T11:55:09.000Z</time>
</trkpt>
<trkpt lat="57.131623" lon="9.116710">
<ele>15.656705</ele>
<time>2026-07-15T11:55:10.000Z</time>
</trkpt>
<trkpt lat="57.131584" lon="9.116792">
<ele>15.669888</ele>
<time>2026-07-15T11:55:11.000Z</time>
</trkpt>
<trkpt lat="57.131542" lon="9.116875">
<ele>15.683609</ele>
<time>2026-07-15T11:55:12.000Z</time>
</trkpt>
<trkpt lat="57.131502" lon="9.116956">
<ele>15.696851</ele>
<time>2026-07-15T11:55:13.000Z</time>
</trkpt>
<trkpt lat="57.131470" lon="9.117032">
<ele>15.708481</ele>
<time>2026-07-15T11:55:14.000Z</time>
</trkpt>
<trkpt lat="57.131431" lon="9.117104">
<ele>15.720781</ele>
<time>2026-07-15T11:55:15.000Z</time>
</trkpt>
<trkpt lat="57.131397" lon="9.117175">
<ele>15.732230</ele>
<time>2026-07-15T11:55:16.000Z</time>
</trkpt>
<trkpt lat="57.131362" lon="9.117245">
<ele>15.743738</ele>
<time>2026-07-15T11:55:17.000Z</time>
</trkpt>
<trkpt lat="57.131325" lon="9.117319">
<ele>15.755904</ele>
<time>2026-07-15T11:55:18.000Z</time>
</trkpt>
<trkpt lat="57.131296" lon="9.117391">
<ele>15.766746</ele>
<time>2026-07-15T11:55:19.000Z</time>
</trkpt>
<trkpt lat="57.131256" lon="9.117483">
<ele>15.780999</ele>
<time>2026-07-15T11:55:20.000Z</time>
</trkpt>
<trkpt lat="57.131230" lon="9.117564">
<ele>15.792378</ele>
<time>2026-07-15T11:55:21.000Z</time>
</trkpt>
<trkpt lat="57.131196" lon="9.117678">
<ele>15.808106</ele>
<time>2026-07-15T11:55:22.000Z</time>
</trkpt>
<trkpt lat="57.131172" lon="9.117783">
<ele>15.821882</ele>
<time>2026-07-15T11:55:23.000Z</time>
</trkpt>
<trkpt lat="57.131145" lon="9.117885">
<ele>15.835604</ele>
<time>2026-07-15T11:55:24.000Z</time>
</trkpt>
<trkpt lat="57.131123" lon="9.117982">
<ele>15.848315</ele>
<time>2026-07-15T11:55:25.000Z</time>
</trkpt>
<trkpt lat="57.131100" lon="9.118083">
<ele>15.861559</ele>
<time>2026-07-15T11:55:26.000Z</time>
</trkpt>
<trkpt lat="57.131077" lon="9.118177">
<ele>15.874027</ele>
<time>2026-07-15T11:55:27.000Z</time>
</trkpt>
<trkpt lat="57.131054" lon="9.118273">
<ele>15.886715</ele>
<time>2026-07-15T11:55:28.000Z</time>
</trkpt>
<trkpt lat="57.131031" lon="9.118366">
<ele>15.899073</ele>
<time>2026-07-15T11:55:29.000Z</time>
</trkpt>
<trkpt lat="57.131005" lon="9.118455">
<ele>15.911294</ele>
<time>2026-07-15T11:55:30.000Z</time>
</trkpt>
<trkpt lat="57.130981" lon="9.118549">
<ele>15.923855</ele>
<time>2026-07-15T11:55:31.000Z</time>
</trkpt>
<trkpt lat="57.130959" lon="9.118639">
<ele>15.935790</ele>
<time>2026-07-15T11:55:32.000Z</time>
</trkpt>
<trkpt lat="57.130940" lon="9.118728">
<ele>15.956395</ele>
<time>2026-07-15T11:55:33.000Z</time>
</trkpt>
<trkpt lat="57.130916" lon="9.118819">
<ele>16.005092</ele>
<time>2026-07-15T11:55:34.000Z</time>
</trkpt>
<trkpt lat="57.130894" lon="9.118901">
<ele>16.049118</ele>
<time>2026-07-15T11:55:35.000Z</time>
</trkpt>
<trkpt lat="57.130875" lon="9.118986">
<ele>16.093364</ele>
<time>2026-07-15T11:55:36.000Z</time>
</trkpt>
<trkpt lat="57.130852" lon="9.119071">
<ele>16.139078</ele>
<time>2026-07-15T11:55:37.000Z</time>
</trkpt>
<trkpt lat="57.130829" lon="9.119157">
<ele>16.185223</ele>
<time>2026-07-15T11:55:38.000Z</time>
</trkpt>
<trkpt lat="57.130802" lon="9.119243">
<ele>16.233043</ele>
<time>2026-07-15T11:55:39.000Z</time>
</trkpt>
<trkpt lat="57.130776" lon="9.119327">
<ele>16.279586</ele>
<time>2026-07-15T11:55:40.000Z</time>
</trkpt>
<trkpt lat="57.130745" lon="9.119412">
<ele>16.328876</ele>
<time>2026-07-15T11:55:41.000Z</time>
</trkpt>
<trkpt lat="57.130714" lon="9.119494">
<ele>16.376975</ele>
<time>2026-07-15T11:55:42.000Z</time>
</trkpt>
<trkpt lat="57.130681" lon="9.119569">
<ele>16.423446</ele>
<time>2026-07-15T11:55:43.000Z</time>
</trkpt>
<trkpt lat="57.130638" lon="9.119644">
<ele>16.475956</ele>
<time>2026-07-15T11:55:44.000Z</time>
</trkpt>
<trkpt lat="57.130592" lon="9.119714">
<ele>16.528865</ele>
<time>2026-07-15T11:55:45.000Z</time>
</trkpt>
<trkpt lat="57.130548" lon="9.119775">
<ele>16.577698</ele>
<time>2026-07-15T11:55:46.000Z</time>
</trkpt>
<trkpt lat="57.130497" lon="9.119832">
<ele>16.630597</ele>
<time>2026-07-15T11:55:47.000Z</time>
</trkpt>
<trkpt lat="57.130455" lon="9.119877">
<ele>16.673684</ele>
<time>2026-07-15T11:55:48.000Z</time>
</trkpt>
<trkpt lat="57.130401" lon="9.119937">
<ele>16.729607</ele>
<time>2026-07-15T11:55:49.000Z</time>
</trkpt>
<trkpt lat="57.130356" lon="9.119990">
<ele>16.776972</ele>
<time>2026-07-15T11:55:50.000Z</time>
</trkpt>
<trkpt lat="57.130310" lon="9.120038">
<ele>16.823854</ele>
<time>2026-07-15T11:55:51.000Z</time>
</trkpt>
<trkpt lat="57.130268" lon="9.120089">
<ele>16.868463</ele>
<time>2026-07-15T11:55:52.000Z</time>
</trkpt>
<trkpt lat="57.130232" lon="9.120150">
<ele>16.911837</ele>
<time>2026-07-15T11:55:53.000Z</time>
</trkpt>
<trkpt lat="57.130195" lon="9.120226">
<ele>16.960978</ele>
<time>2026-07-15T11:55:54.000Z</time>
</trkpt>
<trkpt lat="57.130161" lon="9.120301">
<ele>17.008013</ele>
<time>2026-07-15T11:55:55.000Z</time>
</trkpt>
<trkpt lat="57.130134" lon="9.120384">
<ele>17.054589</ele>
<time>2026-07-15T11:55:56.000Z</time>
</trkpt>
<trkpt lat="57.130109" lon="9.120465">
<ele>17.099439</ele>
<time>2026-07-15T11:55:57.000Z</time>
</trkpt>
<trkpt lat="57.130082" lon="9.120552">
<ele>17.147676</ele>
<time>2026-07-15T11:55:58.000Z</time>
</trkpt>
<trkpt lat="57.130062" lon="9.120637">
<ele>17.192268</ele>
<time>2026-07-15T11:55:59.000Z</time>
</trkpt>
<trkpt lat="57.130043" lon="9.120720">
<ele>17.235625</ele>
<time>2026-07-15T11:56:00.000Z</time>
</trkpt>
<trkpt lat="57.130031" lon="9.120794">
<ele>17.272799</ele>
<time>2026-07-15T11:56:01.000Z</time>
</trkpt>
<trkpt lat="57.130020" lon="9.120861">
<ele>17.306491</ele>
<time>2026-07-15T11:56:02.000Z</time>
</trkpt>
<trkpt lat="57.130010" lon="9.120923">
<ele>17.337622</ele>
<time>2026-07-15T11:56:03.000Z</time>
</trkpt>
<trkpt lat="57.130001" lon="9.120988">
<ele>17.369910</ele>
<time>2026-07-15T11:56:04.000Z</time>
</trkpt>
<trkpt lat="57.129997" lon="9.121042">
<ele>17.396142</ele>
<time>2026-07-15T11:56:05.000Z</time>
</trkpt>
<trkpt lat="57.129990" lon="9.121094">
<ele>17.421929</ele>
<time>2026-07-15T11:56:06.000Z</time>
</trkpt>
<trkpt lat="57.129982" lon="9.121142">
<ele>17.446098</ele>
<time>2026-07-15T11:56:07.000Z</time>
</trkpt>
<trkpt lat="57.129978" lon="9.121195">
<ele>17.471853</ele>
<time>2026-07-15T11:56:08.000Z</time>
</trkpt>
<trkpt lat="57.129974" lon="9.121251">
<ele>17.499039</ele>
<time>2026-07-15T11:56:09.000Z</time>
</trkpt>
<trkpt lat="57.129974" lon="9.121313">
<ele>17.528881</ele>
<time>2026-07-15T11:56:10.000Z</time>
</trkpt>
<trkpt lat="57.129971" lon="9.121368">
<ele>17.543607</ele>
<time>2026-07-15T11:56:11.000Z</time>
</trkpt>
<trkpt lat="57.129974" lon="9.121434">
<ele>17.551897</ele>
<time>2026-07-15T11:56:12.000Z</time>
</trkpt>
<trkpt lat="57.129974" lon="9.121487">
<ele>17.558530</ele>
<time>2026-07-15T11:56:13.000Z</time>
</trkpt>
<trkpt lat="57.129978" lon="9.121576">
<ele>17.569707</ele>
<time>2026-07-15T11:56:14.000Z</time>
</trkpt>
<trkpt lat="57.129982" lon="9.121648">
<ele>17.578765</ele>
<time>2026-07-15T11:56:15.000Z</time>
</trkpt>
<trkpt lat="57.129986" lon="9.121735">
<ele>17.589692</ele>
<time>2026-07-15T11:56:16.000Z</time>
</trkpt>
<trkpt lat="57.129990" lon="9.121811">
<ele>17.599249</ele>
<time>2026-07-15T11:56:17.000Z</time>
</trkpt>
<trkpt lat="57.129997" lon="9.121885">
<ele>17.608650</ele>
<time>2026-07-15T11:56:18.000Z</time>
</trkpt>
<trkpt lat="57.130005" lon="9.121957">
<ele>17.617848</ele>
<time>2026-07-15T11:56:19.000Z</time>
</trkpt>
<trkpt lat="57.130009" lon="9.122026">
<ele>17.626532</ele>
<time>2026-07-15T11:56:20.000Z</time>
</trkpt>
<trkpt lat="57.130016" lon="9.122090">
<ele>17.634703</ele>
<time>2026-07-15T11:56:21.000Z</time>
</trkpt>
<trkpt lat="57.130020" lon="9.122155">
<ele>17.642890</ele>
<time>2026-07-15T11:56:22.000Z</time>
</trkpt>
<trkpt lat="57.130024" lon="9.122208">
<ele>17.649587</ele>
<time>2026-07-15T11:56:23.000Z</time>
</trkpt>
<trkpt lat="57.130032" lon="9.122269">
<ele>17.657441</ele>
<time>2026-07-15T11:56:24.000Z</time>
</trkpt>
<trkpt lat="57.130035" lon="9.122324">
<ele>17.664360</ele>
<time>2026-07-15T11:56:25.000Z</time>
</trkpt>
<trkpt lat="57.130039" lon="9.122381">
<ele>17.671553</ele>
<time>2026-07-15T11:56:26.000Z</time>
</trkpt>
<trkpt lat="57.130043" lon="9.122434">
<ele>17.678250</ele>
<time>2026-07-15T11:56:27.000Z</time>
</trkpt>
<trkpt lat="57.130047" lon="9.122490">
<ele>17.685319</ele>
<time>2026-07-15T11:56:28.000Z</time>
</trkpt>
<trkpt lat="57.130050" lon="9.122536">
<ele>17.691117</ele>
<time>2026-07-15T11:56:29.000Z</time>
</trkpt>
<trkpt lat="57.130054" lon="9.122594">
<ele>17.698435</ele>
<time>2026-07-15T11:56:30.000Z</time>
</trkpt>
<trkpt lat="57.130051" lon="9.122658">
<ele>17.706474</ele>
<time>2026-07-15T11:56:31.000Z</time>
</trkpt>
<trkpt lat="57.130035" lon="9.122744">
<ele>17.717852</ele>
<time>2026-07-15T11:56:32.000Z</time>
</trkpt>
<trkpt lat="57.130022" lon="9.122817">
<ele>17.727468</ele>
<time>2026-07-15T11:56:33.000Z</time>
</trkpt>
<trkpt lat="57.129994" lon="9.122921">
<ele>17.741997</ele>
<time>2026-07-15T11:56:34.000Z</time>
</trkpt>
<trkpt lat="57.129955" lon="9.123015">
<ele>17.756806</ele>
<time>2026-07-15T11:56:35.000Z</time>
</trkpt>
<trkpt lat="57.129921" lon="9.123096">
<ele>17.769621</ele>
<time>2026-07-15T11:56:36.000Z</time>
</trkpt>
<trkpt lat="57.129887" lon="9.123161">
<ele>17.780919</ele>
<time>2026-07-15T11:56:37.000Z</time>
</trkpt>
<trkpt lat="57.129860" lon="9.123217">
<ele>17.790294</ele>
<time>2026-07-15T11:56:38.000Z</time>
</trkpt>
<trkpt lat="57.129822" lon="9.123265">
<ele>17.800919</ele>
<time>2026-07-15T11:56:39.000Z</time>
</trkpt>
<trkpt lat="57.129793" lon="9.123311">
<ele>17.809743</ele>
<time>2026-07-15T11:56:40.000Z</time>
</trkpt>
<trkpt lat="57.129753" lon="9.123366">
<ele>17.821252</ele>
<time>2026-07-15T11:56:41.000Z</time>
</trkpt>
<trkpt lat="57.129723" lon="9.123412">
<ele>17.830252</ele>
<time>2026-07-15T11:56:42.000Z</time>
</trkpt>
<trkpt lat="57.129690" lon="9.123447">
<ele>17.839033</ele>
<time>2026-07-15T11:56:43.000Z</time>
</trkpt>
<trkpt lat="57.129658" lon="9.123482">
<ele>17.847614</ele>
<time>2026-07-15T11:56:44.000Z</time>
</trkpt>
<trkpt lat="57.129632" lon="9.123504">
<ele>17.854212</ele>
<time>2026-07-15T11:56:45.000Z</time>
</trkpt>
<trkpt lat="57.129604" lon="9.123533">
<ele>17.861619</ele>
<time>2026-07-15T11:56:46.000Z</time>
</trkpt>
<trkpt lat="57.129583" lon="9.123557">
<ele>17.867317</ele>
<time>2026-07-15T11:56:47.000Z</time>
</trkpt>
<trkpt lat="57.129558" lon="9.123589">
<ele>17.874337</ele>
<time>2026-07-15T11:56:48.000Z</time>
</trkpt>
<trkpt lat="57.129533" lon="9.123614">
<ele>17.880896</ele>
<time>2026-07-15T11:56:49.000Z</time>
</trkpt>
<trkpt lat="57.129506" lon="9.123640">
<ele>17.887921</ele>
<time>2026-07-15T11:56:50.000Z</time>
</trkpt>
<trkpt lat="57.129483" lon="9.123667">
<ele>17.894210</ele>
<time>2026-07-15T11:56:51.000Z</time>
</trkpt>
<trkpt lat="57.129455" lon="9.123703">
<ele>17.902083</ele>
<time>2026-07-15T11:56:52.000Z</time>
</trkpt>
<trkpt lat="57.129436" lon="9.123730">
<ele>17.907617</ele>
<time>2026-07-15T11:56:53.000Z</time>
</trkpt>
<trkpt lat="57.129406" lon="9.123777">
<ele>17.916697</ele>
<time>2026-07-15T11:56:54.000Z</time>
</trkpt>
<trkpt lat="57.129380" lon="9.123821">
<ele>17.924838</ele>
<time>2026-07-15T11:56:55.000Z</time>
</trkpt>
<trkpt lat="57.129352" lon="9.123877">
<ele>17.934368</ele>
<time>2026-07-15T11:56:56.000Z</time>
</trkpt>
<trkpt lat="57.129331" lon="9.123932">
<ele>17.942784</ele>
<time>2026-07-15T11:56:57.000Z</time>
</trkpt>
<trkpt lat="57.129303" lon="9.124002">
<ele>17.953667</ele>
<time>2026-07-15T11:56:58.000Z</time>
</trkpt>
<trkpt lat="57.129278" lon="9.124069">
<ele>17.927092</ele>
<time>2026-07-15T11:56:59.000Z</time>
</trkpt>
<trkpt lat="57.129246" lon="9.124149">
<ele>17.892134</ele>
<time>2026-07-15T11:57:00.000Z</time>
</trkpt>
<trkpt lat="57.129212" lon="9.124226">
<ele>17.857218</ele>
<time>2026-07-15T11:57:01.000Z</time>
</trkpt>
<trkpt lat="57.129169" lon="9.124312">
<ele>17.816087</ele>
<time>2026-07-15T11:57:02.000Z</time>
</trkpt>
<trkpt lat="57.129131" lon="9.124393">
<ele>17.778426</ele>
<time>2026-07-15T11:57:03.000Z</time>
</trkpt>
<trkpt lat="57.129097" lon="9.124469">
<ele>17.743781</ele>
<time>2026-07-15T11:57:04.000Z</time>
</trkpt>
<trkpt lat="57.129068" lon="9.124538">
<ele>17.713084</ele>
<time>2026-07-15T11:57:05.000Z</time>
</trkpt>
<trkpt lat="57.129036" lon="9.124601">
<ele>17.682732</ele>
<time>2026-07-15T11:57:06.000Z</time>
</trkpt>
<trkpt lat="57.129013" lon="9.124648">
<ele>17.660472</ele>
<time>2026-07-15T11:57:07.000Z</time>
</trkpt>
<trkpt lat="57.128994" lon="9.124692">
<ele>17.640694</ele>
<time>2026-07-15T11:57:08.000Z</time>
</trkpt>
<trkpt lat="57.128979" lon="9.124739">
<ele>17.621514</ele>
<time>2026-07-15T11:57:09.000Z</time>
</trkpt>
<trkpt lat="57.128964" lon="9.124783">
<ele>17.603237</ele>
<time>2026-07-15T11:57:10.000Z</time>
</trkpt>
<trkpt lat="57.128952" lon="9.124824">
<ele>17.586852</ele>
<time>2026-07-15T11:57:11.000Z</time>
</trkpt>
<trkpt lat="57.128937" lon="9.124866">
<ele>17.569166</ele>
<time>2026-07-15T11:57:12.000Z</time>
</trkpt>
<trkpt lat="57.128926" lon="9.124901">
<ele>17.554940</ele>
<time>2026-07-15T11:57:13.000Z</time>
</trkpt>
<trkpt lat="57.128910" lon="9.124931">
<ele>17.540145</ele>
<time>2026-07-15T11:57:14.000Z</time>
</trkpt>
<trkpt lat="57.128895" lon="9.124987">
<ele>17.518178</ele>
<time>2026-07-15T11:57:15.000Z</time>
</trkpt>
<trkpt lat="57.128884" lon="9.125035">
<ele>17.499850</ele>
<time>2026-07-15T11:57:16.000Z</time>
</trkpt>
<trkpt lat="57.128872" lon="9.125094">
<ele>17.477687</ele>
<time>2026-07-15T11:57:17.000Z</time>
</trkpt>
<trkpt lat="57.128868" lon="9.125155">
<ele>17.456074</ele>
<time>2026-07-15T11:57:18.000Z</time>
</trkpt>
<trkpt lat="57.128853" lon="9.125241">
<ele>17.424299</ele>
<time>2026-07-15T11:57:19.000Z</time>
</trkpt>
<trkpt lat="57.128838" lon="9.125322">
<ele>17.394194</ele>
<time>2026-07-15T11:57:20.000Z</time>
</trkpt>
<trkpt lat="57.128822" lon="9.125407">
<ele>17.362547</ele>
<time>2026-07-15T11:57:21.000Z</time>
</trkpt>
<trkpt lat="57.128796" lon="9.125495">
<ele>17.327303</ele>
<time>2026-07-15T11:57:22.000Z</time>
</trkpt>
<trkpt lat="57.128766" lon="9.125555">
<ele>17.298607</ele>
<time>2026-07-15T11:57:23.000Z</time>
</trkpt>
<trkpt lat="57.128727" lon="9.125604">
<ele>17.268013</ele>
<time>2026-07-15T11:57:24.000Z</time>
</trkpt>
<trkpt lat="57.128698" lon="9.125634">
<ele>17.246458</ele>
<time>2026-07-15T11:57:25.000Z</time>
</trkpt>
<trkpt lat="57.128658" lon="9.125660">
<ele>17.218968</ele>
<time>2026-07-15T11:57:26.000Z</time>
</trkpt>
<trkpt lat="57.128615" lon="9.125670">
<ele>17.190879</ele>
<time>2026-07-15T11:57:27.000Z</time>
</trkpt>
<trkpt lat="57.128579" lon="9.125676">
<ele>17.167452</ele>
<time>2026-07-15T11:57:28.000Z</time>
</trkpt>
<trkpt lat="57.128548" lon="9.125689">
<ele>17.146847</ele>
<time>2026-07-15T11:57:29.000Z</time>
</trkpt>
<trkpt lat="57.128522" lon="9.125700">
<ele>17.129557</ele>
<time>2026-07-15T11:57:30.000Z</time>
</trkpt>
<trkpt lat="57.128487" lon="9.125722">
<ele>17.105590</ele>
<time>2026-07-15T11:57:31.000Z</time>
</trkpt>
<trkpt lat="57.128467" lon="9.125750">
<ele>17.089310</ele>
<time>2026-07-15T11:57:32.000Z</time>
</trkpt>
<trkpt lat="57.128448" lon="9.125797">
<ele>17.068696</ele>
<time>2026-07-15T11:57:33.000Z</time>
</trkpt>
<trkpt lat="57.128422" lon="9.125845">
<ele>17.044841</ele>
<time>2026-07-15T11:57:34.000Z</time>
</trkpt>
<trkpt lat="57.128403" lon="9.125891">
<ele>17.024508</ele>
<time>2026-07-15T11:57:35.000Z</time>
</trkpt>
<trkpt lat="57.128391" lon="9.125936">
<ele>17.006871</ele>
<time>2026-07-15T11:57:36.000Z</time>
</trkpt>
<trkpt lat="57.128387" lon="9.125988">
<ele>16.988396</ele>
<time>2026-07-15T11:57:37.000Z</time>
</trkpt>
<trkpt lat="57.128391" lon="9.126043">
<ele>16.968876</ele>
<time>2026-07-15T11:57:38.000Z</time>
</trkpt>
<trkpt lat="57.128377" lon="9.126127">
<ele>16.937967</ele>
<time>2026-07-15T11:57:39.000Z</time>
</trkpt>
<trkpt lat="57.128380" lon="9.126197">
<ele>16.913267</ele>
<time>2026-07-15T11:57:40.000Z</time>
</trkpt>
<trkpt lat="57.128391" lon="9.126262">
<ele>16.889316</ele>
<time>2026-07-15T11:57:41.000Z</time>
</trkpt>
<trkpt lat="57.128402" lon="9.126326">
<ele>16.865702</ele>
<time>2026-07-15T11:57:42.000Z</time>
</trkpt>
<trkpt lat="57.128399" lon="9.126415">
<ele>16.834334</ele>
<time>2026-07-15T11:57:43.000Z</time>
</trkpt>
<trkpt lat="57.128410" lon="9.126479">
<ele>16.810720</ele>
<time>2026-07-15T11:57:44.000Z</time>
</trkpt>
<trkpt lat="57.128418" lon="9.126542">
<ele>16.788034</ele>
<time>2026-07-15T11:57:45.000Z</time>
</trkpt>
<trkpt lat="57.128433" lon="9.126596">
<ele>16.769667</ele>
<time>2026-07-15T11:57:46.000Z</time>
</trkpt>
<trkpt lat="57.128448" lon="9.126658">
<ele>16.749114</ele>
<time>2026-07-15T11:57:47.000Z</time>
</trkpt>
<trkpt lat="57.128463" lon="9.126719">
<ele>16.728838</ele>
<time>2026-07-15T11:57:48.000Z</time>
</trkpt>
<trkpt lat="57.128483" lon="9.126789">
<ele>16.704886</ele>
<time>2026-07-15T11:57:49.000Z</time>
</trkpt>
<trkpt lat="57.128490" lon="9.126867">
<ele>16.680948</ele>
<time>2026-07-15T11:57:50.000Z</time>
</trkpt>
<trkpt lat="57.128505" lon="9.126929">
<ele>16.660395</ele>
<time>2026-07-15T11:57:51.000Z</time>
</trkpt>
<trkpt lat="57.128509" lon="9.127003">
<ele>16.637879</ele>
<time>2026-07-15T11:57:52.000Z</time>
</trkpt>
<trkpt lat="57.128520" lon="9.127074">
<ele>16.615523</ele>
<time>2026-07-15T11:57:53.000Z</time>
</trkpt>
<trkpt lat="57.128509" lon="9.127163">
<ele>16.587886</ele>
<time>2026-07-15T11:57:54.000Z</time>
</trkpt>
<trkpt lat="57.128492" lon="9.127255">
<ele>16.558460</ele>
<time>2026-07-15T11:57:55.000Z</time>
</trkpt>
<trkpt lat="57.128476" lon="9.127355">
<ele>16.526894</ele>
<time>2026-07-15T11:57:56.000Z</time>
</trkpt>
<trkpt lat="57.128452" lon="9.127461">
<ele>16.492118</ele>
<time>2026-07-15T11:57:57.000Z</time>
</trkpt>
<trkpt lat="57.128445" lon="9.127550">
<ele>16.464890</ele>
<time>2026-07-15T11:57:58.000Z</time>
</trkpt>
<trkpt lat="57.128441" lon="9.127630">
<ele>16.440565</ele>
<time>2026-07-15T11:57:59.000Z</time>
</trkpt>
<trkpt lat="57.128433" lon="9.127731">
<ele>16.409660</ele>
<time>2026-07-15T11:58:00.000Z</time>
</trkpt>
<trkpt lat="57.128422" lon="9.127830">
<ele>16.379063</ele>
<time>2026-07-15T11:58:01.000Z</time>
</trkpt>
<trkpt lat="57.128414" lon="9.127931">
<ele>16.348158</ele>
<time>2026-07-15T11:58:02.000Z</time>
</trkpt>
<trkpt lat="57.128403" lon="9.128033">
<ele>16.316671</ele>
<time>2026-07-15T11:58:03.000Z</time>
</trkpt>
<trkpt lat="57.128391" lon="9.128144">
<ele>16.282402</ele>
<time>2026-07-15T11:58:04.000Z</time>
</trkpt>
<trkpt lat="57.128380" lon="9.128251">
<ele>16.249428</ele>
<time>2026-07-15T11:58:05.000Z</time>
</trkpt>
<trkpt lat="57.128372" lon="9.128352">
<ele>16.218524</ele>
<time>2026-07-15T11:58:06.000Z</time>
</trkpt>
<trkpt lat="57.128368" lon="9.128449">
<ele>16.189069</ele>
<time>2026-07-15T11:58:07.000Z</time>
</trkpt>
<trkpt lat="57.128361" lon="9.128546">
<ele>16.159441</ele>
<time>2026-07-15T11:58:08.000Z</time>
</trkpt>
<trkpt lat="57.128357" lon="9.128642">
<ele>16.130289</ele>
<time>2026-07-15T11:58:09.000Z</time>
</trkpt>
<trkpt lat="57.128346" lon="9.128741">
<ele>16.099692</ele>
<time>2026-07-15T11:58:10.000Z</time>
</trkpt>
<trkpt lat="57.128342" lon="9.128846">
<ele>16.067821</ele>
<time>2026-07-15T11:58:11.000Z</time>
</trkpt>
<trkpt lat="57.128334" lon="9.128942">
<ele>16.038414</ele>
<time>2026-07-15T11:58:12.000Z</time>
</trkpt>
<trkpt lat="57.128327" lon="9.129035">
<ele>16.009986</ele>
<time>2026-07-15T11:58:13.000Z</time>
</trkpt>
<trkpt lat="57.128323" lon="9.129137">
<ele>15.979022</ele>
<time>2026-07-15T11:58:14.000Z</time>
</trkpt>
<trkpt lat="57.128319" lon="9.129229">
<ele>15.951076</ele>
<time>2026-07-15T11:58:15.000Z</time>
</trkpt>
<trkpt lat="57.128315" lon="9.129323">
<ele>15.922528</ele>
<time>2026-07-15T11:58:16.000Z</time>
</trkpt>
<trkpt lat="57.128308" lon="9.129415">
<ele>15.894399</ele>
<time>2026-07-15T11:58:17.000Z</time>
</trkpt>
<trkpt lat="57.128307" lon="9.129499">
<ele>15.868960</ele>
<time>2026-07-15T11:58:18.000Z</time>
</trkpt>
<trkpt lat="57.128311" lon="9.129586">
<ele>15.842523</ele>
<time>2026-07-15T11:58:19.000Z</time>
</trkpt>
<trkpt lat="57.128315" lon="9.129669">
<ele>15.817294</ele>
<time>2026-07-15T11:58:20.000Z</time>
</trkpt>
<trkpt lat="57.128315" lon="9.129738">
<ele>15.796402</ele>
<time>2026-07-15T11:58:21.000Z</time>
</trkpt>
<trkpt lat="57.128311" lon="9.129851">
<ele>15.780936</ele>
<time>2026-07-15T11:58:22.000Z</time>
</trkpt>
<trkpt lat="57.128311" lon="9.129939">
<ele>15.776100</ele>
<time>2026-07-15T11:58:23.000Z</time>
</trkpt>
<trkpt lat="57.128311" lon="9.130027">
<ele>15.771263</ele>
<time>2026-07-15T11:58:24.000Z</time>
</trkpt>
<trkpt lat="57.128311" lon="9.130121">
<ele>15.766097</ele>
<time>2026-07-15T11:58:25.000Z</time>
</trkpt>
<trkpt lat="57.128311" lon="9.130222">
<ele>15.760546</ele>
<time>2026-07-15T11:58:26.000Z</time>
</trkpt>
<trkpt lat="57.128311" lon="9.130316">
<ele>15.755379</ele>
<time>2026-07-15T11:58:27.000Z</time>
</trkpt>
<trkpt lat="57.128319" lon="9.130402">
<ele>15.750584</ele>
<time>2026-07-15T11:58:28.000Z</time>
</trkpt>
<trkpt lat="57.128326" lon="9.130482">
<ele>15.746130</ele>
<time>2026-07-15T11:58:29.000Z</time>
</trkpt>
<trkpt lat="57.128334" lon="9.130571">
<ele>15.741172</ele>
<time>2026-07-15T11:58:30.000Z</time>
</trkpt>
<trkpt lat="57.128345" lon="9.130650">
<ele>15.736689</ele>
<time>2026-07-15T11:58:31.000Z</time>
</trkpt>
<trkpt lat="57.128342" lon="9.130743">
<ele>15.731569</ele>
<time>2026-07-15T11:58:32.000Z</time>
</trkpt>
<trkpt lat="57.128345" lon="9.130828">
<ele>15.726887</ele>
<time>2026-07-15T11:58:33.000Z</time>
</trkpt>
<trkpt lat="57.128349" lon="9.130920">
<ele>15.721814</ele>
<time>2026-07-15T11:58:34.000Z</time>
</trkpt>
<trkpt lat="57.128334" lon="9.131026">
<ele>15.715794</ele>
<time>2026-07-15T11:58:35.000Z</time>
</trkpt>
<trkpt lat="57.128341" lon="9.131110">
<ele>15.711123</ele>
<time>2026-07-15T11:58:36.000Z</time>
</trkpt>
<trkpt lat="57.128345" lon="9.131190">
<ele>15.706707</ele>
<time>2026-07-15T11:58:37.000Z</time>
</trkpt>
<trkpt lat="57.128346" lon="9.131268">
<ele>15.702419</ele>
<time>2026-07-15T11:58:38.000Z</time>
</trkpt>
<trkpt lat="57.128323" lon="9.131369">
<ele>15.696399</ele>
<time>2026-07-15T11:58:39.000Z</time>
</trkpt>
<trkpt lat="57.128307" lon="9.131457">
<ele>15.691299</ele>
<time>2026-07-15T11:58:40.000Z</time>
</trkpt>
<trkpt lat="57.128300" lon="9.131527">
<ele>15.687386</ele>
<time>2026-07-15T11:58:41.000Z</time>
</trkpt>
<trkpt lat="57.128288" lon="9.131593">
<ele>15.683561</ele>
<time>2026-07-15T11:58:42.000Z</time>
</trkpt>
<trkpt lat="57.128281" lon="9.131635">
<ele>15.681146</ele>
<time>2026-07-15T11:58:43.000Z</time>
</trkpt>
<trkpt lat="57.128266" lon="9.131671">
<ele>15.678652</ele>
<time>2026-07-15T11:58:44.000Z</time>
</trkpt>
<trkpt lat="57.128257" lon="9.131703">
<ele>15.676671</ele>
<time>2026-07-15T11:58:45.000Z</time>
</trkpt>
<trkpt lat="57.128250" lon="9.131758">
<ele>15.673566</ele>
<time>2026-07-15T11:58:46.000Z</time>
</trkpt>
<trkpt lat="57.128261" lon="9.131788">
<ele>15.671576</ele>
<time>2026-07-15T11:58:47.000Z</time>
</trkpt>
<trkpt lat="57.128280" lon="9.131812">
<ele>15.669243</ele>
<time>2026-07-15T11:58:48.000Z</time>
</trkpt>
<trkpt lat="57.128302" lon="9.131831">
<ele>15.666783</ele>
<time>2026-07-15T11:58:49.000Z</time>
</trkpt>
<trkpt lat="57.128329" lon="9.131854">
<ele>15.663771</ele>
<time>2026-07-15T11:58:50.000Z</time>
</trkpt>
<trkpt lat="57.128356" lon="9.131876">
<ele>15.660781</ele>
<time>2026-07-15T11:58:51.000Z</time>
</trkpt>
<trkpt lat="57.128387" lon="9.131897">
<ele>15.657437</ele>
<time>2026-07-15T11:58:52.000Z</time>
</trkpt>
<trkpt lat="57.128418" lon="9.131920">
<ele>15.654052</ele>
<time>2026-07-15T11:58:53.000Z</time>
</trkpt>
<trkpt lat="57.128451" lon="9.131945">
<ele>15.650439</ele>
<time>2026-07-15T11:58:54.000Z</time>
</trkpt>
<trkpt lat="57.128486" lon="9.131977">
<ele>15.646483</ele>
<time>2026-07-15T11:58:55.000Z</time>
</trkpt>
<trkpt lat="57.128526" lon="9.132011">
<ele>15.642022</ele>
<time>2026-07-15T11:58:56.000Z</time>
</trkpt>
<trkpt lat="57.128566" lon="9.132051">
<ele>15.637413</ele>
<time>2026-07-15T11:58:57.000Z</time>
</trkpt>
<trkpt lat="57.128606" lon="9.132083">
<ele>15.632997</ele>
<time>2026-07-15T11:58:58.000Z</time>
</trkpt>
<trkpt lat="57.128651" lon="9.132122">
<ele>15.627962</ele>
<time>2026-07-15T11:58:59.000Z</time>
</trkpt>
<trkpt lat="57.128696" lon="9.132155">
<ele>15.623057</ele>
<time>2026-07-15T11:59:00.000Z</time>
</trkpt>
<trkpt lat="57.128749" lon="9.132198">
<ele>15.617193</ele>
<time>2026-07-15T11:59:01.000Z</time>
</trkpt>
<trkpt lat="57.128794" lon="9.132253">
<ele>15.611725</ele>
<time>2026-07-15T11:59:02.000Z</time>
</trkpt>
<trkpt lat="57.128840" lon="9.132297">
<ele>15.606476</ele>
<time>2026-07-15T11:59:03.000Z</time>
</trkpt>
<trkpt lat="57.128886" lon="9.132340">
<ele>15.591325</ele>
<time>2026-07-15T11:59:04.000Z</time>
</trkpt>
<trkpt lat="57.128936" lon="9.132385">
<ele>15.553195</ele>
<time>2026-07-15T11:59:05.000Z</time>
</trkpt>
<trkpt lat="57.128994" lon="9.132432">
<ele>15.509779</ele>
<time>2026-07-15T11:59:06.000Z</time>
</trkpt>
<trkpt lat="57.129051" lon="9.132488">
<ele>15.465516</ele>
<time>2026-07-15T11:59:07.000Z</time>
</trkpt>
<trkpt lat="57.129109" lon="9.132543">
<ele>15.420819</ele>
<time>2026-07-15T11:59:08.000Z</time>
</trkpt>
<trkpt lat="57.129170" lon="9.132593">
<ele>15.375071</ele>
<time>2026-07-15T11:59:09.000Z</time>
</trkpt>
<trkpt lat="57.129236" lon="9.132642">
<ele>15.326314</ele>
<time>2026-07-15T11:59:10.000Z</time>
</trkpt>
<trkpt lat="57.129291" lon="9.132684">
<ele>15.285518</ele>
<time>2026-07-15T11:59:11.000Z</time>
</trkpt>
<trkpt lat="57.129334" lon="9.132711">
<ele>15.254390</ele>
<time>2026-07-15T11:59:12.000Z</time>
</trkpt>
<trkpt lat="57.129398" lon="9.132753">
<ele>15.207838</ele>
<time>2026-07-15T11:59:13.000Z</time>
</trkpt>
<trkpt lat="57.129458" lon="9.132790">
<ele>15.164483</ele>
<time>2026-07-15T11:59:14.000Z</time>
</trkpt>
<trkpt lat="57.129511" lon="9.132830">
<ele>15.125238</ele>
<time>2026-07-15T11:59:15.000Z</time>
</trkpt>
<trkpt lat="57.129565" lon="9.132877">
<ele>15.084316</ele>
<time>2026-07-15T11:59:16.000Z</time>
</trkpt>
<trkpt lat="57.129623" lon="9.132912">
<ele>15.042497</ele>
<time>2026-07-15T11:59:17.000Z</time>
</trkpt>
<trkpt lat="57.129686" lon="9.132947">
<ele>14.997408</ele>
<time>2026-07-15T11:59:18.000Z</time>
</trkpt>
<trkpt lat="57.129747" lon="9.132988">
<ele>14.952916</ele>
<time>2026-07-15T11:59:19.000Z</time>
</trkpt>
<trkpt lat="57.129816" lon="9.133016">
<ele>14.904503</ele>
<time>2026-07-15T11:59:20.000Z</time>
</trkpt>
<trkpt lat="57.129879" lon="9.133032">
<ele>14.860927</ele>
<time>2026-07-15T11:59:21.000Z</time>
</trkpt>
<trkpt lat="57.129938" lon="9.133061">
<ele>14.819085</ele>
<time>2026-07-15T11:59:22.000Z</time>
</trkpt>
<trkpt lat="57.129999" lon="9.133084">
<ele>14.776421</ele>
<time>2026-07-15T11:59:23.000Z</time>
</trkpt>
<trkpt lat="57.130060" lon="9.133101">
<ele>14.734148</ele>
<time>2026-07-15T11:59:24.000Z</time>
</trkpt>
<trkpt lat="57.130121" lon="9.133118">
<ele>14.691874</ele>
<time>2026-07-15T11:59:25.000Z</time>
</trkpt>
<trkpt lat="57.130186" lon="9.133128">
<ele>14.647180</ele>
<time>2026-07-15T11:59:26.000Z</time>
</trkpt>
<trkpt lat="57.130246" lon="9.133136">
<ele>14.605960</ele>
<time>2026-07-15T11:59:27.000Z</time>
</trkpt>
<trkpt lat="57.130309" lon="9.133143">
<ele>14.562713</ele>
<time>2026-07-15T11:59:28.000Z</time>
</trkpt>
<trkpt lat="57.130368" lon="9.133146">
<ele>14.522270</ele>
<time>2026-07-15T11:59:29.000Z</time>
</trkpt>
<trkpt lat="57.130430" lon="9.133152">
<ele>14.479728</ele>
<time>2026-07-15T11:59:30.000Z</time>
</trkpt>
<trkpt lat="57.130493" lon="9.133157">
<ele>14.436520</ele>
<time>2026-07-15T11:59:31.000Z</time>
</trkpt>
<trkpt lat="57.130556" lon="9.133157">
<ele>14.393351</ele>
<time>2026-07-15T11:59:32.000Z</time>
</trkpt>
<trkpt lat="57.130614" lon="9.133149">
<ele>14.362658</ele>
<time>2026-07-15T11:59:33.000Z</time>
</trkpt>
<trkpt lat="57.130682" lon="9.133133">
<ele>14.340965</ele>
<time>2026-07-15T11:59:34.000Z</time>
</trkpt>
<trkpt lat="57.130745" lon="9.133110">
<ele>14.320642</ele>
<time>2026-07-15T11:59:35.000Z</time>
</trkpt>
<trkpt lat="57.130800" lon="9.133087">
<ele>14.302795</ele>
<time>2026-07-15T11:59:36.000Z</time>
</trkpt>
<trkpt lat="57.130863" lon="9.133065">
<ele>14.282504</ele>
<time>2026-07-15T11:59:37.000Z</time>
</trkpt>
<trkpt lat="57.130924" lon="9.133037">
<ele>14.262610</ele>
<time>2026-07-15T11:59:38.000Z</time>
</trkpt>
<trkpt lat="57.130979" lon="9.133008">
<ele>14.244507</ele>
<time>2026-07-15T11:59:39.000Z</time>
</trkpt>
<trkpt lat="57.131036" lon="9.132974">
<ele>14.225548</ele>
<time>2026-07-15T11:59:40.000Z</time>
</trkpt>
<trkpt lat="57.131095" lon="9.132932">
<ele>14.205533</ele>
<time>2026-07-15T11:59:41.000Z</time>
</trkpt>
<trkpt lat="57.131150" lon="9.132893">
<ele>14.186884</ele>
<time>2026-07-15T11:59:42.000Z</time>
</trkpt>
<trkpt lat="57.131194" lon="9.132860">
<ele>14.171851</ele>
<time>2026-07-15T11:59:43.000Z</time>
</trkpt>
<trkpt lat="57.131248" lon="9.132814">
<ele>14.153025</ele>
<time>2026-07-15T11:59:44.000Z</time>
</trkpt>
<trkpt lat="57.131294" lon="9.132772">
<ele>14.136780</ele>
<time>2026-07-15T11:59:45.000Z</time>
</trkpt>
<trkpt lat="57.131343" lon="9.132724">
<ele>14.119219</ele>
<time>2026-07-15T11:59:46.000Z</time>
</trkpt>
<trkpt lat="57.131393" lon="9.132671">
<ele>14.100965</ele>
<time>2026-07-15T11:59:47.000Z</time>
</trkpt>
<trkpt lat="57.131446" lon="9.132618">
<ele>14.081882</ele>
<time>2026-07-15T11:59:48.000Z</time>
</trkpt>
<trkpt lat="57.131498" lon="9.132568">
<ele>14.063322</ele>
<time>2026-07-15T11:59:49.000Z</time>
</trkpt>
<trkpt lat="57.131553" lon="9.132517">
<ele>14.043837</ele>
<time>2026-07-15T11:59:50.000Z</time>
</trkpt>
<trkpt lat="57.131603" lon="9.132469">
<ele>14.025996</ele>
<time>2026-07-15T11:59:51.000Z</time>
</trkpt>
<trkpt lat="57.131652" lon="9.132418">
<ele>14.008188</ele>
<time>2026-07-15T11:59:52.000Z</time>
</trkpt>
<trkpt lat="57.131706" lon="9.132365">
<ele>13.988827</ele>
<time>2026-07-15T11:59:53.000Z</time>
</trkpt>
<trkpt lat="57.131755" lon="9.132315">
<ele>13.971102</ele>
<time>2026-07-15T11:59:54.000Z</time>
</trkpt>
<trkpt lat="57.131801" lon="9.132266">
<ele>13.954288</ele>
<time>2026-07-15T11:59:55.000Z</time>
</trkpt>
<trkpt lat="57.131849" lon="9.132216">
<ele>13.936839</ele>
<time>2026-07-15T11:59:56.000Z</time>
</trkpt>
<trkpt lat="57.131900" lon="9.132164">
<ele>13.918395</ele>
<time>2026-07-15T11:59:57.000Z</time>
</trkpt>
<trkpt lat="57.131953" lon="9.132109">
<ele>13.899146</ele>
<time>2026-07-15T11:59:58.000Z</time>
</trkpt>
<trkpt lat="57.132007" lon="9.132057">
<ele>13.879865</ele>
<time>2026-07-15T11:59:59.000Z</time>
</trkpt>
<trkpt lat="57.132056" lon="9.132007">
<ele>13.862140</ele>
<time>2026-07-15T12:00:00.000Z</time>
</trkpt>
<trkpt lat="57.132104" lon="9.131960">
<ele>13.844939</ele>
<time>2026-07-15T12:00:01.000Z</time>
</trkpt>
<trkpt lat="57.132152" lon="9.131909">
<ele>13.827406</ele>
<time>2026-07-15T12:00:02.000Z</time>
</trkpt>
<trkpt lat="57.132195" lon="9.131867">
<ele>13.812005</ele>
<time>2026-07-15T12:00:03.000Z</time>
</trkpt>
<trkpt lat="57.132244" lon="9.131819">
<ele>13.806935</ele>
<time>2026-07-15T12:00:04.000Z</time>
</trkpt>
<trkpt lat="57.132286" lon="9.131774">
<ele>13.819386</ele>
<time>2026-07-15T12:00:05.000Z</time>
</trkpt>
<trkpt lat="57.132333" lon="9.131733">
<ele>13.832713</ele>
<time>2026-07-15T12:00:06.000Z</time>
</trkpt>
<trkpt lat="57.132381" lon="9.131684">
<ele>13.846776</ele>
<time>2026-07-15T12:00:07.000Z</time>
</trkpt>
<trkpt lat="57.132426" lon="9.131640">
<ele>13.859832</ele>
<time>2026-07-15T12:00:08.000Z</time>
</trkpt>
<trkpt lat="57.132476" lon="9.131594">
<ele>13.874155</ele>
<time>2026-07-15T12:00:09.000Z</time>
</trkpt>
<trkpt lat="57.132522" lon="9.131548">
<ele>13.887568</ele>
<time>2026-07-15T12:00:10.000Z</time>
</trkpt>
<trkpt lat="57.132568" lon="9.131501">
<ele>13.901048</ele>
<time>2026-07-15T12:00:11.000Z</time>
</trkpt>
<trkpt lat="57.132618" lon="9.131450">
<ele>13.915695</ele>
<time>2026-07-15T12:00:12.000Z</time>
</trkpt>
<trkpt lat="57.132668" lon="9.131402">
<ele>13.930144</ele>
<time>2026-07-15T12:00:13.000Z</time>
</trkpt>
<trkpt lat="57.132713" lon="9.131350">
<ele>13.943757</ele>
<time>2026-07-15T12:00:14.000Z</time>
</trkpt>
<trkpt lat="57.132762" lon="9.131298">
<ele>13.958248</ele>
<time>2026-07-15T12:00:15.000Z</time>
</trkpt>
<trkpt lat="57.132810" lon="9.131251">
<ele>13.972179</ele>
<time>2026-07-15T12:00:16.000Z</time>
</trkpt>
<trkpt lat="57.132858" lon="9.131200">
<ele>13.986379</ele>
<time>2026-07-15T12:00:17.000Z</time>
</trkpt>
<trkpt lat="57.132903" lon="9.131154">
<ele>13.999568</ele>
<time>2026-07-15T12:00:18.000Z</time>
</trkpt>
<trkpt lat="57.132949" lon="9.131111">
<ele>14.012787</ele>
<time>2026-07-15T12:00:19.000Z</time>
</trkpt>
<trkpt lat="57.132991" lon="9.131073">
<ele>14.024778</ele>
<time>2026-07-15T12:00:20.000Z</time>
</trkpt>
<trkpt lat="57.133041" lon="9.131028">
<ele>14.039039</ele>
<time>2026-07-15T12:00:21.000Z</time>
</trkpt>
<trkpt lat="57.133081" lon="9.130991">
<ele>14.050510</ele>
<time>2026-07-15T12:00:22.000Z</time>
</trkpt>
<trkpt lat="57.133121" lon="9.130961">
<ele>14.061578</ele>
<time>2026-07-15T12:00:23.000Z</time>
</trkpt>
<trkpt lat="57.133148" lon="9.130947">
<ele>14.068766</ele>
<time>2026-07-15T12:00:24.000Z</time>
</trkpt>
<trkpt lat="57.133255" lon="9.131071">
<ele>14.101161</ele>
<time>2026-07-15T12:07:53.000Z</time>
</trkpt>
<trkpt lat="57.133266" lon="9.131119">
<ele>14.108408</ele>
<time>2026-07-15T12:07:54.000Z</time>
</trkpt>
<trkpt lat="57.133270" lon="9.131177">
<ele>14.116540</ele>
<time>2026-07-15T12:07:55.000Z</time>
</trkpt>
<trkpt lat="57.133270" lon="9.131238">
<ele>14.125024</ele>
<time>2026-07-15T12:07:56.000Z</time>
</trkpt>
<trkpt lat="57.133270" lon="9.131304">
<ele>14.134203</ele>
<time>2026-07-15T12:07:57.000Z</time>
</trkpt>
<trkpt lat="57.133270" lon="9.131382">
<ele>14.145051</ele>
<time>2026-07-15T12:07:58.000Z</time>
</trkpt>
<trkpt lat="57.133270" lon="9.131463">
<ele>14.156317</ele>
<time>2026-07-15T12:07:59.000Z</time>
</trkpt>
<trkpt lat="57.133274" lon="9.131544">
<ele>14.167629</ele>
<time>2026-07-15T12:08:00.000Z</time>
</trkpt>
<trkpt lat="57.133274" lon="9.131621">
<ele>14.178338</ele>
<time>2026-07-15T12:08:01.000Z</time>
</trkpt>
<trkpt lat="57.133270" lon="9.131703">
<ele>14.189789</ele>
<time>2026-07-15T12:08:02.000Z</time>
</trkpt>
<trkpt lat="57.133266" lon="9.131787">
<ele>14.201517</ele>
<time>2026-07-15T12:08:03.000Z</time>
</trkpt>
<trkpt lat="57.133266" lon="9.131873">
<ele>14.213478</ele>
<time>2026-07-15T12:08:04.000Z</time>
</trkpt>
<trkpt lat="57.133263" lon="9.131959">
<ele>14.225464</ele>
<time>2026-07-15T12:08:05.000Z</time>
</trkpt>
<trkpt lat="57.133263" lon="9.132043">
<ele>14.237147</ele>
<time>2026-07-15T12:08:06.000Z</time>
</trkpt>
<trkpt lat="57.133259" lon="9.132129">
<ele>14.249152</ele>
<time>2026-07-15T12:08:07.000Z</time>
</trkpt>
<trkpt lat="57.133255" lon="9.132215">
<ele>14.261157</ele>
<time>2026-07-15T12:08:08.000Z</time>
</trkpt>
<trkpt lat="57.133247" lon="9.132306">
<ele>14.246756</ele>
<time>2026-07-15T12:08:09.000Z</time>
</trkpt>
<trkpt lat="57.133244" lon="9.132399">
<ele>14.229485</ele>
<time>2026-07-15T12:08:10.000Z</time>
</trkpt>
<trkpt lat="57.133236" lon="9.132493">
<ele>14.211845</ele>
<time>2026-07-15T12:08:11.000Z</time>
</trkpt>
<trkpt lat="57.133232" lon="9.132585">
<ele>14.194735</ele>
<time>2026-07-15T12:08:12.000Z</time>
</trkpt>
<trkpt lat="57.133224" lon="9.132685">
<ele>14.175996</ele>
<time>2026-07-15T12:08:13.000Z</time>
</trkpt>
<trkpt lat="57.133221" lon="9.132783">
<ele>14.157800</ele>
<time>2026-07-15T12:08:14.000Z</time>
</trkpt>
<trkpt lat="57.133217" lon="9.132877">
<ele>14.140320</ele>
<time>2026-07-15T12:08:15.000Z</time>
</trkpt>
<trkpt lat="57.133209" lon="9.132974">
<ele>14.122131</ele>
<time>2026-07-15T12:08:16.000Z</time>
</trkpt>
<trkpt lat="57.133205" lon="9.133071">
<ele>14.104097</ele>
<time>2026-07-15T12:08:17.000Z</time>
</trkpt>
<trkpt lat="57.133202" lon="9.133166">
<ele>14.086455</ele>
<time>2026-07-15T12:08:18.000Z</time>
</trkpt>
<trkpt lat="57.133202" lon="9.133263">
<ele>14.068473</ele>
<time>2026-07-15T12:08:19.000Z</time>
</trkpt>
<trkpt lat="57.133202" lon="9.133361">
<ele>14.050305</ele>
<time>2026-07-15T12:08:20.000Z</time>
</trkpt>
<trkpt lat="57.133198" lon="9.133459">
<ele>14.032086</ele>
<time>2026-07-15T12:08:21.000Z</time>
</trkpt>
<trkpt lat="57.133194" lon="9.133558">
<ele>14.013682</ele>
<time>2026-07-15T12:08:22.000Z</time>
</trkpt>
<trkpt lat="57.133190" lon="9.133655">
<ele>13.995647</ele>
<time>2026-07-15T12:08:23.000Z</time>
</trkpt>
<trkpt lat="57.133182" lon="9.133757">
<ele>13.976542</ele>
<time>2026-07-15T12:08:24.000Z</time>
</trkpt>
<trkpt lat="57.133175" lon="9.133860">
<ele>13.957298</ele>
<time>2026-07-15T12:08:25.000Z</time>
</trkpt>
<trkpt lat="57.133171" lon="9.133960">
<ele>13.938709</ele>
<time>2026-07-15T12:08:26.000Z</time>
</trkpt>
<trkpt lat="57.133171" lon="9.134061">
<ele>13.919985</ele>
<time>2026-07-15T12:08:27.000Z</time>
</trkpt>
<trkpt lat="57.133167" lon="9.134163">
<ele>13.901026</ele>
<time>2026-07-15T12:08:28.000Z</time>
</trkpt>
<trkpt lat="57.133163" lon="9.134267">
<ele>13.881698</ele>
<time>2026-07-15T12:08:29.000Z</time>
</trkpt>
<trkpt lat="57.133156" lon="9.134366">
<ele>13.863189</ele>
<time>2026-07-15T12:08:30.000Z</time>
</trkpt>
<trkpt lat="57.133148" lon="9.134467">
<ele>13.844267</ele>
<time>2026-07-15T12:08:31.000Z</time>
</trkpt>
<trkpt lat="57.133144" lon="9.134568">
<ele>13.825493</ele>
<time>2026-07-15T12:08:32.000Z</time>
</trkpt>
<trkpt lat="57.133137" lon="9.134670">
<ele>13.806433</ele>
<time>2026-07-15T12:08:33.000Z</time>
</trkpt>
<trkpt lat="57.133133" lon="9.134778">
<ele>13.786365</ele>
<time>2026-07-15T12:08:34.000Z</time>
</trkpt>
<trkpt lat="57.133129" lon="9.134883">
<ele>13.766851</ele>
<time>2026-07-15T12:08:35.000Z</time>
</trkpt>
<trkpt lat="57.133125" lon="9.134988">
<ele>13.747338</ele>
<time>2026-07-15T12:08:36.000Z</time>
</trkpt>
<trkpt lat="57.133121" lon="9.135093">
<ele>13.727824</ele>
<time>2026-07-15T12:08:37.000Z</time>
</trkpt>
<trkpt lat="57.133118" lon="9.135201">
<ele>13.707776</ele>
<time>2026-07-15T12:08:38.000Z</time>
</trkpt>
<trkpt lat="57.133114" lon="9.135309">
<ele>13.687708</ele>
<time>2026-07-15T12:08:39.000Z</time>
</trkpt>
<trkpt lat="57.133110" lon="9.135413">
<ele>13.668380</ele>
<time>2026-07-15T12:08:40.000Z</time>
</trkpt>
<trkpt lat="57.133106" lon="9.135523">
<ele>13.647941</ele>
<time>2026-07-15T12:08:41.000Z</time>
</trkpt>
<trkpt lat="57.133102" lon="9.135632">
<ele>13.633420</ele>
<time>2026-07-15T12:08:42.000Z</time>
</trkpt>
<trkpt lat="57.133095" lon="9.135743">
<ele>13.618585</ele>
<time>2026-07-15T12:08:43.000Z</time>
</trkpt>
<trkpt lat="57.133095" lon="9.135860">
<ele>13.603052</ele>
<time>2026-07-15T12:08:44.000Z</time>
</trkpt>
<trkpt lat="57.133083" lon="9.135973">
<ele>13.587766</ele>
<time>2026-07-15T12:08:45.000Z</time>
</trkpt>
<trkpt lat="57.133076" lon="9.136090">
<ele>13.572139</ele>
<time>2026-07-15T12:08:46.000Z</time>
</trkpt>
<trkpt lat="57.133064" lon="9.136205">
<ele>13.556592</ele>
<time>2026-07-15T12:08:47.000Z</time>
</trkpt>
<trkpt lat="57.133057" lon="9.136318">
<ele>13.541493</ele>
<time>2026-07-15T12:08:48.000Z</time>
</trkpt>
<trkpt lat="57.133045" lon="9.136434">
<ele>13.525816</ele>
<time>2026-07-15T12:08:49.000Z</time>
</trkpt>
<trkpt lat="57.133038" lon="9.136549">
<ele>13.510453</ele>
<time>2026-07-15T12:08:50.000Z</time>
</trkpt>
<trkpt lat="57.133030" lon="9.136662">
<ele>13.495324</ele>
<time>2026-07-15T12:08:51.000Z</time>
</trkpt>
<trkpt lat="57.133022" lon="9.136773">
<ele>13.480458</ele>
<time>2026-07-15T12:08:52.000Z</time>
</trkpt>
<trkpt lat="57.133006" lon="9.136903">
<ele>13.462761</ele>
<time>2026-07-15T12:08:53.000Z</time>
</trkpt>
<trkpt lat="57.132990" lon="9.137033">
<ele>13.445064</ele>
<time>2026-07-15T12:08:54.000Z</time>
</trkpt>
<trkpt lat="57.132973" lon="9.137162">
<ele>13.427441</ele>
<time>2026-07-15T12:08:55.000Z</time>
</trkpt>
<trkpt lat="57.132971" lon="9.137270">
<ele>13.413094</ele>
<time>2026-07-15T12:08:56.000Z</time>
</trkpt>
<trkpt lat="57.132970" lon="9.137376">
<ele>13.399020</ele>
<time>2026-07-15T12:08:57.000Z</time>
</trkpt>
<trkpt lat="57.132965" lon="9.137486">
<ele>13.384365</ele>
<time>2026-07-15T12:08:58.000Z</time>
</trkpt>
<trkpt lat="57.132961" lon="9.137591">
<ele>13.370391</ele>
<time>2026-07-15T12:08:59.000Z</time>
</trkpt>
<trkpt lat="57.132950" lon="9.137710">
<ele>13.354365</ele>
<time>2026-07-15T12:09:00.000Z</time>
</trkpt>
<trkpt lat="57.132942" lon="9.137822">
<ele>13.339368</ele>
<time>2026-07-15T12:09:01.000Z</time>
</trkpt>
<trkpt lat="57.132935" lon="9.137934">
<ele>13.324401</ele>
<time>2026-07-15T12:09:02.000Z</time>
</trkpt>
<trkpt lat="57.132931" lon="9.138043">
<ele>13.309897</ele>
<time>2026-07-15T12:09:03.000Z</time>
</trkpt>
<trkpt lat="57.132923" lon="9.138153">
<ele>13.295163</ele>
<time>2026-07-15T12:09:04.000Z</time>
</trkpt>
<trkpt lat="57.132919" lon="9.138258">
<ele>13.281189</ele>
<time>2026-07-15T12:09:05.000Z</time>
</trkpt>
<trkpt lat="57.132915" lon="9.138362">
<ele>13.267347</ele>
<time>2026-07-15T12:09:06.000Z</time>
</trkpt>
<trkpt lat="57.132915" lon="9.138468">
<ele>13.253275</ele>
<time>2026-07-15T12:09:07.000Z</time>
</trkpt>
<trkpt lat="57.132912" lon="9.138571">
<ele>13.239581</ele>
<time>2026-07-15T12:09:08.000Z</time>
</trkpt>
<trkpt lat="57.132908" lon="9.138680">
<ele>13.225077</ele>
<time>2026-07-15T12:09:09.000Z</time>
</trkpt>
<trkpt lat="57.132900" lon="9.138789">
<ele>13.210475</ele>
<time>2026-07-15T12:09:10.000Z</time>
</trkpt>
<trkpt lat="57.132900" lon="9.138895">
<ele>13.210627</ele>
<time>2026-07-15T12:09:11.000Z</time>
</trkpt>
<trkpt lat="57.132893" lon="9.139005">
<ele>13.214151</ele>
<time>2026-07-15T12:09:12.000Z</time>
</trkpt>
<trkpt lat="57.132889" lon="9.139113">
<ele>13.217595</ele>
<time>2026-07-15T12:09:13.000Z</time>
</trkpt>
<trkpt lat="57.132885" lon="9.139216">
<ele>13.220881</ele>
<time>2026-07-15T12:09:14.000Z</time>
</trkpt>
<trkpt lat="57.132885" lon="9.139319">
<ele>13.224158</ele>
<time>2026-07-15T12:09:15.000Z</time>
</trkpt>
<trkpt lat="57.132881" lon="9.139425">
<ele>13.227539</ele>
<time>2026-07-15T12:09:16.000Z</time>
</trkpt>
<trkpt lat="57.132873" lon="9.139530">
<ele>13.230913</ele>
<time>2026-07-15T12:09:17.000Z</time>
</trkpt>
<trkpt lat="57.132870" lon="9.139633">
<ele>13.234195</ele>
<time>2026-07-15T12:09:18.000Z</time>
</trkpt>
<trkpt lat="57.132866" lon="9.139737">
<ele>13.237513</ele>
<time>2026-07-15T12:09:19.000Z</time>
</trkpt>
<trkpt lat="57.132862" lon="9.139837">
<ele>13.240703</ele>
<time>2026-07-15T12:09:20.000Z</time>
</trkpt>
<trkpt lat="57.132858" lon="9.139942">
<ele>13.244053</ele>
<time>2026-07-15T12:09:21.000Z</time>
</trkpt>
<trkpt lat="57.132854" lon="9.140048">
<ele>13.247434</ele>
<time>2026-07-15T12:09:22.000Z</time>
</trkpt>
<trkpt lat="57.132847" lon="9.140156">
<ele>13.250895</ele>
<time>2026-07-15T12:09:23.000Z</time>
</trkpt>
<trkpt lat="57.132835" lon="9.140267">
<ele>13.254496</ele>
<time>2026-07-15T12:09:24.000Z</time>
</trkpt>
<trkpt lat="57.132831" lon="9.140381">
<ele>13.258131</ele>
<time>2026-07-15T12:09:25.000Z</time>
</trkpt>
<trkpt lat="57.132826" lon="9.140465">
<ele>13.260820</ele>
<time>2026-07-15T12:09:26.000Z</time>
</trkpt>
<trkpt lat="57.132820" lon="9.140595">
<ele>13.264971</ele>
<time>2026-07-15T12:09:27.000Z</time>
</trkpt>
<trkpt lat="57.132812" lon="9.140714">
<ele>13.268787</ele>
<time>2026-07-15T12:09:28.000Z</time>
</trkpt>
<trkpt lat="57.132805" lon="9.140828">
<ele>13.272437</ele>
<time>2026-07-15T12:09:29.000Z</time>
</trkpt>
<trkpt lat="57.132801" lon="9.140937">
<ele>13.275914</ele>
<time>2026-07-15T12:09:30.000Z</time>
</trkpt>
<trkpt lat="57.132793" lon="9.141048">
<ele>13.279477</ele>
<time>2026-07-15T12:09:31.000Z</time>
</trkpt>
<trkpt lat="57.132790" lon="9.141161">
<ele>13.283076</ele>
<time>2026-07-15T12:09:32.000Z</time>
</trkpt>
<trkpt lat="57.132786" lon="9.141268">
<ele>13.286489</ele>
<time>2026-07-15T12:09:33.000Z</time>
</trkpt>
<trkpt lat="57.132782" lon="9.141375">
<ele>13.289902</ele>
<time>2026-07-15T12:09:34.000Z</time>
</trkpt>
<trkpt lat="57.132778" lon="9.141479">
<ele>13.293220</ele>
<time>2026-07-15T12:09:35.000Z</time>
</trkpt>
<trkpt lat="57.132770" lon="9.141589">
<ele>13.296751</ele>
<time>2026-07-15T12:09:36.000Z</time>
</trkpt>
<trkpt lat="57.132763" lon="9.141691">
<ele>13.300022</ele>
<time>2026-07-15T12:09:37.000Z</time>
</trkpt>
<trkpt lat="57.132755" lon="9.141798">
<ele>13.303459</ele>
<time>2026-07-15T12:09:38.000Z</time>
</trkpt>
<trkpt lat="57.132751" lon="9.141909">
<ele>13.306999</ele>
<time>2026-07-15T12:09:39.000Z</time>
</trkpt>
<trkpt lat="57.132748" lon="9.142019">
<ele>13.310504</ele>
<time>2026-07-15T12:09:40.000Z</time>
</trkpt>
<trkpt lat="57.132740" lon="9.142126">
<ele>13.314608</ele>
<time>2026-07-15T12:09:41.000Z</time>
</trkpt>
<trkpt lat="57.132740" lon="9.142233">
<ele>13.321768</ele>
<time>2026-07-15T12:09:42.000Z</time>
</trkpt>
<trkpt lat="57.132732" lon="9.142338">
<ele>13.328863</ele>
<time>2026-07-15T12:09:43.000Z</time>
</trkpt>
<trkpt lat="57.132729" lon="9.142442">
<ele>13.335832</ele>
<time>2026-07-15T12:09:44.000Z</time>
</trkpt>
<trkpt lat="57.132725" lon="9.142547">
<ele>13.342876</ele>
<time>2026-07-15T12:09:45.000Z</time>
</trkpt>
<trkpt lat="57.132721" lon="9.142657">
<ele>13.350254</ele>
<time>2026-07-15T12:09:46.000Z</time>
</trkpt>
<trkpt lat="57.132713" lon="9.142767">
<ele>13.357680</ele>
<time>2026-07-15T12:09:47.000Z</time>
</trkpt>
<trkpt lat="57.132706" lon="9.142878">
<ele>13.365158</ele>
<time>2026-07-15T12:09:48.000Z</time>
</trkpt>
<trkpt lat="57.132698" lon="9.142989">
<ele>13.372651</ele>
<time>2026-07-15T12:09:49.000Z</time>
</trkpt>
<trkpt lat="57.132686" lon="9.143109">
<ele>13.380817</ele>
<time>2026-07-15T12:09:50.000Z</time>
</trkpt>
<trkpt lat="57.132675" lon="9.143225">
<ele>13.388697</ele>
<time>2026-07-15T12:09:51.000Z</time>
</trkpt>
<trkpt lat="57.132667" lon="9.143339">
<ele>13.396389</ele>
<time>2026-07-15T12:09:52.000Z</time>
</trkpt>
<trkpt lat="57.132660" lon="9.143450">
<ele>13.403867</ele>
<time>2026-07-15T12:09:53.000Z</time>
</trkpt>
<trkpt lat="57.132656" lon="9.143562">
<ele>13.411378</ele>
<time>2026-07-15T12:09:54.000Z</time>
</trkpt>
<trkpt lat="57.132648" lon="9.143673">
<ele>13.418871</ele>
<time>2026-07-15T12:09:55.000Z</time>
</trkpt>
<trkpt lat="57.132645" lon="9.143782">
<ele>13.426174</ele>
<time>2026-07-15T12:09:56.000Z</time>
</trkpt>
<trkpt lat="57.132641" lon="9.143890">
<ele>13.433418</ele>
<time>2026-07-15T12:09:57.000Z</time>
</trkpt>
<trkpt lat="57.132637" lon="9.143999">
<ele>13.440729</ele>
<time>2026-07-15T12:09:58.000Z</time>
</trkpt>
<trkpt lat="57.132629" lon="9.144108">
<ele>13.448089</ele>
<time>2026-07-15T12:09:59.000Z</time>
</trkpt>
<trkpt lat="57.132622" lon="9.144213">
<ele>13.455168</ele>
<time>2026-07-15T12:10:00.000Z</time>
</trkpt>
<trkpt lat="57.132618" lon="9.144322">
<ele>13.462479</ele>
<time>2026-07-15T12:10:01.000Z</time>
</trkpt>
<trkpt lat="57.132610" lon="9.144431">
<ele>13.469840</ele>
<time>2026-07-15T12:10:02.000Z</time>
</trkpt>
<trkpt lat="57.132603" lon="9.144538">
<ele>13.477052</ele>
<time>2026-07-15T12:10:03.000Z</time>
</trkpt>
<trkpt lat="57.132595" lon="9.144649">
<ele>13.484545</ele>
<time>2026-07-15T12:10:04.000Z</time>
</trkpt>
<trkpt lat="57.132587" lon="9.144759">
<ele>13.491971</ele>
<time>2026-07-15T12:10:05.000Z</time>
</trkpt>
<trkpt lat="57.132584" lon="9.144868">
<ele>13.499275</ele>
<time>2026-07-15T12:10:06.000Z</time>
</trkpt>
<trkpt lat="57.132580" lon="9.144975">
<ele>13.506452</ele>
<time>2026-07-15T12:10:07.000Z</time>
</trkpt>
<trkpt lat="57.132572" lon="9.145083">
<ele>13.513746</ele>
<time>2026-07-15T12:10:08.000Z</time>
</trkpt>
<trkpt lat="57.132568" lon="9.145190">
<ele>13.520923</ele>
<time>2026-07-15T12:10:09.000Z</time>
</trkpt>
<trkpt lat="57.132561" lon="9.145296">
<ele>13.528069</ele>
<time>2026-07-15T12:10:10.000Z</time>
</trkpt>
<trkpt lat="57.132557" lon="9.145401">
<ele>13.535113</ele>
<time>2026-07-15T12:10:11.000Z</time>
</trkpt>
<trkpt lat="57.132553" lon="9.145504">
<ele>13.523671</ele>
<time>2026-07-15T12:10:12.000Z</time>
</trkpt>
<trkpt lat="57.132549" lon="9.145611">
<ele>13.511769</ele>
<time>2026-07-15T12:10:13.000Z</time>
</trkpt>
<trkpt lat="57.132545" lon="9.145719">
<ele>13.499755</ele>
<time>2026-07-15T12:10:14.000Z</time>
</trkpt>
<trkpt lat="57.132538" lon="9.145826">
<ele>13.487795</ele>
<time>2026-07-15T12:10:15.000Z</time>
</trkpt>
<trkpt lat="57.132530" lon="9.145934">
<ele>13.475699</ele>
<time>2026-07-15T12:10:16.000Z</time>
</trkpt>
<trkpt lat="57.132530" lon="9.146043">
<ele>13.463602</ele>
<time>2026-07-15T12:10:17.000Z</time>
</trkpt>
<trkpt lat="57.132526" lon="9.146150">
<ele>13.451700</ele>
<time>2026-07-15T12:10:18.000Z</time>
</trkpt>
<trkpt lat="57.132530" lon="9.146259">
<ele>13.439576</ele>
<time>2026-07-15T12:10:19.000Z</time>
</trkpt>
<trkpt lat="57.132530" lon="9.146369">
<ele>13.427369</ele>
<time>2026-07-15T12:10:20.000Z</time>
</trkpt>
<trkpt lat="57.132534" lon="9.146477">
<ele>13.415356</ele>
<time>2026-07-15T12:10:21.000Z</time>
</trkpt>
<trkpt lat="57.132538" lon="9.146586">
<ele>13.403232</ele>
<time>2026-07-15T12:10:22.000Z</time>
</trkpt>
<trkpt lat="57.132549" lon="9.146687">
<ele>13.391800</ele>
<time>2026-07-15T12:10:23.000Z</time>
</trkpt>
<trkpt lat="57.132561" lon="9.146788">
<ele>13.380326</ele>
<time>2026-07-15T12:10:24.000Z</time>
</trkpt>
<trkpt lat="57.132572" lon="9.146894">
<ele>13.368349</ele>
<time>2026-07-15T12:10:25.000Z</time>
</trkpt>
<trkpt lat="57.132584" lon="9.146999">
<ele>13.356441</ele>
<time>2026-07-15T12:10:26.000Z</time>
</trkpt>
<trkpt lat="57.132599" lon="9.147104">
<ele>13.344392</ele>
<time>2026-07-15T12:10:27.000Z</time>
</trkpt>
<trkpt lat="57.132614" lon="9.147206">
<ele>13.332664</ele>
<time>2026-07-15T12:10:28.000Z</time>
</trkpt>
<trkpt lat="57.132633" lon="9.147302">
<ele>13.321324</ele>
<time>2026-07-15T12:10:29.000Z</time>
</trkpt>
<trkpt lat="57.132652" lon="9.147399">
<ele>13.309880</ele>
<time>2026-07-15T12:10:30.000Z</time>
</trkpt>
<trkpt lat="57.132675" lon="9.147494">
<ele>13.298336</ele>
<time>2026-07-15T12:10:31.000Z</time>
</trkpt>
<trkpt lat="57.132698" lon="9.147588">
<ele>13.286893</ele>
<time>2026-07-15T12:10:32.000Z</time>
</trkpt>
<trkpt lat="57.132721" lon="9.147682">
<ele>13.275450</ele>
<time>2026-07-15T12:10:33.000Z</time>
</trkpt>
<trkpt lat="57.132740" lon="9.147778">
<ele>13.264110</ele>
<time>2026-07-15T12:10:34.000Z</time>
</trkpt>
<trkpt lat="57.132767" lon="9.147875">
<ele>13.252012</ele>
<time>2026-07-15T12:10:35.000Z</time>
</trkpt>
<trkpt lat="57.132794" lon="9.147967">
<ele>13.240406</ele>
<time>2026-07-15T12:10:36.000Z</time>
</trkpt>
<trkpt lat="57.132820" lon="9.148060">
<ele>13.228796</ele>
<time>2026-07-15T12:10:37.000Z</time>
</trkpt>
<trkpt lat="57.132854" lon="9.148148">
<ele>13.216808</ele>
<time>2026-07-15T12:10:38.000Z</time>
</trkpt>
<trkpt lat="57.132885" lon="9.148236">
<ele>13.205165</ele>
<time>2026-07-15T12:10:39.000Z</time>
</trkpt>
<trkpt lat="57.132919" lon="9.148322">
<ele>13.193358</ele>
<time>2026-07-15T12:10:40.000Z</time>
</trkpt>
<trkpt lat="57.132954" lon="9.148409">
<ele>13.181339</ele>
<time>2026-07-15T12:10:41.000Z</time>
</trkpt>
<trkpt lat="57.132992" lon="9.148497">
<ele>13.168859</ele>
<time>2026-07-15T12:10:42.000Z</time>
</trkpt>
<trkpt lat="57.133030" lon="9.148585">
<ele>13.166833</ele>
<time>2026-07-15T12:10:43.000Z</time>
</trkpt>
<trkpt lat="57.133072" lon="9.148673">
<ele>13.166255</ele>
<time>2026-07-15T12:10:44.000Z</time>
</trkpt>
<trkpt lat="57.133110" lon="9.148757">
<ele>13.165716</ele>
<time>2026-07-15T12:10:45.000Z</time>
</trkpt>
<trkpt lat="57.133152" lon="9.148846">
<ele>13.165135</ele>
<time>2026-07-15T12:10:46.000Z</time>
</trkpt>
<trkpt lat="57.133190" lon="9.148934">
<ele>13.164580</ele>
<time>2026-07-15T12:10:47.000Z</time>
</trkpt>
<trkpt lat="57.133228" lon="9.149022">
<ele>13.164026</ele>
<time>2026-07-15T12:10:48.000Z</time>
</trkpt>
<trkpt lat="57.133267" lon="9.149109">
<ele>13.163470</ele>
<time>2026-07-15T12:10:49.000Z</time>
</trkpt>
<trkpt lat="57.133301" lon="9.149201">
<ele>13.162921</ele>
<time>2026-07-15T12:10:50.000Z</time>
</trkpt>
<trkpt lat="57.133335" lon="9.149295">
<ele>13.162365</ele>
<time>2026-07-15T12:10:51.000Z</time>
</trkpt>
<trkpt lat="57.133362" lon="9.149389">
<ele>13.161840</ele>
<time>2026-07-15T12:10:52.000Z</time>
</trkpt>
<trkpt lat="57.133391" lon="9.149481">
<ele>13.161316</ele>
<time>2026-07-15T12:10:53.000Z</time>
</trkpt>
<trkpt lat="57.133423" lon="9.149580">
<ele>13.160748</ele>
<time>2026-07-15T12:10:54.000Z</time>
</trkpt>
<trkpt lat="57.133453" lon="9.149680">
<ele>13.160185</ele>
<time>2026-07-15T12:10:55.000Z</time>
</trkpt>
<trkpt lat="57.133480" lon="9.149781">
<ele>13.159630</ele>
<time>2026-07-15T12:10:56.000Z</time>
</trkpt>
<trkpt lat="57.133503" lon="9.149884">
<ele>13.159081</ele>
<time>2026-07-15T12:10:57.000Z</time>
</trkpt>
<trkpt lat="57.133522" lon="9.149989">
<ele>13.158535</ele>
<time>2026-07-15T12:10:58.000Z</time>
</trkpt>
<trkpt lat="57.133545" lon="9.150098">
<ele>13.157959</ele>
<time>2026-07-15T12:10:59.000Z</time>
</trkpt>
<trkpt lat="57.133568" lon="9.150205">
<ele>13.157392</ele>
<time>2026-07-15T12:11:00.000Z</time>
</trkpt>
<trkpt lat="57.133587" lon="9.150310">
<ele>13.156846</ele>
<time>2026-07-15T12:11:01.000Z</time>
</trkpt>
<trkpt lat="57.133602" lon="9.150415">
<ele>13.156311</ele>
<time>2026-07-15T12:11:02.000Z</time>
</trkpt>
<trkpt lat="57.133614" lon="9.150523">
<ele>13.155768</ele>
<time>2026-07-15T12:11:03.000Z</time>
</trkpt>
<trkpt lat="57.133625" lon="9.150633">
<ele>13.155216</ele>
<time>2026-07-15T12:11:04.000Z</time>
</trkpt>
<trkpt lat="57.133637" lon="9.150740">
<ele>13.154678</ele>
<time>2026-07-15T12:11:05.000Z</time>
</trkpt>
<trkpt lat="57.133648" lon="9.150851">
<ele>13.154122</ele>
<time>2026-07-15T12:11:06.000Z</time>
</trkpt>
<trkpt lat="57.133652" lon="9.150958">
<ele>13.153593</ele>
<time>2026-07-15T12:11:07.000Z</time>
</trkpt>
<trkpt lat="57.133659" lon="9.151064">
<ele>13.153067</ele>
<time>2026-07-15T12:11:08.000Z</time>
</trkpt>
<trkpt lat="57.133659" lon="9.151171">
<ele>13.152539</ele>
<time>2026-07-15T12:11:09.000Z</time>
</trkpt>
<trkpt lat="57.133659" lon="9.151281">
<ele>13.151997</ele>
<time>2026-07-15T12:11:10.000Z</time>
</trkpt>
<trkpt lat="57.133656" lon="9.151391">
<ele>13.151454</ele>
<time>2026-07-15T12:11:11.000Z</time>
</trkpt>
<trkpt lat="57.133652" lon="9.151504">
<ele>13.151451</ele>
<time>2026-07-15T12:11:12.000Z</time>
</trkpt>
<trkpt lat="57.133644" lon="9.151613">
<ele>13.154390</ele>
<time>2026-07-15T12:11:13.000Z</time>
</trkpt>
<trkpt lat="57.133636" lon="9.151724">
<ele>13.157382</ele>
<time>2026-07-15T12:11:14.000Z</time>
</trkpt>
<trkpt lat="57.133629" lon="9.151835">
<ele>13.160368</ele>
<time>2026-07-15T12:11:15.000Z</time>
</trkpt>
<trkpt lat="57.133625" lon="9.151948">
<ele>13.163394</ele>
<time>2026-07-15T12:11:16.000Z</time>
</trkpt>
<trkpt lat="57.133617" lon="9.152057">
<ele>13.166333</ele>
<time>2026-07-15T12:11:17.000Z</time>
</trkpt>
<trkpt lat="57.133610" lon="9.152167">
<ele>13.169292</ele>
<time>2026-07-15T12:11:18.000Z</time>
</trkpt>
<trkpt lat="57.133598" lon="9.152278">
<ele>13.172316</ele>
<time>2026-07-15T12:11:19.000Z</time>
</trkpt>
<trkpt lat="57.133591" lon="9.152388">
<ele>13.175276</ele>
<time>2026-07-15T12:11:20.000Z</time>
</trkpt>
<trkpt lat="57.133583" lon="9.152499">
<ele>13.178267</ele>
<time>2026-07-15T12:11:21.000Z</time>
</trkpt>
<trkpt lat="57.133575" lon="9.152608">
<ele>13.181206</ele>
<time>2026-07-15T12:11:22.000Z</time>
</trkpt>
<trkpt lat="57.133572" lon="9.152714">
<ele>13.184043</ele>
<time>2026-07-15T12:11:23.000Z</time>
</trkpt>
<trkpt lat="57.133564" lon="9.152823">
<ele>13.186982</ele>
<time>2026-07-15T12:11:24.000Z</time>
</trkpt>
<trkpt lat="57.133556" lon="9.152929">
<ele>13.189841</ele>
<time>2026-07-15T12:11:25.000Z</time>
</trkpt>
<trkpt lat="57.133549" lon="9.153035">
<ele>13.192694</ele>
<time>2026-07-15T12:11:26.000Z</time>
</trkpt>
<trkpt lat="57.133541" lon="9.153145">
<ele>13.195660</ele>
<time>2026-07-15T12:11:27.000Z</time>
</trkpt>
<trkpt lat="57.133533" lon="9.153254">
<ele>13.198599</ele>
<time>2026-07-15T12:11:28.000Z</time>
</trkpt>
<trkpt lat="57.133526" lon="9.153364">
<ele>13.201558</ele>
<time>2026-07-15T12:11:29.000Z</time>
</trkpt>
<trkpt lat="57.133518" lon="9.153476">
<ele>13.204576</ele>
<time>2026-07-15T12:11:30.000Z</time>
</trkpt>
<trkpt lat="57.133511" lon="9.153586">
<ele>13.207536</ele>
<time>2026-07-15T12:11:31.000Z</time>
</trkpt>
<trkpt lat="57.133507" lon="9.153691">
<ele>13.210348</ele>
<time>2026-07-15T12:11:32.000Z</time>
</trkpt>
<trkpt lat="57.133503" lon="9.153798">
<ele>13.213214</ele>
<time>2026-07-15T12:11:33.000Z</time>
</trkpt>
<trkpt lat="57.133491" lon="9.153904">
<ele>13.216107</ele>
<time>2026-07-15T12:11:34.000Z</time>
</trkpt>
<trkpt lat="57.133484" lon="9.154011">
<ele>13.218987</ele>
<time>2026-07-15T12:11:35.000Z</time>
</trkpt>
<trkpt lat="57.133480" lon="9.154115">
<ele>13.221773</ele>
<time>2026-07-15T12:11:36.000Z</time>
</trkpt>
<trkpt lat="57.133472" lon="9.154220">
<ele>13.224606</ele>
<time>2026-07-15T12:11:37.000Z</time>
</trkpt>
<trkpt lat="57.133469" lon="9.154319">
<ele>13.227255</ele>
<time>2026-07-15T12:11:38.000Z</time>
</trkpt>
<trkpt lat="57.133472" lon="9.154416">
<ele>13.229851</ele>
<time>2026-07-15T12:11:39.000Z</time>
</trkpt>
<trkpt lat="57.133476" lon="9.154510">
<ele>13.232371</ele>
<time>2026-07-15T12:11:40.000Z</time>
</trkpt>
<trkpt lat="57.133472" lon="9.154606">
<ele>13.234943</ele>
<time>2026-07-15T12:11:41.000Z</time>
</trkpt>
<trkpt lat="57.133472" lon="9.154708">
<ele>13.237669</ele>
<time>2026-07-15T12:11:42.000Z</time>
</trkpt>
<trkpt lat="57.133465" lon="9.154812">
<ele>13.240657</ele>
<time>2026-07-15T12:11:43.000Z</time>
</trkpt>
<trkpt lat="57.133453" lon="9.154922">
<ele>13.244263</ele>
<time>2026-07-15T12:11:44.000Z</time>
</trkpt>
<trkpt lat="57.133446" lon="9.155035">
<ele>13.247917</ele>
<time>2026-07-15T12:11:45.000Z</time>
</trkpt>
<trkpt lat="57.133438" lon="9.155147">
<ele>13.251548</ele>
<time>2026-07-15T12:11:46.000Z</time>
</trkpt>
<trkpt lat="57.133430" lon="9.155258">
<ele>13.255146</ele>
<time>2026-07-15T12:11:47.000Z</time>
</trkpt>
<trkpt lat="57.133423" lon="9.155374">
<ele>13.258897</ele>
<time>2026-07-15T12:11:48.000Z</time>
</trkpt>
<trkpt lat="57.133415" lon="9.155486">
<ele>13.262527</ele>
<time>2026-07-15T12:11:49.000Z</time>
</trkpt>
<trkpt lat="57.133404" lon="9.155596">
<ele>13.266121</ele>
<time>2026-07-15T12:11:50.000Z</time>
</trkpt>
<trkpt lat="57.133396" lon="9.155708">
<ele>13.269751</ele>
<time>2026-07-15T12:11:51.000Z</time>
</trkpt>
<trkpt lat="57.133385" lon="9.155825">
<ele>13.273567</ele>
<time>2026-07-15T12:11:52.000Z</time>
</trkpt>
<trkpt lat="57.133369" lon="9.155938">
<ele>13.277320</ele>
<time>2026-07-15T12:11:53.000Z</time>
</trkpt>
<trkpt lat="57.133362" lon="9.156048">
<ele>13.280879</ele>
<time>2026-07-15T12:11:54.000Z</time>
</trkpt>
<trkpt lat="57.133350" lon="9.156157">
<ele>13.284453</ele>
<time>2026-07-15T12:11:55.000Z</time>
</trkpt>
<trkpt lat="57.133347" lon="9.156266">
<ele>13.287960</ele>
<time>2026-07-15T12:11:56.000Z</time>
</trkpt>
<trkpt lat="57.133339" lon="9.156374">
<ele>13.291463</ele>
<time>2026-07-15T12:11:57.000Z</time>
</trkpt>
<trkpt lat="57.133335" lon="9.156481">
<ele>13.294910</ele>
<time>2026-07-15T12:11:58.000Z</time>
</trkpt>
<trkpt lat="57.133324" lon="9.156592">
<ele>13.298536</ele>
<time>2026-07-15T12:11:59.000Z</time>
</trkpt>
<trkpt lat="57.133312" lon="9.156704">
<ele>13.302204</ele>
<time>2026-07-15T12:12:00.000Z</time>
</trkpt>
<trkpt lat="57.133305" lon="9.156815">
<ele>13.305795</ele>
<time>2026-07-15T12:12:01.000Z</time>
</trkpt>
<trkpt lat="57.133293" lon="9.156931">
<ele>13.309590</ele>
<time>2026-07-15T12:12:02.000Z</time>
</trkpt>
<trkpt lat="57.133282" lon="9.157046">
<ele>13.313343</ele>
<time>2026-07-15T12:12:03.000Z</time>
</trkpt>
<trkpt lat="57.133274" lon="9.157165">
<ele>13.317196</ele>
<time>2026-07-15T12:12:04.000Z</time>
</trkpt>
<trkpt lat="57.133263" lon="9.157279">
<ele>13.320917</ele>
<time>2026-07-15T12:12:05.000Z</time>
</trkpt>
<trkpt lat="57.133251" lon="9.157394">
<ele>13.324680</ele>
<time>2026-07-15T12:12:06.000Z</time>
</trkpt>
<trkpt lat="57.133244" lon="9.157510">
<ele>13.328431</ele>
<time>2026-07-15T12:12:07.000Z</time>
</trkpt>
<trkpt lat="57.133232" lon="9.157621">
<ele>13.332068</ele>
<time>2026-07-15T12:12:08.000Z</time>
</trkpt>
<trkpt lat="57.133225" lon="9.157728">
<ele>13.335531</ele>
<time>2026-07-15T12:12:09.000Z</time>
</trkpt>
<trkpt lat="57.133217" lon="9.157827">
<ele>13.338748</ele>
<time>2026-07-15T12:12:10.000Z</time>
</trkpt>
<trkpt lat="57.133205" lon="9.157939">
<ele>13.342416</ele>
<time>2026-07-15T12:12:11.000Z</time>
</trkpt>
<trkpt lat="57.133198" lon="9.158045">
<ele>13.345848</ele>
<time>2026-07-15T12:12:12.000Z</time>
</trkpt>
<trkpt lat="57.133186" lon="9.158150">
<ele>13.349457</ele>
<time>2026-07-15T12:12:13.000Z</time>
</trkpt>
<trkpt lat="57.133175" lon="9.158257">
<ele>13.353130</ele>
<time>2026-07-15T12:12:14.000Z</time>
</trkpt>
<trkpt lat="57.133168" lon="9.158363">
<ele>13.356732</ele>
<time>2026-07-15T12:12:15.000Z</time>
</trkpt>
<trkpt lat="57.133160" lon="9.158478">
<ele>13.360643</ele>
<time>2026-07-15T12:12:16.000Z</time>
</trkpt>
<trkpt lat="57.133152" lon="9.158582">
<ele>13.364186</ele>
<time>2026-07-15T12:12:17.000Z</time>
</trkpt>
<trkpt lat="57.133145" lon="9.158694">
<ele>13.367988</ele>
<time>2026-07-15T12:12:18.000Z</time>
</trkpt>
<trkpt lat="57.133135" lon="9.158787">
<ele>13.371186</ele>
<time>2026-07-15T12:12:19.000Z</time>
</trkpt>
<trkpt lat="57.133123" lon="9.158904">
<ele>13.375202</ele>
<time>2026-07-15T12:12:20.000Z</time>
</trkpt>
<trkpt lat="57.133114" lon="9.159024">
<ele>13.379289</ele>
<time>2026-07-15T12:12:21.000Z</time>
</trkpt>
<trkpt lat="57.133107" lon="9.159126">
<ele>13.382756</ele>
<time>2026-07-15T12:12:22.000Z</time>
</trkpt>
<trkpt lat="57.133099" lon="9.159240">
<ele>13.386634</ele>
<time>2026-07-15T12:12:23.000Z</time>
</trkpt>
<trkpt lat="57.133091" lon="9.159357">
<ele>13.390611</ele>
<time>2026-07-15T12:12:24.000Z</time>
</trkpt>
<trkpt lat="57.133080" lon="9.159471">
<ele>13.394517</ele>
<time>2026-07-15T12:12:25.000Z</time>
</trkpt>
<trkpt lat="57.133072" lon="9.159583">
<ele>13.398327</ele>
<time>2026-07-15T12:12:26.000Z</time>
</trkpt>
<trkpt lat="57.133060" lon="9.159692">
<ele>13.402078</ele>
<time>2026-07-15T12:12:27.000Z</time>
</trkpt>
<trkpt lat="57.133049" lon="9.159802">
<ele>13.405851</ele>
<time>2026-07-15T12:12:28.000Z</time>
</trkpt>
<trkpt lat="57.133042" lon="9.159914">
<ele>13.409654</ele>
<time>2026-07-15T12:12:29.000Z</time>
</trkpt>
<trkpt lat="57.133034" lon="9.160028">
<ele>13.413531</ele>
<time>2026-07-15T12:12:30.000Z</time>
</trkpt>
<trkpt lat="57.133026" lon="9.160144">
<ele>13.417475</ele>
<time>2026-07-15T12:12:31.000Z</time>
</trkpt>
<trkpt lat="57.133015" lon="9.160259">
<ele>13.421414</ele>
<time>2026-07-15T12:12:32.000Z</time>
</trkpt>
<trkpt lat="57.133003" lon="9.160367">
<ele>13.425132</ele>
<time>2026-07-15T12:12:33.000Z</time>
</trkpt>
<trkpt lat="57.132996" lon="9.160482">
<ele>13.429036</ele>
<time>2026-07-15T12:12:34.000Z</time>
</trkpt>
<trkpt lat="57.132984" lon="9.160595">
<ele>13.432919</ele>
<time>2026-07-15T12:12:35.000Z</time>
</trkpt>
<trkpt lat="57.132977" lon="9.160713">
<ele>13.436923</ele>
<time>2026-07-15T12:12:36.000Z</time>
</trkpt>
<trkpt lat="57.132965" lon="9.160826">
<ele>13.440807</ele>
<time>2026-07-15T12:12:37.000Z</time>
</trkpt>
<trkpt lat="57.132961" lon="9.160935">
<ele>13.444492</ele>
<time>2026-07-15T12:12:38.000Z</time>
</trkpt>
<trkpt lat="57.132950" lon="9.161048">
<ele>13.448364</ele>
<time>2026-07-15T12:12:39.000Z</time>
</trkpt>
<trkpt lat="57.132938" lon="9.161161">
<ele>13.452248</ele>
<time>2026-07-15T12:12:40.000Z</time>
</trkpt>
<trkpt lat="57.132931" lon="9.161273">
<ele>13.456051</ele>
<time>2026-07-15T12:12:41.000Z</time>
</trkpt>
<trkpt lat="57.132923" lon="9.161385">
<ele>13.460105</ele>
<time>2026-07-15T12:12:42.000Z</time>
</trkpt>
<trkpt lat="57.132912" lon="9.161495">
<ele>13.464333</ele>
<time>2026-07-15T12:12:43.000Z</time>
</trkpt>
<trkpt lat="57.132900" lon="9.161611">
<ele>13.468796</ele>
<time>2026-07-15T12:12:44.000Z</time>
</trkpt>
<trkpt lat="57.132889" lon="9.161728">
<ele>13.473285</ele>
<time>2026-07-15T12:12:45.000Z</time>
</trkpt>
<trkpt lat="57.132881" lon="9.161841">
<ele>13.477592</ele>
<time>2026-07-15T12:12:46.000Z</time>
</trkpt>
<trkpt lat="57.132870" lon="9.161956">
<ele>13.482006</ele>
<time>2026-07-15T12:12:47.000Z</time>
</trkpt>
<trkpt lat="57.132862" lon="9.162070">
<ele>13.486351</ele>
<time>2026-07-15T12:12:48.000Z</time>
</trkpt>
<trkpt lat="57.132854" lon="9.162185">
<ele>13.490733</ele>
<time>2026-07-15T12:12:49.000Z</time>
</trkpt>
<trkpt lat="57.132847" lon="9.162300">
<ele>13.495107</ele>
<time>2026-07-15T12:12:50.000Z</time>
</trkpt>
<trkpt lat="57.132836" lon="9.162413">
<ele>13.499447</ele>
<time>2026-07-15T12:12:51.000Z</time>
</trkpt>
<trkpt lat="57.132828" lon="9.162532">
<ele>13.503979</ele>
<time>2026-07-15T12:12:52.000Z</time>
</trkpt>
<trkpt lat="57.132817" lon="9.162644">
<ele>13.508281</ele>
<time>2026-07-15T12:12:53.000Z</time>
</trkpt>
<trkpt lat="57.132805" lon="9.162764">
<ele>13.512893</ele>
<time>2026-07-15T12:12:54.000Z</time>
</trkpt>
<trkpt lat="57.132797" lon="9.162880">
<ele>13.517313</ele>
<time>2026-07-15T12:12:55.000Z</time>
</trkpt>
<trkpt lat="57.132790" lon="9.162997">
<ele>13.521762</ele>
<time>2026-07-15T12:12:56.000Z</time>
</trkpt>
<trkpt lat="57.132778" lon="9.163114">
<ele>13.526263</ele>
<time>2026-07-15T12:12:57.000Z</time>
</trkpt>
<trkpt lat="57.132771" lon="9.163230">
<ele>13.530675</ele>
<time>2026-07-15T12:12:58.000Z</time>
</trkpt>
<trkpt lat="57.132763" lon="9.163345">
<ele>13.535057</ele>
<time>2026-07-15T12:12:59.000Z</time>
</trkpt>
<trkpt lat="57.132751" lon="9.163460">
<ele>13.539484</ele>
<time>2026-07-15T12:13:00.000Z</time>
</trkpt>
<trkpt lat="57.132744" lon="9.163573">
<ele>13.543783</ele>
<time>2026-07-15T12:13:01.000Z</time>
</trkpt>
<trkpt lat="57.132732" lon="9.163691">
<ele>13.548320</ele>
<time>2026-07-15T12:13:02.000Z</time>
</trkpt>
<trkpt lat="57.132721" lon="9.163809">
<ele>13.552846</ele>
<time>2026-07-15T12:13:03.000Z</time>
</trkpt>
<trkpt lat="57.132710" lon="9.163921">
<ele>13.557148</ele>
<time>2026-07-15T12:13:04.000Z</time>
</trkpt>
<trkpt lat="57.132698" lon="9.164045">
<ele>13.561909</ele>
<time>2026-07-15T12:13:05.000Z</time>
</trkpt>
<trkpt lat="57.132687" lon="9.164164">
<ele>13.566472</ele>
<time>2026-07-15T12:13:06.000Z</time>
</trkpt>
<trkpt lat="57.132679" lon="9.164273">
<ele>13.570630</ele>
<time>2026-07-15T12:13:07.000Z</time>
</trkpt>
<trkpt lat="57.132671" lon="9.164386">
<ele>13.574937</ele>
<time>2026-07-15T12:13:08.000Z</time>
</trkpt>
<trkpt lat="57.132664" lon="9.164497">
<ele>13.579161</ele>
<time>2026-07-15T12:13:09.000Z</time>
</trkpt>
<trkpt lat="57.132652" lon="9.164614">
<ele>13.583579</ele>
<time>2026-07-15T12:13:10.000Z</time>
</trkpt>
<trkpt lat="57.132645" lon="9.164728">
<ele>13.587257</ele>
<time>2026-07-15T12:13:11.000Z</time>
</trkpt>
<trkpt lat="57.132633" lon="9.164839">
<ele>13.590886</ele>
<time>2026-07-15T12:13:12.000Z</time>
</trkpt>
<trkpt lat="57.132626" lon="9.164949">
<ele>13.594437</ele>
<time>2026-07-15T12:13:13.000Z</time>
</trkpt>
<trkpt lat="57.132618" lon="9.165064">
<ele>13.598155</ele>
<time>2026-07-15T12:13:14.000Z</time>
</trkpt>
<trkpt lat="57.132607" lon="9.165177">
<ele>13.601836</ele>
<time>2026-07-15T12:13:15.000Z</time>
</trkpt>
<trkpt lat="57.132595" lon="9.165291">
<ele>13.605559</ele>
<time>2026-07-15T12:13:16.000Z</time>
</trkpt>
<trkpt lat="57.132588" lon="9.165408">
<ele>13.609333</ele>
<time>2026-07-15T12:13:17.000Z</time>
</trkpt>
<trkpt lat="57.132576" lon="9.165525">
<ele>13.613151</ele>
<time>2026-07-15T12:13:18.000Z</time>
</trkpt>
<trkpt lat="57.132568" lon="9.165643">
<ele>13.616964</ele>
<time>2026-07-15T12:13:19.000Z</time>
</trkpt>
<trkpt lat="57.132557" lon="9.165761">
<ele>13.620803</ele>
<time>2026-07-15T12:13:20.000Z</time>
</trkpt>
<trkpt lat="57.132549" lon="9.165875">
<ele>13.624489</ele>
<time>2026-07-15T12:13:21.000Z</time>
</trkpt>
<trkpt lat="57.132538" lon="9.165987">
<ele>13.628138</ele>
<time>2026-07-15T12:13:22.000Z</time>
</trkpt>
<trkpt lat="57.132530" lon="9.166102">
<ele>13.631856</ele>
<time>2026-07-15T12:13:23.000Z</time>
</trkpt>
<trkpt lat="57.132519" lon="9.166222">
<ele>13.635758</ele>
<time>2026-07-15T12:13:24.000Z</time>
</trkpt>
<trkpt lat="57.132508" lon="9.166338">
<ele>13.639534</ele>
<time>2026-07-15T12:13:25.000Z</time>
</trkpt>
<trkpt lat="57.132498" lon="9.166455">
<ele>13.643332</ele>
<time>2026-07-15T12:13:26.000Z</time>
</trkpt>
<trkpt lat="57.132488" lon="9.166572">
<ele>13.647129</ele>
<time>2026-07-15T12:13:27.000Z</time>
</trkpt>
<trkpt lat="57.132481" lon="9.166686">
<ele>13.650808</ele>
<time>2026-07-15T12:13:28.000Z</time>
</trkpt>
<trkpt lat="57.132469" lon="9.166797">
<ele>13.654437</ele>
<time>2026-07-15T12:13:29.000Z</time>
</trkpt>
<trkpt lat="57.132462" lon="9.166906">
<ele>13.657956</ele>
<time>2026-07-15T12:13:30.000Z</time>
</trkpt>
<trkpt lat="57.132450" lon="9.167014">
<ele>13.661491</ele>
<time>2026-07-15T12:13:31.000Z</time>
</trkpt>
<trkpt lat="57.132442" lon="9.167119">
<ele>13.664891</ele>
<time>2026-07-15T12:13:32.000Z</time>
</trkpt>
<trkpt lat="57.132431" lon="9.167220">
<ele>13.668194</ele>
<time>2026-07-15T12:13:33.000Z</time>
</trkpt>
<trkpt lat="57.132423" lon="9.167321">
<ele>13.671467</ele>
<time>2026-07-15T12:13:34.000Z</time>
</trkpt>
<trkpt lat="57.132408" lon="9.167420">
<ele>13.674762</ele>
<time>2026-07-15T12:13:35.000Z</time>
</trkpt>
<trkpt lat="57.132400" lon="9.167520">
<ele>13.678003</ele>
<time>2026-07-15T12:13:36.000Z</time>
</trkpt>
<trkpt lat="57.132393" lon="9.167623">
<ele>13.681332</ele>
<time>2026-07-15T12:13:37.000Z</time>
</trkpt>
<trkpt lat="57.132385" lon="9.167725">
<ele>13.684636</ele>
<time>2026-07-15T12:13:38.000Z</time>
</trkpt>
<trkpt lat="57.132379" lon="9.167829">
<ele>13.687990</ele>
<time>2026-07-15T12:13:39.000Z</time>
</trkpt>
<trkpt lat="57.132374" lon="9.167934">
<ele>13.691068</ele>
<time>2026-07-15T12:13:40.000Z</time>
</trkpt>
<trkpt lat="57.132366" lon="9.168039">
<ele>13.693952</ele>
<time>2026-07-15T12:13:41.000Z</time>
</trkpt>
<trkpt lat="57.132359" lon="9.168148">
<ele>13.696938</ele>
<time>2026-07-15T12:13:42.000Z</time>
</trkpt>
<trkpt lat="57.132347" lon="9.168254">
<ele>13.699884</ele>
<time>2026-07-15T12:13:43.000Z</time>
</trkpt>
<trkpt lat="57.132339" lon="9.168361">
<ele>13.702822</ele>
<time>2026-07-15T12:13:44.000Z</time>
</trkpt>
<trkpt lat="57.132332" lon="9.168467">
<ele>13.705727</ele>
<time>2026-07-15T12:13:45.000Z</time>
</trkpt>
<trkpt lat="57.132324" lon="9.168573">
<ele>13.708638</ele>
<time>2026-07-15T12:13:46.000Z</time>
</trkpt>
<trkpt lat="57.132317" lon="9.168679">
<ele>13.711543</ele>
<time>2026-07-15T12:13:47.000Z</time>
</trkpt>
<trkpt lat="57.132309" lon="9.168785">
<ele>13.714454</ele>
<time>2026-07-15T12:13:48.000Z</time>
</trkpt>
<trkpt lat="57.132301" lon="9.168891">
<ele>13.717365</ele>
<time>2026-07-15T12:13:49.000Z</time>
</trkpt>
<trkpt lat="57.132294" lon="9.168998">
<ele>13.720297</ele>
<time>2026-07-15T12:13:50.000Z</time>
</trkpt>
<trkpt lat="57.132286" lon="9.169105">
<ele>13.723235</ele>
<time>2026-07-15T12:13:51.000Z</time>
</trkpt>
<trkpt lat="57.132278" lon="9.169218">
<ele>13.726335</ele>
<time>2026-07-15T12:13:52.000Z</time>
</trkpt>
<trkpt lat="57.132267" lon="9.169329">
<ele>13.729405</ele>
<time>2026-07-15T12:13:53.000Z</time>
</trkpt>
<trkpt lat="57.132259" lon="9.169441">
<ele>13.732478</ele>
<time>2026-07-15T12:13:54.000Z</time>
</trkpt>
<trkpt lat="57.132252" lon="9.169557">
<ele>13.735653</ele>
<time>2026-07-15T12:13:55.000Z</time>
</trkpt>
<trkpt lat="57.132244" lon="9.169669">
<ele>13.738726</ele>
<time>2026-07-15T12:13:56.000Z</time>
</trkpt>
<trkpt lat="57.132236" lon="9.169778">
<ele>13.741718</ele>
<time>2026-07-15T12:13:57.000Z</time>
</trkpt>
<trkpt lat="57.132225" lon="9.169886">
<ele>13.744707</ele>
<time>2026-07-15T12:13:58.000Z</time>
</trkpt>
<trkpt lat="57.132217" lon="9.169989">
<ele>13.747538</ele>
<time>2026-07-15T12:13:59.000Z</time>
</trkpt>
<trkpt lat="57.132210" lon="9.170089">
<ele>13.750280</ele>
<time>2026-07-15T12:14:00.000Z</time>
</trkpt>
<trkpt lat="57.132202" lon="9.170189">
<ele>13.753030</ele>
<time>2026-07-15T12:14:01.000Z</time>
</trkpt>
<trkpt lat="57.132198" lon="9.170289">
<ele>13.755758</ele>
<time>2026-07-15T12:14:02.000Z</time>
</trkpt>
<trkpt lat="57.132191" lon="9.170387">
<ele>13.758447</ele>
<time>2026-07-15T12:14:03.000Z</time>
</trkpt>
<trkpt lat="57.132183" lon="9.170484">
<ele>13.761116</ele>
<time>2026-07-15T12:14:04.000Z</time>
</trkpt>
<trkpt lat="57.132172" lon="9.170580">
<ele>13.763785</ele>
<time>2026-07-15T12:14:05.000Z</time>
</trkpt>
<trkpt lat="57.132168" lon="9.170673">
<ele>13.766323</ele>
<time>2026-07-15T12:14:06.000Z</time>
</trkpt>
<trkpt lat="57.132160" lon="9.170766">
<ele>13.768884</ele>
<time>2026-07-15T12:14:07.000Z</time>
</trkpt>
<trkpt lat="57.132152" lon="9.170856">
<ele>13.771365</ele>
<time>2026-07-15T12:14:08.000Z</time>
</trkpt>
<trkpt lat="57.132145" lon="9.170943">
<ele>13.773758</ele>
<time>2026-07-15T12:14:09.000Z</time>
</trkpt>
<trkpt lat="57.132141" lon="9.171033">
<ele>13.776214</ele>
<time>2026-07-15T12:14:10.000Z</time>
</trkpt>
<trkpt lat="57.132133" lon="9.171121">
<ele>13.778641</ele>
<time>2026-07-15T12:14:11.000Z</time>
</trkpt>
<trkpt lat="57.132126" lon="9.171209">
<ele>13.775810</ele>
<time>2026-07-15T12:14:12.000Z</time>
</trkpt>
<trkpt lat="57.132114" lon="9.171301">
<ele>13.769499</ele>
<time>2026-07-15T12:14:13.000Z</time>
</trkpt>
<trkpt lat="57.132107" lon="9.171396">
<ele>13.763104</ele>
<time>2026-07-15T12:14:14.000Z</time>
</trkpt>
<trkpt lat="57.132099" lon="9.171496">
<ele>13.756363</ele>
<time>2026-07-15T12:14:15.000Z</time>
</trkpt>
<trkpt lat="57.132092" lon="9.171594">
<ele>13.749770</ele>
<time>2026-07-15T12:14:16.000Z</time>
</trkpt>
<trkpt lat="57.132088" lon="9.171696">
<ele>13.742949</ele>
<time>2026-07-15T12:14:17.000Z</time>
</trkpt>
<trkpt lat="57.132084" lon="9.171789">
<ele>13.736726</ele>
<time>2026-07-15T12:14:18.000Z</time>
</trkpt>
<trkpt lat="57.132080" lon="9.171883">
<ele>13.730438</ele>
<time>2026-07-15T12:14:19.000Z</time>
</trkpt>
<trkpt lat="57.132076" lon="9.171974">
<ele>13.724348</ele>
<time>2026-07-15T12:14:20.000Z</time>
</trkpt>
<trkpt lat="57.132069" lon="9.172069">
<ele>13.717954</ele>
<time>2026-07-15T12:14:21.000Z</time>
</trkpt>
<trkpt lat="57.132065" lon="9.172162">
<ele>13.711731</ele>
<time>2026-07-15T12:14:22.000Z</time>
</trkpt>
<trkpt lat="57.132061" lon="9.172258">
<ele>13.705309</ele>
<time>2026-07-15T12:14:23.000Z</time>
</trkpt>
<trkpt lat="57.132057" lon="9.172348">
<ele>13.699286</ele>
<time>2026-07-15T12:14:24.000Z</time>
</trkpt>
<trkpt lat="57.132053" lon="9.172435">
<ele>13.693463</ele>
<time>2026-07-15T12:14:25.000Z</time>
</trkpt>
<trkpt lat="57.132053" lon="9.172526">
<ele>13.687393</ele>
<time>2026-07-15T12:14:26.000Z</time>
</trkpt>
<trkpt lat="57.132050" lon="9.172625">
<ele>13.680780</ele>
<time>2026-07-15T12:14:27.000Z</time>
</trkpt>
<trkpt lat="57.132053" lon="9.172721">
<ele>13.674366</ele>
<time>2026-07-15T12:14:28.000Z</time>
</trkpt>
<trkpt lat="57.132053" lon="9.172824">
<ele>13.667496</ele>
<time>2026-07-15T12:14:29.000Z</time>
</trkpt>
<trkpt lat="57.132050" lon="9.172926">
<ele>13.660683</ele>
<time>2026-07-15T12:14:30.000Z</time>
</trkpt>
<trkpt lat="57.132042" lon="9.173028">
<ele>13.653809</ele>
<time>2026-07-15T12:14:31.000Z</time>
</trkpt>
<trkpt lat="57.132038" lon="9.173130">
<ele>13.646988</ele>
<time>2026-07-15T12:14:32.000Z</time>
</trkpt>
<trkpt lat="57.132027" lon="9.173231">
<ele>13.640117</ele>
<time>2026-07-15T12:14:33.000Z</time>
</trkpt>
<trkpt lat="57.132019" lon="9.173324">
<ele>13.633837</ele>
<time>2026-07-15T12:14:34.000Z</time>
</trkpt>
<trkpt lat="57.132015" lon="9.173414">
<ele>13.627814</ele>
<time>2026-07-15T12:14:35.000Z</time>
</trkpt>
<trkpt lat="57.132008" lon="9.173504">
<ele>13.621750</ele>
<time>2026-07-15T12:14:36.000Z</time>
</trkpt>
<trkpt lat="57.132008" lon="9.173607">
<ele>13.614880</ele>
<time>2026-07-15T12:14:37.000Z</time>
</trkpt>
<trkpt lat="57.132004" lon="9.173706">
<ele>13.608258</ele>
<time>2026-07-15T12:14:38.000Z</time>
</trkpt>
<trkpt lat="57.132008" lon="9.173811">
<ele>13.601238</ele>
<time>2026-07-15T12:14:39.000Z</time>
</trkpt>
<trkpt lat="57.132004" lon="9.173918">
<ele>13.594084</ele>
<time>2026-07-15T12:14:40.000Z</time>
</trkpt>
<trkpt lat="57.131996" lon="9.174025">
<ele>13.586880</ele>
<time>2026-07-15T12:14:41.000Z</time>
</trkpt>
<trkpt lat="57.131989" lon="9.174132">
<ele>13.579692</ele>
<time>2026-07-15T12:14:42.000Z</time>
</trkpt>
<trkpt lat="57.131989" lon="9.174235">
<ele>13.572822</ele>
<time>2026-07-15T12:14:43.000Z</time>
</trkpt>
<trkpt lat="57.131985" lon="9.174341">
<ele>13.565735</ele>
<time>2026-07-15T12:14:44.000Z</time>
</trkpt>
<trkpt lat="57.131977" lon="9.174446">
<ele>13.558663</ele>
<time>2026-07-15T12:14:45.000Z</time>
</trkpt>
<trkpt lat="57.131973" lon="9.174553">
<ele>13.554164</ele>
<time>2026-07-15T12:14:46.000Z</time>
</trkpt>
<trkpt lat="57.131969" lon="9.174656">
<ele>13.549897</ele>
<time>2026-07-15T12:14:47.000Z</time>
</trkpt>
<trkpt lat="57.131962" lon="9.174767">
<ele>13.545279</ele>
<time>2026-07-15T12:14:48.000Z</time>
</trkpt>
<trkpt lat="57.131954" lon="9.174872">
<ele>13.540898</ele>
<time>2026-07-15T12:14:49.000Z</time>
</trkpt>
<trkpt lat="57.131954" lon="9.174984">
<ele>13.536270</ele>
<time>2026-07-15T12:14:50.000Z</time>
</trkpt>
<trkpt lat="57.131958" lon="9.175094">
<ele>13.531715</ele>
<time>2026-07-15T12:14:51.000Z</time>
</trkpt>
<trkpt lat="57.131958" lon="9.175208">
<ele>13.527004</ele>
<time>2026-07-15T12:14:52.000Z</time>
</trkpt>
<trkpt lat="57.131962" lon="9.175321">
<ele>13.522325</ele>
<time>2026-07-15T12:14:53.000Z</time>
</trkpt>
<trkpt lat="57.131962" lon="9.175439">
<ele>13.517449</ele>
<time>2026-07-15T12:14:54.000Z</time>
</trkpt>
<trkpt lat="57.131958" lon="9.175576">
<ele>13.511780</ele>
<time>2026-07-15T12:14:55.000Z</time>
</trkpt>
<trkpt lat="57.131958" lon="9.175712">
<ele>13.506160</ele>
<time>2026-07-15T12:14:56.000Z</time>
</trkpt>
<trkpt lat="57.131950" lon="9.175862">
<ele>13.499932</ele>
<time>2026-07-15T12:14:57.000Z</time>
</trkpt>
<trkpt lat="57.131947" lon="9.176007">
<ele>13.493936</ele>
<time>2026-07-15T12:14:58.000Z</time>
</trkpt>
<trkpt lat="57.131943" lon="9.176152">
<ele>13.487937</ele>
<time>2026-07-15T12:14:59.000Z</time>
</trkpt>
<trkpt lat="57.131954" lon="9.176278">
<ele>13.482663</ele>
<time>2026-07-15T12:15:00.000Z</time>
</trkpt>
<trkpt lat="57.131962" lon="9.176408">
<ele>13.477257</ele>
<time>2026-07-15T12:15:01.000Z</time>
</trkpt>
<trkpt lat="57.131973" lon="9.176535">
<ele>13.471943</ele>
<time>2026-07-15T12:15:02.000Z</time>
</trkpt>
<trkpt lat="57.131985" lon="9.176664">
<ele>13.466535</ele>
<time>2026-07-15T12:15:03.000Z</time>
</trkpt>
<trkpt lat="57.131996" lon="9.176785">
<ele>13.461465</ele>
<time>2026-07-15T12:15:04.000Z</time>
</trkpt>
<trkpt lat="57.132015" lon="9.176904">
<ele>13.456340</ele>
<time>2026-07-15T12:15:05.000Z</time>
</trkpt>
<trkpt lat="57.132038" lon="9.177014">
<ele>13.451469</ele>
<time>2026-07-15T12:15:06.000Z</time>
</trkpt>
<trkpt lat="57.132065" lon="9.177130">
<ele>13.446253</ele>
<time>2026-07-15T12:15:07.000Z</time>
</trkpt>
<trkpt lat="57.132088" lon="9.177242">
<ele>13.441305</ele>
<time>2026-07-15T12:15:08.000Z</time>
</trkpt>
<trkpt lat="57.132111" lon="9.177357">
<ele>13.436241</ele>
<time>2026-07-15T12:15:09.000Z</time>
</trkpt>
<trkpt lat="57.132133" lon="9.177465">
<ele>13.431474</ele>
<time>2026-07-15T12:15:10.000Z</time>
</trkpt>
<trkpt lat="57.132160" lon="9.177576">
<ele>13.426448</ele>
<time>2026-07-15T12:15:11.000Z</time>
</trkpt>
<trkpt lat="57.132176" lon="9.177688">
<ele>13.421662</ele>
<time>2026-07-15T12:15:12.000Z</time>
</trkpt>
<trkpt lat="57.132195" lon="9.177801">
<ele>13.417876</ele>
<time>2026-07-15T12:15:13.000Z</time>
</trkpt>
<trkpt lat="57.132210" lon="9.177914">
<ele>13.414180</ele>
<time>2026-07-15T12:15:14.000Z</time>
</trkpt>
<trkpt lat="57.132225" lon="9.178027">
<ele>13.410484</ele>
<time>2026-07-15T12:15:15.000Z</time>
</trkpt>
<trkpt lat="57.132237" lon="9.178141">
<ele>13.406795</ele>
<time>2026-07-15T12:15:16.000Z</time>
</trkpt>
<trkpt lat="57.132240" lon="9.178257">
<ele>13.403106</ele>
<time>2026-07-15T12:15:17.000Z</time>
</trkpt>
<trkpt lat="57.132248" lon="9.178373">
<ele>13.399391</ele>
<time>2026-07-15T12:15:18.000Z</time>
</trkpt>
<trkpt lat="57.132248" lon="9.178491">
<ele>13.395642</ele>
<time>2026-07-15T12:15:19.000Z</time>
</trkpt>
<trkpt lat="57.132252" lon="9.178607">
<ele>13.391949</ele>
<time>2026-07-15T12:15:20.000Z</time>
</trkpt>
<trkpt lat="57.132252" lon="9.178724">
<ele>13.388232</ele>
<time>2026-07-15T12:15:21.000Z</time>
</trkpt>
<trkpt lat="57.132252" lon="9.178841">
<ele>13.384515</ele>
<time>2026-07-15T12:15:22.000Z</time>
</trkpt>
<trkpt lat="57.132248" lon="9.178954">
<ele>13.380918</ele>
<time>2026-07-15T12:15:23.000Z</time>
</trkpt>
<trkpt lat="57.132240" lon="9.179067">
<ele>13.377297</ele>
<time>2026-07-15T12:15:24.000Z</time>
</trkpt>
<trkpt lat="57.132233" lon="9.179184">
<ele>13.373558</ele>
<time>2026-07-15T12:15:25.000Z</time>
</trkpt>
<trkpt lat="57.132221" lon="9.179301">
<ele>13.369775</ele>
<time>2026-07-15T12:15:26.000Z</time>
</trkpt>
<trkpt lat="57.132202" lon="9.179419">
<ele>13.365865</ele>
<time>2026-07-15T12:15:27.000Z</time>
</trkpt>
<trkpt lat="57.132187" lon="9.179539">
<ele>13.361953</ele>
<time>2026-07-15T12:15:28.000Z</time>
</trkpt>
<trkpt lat="57.132168" lon="9.179663">
<ele>13.357859</ele>
<time>2026-07-15T12:15:29.000Z</time>
</trkpt>
<trkpt lat="57.132149" lon="9.179784">
<ele>13.353858</ele>
<time>2026-07-15T12:15:30.000Z</time>
</trkpt>
<trkpt lat="57.132129" lon="9.179904">
<ele>13.349869</ele>
<time>2026-07-15T12:15:31.000Z</time>
</trkpt>
<trkpt lat="57.132107" lon="9.180022">
<ele>13.345906</ele>
<time>2026-07-15T12:15:32.000Z</time>
</trkpt>
<trkpt lat="57.132092" lon="9.180140">
<ele>13.342055</ele>
<time>2026-07-15T12:15:33.000Z</time>
</trkpt>
<trkpt lat="57.132077" lon="9.180255">
<ele>13.338298</ele>
<time>2026-07-15T12:15:34.000Z</time>
</trkpt>
<trkpt lat="57.132057" lon="9.180376">
<ele>13.334279</ele>
<time>2026-07-15T12:15:35.000Z</time>
</trkpt>
<trkpt lat="57.132042" lon="9.180492">
<ele>13.330491</ele>
<time>2026-07-15T12:15:36.000Z</time>
</trkpt>
<trkpt lat="57.132026" lon="9.180608">
<ele>13.326689</ele>
<time>2026-07-15T12:15:37.000Z</time>
</trkpt>
<trkpt lat="57.132011" lon="9.180722">
<ele>13.322962</ele>
<time>2026-07-15T12:15:38.000Z</time>
</trkpt>
<trkpt lat="57.131996" lon="9.180838">
<ele>13.319174</ele>
<time>2026-07-15T12:15:39.000Z</time>
</trkpt>
<trkpt lat="57.131985" lon="9.180952">
<ele>13.316610</ele>
<time>2026-07-15T12:15:40.000Z</time>
</trkpt>
<trkpt lat="57.131965" lon="9.181070">
<ele>13.318491</ele>
<time>2026-07-15T12:15:41.000Z</time>
</trkpt>
<trkpt lat="57.131950" lon="9.181185">
<ele>13.320291</ele>
<time>2026-07-15T12:15:42.000Z</time>
</trkpt>
<trkpt lat="57.131935" lon="9.181297">
<ele>13.322046</ele>
<time>2026-07-15T12:15:43.000Z</time>
</trkpt>
<trkpt lat="57.131920" lon="9.181412">
<ele>13.323846</ele>
<time>2026-07-15T12:15:44.000Z</time>
</trkpt>
<trkpt lat="57.131909" lon="9.181524">
<ele>13.325578</ele>
<time>2026-07-15T12:15:45.000Z</time>
</trkpt>
<trkpt lat="57.131901" lon="9.181641">
<ele>13.327373</ele>
<time>2026-07-15T12:15:46.000Z</time>
</trkpt>
<trkpt lat="57.131889" lon="9.181749">
<ele>13.329050</ele>
<time>2026-07-15T12:15:47.000Z</time>
</trkpt>
<trkpt lat="57.131882" lon="9.181853">
<ele>13.330645</ele>
<time>2026-07-15T12:15:48.000Z</time>
</trkpt>
<trkpt lat="57.131874" lon="9.181961">
<ele>13.332304</ele>
<time>2026-07-15T12:15:49.000Z</time>
</trkpt>
<trkpt lat="57.131863" lon="9.182068">
<ele>13.333961</ele>
<time>2026-07-15T12:15:50.000Z</time>
</trkpt>
<trkpt lat="57.131855" lon="9.182170">
<ele>13.335529</ele>
<time>2026-07-15T12:15:51.000Z</time>
</trkpt>
<trkpt lat="57.131843" lon="9.182278">
<ele>13.337207</ele>
<time>2026-07-15T12:15:52.000Z</time>
</trkpt>
<trkpt lat="57.131832" lon="9.182379">
<ele>13.338775</ele>
<time>2026-07-15T12:15:53.000Z</time>
</trkpt>
<trkpt lat="57.131824" lon="9.182488">
<ele>13.340448</ele>
<time>2026-07-15T12:15:54.000Z</time>
</trkpt>
<trkpt lat="57.131817" lon="9.182599">
<ele>13.342149</ele>
<time>2026-07-15T12:15:55.000Z</time>
</trkpt>
<trkpt lat="57.131801" lon="9.182717">
<ele>13.344000</ele>
<time>2026-07-15T12:15:56.000Z</time>
</trkpt>
<trkpt lat="57.131790" lon="9.182837">
<ele>13.345852</ele>
<time>2026-07-15T12:15:57.000Z</time>
</trkpt>
<trkpt lat="57.131783" lon="9.182963">
<ele>13.347779</ele>
<time>2026-07-15T12:15:58.000Z</time>
</trkpt>
<trkpt lat="57.131775" lon="9.183085">
<ele>13.349649</ele>
<time>2026-07-15T12:15:59.000Z</time>
</trkpt>
<trkpt lat="57.131764" lon="9.183203">
<ele>13.351471</ele>
<time>2026-07-15T12:16:00.000Z</time>
</trkpt>
<trkpt lat="57.131752" lon="9.183325">
<ele>13.353358</ele>
<time>2026-07-15T12:16:01.000Z</time>
</trkpt>
<trkpt lat="57.131744" lon="9.183446">
<ele>13.355213</ele>
<time>2026-07-15T12:16:02.000Z</time>
</trkpt>
<trkpt lat="57.131737" lon="9.183568">
<ele>13.357080</ele>
<time>2026-07-15T12:16:03.000Z</time>
</trkpt>
<trkpt lat="57.131722" lon="9.183685">
<ele>13.358909</ele>
<time>2026-07-15T12:16:04.000Z</time>
</trkpt>
<trkpt lat="57.131714" lon="9.183810">
<ele>13.360825</ele>
<time>2026-07-15T12:16:05.000Z</time>
</trkpt>
<trkpt lat="57.131706" lon="9.183926">
<ele>13.362604</ele>
<time>2026-07-15T12:16:06.000Z</time>
</trkpt>
<trkpt lat="57.131699" lon="9.184042">
<ele>13.364380</ele>
<time>2026-07-15T12:16:07.000Z</time>
</trkpt>
<trkpt lat="57.131695" lon="9.184160">
<ele>13.366179</ele>
<time>2026-07-15T12:16:08.000Z</time>
</trkpt>
<trkpt lat="57.131687" lon="9.184278">
<ele>13.375009</ele>
<time>2026-07-15T12:16:09.000Z</time>
</trkpt>
<trkpt lat="57.131676" lon="9.184398">
<ele>13.386814</ele>
<time>2026-07-15T12:16:10.000Z</time>
</trkpt>
<trkpt lat="57.131668" lon="9.184521">
<ele>13.398830</ele>
<time>2026-07-15T12:16:11.000Z</time>
</trkpt>
<trkpt lat="57.131657" lon="9.184645">
<ele>13.411018</ele>
<time>2026-07-15T12:16:12.000Z</time>
</trkpt>
<trkpt lat="57.131649" lon="9.184761">
<ele>13.422360</ele>
<time>2026-07-15T12:16:13.000Z</time>
</trkpt>
<trkpt lat="57.131641" lon="9.184878">
<ele>13.433799</ele>
<time>2026-07-15T12:16:14.000Z</time>
</trkpt>
<trkpt lat="57.131634" lon="9.184998">
<ele>13.445506</ele>
<time>2026-07-15T12:16:15.000Z</time>
</trkpt>
<trkpt lat="57.131630" lon="9.185106">
<ele>13.456006</ele>
<time>2026-07-15T12:16:16.000Z</time>
</trkpt>
<trkpt lat="57.131626" lon="9.185210">
<ele>13.466120</ele>
<time>2026-07-15T12:16:17.000Z</time>
</trkpt>
<trkpt lat="57.131618" lon="9.185322">
<ele>13.477077</ele>
<time>2026-07-15T12:16:18.000Z</time>
</trkpt>
<trkpt lat="57.131615" lon="9.185437">
<ele>13.488245</ele>
<time>2026-07-15T12:16:19.000Z</time>
</trkpt>
<trkpt lat="57.131607" lon="9.185550">
<ele>13.499299</ele>
<time>2026-07-15T12:16:20.000Z</time>
</trkpt>
<trkpt lat="57.131600" lon="9.185661">
<ele>13.510138</ele>
<time>2026-07-15T12:16:21.000Z</time>
</trkpt>
<trkpt lat="57.131592" lon="9.185776">
<ele>13.521385</ele>
<time>2026-07-15T12:16:22.000Z</time>
</trkpt>
<trkpt lat="57.131580" lon="9.185888">
<ele>13.532458</ele>
<time>2026-07-15T12:16:23.000Z</time>
</trkpt>
<trkpt lat="57.131580" lon="9.185992">
<ele>13.542546</ele>
<time>2026-07-15T12:16:24.000Z</time>
</trkpt>
<trkpt lat="57.131576" lon="9.186103">
<ele>13.553337</ele>
<time>2026-07-15T12:16:25.000Z</time>
</trkpt>
<trkpt lat="57.131569" lon="9.186217">
<ele>13.564466</ele>
<time>2026-07-15T12:16:26.000Z</time>
</trkpt>
<trkpt lat="57.131557" lon="9.186331">
<ele>13.575730</ele>
<time>2026-07-15T12:16:27.000Z</time>
</trkpt>
<trkpt lat="57.131550" lon="9.186449">
<ele>13.587244</ele>
<time>2026-07-15T12:16:28.000Z</time>
</trkpt>
<trkpt lat="57.131531" lon="9.186573">
<ele>13.599742</ele>
<time>2026-07-15T12:16:29.000Z</time>
</trkpt>
<trkpt lat="57.131512" lon="9.186692">
<ele>13.611774</ele>
<time>2026-07-15T12:16:30.000Z</time>
</trkpt>
<trkpt lat="57.131500" lon="9.186817">
<ele>13.624087</ele>
<time>2026-07-15T12:16:31.000Z</time>
</trkpt>
<trkpt lat="57.131489" lon="9.186939">
<ele>13.636084</ele>
<time>2026-07-15T12:16:32.000Z</time>
</trkpt>
<trkpt lat="57.131477" lon="9.187061">
<ele>13.648111</ele>
<time>2026-07-15T12:16:33.000Z</time>
</trkpt>
<trkpt lat="57.131466" lon="9.187177">
<ele>13.659533</ele>
<time>2026-07-15T12:16:34.000Z</time>
</trkpt>
<trkpt lat="57.131458" lon="9.187293">
<ele>13.670876</ele>
<time>2026-07-15T12:16:35.000Z</time>
</trkpt>
<trkpt lat="57.131447" lon="9.187411">
<ele>13.682489</ele>
<time>2026-07-15T12:16:36.000Z</time>
</trkpt>
<trkpt lat="57.131435" lon="9.187532">
<ele>13.683385</ele>
<time>2026-07-15T12:16:37.000Z</time>
</trkpt>
<trkpt lat="57.131424" lon="9.187649">
<ele>13.674607</ele>
<time>2026-07-15T12:16:38.000Z</time>
</trkpt>
<trkpt lat="57.131413" lon="9.187760">
<ele>13.666266</ele>
<time>2026-07-15T12:16:39.000Z</time>
</trkpt>
<trkpt lat="57.131401" lon="9.187884">
<ele>13.656955</ele>
<time>2026-07-15T12:16:40.000Z</time>
</trkpt>
<trkpt lat="57.131393" lon="9.188001">
<ele>13.648238</ele>
<time>2026-07-15T12:16:41.000Z</time>
</trkpt>
<trkpt lat="57.131382" lon="9.188119">
<ele>13.639387</ele>
<time>2026-07-15T12:16:42.000Z</time>
</trkpt>
<trkpt lat="57.131367" lon="9.188237">
<ele>13.630428</ele>
<time>2026-07-15T12:16:43.000Z</time>
</trkpt>
<trkpt lat="57.131359" lon="9.188356">
<ele>13.621564</ele>
<time>2026-07-15T12:16:44.000Z</time>
</trkpt>
<trkpt lat="57.131351" lon="9.188475">
<ele>13.612700</ele>
<time>2026-07-15T12:16:45.000Z</time>
</trkpt>
<trkpt lat="57.131340" lon="9.188594">
<ele>13.603777</ele>
<time>2026-07-15T12:16:46.000Z</time>
</trkpt>
<trkpt lat="57.131329" lon="9.188713">
<ele>13.594853</ele>
<time>2026-07-15T12:16:47.000Z</time>
</trkpt>
<trkpt lat="57.131317" lon="9.188832">
<ele>13.585906</ele>
<time>2026-07-15T12:16:48.000Z</time>
</trkpt>
<trkpt lat="57.131306" lon="9.188951">
<ele>13.576983</ele>
<time>2026-07-15T12:16:49.000Z</time>
</trkpt>
<trkpt lat="57.131298" lon="9.189070">
<ele>13.568119</ele>
<time>2026-07-15T12:16:50.000Z</time>
</trkpt>
<trkpt lat="57.131287" lon="9.189186">
<ele>13.559414</ele>
<time>2026-07-15T12:16:51.000Z</time>
</trkpt>
<trkpt lat="57.131283" lon="9.189301">
<ele>13.550895</ele>
<time>2026-07-15T12:16:52.000Z</time>
</trkpt>
<trkpt lat="57.131275" lon="9.189419">
<ele>13.542104</ele>
<time>2026-07-15T12:16:53.000Z</time>
</trkpt>
<trkpt lat="57.131264" lon="9.189533">
<ele>13.533545</ele>
<time>2026-07-15T12:16:54.000Z</time>
</trkpt>
<trkpt lat="57.131260" lon="9.189651">
<ele>13.524805</ele>
<time>2026-07-15T12:16:55.000Z</time>
</trkpt>
<trkpt lat="57.131252" lon="9.189764">
<ele>13.516381</ele>
<time>2026-07-15T12:16:56.000Z</time>
</trkpt>
<trkpt lat="57.131248" lon="9.189877">
<ele>13.508010</ele>
<time>2026-07-15T12:16:57.000Z</time>
</trkpt>
<trkpt lat="57.131237" lon="9.189991">
<ele>13.499451</ele>
<time>2026-07-15T12:16:58.000Z</time>
</trkpt>
<trkpt lat="57.131229" lon="9.190102">
<ele>13.491173</ele>
<time>2026-07-15T12:16:59.000Z</time>
</trkpt>
<trkpt lat="57.131222" lon="9.190209">
<ele>13.483206</ele>
<time>2026-07-15T12:17:00.000Z</time>
</trkpt>
<trkpt lat="57.131214" lon="9.190321">
<ele>13.474855</ele>
<time>2026-07-15T12:17:01.000Z</time>
</trkpt>
<trkpt lat="57.131206" lon="9.190427">
<ele>13.466944</ele>
<time>2026-07-15T12:17:02.000Z</time>
</trkpt>
<trkpt lat="57.131199" lon="9.190540">
<ele>13.458537</ele>
<time>2026-07-15T12:17:03.000Z</time>
</trkpt>
<trkpt lat="57.131191" lon="9.190654">
<ele>13.450039</ele>
<time>2026-07-15T12:17:04.000Z</time>
</trkpt>
<trkpt lat="57.131184" lon="9.190764">
<ele>13.445484</ele>
<time>2026-07-15T12:17:05.000Z</time>
</trkpt>
<trkpt lat="57.131180" lon="9.190871">
<ele>13.459458</ele>
<time>2026-07-15T12:17:06.000Z</time>
</trkpt>
<trkpt lat="57.131180" lon="9.190979">
<ele>13.473530</ele>
<time>2026-07-15T12:17:07.000Z</time>
</trkpt>
<trkpt lat="57.131169" lon="9.191093">
<ele>13.488616</ele>
<time>2026-07-15T12:17:08.000Z</time>
</trkpt>
<trkpt lat="57.131161" lon="9.191214">
<ele>13.504498</ele>
<time>2026-07-15T12:17:09.000Z</time>
</trkpt>
<trkpt lat="57.131149" lon="9.191328">
<ele>13.519629</ele>
<time>2026-07-15T12:17:10.000Z</time>
</trkpt>
<trkpt lat="57.131142" lon="9.191439">
<ele>13.534189</ele>
<time>2026-07-15T12:17:11.000Z</time>
</trkpt>
<trkpt lat="57.131134" lon="9.191545">
<ele>13.548133</ele>
<time>2026-07-15T12:17:12.000Z</time>
</trkpt>
<trkpt lat="57.131130" lon="9.191653">
<ele>13.562237</ele>
<time>2026-07-15T12:17:13.000Z</time>
</trkpt>
<trkpt lat="57.131127" lon="9.191759">
<ele>13.576067</ele>
<time>2026-07-15T12:17:14.000Z</time>
</trkpt>
<trkpt lat="57.131123" lon="9.191869">
<ele>13.590432</ele>
<time>2026-07-15T12:17:15.000Z</time>
</trkpt>
<trkpt lat="57.131119" lon="9.191977">
<ele>13.604536</ele>
<time>2026-07-15T12:17:16.000Z</time>
</trkpt>
<trkpt lat="57.131115" lon="9.192091">
<ele>13.619421</ele>
<time>2026-07-15T12:17:17.000Z</time>
</trkpt>
<trkpt lat="57.131104" lon="9.192212">
<ele>13.635406</ele>
<time>2026-07-15T12:17:18.000Z</time>
</trkpt>
<trkpt lat="57.131088" lon="9.192333">
<ele>13.651633</ele>
<time>2026-07-15T12:17:19.000Z</time>
</trkpt>
<trkpt lat="57.131077" lon="9.192450">
<ele>13.667105</ele>
<time>2026-07-15T12:17:20.000Z</time>
</trkpt>
<trkpt lat="57.131062" lon="9.192565">
<ele>13.682515</ele>
<time>2026-07-15T12:17:21.000Z</time>
</trkpt>
<trkpt lat="57.131046" lon="9.192684">
<ele>13.698489</ele>
<time>2026-07-15T12:17:22.000Z</time>
</trkpt>
<trkpt lat="57.131035" lon="9.192796">
<ele>13.713319</ele>
<time>2026-07-15T12:17:23.000Z</time>
</trkpt>
<trkpt lat="57.131024" lon="9.192907">
<ele>13.728021</ele>
<time>2026-07-15T12:17:24.000Z</time>
</trkpt>
<trkpt lat="57.131004" lon="9.193024">
<ele>13.744004</ele>
<time>2026-07-15T12:17:25.000Z</time>
</trkpt>
<trkpt lat="57.130993" lon="9.193136">
<ele>13.758834</ele>
<time>2026-07-15T12:17:26.000Z</time>
</trkpt>
<trkpt lat="57.130985" lon="9.193246">
<ele>13.773294</ele>
<time>2026-07-15T12:17:27.000Z</time>
</trkpt>
<trkpt lat="57.130982" lon="9.193351">
<ele>13.786994</ele>
<time>2026-07-15T12:17:28.000Z</time>
</trkpt>
<trkpt lat="57.130970" lon="9.193473">
<ele>13.803149</ele>
<time>2026-07-15T12:17:29.000Z</time>
</trkpt>
<trkpt lat="57.130958" lon="9.193588">
<ele>13.818407</ele>
<time>2026-07-15T12:17:30.000Z</time>
</trkpt>
<trkpt lat="57.130947" lon="9.193701">
<ele>13.833366</ele>
<time>2026-07-15T12:17:31.000Z</time>
</trkpt>
<trkpt lat="57.130932" lon="9.193814">
<ele>13.848523</ele>
<time>2026-07-15T12:17:32.000Z</time>
</trkpt>
<trkpt lat="57.130924" lon="9.193927">
<ele>13.863371</ele>
<time>2026-07-15T12:17:33.000Z</time>
</trkpt>
<trkpt lat="57.130917" lon="9.194037">
<ele>13.877068</ele>
<time>2026-07-15T12:17:34.000Z</time>
</trkpt>
<trkpt lat="57.130905" lon="9.194149">
<ele>13.888072</ele>
<time>2026-07-15T12:17:35.000Z</time>
</trkpt>
<trkpt lat="57.130897" lon="9.194259">
<ele>13.898770</ele>
<time>2026-07-15T12:17:36.000Z</time>
</trkpt>
<trkpt lat="57.130890" lon="9.194368">
<ele>13.909351</ele>
<time>2026-07-15T12:17:37.000Z</time>
</trkpt>
<trkpt lat="57.130882" lon="9.194485">
<ele>13.920718</ele>
<time>2026-07-15T12:17:38.000Z</time>
</trkpt>
<trkpt lat="57.130875" lon="9.194599">
<ele>13.931777</ele>
<time>2026-07-15T12:17:39.000Z</time>
</trkpt>
<trkpt lat="57.130863" lon="9.194721">
<ele>13.943729</ele>
<time>2026-07-15T12:17:40.000Z</time>
</trkpt>
<trkpt lat="57.130852" lon="9.194836">
<ele>13.954985</ele>
<time>2026-07-15T12:17:41.000Z</time>
</trkpt>
<trkpt lat="57.130837" lon="9.194946">
<ele>13.965918</ele>
<time>2026-07-15T12:17:42.000Z</time>
</trkpt>
<trkpt lat="57.130829" lon="9.195052">
<ele>13.976234</ele>
<time>2026-07-15T12:17:43.000Z</time>
</trkpt>
<trkpt lat="57.130813" lon="9.195166">
<ele>13.987585</ele>
<time>2026-07-15T12:17:44.000Z</time>
</trkpt>
<trkpt lat="57.130798" lon="9.195283">
<ele>13.999173</ele>
<time>2026-07-15T12:17:45.000Z</time>
</trkpt>
<trkpt lat="57.130783" lon="9.195402">
<ele>14.010950</ele>
<time>2026-07-15T12:17:46.000Z</time>
</trkpt>
<trkpt lat="57.130768" lon="9.195524">
<ele>14.023008</ele>
<time>2026-07-15T12:17:47.000Z</time>
</trkpt>
<trkpt lat="57.130753" lon="9.195642">
<ele>14.034690</ele>
<time>2026-07-15T12:17:48.000Z</time>
</trkpt>
<trkpt lat="57.130741" lon="9.195765">
<ele>14.046737</ele>
<time>2026-07-15T12:17:49.000Z</time>
</trkpt>
<trkpt lat="57.130730" lon="9.195887">
<ele>14.058658</ele>
<time>2026-07-15T12:17:50.000Z</time>
</trkpt>
<trkpt lat="57.130714" lon="9.196010">
<ele>14.070851</ele>
<time>2026-07-15T12:17:51.000Z</time>
</trkpt>
<trkpt lat="57.130699" lon="9.196132">
<ele>14.082909</ele>
<time>2026-07-15T12:17:52.000Z</time>
</trkpt>
<trkpt lat="57.130688" lon="9.196256">
<ele>14.095021</ele>
<time>2026-07-15T12:17:53.000Z</time>
</trkpt>
<trkpt lat="57.130676" lon="9.196373">
<ele>14.106498</ele>
<time>2026-07-15T12:17:54.000Z</time>
</trkpt>
<trkpt lat="57.130665" lon="9.196498">
<ele>14.118705</ele>
<time>2026-07-15T12:17:55.000Z</time>
</trkpt>
<trkpt lat="57.130649" lon="9.196619">
<ele>14.130710</ele>
<time>2026-07-15T12:17:56.000Z</time>
</trkpt>
<trkpt lat="57.130634" lon="9.196742">
<ele>14.142862</ele>
<time>2026-07-15T12:17:57.000Z</time>
</trkpt>
<trkpt lat="57.130623" lon="9.196861">
<ele>14.154499</ele>
<time>2026-07-15T12:17:58.000Z</time>
</trkpt>
<trkpt lat="57.130611" lon="9.196980">
<ele>14.166166</ele>
<time>2026-07-15T12:17:59.000Z</time>
</trkpt>
<trkpt lat="57.130596" lon="9.197098">
<ele>14.177849</ele>
<time>2026-07-15T12:18:00.000Z</time>
</trkpt>
<trkpt lat="57.130585" lon="9.197217">
<ele>14.189485</ele>
<time>2026-07-15T12:18:01.000Z</time>
</trkpt>
<trkpt lat="57.130573" lon="9.197330">
<ele>14.198708</ele>
<time>2026-07-15T12:18:02.000Z</time>
</trkpt>
<trkpt lat="57.130562" lon="9.197449">
<ele>14.206788</ele>
<time>2026-07-15T12:18:03.000Z</time>
</trkpt>
<trkpt lat="57.130550" lon="9.197564">
<ele>14.214628</ele>
<time>2026-07-15T12:18:04.000Z</time>
</trkpt>
<trkpt lat="57.130543" lon="9.197678">
<ele>14.222308</ele>
<time>2026-07-15T12:18:05.000Z</time>
</trkpt>
<trkpt lat="57.130531" lon="9.197794">
<ele>14.230213</ele>
<time>2026-07-15T12:18:06.000Z</time>
</trkpt>
<trkpt lat="57.130520" lon="9.197903">
<ele>14.237635</ele>
<time>2026-07-15T12:18:07.000Z</time>
</trkpt>
<trkpt lat="57.130512" lon="9.198018">
<ele>14.245396</ele>
<time>2026-07-15T12:18:08.000Z</time>
</trkpt>
<trkpt lat="57.130501" lon="9.198130">
<ele>14.253015</ele>
<time>2026-07-15T12:18:09.000Z</time>
</trkpt>
<trkpt lat="57.130493" lon="9.198244">
<ele>14.260710</ele>
<time>2026-07-15T12:18:10.000Z</time>
</trkpt>
<trkpt lat="57.130482" lon="9.198356">
<ele>14.268329</ele>
<time>2026-07-15T12:18:11.000Z</time>
</trkpt>
<trkpt lat="57.130474" lon="9.198472">
<ele>14.276157</ele>
<time>2026-07-15T12:18:12.000Z</time>
</trkpt>
<trkpt lat="57.130463" lon="9.198585">
<ele>14.283842</ele>
<time>2026-07-15T12:18:13.000Z</time>
</trkpt>
<trkpt lat="57.130455" lon="9.198700">
<ele>14.291604</ele>
<time>2026-07-15T12:18:14.000Z</time>
</trkpt>
<trkpt lat="57.130443" lon="9.198816">
<ele>14.299509</ele>
<time>2026-07-15T12:18:15.000Z</time>
</trkpt>
<trkpt lat="57.130432" lon="9.198934">
<ele>14.307523</ele>
<time>2026-07-15T12:18:16.000Z</time>
</trkpt>
<trkpt lat="57.130421" lon="9.199053">
<ele>14.315604</ele>
<time>2026-07-15T12:18:17.000Z</time>
</trkpt>
<trkpt lat="57.130409" lon="9.199172">
<ele>14.323707</ele>
<time>2026-07-15T12:18:18.000Z</time>
</trkpt>
<trkpt lat="57.130402" lon="9.199291">
<ele>14.331719</ele>
<time>2026-07-15T12:18:19.000Z</time>
</trkpt>
<trkpt lat="57.130390" lon="9.199412">
<ele>14.339954</ele>
<time>2026-07-15T12:18:20.000Z</time>
</trkpt>
<trkpt lat="57.130379" lon="9.199531">
<ele>14.348034</ele>
<time>2026-07-15T12:18:21.000Z</time>
</trkpt>
<trkpt lat="57.130367" lon="9.199648">
<ele>14.356005</ele>
<time>2026-07-15T12:18:22.000Z</time>
</trkpt>
<trkpt lat="57.130360" lon="9.199762">
<ele>14.363685</ele>
<time>2026-07-15T12:18:23.000Z</time>
</trkpt>
<trkpt lat="57.130348" lon="9.199876">
<ele>14.371459</ele>
<time>2026-07-15T12:18:24.000Z</time>
</trkpt>
<trkpt lat="57.130337" lon="9.199994">
<ele>14.379474</ele>
<time>2026-07-15T12:18:25.000Z</time>
</trkpt>
<trkpt lat="57.130329" lon="9.200109">
<ele>14.387235</ele>
<time>2026-07-15T12:18:26.000Z</time>
</trkpt>
<trkpt lat="57.130318" lon="9.200225">
<ele>14.395118</ele>
<time>2026-07-15T12:18:27.000Z</time>
</trkpt>
<trkpt lat="57.130310" lon="9.200332">
<ele>14.402349</ele>
<time>2026-07-15T12:18:28.000Z</time>
</trkpt>
<trkpt lat="57.130299" lon="9.200452">
<ele>14.410495</ele>
<time>2026-07-15T12:18:29.000Z</time>
</trkpt>
<trkpt lat="57.130287" lon="9.200563">
<ele>14.421289</ele>
<time>2026-07-15T12:18:30.000Z</time>
</trkpt>
<trkpt lat="57.130279" lon="9.200680">
<ele>14.443470</ele>
<time>2026-07-15T12:18:31.000Z</time>
</trkpt>
<trkpt lat="57.130268" lon="9.200796">
<ele>14.465619</ele>
<time>2026-07-15T12:18:32.000Z</time>
</trkpt>
<trkpt lat="57.130256" lon="9.200913">
<ele>14.488015</ele>
<time>2026-07-15T12:18:33.000Z</time>
</trkpt>
<trkpt lat="57.130245" lon="9.201030">
<ele>14.510350</ele>
<time>2026-07-15T12:18:34.000Z</time>
</trkpt>
<trkpt lat="57.130234" lon="9.201150">
<ele>14.533240</ele>
<time>2026-07-15T12:18:35.000Z</time>
</trkpt>
<trkpt lat="57.130222" lon="9.201275">
<ele>14.557116</ele>
<time>2026-07-15T12:18:36.000Z</time>
</trkpt>
<trkpt lat="57.130211" lon="9.201401">
<ele>14.581121</ele>
<time>2026-07-15T12:18:37.000Z</time>
</trkpt>
<trkpt lat="57.130203" lon="9.201522">
<ele>14.604048</ele>
<time>2026-07-15T12:18:38.000Z</time>
</trkpt>
<trkpt lat="57.130192" lon="9.201647">
<ele>14.627866</ele>
<time>2026-07-15T12:18:39.000Z</time>
</trkpt>
<trkpt lat="57.130184" lon="9.201764">
<ele>14.650047</ele>
<time>2026-07-15T12:18:40.000Z</time>
</trkpt>
<trkpt lat="57.130169" lon="9.201887">
<ele>14.673759</ele>
<time>2026-07-15T12:18:41.000Z</time>
</trkpt>
<trkpt lat="57.130157" lon="9.202009">
<ele>14.697080</ele>
<time>2026-07-15T12:18:42.000Z</time>
</trkpt>
<trkpt lat="57.130142" lon="9.202131">
<ele>14.720608</ele>
<time>2026-07-15T12:18:43.000Z</time>
</trkpt>
<trkpt lat="57.130135" lon="9.202254">
<ele>14.743871</ele>
<time>2026-07-15T12:18:44.000Z</time>
</trkpt>
<trkpt lat="57.130123" lon="9.202373">
<ele>14.766637</ele>
<time>2026-07-15T12:18:45.000Z</time>
</trkpt>
<trkpt lat="57.130112" lon="9.202486">
<ele>14.788230</ele>
<time>2026-07-15T12:18:46.000Z</time>
</trkpt>
<trkpt lat="57.130104" lon="9.202599">
<ele>14.809664</ele>
<time>2026-07-15T12:18:47.000Z</time>
</trkpt>
<trkpt lat="57.130093" lon="9.202712">
<ele>14.831258</ele>
<time>2026-07-15T12:18:48.000Z</time>
</trkpt>
<trkpt lat="57.130085" lon="9.202831">
<ele>14.853812</ele>
<time>2026-07-15T12:18:49.000Z</time>
</trkpt>
<trkpt lat="57.130074" lon="9.202945">
<ele>14.875591</ele>
<time>2026-07-15T12:18:50.000Z</time>
</trkpt>
<trkpt lat="57.130062" lon="9.203060">
<ele>14.897617</ele>
<time>2026-07-15T12:18:51.000Z</time>
</trkpt>
<trkpt lat="57.130051" lon="9.203175">
<ele>14.919581</ele>
<time>2026-07-15T12:18:52.000Z</time>
</trkpt>
<trkpt lat="57.130043" lon="9.203285">
<ele>14.940456</ele>
<time>2026-07-15T12:18:53.000Z</time>
</trkpt>
<trkpt lat="57.130035" lon="9.203406">
<ele>14.963384</ele>
<time>2026-07-15T12:18:54.000Z</time>
</trkpt>
<trkpt lat="57.130024" lon="9.203519">
<ele>14.984977</ele>
<time>2026-07-15T12:18:55.000Z</time>
</trkpt>
<trkpt lat="57.130016" lon="9.203634">
<ele>15.006785</ele>
<time>2026-07-15T12:18:56.000Z</time>
</trkpt>
<trkpt lat="57.130005" lon="9.203749">
<ele>15.028749</ele>
<time>2026-07-15T12:18:57.000Z</time>
</trkpt>
<trkpt lat="57.129993" lon="9.203867">
<ele>15.050951</ele>
<time>2026-07-15T12:18:58.000Z</time>
</trkpt>
<trkpt lat="57.129982" lon="9.203986">
<ele>15.072920</ele>
<time>2026-07-15T12:18:59.000Z</time>
</trkpt>
<trkpt lat="57.129971" lon="9.204103">
<ele>15.094531</ele>
<time>2026-07-15T12:19:00.000Z</time>
</trkpt>
<trkpt lat="57.129963" lon="9.204219">
<ele>15.115812</ele>
<time>2026-07-15T12:19:01.000Z</time>
</trkpt>
<trkpt lat="57.129952" lon="9.204335">
<ele>15.137243</ele>
<time>2026-07-15T12:19:02.000Z</time>
</trkpt>
<trkpt lat="57.129940" lon="9.204452">
<ele>15.158913</ele>
<time>2026-07-15T12:19:03.000Z</time>
</trkpt>
<trkpt lat="57.129929" lon="9.204574">
<ele>15.181421</ele>
<time>2026-07-15T12:19:04.000Z</time>
</trkpt>
<trkpt lat="57.129917" lon="9.204693">
<ele>15.203449</ele>
<time>2026-07-15T12:19:05.000Z</time>
</trkpt>
<trkpt lat="57.129906" lon="9.204814">
<ele>15.225777</ele>
<time>2026-07-15T12:19:06.000Z</time>
</trkpt>
<trkpt lat="57.129894" lon="9.204932">
<ele>15.247626</ele>
<time>2026-07-15T12:19:07.000Z</time>
</trkpt>
<trkpt lat="57.129887" lon="9.205049">
<ele>15.269049</ele>
<time>2026-07-15T12:19:08.000Z</time>
</trkpt>
<trkpt lat="57.129875" lon="9.205167">
<ele>15.290898</ele>
<time>2026-07-15T12:19:09.000Z</time>
</trkpt>
<trkpt lat="57.129868" lon="9.205285">
<ele>15.312501</ele>
<time>2026-07-15T12:19:10.000Z</time>
</trkpt>
<trkpt lat="57.129856" lon="9.205402">
<ele>15.334172</ele>
<time>2026-07-15T12:19:11.000Z</time>
</trkpt>
<trkpt lat="57.129845" lon="9.205519">
<ele>15.355782</ele>
<time>2026-07-15T12:19:12.000Z</time>
</trkpt>
<trkpt lat="57.129833" lon="9.205637">
<ele>15.377632</ele>
<time>2026-07-15T12:19:13.000Z</time>
</trkpt>
<trkpt lat="57.129822" lon="9.205753">
<ele>15.399063</ele>
<time>2026-07-15T12:19:14.000Z</time>
</trkpt>
<trkpt lat="57.129814" lon="9.205871">
<ele>15.420705</ele>
<time>2026-07-15T12:19:15.000Z</time>
</trkpt>
<trkpt lat="57.129803" lon="9.205990">
<ele>15.442675</ele>
<time>2026-07-15T12:19:16.000Z</time>
</trkpt>
<trkpt lat="57.129795" lon="9.206114">
<ele>15.465401</ele>
<time>2026-07-15T12:19:17.000Z</time>
</trkpt>
<trkpt lat="57.129780" lon="9.206233">
<ele>15.487635</ele>
<time>2026-07-15T12:19:18.000Z</time>
</trkpt>
<trkpt lat="57.129769" lon="9.206352">
<ele>15.509604</ele>
<time>2026-07-15T12:19:19.000Z</time>
</trkpt>
<trkpt lat="57.129761" lon="9.206479">
<ele>15.532873</ele>
<time>2026-07-15T12:19:20.000Z</time>
</trkpt>
<trkpt lat="57.129750" lon="9.206595">
<ele>15.554304</ele>
<time>2026-07-15T12:19:21.000Z</time>
</trkpt>
<trkpt lat="57.129742" lon="9.206719">
<ele>15.577031</ele>
<time>2026-07-15T12:19:22.000Z</time>
</trkpt>
<trkpt lat="57.129730" lon="9.206838">
<ele>15.599059</ele>
<time>2026-07-15T12:19:23.000Z</time>
</trkpt>
<trkpt lat="57.129719" lon="9.206959">
<ele>15.621387</ele>
<time>2026-07-15T12:19:24.000Z</time>
</trkpt>
<trkpt lat="57.129707" lon="9.207081">
<ele>15.643350</ele>
<time>2026-07-15T12:19:25.000Z</time>
</trkpt>
<trkpt lat="57.129696" lon="9.207201">
<ele>15.654167</ele>
<time>2026-07-15T12:19:26.000Z</time>
</trkpt>
<trkpt lat="57.129681" lon="9.207321">
<ele>15.665111</ele>
<time>2026-07-15T12:19:27.000Z</time>
</trkpt>
<trkpt lat="57.129665" lon="9.207444">
<ele>15.676353</ele>
<time>2026-07-15T12:19:28.000Z</time>
</trkpt>
<trkpt lat="57.129650" lon="9.207565">
<ele>15.687384</ele>
<time>2026-07-15T12:19:29.000Z</time>
</trkpt>
<trkpt lat="57.129635" lon="9.207687">
<ele>15.698502</ele>
<time>2026-07-15T12:19:30.000Z</time>
</trkpt>
<trkpt lat="57.129619" lon="9.207806">
<ele>15.709398</ele>
<time>2026-07-15T12:19:31.000Z</time>
</trkpt>
<trkpt lat="57.129597" lon="9.207924">
<ele>15.720487</ele>
<time>2026-07-15T12:19:32.000Z</time>
</trkpt>
<trkpt lat="57.129581" lon="9.208044">
<ele>15.731470</ele>
<time>2026-07-15T12:19:33.000Z</time>
</trkpt>
<trkpt lat="57.129563" lon="9.208161">
<ele>15.742278</ele>
<time>2026-07-15T12:19:34.000Z</time>
</trkpt>
<trkpt lat="57.129544" lon="9.208280">
<ele>15.753303</ele>
<time>2026-07-15T12:19:35.000Z</time>
</trkpt>
<trkpt lat="57.129528" lon="9.208398">
<ele>15.764113</ele>
<time>2026-07-15T12:19:36.000Z</time>
</trkpt>
<trkpt lat="57.129509" lon="9.208520">
<ele>15.775394</ele>
<time>2026-07-15T12:19:37.000Z</time>
</trkpt>
<trkpt lat="57.129494" lon="9.208635">
<ele>15.785906</ele>
<time>2026-07-15T12:19:38.000Z</time>
</trkpt>
<trkpt lat="57.129475" lon="9.208755">
<ele>15.797016</ele>
<time>2026-07-15T12:19:39.000Z</time>
</trkpt>
<trkpt lat="57.129459" lon="9.208874">
<ele>15.807912</ele>
<time>2026-07-15T12:19:40.000Z</time>
</trkpt>
<trkpt lat="57.129437" lon="9.208993">
<ele>15.819085</ele>
<time>2026-07-15T12:19:41.000Z</time>
</trkpt>
<trkpt lat="57.129421" lon="9.209118">
<ele>15.830500</ele>
<time>2026-07-15T12:19:42.000Z</time>
</trkpt>
<trkpt lat="57.129402" lon="9.209237">
<ele>15.841524</ele>
<time>2026-07-15T12:19:43.000Z</time>
</trkpt>
<trkpt lat="57.129387" lon="9.209359">
<ele>15.852642</ele>
<time>2026-07-15T12:19:44.000Z</time>
</trkpt>
<trkpt lat="57.129368" lon="9.209478">
<ele>15.863667</ele>
<time>2026-07-15T12:19:45.000Z</time>
</trkpt>
<trkpt lat="57.129349" lon="9.209598">
<ele>15.874777</ele>
<time>2026-07-15T12:19:46.000Z</time>
</trkpt>
<trkpt lat="57.129330" lon="9.209721">
<ele>15.886143</ele>
<time>2026-07-15T12:19:47.000Z</time>
</trkpt>
<trkpt lat="57.129314" lon="9.209842">
<ele>15.897212</ele>
<time>2026-07-15T12:19:48.000Z</time>
</trkpt>
<trkpt lat="57.129295" lon="9.209963">
<ele>15.908408</ele>
<time>2026-07-15T12:19:49.000Z</time>
</trkpt>
<trkpt lat="57.129280" lon="9.210086">
<ele>15.919612</ele>
<time>2026-07-15T12:19:50.000Z</time>
</trkpt>
<trkpt lat="57.129261" lon="9.210208">
<ele>15.930893</ele>
<time>2026-07-15T12:19:51.000Z</time>
</trkpt>
<trkpt lat="57.129242" lon="9.210333">
<ele>15.943060</ele>
<time>2026-07-15T12:19:52.000Z</time>
</trkpt>
<trkpt lat="57.129223" lon="9.210454">
<ele>15.955633</ele>
<time>2026-07-15T12:19:53.000Z</time>
</trkpt>
<trkpt lat="57.129208" lon="9.210573">
<ele>15.967827</ele>
<time>2026-07-15T12:19:54.000Z</time>
</trkpt>
<trkpt lat="57.129188" lon="9.210697">
<ele>15.980740</ele>
<time>2026-07-15T12:19:55.000Z</time>
</trkpt>
<trkpt lat="57.129169" lon="9.210819">
<ele>15.993409</ele>
<time>2026-07-15T12:19:56.000Z</time>
</trkpt>
<trkpt lat="57.129150" lon="9.210941">
<ele>16.006078</ele>
<time>2026-07-15T12:19:57.000Z</time>
</trkpt>
<trkpt lat="57.129135" lon="9.211063">
<ele>16.018564</ele>
<time>2026-07-15T12:19:58.000Z</time>
</trkpt>
<trkpt lat="57.129116" lon="9.211187">
<ele>16.031426</ele>
<time>2026-07-15T12:19:59.000Z</time>
</trkpt>
<trkpt lat="57.129097" lon="9.211310">
<ele>16.044191</ele>
<time>2026-07-15T12:20:00.000Z</time>
</trkpt>
<trkpt lat="57.129082" lon="9.211427">
<ele>16.056191</ele>
<time>2026-07-15T12:20:01.000Z</time>
</trkpt>
<trkpt lat="57.129062" lon="9.211553">
<ele>16.069295</ele>
<time>2026-07-15T12:20:02.000Z</time>
</trkpt>
<trkpt lat="57.129044" lon="9.211674">
<ele>16.081818</ele>
<time>2026-07-15T12:20:03.000Z</time>
</trkpt>
<trkpt lat="57.129028" lon="9.211793">
<ele>16.094056</ele>
<time>2026-07-15T12:20:04.000Z</time>
</trkpt>
<trkpt lat="57.129010" lon="9.211910">
<ele>16.106194</ele>
<time>2026-07-15T12:20:05.000Z</time>
</trkpt>
<trkpt lat="57.128990" lon="9.212030">
<ele>16.118725</ele>
<time>2026-07-15T12:20:06.000Z</time>
</trkpt>
<trkpt lat="57.128975" lon="9.212149">
<ele>16.130919</ele>
<time>2026-07-15T12:20:07.000Z</time>
</trkpt>
<trkpt lat="57.128963" lon="9.212261">
<ele>16.142315</ele>
<time>2026-07-15T12:20:08.000Z</time>
</trkpt>
<trkpt lat="57.128948" lon="9.212375">
<ele>16.154023</ele>
<time>2026-07-15T12:20:09.000Z</time>
</trkpt>
<trkpt lat="57.128937" lon="9.212486">
<ele>16.165286</ele>
<time>2026-07-15T12:20:10.000Z</time>
</trkpt>
<trkpt lat="57.128922" lon="9.212604">
<ele>16.177384</ele>
<time>2026-07-15T12:20:11.000Z</time>
</trkpt>
<trkpt lat="57.128906" lon="9.212723">
<ele>16.189621</ele>
<time>2026-07-15T12:20:12.000Z</time>
</trkpt>
<trkpt lat="57.128891" lon="9.212844">
<ele>16.202010</ele>
<time>2026-07-15T12:20:13.000Z</time>
</trkpt>
<trkpt lat="57.128876" lon="9.212961">
<ele>16.214010</ele>
<time>2026-07-15T12:20:14.000Z</time>
</trkpt>
<trkpt lat="57.128861" lon="9.213072">
<ele>16.225429</ele>
<time>2026-07-15T12:20:15.000Z</time>
</trkpt>
<trkpt lat="57.128845" lon="9.213191">
<ele>16.237666</ele>
<time>2026-07-15T12:20:16.000Z</time>
</trkpt>
<trkpt lat="57.128830" lon="9.213301">
<ele>16.248987</ele>
<time>2026-07-15T12:20:17.000Z</time>
</trkpt>
<trkpt lat="57.128818" lon="9.213410">
<ele>16.260089</ele>
<time>2026-07-15T12:20:18.000Z</time>
</trkpt>
<trkpt lat="57.128803" lon="9.213527">
<ele>16.273790</ele>
<time>2026-07-15T12:20:19.000Z</time>
</trkpt>
<trkpt lat="57.128792" lon="9.213640">
<ele>16.290149</ele>
<time>2026-07-15T12:20:20.000Z</time>
</trkpt>
<trkpt lat="57.128780" lon="9.213754">
<ele>16.306696</ele>
<time>2026-07-15T12:20:21.000Z</time>
</trkpt>
<trkpt lat="57.128765" lon="9.213872">
<ele>16.323965</ele>
<time>2026-07-15T12:20:22.000Z</time>
</trkpt>
<trkpt lat="57.128750" lon="9.213991">
<ele>16.341372</ele>
<time>2026-07-15T12:20:23.000Z</time>
</trkpt>
<trkpt lat="57.128731" lon="9.214114">
<ele>16.359595</ele>
<time>2026-07-15T12:20:24.000Z</time>
</trkpt>
<trkpt lat="57.128712" lon="9.214233">
<ele>16.377270</ele>
<time>2026-07-15T12:20:25.000Z</time>
</trkpt>
<trkpt lat="57.128700" lon="9.214350">
<ele>16.394237</ele>
<time>2026-07-15T12:20:26.000Z</time>
</trkpt>
<trkpt lat="57.128685" lon="9.214467">
<ele>16.411367</ele>
<time>2026-07-15T12:20:27.000Z</time>
</trkpt>
<trkpt lat="57.128666" lon="9.214587">
<ele>16.429179</ele>
<time>2026-07-15T12:20:28.000Z</time>
</trkpt>
<trkpt lat="57.128651" lon="9.214706">
<ele>16.446586</ele>
<time>2026-07-15T12:20:29.000Z</time>
</trkpt>
<trkpt lat="57.128631" lon="9.214830">
<ele>16.465019</ele>
<time>2026-07-15T12:20:30.000Z</time>
</trkpt>
<trkpt lat="57.128613" lon="9.214945">
<ele>16.482074</ele>
<time>2026-07-15T12:20:31.000Z</time>
</trkpt>
<trkpt lat="57.128593" lon="9.215065">
<ele>16.499961</ele>
<time>2026-07-15T12:20:32.000Z</time>
</trkpt>
<trkpt lat="57.128574" lon="9.215186">
<ele>16.517909</ele>
<time>2026-07-15T12:20:33.000Z</time>
</trkpt>
<trkpt lat="57.128555" lon="9.215306">
<ele>16.535721</ele>
<time>2026-07-15T12:20:34.000Z</time>
</trkpt>
<trkpt lat="57.128540" lon="9.215426">
<ele>16.553268</ele>
<time>2026-07-15T12:20:35.000Z</time>
</trkpt>
<trkpt lat="57.128524" lon="9.215545">
<ele>16.570737</ele>
<time>2026-07-15T12:20:36.000Z</time>
</trkpt>
<trkpt lat="57.128502" lon="9.215657">
<ele>16.587709</ele>
<time>2026-07-15T12:20:37.000Z</time>
</trkpt>
<trkpt lat="57.128483" lon="9.215767">
<ele>16.604158</ele>
<time>2026-07-15T12:20:38.000Z</time>
</trkpt>
<trkpt lat="57.128464" lon="9.215878">
<ele>16.620743</ele>
<time>2026-07-15T12:20:39.000Z</time>
</trkpt>
<trkpt lat="57.128445" lon="9.215991">
<ele>16.637599</ele>
<time>2026-07-15T12:20:40.000Z</time>
</trkpt>
<trkpt lat="57.128429" lon="9.216102">
<ele>16.653964</ele>
<time>2026-07-15T12:20:41.000Z</time>
</trkpt>
<trkpt lat="57.128418" lon="9.216211">
<ele>16.669762</ele>
<time>2026-07-15T12:20:42.000Z</time>
</trkpt>
<trkpt lat="57.128407" lon="9.216316">
<ele>16.685000</ele>
<time>2026-07-15T12:20:43.000Z</time>
</trkpt>
<trkpt lat="57.128392" lon="9.216423">
<ele>16.700747</ele>
<time>2026-07-15T12:20:44.000Z</time>
</trkpt>
<trkpt lat="57.128376" lon="9.216533">
<ele>16.716975</ele>
<time>2026-07-15T12:20:45.000Z</time>
</trkpt>
<trkpt lat="57.128361" lon="9.216638">
<ele>16.732446</ele>
<time>2026-07-15T12:20:46.000Z</time>
</trkpt>
<trkpt lat="57.128349" lon="9.216740">
<ele>16.751793</ele>
<time>2026-07-15T12:20:47.000Z</time>
</trkpt>
<trkpt lat="57.128338" lon="9.216842">
<ele>16.776084</ele>
<time>2026-07-15T12:20:48.000Z</time>
</trkpt>
<trkpt lat="57.128327" lon="9.216952">
<ele>16.802210</ele>
<time>2026-07-15T12:20:49.000Z</time>
</trkpt>
<trkpt lat="57.128311" lon="9.217060">
<ele>16.828360</ele>
<time>2026-07-15T12:20:50.000Z</time>
</trkpt>
<trkpt lat="57.128296" lon="9.217165">
<ele>16.853722</ele>
<time>2026-07-15T12:20:51.000Z</time>
</trkpt>
<trkpt lat="57.128277" lon="9.217272">
<ele>16.880018</ele>
<time>2026-07-15T12:20:52.000Z</time>
</trkpt>
<trkpt lat="57.128265" lon="9.217371">
<ele>16.903713</ele>
<time>2026-07-15T12:20:53.000Z</time>
</trkpt>
<trkpt lat="57.128250" lon="9.217470">
<ele>16.927721</ele>
<time>2026-07-15T12:20:54.000Z</time>
</trkpt>
<trkpt lat="57.128235" lon="9.217569">
<ele>16.951730</ele>
<time>2026-07-15T12:20:55.000Z</time>
</trkpt>
<trkpt lat="57.128224" lon="9.217669">
<ele>16.975563</ele>
<time>2026-07-15T12:20:56.000Z</time>
</trkpt>
<trkpt lat="57.128212" lon="9.217772">
<ele>17.000170</ele>
<time>2026-07-15T12:20:57.000Z</time>
</trkpt>
<trkpt lat="57.128200" lon="9.217875">
<ele>17.024777</ele>
<time>2026-07-15T12:20:58.000Z</time>
</trkpt>
<trkpt lat="57.128189" lon="9.217976">
<ele>17.048839</ele>
<time>2026-07-15T12:20:59.000Z</time>
</trkpt>
<trkpt lat="57.128174" lon="9.218075">
<ele>17.072848</ele>
<time>2026-07-15T12:21:00.000Z</time>
</trkpt>
<trkpt lat="57.128163" lon="9.218176">
<ele>17.096910</ele>
<time>2026-07-15T12:21:01.000Z</time>
</trkpt>
<trkpt lat="57.128151" lon="9.218279">
<ele>17.121517</ele>
<time>2026-07-15T12:21:02.000Z</time>
</trkpt>
<trkpt lat="57.128139" lon="9.218387">
<ele>17.147267</ele>
<time>2026-07-15T12:21:03.000Z</time>
</trkpt>
<trkpt lat="57.128124" lon="9.218497">
<ele>17.173760</ele>
<time>2026-07-15T12:21:04.000Z</time>
</trkpt>
<trkpt lat="57.128105" lon="9.218611">
<ele>17.201616</ele>
<time>2026-07-15T12:21:05.000Z</time>
</trkpt>
<trkpt lat="57.128090" lon="9.218720">
<ele>17.227882</ele>
<time>2026-07-15T12:21:06.000Z</time>
</trkpt>
<trkpt lat="57.128071" lon="9.218832">
<ele>17.255291</ele>
<time>2026-07-15T12:21:07.000Z</time>
</trkpt>
<trkpt lat="57.128059" lon="9.218935">
<ele>17.279898</ele>
<time>2026-07-15T12:21:08.000Z</time>
</trkpt>
<trkpt lat="57.128048" lon="9.219038">
<ele>17.304419</ele>
<time>2026-07-15T12:21:09.000Z</time>
</trkpt>
<trkpt lat="57.128033" lon="9.219141">
<ele>17.329329</ele>
<time>2026-07-15T12:21:10.000Z</time>
</trkpt>
<trkpt lat="57.128014" lon="9.219251">
<ele>17.356293</ele>
<time>2026-07-15T12:21:11.000Z</time>
</trkpt>
<trkpt lat="57.127998" lon="9.219361">
<ele>17.382893</ele>
<time>2026-07-15T12:21:12.000Z</time>
</trkpt>
<trkpt lat="57.127979" lon="9.219470">
<ele>17.409635</ele>
<time>2026-07-15T12:21:13.000Z</time>
</trkpt>
<trkpt lat="57.127960" lon="9.219581">
<ele>17.436821</ele>
<time>2026-07-15T12:21:14.000Z</time>
</trkpt>
<trkpt lat="57.127945" lon="9.219691">
<ele>17.463314</ele>
<time>2026-07-15T12:21:15.000Z</time>
</trkpt>
<trkpt lat="57.127930" lon="9.219801">
<ele>17.489807</ele>
<time>2026-07-15T12:21:16.000Z</time>
</trkpt>
<trkpt lat="57.127915" lon="9.219910">
<ele>17.514799</ele>
<time>2026-07-15T12:21:17.000Z</time>
</trkpt>
<trkpt lat="57.127899" lon="9.220022">
<ele>17.521502</ele>
<time>2026-07-15T12:21:18.000Z</time>
</trkpt>
<trkpt lat="57.127884" lon="9.220132">
<ele>17.528066</ele>
<time>2026-07-15T12:21:19.000Z</time>
</trkpt>
<trkpt lat="57.127872" lon="9.220240">
<ele>17.534446</ele>
<time>2026-07-15T12:21:20.000Z</time>
</trkpt>
<trkpt lat="57.127857" lon="9.220346">
<ele>17.540786</ele>
<time>2026-07-15T12:21:21.000Z</time>
</trkpt>
<trkpt lat="57.127842" lon="9.220453">
<ele>17.547182</ele>
<time>2026-07-15T12:21:22.000Z</time>
</trkpt>
<trkpt lat="57.127823" lon="9.220562">
<ele>17.553808</ele>
<time>2026-07-15T12:21:23.000Z</time>
</trkpt>
<trkpt lat="57.127804" lon="9.220674">
<ele>17.560599</ele>
<time>2026-07-15T12:21:24.000Z</time>
</trkpt>
<trkpt lat="57.127789" lon="9.220781">
<ele>17.566995</ele>
<time>2026-07-15T12:21:25.000Z</time>
</trkpt>
<trkpt lat="57.127769" lon="9.220893">
<ele>17.573819</ele>
<time>2026-07-15T12:21:26.000Z</time>
</trkpt>
<trkpt lat="57.127747" lon="9.221007">
<ele>17.580821</ele>
<time>2026-07-15T12:21:27.000Z</time>
</trkpt>
<trkpt lat="57.127727" lon="9.221125">
<ele>17.587976</ele>
<time>2026-07-15T12:21:28.000Z</time>
</trkpt>
<trkpt lat="57.127708" lon="9.221239">
<ele>17.594877</ele>
<time>2026-07-15T12:21:29.000Z</time>
</trkpt>
<trkpt lat="57.127690" lon="9.221350">
<ele>17.601582</ele>
<time>2026-07-15T12:21:30.000Z</time>
</trkpt>
<trkpt lat="57.127670" lon="9.221467">
<ele>17.608681</ele>
<time>2026-07-15T12:21:31.000Z</time>
</trkpt>
<trkpt lat="57.127643" lon="9.221586">
<ele>17.616146</ele>
<time>2026-07-15T12:21:32.000Z</time>
</trkpt>
<trkpt lat="57.127617" lon="9.221706">
<ele>17.623624</ele>
<time>2026-07-15T12:21:33.000Z</time>
</trkpt>
<trkpt lat="57.127594" lon="9.221825">
<ele>17.630935</ele>
<time>2026-07-15T12:21:34.000Z</time>
</trkpt>
<trkpt lat="57.127571" lon="9.221953">
<ele>17.638738</ele>
<time>2026-07-15T12:21:35.000Z</time>
</trkpt>
<trkpt lat="57.127552" lon="9.222072">
<ele>17.645917</ele>
<time>2026-07-15T12:21:36.000Z</time>
</trkpt>
<trkpt lat="57.127537" lon="9.222192">
<ele>17.653044</ele>
<time>2026-07-15T12:21:37.000Z</time>
</trkpt>
<trkpt lat="57.127518" lon="9.222307">
<ele>17.660001</ele>
<time>2026-07-15T12:21:38.000Z</time>
</trkpt>
<trkpt lat="57.127499" lon="9.222422">
<ele>17.666959</ele>
<time>2026-07-15T12:21:39.000Z</time>
</trkpt>
<trkpt lat="57.127480" lon="9.222532">
<ele>17.673639</ele>
<time>2026-07-15T12:21:40.000Z</time>
</trkpt>
<trkpt lat="57.127464" lon="9.222642">
<ele>17.680230</ele>
<time>2026-07-15T12:21:41.000Z</time>
</trkpt>
<trkpt lat="57.127442" lon="9.222751">
<ele>17.686961</ele>
<time>2026-07-15T12:21:42.000Z</time>
</trkpt>
<trkpt lat="57.127418" lon="9.222865">
<ele>17.694038</ele>
<time>2026-07-15T12:21:43.000Z</time>
</trkpt>
<trkpt lat="57.127403" lon="9.222979">
<ele>17.700827</ele>
<time>2026-07-15T12:21:44.000Z</time>
</trkpt>
<trkpt lat="57.127380" lon="9.223095">
<ele>17.709744</ele>
<time>2026-07-15T12:21:45.000Z</time>
</trkpt>
<trkpt lat="57.127365" lon="9.223207">
<ele>17.722967</ele>
<time>2026-07-15T12:21:46.000Z</time>
</trkpt>
<trkpt lat="57.127342" lon="9.223320">
<ele>17.736801</ele>
<time>2026-07-15T12:21:47.000Z</time>
</trkpt>
<trkpt lat="57.127323" lon="9.223432">
<ele>17.750251</ele>
<time>2026-07-15T12:21:48.000Z</time>
</trkpt>
<trkpt lat="57.127304" lon="9.223544">
<ele>17.763701</ele>
<time>2026-07-15T12:21:49.000Z</time>
</trkpt>
<trkpt lat="57.127285" lon="9.223657">
<ele>17.777261</ele>
<time>2026-07-15T12:21:50.000Z</time>
</trkpt>
<trkpt lat="57.127270" lon="9.223769">
<ele>17.790484</ele>
<time>2026-07-15T12:21:51.000Z</time>
</trkpt>
<trkpt lat="57.127250" lon="9.223886">
<ele>17.804544</ele>
<time>2026-07-15T12:21:52.000Z</time>
</trkpt>
<trkpt lat="57.127231" lon="9.223999">
<ele>17.818104</ele>
<time>2026-07-15T12:21:53.000Z</time>
</trkpt>
<trkpt lat="57.127216" lon="9.224112">
<ele>17.831439</ele>
<time>2026-07-15T12:21:54.000Z</time>
</trkpt>
<trkpt lat="57.127197" lon="9.224223">
<ele>17.844780</ele>
<time>2026-07-15T12:21:55.000Z</time>
</trkpt>
<trkpt lat="57.127178" lon="9.224335">
<ele>17.858230</ele>
<time>2026-07-15T12:21:56.000Z</time>
</trkpt>
<trkpt lat="57.127159" lon="9.224450">
<ele>17.872009</ele>
<time>2026-07-15T12:21:57.000Z</time>
</trkpt>
<trkpt lat="57.127140" lon="9.224562">
<ele>17.885459</ele>
<time>2026-07-15T12:21:58.000Z</time>
</trkpt>
<trkpt lat="57.127125" lon="9.224677">
<ele>17.899016</ele>
<time>2026-07-15T12:21:59.000Z</time>
</trkpt>
<trkpt lat="57.127109" lon="9.224793">
<ele>17.912735</ele>
<time>2026-07-15T12:22:00.000Z</time>
</trkpt>
<trkpt lat="57.127094" lon="9.224906">
<ele>17.926070</ele>
<time>2026-07-15T12:22:01.000Z</time>
</trkpt>
<trkpt lat="57.127075" lon="9.225021">
<ele>17.939849</ele>
<time>2026-07-15T12:22:02.000Z</time>
</trkpt>
<trkpt lat="57.127056" lon="9.225132">
<ele>17.953190</ele>
<time>2026-07-15T12:22:03.000Z</time>
</trkpt>
<trkpt lat="57.127037" lon="9.225250">
<ele>17.967298</ele>
<time>2026-07-15T12:22:04.000Z</time>
</trkpt>
<trkpt lat="57.127018" lon="9.225366">
<ele>17.981187</ele>
<time>2026-07-15T12:22:05.000Z</time>
</trkpt>
<trkpt lat="57.127003" lon="9.225481">
<ele>17.994744</ele>
<time>2026-07-15T12:22:06.000Z</time>
</trkpt>
<trkpt lat="57.126984" lon="9.225596">
<ele>18.008523</ele>
<time>2026-07-15T12:22:07.000Z</time>
</trkpt>
<trkpt lat="57.126969" lon="9.225709">
<ele>18.021858</ele>
<time>2026-07-15T12:22:08.000Z</time>
</trkpt>
<trkpt lat="57.126953" lon="9.225823">
<ele>18.035355</ele>
<time>2026-07-15T12:22:09.000Z</time>
</trkpt>
<trkpt lat="57.126934" lon="9.225938">
<ele>18.049134</ele>
<time>2026-07-15T12:22:10.000Z</time>
</trkpt>
<trkpt lat="57.126919" lon="9.226051">
<ele>18.062468</ele>
<time>2026-07-15T12:22:11.000Z</time>
</trkpt>
<trkpt lat="57.126904" lon="9.226168">
<ele>18.076248</ele>
<time>2026-07-15T12:22:12.000Z</time>
</trkpt>
<trkpt lat="57.126884" lon="9.226290">
<ele>18.086411</ele>
<time>2026-07-15T12:22:13.000Z</time>
</trkpt>
<trkpt lat="57.126865" lon="9.226407">
<ele>18.087571</ele>
<time>2026-07-15T12:22:14.000Z</time>
</trkpt>
<trkpt lat="57.126850" lon="9.226526">
<ele>18.088731</ele>
<time>2026-07-15T12:22:15.000Z</time>
</trkpt>
<trkpt lat="57.126831" lon="9.226646">
<ele>18.089918</ele>
<time>2026-07-15T12:22:16.000Z</time>
</trkpt>
<trkpt lat="57.126812" lon="9.226764">
<ele>18.091087</ele>
<time>2026-07-15T12:22:17.000Z</time>
</trkpt>
<trkpt lat="57.126797" lon="9.226883">
<ele>18.092247</ele>
<time>2026-07-15T12:22:18.000Z</time>
</trkpt>
<trkpt lat="57.126777" lon="9.227005">
<ele>18.093457</ele>
<time>2026-07-15T12:22:19.000Z</time>
</trkpt>
<trkpt lat="57.126763" lon="9.227119">
<ele>18.094567</ele>
<time>2026-07-15T12:22:20.000Z</time>
</trkpt>
<trkpt lat="57.126743" lon="9.227235">
<ele>18.095723</ele>
<time>2026-07-15T12:22:21.000Z</time>
</trkpt>
<trkpt lat="57.126732" lon="9.227347">
<ele>18.096804</ele>
<time>2026-07-15T12:22:22.000Z</time>
</trkpt>
<trkpt lat="57.126713" lon="9.227466">
<ele>18.097981</ele>
<time>2026-07-15T12:22:23.000Z</time>
</trkpt>
<trkpt lat="57.126698" lon="9.227585">
<ele>18.099142</ele>
<time>2026-07-15T12:22:24.000Z</time>
</trkpt>
<trkpt lat="57.126679" lon="9.227701">
<ele>18.100292</ele>
<time>2026-07-15T12:22:25.000Z</time>
</trkpt>
<trkpt lat="57.126663" lon="9.227820">
<ele>18.101456</ele>
<time>2026-07-15T12:22:26.000Z</time>
</trkpt>
<trkpt lat="57.126644" lon="9.227935">
<ele>18.102598</ele>
<time>2026-07-15T12:22:27.000Z</time>
</trkpt>
<trkpt lat="57.126629" lon="9.228047">
<ele>18.103693</ele>
<time>2026-07-15T12:22:28.000Z</time>
</trkpt>
<trkpt lat="57.126610" lon="9.228166">
<ele>18.104871</ele>
<time>2026-07-15T12:22:29.000Z</time>
</trkpt>
<trkpt lat="57.126594" lon="9.228283">
<ele>18.106017</ele>
<time>2026-07-15T12:22:30.000Z</time>
</trkpt>
<trkpt lat="57.126579" lon="9.228400">
<ele>18.107159</ele>
<time>2026-07-15T12:22:31.000Z</time>
</trkpt>
<trkpt lat="57.126560" lon="9.228518">
<ele>18.108327</ele>
<time>2026-07-15T12:22:32.000Z</time>
</trkpt>
<trkpt lat="57.126545" lon="9.228632">
<ele>18.109441</ele>
<time>2026-07-15T12:22:33.000Z</time>
</trkpt>
<trkpt lat="57.126526" lon="9.228751">
<ele>18.110619</ele>
<time>2026-07-15T12:22:34.000Z</time>
</trkpt>
<trkpt lat="57.126511" lon="9.228869">
<ele>18.111770</ele>
<time>2026-07-15T12:22:35.000Z</time>
</trkpt>
<trkpt lat="57.126492" lon="9.228985">
<ele>18.112921</ele>
<time>2026-07-15T12:22:36.000Z</time>
</trkpt>
<trkpt lat="57.126476" lon="9.229101">
<ele>18.114057</ele>
<time>2026-07-15T12:22:37.000Z</time>
</trkpt>
<trkpt lat="57.126457" lon="9.229215">
<ele>18.115190</ele>
<time>2026-07-15T12:22:38.000Z</time>
</trkpt>
<trkpt lat="57.126438" lon="9.229327">
<ele>18.116304</ele>
<time>2026-07-15T12:22:39.000Z</time>
</trkpt>
<trkpt lat="57.126423" lon="9.229441">
<ele>18.117418</ele>
<time>2026-07-15T12:22:40.000Z</time>
</trkpt>
<trkpt lat="57.126407" lon="9.229557">
<ele>18.128419</ele>
<time>2026-07-15T12:22:41.000Z</time>
</trkpt>
<trkpt lat="57.126392" lon="9.229669">
<ele>18.139545</ele>
<time>2026-07-15T12:22:42.000Z</time>
</trkpt>
<trkpt lat="57.126373" lon="9.229784">
<ele>18.151139</ele>
<time>2026-07-15T12:22:43.000Z</time>
</trkpt>
<trkpt lat="57.126358" lon="9.229896">
<ele>18.162265</ele>
<time>2026-07-15T12:22:44.000Z</time>
</trkpt>
<trkpt lat="57.126339" lon="9.230011">
<ele>18.173859</ele>
<time>2026-07-15T12:22:45.000Z</time>
</trkpt>
<trkpt lat="57.126320" lon="9.230124">
<ele>18.185268</ele>
<time>2026-07-15T12:22:46.000Z</time>
</trkpt>
<trkpt lat="57.126305" lon="9.230235">
<ele>18.196300</ele>
<time>2026-07-15T12:22:47.000Z</time>
</trkpt>
<trkpt lat="57.126286" lon="9.230348">
<ele>18.207710</ele>
<time>2026-07-15T12:22:48.000Z</time>
</trkpt>
<trkpt lat="57.126266" lon="9.230465">
<ele>18.219540</ele>
<time>2026-07-15T12:22:49.000Z</time>
</trkpt>
<trkpt lat="57.126251" lon="9.230577">
<ele>18.230666</ele>
<time>2026-07-15T12:22:50.000Z</time>
</trkpt>
<trkpt lat="57.126236" lon="9.230693">
<ele>18.242167</ele>
<time>2026-07-15T12:22:51.000Z</time>
</trkpt>
<trkpt lat="57.126217" lon="9.230807">
<ele>18.253668</ele>
<time>2026-07-15T12:22:52.000Z</time>
</trkpt>
<trkpt lat="57.126202" lon="9.230922">
<ele>18.265075</ele>
<time>2026-07-15T12:22:53.000Z</time>
</trkpt>
<trkpt lat="57.126183" lon="9.231037">
<ele>18.276669</ele>
<time>2026-07-15T12:22:54.000Z</time>
</trkpt>
<trkpt lat="57.126163" lon="9.231152">
<ele>18.288316</ele>
<time>2026-07-15T12:22:55.000Z</time>
</trkpt>
<trkpt lat="57.126148" lon="9.231265">
<ele>18.299536</ele>
<time>2026-07-15T12:22:56.000Z</time>
</trkpt>
<trkpt lat="57.126133" lon="9.231380">
<ele>18.310943</ele>
<time>2026-07-15T12:22:57.000Z</time>
</trkpt>
<trkpt lat="57.126114" lon="9.231495">
<ele>18.322536</ele>
<time>2026-07-15T12:22:58.000Z</time>
</trkpt>
<trkpt lat="57.126099" lon="9.231611">
<ele>18.334037</ele>
<time>2026-07-15T12:22:59.000Z</time>
</trkpt>
<trkpt lat="57.126084" lon="9.231726">
<ele>18.345444</ele>
<time>2026-07-15T12:23:00.000Z</time>
</trkpt>
<trkpt lat="57.126065" lon="9.231842">
<ele>18.357130</ele>
<time>2026-07-15T12:23:01.000Z</time>
</trkpt>
<trkpt lat="57.126045" lon="9.231958">
<ele>18.368869</ele>
<time>2026-07-15T12:23:02.000Z</time>
</trkpt>
<trkpt lat="57.126030" lon="9.232069">
<ele>18.379901</ele>
<time>2026-07-15T12:23:03.000Z</time>
</trkpt>
<trkpt lat="57.126011" lon="9.232181">
<ele>18.391219</ele>
<time>2026-07-15T12:23:04.000Z</time>
</trkpt>
<trkpt lat="57.125996" lon="9.232291">
<ele>18.402158</ele>
<time>2026-07-15T12:23:05.000Z</time>
</trkpt>
<trkpt lat="57.125981" lon="9.232406">
<ele>18.413565</ele>
<time>2026-07-15T12:23:06.000Z</time>
</trkpt>
<trkpt lat="57.125965" lon="9.232517">
<ele>18.424641</ele>
<time>2026-07-15T12:23:07.000Z</time>
</trkpt>
<trkpt lat="57.125946" lon="9.232627">
<ele>18.435775</ele>
<time>2026-07-15T12:23:08.000Z</time>
</trkpt>
<trkpt lat="57.125931" lon="9.232739">
<ele>18.457115</ele>
<time>2026-07-15T12:23:09.000Z</time>
</trkpt>
<trkpt lat="57.125916" lon="9.232853">
<ele>18.480185</ele>
<time>2026-07-15T12:23:10.000Z</time>
</trkpt>
<trkpt lat="57.125897" lon="9.232960">
<ele>18.502326</ele>
<time>2026-07-15T12:23:11.000Z</time>
</trkpt>
<trkpt lat="57.125885" lon="9.233068">
<ele>18.524006</ele>
<time>2026-07-15T12:23:12.000Z</time>
</trkpt>
<trkpt lat="57.125874" lon="9.233171">
<ele>18.544652</ele>
<time>2026-07-15T12:23:13.000Z</time>
</trkpt>
<trkpt lat="57.125859" lon="9.233275">
<ele>18.565815</ele>
<time>2026-07-15T12:23:14.000Z</time>
</trkpt>
<trkpt lat="57.125843" lon="9.233383">
<ele>18.587832</ele>
<time>2026-07-15T12:23:15.000Z</time>
</trkpt>
<trkpt lat="57.125824" lon="9.233493">
<ele>18.610534</ele>
<time>2026-07-15T12:23:16.000Z</time>
</trkpt>
<trkpt lat="57.125809" lon="9.233599">
<ele>18.632078</ele>
<time>2026-07-15T12:23:17.000Z</time>
</trkpt>
<trkpt lat="57.125797" lon="9.233710">
<ele>18.654337</ele>
<time>2026-07-15T12:23:18.000Z</time>
</trkpt>
<trkpt lat="57.125786" lon="9.233817">
<ele>18.675754</ele>
<time>2026-07-15T12:23:19.000Z</time>
</trkpt>
<trkpt lat="57.125767" lon="9.233924">
<ele>18.697895</ele>
<time>2026-07-15T12:23:20.000Z</time>
</trkpt>
<trkpt lat="57.125751" lon="9.234035">
<ele>18.720482</ele>
<time>2026-07-15T12:23:21.000Z</time>
</trkpt>
<trkpt lat="57.125740" lon="9.234140">
<ele>18.741514</ele>
<time>2026-07-15T12:23:22.000Z</time>
</trkpt>
<trkpt lat="57.125725" lon="9.234247">
<ele>18.763248</ele>
<time>2026-07-15T12:23:23.000Z</time>
</trkpt>
<trkpt lat="57.125710" lon="9.234358">
<ele>18.785744</ele>
<time>2026-07-15T12:23:24.000Z</time>
</trkpt>
<trkpt lat="57.125690" lon="9.234472">
<ele>18.809306</ele>
<time>2026-07-15T12:23:25.000Z</time>
</trkpt>
<trkpt lat="57.125672" lon="9.234582">
<ele>18.831902</ele>
<time>2026-07-15T12:23:26.000Z</time>
</trkpt>
<trkpt lat="57.125656" lon="9.234695">
<ele>18.854869</ele>
<time>2026-07-15T12:23:27.000Z</time>
</trkpt>
<trkpt lat="57.125637" lon="9.234811">
<ele>18.878699</ele>
<time>2026-07-15T12:23:28.000Z</time>
</trkpt>
<trkpt lat="57.125622" lon="9.234924">
<ele>18.901577</ele>
<time>2026-07-15T12:23:29.000Z</time>
</trkpt>
<trkpt lat="57.125607" lon="9.235037">
<ele>18.924456</ele>
<time>2026-07-15T12:23:30.000Z</time>
</trkpt>
<trkpt lat="57.125588" lon="9.235150">
<ele>18.947721</ele>
<time>2026-07-15T12:23:31.000Z</time>
</trkpt>
<trkpt lat="57.125568" lon="9.235266">
<ele>18.971658</ele>
<time>2026-07-15T12:23:32.000Z</time>
</trkpt>
<trkpt lat="57.125553" lon="9.235376">
<ele>18.993964</ele>
<time>2026-07-15T12:23:33.000Z</time>
</trkpt>
<trkpt lat="57.125534" lon="9.235489">
<ele>19.017229</ele>
<time>2026-07-15T12:23:34.000Z</time>
</trkpt>
<trkpt lat="57.125519" lon="9.235599">
<ele>19.039535</ele>
<time>2026-07-15T12:23:35.000Z</time>
</trkpt>
<trkpt lat="57.125500" lon="9.235713">
<ele>19.062989</ele>
<time>2026-07-15T12:23:36.000Z</time>
</trkpt>
<trkpt lat="57.125484" lon="9.235825">
<ele>19.085766</ele>
<time>2026-07-15T12:23:37.000Z</time>
</trkpt>
<trkpt lat="57.125469" lon="9.235932">
<ele>19.105569</ele>
<time>2026-07-15T12:23:38.000Z</time>
</trkpt>
<trkpt lat="57.125452" lon="9.236039">
<ele>19.125236</ele>
<time>2026-07-15T12:23:39.000Z</time>
</trkpt>
<trkpt lat="57.125435" lon="9.236165">
<ele>19.148139</ele>
<time>2026-07-15T12:23:40.000Z</time>
</trkpt>
<trkpt lat="57.125412" lon="9.236282">
<ele>19.170089</ele>
<time>2026-07-15T12:23:41.000Z</time>
</trkpt>
<trkpt lat="57.125397" lon="9.236399">
<ele>19.191296</ele>
<time>2026-07-15T12:23:42.000Z</time>
</trkpt>
<trkpt lat="57.125378" lon="9.236518">
<ele>19.213177</ele>
<time>2026-07-15T12:23:43.000Z</time>
</trkpt>
<trkpt lat="57.125363" lon="9.236631">
<ele>19.233698</ele>
<time>2026-07-15T12:23:44.000Z</time>
</trkpt>
<trkpt lat="57.125343" lon="9.236750">
<ele>19.255673</ele>
<time>2026-07-15T12:23:45.000Z</time>
</trkpt>
<trkpt lat="57.125332" lon="9.236861">
<ele>19.275577</ele>
<time>2026-07-15T12:23:46.000Z</time>
</trkpt>
<trkpt lat="57.125313" lon="9.236969">
<ele>19.295604</ele>
<time>2026-07-15T12:23:47.000Z</time>
</trkpt>
<trkpt lat="57.125298" lon="9.237078">
<ele>19.315440</ele>
<time>2026-07-15T12:23:48.000Z</time>
</trkpt>
<trkpt lat="57.125282" lon="9.237183">
<ele>19.334678</ele>
<time>2026-07-15T12:23:49.000Z</time>
</trkpt>
<trkpt lat="57.125267" lon="9.237291">
<ele>19.354344</ele>
<time>2026-07-15T12:23:50.000Z</time>
</trkpt>
<trkpt lat="57.125256" lon="9.237394">
<ele>19.372861</ele>
<time>2026-07-15T12:23:51.000Z</time>
</trkpt>
<trkpt lat="57.125240" lon="9.237504">
<ele>19.392950</ele>
<time>2026-07-15T12:23:52.000Z</time>
</trkpt>
<trkpt lat="57.125225" lon="9.237607">
<ele>19.411762</ele>
<time>2026-07-15T12:23:53.000Z</time>
</trkpt>
<trkpt lat="57.125217" lon="9.237711">
<ele>19.430291</ele>
<time>2026-07-15T12:23:54.000Z</time>
</trkpt>
<trkpt lat="57.125210" lon="9.237807">
<ele>19.447378</ele>
<time>2026-07-15T12:23:55.000Z</time>
</trkpt>
<trkpt lat="57.125199" lon="9.237904">
<ele>19.464858</ele>
<time>2026-07-15T12:23:56.000Z</time>
</trkpt>
<trkpt lat="57.125185" lon="9.238009">
<ele>19.483931</ele>
<time>2026-07-15T12:23:57.000Z</time>
</trkpt>
<trkpt lat="57.125172" lon="9.238114">
<ele>19.502929</ele>
<time>2026-07-15T12:23:58.000Z</time>
</trkpt>
<trkpt lat="57.125160" lon="9.238224">
<ele>19.522721</ele>
<time>2026-07-15T12:23:59.000Z</time>
</trkpt>
<trkpt lat="57.125137" lon="9.238337">
<ele>19.544010</ele>
<time>2026-07-15T12:24:00.000Z</time>
</trkpt>
<trkpt lat="57.125118" lon="9.238453">
<ele>19.565384</ele>
<time>2026-07-15T12:24:01.000Z</time>
</trkpt>
<trkpt lat="57.125099" lon="9.238560">
<ele>19.585243</ele>
<time>2026-07-15T12:24:02.000Z</time>
</trkpt>
<trkpt lat="57.125080" lon="9.238672">
<ele>19.605943</ele>
<time>2026-07-15T12:24:03.000Z</time>
</trkpt>
<trkpt lat="57.125058" lon="9.238778">
<ele>19.625962</ele>
<time>2026-07-15T12:24:04.000Z</time>
</trkpt>
<trkpt lat="57.125034" lon="9.238895">
<ele>19.648025</ele>
<time>2026-07-15T12:24:05.000Z</time>
</trkpt>
<trkpt lat="57.125015" lon="9.239002">
<ele>19.667885</ele>
<time>2026-07-15T12:24:06.000Z</time>
</trkpt>
<trkpt lat="57.124992" lon="9.239113">
<ele>19.692400</ele>
<time>2026-07-15T12:24:07.000Z</time>
</trkpt>
<trkpt lat="57.124969" lon="9.239224">
<ele>19.718152</ele>
<time>2026-07-15T12:24:08.000Z</time>
</trkpt>
<trkpt lat="57.124943" lon="9.239338">
<ele>19.744953</ele>
<time>2026-07-15T12:24:09.000Z</time>
</trkpt>
<trkpt lat="57.124920" lon="9.239445">
<ele>19.769896</ele>
<time>2026-07-15T12:24:10.000Z</time>
</trkpt>
<trkpt lat="57.124893" lon="9.239550">
<ele>19.795078</ele>
<time>2026-07-15T12:24:11.000Z</time>
</trkpt>
<trkpt lat="57.124866" lon="9.239659">
<ele>19.821047</ele>
<time>2026-07-15T12:24:12.000Z</time>
</trkpt>
<trkpt lat="57.124847" lon="9.239762">
<ele>19.844625</ele>
<time>2026-07-15T12:24:13.000Z</time>
</trkpt>
<trkpt lat="57.124828" lon="9.239873">
<ele>19.869851</ele>
<time>2026-07-15T12:24:14.000Z</time>
</trkpt>
<trkpt lat="57.124805" lon="9.239985">
<ele>19.895805</ele>
<time>2026-07-15T12:24:15.000Z</time>
</trkpt>
<trkpt lat="57.124786" lon="9.240093">
<ele>19.920412</ele>
<time>2026-07-15T12:24:16.000Z</time>
</trkpt>
<trkpt lat="57.124760" lon="9.240200">
<ele>19.945821</ele>
<time>2026-07-15T12:24:17.000Z</time>
</trkpt>
<trkpt lat="57.124737" lon="9.240312">
<ele>19.971775</ele>
<time>2026-07-15T12:24:18.000Z</time>
</trkpt>
<trkpt lat="57.124718" lon="9.240428">
<ele>19.998037</ele>
<time>2026-07-15T12:24:19.000Z</time>
</trkpt>
<trkpt lat="57.124695" lon="9.240545">
<ele>20.025008</ele>
<time>2026-07-15T12:24:20.000Z</time>
</trkpt>
<trkpt lat="57.124675" lon="9.240663">
<ele>20.051801</ele>
<time>2026-07-15T12:24:21.000Z</time>
</trkpt>
<trkpt lat="57.124657" lon="9.240781">
<ele>20.078367</ele>
<time>2026-07-15T12:24:22.000Z</time>
</trkpt>
<trkpt lat="57.124645" lon="9.240896">
<ele>20.103749</ele>
<time>2026-07-15T12:24:23.000Z</time>
</trkpt>
<trkpt lat="57.124630" lon="9.241009">
<ele>20.128963</ele>
<time>2026-07-15T12:24:24.000Z</time>
</trkpt>
<trkpt lat="57.124611" lon="9.241122">
<ele>20.154603</ele>
<time>2026-07-15T12:24:25.000Z</time>
</trkpt>
<trkpt lat="57.124595" lon="9.241234">
<ele>20.179705</ele>
<time>2026-07-15T12:24:26.000Z</time>
</trkpt>
<trkpt lat="57.124576" lon="9.241346">
<ele>20.205138</ele>
<time>2026-07-15T12:24:27.000Z</time>
</trkpt>
<trkpt lat="57.124554" lon="9.241456">
<ele>20.230546</ele>
<time>2026-07-15T12:24:28.000Z</time>
</trkpt>
<trkpt lat="57.124538" lon="9.241564">
<ele>20.254811</ele>
<time>2026-07-15T12:24:29.000Z</time>
</trkpt>
<trkpt lat="57.124523" lon="9.241672">
<ele>20.278973</ele>
<time>2026-07-15T12:24:30.000Z</time>
</trkpt>
<trkpt lat="57.124508" lon="9.241777">
<ele>20.302506</ele>
<time>2026-07-15T12:24:31.000Z</time>
</trkpt>
<trkpt lat="57.124489" lon="9.241891">
<ele>20.328353</ele>
<time>2026-07-15T12:24:32.000Z</time>
</trkpt>
<trkpt lat="57.124473" lon="9.242001">
<ele>20.353036</ele>
<time>2026-07-15T12:24:33.000Z</time>
</trkpt>
<trkpt lat="57.124455" lon="9.242110">
<ele>20.377730</ele>
<time>2026-07-15T12:24:34.000Z</time>
</trkpt>
<trkpt lat="57.124439" lon="9.242221">
<ele>20.406531</ele>
<time>2026-07-15T12:24:35.000Z</time>
</trkpt>
<trkpt lat="57.124420" lon="9.242334">
<ele>20.441164</ele>
<time>2026-07-15T12:24:36.000Z</time>
</trkpt>
<trkpt lat="57.124409" lon="9.242445">
<ele>20.474197</ele>
<time>2026-07-15T12:24:37.000Z</time>
</trkpt>
<trkpt lat="57.124394" lon="9.242553">
<ele>20.506834</ele>
<time>2026-07-15T12:24:38.000Z</time>
</trkpt>
<trkpt lat="57.124378" lon="9.242667">
<ele>20.541306</ele>
<time>2026-07-15T12:24:39.000Z</time>
</trkpt>
<trkpt lat="57.124359" lon="9.242778">
<ele>20.575380</ele>
<time>2026-07-15T12:24:40.000Z</time>
</trkpt>
<trkpt lat="57.124344" lon="9.242886">
<ele>20.608016</ele>
<time>2026-07-15T12:24:41.000Z</time>
</trkpt>
<trkpt lat="57.124332" lon="9.242996">
<ele>20.640864</ele>
<time>2026-07-15T12:24:42.000Z</time>
</trkpt>
<trkpt lat="57.124317" lon="9.243103">
<ele>20.673217</ele>
<time>2026-07-15T12:24:43.000Z</time>
</trkpt>
<trkpt lat="57.124299" lon="9.243206">
<ele>20.704896</ele>
<time>2026-07-15T12:24:44.000Z</time>
</trkpt>
<trkpt lat="57.124287" lon="9.243317">
<ele>20.738030</ele>
<time>2026-07-15T12:24:45.000Z</time>
</trkpt>
<trkpt lat="57.124271" lon="9.243426">
<ele>20.771087</ele>
<time>2026-07-15T12:24:46.000Z</time>
</trkpt>
<trkpt lat="57.124256" lon="9.243532">
<ele>20.803157</ele>
<time>2026-07-15T12:24:47.000Z</time>
</trkpt>
<trkpt lat="57.124241" lon="9.243645">
<ele>20.837214</ele>
<time>2026-07-15T12:24:48.000Z</time>
</trkpt>
<trkpt lat="57.124226" lon="9.243754">
<ele>20.870135</ele>
<time>2026-07-15T12:24:49.000Z</time>
</trkpt>
<trkpt lat="57.124210" lon="9.243862">
<ele>20.902909</ele>
<time>2026-07-15T12:24:50.000Z</time>
</trkpt>
<trkpt lat="57.124195" lon="9.243972">
<ele>20.936114</ele>
<time>2026-07-15T12:24:51.000Z</time>
</trkpt>
<trkpt lat="57.124180" lon="9.244082">
<ele>20.969318</ele>
<time>2026-07-15T12:24:52.000Z</time>
</trkpt>
<trkpt lat="57.124168" lon="9.244193">
<ele>21.002453</ele>
<time>2026-07-15T12:24:53.000Z</time>
</trkpt>
<trkpt lat="57.124153" lon="9.244304">
<ele>21.035941</ele>
<time>2026-07-15T12:24:54.000Z</time>
</trkpt>
<trkpt lat="57.124134" lon="9.244417">
<ele>21.070574</ele>
<time>2026-07-15T12:24:55.000Z</time>
</trkpt>
<trkpt lat="57.124115" lon="9.244527">
<ele>21.104369</ele>
<time>2026-07-15T12:24:56.000Z</time>
</trkpt>
<trkpt lat="57.124100" lon="9.244641">
<ele>21.138710</ele>
<time>2026-07-15T12:24:57.000Z</time>
</trkpt>
<trkpt lat="57.124081" lon="9.244749">
<ele>21.171948</ele>
<time>2026-07-15T12:24:58.000Z</time>
</trkpt>
<trkpt lat="57.124061" lon="9.244861">
<ele>21.206466</ele>
<time>2026-07-15T12:24:59.000Z</time>
</trkpt>
<trkpt lat="57.124043" lon="9.244969">
<ele>21.239541</ele>
<time>2026-07-15T12:25:00.000Z</time>
</trkpt>
<trkpt lat="57.124024" lon="9.245075">
<ele>21.272222</ele>
<time>2026-07-15T12:25:01.000Z</time>
</trkpt>
<trkpt lat="57.124005" lon="9.245185">
<ele>21.306017</ele>
<time>2026-07-15T12:25:02.000Z</time>
</trkpt>
<trkpt lat="57.123981" lon="9.245292">
<ele>21.339912</ele>
<time>2026-07-15T12:25:03.000Z</time>
</trkpt>
<trkpt lat="57.123962" lon="9.245399">
<ele>21.365222</ele>
<time>2026-07-15T12:25:04.000Z</time>
</trkpt>
<trkpt lat="57.123943" lon="9.245504">
<ele>21.375733</ele>
<time>2026-07-15T12:25:05.000Z</time>
</trkpt>
<trkpt lat="57.123921" lon="9.245605">
<ele>21.386068</ele>
<time>2026-07-15T12:25:06.000Z</time>
</trkpt>
<trkpt lat="57.123901" lon="9.245709">
<ele>21.396545</ele>
<time>2026-07-15T12:25:07.000Z</time>
</trkpt>
<trkpt lat="57.123878" lon="9.245813">
<ele>21.407210</ele>
<time>2026-07-15T12:25:08.000Z</time>
</trkpt>
<trkpt lat="57.123860" lon="9.245918">
<ele>21.417667</ele>
<time>2026-07-15T12:25:09.000Z</time>
</trkpt>
<trkpt lat="57.123837" lon="9.246023">
<ele>21.428420</ele>
<time>2026-07-15T12:25:10.000Z</time>
</trkpt>
<trkpt lat="57.123814" lon="9.246127">
<ele>21.439084</ele>
<time>2026-07-15T12:25:11.000Z</time>
</trkpt>
<trkpt lat="57.123791" lon="9.246234">
<ele>21.450013</ele>
<time>2026-07-15T12:25:12.000Z</time>
</trkpt>
<trkpt lat="57.123768" lon="9.246336">
<ele>21.460502</ele>
<time>2026-07-15T12:25:13.000Z</time>
</trkpt>
<trkpt lat="57.123745" lon="9.246438">
<ele>21.470991</ele>
<time>2026-07-15T12:25:14.000Z</time>
</trkpt>
<trkpt lat="57.123722" lon="9.246538">
<ele>21.481305</ele>
<time>2026-07-15T12:25:15.000Z</time>
</trkpt>
<trkpt lat="57.123703" lon="9.246643">
<ele>21.491816</ele>
<time>2026-07-15T12:25:16.000Z</time>
</trkpt>
<trkpt lat="57.123680" lon="9.246746">
<ele>21.502393</ele>
<time>2026-07-15T12:25:17.000Z</time>
</trkpt>
<trkpt lat="57.123657" lon="9.246847">
<ele>21.512794</ele>
<time>2026-07-15T12:25:18.000Z</time>
</trkpt>
<trkpt lat="57.123634" lon="9.246950">
<ele>21.523371</ele>
<time>2026-07-15T12:25:19.000Z</time>
</trkpt>
<trkpt lat="57.123612" lon="9.247051">
<ele>21.533706</ele>
<time>2026-07-15T12:25:20.000Z</time>
</trkpt>
<trkpt lat="57.123589" lon="9.247156">
<ele>21.544459</ele>
<time>2026-07-15T12:25:21.000Z</time>
</trkpt>
<trkpt lat="57.123570" lon="9.247258">
<ele>21.554700</ele>
<time>2026-07-15T12:25:22.000Z</time>
</trkpt>
<trkpt lat="57.123546" lon="9.247366">
<ele>21.565782</ele>
<time>2026-07-15T12:25:23.000Z</time>
</trkpt>
<trkpt lat="57.123524" lon="9.247469">
<ele>21.576294</ele>
<time>2026-07-15T12:25:24.000Z</time>
</trkpt>
<trkpt lat="57.123497" lon="9.247575">
<ele>21.587413</ele>
<time>2026-07-15T12:25:25.000Z</time>
</trkpt>
<trkpt lat="57.123478" lon="9.247677">
<ele>21.597654</ele>
<time>2026-07-15T12:25:26.000Z</time>
</trkpt>
<trkpt lat="57.123455" lon="9.247781">
<ele>21.608319</ele>
<time>2026-07-15T12:25:27.000Z</time>
</trkpt>
<trkpt lat="57.123428" lon="9.247887">
<ele>21.619439</ele>
<time>2026-07-15T12:25:28.000Z</time>
</trkpt>
<trkpt lat="57.123405" lon="9.247992">
<ele>21.630191</ele>
<time>2026-07-15T12:25:29.000Z</time>
</trkpt>
<trkpt lat="57.123382" lon="9.248101">
<ele>21.641297</ele>
<time>2026-07-15T12:25:30.000Z</time>
</trkpt>
<trkpt lat="57.123360" lon="9.248208">
<ele>21.652163</ele>
<time>2026-07-15T12:25:31.000Z</time>
</trkpt>
<trkpt lat="57.123337" lon="9.248317">
<ele>21.663269</ele>
<time>2026-07-15T12:25:32.000Z</time>
</trkpt>
<trkpt lat="57.123310" lon="9.248427">
<ele>21.674734</ele>
<time>2026-07-15T12:25:33.000Z</time>
</trkpt>
<trkpt lat="57.123287" lon="9.248537">
<ele>21.682676</ele>
<time>2026-07-15T12:25:34.000Z</time>
</trkpt>
<trkpt lat="57.123264" lon="9.248646">
<ele>21.690063</ele>
<time>2026-07-15T12:25:35.000Z</time>
</trkpt>
<trkpt lat="57.123238" lon="9.248755">
<ele>21.697584</ele>
<time>2026-07-15T12:25:36.000Z</time>
</trkpt>
<trkpt lat="57.123215" lon="9.248862">
<ele>21.704854</ele>
<time>2026-07-15T12:25:37.000Z</time>
</trkpt>
<trkpt lat="57.123188" lon="9.248974">
<ele>21.712595</ele>
<time>2026-07-15T12:25:38.000Z</time>
</trkpt>
<trkpt lat="57.123165" lon="9.249084">
<ele>21.720041</ele>
<time>2026-07-15T12:25:39.000Z</time>
</trkpt>
<trkpt lat="57.123138" lon="9.249192">
<ele>21.727552</ele>
<time>2026-07-15T12:25:40.000Z</time>
</trkpt>
<trkpt lat="57.123115" lon="9.249301">
<ele>21.734939</ele>
<time>2026-07-15T12:25:41.000Z</time>
</trkpt>
<trkpt lat="57.123093" lon="9.249408">
<ele>21.742166</ele>
<time>2026-07-15T12:25:42.000Z</time>
</trkpt>
<trkpt lat="57.123070" lon="9.249519">
<ele>21.749671</ele>
<time>2026-07-15T12:25:43.000Z</time>
</trkpt>
<trkpt lat="57.123043" lon="9.249628">
<ele>21.757240</ele>
<time>2026-07-15T12:25:44.000Z</time>
</trkpt>
<trkpt lat="57.123020" lon="9.249738">
<ele>21.764686</ele>
<time>2026-07-15T12:25:45.000Z</time>
</trkpt>
<trkpt lat="57.122993" lon="9.249851">
<ele>21.772484</ele>
<time>2026-07-15T12:25:46.000Z</time>
</trkpt>
<trkpt lat="57.122967" lon="9.249959">
<ele>21.779947</ele>
<time>2026-07-15T12:25:47.000Z</time>
</trkpt>
<trkpt lat="57.122944" lon="9.250070">
<ele>21.787452</ele>
<time>2026-07-15T12:25:48.000Z</time>
</trkpt>
<trkpt lat="57.122921" lon="9.250181">
<ele>21.794958</ele>
<time>2026-07-15T12:25:49.000Z</time>
</trkpt>
<trkpt lat="57.122898" lon="9.250289">
<ele>21.802286</ele>
<time>2026-07-15T12:25:50.000Z</time>
</trkpt>
<trkpt lat="57.122875" lon="9.250395">
<ele>21.809497</ele>
<time>2026-07-15T12:25:51.000Z</time>
</trkpt>
<trkpt lat="57.122849" lon="9.250500">
<ele>21.816787</ele>
<time>2026-07-15T12:25:52.000Z</time>
</trkpt>
<trkpt lat="57.122826" lon="9.250605">
<ele>21.823939</ele>
<time>2026-07-15T12:25:53.000Z</time>
</trkpt>
<trkpt lat="57.122799" lon="9.250716">
<ele>21.831623</ele>
<time>2026-07-15T12:25:54.000Z</time>
</trkpt>
<trkpt lat="57.122780" lon="9.250823">
<ele>21.838734</ele>
<time>2026-07-15T12:25:55.000Z</time>
</trkpt>
<trkpt lat="57.122757" lon="9.250930">
<ele>21.846004</ele>
<time>2026-07-15T12:25:56.000Z</time>
</trkpt>
<trkpt lat="57.122738" lon="9.251039">
<ele>21.853235</ele>
<time>2026-07-15T12:25:57.000Z</time>
</trkpt>
<trkpt lat="57.122715" lon="9.251146">
<ele>21.860505</ele>
<time>2026-07-15T12:25:58.000Z</time>
</trkpt>
<trkpt lat="57.122692" lon="9.251253">
<ele>21.867774</ele>
<time>2026-07-15T12:25:59.000Z</time>
</trkpt>
<trkpt lat="57.122677" lon="9.251357">
<ele>21.874572</ele>
<time>2026-07-15T12:26:00.000Z</time>
</trkpt>
<trkpt lat="57.122654" lon="9.251468">
<ele>21.882077</ele>
<time>2026-07-15T12:26:01.000Z</time>
</trkpt>
<trkpt lat="57.122635" lon="9.251581">
<ele>21.890812</ele>
<time>2026-07-15T12:26:02.000Z</time>
</trkpt>
<trkpt lat="57.122612" lon="9.251690">
<ele>21.900513</ele>
<time>2026-07-15T12:26:03.000Z</time>
</trkpt>
<trkpt lat="57.122593" lon="9.251803">
<ele>21.910326</ele>
<time>2026-07-15T12:26:04.000Z</time>
</trkpt>
<trkpt lat="57.122570" lon="9.251917">
<ele>21.920414</ele>
<time>2026-07-15T12:26:05.000Z</time>
</trkpt>
<trkpt lat="57.122547" lon="9.252027">
<ele>21.930193</ele>
<time>2026-07-15T12:26:06.000Z</time>
</trkpt>
<trkpt lat="57.122528" lon="9.252142">
<ele>21.940164</ele>
<time>2026-07-15T12:26:07.000Z</time>
</trkpt>
<trkpt lat="57.122509" lon="9.252255">
<ele>21.949977</ele>
<time>2026-07-15T12:26:08.000Z</time>
</trkpt>
<trkpt lat="57.122490" lon="9.252365">
<ele>21.959552</ele>
<time>2026-07-15T12:26:09.000Z</time>
</trkpt>
<trkpt lat="57.122471" lon="9.252472">
<ele>21.968891</ele>
<time>2026-07-15T12:26:10.000Z</time>
</trkpt>
<trkpt lat="57.122452" lon="9.252587">
<ele>21.978863</ele>
<time>2026-07-15T12:26:11.000Z</time>
</trkpt>
<trkpt lat="57.122429" lon="9.252697">
<ele>21.988641</ele>
<time>2026-07-15T12:26:12.000Z</time>
</trkpt>
<trkpt lat="57.122402" lon="9.252806">
<ele>21.998579</ele>
<time>2026-07-15T12:26:13.000Z</time>
</trkpt>
<trkpt lat="57.122383" lon="9.252914">
<ele>22.007997</ele>
<time>2026-07-15T12:26:14.000Z</time>
</trkpt>
<trkpt lat="57.122360" lon="9.253025">
<ele>22.017853</ele>
<time>2026-07-15T12:26:15.000Z</time>
</trkpt>
<trkpt lat="57.122333" lon="9.253138">
<ele>22.028094</ele>
<time>2026-07-15T12:26:16.000Z</time>
</trkpt>
<trkpt lat="57.122310" lon="9.253253">
<ele>22.038260</ele>
<time>2026-07-15T12:26:17.000Z</time>
</trkpt>
<trkpt lat="57.122288" lon="9.253368">
<ele>22.048375</ele>
<time>2026-07-15T12:26:18.000Z</time>
</trkpt>
<trkpt lat="57.122265" lon="9.253482">
<ele>22.058463</ele>
<time>2026-07-15T12:26:19.000Z</time>
</trkpt>
<trkpt lat="57.122242" lon="9.253597">
<ele>22.068630</ele>
<time>2026-07-15T12:26:20.000Z</time>
</trkpt>
<trkpt lat="57.122227" lon="9.253706">
<ele>22.077958</ele>
<time>2026-07-15T12:26:21.000Z</time>
</trkpt>
<trkpt lat="57.122208" lon="9.253815">
<ele>22.087454</ele>
<time>2026-07-15T12:26:22.000Z</time>
</trkpt>
<trkpt lat="57.122188" lon="9.253926">
<ele>22.097156</ele>
<time>2026-07-15T12:26:23.000Z</time>
</trkpt>
<trkpt lat="57.122166" lon="9.254037">
<ele>22.106958</ele>
<time>2026-07-15T12:26:24.000Z</time>
</trkpt>
<trkpt lat="57.122146" lon="9.254146">
<ele>22.116502</ele>
<time>2026-07-15T12:26:25.000Z</time>
</trkpt>
<trkpt lat="57.122128" lon="9.254249">
<ele>22.125478</ele>
<time>2026-07-15T12:26:26.000Z</time>
</trkpt>
<trkpt lat="57.122108" lon="9.254356">
<ele>22.134866</ele>
<time>2026-07-15T12:26:27.000Z</time>
</trkpt>
<trkpt lat="57.122089" lon="9.254458">
<ele>22.143811</ele>
<time>2026-07-15T12:26:28.000Z</time>
</trkpt>
<trkpt lat="57.122070" lon="9.254563">
<ele>22.152992</ele>
<time>2026-07-15T12:26:29.000Z</time>
</trkpt>
<trkpt lat="57.122051" lon="9.254667">
<ele>22.164796</ele>
<time>2026-07-15T12:26:30.000Z</time>
</trkpt>
<trkpt lat="57.122033" lon="9.254764">
<ele>22.186592</ele>
<time>2026-07-15T12:26:31.000Z</time>
</trkpt>
<trkpt lat="57.122013" lon="9.254874">
<ele>22.211258</ele>
<time>2026-07-15T12:26:32.000Z</time>
</trkpt>
<trkpt lat="57.121990" lon="9.254977">
<ele>22.234939</ele>
<time>2026-07-15T12:26:33.000Z</time>
</trkpt>
<trkpt lat="57.121975" lon="9.255079">
<ele>22.257408</ele>
<time>2026-07-15T12:26:34.000Z</time>
</trkpt>
<trkpt lat="57.121952" lon="9.255183">
<ele>22.281285</ele>
<time>2026-07-15T12:26:35.000Z</time>
</trkpt>
<trkpt lat="57.121933" lon="9.255289">
<ele>22.305021</ele>
<time>2026-07-15T12:26:36.000Z</time>
</trkpt>
<trkpt lat="57.121910" lon="9.255393">
<ele>22.328898</ele>
<time>2026-07-15T12:26:37.000Z</time>
</trkpt>
<trkpt lat="57.121892" lon="9.255494">
<ele>22.351501</ele>
<time>2026-07-15T12:26:38.000Z</time>
</trkpt>
<trkpt lat="57.121869" lon="9.255595">
<ele>22.374789</ele>
<time>2026-07-15T12:26:39.000Z</time>
</trkpt>
<trkpt lat="57.121849" lon="9.255703">
<ele>22.399052</ele>
<time>2026-07-15T12:26:40.000Z</time>
</trkpt>
<trkpt lat="57.121830" lon="9.255801">
<ele>22.421178</ele>
<time>2026-07-15T12:26:41.000Z</time>
</trkpt>
<trkpt lat="57.121811" lon="9.255900">
<ele>22.443505</ele>
<time>2026-07-15T12:26:42.000Z</time>
</trkpt>
<trkpt lat="57.121792" lon="9.256006">
<ele>22.467240</ele>
<time>2026-07-15T12:26:43.000Z</time>
</trkpt>
<trkpt lat="57.121769" lon="9.256105">
<ele>22.490136</ele>
<time>2026-07-15T12:26:44.000Z</time>
</trkpt>
<trkpt lat="57.121747" lon="9.256208">
<ele>22.513671</ele>
<time>2026-07-15T12:26:45.000Z</time>
</trkpt>
<trkpt lat="57.121723" lon="9.256312">
<ele>22.537699</ele>
<time>2026-07-15T12:26:46.000Z</time>
</trkpt>
<trkpt lat="57.121701" lon="9.256409">
<ele>22.560051</ele>
<time>2026-07-15T12:26:47.000Z</time>
</trkpt>
<trkpt lat="57.121679" lon="9.256509">
<ele>22.582994</ele>
<time>2026-07-15T12:26:48.000Z</time>
</trkpt>
<trkpt lat="57.121655" lon="9.256613">
<ele>22.607022</ele>
<time>2026-07-15T12:26:49.000Z</time>
</trkpt>
<trkpt lat="57.121632" lon="9.256718">
<ele>22.631097</ele>
<time>2026-07-15T12:26:50.000Z</time>
</trkpt>
<trkpt lat="57.121605" lon="9.256823">
<ele>22.655800</ele>
<time>2026-07-15T12:26:51.000Z</time>
</trkpt>
<trkpt lat="57.121579" lon="9.256925">
<ele>22.679760</ele>
<time>2026-07-15T12:26:52.000Z</time>
</trkpt>
<trkpt lat="57.121559" lon="9.257025">
<ele>22.702420</ele>
<time>2026-07-15T12:26:53.000Z</time>
</trkpt>
<trkpt lat="57.121536" lon="9.257122">
<ele>22.724926</ele>
<time>2026-07-15T12:26:54.000Z</time>
</trkpt>
<trkpt lat="57.121513" lon="9.257220">
<ele>22.747628</ele>
<time>2026-07-15T12:26:55.000Z</time>
</trkpt>
<trkpt lat="57.121491" lon="9.257313">
<ele>22.769198</ele>
<time>2026-07-15T12:26:56.000Z</time>
</trkpt>
<trkpt lat="57.121475" lon="9.257405">
<ele>22.789739</ele>
<time>2026-07-15T12:26:57.000Z</time>
</trkpt>
<trkpt lat="57.121456" lon="9.257490">
<ele>22.809284</ele>
<time>2026-07-15T12:26:58.000Z</time>
</trkpt>
<trkpt lat="57.121437" lon="9.257571">
<ele>22.828046</ele>
<time>2026-07-15T12:26:59.000Z</time>
</trkpt>
<trkpt lat="57.121422" lon="9.257664">
<ele>22.848675</ele>
<time>2026-07-15T12:27:00.000Z</time>
</trkpt>
<trkpt lat="57.121399" lon="9.257766">
<ele>22.871159</ele>
<time>2026-07-15T12:27:01.000Z</time>
</trkpt>
<trkpt lat="57.121376" lon="9.257862">
<ele>22.890413</ele>
<time>2026-07-15T12:27:02.000Z</time>
</trkpt>
<trkpt lat="57.121357" lon="9.257955">
<ele>22.908646</ele>
<time>2026-07-15T12:27:03.000Z</time>
</trkpt>
<trkpt lat="57.121334" lon="9.258053">
<ele>22.928236</ele>
<time>2026-07-15T12:27:04.000Z</time>
</trkpt>
<trkpt lat="57.121311" lon="9.258149">
<ele>22.947490</ele>
<time>2026-07-15T12:27:05.000Z</time>
</trkpt>
<trkpt lat="57.121288" lon="9.258242">
<ele>22.966242</ele>
<time>2026-07-15T12:27:06.000Z</time>
</trkpt>
<trkpt lat="57.121265" lon="9.258338">
<ele>22.985496</ele>
<time>2026-07-15T12:27:07.000Z</time>
</trkpt>
<trkpt lat="57.121242" lon="9.258431">
<ele>23.004248</ele>
<time>2026-07-15T12:27:08.000Z</time>
</trkpt>
<trkpt lat="57.121220" lon="9.258520">
<ele>23.022192</ele>
<time>2026-07-15T12:27:09.000Z</time>
</trkpt>
<trkpt lat="57.121197" lon="9.258617">
<ele>23.041614</ele>
<time>2026-07-15T12:27:10.000Z</time>
</trkpt>
<trkpt lat="57.121170" lon="9.258714">
<ele>23.061616</ele>
<time>2026-07-15T12:27:11.000Z</time>
</trkpt>
<trkpt lat="57.121151" lon="9.258808">
<ele>23.080020</ele>
<time>2026-07-15T12:27:12.000Z</time>
</trkpt>
<trkpt lat="57.121132" lon="9.258899">
<ele>23.097910</ele>
<time>2026-07-15T12:27:13.000Z</time>
</trkpt>
<trkpt lat="57.121109" lon="9.258991">
<ele>23.116496</ele>
<time>2026-07-15T12:27:14.000Z</time>
</trkpt>
<trkpt lat="57.121090" lon="9.259085">
<ele>23.134900</ele>
<time>2026-07-15T12:27:15.000Z</time>
</trkpt>
<trkpt lat="57.121067" lon="9.259182">
<ele>23.154323</ele>
<time>2026-07-15T12:27:16.000Z</time>
</trkpt>
<trkpt lat="57.121048" lon="9.259278">
<ele>23.173072</ele>
<time>2026-07-15T12:27:17.000Z</time>
</trkpt>
<trkpt lat="57.121033" lon="9.259375">
<ele>23.191578</ele>
<time>2026-07-15T12:27:18.000Z</time>
</trkpt>
<trkpt lat="57.121025" lon="9.259470">
<ele>23.209218</ele>
<time>2026-07-15T12:27:19.000Z</time>
</trkpt>
<trkpt lat="57.121014" lon="9.259567">
<ele>23.227401</ele>
<time>2026-07-15T12:27:20.000Z</time>
</trkpt>
<trkpt lat="57.121010" lon="9.259658">
<ele>23.244153</ele>
<time>2026-07-15T12:27:21.000Z</time>
</trkpt>
<trkpt lat="57.121006" lon="9.259749">
<ele>23.260906</ele>
<time>2026-07-15T12:27:22.000Z</time>
</trkpt>
<trkpt lat="57.121006" lon="9.259835">
<ele>23.276686</ele>
<time>2026-07-15T12:27:23.000Z</time>
</trkpt>
<trkpt lat="57.121010" lon="9.259913">
<ele>23.291062</ele>
<time>2026-07-15T12:27:24.000Z</time>
</trkpt>
<trkpt lat="57.121014" lon="9.259997">
<ele>23.306534</ele>
<time>2026-07-15T12:27:25.000Z</time>
</trkpt>
<trkpt lat="57.121025" lon="9.260072">
<ele>23.320789</ele>
<time>2026-07-15T12:27:26.000Z</time>
</trkpt>
<trkpt lat="57.121029" lon="9.260145">
<ele>23.334252</ele>
<time>2026-07-15T12:27:27.000Z</time>
</trkpt>
<trkpt lat="57.121033" lon="9.260218">
<ele>23.347715</ele>
<time>2026-07-15T12:27:28.000Z</time>
</trkpt>
<trkpt lat="57.121025" lon="9.260290">
<ele>23.361200</ele>
<time>2026-07-15T12:27:29.000Z</time>
</trkpt>
<trkpt lat="57.121014" lon="9.260355">
<ele>23.373693</ele>
<time>2026-07-15T12:27:30.000Z</time>
</trkpt>
<trkpt lat="57.120991" lon="9.260422">
<ele>23.388239</ele>
<time>2026-07-15T12:27:31.000Z</time>
</trkpt>
<trkpt lat="57.120956" lon="9.260469">
<ele>23.402879</ele>
<time>2026-07-15T12:27:32.000Z</time>
</trkpt>
<trkpt lat="57.120918" lon="9.260515">
<ele>23.418248</ele>
<time>2026-07-15T12:27:33.000Z</time>
</trkpt>
<trkpt lat="57.120876" lon="9.260565">
<ele>23.435151</ele>
<time>2026-07-15T12:27:34.000Z</time>
</trkpt>
<trkpt lat="57.120830" lon="9.260614">
<ele>23.453111</ele>
<time>2026-07-15T12:27:35.000Z</time>
</trkpt>
<trkpt lat="57.120785" lon="9.260662">
<ele>23.470687</ele>
<time>2026-07-15T12:27:36.000Z</time>
</trkpt>
<trkpt lat="57.120735" lon="9.260714">
<ele>23.471849</ele>
<time>2026-07-15T12:27:37.000Z</time>
</trkpt>
<trkpt lat="57.120689" lon="9.260766">
<ele>23.470842</ele>
<time>2026-07-15T12:27:38.000Z</time>
</trkpt>
<trkpt lat="57.120640" lon="9.260820">
<ele>23.469777</ele>
<time>2026-07-15T12:27:39.000Z</time>
</trkpt>
<trkpt lat="57.120590" lon="9.260874">
<ele>23.468696</ele>
<time>2026-07-15T12:27:40.000Z</time>
</trkpt>
<trkpt lat="57.120536" lon="9.260927">
<ele>23.467555</ele>
<time>2026-07-15T12:27:41.000Z</time>
</trkpt>
<trkpt lat="57.120484" lon="9.260980">
<ele>23.466446</ele>
<time>2026-07-15T12:27:42.000Z</time>
</trkpt>
<trkpt lat="57.120434" lon="9.261039">
<ele>23.465338</ele>
<time>2026-07-15T12:27:43.000Z</time>
</trkpt>
<trkpt lat="57.120384" lon="9.261095">
<ele>23.464247</ele>
<time>2026-07-15T12:27:44.000Z</time>
</trkpt>
<trkpt lat="57.120330" lon="9.261149">
<ele>23.463101</ele>
<time>2026-07-15T12:27:45.000Z</time>
</trkpt>
<trkpt lat="57.120274" lon="9.261202">
<ele>23.461926</ele>
<time>2026-07-15T12:27:46.000Z</time>
</trkpt>
<trkpt lat="57.120221" lon="9.261258">
<ele>23.460786</ele>
<time>2026-07-15T12:27:47.000Z</time>
</trkpt>
<trkpt lat="57.120163" lon="9.261312">
<ele>23.459574</ele>
<time>2026-07-15T12:27:48.000Z</time>
</trkpt>
<trkpt lat="57.120109" lon="9.261370">
<ele>23.458408</ele>
<time>2026-07-15T12:27:49.000Z</time>
</trkpt>
<trkpt lat="57.120063" lon="9.261422">
<ele>23.457401</ele>
<time>2026-07-15T12:27:50.000Z</time>
</trkpt>
<trkpt lat="57.119999" lon="9.261490">
<ele>23.456023</ele>
<time>2026-07-15T12:27:51.000Z</time>
</trkpt>
<trkpt lat="57.119942" lon="9.261545">
<ele>23.454823</ele>
<time>2026-07-15T12:27:52.000Z</time>
</trkpt>
<trkpt lat="57.119880" lon="9.261595">
<ele>23.453560</ele>
<time>2026-07-15T12:27:53.000Z</time>
</trkpt>
<trkpt lat="57.119819" lon="9.261644">
<ele>23.452319</ele>
<time>2026-07-15T12:27:54.000Z</time>
</trkpt>
<trkpt lat="57.119762" lon="9.261694">
<ele>23.451141</ele>
<time>2026-07-15T12:27:55.000Z</time>
</trkpt>
<trkpt lat="57.119705" lon="9.261745">
<ele>23.449959</ele>
<time>2026-07-15T12:27:56.000Z</time>
</trkpt>
<trkpt lat="57.119645" lon="9.261796">
<ele>23.448726</ele>
<time>2026-07-15T12:27:57.000Z</time>
</trkpt>
<trkpt lat="57.119583" lon="9.261845">
<ele>23.447468</ele>
<time>2026-07-15T12:27:58.000Z</time>
</trkpt>
<trkpt lat="57.119523" lon="9.261895">
<ele>23.446240</ele>
<time>2026-07-15T12:27:59.000Z</time>
</trkpt>
<trkpt lat="57.119466" lon="9.261944">
<ele>23.445066</ele>
<time>2026-07-15T12:28:00.000Z</time>
</trkpt>
<trkpt lat="57.119403" lon="9.261994">
<ele>23.443787</ele>
<time>2026-07-15T12:28:01.000Z</time>
</trkpt>
<trkpt lat="57.119346" lon="9.262043">
<ele>23.442613</ele>
<time>2026-07-15T12:28:02.000Z</time>
</trkpt>
<trkpt lat="57.119282" lon="9.262092">
<ele>23.441320</ele>
<time>2026-07-15T12:28:03.000Z</time>
</trkpt>
<trkpt lat="57.119225" lon="9.262140">
<ele>23.440151</ele>
<time>2026-07-15T12:28:04.000Z</time>
</trkpt>
<trkpt lat="57.119163" lon="9.262188">
<ele>23.443666</ele>
<time>2026-07-15T12:28:05.000Z</time>
</trkpt>
<trkpt lat="57.119110" lon="9.262239">
<ele>23.457534</ele>
<time>2026-07-15T12:28:06.000Z</time>
</trkpt>
<trkpt lat="57.119049" lon="9.262290">
<ele>23.473071</ele>
<time>2026-07-15T12:28:07.000Z</time>
</trkpt>
<trkpt lat="57.118992" lon="9.262339">
<ele>23.487660</ele>
<time>2026-07-15T12:28:08.000Z</time>
</trkpt>
<trkpt lat="57.118932" lon="9.262387">
<ele>23.502832</ele>
<time>2026-07-15T12:28:09.000Z</time>
</trkpt>
<trkpt lat="57.118874" lon="9.262433">
<ele>23.517478</ele>
<time>2026-07-15T12:28:10.000Z</time>
</trkpt>
<trkpt lat="57.118821" lon="9.262473">
<ele>23.530762</ele>
<time>2026-07-15T12:28:11.000Z</time>
</trkpt>
<trkpt lat="57.118766" lon="9.262514">
<ele>23.544523</ele>
<time>2026-07-15T12:28:12.000Z</time>
</trkpt>
<trkpt lat="57.118710" lon="9.262563">
<ele>23.558902</ele>
<time>2026-07-15T12:28:13.000Z</time>
</trkpt>
<trkpt lat="57.118655" lon="9.262611">
<ele>23.573018</ele>
<time>2026-07-15T12:28:14.000Z</time>
</trkpt>
<trkpt lat="57.118596" lon="9.262664">
<ele>23.588242</ele>
<time>2026-07-15T12:28:15.000Z</time>
</trkpt>
<trkpt lat="57.118545" lon="9.262716">
<ele>23.601762</ele>
<time>2026-07-15T12:28:16.000Z</time>
</trkpt>
<trkpt lat="57.118491" lon="9.262767">
<ele>23.615837</ele>
<time>2026-07-15T12:28:17.000Z</time>
</trkpt>
<trkpt lat="57.118436" lon="9.262815">
<ele>23.629952</ele>
<time>2026-07-15T12:28:18.000Z</time>
</trkpt>
<trkpt lat="57.118383" lon="9.262863">
<ele>23.643650</ele>
<time>2026-07-15T12:28:19.000Z</time>
</trkpt>
<trkpt lat="57.118324" lon="9.262915">
<ele>23.658820</ele>
<time>2026-07-15T12:28:20.000Z</time>
</trkpt>
<trkpt lat="57.118263" lon="9.262967">
<ele>23.674410</ele>
<time>2026-07-15T12:28:21.000Z</time>
</trkpt>
<trkpt lat="57.118202" lon="9.263017">
<ele>23.689895</ele>
<time>2026-07-15T12:28:22.000Z</time>
</trkpt>
<trkpt lat="57.118141" lon="9.263062">
<ele>23.705135</ele>
<time>2026-07-15T12:28:23.000Z</time>
</trkpt>
<trkpt lat="57.118082" lon="9.263111">
<ele>23.720146</ele>
<time>2026-07-15T12:28:24.000Z</time>
</trkpt>
<trkpt lat="57.118015" lon="9.263164">
<ele>23.737058</ele>
<time>2026-07-15T12:28:25.000Z</time>
</trkpt>
<trkpt lat="57.117955" lon="9.263211">
<ele>23.752180</ele>
<time>2026-07-15T12:28:26.000Z</time>
</trkpt>
<trkpt lat="57.117893" lon="9.263260">
<ele>23.767827</ele>
<time>2026-07-15T12:28:27.000Z</time>
</trkpt>
<trkpt lat="57.117832" lon="9.263312">
<ele>23.783417</ele>
<time>2026-07-15T12:28:28.000Z</time>
</trkpt>
<trkpt lat="57.117771" lon="9.263365">
<ele>23.799060</ele>
<time>2026-07-15T12:28:29.000Z</time>
</trkpt>
<trkpt lat="57.117710" lon="9.263416">
<ele>23.814597</ele>
<time>2026-07-15T12:28:30.000Z</time>
</trkpt>
<trkpt lat="57.117652" lon="9.263469">
<ele>23.829613</ele>
<time>2026-07-15T12:28:31.000Z</time>
</trkpt>
<trkpt lat="57.117592" lon="9.263516">
<ele>23.844735</ele>
<time>2026-07-15T12:28:32.000Z</time>
</trkpt>
<trkpt lat="57.117531" lon="9.263561">
<ele>23.860234</ele>
<time>2026-07-15T12:28:33.000Z</time>
</trkpt>
<trkpt lat="57.117473" lon="9.263608">
<ele>23.875995</ele>
<time>2026-07-15T12:28:34.000Z</time>
</trkpt>
<trkpt lat="57.117413" lon="9.263653">
<ele>23.892109</ele>
<time>2026-07-15T12:28:35.000Z</time>
</trkpt>
<trkpt lat="57.117348" lon="9.263697">
<ele>23.909335</ele>
<time>2026-07-15T12:28:36.000Z</time>
</trkpt>
<trkpt lat="57.117286" lon="9.263747">
<ele>23.926170</ele>
<time>2026-07-15T12:28:37.000Z</time>
</trkpt>
<trkpt lat="57.117225" lon="9.263797">
<ele>23.942778</ele>
<time>2026-07-15T12:28:38.000Z</time>
</trkpt>
<trkpt lat="57.117166" lon="9.263847">
<ele>23.958932</ele>
<time>2026-07-15T12:28:39.000Z</time>
</trkpt>
<trkpt lat="57.117106" lon="9.263898">
<ele>23.975369</ele>
<time>2026-07-15T12:28:40.000Z</time>
</trkpt>
<trkpt lat="57.117046" lon="9.263947">
<ele>23.991695</ele>
<time>2026-07-15T12:28:41.000Z</time>
</trkpt>
<trkpt lat="57.116981" lon="9.263990">
<ele>24.008874</ele>
<time>2026-07-15T12:28:42.000Z</time>
</trkpt>
<trkpt lat="57.116924" lon="9.264037">
<ele>24.024408</ele>
<time>2026-07-15T12:28:43.000Z</time>
</trkpt>
<trkpt lat="57.116863" lon="9.264087">
<ele>24.041016</ele>
<time>2026-07-15T12:28:44.000Z</time>
</trkpt>
<trkpt lat="57.116806" lon="9.264134">
<ele>24.056550</ele>
<time>2026-07-15T12:28:45.000Z</time>
</trkpt>
<trkpt lat="57.116745" lon="9.264180">
<ele>24.072946</ele>
<time>2026-07-15T12:28:46.000Z</time>
</trkpt>
<trkpt lat="57.116688" lon="9.264229">
<ele>24.088592</ele>
<time>2026-07-15T12:28:47.000Z</time>
</trkpt>
<trkpt lat="57.116628" lon="9.264278">
<ele>24.104918</ele>
<time>2026-07-15T12:28:48.000Z</time>
</trkpt>
<trkpt lat="57.116565" lon="9.264325">
<ele>24.121825</ele>
<time>2026-07-15T12:28:49.000Z</time>
</trkpt>
<trkpt lat="57.116508" lon="9.264374">
<ele>24.137471</ele>
<time>2026-07-15T12:28:50.000Z</time>
</trkpt>
<trkpt lat="57.116455" lon="9.264420">
<ele>24.152045</ele>
<time>2026-07-15T12:28:51.000Z</time>
</trkpt>
<trkpt lat="57.116394" lon="9.264466">
<ele>24.168441</ele>
<time>2026-07-15T12:28:52.000Z</time>
</trkpt>
<trkpt lat="57.116338" lon="9.264516">
<ele>24.183920</ele>
<time>2026-07-15T12:28:53.000Z</time>
</trkpt>
<trkpt lat="57.116283" lon="9.264566">
<ele>24.199177</ele>
<time>2026-07-15T12:28:54.000Z</time>
</trkpt>
<trkpt lat="57.116226" lon="9.264611">
<ele>24.214602</ele>
<time>2026-07-15T12:28:55.000Z</time>
</trkpt>
<trkpt lat="57.116170" lon="9.264657">
<ele>24.229854</ele>
<time>2026-07-15T12:28:56.000Z</time>
</trkpt>
<trkpt lat="57.116112" lon="9.264702">
<ele>24.245509</ele>
<time>2026-07-15T12:28:57.000Z</time>
</trkpt>
<trkpt lat="57.116052" lon="9.264747">
<ele>24.261623</ele>
<time>2026-07-15T12:28:58.000Z</time>
</trkpt>
<trkpt lat="57.115990" lon="9.264798">
<ele>24.278513</ele>
<time>2026-07-15T12:28:59.000Z</time>
</trkpt>
<trkpt lat="57.115926" lon="9.264848">
<ele>24.295806</ele>
<time>2026-07-15T12:29:00.000Z</time>
</trkpt>
<trkpt lat="57.115861" lon="9.264895">
<ele>24.323043</ele>
<time>2026-07-15T12:29:01.000Z</time>
</trkpt>
<trkpt lat="57.115795" lon="9.264941">
<ele>24.359084</ele>
<time>2026-07-15T12:29:02.000Z</time>
</trkpt>
<trkpt lat="57.115731" lon="9.264988">
<ele>24.394273</ele>
<time>2026-07-15T12:29:03.000Z</time>
</trkpt>
<trkpt lat="57.115669" lon="9.265036">
<ele>24.428623</ele>
<time>2026-07-15T12:29:04.000Z</time>
</trkpt>
<trkpt lat="57.115609" lon="9.265086">
<ele>24.462257</ele>
<time>2026-07-15T12:29:05.000Z</time>
</trkpt>
<trkpt lat="57.115548" lon="9.265136">
<ele>24.496358</ele>
<time>2026-07-15T12:29:06.000Z</time>
</trkpt>
<trkpt lat="57.115486" lon="9.265185">
<ele>24.530816</ele>
<time>2026-07-15T12:29:07.000Z</time>
</trkpt>
<trkpt lat="57.115422" lon="9.265233">
<ele>24.566109</ele>
<time>2026-07-15T12:29:08.000Z</time>
</trkpt>
<trkpt lat="57.115360" lon="9.265284">
<ele>24.600789</ele>
<time>2026-07-15T12:29:09.000Z</time>
</trkpt>
<trkpt lat="57.115295" lon="9.265330">
<ele>24.636353</ele>
<time>2026-07-15T12:29:10.000Z</time>
</trkpt>
<trkpt lat="57.115234" lon="9.265378">
<ele>24.670232</ele>
<time>2026-07-15T12:29:11.000Z</time>
</trkpt>
<trkpt lat="57.115178" lon="9.265424">
<ele>24.701549</ele>
<time>2026-07-15T12:29:12.000Z</time>
</trkpt>
<trkpt lat="57.115116" lon="9.265473">
<ele>24.736007</ele>
<time>2026-07-15T12:29:13.000Z</time>
</trkpt>
<trkpt lat="57.115058" lon="9.265516">
<ele>24.767939</ele>
<time>2026-07-15T12:29:14.000Z</time>
</trkpt>
<trkpt lat="57.114998" lon="9.265560">
<ele>24.800923</ele>
<time>2026-07-15T12:29:15.000Z</time>
</trkpt>
<trkpt lat="57.114938" lon="9.265600">
<ele>24.833513</ele>
<time>2026-07-15T12:29:16.000Z</time>
</trkpt>
<trkpt lat="57.114881" lon="9.265639">
<ele>24.864569</ele>
<time>2026-07-15T12:29:17.000Z</time>
</trkpt>
<trkpt lat="57.114826" lon="9.265678">
<ele>24.894669</ele>
<time>2026-07-15T12:29:18.000Z</time>
</trkpt>
<trkpt lat="57.114769" lon="9.265714">
<ele>24.925445</ele>
<time>2026-07-15T12:29:19.000Z</time>
</trkpt>
<trkpt lat="57.114719" lon="9.265754">
<ele>24.953287</ele>
<time>2026-07-15T12:29:20.000Z</time>
</trkpt>
<trkpt lat="57.114666" lon="9.265788">
<ele>24.981951</ele>
<time>2026-07-15T12:29:21.000Z</time>
</trkpt>
<trkpt lat="57.114616" lon="9.265824">
<ele>25.009369</ele>
<time>2026-07-15T12:29:22.000Z</time>
</trkpt>
<trkpt lat="57.114567" lon="9.265857">
<ele>25.036016</ele>
<time>2026-07-15T12:29:23.000Z</time>
</trkpt>
<trkpt lat="57.114514" lon="9.265885">
<ele>25.064177</ele>
<time>2026-07-15T12:29:24.000Z</time>
</trkpt>
<trkpt lat="57.114472" lon="9.265910">
<ele>25.086720</ele>
<time>2026-07-15T12:29:25.000Z</time>
</trkpt>
<trkpt lat="57.114427" lon="9.265932">
<ele>25.110499</ele>
<time>2026-07-15T12:29:26.000Z</time>
</trkpt>
<trkpt lat="57.114384" lon="9.265952">
<ele>25.133150</ele>
<time>2026-07-15T12:29:27.000Z</time>
</trkpt>
<trkpt lat="57.114345" lon="9.265970">
<ele>25.153684</ele>
<time>2026-07-15T12:29:28.000Z</time>
</trkpt>
<trkpt lat="57.114320" lon="9.265985">
<ele>25.167113</ele>
<time>2026-07-15T12:29:29.000Z</time>
</trkpt>
<trkpt lat="57.114288" lon="9.266000">
<ele>25.183978</ele>
<time>2026-07-15T12:29:30.000Z</time>
</trkpt>
<trkpt lat="57.114262" lon="9.266006">
<ele>25.197361</ele>
<time>2026-07-15T12:29:31.000Z</time>
</trkpt>
<trkpt lat="57.114239" lon="9.266006">
<ele>25.209108</ele>
<time>2026-07-15T12:29:32.000Z</time>
</trkpt>
<trkpt lat="57.114224" lon="9.266006">
<ele>25.216769</ele>
<time>2026-07-15T12:29:33.000Z</time>
</trkpt>
<trkpt lat="57.114227" lon="9.266062">
<ele>25.229643</ele>
<time>2026-07-15T12:29:46.000Z</time>
</trkpt>
<trkpt lat="57.114250" lon="9.266057">
<ele>25.238221</ele>
<time>2026-07-15T12:29:47.000Z</time>
</trkpt>
<trkpt lat="57.114277" lon="9.266051">
<ele>25.248295</ele>
<time>2026-07-15T12:29:48.000Z</time>
</trkpt>
<trkpt lat="57.114304" lon="9.266053">
<ele>25.258304</ele>
<time>2026-07-15T12:29:49.000Z</time>
</trkpt>
<trkpt lat="57.114327" lon="9.266073">
<ele>25.267725</ele>
<time>2026-07-15T12:29:50.000Z</time>
</trkpt>
<trkpt lat="57.114344" lon="9.266102">
<ele>25.276307</ele>
<time>2026-07-15T12:29:51.000Z</time>
</trkpt>
<trkpt lat="57.114361" lon="9.266138">
<ele>25.285903</ele>
<time>2026-07-15T12:29:52.000Z</time>
</trkpt>
<trkpt lat="57.114372" lon="9.266175">
<ele>25.294386</ele>
<time>2026-07-15T12:29:53.000Z</time>
</trkpt>
<trkpt lat="57.114380" lon="9.266219">
<ele>25.303718</ele>
<time>2026-07-15T12:29:54.000Z</time>
</trkpt>
<trkpt lat="57.114384" lon="9.266269">
<ele>25.313883</ele>
<time>2026-07-15T12:29:55.000Z</time>
</trkpt>
<trkpt lat="57.114395" lon="9.266314">
<ele>25.323808</ele>
<time>2026-07-15T12:29:56.000Z</time>
</trkpt>
<trkpt lat="57.114403" lon="9.266352">
<ele>25.332005</ele>
<time>2026-07-15T12:29:57.000Z</time>
</trkpt>
<trkpt lat="57.114410" lon="9.266387">
<ele>25.339506</ele>
<time>2026-07-15T12:29:58.000Z</time>
</trkpt>
<trkpt lat="57.114414" lon="9.266415">
<ele>25.345329</ele>
<time>2026-07-15T12:29:59.000Z</time>
</trkpt>
<trkpt lat="57.114422" lon="9.266442">
<ele>25.351515</ele>
<time>2026-07-15T12:30:00.000Z</time>
</trkpt>
<trkpt lat="57.114426" lon="9.266481">
<ele>25.359497</ele>
<time>2026-07-15T12:30:01.000Z</time>
</trkpt>
<trkpt lat="57.114433" lon="9.266512">
<ele>25.366249</ele>
<time>2026-07-15T12:30:02.000Z</time>
</trkpt>
<trkpt lat="57.114441" lon="9.266539">
<ele>25.372435</ele>
<time>2026-07-15T12:30:03.000Z</time>
</trkpt>
<trkpt lat="57.114449" lon="9.266568">
<ele>25.378977</ele>
<time>2026-07-15T12:30:04.000Z</time>
</trkpt>
<trkpt lat="57.114456" lon="9.266590">
<ele>25.384105</ele>
<time>2026-07-15T12:30:05.000Z</time>
</trkpt>
<trkpt lat="57.114468" lon="9.266600">
<ele>25.388984</ele>
<time>2026-07-15T12:30:06.000Z</time>
</trkpt>
<trkpt lat="57.114475" lon="9.266612">
<ele>25.392526</ele>
<time>2026-07-15T12:30:07.000Z</time>
</trkpt>
<trkpt lat="57.114487" lon="9.266622">
<ele>25.397405</ele>
<time>2026-07-15T12:30:08.000Z</time>
</trkpt>
<trkpt lat="57.114494" lon="9.266626">
<ele>25.400119</ele>
<time>2026-07-15T12:30:09.000Z</time>
</trkpt>
<trkpt lat="57.114498" lon="9.266628">
<ele>25.401655</ele>
<time>2026-07-15T12:30:10.000Z</time>
</trkpt>
<trkpt lat="57.114498" lon="9.266632">
<ele>25.402459</ele>
<time>2026-07-15T12:30:11.000Z</time>
</trkpt>
<trkpt lat="57.114498" lon="9.266632">
<ele>25.402459</ele>
<time>2026-07-15T12:30:12.000Z</time>
</trkpt>
<trkpt lat="57.114452" lon="9.266602">
<ele>25.420534</ele>
<time>2026-07-15T12:33:26.000Z</time>
</trkpt>
<trkpt lat="57.114445" lon="9.266597">
<ele>25.423315</ele>
<time>2026-07-15T12:33:27.000Z</time>
</trkpt>
<trkpt lat="57.114445" lon="9.266597">
<ele>25.423315</ele>
<time>2026-07-15T12:33:28.000Z</time>
</trkpt>
<trkpt lat="57.114445" lon="9.266597">
<ele>25.423315</ele>
<time>2026-07-15T12:33:30.000Z</time>
</trkpt>
<trkpt lat="57.114445" lon="9.266596">
<ele>25.423516</ele>
<time>2026-07-15T12:33:51.000Z</time>
</trkpt>
<trkpt lat="57.114415" lon="9.266497">
<ele>25.446318</ele>
<time>2026-07-15T12:33:52.000Z</time>
</trkpt>
<trkpt lat="57.114406" lon="9.266461">
<ele>25.454288</ele>
<time>2026-07-15T12:33:53.000Z</time>
</trkpt>
<trkpt lat="57.114395" lon="9.266427">
<ele>25.462248</ele>
<time>2026-07-15T12:33:54.000Z</time>
</trkpt>
<trkpt lat="57.114388" lon="9.266390">
<ele>25.470128</ele>
<time>2026-07-15T12:33:55.000Z</time>
</trkpt>
<trkpt lat="57.114380" lon="9.266356">
<ele>25.477581</ele>
<time>2026-07-15T12:33:56.000Z</time>
</trkpt>
<trkpt lat="57.114368" lon="9.266323">
<ele>25.485568</ele>
<time>2026-07-15T12:33:57.000Z</time>
</trkpt>
<trkpt lat="57.114365" lon="9.266294">
<ele>25.491506</ele>
<time>2026-07-15T12:33:58.000Z</time>
</trkpt>
<trkpt lat="57.114361" lon="9.266268">
<ele>25.496940</ele>
<time>2026-07-15T12:33:59.000Z</time>
</trkpt>
<trkpt lat="57.114357" lon="9.266240">
<ele>25.502763</ele>
<time>2026-07-15T12:34:00.000Z</time>
</trkpt>
<trkpt lat="57.114353" lon="9.266210">
<ele>25.508976</ele>
<time>2026-07-15T12:34:01.000Z</time>
</trkpt>
<trkpt lat="57.114350" lon="9.266188">
<ele>25.513538</ele>
<time>2026-07-15T12:34:02.000Z</time>
</trkpt>
<trkpt lat="57.114342" lon="9.266165">
<ele>25.519031</ele>
<time>2026-07-15T12:34:03.000Z</time>
</trkpt>
<trkpt lat="57.114338" lon="9.266140">
<ele>25.524273</ele>
<time>2026-07-15T12:34:04.000Z</time>
</trkpt>
<trkpt lat="57.114330" lon="9.266113">
<ele>25.530459</ele>
<time>2026-07-15T12:34:05.000Z</time>
</trkpt>
<trkpt lat="57.114323" lon="9.266090">
<ele>25.535762</ele>
<time>2026-07-15T12:34:06.000Z</time>
</trkpt>
<trkpt lat="57.114304" lon="9.266077">
<ele>25.543269</ele>
<time>2026-07-15T12:34:07.000Z</time>
</trkpt>
<trkpt lat="57.114280" lon="9.266073">
<ele>25.552195</ele>
<time>2026-07-15T12:34:08.000Z</time>
</trkpt>
<trkpt lat="57.114262" lon="9.266077">
<ele>25.558911</ele>
<time>2026-07-15T12:34:09.000Z</time>
</trkpt>
<trkpt lat="57.114231" lon="9.266073">
<ele>25.570421</ele>
<time>2026-07-15T12:34:10.000Z</time>
</trkpt>
<trkpt lat="57.114201" lon="9.266069">
<ele>25.581563</ele>
<time>2026-07-15T12:34:11.000Z</time>
</trkpt>
<trkpt lat="57.114170" lon="9.266068">
<ele>25.593047</ele>
<time>2026-07-15T12:34:12.000Z</time>
</trkpt>
<trkpt lat="57.114136" lon="9.266071">
<ele>25.605655</ele>
<time>2026-07-15T12:34:13.000Z</time>
</trkpt>
<trkpt lat="57.114098" lon="9.266080">
<ele>25.619846</ele>
<time>2026-07-15T12:34:14.000Z</time>
</trkpt>
<trkpt lat="57.114055" lon="9.266090">
<ele>25.635900</ele>
<time>2026-07-15T12:34:15.000Z</time>
</trkpt>
<trkpt lat="57.114010" lon="9.266097">
<ele>25.652627</ele>
<time>2026-07-15T12:34:16.000Z</time>
</trkpt>
<trkpt lat="57.113970" lon="9.266103">
<ele>25.667492</ele>
<time>2026-07-15T12:34:17.000Z</time>
</trkpt>
<trkpt lat="57.113924" lon="9.266111">
<ele>25.684607</ele>
<time>2026-07-15T12:34:18.000Z</time>
</trkpt>
<trkpt lat="57.113880" lon="9.266120">
<ele>25.701005</ele>
<time>2026-07-15T12:34:19.000Z</time>
</trkpt>
<trkpt lat="57.113839" lon="9.266131">
<ele>25.716351</ele>
<time>2026-07-15T12:34:20.000Z</time>
</trkpt>
<trkpt lat="57.113792" lon="9.266144">
<ele>25.733955</ele>
<time>2026-07-15T12:34:21.000Z</time>
</trkpt>
<trkpt lat="57.113748" lon="9.266156">
<ele>25.750431</ele>
<time>2026-07-15T12:34:22.000Z</time>
</trkpt>
<trkpt lat="57.113702" lon="9.266168">
<ele>25.767639</ele>
<time>2026-07-15T12:34:23.000Z</time>
</trkpt>
<trkpt lat="57.113656" lon="9.266178">
<ele>25.784796</ele>
<time>2026-07-15T12:34:24.000Z</time>
</trkpt>
<trkpt lat="57.113605" lon="9.266185">
<ele>25.803739</ele>
<time>2026-07-15T12:34:25.000Z</time>
</trkpt>
<trkpt lat="57.113558" lon="9.266195">
<ele>25.821264</ele>
<time>2026-07-15T12:34:26.000Z</time>
</trkpt>
<trkpt lat="57.113502" lon="9.266210">
<ele>25.842224</ele>
<time>2026-07-15T12:34:27.000Z</time>
</trkpt>
<trkpt lat="57.113453" lon="9.266223">
<ele>25.860562</ele>
<time>2026-07-15T12:34:28.000Z</time>
</trkpt>
<trkpt lat="57.113404" lon="9.266238">
<ele>25.878960</ele>
<time>2026-07-15T12:34:29.000Z</time>
</trkpt>
<trkpt lat="57.113350" lon="9.266250">
<ele>25.893435</ele>
<time>2026-07-15T12:34:30.000Z</time>
</trkpt>
<trkpt lat="57.113302" lon="9.266264">
<ele>25.901666</ele>
<time>2026-07-15T12:34:31.000Z</time>
</trkpt>
<trkpt lat="57.113257" lon="9.266276">
<ele>25.909368</ele>
<time>2026-07-15T12:34:32.000Z</time>
</trkpt>
<trkpt lat="57.113206" lon="9.266289">
<ele>25.918088</ele>
<time>2026-07-15T12:34:33.000Z</time>
</trkpt>
<trkpt lat="57.113159" lon="9.266299">
<ele>25.926102</ele>
<time>2026-07-15T12:34:34.000Z</time>
</trkpt>
<trkpt lat="57.113105" lon="9.266309">
<ele>25.935294</ele>
<time>2026-07-15T12:34:35.000Z</time>
</trkpt>
<trkpt lat="57.113057" lon="9.266322">
<ele>25.943511</ele>
<time>2026-07-15T12:34:36.000Z</time>
</trkpt>
<trkpt lat="57.113004" lon="9.266333">
<ele>25.952545</ele>
<time>2026-07-15T12:34:37.000Z</time>
</trkpt>
<trkpt lat="57.112949" lon="9.266345">
<ele>25.961926</ele>
<time>2026-07-15T12:34:38.000Z</time>
</trkpt>
<trkpt lat="57.112898" lon="9.266353">
<ele>25.970595</ele>
<time>2026-07-15T12:34:39.000Z</time>
</trkpt>
<trkpt lat="57.112842" lon="9.266365">
<ele>25.980144</ele>
<time>2026-07-15T12:34:40.000Z</time>
</trkpt>
<trkpt lat="57.112790" lon="9.266373">
<ele>25.988982</ele>
<time>2026-07-15T12:34:41.000Z</time>
</trkpt>
<trkpt lat="57.112735" lon="9.266380">
<ele>25.998320</ele>
<time>2026-07-15T12:34:42.000Z</time>
</trkpt>
<trkpt lat="57.112676" lon="9.266387">
<ele>26.008334</ele>
<time>2026-07-15T12:34:43.000Z</time>
</trkpt>
<trkpt lat="57.112619" lon="9.266398">
<ele>26.018041</ele>
<time>2026-07-15T12:34:44.000Z</time>
</trkpt>
<trkpt lat="57.112563" lon="9.266414">
<ele>26.027640</ele>
<time>2026-07-15T12:34:45.000Z</time>
</trkpt>
<trkpt lat="57.112503" lon="9.266430">
<ele>26.037908</ele>
<time>2026-07-15T12:34:46.000Z</time>
</trkpt>
<trkpt lat="57.112450" lon="9.266441">
<ele>26.046942</ele>
<time>2026-07-15T12:34:47.000Z</time>
</trkpt>
<trkpt lat="57.112390" lon="9.266453">
<ele>26.057164</ele>
<time>2026-07-15T12:34:48.000Z</time>
</trkpt>
<trkpt lat="57.112331" lon="9.266467">
<ele>26.067240</ele>
<time>2026-07-15T12:34:49.000Z</time>
</trkpt>
<trkpt lat="57.112270" lon="9.266479">
<ele>26.077631</ele>
<time>2026-07-15T12:34:50.000Z</time>
</trkpt>
<trkpt lat="57.112213" lon="9.266488">
<ele>26.087320</ele>
<time>2026-07-15T12:34:51.000Z</time>
</trkpt>
<trkpt lat="57.112155" lon="9.266501">
<ele>26.097217</ele>
<time>2026-07-15T12:34:52.000Z</time>
</trkpt>
<trkpt lat="57.112096" lon="9.266513">
<ele>26.107270</ele>
<time>2026-07-15T12:34:53.000Z</time>
</trkpt>
<trkpt lat="57.112042" lon="9.266528">
<ele>26.116520</ele>
<time>2026-07-15T12:34:54.000Z</time>
</trkpt>
<trkpt lat="57.111988" lon="9.266542">
<ele>26.125757</ele>
<time>2026-07-15T12:34:55.000Z</time>
</trkpt>
<trkpt lat="57.111931" lon="9.266553">
<ele>26.135464</ele>
<time>2026-07-15T12:34:56.000Z</time>
</trkpt>
<trkpt lat="57.111871" lon="9.266566">
<ele>26.145696</ele>
<time>2026-07-15T12:34:57.000Z</time>
</trkpt>
<trkpt lat="57.111812" lon="9.266580">
<ele>26.155772</ele>
<time>2026-07-15T12:34:58.000Z</time>
</trkpt>
<trkpt lat="57.111752" lon="9.266593">
<ele>26.166005</ele>
<time>2026-07-15T12:34:59.000Z</time>
</trkpt>
<trkpt lat="57.111698" lon="9.266605">
<ele>26.175217</ele>
<time>2026-07-15T12:35:00.000Z</time>
</trkpt>
<trkpt lat="57.111637" lon="9.266615">
<ele>26.185590</ele>
<time>2026-07-15T12:35:01.000Z</time>
</trkpt>
<trkpt lat="57.111577" lon="9.266626">
<ele>26.196053</ele>
<time>2026-07-15T12:35:02.000Z</time>
</trkpt>
<trkpt lat="57.111515" lon="9.266640">
<ele>26.207693</ele>
<time>2026-07-15T12:35:03.000Z</time>
</trkpt>
<trkpt lat="57.111452" lon="9.266652">
<ele>26.219495</ele>
<time>2026-07-15T12:35:04.000Z</time>
</trkpt>
<trkpt lat="57.111398" lon="9.266661">
<ele>26.229598</ele>
<time>2026-07-15T12:35:05.000Z</time>
</trkpt>
<trkpt lat="57.111339" lon="9.266673">
<ele>26.240659</ele>
<time>2026-07-15T12:35:06.000Z</time>
</trkpt>
<trkpt lat="57.111286" lon="9.266690">
<ele>26.250683</ele>
<time>2026-07-15T12:35:07.000Z</time>
</trkpt>
<trkpt lat="57.111229" lon="9.266704">
<ele>26.261398</ele>
<time>2026-07-15T12:35:08.000Z</time>
</trkpt>
<trkpt lat="57.111169" lon="9.266718">
<ele>26.272668</ele>
<time>2026-07-15T12:35:09.000Z</time>
</trkpt>
<trkpt lat="57.111114" lon="9.266731">
<ele>26.283001</ele>
<time>2026-07-15T12:35:10.000Z</time>
</trkpt>
<trkpt lat="57.111055" lon="9.266744">
<ele>26.294073</ele>
<time>2026-07-15T12:35:11.000Z</time>
</trkpt>
<trkpt lat="57.110989" lon="9.266755">
<ele>26.306422</ele>
<time>2026-07-15T12:35:12.000Z</time>
</trkpt>
<trkpt lat="57.110924" lon="9.266767">
<ele>26.318594</ele>
<time>2026-07-15T12:35:13.000Z</time>
</trkpt>
<trkpt lat="57.110857" lon="9.266779">
<ele>26.331138</ele>
<time>2026-07-15T12:35:14.000Z</time>
</trkpt>
<trkpt lat="57.110786" lon="9.266795">
<ele>26.344466</ele>
<time>2026-07-15T12:35:15.000Z</time>
</trkpt>
<trkpt lat="57.110730" lon="9.266811">
<ele>26.355026</ele>
<time>2026-07-15T12:35:16.000Z</time>
</trkpt>
<trkpt lat="57.110668" lon="9.266824">
<ele>26.366654</ele>
<time>2026-07-15T12:35:17.000Z</time>
</trkpt>
<trkpt lat="57.110603" lon="9.266833">
<ele>26.378800</ele>
<time>2026-07-15T12:35:18.000Z</time>
</trkpt>
<trkpt lat="57.110533" lon="9.266842">
<ele>26.391875</ele>
<time>2026-07-15T12:35:19.000Z</time>
</trkpt>
<trkpt lat="57.110458" lon="9.266849">
<ele>26.405869</ele>
<time>2026-07-15T12:35:20.000Z</time>
</trkpt>
<trkpt lat="57.110385" lon="9.266855">
<ele>26.419485</ele>
<time>2026-07-15T12:35:21.000Z</time>
</trkpt>
<trkpt lat="57.110315" lon="9.266862">
<ele>26.432548</ele>
<time>2026-07-15T12:35:22.000Z</time>
</trkpt>
<trkpt lat="57.110242" lon="9.266871">
<ele>26.446181</ele>
<time>2026-07-15T12:35:23.000Z</time>
</trkpt>
<trkpt lat="57.110171" lon="9.266884">
<ele>26.459476</ele>
<time>2026-07-15T12:35:24.000Z</time>
</trkpt>
<trkpt lat="57.110093" lon="9.266895">
<ele>26.474053</ele>
<time>2026-07-15T12:35:25.000Z</time>
</trkpt>
<trkpt lat="57.110019" lon="9.266905">
<ele>26.487879</ele>
<time>2026-07-15T12:35:26.000Z</time>
</trkpt>
<trkpt lat="57.109946" lon="9.266916">
<ele>26.501527</ele>
<time>2026-07-15T12:35:27.000Z</time>
</trkpt>
<trkpt lat="57.109872" lon="9.266928">
<ele>26.515369</ele>
<time>2026-07-15T12:35:28.000Z</time>
</trkpt>
<trkpt lat="57.109798" lon="9.266942">
<ele>26.532432</ele>
<time>2026-07-15T12:35:29.000Z</time>
</trkpt>
<trkpt lat="57.109727" lon="9.266953">
<ele>26.600538</ele>
<time>2026-07-15T12:35:30.000Z</time>
</trkpt>
<trkpt lat="57.109655" lon="9.266967">
<ele>26.669742</ele>
<time>2026-07-15T12:35:31.000Z</time>
</trkpt>
<trkpt lat="57.109581" lon="9.266982">
<ele>26.740903</ele>
<time>2026-07-15T12:35:32.000Z</time>
</trkpt>
<trkpt lat="57.109511" lon="9.266993">
<ele>26.808056</ele>
<time>2026-07-15T12:35:33.000Z</time>
</trkpt>
<trkpt lat="57.109440" lon="9.267005">
<ele>26.876207</ele>
<time>2026-07-15T12:35:34.000Z</time>
</trkpt>
<trkpt lat="57.109368" lon="9.267020">
<ele>26.945468</ele>
<time>2026-07-15T12:35:35.000Z</time>
</trkpt>
<trkpt lat="57.109297" lon="9.267036">
<ele>27.013840</ele>
<time>2026-07-15T12:35:36.000Z</time>
</trkpt>
<trkpt lat="57.109228" lon="9.267053">
<ele>27.080382</ele>
<time>2026-07-15T12:35:37.000Z</time>
</trkpt>
<trkpt lat="57.109158" lon="9.267068">
<ele>27.147743</ele>
<time>2026-07-15T12:35:38.000Z</time>
</trkpt>
<trkpt lat="57.109091" lon="9.267081">
<ele>27.212140</ele>
<time>2026-07-15T12:35:39.000Z</time>
</trkpt>
<trkpt lat="57.109021" lon="9.267095">
<ele>27.279444</ele>
<time>2026-07-15T12:35:40.000Z</time>
</trkpt>
<trkpt lat="57.108951" lon="9.267107">
<ele>27.346643</ele>
<time>2026-07-15T12:35:41.000Z</time>
</trkpt>
<trkpt lat="57.108881" lon="9.267118">
<ele>27.413796</ele>
<time>2026-07-15T12:35:42.000Z</time>
</trkpt>
<trkpt lat="57.108816" lon="9.267133">
<ele>27.476413</ele>
<time>2026-07-15T12:35:43.000Z</time>
</trkpt>
<trkpt lat="57.108746" lon="9.267145">
<ele>27.543612</ele>
<time>2026-07-15T12:35:44.000Z</time>
</trkpt>
<trkpt lat="57.108681" lon="9.267155">
<ele>27.605960</ele>
<time>2026-07-15T12:35:45.000Z</time>
</trkpt>
<trkpt lat="57.108617" lon="9.267167">
<ele>27.667451</ele>
<time>2026-07-15T12:35:46.000Z</time>
</trkpt>
<trkpt lat="57.108552" lon="9.267180">
<ele>27.729947</ele>
<time>2026-07-15T12:35:47.000Z</time>
</trkpt>
<trkpt lat="57.108486" lon="9.267190">
<ele>27.793247</ele>
<time>2026-07-15T12:35:48.000Z</time>
</trkpt>
<trkpt lat="57.108426" lon="9.267198">
<ele>27.850748</ele>
<time>2026-07-15T12:35:49.000Z</time>
</trkpt>
<trkpt lat="57.108371" lon="9.267205">
<ele>27.903446</ele>
<time>2026-07-15T12:35:50.000Z</time>
</trkpt>
<trkpt lat="57.108306" lon="9.267208">
<ele>27.965596</ele>
<time>2026-07-15T12:35:51.000Z</time>
</trkpt>
<trkpt lat="57.108245" lon="9.267212">
<ele>28.023940</ele>
<time>2026-07-15T12:35:52.000Z</time>
</trkpt>
<trkpt lat="57.108186" lon="9.267213">
<ele>28.080338</ele>
<time>2026-07-15T12:35:53.000Z</time>
</trkpt>
<trkpt lat="57.108124" lon="9.267210">
<ele>28.139622</ele>
<time>2026-07-15T12:35:54.000Z</time>
</trkpt>
<trkpt lat="57.108066" lon="9.267205">
<ele>28.195122</ele>
<time>2026-07-15T12:35:55.000Z</time>
</trkpt>
<trkpt lat="57.108002" lon="9.267200">
<ele>28.238736</ele>
<time>2026-07-15T12:35:56.000Z</time>
</trkpt>
<trkpt lat="57.107940" lon="9.267192">
<ele>28.177158</ele>
<time>2026-07-15T12:35:57.000Z</time>
</trkpt>
<trkpt lat="57.107875" lon="9.267180">
<ele>28.112435</ele>
<time>2026-07-15T12:35:58.000Z</time>
</trkpt>
<trkpt lat="57.107816" lon="9.267170">
<ele>28.053732</ele>
<time>2026-07-15T12:35:59.000Z</time>
</trkpt>
<trkpt lat="57.107754" lon="9.267161">
<ele>27.992114</ele>
<time>2026-07-15T12:36:00.000Z</time>
</trkpt>
<trkpt lat="57.107693" lon="9.267152">
<ele>27.931483</ele>
<time>2026-07-15T12:36:01.000Z</time>
</trkpt>
<trkpt lat="57.107632" lon="9.267141">
<ele>27.870757</ele>
<time>2026-07-15T12:36:02.000Z</time>
</trkpt>
<trkpt lat="57.107568" lon="9.267135">
<ele>27.807266</ele>
<time>2026-07-15T12:36:03.000Z</time>
</trkpt>
<trkpt lat="57.107506" lon="9.267128">
<ele>27.745723</ele>
<time>2026-07-15T12:36:04.000Z</time>
</trkpt>
<trkpt lat="57.107453" lon="9.267121">
<ele>27.693077</ele>
<time>2026-07-15T12:36:05.000Z</time>
</trkpt>
<trkpt lat="57.107387" lon="9.267109">
<ele>27.627368</ele>
<time>2026-07-15T12:36:06.000Z</time>
</trkpt>
<trkpt lat="57.107318" lon="9.267096">
<ele>27.558648</ele>
<time>2026-07-15T12:36:07.000Z</time>
</trkpt>
<trkpt lat="57.107258" lon="9.267088">
<ele>27.499046</ele>
<time>2026-07-15T12:36:08.000Z</time>
</trkpt>
<trkpt lat="57.107191" lon="9.267077">
<ele>27.432401</ele>
<time>2026-07-15T12:36:09.000Z</time>
</trkpt>
<trkpt lat="57.107129" lon="9.267069">
<ele>27.370823</ele>
<time>2026-07-15T12:36:10.000Z</time>
</trkpt>
<trkpt lat="57.107057" lon="9.267057">
<ele>27.299196</ele>
<time>2026-07-15T12:36:11.000Z</time>
</trkpt>
<trkpt lat="57.106997" lon="9.267041">
<ele>27.239130</ele>
<time>2026-07-15T12:36:12.000Z</time>
</trkpt>
<trkpt lat="57.106931" lon="9.267023">
<ele>27.173026</ele>
<time>2026-07-15T12:36:13.000Z</time>
</trkpt>
<trkpt lat="57.106864" lon="9.267014">
<ele>27.106468</ele>
<time>2026-07-15T12:36:14.000Z</time>
</trkpt>
<trkpt lat="57.106788" lon="9.266999">
<ele>27.030738</ele>
<time>2026-07-15T12:36:15.000Z</time>
</trkpt>
<trkpt lat="57.106710" lon="9.266983">
<ele>26.952980</ele>
<time>2026-07-15T12:36:16.000Z</time>
</trkpt>
<trkpt lat="57.106638" lon="9.266970">
<ele>26.881302</ele>
<time>2026-07-15T12:36:17.000Z</time>
</trkpt>
<trkpt lat="57.106574" lon="9.266960">
<ele>26.817665</ele>
<time>2026-07-15T12:36:18.000Z</time>
</trkpt>
<trkpt lat="57.106495" lon="9.266949">
<ele>26.739171</ele>
<time>2026-07-15T12:36:19.000Z</time>
</trkpt>
<trkpt lat="57.106426" lon="9.266938">
<ele>26.670552</ele>
<time>2026-07-15T12:36:20.000Z</time>
</trkpt>
<trkpt lat="57.106362" lon="9.266930">
<ele>26.606997</ele>
<time>2026-07-15T12:36:21.000Z</time>
</trkpt>
<trkpt lat="57.106297" lon="9.266918">
<ele>26.542274</ele>
<time>2026-07-15T12:36:22.000Z</time>
</trkpt>
<trkpt lat="57.106233" lon="9.266907">
<ele>26.478589</ele>
<time>2026-07-15T12:36:23.000Z</time>
</trkpt>
<trkpt lat="57.106167" lon="9.266896">
<ele>26.429044</ele>
<time>2026-07-15T12:36:24.000Z</time>
</trkpt>
<trkpt lat="57.106098" lon="9.266889">
<ele>26.381500</ele>
<time>2026-07-15T12:36:25.000Z</time>
</trkpt>
<trkpt lat="57.106039" lon="9.266878">
<ele>26.340700</ele>
<time>2026-07-15T12:36:26.000Z</time>
</trkpt>
<trkpt lat="57.105970" lon="9.266862">
<ele>26.292852</ele>
<time>2026-07-15T12:36:27.000Z</time>
</trkpt>
<trkpt lat="57.105892" lon="9.266847">
<ele>26.238896</ele>
<time>2026-07-15T12:36:28.000Z</time>
</trkpt>
<trkpt lat="57.105816" lon="9.266835">
<ele>26.186416</ele>
<time>2026-07-15T12:36:29.000Z</time>
</trkpt>
<trkpt lat="57.105740" lon="9.266825">
<ele>26.133994</ele>
<time>2026-07-15T12:36:30.000Z</time>
</trkpt>
<trkpt lat="57.105668" lon="9.266815">
<ele>26.084317</ele>
<time>2026-07-15T12:36:31.000Z</time>
</trkpt>
<trkpt lat="57.105598" lon="9.266802">
<ele>26.035912</ele>
<time>2026-07-15T12:36:32.000Z</time>
</trkpt>
<trkpt lat="57.105531" lon="9.266788">
<ele>25.989520</ele>
<time>2026-07-15T12:36:33.000Z</time>
</trkpt>
<trkpt lat="57.105456" lon="9.266775">
<ele>25.937691</ele>
<time>2026-07-15T12:36:34.000Z</time>
</trkpt>
<trkpt lat="57.105382" lon="9.266764">
<ele>25.886613</ele>
<time>2026-07-15T12:36:35.000Z</time>
</trkpt>
<trkpt lat="57.105309" lon="9.266753">
<ele>25.836221</ele>
<time>2026-07-15T12:36:36.000Z</time>
</trkpt>
<trkpt lat="57.105237" lon="9.266740">
<ele>25.786447</ele>
<time>2026-07-15T12:36:37.000Z</time>
</trkpt>
<trkpt lat="57.105167" lon="9.266726">
<ele>25.738003</ele>
<time>2026-07-15T12:36:38.000Z</time>
</trkpt>
<trkpt lat="57.105095" lon="9.266711">
<ele>25.688151</ele>
<time>2026-07-15T12:36:39.000Z</time>
</trkpt>
<trkpt lat="57.105027" lon="9.266700">
<ele>25.641186</ele>
<time>2026-07-15T12:36:40.000Z</time>
</trkpt>
<trkpt lat="57.104959" lon="9.266689">
<ele>25.594221</ele>
<time>2026-07-15T12:36:41.000Z</time>
</trkpt>
<trkpt lat="57.104886" lon="9.266677">
<ele>25.543797</ele>
<time>2026-07-15T12:36:42.000Z</time>
</trkpt>
<trkpt lat="57.104817" lon="9.266662">
<ele>25.495995</ele>
<time>2026-07-15T12:36:43.000Z</time>
</trkpt>
<trkpt lat="57.104745" lon="9.266647">
<ele>25.446143</ele>
<time>2026-07-15T12:36:44.000Z</time>
</trkpt>
<trkpt lat="57.104671" lon="9.266633">
<ele>25.394962</ele>
<time>2026-07-15T12:36:45.000Z</time>
</trkpt>
<trkpt lat="57.104599" lon="9.266620">
<ele>25.345188</ele>
<time>2026-07-15T12:36:46.000Z</time>
</trkpt>
<trkpt lat="57.104527" lon="9.266606">
<ele>25.295376</ele>
<time>2026-07-15T12:36:47.000Z</time>
</trkpt>
<trkpt lat="57.104451" lon="9.266590">
<ele>25.242747</ele>
<time>2026-07-15T12:36:48.000Z</time>
</trkpt>
<trkpt lat="57.104376" lon="9.266575">
<ele>25.192801</ele>
<time>2026-07-15T12:36:49.000Z</time>
</trkpt>
<trkpt lat="57.104302" lon="9.266562">
<ele>25.144339</ele>
<time>2026-07-15T12:36:50.000Z</time>
</trkpt>
<trkpt lat="57.104221" lon="9.266550">
<ele>25.091362</ele>
<time>2026-07-15T12:36:51.000Z</time>
</trkpt>
<trkpt lat="57.104145" lon="9.266539">
<ele>25.041662</ele>
<time>2026-07-15T12:36:52.000Z</time>
</trkpt>
<trkpt lat="57.104065" lon="9.266525">
<ele>24.989272</ele>
<time>2026-07-15T12:36:53.000Z</time>
</trkpt>
<trkpt lat="57.103988" lon="9.266515">
<ele>24.938949</ele>
<time>2026-07-15T12:36:54.000Z</time>
</trkpt>
<trkpt lat="57.103909" lon="9.266508">
<ele>24.887387</ele>
<time>2026-07-15T12:36:55.000Z</time>
</trkpt>
<trkpt lat="57.103829" lon="9.266505">
<ele>24.835221</ele>
<time>2026-07-15T12:36:56.000Z</time>
</trkpt>
<trkpt lat="57.103753" lon="9.266503">
<ele>24.785669</ele>
<time>2026-07-15T12:36:57.000Z</time>
</trkpt>
<trkpt lat="57.103672" lon="9.266503">
<ele>24.732863</ele>
<time>2026-07-15T12:36:58.000Z</time>
</trkpt>
<trkpt lat="57.103592" lon="9.266505">
<ele>24.680703</ele>
<time>2026-07-15T12:36:59.000Z</time>
</trkpt>
<trkpt lat="57.103514" lon="9.266512">
<ele>24.629792</ele>
<time>2026-07-15T12:37:00.000Z</time>
</trkpt>
<trkpt lat="57.103432" lon="9.266520">
<ele>24.576259</ele>
<time>2026-07-15T12:37:01.000Z</time>
</trkpt>
<trkpt lat="57.103356" lon="9.266533">
<ele>24.526499</ele>
<time>2026-07-15T12:37:02.000Z</time>
</trkpt>
<trkpt lat="57.103275" lon="9.266552">
<ele>24.473265</ele>
<time>2026-07-15T12:37:03.000Z</time>
</trkpt>
<trkpt lat="57.103197" lon="9.266574">
<ele>24.421821</ele>
<time>2026-07-15T12:37:04.000Z</time>
</trkpt>
<trkpt lat="57.103120" lon="9.266599">
<ele>24.370848</ele>
<time>2026-07-15T12:37:05.000Z</time>
</trkpt>
<trkpt lat="57.103039" lon="9.266628">
<ele>24.317052</ele>
<time>2026-07-15T12:37:06.000Z</time>
</trkpt>
<trkpt lat="57.102959" lon="9.266663">
<ele>24.263446</ele>
<time>2026-07-15T12:37:07.000Z</time>
</trkpt>
<trkpt lat="57.102882" lon="9.266698">
<ele>24.211740</ele>
<time>2026-07-15T12:37:08.000Z</time>
</trkpt>
<trkpt lat="57.102804" lon="9.266732">
<ele>24.159483</ele>
<time>2026-07-15T12:37:09.000Z</time>
</trkpt>
<trkpt lat="57.102725" lon="9.266767">
<ele>24.106510</ele>
<time>2026-07-15T12:37:10.000Z</time>
</trkpt>
<trkpt lat="57.102651" lon="9.266800">
<ele>24.056872</ele>
<time>2026-07-15T12:37:11.000Z</time>
</trkpt>
<trkpt lat="57.102562" lon="9.266831">
<ele>24.090936</ele>
<time>2026-07-15T12:37:12.000Z</time>
</trkpt>
<trkpt lat="57.102485" lon="9.266860">
<ele>24.122287</ele>
<time>2026-07-15T12:37:13.000Z</time>
</trkpt>
<trkpt lat="57.102409" lon="9.266890">
<ele>24.153292</ele>
<time>2026-07-15T12:37:14.000Z</time>
</trkpt>
<trkpt lat="57.102337" lon="9.266920">
<ele>24.182738</ele>
<time>2026-07-15T12:37:15.000Z</time>
</trkpt>
<trkpt lat="57.102261" lon="9.266950">
<ele>24.213743</ele>
<time>2026-07-15T12:37:16.000Z</time>
</trkpt>
<trkpt lat="57.102189" lon="9.266982">
<ele>24.243289</ele>
<time>2026-07-15T12:37:17.000Z</time>
</trkpt>
<trkpt lat="57.102116" lon="9.267016">
<ele>24.273325</ele>
<time>2026-07-15T12:37:18.000Z</time>
</trkpt>
<trkpt lat="57.102043" lon="9.267048">
<ele>24.303259</ele>
<time>2026-07-15T12:37:19.000Z</time>
</trkpt>
<trkpt lat="57.101971" lon="9.267080">
<ele>24.332804</ele>
<time>2026-07-15T12:37:20.000Z</time>
</trkpt>
<trkpt lat="57.101902" lon="9.267107">
<ele>24.360942</ele>
<time>2026-07-15T12:37:21.000Z</time>
</trkpt>
<trkpt lat="57.101837" lon="9.267135">
<ele>24.387571</ele>
<time>2026-07-15T12:37:22.000Z</time>
</trkpt>
<trkpt lat="57.101772" lon="9.267167">
<ele>24.414410</ele>
<time>2026-07-15T12:37:23.000Z</time>
</trkpt>
<trkpt lat="57.101713" lon="9.267200">
<ele>24.439007</ele>
<time>2026-07-15T12:37:24.000Z</time>
</trkpt>
<trkpt lat="57.101654" lon="9.267230">
<ele>24.463423</ele>
<time>2026-07-15T12:37:25.000Z</time>
</trkpt>
<trkpt lat="57.101589" lon="9.267257">
<ele>24.490002</ele>
<time>2026-07-15T12:37:26.000Z</time>
</trkpt>
<trkpt lat="57.101525" lon="9.267283">
<ele>24.516146</ele>
<time>2026-07-15T12:37:27.000Z</time>
</trkpt>
<trkpt lat="57.101456" lon="9.267310">
<ele>24.544284</ele>
<time>2026-07-15T12:37:28.000Z</time>
</trkpt>
<trkpt lat="57.101385" lon="9.267334">
<ele>24.573079</ele>
<time>2026-07-15T12:37:29.000Z</time>
</trkpt>
<trkpt lat="57.101319" lon="9.267365">
<ele>24.600249</ele>
<time>2026-07-15T12:37:30.000Z</time>
</trkpt>
<trkpt lat="57.101255" lon="9.267394">
<ele>24.626540</ele>
<time>2026-07-15T12:37:31.000Z</time>
</trkpt>
<trkpt lat="57.101181" lon="9.267422">
<ele>24.656676</ele>
<time>2026-07-15T12:37:32.000Z</time>
</trkpt>
<trkpt lat="57.101120" lon="9.267445">
<ele>24.681513</ele>
<time>2026-07-15T12:37:33.000Z</time>
</trkpt>
<trkpt lat="57.101056" lon="9.267466">
<ele>24.707445</ele>
<time>2026-07-15T12:37:34.000Z</time>
</trkpt>
<trkpt lat="57.100993" lon="9.267492">
<ele>24.733199</ele>
<time>2026-07-15T12:37:35.000Z</time>
</trkpt>
<trkpt lat="57.100921" lon="9.267517">
<ele>24.762425</ele>
<time>2026-07-15T12:37:36.000Z</time>
</trkpt>
<trkpt lat="57.100858" lon="9.267540">
<ele>24.835285</ele>
<time>2026-07-15T12:37:37.000Z</time>
</trkpt>
<trkpt lat="57.100797" lon="9.267562">
<ele>24.938236</ele>
<time>2026-07-15T12:37:38.000Z</time>
</trkpt>
<trkpt lat="57.100731" lon="9.267585">
<ele>25.049489</ele>
<time>2026-07-15T12:37:39.000Z</time>
</trkpt>
<trkpt lat="57.100670" lon="9.267602">
<ele>25.151671</ele>
<time>2026-07-15T12:37:40.000Z</time>
</trkpt>
<trkpt lat="57.100605" lon="9.267616">
<ele>25.260061</ele>
<time>2026-07-15T12:37:41.000Z</time>
</trkpt>
<trkpt lat="57.100536" lon="9.267630">
<ele>25.375034</ele>
<time>2026-07-15T12:37:42.000Z</time>
</trkpt>
<trkpt lat="57.100465" lon="9.267636">
<ele>25.492751</ele>
<time>2026-07-15T12:37:43.000Z</time>
</trkpt>
<trkpt lat="57.100397" lon="9.267638">
<ele>25.605390</ele>
<time>2026-07-15T12:37:44.000Z</time>
</trkpt>
<trkpt lat="57.100334" lon="9.267643">
<ele>25.709830</ele>
<time>2026-07-15T12:37:45.000Z</time>
</trkpt>
<trkpt lat="57.100274" lon="9.267642">
<ele>25.809209</ele>
<time>2026-07-15T12:37:46.000Z</time>
</trkpt>
<trkpt lat="57.100212" lon="9.267640">
<ele>25.911912</ele>
<time>2026-07-15T12:37:47.000Z</time>
</trkpt>
<trkpt lat="57.100155" lon="9.267636">
<ele>26.006386</ele>
<time>2026-07-15T12:37:48.000Z</time>
</trkpt>
<trkpt lat="57.100098" lon="9.267625">
<ele>26.101309</ele>
<time>2026-07-15T12:37:49.000Z</time>
</trkpt>
<trkpt lat="57.100041" lon="9.267607">
<ele>26.197094</ele>
<time>2026-07-15T12:37:50.000Z</time>
</trkpt>
<trkpt lat="57.099989" lon="9.267587">
<ele>26.285078</ele>
<time>2026-07-15T12:37:51.000Z</time>
</trkpt>
<trkpt lat="57.099926" lon="9.267565">
<ele>26.391282</ele>
<time>2026-07-15T12:37:52.000Z</time>
</trkpt>
<trkpt lat="57.099870" lon="9.267547">
<ele>26.485435</ele>
<time>2026-07-15T12:37:53.000Z</time>
</trkpt>
<trkpt lat="57.099812" lon="9.267529">
<ele>26.582852</ele>
<time>2026-07-15T12:37:54.000Z</time>
</trkpt>
<trkpt lat="57.099760" lon="9.267511">
<ele>26.670486</ele>
<time>2026-07-15T12:37:55.000Z</time>
</trkpt>
<trkpt lat="57.099701" lon="9.267491">
<ele>26.769847</ele>
<time>2026-07-15T12:37:56.000Z</time>
</trkpt>
<trkpt lat="57.099651" lon="9.267475">
<ele>26.853901</ele>
<time>2026-07-15T12:37:57.000Z</time>
</trkpt>
<trkpt lat="57.099602" lon="9.267460">
<ele>26.936171</ele>
<time>2026-07-15T12:37:58.000Z</time>
</trkpt>
<trkpt lat="57.099552" lon="9.267442">
<ele>27.020552</ele>
<time>2026-07-15T12:37:59.000Z</time>
</trkpt>
<trkpt lat="57.099510" lon="9.267426">
<ele>27.091588</ele>
<time>2026-07-15T12:38:00.000Z</time>
</trkpt>
<trkpt lat="57.099469" lon="9.267412">
<ele>27.160652</ele>
<time>2026-07-15T12:38:01.000Z</time>
</trkpt>
<trkpt lat="57.099426" lon="9.267395">
<ele>27.233494</ele>
<time>2026-07-15T12:38:02.000Z</time>
</trkpt>
<trkpt lat="57.099400" lon="9.267382">
<ele>27.278116</ele>
<time>2026-07-15T12:38:03.000Z</time>
</trkpt>
<trkpt lat="57.099373" lon="9.267366">
<ele>27.325095</ele>
<time>2026-07-15T12:38:04.000Z</time>
</trkpt>
<trkpt lat="57.099358" lon="9.267355">
<ele>27.351837</ele>
<time>2026-07-15T12:38:05.000Z</time>
</trkpt>
<trkpt lat="57.099327" lon="9.267346">
<ele>27.403815</ele>
<time>2026-07-15T12:39:07.000Z</time>
</trkpt>
<trkpt lat="57.099298" lon="9.267345">
<ele>27.451854</ele>
<time>2026-07-15T12:39:08.000Z</time>
</trkpt>
<trkpt lat="57.099262" lon="9.267339">
<ele>27.511723</ele>
<time>2026-07-15T12:39:09.000Z</time>
</trkpt>
<trkpt lat="57.099232" lon="9.267326">
<ele>27.562768</ele>
<time>2026-07-15T12:39:10.000Z</time>
</trkpt>
<trkpt lat="57.099195" lon="9.267315">
<ele>27.624843</ele>
<time>2026-07-15T12:39:11.000Z</time>
</trkpt>
<trkpt lat="57.099159" lon="9.267300">
<ele>27.685976</ele>
<time>2026-07-15T12:39:12.000Z</time>
</trkpt>
<trkpt lat="57.099118" lon="9.267286">
<ele>27.753885</ele>
<time>2026-07-15T12:39:13.000Z</time>
</trkpt>
<trkpt lat="57.099072" lon="9.267272">
<ele>27.801276</ele>
<time>2026-07-15T12:39:14.000Z</time>
</trkpt>
<trkpt lat="57.099031" lon="9.267255">
<ele>27.843994</ele>
<time>2026-07-15T12:39:15.000Z</time>
</trkpt>
<trkpt lat="57.098981" lon="9.267237">
<ele>27.895778</ele>
<time>2026-07-15T12:39:16.000Z</time>
</trkpt>
<trkpt lat="57.098936" lon="9.267219">
<ele>27.942585</ele>
<time>2026-07-15T12:39:17.000Z</time>
</trkpt>
<trkpt lat="57.098886" lon="9.267201">
<ele>27.994370</ele>
<time>2026-07-15T12:39:18.000Z</time>
</trkpt>
<trkpt lat="57.098836" lon="9.267185">
<ele>28.045954</ele>
<time>2026-07-15T12:39:19.000Z</time>
</trkpt>
<trkpt lat="57.098784" lon="9.267168">
<ele>28.099635</ele>
<time>2026-07-15T12:39:20.000Z</time>
</trkpt>
<trkpt lat="57.098730" lon="9.267146">
<ele>28.155851</ele>
<time>2026-07-15T12:39:21.000Z</time>
</trkpt>
<trkpt lat="57.098677" lon="9.267128">
<ele>28.210631</ele>
<time>2026-07-15T12:39:22.000Z</time>
</trkpt>
<trkpt lat="57.098623" lon="9.267112">
<ele>28.266225</ele>
<time>2026-07-15T12:39:23.000Z</time>
</trkpt>
<trkpt lat="57.098579" lon="9.267098">
<ele>28.311611</ele>
<time>2026-07-15T12:39:24.000Z</time>
</trkpt>
<trkpt lat="57.098512" lon="9.267074">
<ele>28.380990</ele>
<time>2026-07-15T12:39:25.000Z</time>
</trkpt>
<trkpt lat="57.098459" lon="9.267055">
<ele>28.435873</ele>
<time>2026-07-15T12:39:26.000Z</time>
</trkpt>
<trkpt lat="57.098403" lon="9.267039">
<ele>28.493475</ele>
<time>2026-07-15T12:39:27.000Z</time>
</trkpt>
<trkpt lat="57.098349" lon="9.267021">
<ele>28.549255</ele>
<time>2026-07-15T12:39:28.000Z</time>
</trkpt>
<trkpt lat="57.098295" lon="9.267004">
<ele>28.604939</ele>
<time>2026-07-15T12:39:29.000Z</time>
</trkpt>
<trkpt lat="57.098245" lon="9.266989">
<ele>28.656432</ele>
<time>2026-07-15T12:39:30.000Z</time>
</trkpt>
<trkpt lat="57.098191" lon="9.266970">
<ele>28.712313</ele>
<time>2026-07-15T12:39:31.000Z</time>
</trkpt>
<trkpt lat="57.098140" lon="9.266951">
<ele>28.765202</ele>
<time>2026-07-15T12:39:32.000Z</time>
</trkpt>
<trkpt lat="57.098085" lon="9.266932">
<ele>28.822082</ele>
<time>2026-07-15T12:39:33.000Z</time>
</trkpt>
<trkpt lat="57.098033" lon="9.266917">
<ele>28.875582</ele>
<time>2026-07-15T12:39:34.000Z</time>
</trkpt>
<trkpt lat="57.097978" lon="9.266901">
<ele>28.932179</ele>
<time>2026-07-15T12:39:35.000Z</time>
</trkpt>
<trkpt lat="57.097926" lon="9.266883">
<ele>28.985960</ele>
<time>2026-07-15T12:39:36.000Z</time>
</trkpt>
<trkpt lat="57.097875" lon="9.266867">
<ele>29.038546</ele>
<time>2026-07-15T12:39:37.000Z</time>
</trkpt>
<trkpt lat="57.097826" lon="9.266847">
<ele>29.089561</ele>
<time>2026-07-15T12:39:38.000Z</time>
</trkpt>
<trkpt lat="57.097780" lon="9.266829">
<ele>29.137362</ele>
<time>2026-07-15T12:39:39.000Z</time>
</trkpt>
<trkpt lat="57.097738" lon="9.266816">
<ele>29.180651</ele>
<time>2026-07-15T12:39:40.000Z</time>
</trkpt>
<trkpt lat="57.097700" lon="9.266802">
<ele>29.220042</ele>
<time>2026-07-15T12:39:41.000Z</time>
</trkpt>
<trkpt lat="57.097653" lon="9.266790">
<ele>29.268272</ele>
<time>2026-07-15T12:39:42.000Z</time>
</trkpt>
<trkpt lat="57.097597" lon="9.266772">
<ele>29.326053</ele>
<time>2026-07-15T12:39:43.000Z</time>
</trkpt>
<trkpt lat="57.097549" lon="9.266756">
<ele>29.375636</ele>
<time>2026-07-15T12:39:44.000Z</time>
</trkpt>
<trkpt lat="57.097494" lon="9.266736">
<ele>29.432620</ele>
<time>2026-07-15T12:39:45.000Z</time>
</trkpt>
<trkpt lat="57.097440" lon="9.266714">
<ele>29.488835</ele>
<time>2026-07-15T12:39:46.000Z</time>
</trkpt>
<trkpt lat="57.097391" lon="9.266696">
<ele>29.539623</ele>
<time>2026-07-15T12:39:47.000Z</time>
</trkpt>
<trkpt lat="57.097341" lon="9.266677">
<ele>29.592868</ele>
<time>2026-07-15T12:39:48.000Z</time>
</trkpt>
<trkpt lat="57.097289" lon="9.266663">
<ele>29.652702</ele>
<time>2026-07-15T12:39:49.000Z</time>
</trkpt>
<trkpt lat="57.097231" lon="9.266647">
<ele>29.719474</ele>
<time>2026-07-15T12:39:50.000Z</time>
</trkpt>
<trkpt lat="57.097174" lon="9.266632">
<ele>29.785030</ele>
<time>2026-07-15T12:39:51.000Z</time>
</trkpt>
<trkpt lat="57.097121" lon="9.266618">
<ele>29.845990</ele>
<time>2026-07-15T12:39:52.000Z</time>
</trkpt>
<trkpt lat="57.097063" lon="9.266600">
<ele>29.912957</ele>
<time>2026-07-15T12:39:53.000Z</time>
</trkpt>
<trkpt lat="57.097008" lon="9.266585">
<ele>29.976260</ele>
<time>2026-07-15T12:39:54.000Z</time>
</trkpt>
<trkpt lat="57.096948" lon="9.266567">
<ele>30.045473</ele>
<time>2026-07-15T12:39:55.000Z</time>
</trkpt>
<trkpt lat="57.096894" lon="9.266548">
<ele>30.108067</ele>
<time>2026-07-15T12:39:56.000Z</time>
</trkpt>
<trkpt lat="57.096842" lon="9.266529">
<ele>30.168425</ele>
<time>2026-07-15T12:39:57.000Z</time>
</trkpt>
<trkpt lat="57.096788" lon="9.266511">
<ele>30.230906</ele>
<time>2026-07-15T12:39:58.000Z</time>
</trkpt>
<trkpt lat="57.096734" lon="9.266494">
<ele>30.293279</ele>
<time>2026-07-15T12:39:59.000Z</time>
</trkpt>
<trkpt lat="57.096686" lon="9.266482">
<ele>30.348430</ele>
<time>2026-07-15T12:40:00.000Z</time>
</trkpt>
<trkpt lat="57.096632" lon="9.266466">
<ele>30.410702</ele>
<time>2026-07-15T12:40:01.000Z</time>
</trkpt>
<trkpt lat="57.096581" lon="9.266448">
<ele>30.469825</ele>
<time>2026-07-15T12:40:02.000Z</time>
</trkpt>
<trkpt lat="57.096530" lon="9.266431">
<ele>30.528834</ele>
<time>2026-07-15T12:40:03.000Z</time>
</trkpt>
<trkpt lat="57.096476" lon="9.266422">
<ele>30.590566</ele>
<time>2026-07-15T12:40:04.000Z</time>
</trkpt>
<trkpt lat="57.096420" lon="9.266419">
<ele>30.654351</ele>
<time>2026-07-15T12:40:05.000Z</time>
</trkpt>
<trkpt lat="57.096368" lon="9.266408">
<ele>30.713945</ele>
<time>2026-07-15T12:40:06.000Z</time>
</trkpt>
<trkpt lat="57.096320" lon="9.266393">
<ele>30.769376</ele>
<time>2026-07-15T12:40:07.000Z</time>
</trkpt>
<trkpt lat="57.096271" lon="9.266373">
<ele>30.826519</ele>
<time>2026-07-15T12:40:08.000Z</time>
</trkpt>
<trkpt lat="57.096213" lon="9.266354">
<ele>30.893591</ele>
<time>2026-07-15T12:40:09.000Z</time>
</trkpt>
<trkpt lat="57.096159" lon="9.266337">
<ele>30.955965</ele>
<time>2026-07-15T12:40:10.000Z</time>
</trkpt>
<trkpt lat="57.096109" lon="9.266323">
<ele>31.013546</ele>
<time>2026-07-15T12:40:11.000Z</time>
</trkpt>
<trkpt lat="57.096057" lon="9.266308">
<ele>31.073472</ele>
<time>2026-07-15T12:40:12.000Z</time>
</trkpt>
<trkpt lat="57.096003" lon="9.266292">
<ele>31.135744</ele>
<time>2026-07-15T12:40:13.000Z</time>
</trkpt>
<trkpt lat="57.095956" lon="9.266277">
<ele>31.190053</ele>
<time>2026-07-15T12:40:14.000Z</time>
</trkpt>
<trkpt lat="57.095897" lon="9.266263">
<ele>31.257783</ele>
<time>2026-07-15T12:40:15.000Z</time>
</trkpt>
<trkpt lat="57.095834" lon="9.266243">
<ele>31.330569</ele>
<time>2026-07-15T12:40:16.000Z</time>
</trkpt>
<trkpt lat="57.095779" lon="9.266226">
<ele>31.394065</ele>
<time>2026-07-15T12:40:17.000Z</time>
</trkpt>
<trkpt lat="57.095724" lon="9.266206">
<ele>31.457894</ele>
<time>2026-07-15T12:40:18.000Z</time>
</trkpt>
<trkpt lat="57.095668" lon="9.266186">
<ele>31.522841</ele>
<time>2026-07-15T12:40:19.000Z</time>
</trkpt>
<trkpt lat="57.095611" lon="9.266165">
<ele>31.589024</ele>
<time>2026-07-15T12:40:20.000Z</time>
</trkpt>
<trkpt lat="57.095556" lon="9.266145">
<ele>31.652958</ele>
<time>2026-07-15T12:40:21.000Z</time>
</trkpt>
<trkpt lat="57.095505" lon="9.266128">
<ele>31.712217</ele>
<time>2026-07-15T12:40:22.000Z</time>
</trkpt>
<trkpt lat="57.095449" lon="9.266109">
<ele>31.777323</ele>
<time>2026-07-15T12:40:23.000Z</time>
</trkpt>
<trkpt lat="57.095397" lon="9.266092">
<ele>31.837708</ele>
<time>2026-07-15T12:40:24.000Z</time>
</trkpt>
<trkpt lat="57.095344" lon="9.266079">
<ele>31.898841</ele>
<time>2026-07-15T12:40:25.000Z</time>
</trkpt>
<trkpt lat="57.095287" lon="9.266062">
<ele>31.964862</ele>
<time>2026-07-15T12:40:26.000Z</time>
</trkpt>
<trkpt lat="57.095237" lon="9.266046">
<ele>32.022886</ele>
<time>2026-07-15T12:40:27.000Z</time>
</trkpt>
<trkpt lat="57.095188" lon="9.266035">
<ele>32.079325</ele>
<time>2026-07-15T12:40:28.000Z</time>
</trkpt>
<trkpt lat="57.095134" lon="9.266020">
<ele>32.141765</ele>
<time>2026-07-15T12:40:29.000Z</time>
</trkpt>
<trkpt lat="57.095089" lon="9.266013">
<ele>32.193399</ele>
<time>2026-07-15T12:40:30.000Z</time>
</trkpt>
<trkpt lat="57.095050" lon="9.266010">
<ele>32.238029</ele>
<time>2026-07-15T12:40:31.000Z</time>
</trkpt>
<trkpt lat="57.095005" lon="9.266002">
<ele>32.289719</ele>
<time>2026-07-15T12:40:32.000Z</time>
</trkpt>
<trkpt lat="57.094962" lon="9.265995">
<ele>32.339075</ele>
<time>2026-07-15T12:40:33.000Z</time>
</trkpt>
<trkpt lat="57.094913" lon="9.265984">
<ele>32.395514</ele>
<time>2026-07-15T12:40:34.000Z</time>
</trkpt>
<trkpt lat="57.094860" lon="9.265968">
<ele>32.456921</ele>
<time>2026-07-15T12:40:35.000Z</time>
</trkpt>
<trkpt lat="57.094802" lon="9.265946">
<ele>32.524628</ele>
<time>2026-07-15T12:40:36.000Z</time>
</trkpt>
<trkpt lat="57.094753" lon="9.265928">
<ele>32.581757</ele>
<time>2026-07-15T12:40:37.000Z</time>
</trkpt>
<trkpt lat="57.094688" lon="9.265903">
<ele>32.657680</ele>
<time>2026-07-15T12:40:38.000Z</time>
</trkpt>
<trkpt lat="57.094634" lon="9.265883">
<ele>32.720658</ele>
<time>2026-07-15T12:40:39.000Z</time>
</trkpt>
<trkpt lat="57.094578" lon="9.265863">
<ele>32.785879</ele>
<time>2026-07-15T12:40:40.000Z</time>
</trkpt>
<trkpt lat="57.094520" lon="9.265839">
<ele>32.853848</ele>
<time>2026-07-15T12:40:41.000Z</time>
</trkpt>
<trkpt lat="57.094466" lon="9.265820">
<ele>32.916707</ele>
<time>2026-07-15T12:40:42.000Z</time>
</trkpt>
<trkpt lat="57.094406" lon="9.265794">
<ele>32.987183</ele>
<time>2026-07-15T12:40:43.000Z</time>
</trkpt>
<trkpt lat="57.094353" lon="9.265775">
<ele>33.048919</ele>
<time>2026-07-15T12:40:44.000Z</time>
</trkpt>
<trkpt lat="57.094295" lon="9.265760">
<ele>33.115884</ele>
<time>2026-07-15T12:40:45.000Z</time>
</trkpt>
<trkpt lat="57.094238" lon="9.265743">
<ele>33.181905</ele>
<time>2026-07-15T12:40:46.000Z</time>
</trkpt>
<trkpt lat="57.094181" lon="9.265725">
<ele>33.248028</ele>
<time>2026-07-15T12:40:47.000Z</time>
</trkpt>
<trkpt lat="57.094124" lon="9.265707">
<ele>33.314151</ele>
<time>2026-07-15T12:40:48.000Z</time>
</trkpt>
<trkpt lat="57.094074" lon="9.265692">
<ele>33.372073</ele>
<time>2026-07-15T12:40:49.000Z</time>
</trkpt>
<trkpt lat="57.094017" lon="9.265680">
<ele>33.437668</ele>
<time>2026-07-15T12:40:50.000Z</time>
</trkpt>
<trkpt lat="57.093960" lon="9.265667">
<ele>33.503338</ele>
<time>2026-07-15T12:40:51.000Z</time>
</trkpt>
<trkpt lat="57.093910" lon="9.265656">
<ele>33.560912</ele>
<time>2026-07-15T12:40:52.000Z</time>
</trkpt>
<trkpt lat="57.093857" lon="9.265650">
<ele>33.621624</ele>
<time>2026-07-15T12:40:53.000Z</time>
</trkpt>
<trkpt lat="57.093814" lon="9.265647">
<ele>33.670823</ele>
<time>2026-07-15T12:40:54.000Z</time>
</trkpt>
<trkpt lat="57.093773" lon="9.265643">
<ele>33.666983</ele>
<time>2026-07-15T12:40:55.000Z</time>
</trkpt>
<trkpt lat="57.093735" lon="9.265636">
<ele>33.643895</ele>
<time>2026-07-15T12:40:56.000Z</time>
</trkpt>
<trkpt lat="57.093697" lon="9.265635">
<ele>33.620919</ele>
<time>2026-07-15T12:40:57.000Z</time>
</trkpt>
<trkpt lat="57.093658" lon="9.265635">
<ele>33.597341</ele>
<time>2026-07-15T12:40:58.000Z</time>
</trkpt>
<trkpt lat="57.093609" lon="9.265634">
<ele>33.567715</ele>
<time>2026-07-15T12:40:59.000Z</time>
</trkpt>
<trkpt lat="57.093567" lon="9.265634">
<ele>33.542323</ele>
<time>2026-07-15T12:41:00.000Z</time>
</trkpt>
<trkpt lat="57.093532" lon="9.265627">
<ele>33.521039</ele>
<time>2026-07-15T12:41:01.000Z</time>
</trkpt>
<trkpt lat="57.093502" lon="9.265623">
<ele>33.502855</ele>
<time>2026-07-15T12:41:02.000Z</time>
</trkpt>
<trkpt lat="57.093460" lon="9.265615">
<ele>33.477327</ele>
<time>2026-07-15T12:41:03.000Z</time>
</trkpt>
<trkpt lat="57.093425" lon="9.265614">
<ele>33.456165</ele>
<time>2026-07-15T12:41:04.000Z</time>
</trkpt>
<trkpt lat="57.093387" lon="9.265614">
<ele>33.433191</ele>
<time>2026-07-15T12:41:05.000Z</time>
</trkpt>
<trkpt lat="57.093345" lon="9.265615">
<ele>33.407797</ele>
<time>2026-07-15T12:41:06.000Z</time>
</trkpt>
<trkpt lat="57.093303" lon="9.265607">
<ele>33.382270</ele>
<time>2026-07-15T12:41:07.000Z</time>
</trkpt>
<trkpt lat="57.093251" lon="9.265589">
<ele>33.350281</ele>
<time>2026-07-15T12:41:08.000Z</time>
</trkpt>
<trkpt lat="57.093200" lon="9.265582">
<ele>33.319363</ele>
<time>2026-07-15T12:41:09.000Z</time>
</trkpt>
<trkpt lat="57.093155" lon="9.265583">
<ele>33.292155</ele>
<time>2026-07-15T12:41:10.000Z</time>
</trkpt>
<trkpt lat="57.093117" lon="9.265583">
<ele>33.269182</ele>
<time>2026-07-15T12:41:11.000Z</time>
</trkpt>
<trkpt lat="57.093078" lon="9.265576">
<ele>33.245492</ele>
<time>2026-07-15T12:41:12.000Z</time>
</trkpt>
<trkpt lat="57.093047" lon="9.265568">
<ele>33.226567</ele>
<time>2026-07-15T12:41:13.000Z</time>
</trkpt>
<trkpt lat="57.093006" lon="9.265556">
<ele>33.201468</ele>
<time>2026-07-15T12:41:14.000Z</time>
</trkpt>
<trkpt lat="57.092960" lon="9.265551">
<ele>33.173610</ele>
<time>2026-07-15T12:41:15.000Z</time>
</trkpt>
<trkpt lat="57.092865" lon="9.265505">
<ele>33.114222</ele>
<time>2026-07-15T12:41:16.000Z</time>
</trkpt>
<trkpt lat="57.092803" lon="9.265489">
<ele>33.076372</ele>
<time>2026-07-15T12:41:17.000Z</time>
</trkpt>
<trkpt lat="57.092747" lon="9.265469">
<ele>33.041885</ele>
<time>2026-07-15T12:41:18.000Z</time>
</trkpt>
<trkpt lat="57.092686" lon="9.265453">
<ele>33.004633</ele>
<time>2026-07-15T12:41:19.000Z</time>
</trkpt>
<trkpt lat="57.092613" lon="9.265426">
<ele>32.959618</ele>
<time>2026-07-15T12:41:20.000Z</time>
</trkpt>
<trkpt lat="57.092548" lon="9.265406">
<ele>32.919776</ele>
<time>2026-07-15T12:41:21.000Z</time>
</trkpt>
<trkpt lat="57.092472" lon="9.265371">
<ele>32.872412</ele>
<time>2026-07-15T12:41:22.000Z</time>
</trkpt>
<trkpt lat="57.092411" lon="9.265344">
<ele>32.834482</ele>
<time>2026-07-15T12:41:23.000Z</time>
</trkpt>
<trkpt lat="57.092344" lon="9.265324">
<ele>32.793447</ele>
<time>2026-07-15T12:41:24.000Z</time>
</trkpt>
<trkpt lat="57.092266" lon="9.265297">
<ele>32.745464</ele>
<time>2026-07-15T12:41:25.000Z</time>
</trkpt>
<trkpt lat="57.092196" lon="9.265273">
<ele>32.702417</ele>
<time>2026-07-15T12:41:26.000Z</time>
</trkpt>
<trkpt lat="57.092128" lon="9.265250">
<ele>32.660618</ele>
<time>2026-07-15T12:41:27.000Z</time>
</trkpt>
<trkpt lat="57.092063" lon="9.265225">
<ele>32.620472</ele>
<time>2026-07-15T12:41:28.000Z</time>
</trkpt>
<trkpt lat="57.091994" lon="9.265198">
<ele>32.548197</ele>
<time>2026-07-15T12:41:29.000Z</time>
</trkpt>
<trkpt lat="57.091926" lon="9.265173">
<ele>32.441991</ele>
<time>2026-07-15T12:41:30.000Z</time>
</trkpt>
<trkpt lat="57.091854" lon="9.265145">
<ele>32.329281</ele>
<time>2026-07-15T12:41:31.000Z</time>
</trkpt>
<trkpt lat="57.091785" lon="9.265128">
<ele>32.222658</ele>
<time>2026-07-15T12:41:32.000Z</time>
</trkpt>
<trkpt lat="57.091713" lon="9.265103">
<ele>32.110438</ele>
<time>2026-07-15T12:41:33.000Z</time>
</trkpt>
<trkpt lat="57.091648" lon="9.265077">
<ele>32.008561</ele>
<time>2026-07-15T12:41:34.000Z</time>
</trkpt>
<trkpt lat="57.091602" lon="9.265054">
<ele>31.935554</ele>
<time>2026-07-15T12:41:35.000Z</time>
</trkpt>
<trkpt lat="57.091556" lon="9.265034">
<ele>31.863162</ele>
<time>2026-07-15T12:41:36.000Z</time>
</trkpt>
<trkpt lat="57.091514" lon="9.265016">
<ele>31.797114</ele>
<time>2026-07-15T12:41:37.000Z</time>
</trkpt>
<trkpt lat="57.091445" lon="9.264990">
<ele>31.689242</ele>
<time>2026-07-15T12:41:38.000Z</time>
</trkpt>
<trkpt lat="57.091388" lon="9.264968">
<ele>31.600042</ele>
<time>2026-07-15T12:41:39.000Z</time>
</trkpt>
<trkpt lat="57.091362" lon="9.264945">
<ele>31.555860</ele>
<time>2026-07-15T12:41:40.000Z</time>
</trkpt>
<trkpt lat="57.091320" lon="9.264916">
<ele>31.487156</ele>
<time>2026-07-15T12:41:41.000Z</time>
</trkpt>
<trkpt lat="57.091282" lon="9.264893">
<ele>31.425889</ele>
<time>2026-07-15T12:41:42.000Z</time>
</trkpt>
<trkpt lat="57.091240" lon="9.264880">
<ele>31.360659</ele>
<time>2026-07-15T12:41:43.000Z</time>
</trkpt>
<trkpt lat="57.091194" lon="9.264872">
<ele>31.289891</ele>
<time>2026-07-15T12:41:44.000Z</time>
</trkpt>
<trkpt lat="57.091152" lon="9.264865">
<ele>31.225301</ele>
<time>2026-07-15T12:41:45.000Z</time>
</trkpt>
<trkpt lat="57.091110" lon="9.264855">
<ele>31.160438</ele>
<time>2026-07-15T12:41:46.000Z</time>
</trkpt>
<trkpt lat="57.091072" lon="9.264845">
<ele>31.101646</ele>
<time>2026-07-15T12:41:47.000Z</time>
</trkpt>
<trkpt lat="57.091037" lon="9.264835">
<ele>31.047398</ele>
<time>2026-07-15T12:41:48.000Z</time>
</trkpt>
<trkpt lat="57.091000" lon="9.264825">
<ele>30.990121</ele>
<time>2026-07-15T12:41:49.000Z</time>
</trkpt>
<trkpt lat="57.090961" lon="9.264813">
<ele>30.929560</ele>
<time>2026-07-15T12:41:50.000Z</time>
</trkpt>
<trkpt lat="57.090923" lon="9.264802">
<ele>30.870644</ele>
<time>2026-07-15T12:41:51.000Z</time>
</trkpt>
<trkpt lat="57.090885" lon="9.264790">
<ele>30.811592</ele>
<time>2026-07-15T12:41:52.000Z</time>
</trkpt>
<trkpt lat="57.090847" lon="9.264782">
<ele>30.753012</ele>
<time>2026-07-15T12:41:53.000Z</time>
</trkpt>
<trkpt lat="57.090805" lon="9.264775">
<ele>30.688422</ele>
<time>2026-07-15T12:41:54.000Z</time>
</trkpt>
<trkpt lat="57.090767" lon="9.264771">
<ele>30.630126</ele>
<time>2026-07-15T12:41:55.000Z</time>
</trkpt>
<trkpt lat="57.090725" lon="9.264773">
<ele>30.565778</ele>
<time>2026-07-15T12:41:56.000Z</time>
</trkpt>
<trkpt lat="57.090687" lon="9.264771">
<ele>30.507553</ele>
<time>2026-07-15T12:41:57.000Z</time>
</trkpt>
<trkpt lat="57.090649" lon="9.264767">
<ele>30.449257</ele>
<time>2026-07-15T12:41:58.000Z</time>
</trkpt>
<trkpt lat="57.090610" lon="9.264755">
<ele>30.388696</ele>
<time>2026-07-15T12:41:59.000Z</time>
</trkpt>
<trkpt lat="57.090568" lon="9.264735">
<ele>30.322251</ele>
<time>2026-07-15T12:42:00.000Z</time>
</trkpt>
<trkpt lat="57.090531" lon="9.264718">
<ele>30.263843</ele>
<time>2026-07-15T12:42:01.000Z</time>
</trkpt>
<trkpt lat="57.090500" lon="9.264704">
<ele>30.214955</ele>
<time>2026-07-15T12:42:02.000Z</time>
</trkpt>
<trkpt lat="57.090469" lon="9.264693">
<ele>30.166601</ele>
<time>2026-07-15T12:42:03.000Z</time>
</trkpt>
<trkpt lat="57.090458" lon="9.264687">
<ele>30.149029</ele>
<time>2026-07-15T12:42:04.000Z</time>
</trkpt>
<trkpt lat="57.090462" lon="9.264695">
<ele>30.139982</ele>
<time>2026-07-15T12:42:05.000Z</time>
</trkpt>
<trkpt lat="57.090466" lon="9.264700">
<ele>30.132577</ele>
<time>2026-07-15T12:42:06.000Z</time>
</trkpt>
<trkpt lat="57.090253" lon="9.264682">
<ele>29.820189</ele>
<time>2026-07-15T12:45:04.000Z</time>
</trkpt>
<trkpt lat="57.090223" lon="9.264669">
<ele>29.791409</ele>
<time>2026-07-15T12:45:05.000Z</time>
</trkpt>
<trkpt lat="57.090175" lon="9.264660">
<ele>29.746355</ele>
<time>2026-07-15T12:45:06.000Z</time>
</trkpt>
<trkpt lat="57.090134" lon="9.264649">
<ele>29.707664</ele>
<time>2026-07-15T12:45:07.000Z</time>
</trkpt>
<trkpt lat="57.090093" lon="9.264637">
<ele>29.668897</ele>
<time>2026-07-15T12:45:08.000Z</time>
</trkpt>
<trkpt lat="57.090050" lon="9.264625">
<ele>29.628284</ele>
<time>2026-07-15T12:45:09.000Z</time>
</trkpt>
<trkpt lat="57.090008" lon="9.264617">
<ele>29.588855</ele>
<time>2026-07-15T12:45:10.000Z</time>
</trkpt>
<trkpt lat="57.089969" lon="9.264609">
<ele>29.552211</ele>
<time>2026-07-15T12:45:11.000Z</time>
</trkpt>
<trkpt lat="57.089924" lon="9.264624">
<ele>29.509507</ele>
<time>2026-07-15T12:45:12.000Z</time>
</trkpt>
<trkpt lat="57.089889" lon="9.264671">
<ele>29.469049</ele>
<time>2026-07-15T12:45:13.000Z</time>
</trkpt>
<trkpt lat="57.089873" lon="9.264720">
<ele>29.440044</ele>
<time>2026-07-15T12:45:14.000Z</time>
</trkpt>
<trkpt lat="57.089855" lon="9.264795">
<ele>29.398445</ele>
<time>2026-07-15T12:45:15.000Z</time>
</trkpt>
<trkpt lat="57.089851" lon="9.264875">
<ele>29.357685</ele>
<time>2026-07-15T12:45:16.000Z</time>
</trkpt>
<trkpt lat="57.089840" lon="9.264954">
<ele>29.316309</ele>
<time>2026-07-15T12:45:17.000Z</time>
</trkpt>
<trkpt lat="57.089832" lon="9.265041">
<ele>29.271541</ele>
<time>2026-07-15T12:45:18.000Z</time>
</trkpt>
<trkpt lat="57.089825" lon="9.265129">
<ele>29.226418</ele>
<time>2026-07-15T12:45:19.000Z</time>
</trkpt>
<trkpt lat="57.089817" lon="9.265213">
<ele>29.183150</ele>
<time>2026-07-15T12:45:20.000Z</time>
</trkpt>
<trkpt lat="57.089813" lon="9.265298">
<ele>29.139863</ele>
<time>2026-07-15T12:45:21.000Z</time>
</trkpt>
<trkpt lat="57.089806" lon="9.265389">
<ele>29.093233</ele>
<time>2026-07-15T12:45:22.000Z</time>
</trkpt>
<trkpt lat="57.089794" lon="9.265478">
<ele>29.046708</ele>
<time>2026-07-15T12:45:23.000Z</time>
</trkpt>
<trkpt lat="57.089779" lon="9.265570">
<ele>28.997975</ele>
<time>2026-07-15T12:45:24.000Z</time>
</trkpt>
<trkpt lat="57.089764" lon="9.265657">
<ele>28.951666</ele>
<time>2026-07-15T12:45:25.000Z</time>
</trkpt>
<trkpt lat="57.089748" lon="9.265746">
<ele>28.904103</ele>
<time>2026-07-15T12:45:26.000Z</time>
</trkpt>
<trkpt lat="57.089729" lon="9.265835">
<ele>28.855588</ele>
<time>2026-07-15T12:45:27.000Z</time>
</trkpt>
<trkpt lat="57.089718" lon="9.265931">
<ele>28.805810</ele>
<time>2026-07-15T12:45:28.000Z</time>
</trkpt>
<trkpt lat="57.089710" lon="9.266034">
<ele>28.753020</ele>
<time>2026-07-15T12:45:29.000Z</time>
</trkpt>
<trkpt lat="57.089710" lon="9.266134">
<ele>28.702284</ele>
<time>2026-07-15T12:45:30.000Z</time>
</trkpt>
<trkpt lat="57.089710" lon="9.266236">
<ele>28.650534</ele>
<time>2026-07-15T12:45:31.000Z</time>
</trkpt>
<trkpt lat="57.089710" lon="9.266328">
<ele>28.603857</ele>
<time>2026-07-15T12:45:32.000Z</time>
</trkpt>
<trkpt lat="57.089714" lon="9.266432">
<ele>28.550959</ele>
<time>2026-07-15T12:45:33.000Z</time>
</trkpt>
<trkpt lat="57.089710" lon="9.266527">
<ele>28.502616</ele>
<time>2026-07-15T12:45:34.000Z</time>
</trkpt>
<trkpt lat="57.089710" lon="9.266626">
<ele>28.452387</ele>
<time>2026-07-15T12:45:35.000Z</time>
</trkpt>
<trkpt lat="57.089710" lon="9.266716">
<ele>28.406725</ele>
<time>2026-07-15T12:45:36.000Z</time>
</trkpt>
<trkpt lat="57.089710" lon="9.266818">
<ele>28.354974</ele>
<time>2026-07-15T12:45:37.000Z</time>
</trkpt>
<trkpt lat="57.089710" lon="9.266905">
<ele>28.310834</ele>
<time>2026-07-15T12:45:38.000Z</time>
</trkpt>
<trkpt lat="57.089714" lon="9.266999">
<ele>28.262996</ele>
<time>2026-07-15T12:45:39.000Z</time>
</trkpt>
<trkpt lat="57.089718" lon="9.267090">
<ele>28.216675</ele>
<time>2026-07-15T12:45:40.000Z</time>
</trkpt>
<trkpt lat="57.089718" lon="9.267188">
<ele>28.166954</ele>
<time>2026-07-15T12:45:41.000Z</time>
</trkpt>
<trkpt lat="57.089714" lon="9.267280">
<ele>28.157552</ele>
<time>2026-07-15T12:45:42.000Z</time>
</trkpt>
<trkpt lat="57.089733" lon="9.267371">
<ele>28.151501</ele>
<time>2026-07-15T12:45:43.000Z</time>
</trkpt>
<trkpt lat="57.089733" lon="9.267462">
<ele>28.145853</ele>
<time>2026-07-15T12:45:44.000Z</time>
</trkpt>
<trkpt lat="57.089733" lon="9.267543">
<ele>28.140825</ele>
<time>2026-07-15T12:45:45.000Z</time>
</trkpt>
<trkpt lat="57.089733" lon="9.267632">
<ele>28.135301</ele>
<time>2026-07-15T12:45:46.000Z</time>
</trkpt>
<trkpt lat="57.089737" lon="9.267719">
<ele>28.129882</ele>
<time>2026-07-15T12:45:47.000Z</time>
</trkpt>
<trkpt lat="57.089737" lon="9.267805">
<ele>28.124544</ele>
<time>2026-07-15T12:45:48.000Z</time>
</trkpt>
<trkpt lat="57.089745" lon="9.267892">
<ele>28.119067</ele>
<time>2026-07-15T12:45:49.000Z</time>
</trkpt>
<trkpt lat="57.089752" lon="9.267981">
<ele>28.113485</ele>
<time>2026-07-15T12:45:50.000Z</time>
</trkpt>
<trkpt lat="57.089764" lon="9.268073">
<ele>28.107613</ele>
<time>2026-07-15T12:45:51.000Z</time>
</trkpt>
<trkpt lat="57.089775" lon="9.268160">
<ele>28.102069</ele>
<time>2026-07-15T12:45:52.000Z</time>
</trkpt>
<trkpt lat="57.089787" lon="9.268247">
<ele>28.096497</ele>
<time>2026-07-15T12:45:53.000Z</time>
</trkpt>
<trkpt lat="57.089801" lon="9.268329">
<ele>28.091162</ele>
<time>2026-07-15T12:45:54.000Z</time>
</trkpt>
<trkpt lat="57.089817" lon="9.268419">
<ele>28.085285</ele>
<time>2026-07-15T12:45:55.000Z</time>
</trkpt>
<trkpt lat="57.089832" lon="9.268503">
<ele>28.079796</ele>
<time>2026-07-15T12:45:56.000Z</time>
</trkpt>
<trkpt lat="57.089847" lon="9.268587">
<ele>28.074308</ele>
<time>2026-07-15T12:45:57.000Z</time>
</trkpt>
<trkpt lat="57.089859" lon="9.268673">
<ele>28.068797</ele>
<time>2026-07-15T12:45:58.000Z</time>
</trkpt>
<trkpt lat="57.089870" lon="9.268752">
<ele>28.063735</ele>
<time>2026-07-15T12:45:59.000Z</time>
</trkpt>
<trkpt lat="57.089882" lon="9.268832">
<ele>28.058584</ele>
<time>2026-07-15T12:46:00.000Z</time>
</trkpt>
<trkpt lat="57.089889" lon="9.268913">
<ele>28.053493</ele>
<time>2026-07-15T12:46:01.000Z</time>
</trkpt>
<trkpt lat="57.089897" lon="9.268997">
<ele>28.048200</ele>
<time>2026-07-15T12:46:02.000Z</time>
</trkpt>
<trkpt lat="57.089905" lon="9.269076">
<ele>28.043212</ele>
<time>2026-07-15T12:46:03.000Z</time>
</trkpt>
<trkpt lat="57.089905" lon="9.269156">
<ele>28.038246</ele>
<time>2026-07-15T12:46:04.000Z</time>
</trkpt>
<trkpt lat="57.089905" lon="9.269232">
<ele>28.033529</ele>
<time>2026-07-15T12:46:05.000Z</time>
</trkpt>
<trkpt lat="57.089905" lon="9.269309">
<ele>28.028750</ele>
<time>2026-07-15T12:46:06.000Z</time>
</trkpt>
<trkpt lat="57.089901" lon="9.269377">
<ele>28.024504</ele>
<time>2026-07-15T12:46:07.000Z</time>
</trkpt>
<trkpt lat="57.089901" lon="9.269432">
<ele>28.021091</ele>
<time>2026-07-15T12:46:08.000Z</time>
</trkpt>
<trkpt lat="57.089890" lon="9.269477">
<ele>28.018028</ele>
<time>2026-07-15T12:46:09.000Z</time>
</trkpt>
<trkpt lat="57.089870" lon="9.269495">
<ele>28.015484</ele>
<time>2026-07-15T12:46:10.000Z</time>
</trkpt>
<trkpt lat="57.089844" lon="9.269500">
<ele>28.012498</ele>
<time>2026-07-15T12:46:11.000Z</time>
</trkpt>
<trkpt lat="57.089813" lon="9.269493">
<ele>28.008930</ele>
<time>2026-07-15T12:46:12.000Z</time>
</trkpt>
<trkpt lat="57.089781" lon="9.269485">
<ele>28.005241</ele>
<time>2026-07-15T12:46:13.000Z</time>
</trkpt>
<trkpt lat="57.089733" lon="9.269473">
<ele>27.999707</ele>
<time>2026-07-15T12:46:14.000Z</time>
</trkpt>
<trkpt lat="57.089691" lon="9.269465">
<ele>27.994883</ele>
<time>2026-07-15T12:46:15.000Z</time>
</trkpt>
<trkpt lat="57.089643" lon="9.269460">
<ele>27.989391</ele>
<time>2026-07-15T12:46:16.000Z</time>
</trkpt>
<trkpt lat="57.089596" lon="9.269446">
<ele>27.983952</ele>
<time>2026-07-15T12:46:17.000Z</time>
</trkpt>
<trkpt lat="57.089543" lon="9.269433">
<ele>27.977844</ele>
<time>2026-07-15T12:46:18.000Z</time>
</trkpt>
<trkpt lat="57.089490" lon="9.269422">
<ele>27.971750</ele>
<time>2026-07-15T12:46:19.000Z</time>
</trkpt>
<trkpt lat="57.089432" lon="9.269415">
<ele>27.965110</ele>
<time>2026-07-15T12:46:20.000Z</time>
</trkpt>
<trkpt lat="57.089382" lon="9.269407">
<ele>27.959377</ele>
<time>2026-07-15T12:46:21.000Z</time>
</trkpt>
<trkpt lat="57.089325" lon="9.269397">
<ele>27.910311</ele>
<time>2026-07-15T12:46:22.000Z</time>
</trkpt>
<trkpt lat="57.089272" lon="9.269386">
<ele>27.846081</ele>
<time>2026-07-15T12:46:23.000Z</time>
</trkpt>
<trkpt lat="57.089218" lon="9.269377">
<ele>27.780785</ele>
<time>2026-07-15T12:46:24.000Z</time>
</trkpt>
<trkpt lat="57.089172" lon="9.269365">
<ele>27.724836</ele>
<time>2026-07-15T12:46:25.000Z</time>
</trkpt>
<trkpt lat="57.089139" lon="9.269347">
<ele>27.683387</ele>
<time>2026-07-15T12:46:26.000Z</time>
</trkpt>
<trkpt lat="57.089111" lon="9.269318">
<ele>27.644696</ele>
<time>2026-07-15T12:46:27.000Z</time>
</trkpt>
<trkpt lat="57.089101" lon="9.269281">
<ele>27.617656</ele>
<time>2026-07-15T12:46:28.000Z</time>
</trkpt>
<trkpt lat="57.089096" lon="9.269225">
<ele>27.580523</ele>
<time>2026-07-15T12:46:29.000Z</time>
</trkpt>
<trkpt lat="57.089100" lon="9.269170">
<ele>27.544215</ele>
<time>2026-07-15T12:46:30.000Z</time>
</trkpt>
<trkpt lat="57.089100" lon="9.269115">
<ele>27.508228</ele>
<time>2026-07-15T12:46:31.000Z</time>
</trkpt>
<trkpt lat="57.089100" lon="9.269062">
<ele>27.473550</ele>
<time>2026-07-15T12:46:32.000Z</time>
</trkpt>
<trkpt lat="57.089100" lon="9.269012">
<ele>27.440834</ele>
<time>2026-07-15T12:46:33.000Z</time>
</trkpt>
<trkpt lat="57.089096" lon="9.268968">
<ele>27.411644</ele>
<time>2026-07-15T12:46:34.000Z</time>
</trkpt>
<trkpt lat="57.089096" lon="9.268924">
<ele>27.382854</ele>
<time>2026-07-15T12:46:35.000Z</time>
</trkpt>
<trkpt lat="57.089096" lon="9.268878">
<ele>27.352756</ele>
<time>2026-07-15T12:46:36.000Z</time>
</trkpt>
<trkpt lat="57.089092" lon="9.268831">
<ele>27.321628</ele>
<time>2026-07-15T12:46:37.000Z</time>
</trkpt>
<trkpt lat="57.089085" lon="9.268793">
<ele>27.295374</ele>
<time>2026-07-15T12:46:38.000Z</time>
</trkpt>
<trkpt lat="57.089081" lon="9.268746">
<ele>27.264247</ele>
<time>2026-07-15T12:46:39.000Z</time>
</trkpt>
<trkpt lat="57.089077" lon="9.268708">
<ele>27.238920</ele>
<time>2026-07-15T12:46:40.000Z</time>
</trkpt>
<trkpt lat="57.089073" lon="9.268668">
<ele>27.212308</ele>
<time>2026-07-15T12:46:41.000Z</time>
</trkpt>
<trkpt lat="57.089062" lon="9.268640">
<ele>27.189700</ele>
<time>2026-07-15T12:46:42.000Z</time>
</trkpt>
<trkpt lat="57.089046" lon="9.268615">
<ele>27.164425</ele>
<time>2026-07-15T12:46:43.000Z</time>
</trkpt>
<trkpt lat="57.089025" lon="9.268593">
<ele>27.135326</ele>
<time>2026-07-15T12:46:44.000Z</time>
</trkpt>
<trkpt lat="57.089001" lon="9.268574">
<ele>27.103863</ele>
<time>2026-07-15T12:46:45.000Z</time>
</trkpt>
<trkpt lat="57.088978" lon="9.268550">
<ele>27.072024</ele>
<time>2026-07-15T12:46:46.000Z</time>
</trkpt>
<trkpt lat="57.088959" lon="9.268523">
<ele>27.043116</ele>
<time>2026-07-15T12:46:47.000Z</time>
</trkpt>
<trkpt lat="57.088947" lon="9.268488">
<ele>27.016037</ele>
<time>2026-07-15T12:46:48.000Z</time>
</trkpt>
<trkpt lat="57.088940" lon="9.268448">
<ele>26.988540</ele>
<time>2026-07-15T12:46:49.000Z</time>
</trkpt>
<trkpt lat="57.088932" lon="9.268411">
<ele>26.962484</ele>
<time>2026-07-15T12:46:50.000Z</time>
</trkpt>
<trkpt lat="57.088928" lon="9.268380">
<ele>26.941636</ele>
<time>2026-07-15T12:46:51.000Z</time>
</trkpt>
<trkpt lat="57.088921" lon="9.268350">
<ele>26.920273</ele>
<time>2026-07-15T12:46:52.000Z</time>
</trkpt>
<trkpt lat="57.088905" lon="9.268327">
<ele>26.895825</ele>
<time>2026-07-15T12:46:53.000Z</time>
</trkpt>
<trkpt lat="57.088891" lon="9.268311">
<ele>26.875979</ele>
<time>2026-07-15T12:46:54.000Z</time>
</trkpt>
<trkpt lat="57.088875" lon="9.268290">
<ele>26.852313</ele>
<time>2026-07-15T12:46:55.000Z</time>
</trkpt>
<trkpt lat="57.088867" lon="9.268280">
<ele>26.840668</ele>
<time>2026-07-15T12:46:56.000Z</time>
</trkpt>
<trkpt lat="57.088859" lon="9.268271">
<ele>26.829376</ele>
<time>2026-07-15T12:46:57.000Z</time>
</trkpt>
<trkpt lat="57.088844" lon="9.268269">
<ele>26.811265</ele>
<time>2026-07-15T12:46:58.000Z</time>
</trkpt>
<trkpt lat="57.088833" lon="9.268266">
<ele>26.797874</ele>
<time>2026-07-15T12:46:59.000Z</time>
</trkpt>
<trkpt lat="57.088822" lon="9.268268">
<ele>26.784562</ele>
<time>2026-07-15T12:47:00.000Z</time>
</trkpt>
<trkpt lat="57.088810" lon="9.268275">
<ele>26.769403</ele>
<time>2026-07-15T12:47:01.000Z</time>
</trkpt>
<trkpt lat="57.088806" lon="9.268275">
<ele>26.764586</ele>
<time>2026-07-15T12:47:02.000Z</time>
</trkpt>
<trkpt lat="57.088799" lon="9.268276">
<ele>26.756131</ele>
<time>2026-07-15T12:47:03.000Z</time>
</trkpt>
<trkpt lat="57.088798" lon="9.268276">
<ele>26.754926</ele>
<time>2026-07-15T12:47:10.000Z</time>
</trkpt>
<trkpt lat="57.088754" lon="9.268286">
<ele>26.701537</ele>
<time>2026-07-15T12:47:11.000Z</time>
</trkpt>
<trkpt lat="57.088737" lon="9.268289">
<ele>26.680971</ele>
<time>2026-07-15T12:47:12.000Z</time>
</trkpt>
<trkpt lat="57.088722" lon="9.268293">
<ele>26.662718</ele>
<time>2026-07-15T12:47:13.000Z</time>
</trkpt>
<trkpt lat="57.088704" lon="9.268298">
<ele>26.640796</ele>
<time>2026-07-15T12:47:14.000Z</time>
</trkpt>
<trkpt lat="57.088688" lon="9.268302">
<ele>26.621351</ele>
<time>2026-07-15T12:47:15.000Z</time>
</trkpt>
<trkpt lat="57.088669" lon="9.268305">
<ele>26.598386</ele>
<time>2026-07-15T12:47:16.000Z</time>
</trkpt>
<trkpt lat="57.088650" lon="9.268309">
<ele>26.575356</ele>
<time>2026-07-15T12:47:17.000Z</time>
</trkpt>
<trkpt lat="57.088634" lon="9.268310">
<ele>26.556077</ele>
<time>2026-07-15T12:47:18.000Z</time>
</trkpt>
<trkpt lat="57.088615" lon="9.268310">
<ele>26.533196</ele>
<time>2026-07-15T12:47:19.000Z</time>
</trkpt>
<trkpt lat="57.088602" lon="9.268310">
<ele>26.517541</ele>
<time>2026-07-15T12:47:20.000Z</time>
</trkpt>
<trkpt lat="57.088577" lon="9.268311">
<ele>26.487428</ele>
<time>2026-07-15T12:47:21.000Z</time>
</trkpt>
<trkpt lat="57.088554" lon="9.268311">
<ele>26.459730</ele>
<time>2026-07-15T12:47:22.000Z</time>
</trkpt>
<trkpt lat="57.088535" lon="9.268313">
<ele>26.436811</ele>
<time>2026-07-15T12:47:23.000Z</time>
</trkpt>
<trkpt lat="57.088521" lon="9.268315">
<ele>26.419901</ele>
<time>2026-07-15T12:47:24.000Z</time>
</trkpt>
<trkpt lat="57.088509" lon="9.268318">
<ele>26.405317</ele>
<time>2026-07-15T12:47:25.000Z</time>
</trkpt>
<trkpt lat="57.088501" lon="9.268320">
<ele>26.395595</ele>
<time>2026-07-15T12:47:26.000Z</time>
</trkpt>
<trkpt lat="57.088501" lon="9.268318">
<ele>26.394286</ele>
<time>2026-07-15T12:47:27.000Z</time>
</trkpt>
<trkpt lat="57.088268" lon="9.268724">
<ele>26.007887</ele>
<time>2026-07-15T13:30:14.000Z</time>
</trkpt>
<trkpt lat="57.088276" lon="9.268762">
<ele>25.981221</ele>
<time>2026-07-15T13:30:15.000Z</time>
</trkpt>
<trkpt lat="57.088280" lon="9.268802">
<ele>25.954609</ele>
<time>2026-07-15T13:30:16.000Z</time>
</trkpt>
<trkpt lat="57.088280" lon="9.268844">
<ele>25.927127</ele>
<time>2026-07-15T13:30:17.000Z</time>
</trkpt>
<trkpt lat="57.088283" lon="9.268880">
<ele>25.903296</ele>
<time>2026-07-15T13:30:18.000Z</time>
</trkpt>
<trkpt lat="57.088287" lon="9.268924">
<ele>25.874105</ele>
<time>2026-07-15T13:30:19.000Z</time>
</trkpt>
<trkpt lat="57.088287" lon="9.268961">
<ele>25.849895</ele>
<time>2026-07-15T13:30:20.000Z</time>
</trkpt>
<trkpt lat="57.088287" lon="9.268996">
<ele>25.826994</ele>
<time>2026-07-15T13:30:21.000Z</time>
</trkpt>
<trkpt lat="57.088284" lon="9.269035">
<ele>25.801221</ele>
<time>2026-07-15T13:30:22.000Z</time>
</trkpt>
<trkpt lat="57.088276" lon="9.269063">
<ele>25.806651</ele>
<time>2026-07-15T13:30:23.000Z</time>
</trkpt>
<trkpt lat="57.088276" lon="9.269089">
<ele>25.830995</ele>
<time>2026-07-15T13:30:24.000Z</time>
</trkpt>
<trkpt lat="57.088268" lon="9.269107">
<ele>25.852768</ele>
<time>2026-07-15T13:30:25.000Z</time>
</trkpt>
<trkpt lat="57.088276" lon="9.269127">
<ele>25.876021</ele>
<time>2026-07-15T13:30:26.000Z</time>
</trkpt>
<trkpt lat="57.088295" lon="9.269152">
<ele>25.916269</ele>
<time>2026-07-15T13:30:27.000Z</time>
</trkpt>
<trkpt lat="57.088318" lon="9.269173">
<ele>25.960512</ele>
<time>2026-07-15T13:30:28.000Z</time>
</trkpt>
<trkpt lat="57.088345" lon="9.269187">
<ele>26.008849</ele>
<time>2026-07-15T13:30:29.000Z</time>
</trkpt>
<trkpt lat="57.088374" lon="9.269201">
<ele>26.060513</ele>
<time>2026-07-15T13:30:30.000Z</time>
</trkpt>
<trkpt lat="57.088406" lon="9.269210">
<ele>26.116296</ele>
<time>2026-07-15T13:30:31.000Z</time>
</trkpt>
<trkpt lat="57.088440" lon="9.269214">
<ele>26.175004</ele>
<time>2026-07-15T13:30:32.000Z</time>
</trkpt>
<trkpt lat="57.088474" lon="9.269223">
<ele>26.234196</ele>
<time>2026-07-15T13:30:33.000Z</time>
</trkpt>
<trkpt lat="57.088509" lon="9.269223">
<ele>26.294508</ele>
<time>2026-07-15T13:30:34.000Z</time>
</trkpt>
<trkpt lat="57.088539" lon="9.269212">
<ele>26.347220</ele>
<time>2026-07-15T13:30:35.000Z</time>
</trkpt>
<trkpt lat="57.088570" lon="9.269212">
<ele>26.400640</ele>
<time>2026-07-15T13:30:36.000Z</time>
</trkpt>
<trkpt lat="57.088604" lon="9.269220">
<ele>26.459706</ele>
<time>2026-07-15T13:30:37.000Z</time>
</trkpt>
<trkpt lat="57.088638" lon="9.269225">
<ele>26.518481</ele>
<time>2026-07-15T13:30:38.000Z</time>
</trkpt>
<trkpt lat="57.088673" lon="9.269228">
<ele>26.578859</ele>
<time>2026-07-15T13:30:39.000Z</time>
</trkpt>
<trkpt lat="57.088714" lon="9.269238">
<ele>26.650128</ele>
<time>2026-07-15T13:30:40.000Z</time>
</trkpt>
<trkpt lat="57.088749" lon="9.269243">
<ele>26.710622</ele>
<time>2026-07-15T13:30:41.000Z</time>
</trkpt>
<trkpt lat="57.088783" lon="9.269247">
<ele>26.769330</ele>
<time>2026-07-15T13:30:42.000Z</time>
</trkpt>
<trkpt lat="57.088825" lon="9.269254">
<ele>26.842001</ele>
<time>2026-07-15T13:30:43.000Z</time>
</trkpt>
<trkpt lat="57.088863" lon="9.269267">
<ele>26.908604</ele>
<time>2026-07-15T13:30:44.000Z</time>
</trkpt>
<trkpt lat="57.088902" lon="9.269274">
<ele>26.976128</ele>
<time>2026-07-15T13:30:45.000Z</time>
</trkpt>
<trkpt lat="57.088931" lon="9.269274">
<ele>27.026101</ele>
<time>2026-07-15T13:30:46.000Z</time>
</trkpt>
<trkpt lat="57.088970" lon="9.269290">
<ele>27.094955</ele>
<time>2026-07-15T13:30:47.000Z</time>
</trkpt>
<trkpt lat="57.089007" lon="9.269300">
<ele>27.159398</ele>
<time>2026-07-15T13:30:48.000Z</time>
</trkpt>
<trkpt lat="57.089046" lon="9.269301">
<ele>27.226609</ele>
<time>2026-07-15T13:30:49.000Z</time>
</trkpt>
<trkpt lat="57.089080" lon="9.269308">
<ele>27.285564</ele>
<time>2026-07-15T13:30:50.000Z</time>
</trkpt>
<trkpt lat="57.089119" lon="9.269317">
<ele>27.353295</ele>
<time>2026-07-15T13:30:51.000Z</time>
</trkpt>
<trkpt lat="57.089156" lon="9.269323">
<ele>27.417301</ele>
<time>2026-07-15T13:30:52.000Z</time>
</trkpt>
<trkpt lat="57.089191" lon="9.269328">
<ele>27.477794</ele>
<time>2026-07-15T13:30:53.000Z</time>
</trkpt>
<trkpt lat="57.089234" lon="9.269340">
<ele>27.552739</ele>
<time>2026-07-15T13:30:54.000Z</time>
</trkpt>
<trkpt lat="57.089268" lon="9.269353">
<ele>27.612579</ele>
<time>2026-07-15T13:30:55.000Z</time>
</trkpt>
<trkpt lat="57.089298" lon="9.269353">
<ele>27.664275</ele>
<time>2026-07-15T13:30:56.000Z</time>
</trkpt>
<trkpt lat="57.089337" lon="9.269359">
<ele>27.731714</ele>
<time>2026-07-15T13:30:57.000Z</time>
</trkpt>
<trkpt lat="57.089370" lon="9.269372">
<ele>27.789868</ele>
<time>2026-07-15T13:30:58.000Z</time>
</trkpt>
<trkpt lat="57.089405" lon="9.269386">
<ele>27.851588</ele>
<time>2026-07-15T13:30:59.000Z</time>
</trkpt>
<trkpt lat="57.089438" lon="9.269393">
<ele>27.908830</ele>
<time>2026-07-15T13:31:00.000Z</time>
</trkpt>
<trkpt lat="57.089470" lon="9.269395">
<ele>27.964005</ele>
<time>2026-07-15T13:31:01.000Z</time>
</trkpt>
<trkpt lat="57.089503" lon="9.269400">
<ele>28.021063</ele>
<time>2026-07-15T13:31:02.000Z</time>
</trkpt>
<trkpt lat="57.089539" lon="9.269413">
<ele>28.084281</ele>
<time>2026-07-15T13:31:03.000Z</time>
</trkpt>
<trkpt lat="57.089572" lon="9.269425">
<ele>28.142246</ele>
<time>2026-07-15T13:31:04.000Z</time>
</trkpt>
<trkpt lat="57.089607" lon="9.269439">
<ele>28.203966</ele>
<time>2026-07-15T13:31:05.000Z</time>
</trkpt>
<trkpt lat="57.089645" lon="9.269453">
<ele>28.270747</ele>
<time>2026-07-15T13:31:06.000Z</time>
</trkpt>
<trkpt lat="57.089684" lon="9.269465">
<ele>28.338885</ele>
<time>2026-07-15T13:31:07.000Z</time>
</trkpt>
<trkpt lat="57.089721" lon="9.269472">
<ele>28.402979</ele>
<time>2026-07-15T13:31:08.000Z</time>
</trkpt>
<trkpt lat="57.089752" lon="9.269479">
<ele>28.456799</ele>
<time>2026-07-15T13:31:09.000Z</time>
</trkpt>
<trkpt lat="57.089783" lon="9.269491">
<ele>28.511387</ele>
<time>2026-07-15T13:31:10.000Z</time>
</trkpt>
<trkpt lat="57.089813" lon="9.269504">
<ele>28.564497</ele>
<time>2026-07-15T13:31:11.000Z</time>
</trkpt>
<trkpt lat="57.089832" lon="9.269511">
<ele>28.597887</ele>
<time>2026-07-15T13:31:12.000Z</time>
</trkpt>
<trkpt lat="57.089847" lon="9.269517">
<ele>28.624339</ele>
<time>2026-07-15T13:31:13.000Z</time>
</trkpt>
<trkpt lat="57.089867" lon="9.269510">
<ele>28.659420</ele>
<time>2026-07-15T13:31:14.000Z</time>
</trkpt>
<trkpt lat="57.089882" lon="9.269497">
<ele>28.687991</ele>
<time>2026-07-15T13:31:15.000Z</time>
</trkpt>
<trkpt lat="57.089905" lon="9.269477">
<ele>28.731825</ele>
<time>2026-07-15T13:31:16.000Z</time>
</trkpt>
<trkpt lat="57.089928" lon="9.269460">
<ele>28.774535</ele>
<time>2026-07-15T13:31:17.000Z</time>
</trkpt>
<trkpt lat="57.089945" lon="9.269441">
<ele>28.808808</ele>
<time>2026-07-15T13:31:18.000Z</time>
</trkpt>
<trkpt lat="57.089962" lon="9.269413">
<ele>28.848119</ele>
<time>2026-07-15T13:31:19.000Z</time>
</trkpt>
<trkpt lat="57.089970" lon="9.269370">
<ele>28.890673</ele>
<time>2026-07-15T13:31:20.000Z</time>
</trkpt>
<trkpt lat="57.089973" lon="9.269317">
<ele>28.889138</ele>
<time>2026-07-15T13:31:21.000Z</time>
</trkpt>
<trkpt lat="57.089977" lon="9.269260">
<ele>28.887451</ele>
<time>2026-07-15T13:31:22.000Z</time>
</trkpt>
<trkpt lat="57.089973" lon="9.269195">
<ele>28.885531</ele>
<time>2026-07-15T13:31:23.000Z</time>
</trkpt>
<trkpt lat="57.089973" lon="9.269129">
<ele>28.883594</ele>
<time>2026-07-15T13:31:24.000Z</time>
</trkpt>
<trkpt lat="57.089973" lon="9.269062">
<ele>28.881627</ele>
<time>2026-07-15T13:31:25.000Z</time>
</trkpt>
<trkpt lat="57.089970" lon="9.268995">
<ele>28.879654</ele>
<time>2026-07-15T13:31:26.000Z</time>
</trkpt>
<trkpt lat="57.089966" lon="9.268927">
<ele>28.877647</ele>
<time>2026-07-15T13:31:27.000Z</time>
</trkpt>
<trkpt lat="57.089962" lon="9.268855">
<ele>28.875522</ele>
<time>2026-07-15T13:31:28.000Z</time>
</trkpt>
<trkpt lat="57.089958" lon="9.268788">
<ele>28.873544</ele>
<time>2026-07-15T13:31:29.000Z</time>
</trkpt>
<trkpt lat="57.089951" lon="9.268713">
<ele>28.871311</ele>
<time>2026-07-15T13:31:30.000Z</time>
</trkpt>
<trkpt lat="57.089943" lon="9.268646">
<ele>28.869297</ele>
<time>2026-07-15T13:31:31.000Z</time>
</trkpt>
<trkpt lat="57.089931" lon="9.268576">
<ele>28.867143</ele>
<time>2026-07-15T13:31:32.000Z</time>
</trkpt>
<trkpt lat="57.089920" lon="9.268501">
<ele>28.864863</ele>
<time>2026-07-15T13:31:33.000Z</time>
</trkpt>
<trkpt lat="57.089905" lon="9.268425">
<ele>28.862489</ele>
<time>2026-07-15T13:31:34.000Z</time>
</trkpt>
<trkpt lat="57.089893" lon="9.268347">
<ele>28.860110</ele>
<time>2026-07-15T13:31:35.000Z</time>
</trkpt>
<trkpt lat="57.089882" lon="9.268271">
<ele>28.857802</ele>
<time>2026-07-15T13:31:36.000Z</time>
</trkpt>
<trkpt lat="57.089867" lon="9.268197">
<ele>28.855483</ele>
<time>2026-07-15T13:31:37.000Z</time>
</trkpt>
<trkpt lat="57.089855" lon="9.268121">
<ele>28.853161</ele>
<time>2026-07-15T13:31:38.000Z</time>
</trkpt>
<trkpt lat="57.089840" lon="9.268045">
<ele>28.850787</ele>
<time>2026-07-15T13:31:39.000Z</time>
</trkpt>
<trkpt lat="57.089832" lon="9.267968">
<ele>28.848486</ele>
<time>2026-07-15T13:31:40.000Z</time>
</trkpt>
<trkpt lat="57.089825" lon="9.267894">
<ele>28.846282</ele>
<time>2026-07-15T13:31:41.000Z</time>
</trkpt>
<trkpt lat="57.089825" lon="9.267814">
<ele>28.843934</ele>
<time>2026-07-15T13:31:42.000Z</time>
</trkpt>
<trkpt lat="57.089825" lon="9.267739">
<ele>28.841732</ele>
<time>2026-07-15T13:31:43.000Z</time>
</trkpt>
<trkpt lat="57.089821" lon="9.267660">
<ele>28.839404</ele>
<time>2026-07-15T13:31:44.000Z</time>
</trkpt>
<trkpt lat="57.089825" lon="9.267585">
<ele>28.837192</ele>
<time>2026-07-15T13:31:45.000Z</time>
</trkpt>
<trkpt lat="57.089828" lon="9.267508">
<ele>28.834926</ele>
<time>2026-07-15T13:31:46.000Z</time>
</trkpt>
<trkpt lat="57.089825" lon="9.267429">
<ele>28.832602</ele>
<time>2026-07-15T13:31:47.000Z</time>
</trkpt>
<trkpt lat="57.089817" lon="9.267350">
<ele>28.830243</ele>
<time>2026-07-15T13:31:48.000Z</time>
</trkpt>
<trkpt lat="57.089813" lon="9.267269">
<ele>28.827856</ele>
<time>2026-07-15T13:31:49.000Z</time>
</trkpt>
<trkpt lat="57.089813" lon="9.267185">
<ele>28.825390</ele>
<time>2026-07-15T13:31:50.000Z</time>
</trkpt>
<trkpt lat="57.089806" lon="9.267105">
<ele>28.823012</ele>
<time>2026-07-15T13:31:51.000Z</time>
</trkpt>
<trkpt lat="57.089802" lon="9.267029">
<ele>28.820771</ele>
<time>2026-07-15T13:31:52.000Z</time>
</trkpt>
<trkpt lat="57.089802" lon="9.266955">
<ele>28.818599</ele>
<time>2026-07-15T13:31:53.000Z</time>
</trkpt>
<trkpt lat="57.089802" lon="9.266873">
<ele>28.816192</ele>
<time>2026-07-15T13:31:54.000Z</time>
</trkpt>
<trkpt lat="57.089802" lon="9.266791">
<ele>28.813785</ele>
<time>2026-07-15T13:31:55.000Z</time>
</trkpt>
<trkpt lat="57.089805" lon="9.266714">
<ele>28.811520</ele>
<time>2026-07-15T13:31:56.000Z</time>
</trkpt>
<trkpt lat="57.089806" lon="9.266625">
<ele>28.808907</ele>
<time>2026-07-15T13:31:57.000Z</time>
</trkpt>
<trkpt lat="57.089806" lon="9.266543">
<ele>28.806500</ele>
<time>2026-07-15T13:31:58.000Z</time>
</trkpt>
<trkpt lat="57.089809" lon="9.266461">
<ele>28.804088</ele>
<time>2026-07-15T13:31:59.000Z</time>
</trkpt>
<trkpt lat="57.089802" lon="9.266377">
<ele>28.801593</ele>
<time>2026-07-15T13:32:00.000Z</time>
</trkpt>
<trkpt lat="57.089798" lon="9.266290">
<ele>28.799031</ele>
<time>2026-07-15T13:32:01.000Z</time>
</trkpt>
<trkpt lat="57.089794" lon="9.266212">
<ele>28.796731</ele>
<time>2026-07-15T13:32:02.000Z</time>
</trkpt>
<trkpt lat="57.089798" lon="9.266133">
<ele>28.794403</ele>
<time>2026-07-15T13:32:03.000Z</time>
</trkpt>
<trkpt lat="57.089798" lon="9.266062">
<ele>28.826429</ele>
<time>2026-07-15T13:32:04.000Z</time>
</trkpt>
<trkpt lat="57.089806" lon="9.265997">
<ele>28.879235</ele>
<time>2026-07-15T13:32:05.000Z</time>
</trkpt>
<trkpt lat="57.089813" lon="9.265939">
<ele>28.926309</ele>
<time>2026-07-15T13:32:06.000Z</time>
</trkpt>
<trkpt lat="57.089821" lon="9.265877">
<ele>28.976800</ele>
<time>2026-07-15T13:32:07.000Z</time>
</trkpt>
<trkpt lat="57.089829" lon="9.265810">
<ele>29.031152</ele>
<time>2026-07-15T13:32:08.000Z</time>
</trkpt>
<trkpt lat="57.089836" lon="9.265743">
<ele>29.085211</ele>
<time>2026-07-15T13:32:09.000Z</time>
</trkpt>
<trkpt lat="57.089840" lon="9.265670">
<ele>29.143344</ele>
<time>2026-07-15T13:32:10.000Z</time>
</trkpt>
<trkpt lat="57.089848" lon="9.265591">
<ele>29.207015</ele>
<time>2026-07-15T13:32:11.000Z</time>
</trkpt>
<trkpt lat="57.089859" lon="9.265517">
<ele>29.267802</ele>
<time>2026-07-15T13:32:12.000Z</time>
</trkpt>
<trkpt lat="57.089870" lon="9.265437">
<ele>29.333186</ele>
<time>2026-07-15T13:32:13.000Z</time>
</trkpt>
<trkpt lat="57.089882" lon="9.265351">
<ele>29.403537</ele>
<time>2026-07-15T13:32:14.000Z</time>
</trkpt>
<trkpt lat="57.089893" lon="9.265269">
<ele>29.470458</ele>
<time>2026-07-15T13:32:15.000Z</time>
</trkpt>
<trkpt lat="57.089904" lon="9.265185">
<ele>29.538919</ele>
<time>2026-07-15T13:32:16.000Z</time>
</trkpt>
<trkpt lat="57.089912" lon="9.265105">
<ele>29.603369</ele>
<time>2026-07-15T13:32:17.000Z</time>
</trkpt>
<trkpt lat="57.089920" lon="9.265035">
<ele>29.660046</ele>
<time>2026-07-15T13:32:18.000Z</time>
</trkpt>
<trkpt lat="57.089928" lon="9.264970">
<ele>29.712851</ele>
<time>2026-07-15T13:32:19.000Z</time>
</trkpt>
<trkpt lat="57.089935" lon="9.264910">
<ele>29.761474</ele>
<time>2026-07-15T13:32:20.000Z</time>
</trkpt>
<trkpt lat="57.089939" lon="9.264845">
<ele>29.813304</ele>
<time>2026-07-15T13:32:21.000Z</time>
</trkpt>
<trkpt lat="57.089947" lon="9.264781">
<ele>29.865338</ele>
<time>2026-07-15T13:32:22.000Z</time>
</trkpt>
<trkpt lat="57.089958" lon="9.264729">
<ele>29.909551</ele>
<time>2026-07-15T13:32:23.000Z</time>
</trkpt>
<trkpt lat="57.089981" lon="9.264687">
<ele>29.956799</ele>
<time>2026-07-15T13:32:24.000Z</time>
</trkpt>
<trkpt lat="57.090007" lon="9.264669">
<ele>29.997308</ele>
<time>2026-07-15T13:32:25.000Z</time>
</trkpt>
<trkpt lat="57.090038" lon="9.264675">
<ele>30.042764</ele>
<time>2026-07-15T13:32:26.000Z</time>
</trkpt>
<trkpt lat="57.090069" lon="9.264691">
<ele>30.089715</ele>
<time>2026-07-15T13:32:27.000Z</time>
</trkpt>
<trkpt lat="57.090103" lon="9.264705">
<ele>30.140523</ele>
<time>2026-07-15T13:32:28.000Z</time>
</trkpt>
<trkpt lat="57.090133" lon="9.264711">
<ele>30.184529</ele>
<time>2026-07-15T13:32:29.000Z</time>
</trkpt>
<trkpt lat="57.090168" lon="9.264718">
<ele>30.235869</ele>
<time>2026-07-15T13:32:30.000Z</time>
</trkpt>
<trkpt lat="57.090198" lon="9.264727">
<ele>30.280196</ele>
<time>2026-07-15T13:32:31.000Z</time>
</trkpt>
<trkpt lat="57.090229" lon="9.264733">
<ele>30.325652</ele>
<time>2026-07-15T13:32:32.000Z</time>
</trkpt>
<trkpt lat="57.090255" lon="9.264740">
<ele>30.363971</ele>
<time>2026-07-15T13:32:33.000Z</time>
</trkpt>
<trkpt lat="57.090283" lon="9.264744">
<ele>30.404926</ele>
<time>2026-07-15T13:32:34.000Z</time>
</trkpt>
<trkpt lat="57.090309" lon="9.264750">
<ele>30.443138</ele>
<time>2026-07-15T13:32:35.000Z</time>
</trkpt>
<trkpt lat="57.090340" lon="9.264756">
<ele>30.488594</ele>
<time>2026-07-15T13:32:36.000Z</time>
</trkpt>
<trkpt lat="57.090362" lon="9.264762">
<ele>30.521027</ele>
<time>2026-07-15T13:32:37.000Z</time>
</trkpt>
<trkpt lat="57.090397" lon="9.264770">
<ele>30.572459</ele>
<time>2026-07-15T13:32:38.000Z</time>
</trkpt>
<trkpt lat="57.090432" lon="9.264776">
<ele>30.623720</ele>
<time>2026-07-15T13:32:39.000Z</time>
</trkpt>
<trkpt lat="57.090466" lon="9.264782">
<ele>30.673530</ele>
<time>2026-07-15T13:32:40.000Z</time>
</trkpt>
<trkpt lat="57.090494" lon="9.264788">
<ele>30.714638</ele>
<time>2026-07-15T13:32:41.000Z</time>
</trkpt>
<trkpt lat="57.090527" lon="9.264796">
<ele>30.763177</ele>
<time>2026-07-15T13:32:42.000Z</time>
</trkpt>
<trkpt lat="57.090557" lon="9.264803">
<ele>30.807276</ele>
<time>2026-07-15T13:32:43.000Z</time>
</trkpt>
<trkpt lat="57.090595" lon="9.264810">
<ele>30.862968</ele>
<time>2026-07-15T13:32:44.000Z</time>
</trkpt>
<trkpt lat="57.090633" lon="9.264815">
<ele>30.918524</ele>
<time>2026-07-15T13:32:45.000Z</time>
</trkpt>
<trkpt lat="57.090672" lon="9.264825">
<ele>30.975947</ele>
<time>2026-07-15T13:32:46.000Z</time>
</trkpt>
<trkpt lat="57.090709" lon="9.264835">
<ele>31.030482</ele>
<time>2026-07-15T13:32:47.000Z</time>
</trkpt>
<trkpt lat="57.090752" lon="9.264849">
<ele>31.094162</ele>
<time>2026-07-15T13:32:48.000Z</time>
</trkpt>
<trkpt lat="57.090790" lon="9.264858">
<ele>31.150034</ele>
<time>2026-07-15T13:32:49.000Z</time>
</trkpt>
<trkpt lat="57.090832" lon="9.264870">
<ele>31.212016</ele>
<time>2026-07-15T13:32:50.000Z</time>
</trkpt>
<trkpt lat="57.090870" lon="9.264880">
<ele>31.267994</ele>
<time>2026-07-15T13:32:51.000Z</time>
</trkpt>
<trkpt lat="57.090908" lon="9.264890">
<ele>31.323973</ele>
<time>2026-07-15T13:32:52.000Z</time>
</trkpt>
<trkpt lat="57.090942" lon="9.264900">
<ele>31.374184</ele>
<time>2026-07-15T13:32:53.000Z</time>
</trkpt>
<trkpt lat="57.090981" lon="9.264909">
<ele>31.433297</ele>
<time>2026-07-15T13:32:54.000Z</time>
</trkpt>
<trkpt lat="57.091018" lon="9.264918">
<ele>31.494224</ele>
<time>2026-07-15T13:32:55.000Z</time>
</trkpt>
<trkpt lat="57.091057" lon="9.264932">
<ele>31.559091</ele>
<time>2026-07-15T13:32:56.000Z</time>
</trkpt>
<trkpt lat="57.091103" lon="9.264950">
<ele>31.635865</ele>
<time>2026-07-15T13:32:57.000Z</time>
</trkpt>
<trkpt lat="57.091141" lon="9.264965">
<ele>31.699310</ele>
<time>2026-07-15T13:32:58.000Z</time>
</trkpt>
<trkpt lat="57.091177" lon="9.264978">
<ele>31.759201</ele>
<time>2026-07-15T13:32:59.000Z</time>
</trkpt>
<trkpt lat="57.091213" lon="9.264985">
<ele>31.818298</ele>
<time>2026-07-15T13:33:00.000Z</time>
</trkpt>
<trkpt lat="57.091247" lon="9.264992">
<ele>31.874149</ele>
<time>2026-07-15T13:33:01.000Z</time>
</trkpt>
<trkpt lat="57.091278" lon="9.264995">
<ele>31.924826</ele>
<time>2026-07-15T13:33:02.000Z</time>
</trkpt>
<trkpt lat="57.091304" lon="9.264995">
<ele>31.967271</ele>
<time>2026-07-15T13:33:03.000Z</time>
</trkpt>
<trkpt lat="57.091335" lon="9.265000">
<ele>32.018073</ele>
<time>2026-07-15T13:33:04.000Z</time>
</trkpt>
<trkpt lat="57.091366" lon="9.265000">
<ele>32.068680</ele>
<time>2026-07-15T13:33:05.000Z</time>
</trkpt>
<trkpt lat="57.091397" lon="9.265000">
<ele>32.119288</ele>
<time>2026-07-15T13:33:06.000Z</time>
</trkpt>
<trkpt lat="57.091427" lon="9.265003">
<ele>32.168335</ele>
<time>2026-07-15T13:33:07.000Z</time>
</trkpt>
<trkpt lat="57.091461" lon="9.265010">
<ele>32.224186</ele>
<time>2026-07-15T13:33:08.000Z</time>
</trkpt>
<trkpt lat="57.091492" lon="9.265017">
<ele>32.275173</ele>
<time>2026-07-15T13:33:09.000Z</time>
</trkpt>
<trkpt lat="57.091522" lon="9.265023">
<ele>32.324436</ele>
<time>2026-07-15T13:33:10.000Z</time>
</trkpt>
<trkpt lat="57.091555" lon="9.265030">
<ele>32.378665</ele>
<time>2026-07-15T13:33:11.000Z</time>
</trkpt>
<trkpt lat="57.091591" lon="9.265035">
<ele>32.437602</ele>
<time>2026-07-15T13:33:12.000Z</time>
</trkpt>
<trkpt lat="57.091625" lon="9.265041">
<ele>32.493362</ele>
<time>2026-07-15T13:33:13.000Z</time>
</trkpt>
<trkpt lat="57.091663" lon="9.265048">
<ele>32.555707</ele>
<time>2026-07-15T13:33:14.000Z</time>
</trkpt>
<trkpt lat="57.091692" lon="9.265054">
<ele>32.603347</ele>
<time>2026-07-15T13:33:15.000Z</time>
</trkpt>
<trkpt lat="57.091728" lon="9.265067">
<ele>32.663238</ele>
<time>2026-07-15T13:33:16.000Z</time>
</trkpt>
<trkpt lat="57.091759" lon="9.265079">
<ele>32.714952</ele>
<time>2026-07-15T13:33:17.000Z</time>
</trkpt>
<trkpt lat="57.091797" lon="9.265088">
<ele>32.777499</ele>
<time>2026-07-15T13:33:18.000Z</time>
</trkpt>
<trkpt lat="57.091834" lon="9.265096">
<ele>32.838316</ele>
<time>2026-07-15T13:33:19.000Z</time>
</trkpt>
<trkpt lat="57.091873" lon="9.265106">
<ele>32.902599</ele>
<time>2026-07-15T13:33:20.000Z</time>
</trkpt>
<trkpt lat="57.091911" lon="9.265110">
<ele>32.964735</ele>
<time>2026-07-15T13:33:21.000Z</time>
</trkpt>
<trkpt lat="57.091946" lon="9.265115">
<ele>33.022044</ele>
<time>2026-07-15T13:33:22.000Z</time>
</trkpt>
<trkpt lat="57.091980" lon="9.265117">
<ele>33.077578</ele>
<time>2026-07-15T13:33:23.000Z</time>
</trkpt>
<trkpt lat="57.092018" lon="9.265121">
<ele>33.139714</ele>
<time>2026-07-15T13:33:24.000Z</time>
</trkpt>
<trkpt lat="57.092051" lon="9.265126">
<ele>33.193769</ele>
<time>2026-07-15T13:33:25.000Z</time>
</trkpt>
<trkpt lat="57.092087" lon="9.265137">
<ele>33.253343</ele>
<time>2026-07-15T13:33:26.000Z</time>
</trkpt>
<trkpt lat="57.092124" lon="9.265141">
<ele>33.313849</ele>
<time>2026-07-15T13:33:27.000Z</time>
</trkpt>
<trkpt lat="57.092163" lon="9.265150">
<ele>33.378015</ele>
<time>2026-07-15T13:33:28.000Z</time>
</trkpt>
<trkpt lat="57.092205" lon="9.265160">
<ele>33.447152</ele>
<time>2026-07-15T13:33:29.000Z</time>
</trkpt>
<trkpt lat="57.092243" lon="9.265173">
<ele>33.510249</ele>
<time>2026-07-15T13:33:30.000Z</time>
</trkpt>
<trkpt lat="57.092277" lon="9.265182">
<ele>33.566325</ele>
<time>2026-07-15T13:33:31.000Z</time>
</trkpt>
<trkpt lat="57.092312" lon="9.265185">
<ele>33.623524</ele>
<time>2026-07-15T13:33:32.000Z</time>
</trkpt>
<trkpt lat="57.092362" lon="9.265197">
<ele>33.705840</ele>
<time>2026-07-15T13:33:33.000Z</time>
</trkpt>
<trkpt lat="57.092403" lon="9.265208">
<ele>33.773480</ele>
<time>2026-07-15T13:33:34.000Z</time>
</trkpt>
<trkpt lat="57.092441" lon="9.265213">
<ele>33.835673</ele>
<time>2026-07-15T13:33:35.000Z</time>
</trkpt>
<trkpt lat="57.092487" lon="9.265235">
<ele>33.913262</ele>
<time>2026-07-15T13:33:36.000Z</time>
</trkpt>
<trkpt lat="57.092529" lon="9.265259">
<ele>33.985055</ele>
<time>2026-07-15T13:33:37.000Z</time>
</trkpt>
<trkpt lat="57.092579" lon="9.265282">
<ele>34.069190</ele>
<time>2026-07-15T13:33:38.000Z</time>
</trkpt>
<trkpt lat="57.092617" lon="9.265297">
<ele>34.132636</ele>
<time>2026-07-15T13:33:39.000Z</time>
</trkpt>
<trkpt lat="57.092659" lon="9.265311">
<ele>34.202316</ele>
<time>2026-07-15T13:33:40.000Z</time>
</trkpt>
<trkpt lat="57.092698" lon="9.265333">
<ele>34.268906</ele>
<time>2026-07-15T13:33:41.000Z</time>
</trkpt>
<trkpt lat="57.092731" lon="9.265338">
<ele>34.322961</ele>
<time>2026-07-15T13:33:42.000Z</time>
</trkpt>
<trkpt lat="57.092770" lon="9.265342">
<ele>34.351428</ele>
<time>2026-07-15T13:33:43.000Z</time>
</trkpt>
<trkpt lat="57.092812" lon="9.265353">
<ele>34.348701</ele>
<time>2026-07-15T13:33:44.000Z</time>
</trkpt>
<trkpt lat="57.092864" lon="9.265373">
<ele>34.345286</ele>
<time>2026-07-15T13:33:45.000Z</time>
</trkpt>
<trkpt lat="57.092907" lon="9.265388">
<ele>34.342473</ele>
<time>2026-07-15T13:33:46.000Z</time>
</trkpt>
<trkpt lat="57.092945" lon="9.265397">
<ele>34.340010</ele>
<time>2026-07-15T13:33:47.000Z</time>
</trkpt>
<trkpt lat="57.092987" lon="9.265405">
<ele>34.337296</ele>
<time>2026-07-15T13:33:48.000Z</time>
</trkpt>
<trkpt lat="57.093025" lon="9.265410">
<ele>34.334847</ele>
<time>2026-07-15T13:33:49.000Z</time>
</trkpt>
<trkpt lat="57.093063" lon="9.265418">
<ele>34.332389</ele>
<time>2026-07-15T13:33:50.000Z</time>
</trkpt>
<trkpt lat="57.093105" lon="9.265435">
<ele>34.329625</ele>
<time>2026-07-15T13:33:51.000Z</time>
</trkpt>
<trkpt lat="57.093147" lon="9.265450">
<ele>34.326875</ele>
<time>2026-07-15T13:33:52.000Z</time>
</trkpt>
<trkpt lat="57.093189" lon="9.265456">
<ele>34.324167</ele>
<time>2026-07-15T13:33:53.000Z</time>
</trkpt>
<trkpt lat="57.093223" lon="9.265462">
<ele>34.321971</ele>
<time>2026-07-15T13:33:54.000Z</time>
</trkpt>
<trkpt lat="57.093266" lon="9.265470">
<ele>34.319193</ele>
<time>2026-07-15T13:33:55.000Z</time>
</trkpt>
<trkpt lat="57.093315" lon="9.265482">
<ele>34.316016</ele>
<time>2026-07-15T13:33:56.000Z</time>
</trkpt>
<trkpt lat="57.093365" lon="9.265502">
<ele>34.312727</ele>
<time>2026-07-15T13:33:57.000Z</time>
</trkpt>
<trkpt lat="57.093414" lon="9.265522">
<ele>34.309500</ele>
<time>2026-07-15T13:33:58.000Z</time>
</trkpt>
<trkpt lat="57.093456" lon="9.265530">
<ele>34.306786</ele>
<time>2026-07-15T13:33:59.000Z</time>
</trkpt>
<trkpt lat="57.093502" lon="9.265545">
<ele>34.303783</ele>
<time>2026-07-15T13:34:00.000Z</time>
</trkpt>
<trkpt lat="57.093548" lon="9.265550">
<ele>34.300821</ele>
<time>2026-07-15T13:34:01.000Z</time>
</trkpt>
<trkpt lat="57.093601" lon="9.265565">
<ele>34.297375</ele>
<time>2026-07-15T13:34:02.000Z</time>
</trkpt>
<trkpt lat="57.093640" lon="9.265570">
<ele>34.294862</ele>
<time>2026-07-15T13:34:03.000Z</time>
</trkpt>
<trkpt lat="57.093704" lon="9.265596">
<ele>34.290649</ele>
<time>2026-07-15T13:34:04.000Z</time>
</trkpt>
<trkpt lat="57.093760" lon="9.265626">
<ele>34.286900</ele>
<time>2026-07-15T13:34:05.000Z</time>
</trkpt>
<trkpt lat="57.093811" lon="9.265648">
<ele>34.283533</ele>
<time>2026-07-15T13:34:06.000Z</time>
</trkpt>
<trkpt lat="57.093853" lon="9.265667">
<ele>34.280753</ele>
<time>2026-07-15T13:34:07.000Z</time>
</trkpt>
<trkpt lat="57.093899" lon="9.265687">
<ele>34.277714</ele>
<time>2026-07-15T13:34:08.000Z</time>
</trkpt>
<trkpt lat="57.093945" lon="9.265705">
<ele>34.274691</ele>
<time>2026-07-15T13:34:09.000Z</time>
</trkpt>
<trkpt lat="57.093993" lon="9.265723">
<ele>34.271543</ele>
<time>2026-07-15T13:34:10.000Z</time>
</trkpt>
<trkpt lat="57.094062" lon="9.265732">
<ele>34.267096</ele>
<time>2026-07-15T13:34:11.000Z</time>
</trkpt>
<trkpt lat="57.094132" lon="9.265739">
<ele>34.262590</ele>
<time>2026-07-15T13:34:12.000Z</time>
</trkpt>
<trkpt lat="57.094196" lon="9.265745">
<ele>34.258471</ele>
<time>2026-07-15T13:34:13.000Z</time>
</trkpt>
<trkpt lat="57.094250" lon="9.265759">
<ele>34.254965</ele>
<time>2026-07-15T13:34:14.000Z</time>
</trkpt>
<trkpt lat="57.094306" lon="9.265770">
<ele>34.251345</ele>
<time>2026-07-15T13:34:15.000Z</time>
</trkpt>
<trkpt lat="57.094372" lon="9.265783">
<ele>34.247079</ele>
<time>2026-07-15T13:34:16.000Z</time>
</trkpt>
<trkpt lat="57.094437" lon="9.265801">
<ele>34.242853</ele>
<time>2026-07-15T13:34:17.000Z</time>
</trkpt>
<trkpt lat="57.094498" lon="9.265812">
<ele>34.238914</ele>
<time>2026-07-15T13:34:18.000Z</time>
</trkpt>
<trkpt lat="57.094551" lon="9.265826">
<ele>34.195314</ele>
<time>2026-07-15T13:34:19.000Z</time>
</trkpt>
<trkpt lat="57.094607" lon="9.265841">
<ele>34.104597</ele>
<time>2026-07-15T13:34:20.000Z</time>
</trkpt>
<trkpt lat="57.094666" lon="9.265860">
<ele>34.008580</ele>
<time>2026-07-15T13:34:21.000Z</time>
</trkpt>
<trkpt lat="57.094726" lon="9.265880">
<ele>33.910832</ele>
<time>2026-07-15T13:34:22.000Z</time>
</trkpt>
<trkpt lat="57.094780" lon="9.265897">
<ele>33.823010</ele>
<time>2026-07-15T13:34:23.000Z</time>
</trkpt>
<trkpt lat="57.094826" lon="9.265913">
<ele>33.747964</ele>
<time>2026-07-15T13:34:24.000Z</time>
</trkpt>
<trkpt lat="57.094871" lon="9.265923">
<ele>33.675302</ele>
<time>2026-07-15T13:34:25.000Z</time>
</trkpt>
<trkpt lat="57.094917" lon="9.265930">
<ele>33.601310</ele>
<time>2026-07-15T13:34:26.000Z</time>
</trkpt>
<trkpt lat="57.094967" lon="9.265939">
<ele>33.520774</ele>
<time>2026-07-15T13:34:27.000Z</time>
</trkpt>
<trkpt lat="57.095013" lon="9.265948">
<ele>33.446618</ele>
<time>2026-07-15T13:34:28.000Z</time>
</trkpt>
<trkpt lat="57.095061" lon="9.265959">
<ele>33.369077</ele>
<time>2026-07-15T13:34:29.000Z</time>
</trkpt>
<trkpt lat="57.095112" lon="9.265965">
<ele>33.287154</ele>
<time>2026-07-15T13:34:30.000Z</time>
</trkpt>
<trkpt lat="57.095161" lon="9.265975">
<ele>33.208123</ele>
<time>2026-07-15T13:34:31.000Z</time>
</trkpt>
<trkpt lat="57.095211" lon="9.265990">
<ele>33.126912</ele>
<time>2026-07-15T13:34:32.000Z</time>
</trkpt>
<trkpt lat="57.095265" lon="9.266007">
<ele>33.039090</ele>
<time>2026-07-15T13:34:33.000Z</time>
</trkpt>
<trkpt lat="57.095321" lon="9.266028">
<ele>32.947475</ele>
<time>2026-07-15T13:34:34.000Z</time>
</trkpt>
<trkpt lat="57.095373" lon="9.266037">
<ele>32.863748</ele>
<time>2026-07-15T13:34:35.000Z</time>
</trkpt>
<trkpt lat="57.095421" lon="9.266048">
<ele>32.786207</ele>
<time>2026-07-15T13:34:36.000Z</time>
</trkpt>
<trkpt lat="57.095474" lon="9.266064">
<ele>32.700109</ele>
<time>2026-07-15T13:34:37.000Z</time>
</trkpt>
<trkpt lat="57.095516" lon="9.266070">
<ele>32.632578</ele>
<time>2026-07-15T13:34:38.000Z</time>
</trkpt>
<trkpt lat="57.095574" lon="9.266097">
<ele>32.536674</ele>
<time>2026-07-15T13:34:39.000Z</time>
</trkpt>
<trkpt lat="57.095618" lon="9.266110">
<ele>32.465236</ele>
<time>2026-07-15T13:34:40.000Z</time>
</trkpt>
<trkpt lat="57.095673" lon="9.266131">
<ele>32.375191</ele>
<time>2026-07-15T13:34:41.000Z</time>
</trkpt>
<trkpt lat="57.095722" lon="9.266155">
<ele>32.293908</ele>
<time>2026-07-15T13:34:42.000Z</time>
</trkpt>
<trkpt lat="57.095776" lon="9.266180">
<ele>32.204647</ele>
<time>2026-07-15T13:34:43.000Z</time>
</trkpt>
<trkpt lat="57.095829" lon="9.266209">
<ele>32.116011</ele>
<time>2026-07-15T13:34:44.000Z</time>
</trkpt>
<trkpt lat="57.095880" lon="9.266237">
<ele>32.030696</ele>
<time>2026-07-15T13:34:45.000Z</time>
</trkpt>
<trkpt lat="57.095932" lon="9.266269">
<ele>31.942802</ele>
<time>2026-07-15T13:34:46.000Z</time>
</trkpt>
<trkpt lat="57.095997" lon="9.266305">
<ele>31.833989</ele>
<time>2026-07-15T13:34:47.000Z</time>
</trkpt>
<trkpt lat="57.096062" lon="9.266345">
<ele>31.724121</ele>
<time>2026-07-15T13:34:48.000Z</time>
</trkpt>
<trkpt lat="57.096123" lon="9.266380">
<ele>31.621695</ele>
<time>2026-07-15T13:34:49.000Z</time>
</trkpt>
<trkpt lat="57.096161" lon="9.266408">
<ele>31.556079</ele>
<time>2026-07-15T13:34:50.000Z</time>
</trkpt>
<trkpt lat="57.096234" lon="9.266448">
<ele>31.433982</ele>
<time>2026-07-15T13:34:51.000Z</time>
</trkpt>
<trkpt lat="57.096287" lon="9.266477">
<ele>31.348844</ele>
<time>2026-07-15T13:34:52.000Z</time>
</trkpt>
<trkpt lat="57.096348" lon="9.266490">
<ele>31.291080</ele>
<time>2026-07-15T13:34:53.000Z</time>
</trkpt>
<trkpt lat="57.096401" lon="9.266500">
<ele>31.240964</ele>
<time>2026-07-15T13:34:54.000Z</time>
</trkpt>
<trkpt lat="57.096450" lon="9.266515">
<ele>31.194239</ele>
<time>2026-07-15T13:34:55.000Z</time>
</trkpt>
<trkpt lat="57.096503" lon="9.266530">
<ele>31.143799</ele>
<time>2026-07-15T13:34:56.000Z</time>
</trkpt>
<trkpt lat="57.096561" lon="9.266543">
<ele>31.088838</ele>
<time>2026-07-15T13:34:57.000Z</time>
</trkpt>
<trkpt lat="57.096615" lon="9.266560">
<ele>31.037305</ele>
<time>2026-07-15T13:34:58.000Z</time>
</trkpt>
<trkpt lat="57.096676" lon="9.266585">
<ele>30.978521</ele>
<time>2026-07-15T13:34:59.000Z</time>
</trkpt>
<trkpt lat="57.096739" lon="9.266612">
<ele>30.917675</ele>
<time>2026-07-15T13:35:00.000Z</time>
</trkpt>
<trkpt lat="57.096821" lon="9.266630">
<ele>30.839994</ele>
<time>2026-07-15T13:35:01.000Z</time>
</trkpt>
<trkpt lat="57.096890" lon="9.266645">
<ele>30.774638</ele>
<time>2026-07-15T13:35:02.000Z</time>
</trkpt>
<trkpt lat="57.096962" lon="9.266664">
<ele>30.706219</ele>
<time>2026-07-15T13:35:03.000Z</time>
</trkpt>
<trkpt lat="57.097031" lon="9.266680">
<ele>30.640801</ele>
<time>2026-07-15T13:35:04.000Z</time>
</trkpt>
<trkpt lat="57.097094" lon="9.266697">
<ele>30.580906</ele>
<time>2026-07-15T13:35:05.000Z</time>
</trkpt>
<trkpt lat="57.097161" lon="9.266718">
<ele>30.516975</ele>
<time>2026-07-15T13:35:06.000Z</time>
</trkpt>
<trkpt lat="57.097224" lon="9.266741">
<ele>30.456560</ele>
<time>2026-07-15T13:35:07.000Z</time>
</trkpt>
<trkpt lat="57.097286" lon="9.266760">
<ele>30.397437</ele>
<time>2026-07-15T13:35:08.000Z</time>
</trkpt>
<trkpt lat="57.097347" lon="9.266778">
<ele>30.339325</ele>
<time>2026-07-15T13:35:09.000Z</time>
</trkpt>
<trkpt lat="57.097407" lon="9.266797">
<ele>30.282056</ele>
<time>2026-07-15T13:35:10.000Z</time>
</trkpt>
<trkpt lat="57.097461" lon="9.266815">
<ele>30.230435</ele>
<time>2026-07-15T13:35:11.000Z</time>
</trkpt>
<trkpt lat="57.097511" lon="9.266828">
<ele>30.182935</ele>
<time>2026-07-15T13:35:12.000Z</time>
</trkpt>
<trkpt lat="57.097564" lon="9.266845">
<ele>30.132330</ele>
<time>2026-07-15T13:35:13.000Z</time>
</trkpt>
<trkpt lat="57.097618" lon="9.266862">
<ele>30.080797</ele>
<time>2026-07-15T13:35:14.000Z</time>
</trkpt>
<trkpt lat="57.097669" lon="9.266877">
<ele>30.032215</ele>
<time>2026-07-15T13:35:15.000Z</time>
</trkpt>
<trkpt lat="57.097729" lon="9.266890">
<ele>29.975386</ele>
<time>2026-07-15T13:35:16.000Z</time>
</trkpt>
<trkpt lat="57.097778" lon="9.266902">
<ele>29.928888</ele>
<time>2026-07-15T13:35:17.000Z</time>
</trkpt>
<trkpt lat="57.097832" lon="9.266916">
<ele>29.877592</ele>
<time>2026-07-15T13:35:18.000Z</time>
</trkpt>
<trkpt lat="57.097884" lon="9.266931">
<ele>29.828081</ele>
<time>2026-07-15T13:35:19.000Z</time>
</trkpt>
<trkpt lat="57.097938" lon="9.266950">
<ele>29.776366</ele>
<time>2026-07-15T13:35:20.000Z</time>
</trkpt>
<trkpt lat="57.097987" lon="9.266966">
<ele>29.729554</ele>
<time>2026-07-15T13:35:21.000Z</time>
</trkpt>
<trkpt lat="57.098045" lon="9.266987">
<ele>29.673951</ele>
<time>2026-07-15T13:35:22.000Z</time>
</trkpt>
<trkpt lat="57.098106" lon="9.267009">
<ele>29.608448</ele>
<time>2026-07-15T13:35:23.000Z</time>
</trkpt>
<trkpt lat="57.098164" lon="9.267030">
<ele>29.544423</ele>
<time>2026-07-15T13:35:24.000Z</time>
</trkpt>
<trkpt lat="57.098219" lon="9.267053">
<ele>29.483334</ele>
<time>2026-07-15T13:35:25.000Z</time>
</trkpt>
<trkpt lat="57.098281" lon="9.267076">
<ele>29.414830</ele>
<time>2026-07-15T13:35:26.000Z</time>
</trkpt>
<trkpt lat="57.098339" lon="9.267103">
<ele>29.350031</ele>
<time>2026-07-15T13:35:27.000Z</time>
</trkpt>
<trkpt lat="57.098400" lon="9.267130">
<ele>29.282077</ele>
<time>2026-07-15T13:35:28.000Z</time>
</trkpt>
<trkpt lat="57.098461" lon="9.267152">
<ele>29.214751</ele>
<time>2026-07-15T13:35:29.000Z</time>
</trkpt>
<trkpt lat="57.098518" lon="9.267172">
<ele>29.151901</ele>
<time>2026-07-15T13:35:30.000Z</time>
</trkpt>
<trkpt lat="57.098579" lon="9.267190">
<ele>29.084987</ele>
<time>2026-07-15T13:35:31.000Z</time>
</trkpt>
<trkpt lat="57.098637" lon="9.267208">
<ele>29.021279</ele>
<time>2026-07-15T13:35:32.000Z</time>
</trkpt>
<trkpt lat="57.098690" lon="9.267226">
<ele>28.962904</ele>
<time>2026-07-15T13:35:33.000Z</time>
</trkpt>
<trkpt lat="57.098747" lon="9.267250">
<ele>28.899572</ele>
<time>2026-07-15T13:35:34.000Z</time>
</trkpt>
<trkpt lat="57.098802" lon="9.267269">
<ele>28.838960</ele>
<time>2026-07-15T13:35:35.000Z</time>
</trkpt>
<trkpt lat="57.098861" lon="9.267290">
<ele>28.773872</ele>
<time>2026-07-15T13:35:36.000Z</time>
</trkpt>
<trkpt lat="57.098919" lon="9.267308">
<ele>28.710164</ele>
<time>2026-07-15T13:35:37.000Z</time>
</trkpt>
<trkpt lat="57.098976" lon="9.267326">
<ele>28.647524</ele>
<time>2026-07-15T13:35:38.000Z</time>
</trkpt>
<trkpt lat="57.099033" lon="9.267342">
<ele>28.585072</ele>
<time>2026-07-15T13:35:39.000Z</time>
</trkpt>
<trkpt lat="57.099086" lon="9.267359">
<ele>28.526802</ele>
<time>2026-07-15T13:35:40.000Z</time>
</trkpt>
<trkpt lat="57.099140" lon="9.267373">
<ele>28.467736</ele>
<time>2026-07-15T13:35:41.000Z</time>
</trkpt>
<trkpt lat="57.099193" lon="9.267390">
<ele>28.409465</ele>
<time>2026-07-15T13:35:42.000Z</time>
</trkpt>
<trkpt lat="57.099243" lon="9.267405">
<ele>28.354594</ele>
<time>2026-07-15T13:35:43.000Z</time>
</trkpt>
<trkpt lat="57.099296" lon="9.267424">
<ele>28.296110</ele>
<time>2026-07-15T13:35:44.000Z</time>
</trkpt>
<trkpt lat="57.099349" lon="9.267442">
<ele>28.237736</ele>
<time>2026-07-15T13:35:45.000Z</time>
</trkpt>
<trkpt lat="57.099403" lon="9.267464">
<ele>28.177832</ele>
<time>2026-07-15T13:35:46.000Z</time>
</trkpt>
<trkpt lat="57.099456" lon="9.267480">
<ele>28.119659</ele>
<time>2026-07-15T13:35:47.000Z</time>
</trkpt>
<trkpt lat="57.099514" lon="9.267500">
<ele>28.055745</ele>
<time>2026-07-15T13:35:48.000Z</time>
</trkpt>
<trkpt lat="57.099562" lon="9.267513">
<ele>28.003196</ele>
<time>2026-07-15T13:35:49.000Z</time>
</trkpt>
<trkpt lat="57.099613" lon="9.267527">
<ele>27.947345</ele>
<time>2026-07-15T13:35:50.000Z</time>
</trkpt>
<trkpt lat="57.099665" lon="9.267543">
<ele>27.890241</ele>
<time>2026-07-15T13:35:51.000Z</time>
</trkpt>
<trkpt lat="57.099720" lon="9.267560">
<ele>27.829836</ele>
<time>2026-07-15T13:35:52.000Z</time>
</trkpt>
<trkpt lat="57.099773" lon="9.267582">
<ele>27.770989</ele>
<time>2026-07-15T13:35:53.000Z</time>
</trkpt>
<trkpt lat="57.099831" lon="9.267602">
<ele>27.704519</ele>
<time>2026-07-15T13:35:54.000Z</time>
</trkpt>
<trkpt lat="57.099882" lon="9.267619">
<ele>27.626878</ele>
<time>2026-07-15T13:35:55.000Z</time>
</trkpt>
<trkpt lat="57.099933" lon="9.267636">
<ele>27.549238</ele>
<time>2026-07-15T13:35:56.000Z</time>
</trkpt>
<trkpt lat="57.099983" lon="9.267655">
<ele>27.472759</ele>
<time>2026-07-15T13:35:57.000Z</time>
</trkpt>
<trkpt lat="57.100032" lon="9.267669">
<ele>27.398477</ele>
<time>2026-07-15T13:35:58.000Z</time>
</trkpt>
<trkpt lat="57.100079" lon="9.267680">
<ele>27.327504</ele>
<time>2026-07-15T13:35:59.000Z</time>
</trkpt>
<trkpt lat="57.100124" lon="9.267685">
<ele>27.259971</ele>
<time>2026-07-15T13:36:00.000Z</time>
</trkpt>
<trkpt lat="57.100171" lon="9.267689">
<ele>27.189490</ele>
<time>2026-07-15T13:36:01.000Z</time>
</trkpt>
<trkpt lat="57.100216" lon="9.267689">
<ele>27.122079</ele>
<time>2026-07-15T13:36:02.000Z</time>
</trkpt>
<trkpt lat="57.100261" lon="9.267682">
<ele>27.054429</ele>
<time>2026-07-15T13:36:03.000Z</time>
</trkpt>
<trkpt lat="57.100311" lon="9.267674">
<ele>26.979246</ele>
<time>2026-07-15T13:36:04.000Z</time>
</trkpt>
<trkpt lat="57.100357" lon="9.267669">
<ele>26.910218</ele>
<time>2026-07-15T13:36:05.000Z</time>
</trkpt>
<trkpt lat="57.100409" lon="9.267663">
<ele>26.832169</ele>
<time>2026-07-15T13:36:06.000Z</time>
</trkpt>
<trkpt lat="57.100460" lon="9.267653">
<ele>26.755338</ele>
<time>2026-07-15T13:36:07.000Z</time>
</trkpt>
<trkpt lat="57.100502" lon="9.267635">
<ele>26.690740</ele>
<time>2026-07-15T13:36:08.000Z</time>
</trkpt>
<trkpt lat="57.100548" lon="9.267623">
<ele>26.621143</ele>
<time>2026-07-15T13:36:09.000Z</time>
</trkpt>
<trkpt lat="57.100596" lon="9.267605">
<ele>26.547762</ele>
<time>2026-07-15T13:36:10.000Z</time>
</trkpt>
<trkpt lat="57.100658" lon="9.267582">
<ele>26.453019</ele>
<time>2026-07-15T13:36:11.000Z</time>
</trkpt>
<trkpt lat="57.100720" lon="9.267546">
<ele>26.355633</ele>
<time>2026-07-15T13:36:12.000Z</time>
</trkpt>
<trkpt lat="57.100792" lon="9.267510">
<ele>26.243869</ele>
<time>2026-07-15T13:36:13.000Z</time>
</trkpt>
<trkpt lat="57.100851" lon="9.267478">
<ele>26.151731</ele>
<time>2026-07-15T13:36:14.000Z</time>
</trkpt>
<trkpt lat="57.100910" lon="9.267447">
<ele>26.059820</ele>
<time>2026-07-15T13:36:15.000Z</time>
</trkpt>
<trkpt lat="57.100979" lon="9.267424">
<ele>25.954777</ele>
<time>2026-07-15T13:36:16.000Z</time>
</trkpt>
<trkpt lat="57.101044" lon="9.267402">
<ele>25.855775</ele>
<time>2026-07-15T13:36:17.000Z</time>
</trkpt>
<trkpt lat="57.101105" lon="9.267380">
<ele>25.762660</ele>
<time>2026-07-15T13:36:18.000Z</time>
</trkpt>
<trkpt lat="57.101162" lon="9.267355">
<ele>25.674884</ele>
<time>2026-07-15T13:36:19.000Z</time>
</trkpt>
<trkpt lat="57.101215" lon="9.267328">
<ele>25.592506</ele>
<time>2026-07-15T13:36:20.000Z</time>
</trkpt>
<trkpt lat="57.101269" lon="9.267302">
<ele>25.508893</ele>
<time>2026-07-15T13:36:21.000Z</time>
</trkpt>
<trkpt lat="57.101318" lon="9.267272">
<ele>25.431538</ele>
<time>2026-07-15T13:36:22.000Z</time>
</trkpt>
<trkpt lat="57.101372" lon="9.267245">
<ele>25.347716</ele>
<time>2026-07-15T13:36:23.000Z</time>
</trkpt>
<trkpt lat="57.101418" lon="9.267221">
<ele>25.276094</ele>
<time>2026-07-15T13:36:24.000Z</time>
</trkpt>
<trkpt lat="57.101471" lon="9.267202">
<ele>25.195209</ele>
<time>2026-07-15T13:36:25.000Z</time>
</trkpt>
<trkpt lat="57.101528" lon="9.267185">
<ele>25.108709</ele>
<time>2026-07-15T13:36:26.000Z</time>
</trkpt>
<trkpt lat="57.101574" lon="9.267170">
<ele>25.038728</ele>
<time>2026-07-15T13:36:27.000Z</time>
</trkpt>
<trkpt lat="57.101616" lon="9.267152">
<ele>25.020385</ele>
<time>2026-07-15T13:36:28.000Z</time>
</trkpt>
<trkpt lat="57.101662" lon="9.267134">
<ele>25.021971</ele>
<time>2026-07-15T13:36:29.000Z</time>
</trkpt>
<trkpt lat="57.101703" lon="9.267110">
<ele>25.023423</ele>
<time>2026-07-15T13:36:30.000Z</time>
</trkpt>
<trkpt lat="57.101753" lon="9.267085">
<ele>25.025171</ele>
<time>2026-07-15T13:36:31.000Z</time>
</trkpt>
<trkpt lat="57.101803" lon="9.267065">
<ele>25.026898</ele>
<time>2026-07-15T13:36:32.000Z</time>
</trkpt>
<trkpt lat="57.101856" lon="9.267047">
<ele>25.028716</ele>
<time>2026-07-15T13:36:33.000Z</time>
</trkpt>
<trkpt lat="57.101913" lon="9.267043">
<ele>25.030641</ele>
<time>2026-07-15T13:36:34.000Z</time>
</trkpt>
<trkpt lat="57.101966" lon="9.267030">
<ele>25.032445</ele>
<time>2026-07-15T13:36:35.000Z</time>
</trkpt>
<trkpt lat="57.102028" lon="9.267016">
<ele>25.034553</ele>
<time>2026-07-15T13:36:36.000Z</time>
</trkpt>
<trkpt lat="57.102085" lon="9.267000">
<ele>25.036498</ele>
<time>2026-07-15T13:36:37.000Z</time>
</trkpt>
<trkpt lat="57.102145" lon="9.266981">
<ele>25.038552</ele>
<time>2026-07-15T13:36:38.000Z</time>
</trkpt>
<trkpt lat="57.102199" lon="9.266958">
<ele>25.040422</ele>
<time>2026-07-15T13:36:39.000Z</time>
</trkpt>
<trkpt lat="57.102250" lon="9.266941">
<ele>25.042171</ele>
<time>2026-07-15T13:36:40.000Z</time>
</trkpt>
<trkpt lat="57.102305" lon="9.266923">
<ele>25.044056</ele>
<time>2026-07-15T13:36:41.000Z</time>
</trkpt>
<trkpt lat="57.102364" lon="9.266903">
<ele>25.046080</ele>
<time>2026-07-15T13:36:42.000Z</time>
</trkpt>
<trkpt lat="57.102424" lon="9.266887">
<ele>25.048126</ele>
<time>2026-07-15T13:36:43.000Z</time>
</trkpt>
<trkpt lat="57.102482" lon="9.266869">
<ele>25.050111</ele>
<time>2026-07-15T13:36:44.000Z</time>
</trkpt>
<trkpt lat="57.102535" lon="9.266851">
<ele>25.051929</ele>
<time>2026-07-15T13:36:45.000Z</time>
</trkpt>
<trkpt lat="57.102593" lon="9.266835">
<ele>25.053908</ele>
<time>2026-07-15T13:36:46.000Z</time>
</trkpt>
<trkpt lat="57.102642" lon="9.266824">
<ele>25.055574</ele>
<time>2026-07-15T13:36:47.000Z</time>
</trkpt>
<trkpt lat="57.102695" lon="9.266807">
<ele>25.057389</ele>
<time>2026-07-15T13:36:48.000Z</time>
</trkpt>
<trkpt lat="57.102745" lon="9.266791">
<ele>25.059101</ele>
<time>2026-07-15T13:36:49.000Z</time>
</trkpt>
<trkpt lat="57.102797" lon="9.266778">
<ele>25.060872</ele>
<time>2026-07-15T13:36:50.000Z</time>
</trkpt>
<trkpt lat="57.102844" lon="9.266765">
<ele>25.062476</ele>
<time>2026-07-15T13:36:51.000Z</time>
</trkpt>
<trkpt lat="57.102900" lon="9.266745">
<ele>25.064400</ele>
<time>2026-07-15T13:36:52.000Z</time>
</trkpt>
<trkpt lat="57.102953" lon="9.266727">
<ele>25.066219</ele>
<time>2026-07-15T13:36:53.000Z</time>
</trkpt>
<trkpt lat="57.103000" lon="9.266715">
<ele>25.067820</ele>
<time>2026-07-15T13:36:54.000Z</time>
</trkpt>
<trkpt lat="57.103041" lon="9.266705">
<ele>25.069215</ele>
<time>2026-07-15T13:36:55.000Z</time>
</trkpt>
<trkpt lat="57.103088" lon="9.266693">
<ele>25.070816</ele>
<time>2026-07-15T13:36:56.000Z</time>
</trkpt>
<trkpt lat="57.103131" lon="9.266680">
<ele>25.072287</ele>
<time>2026-07-15T13:36:57.000Z</time>
</trkpt>
<trkpt lat="57.103169" lon="9.266670">
<ele>25.073582</ele>
<time>2026-07-15T13:36:58.000Z</time>
</trkpt>
<trkpt lat="57.103214" lon="9.266660">
<ele>25.075111</ele>
<time>2026-07-15T13:36:59.000Z</time>
</trkpt>
<trkpt lat="57.103254" lon="9.266651">
<ele>25.076471</ele>
<time>2026-07-15T13:37:00.000Z</time>
</trkpt>
<trkpt lat="57.103298" lon="9.266639">
<ele>25.077972</ele>
<time>2026-07-15T13:37:01.000Z</time>
</trkpt>
<trkpt lat="57.103337" lon="9.266633">
<ele>25.079292</ele>
<time>2026-07-15T13:37:02.000Z</time>
</trkpt>
<trkpt lat="57.103373" lon="9.266628">
<ele>25.088721</ele>
<time>2026-07-15T13:37:03.000Z</time>
</trkpt>
<trkpt lat="57.103414" lon="9.266626">
<ele>25.115049</ele>
<time>2026-07-15T13:37:04.000Z</time>
</trkpt>
<trkpt lat="57.103454" lon="9.266620">
<ele>25.140810</ele>
<time>2026-07-15T13:37:05.000Z</time>
</trkpt>
<trkpt lat="57.103496" lon="9.266613">
<ele>25.167881</ele>
<time>2026-07-15T13:37:06.000Z</time>
</trkpt>
<trkpt lat="57.103534" lon="9.266610">
<ele>25.192296</ele>
<time>2026-07-15T13:37:07.000Z</time>
</trkpt>
<trkpt lat="57.103576" lon="9.266608">
<ele>25.219266</ele>
<time>2026-07-15T13:37:08.000Z</time>
</trkpt>
<trkpt lat="57.103618" lon="9.266610">
<ele>25.246235</ele>
<time>2026-07-15T13:37:09.000Z</time>
</trkpt>
<trkpt lat="57.103655" lon="9.266608">
<ele>25.269997</ele>
<time>2026-07-15T13:37:10.000Z</time>
</trkpt>
<trkpt lat="57.103699" lon="9.266606">
<ele>25.298249</ele>
<time>2026-07-15T13:37:11.000Z</time>
</trkpt>
<trkpt lat="57.103739" lon="9.266595">
<ele>25.324211</ele>
<time>2026-07-15T13:37:12.000Z</time>
</trkpt>
<trkpt lat="57.103779" lon="9.266592">
<ele>25.349909</ele>
<time>2026-07-15T13:37:13.000Z</time>
</trkpt>
<trkpt lat="57.103817" lon="9.266593">
<ele>25.374304</ele>
<time>2026-07-15T13:37:14.000Z</time>
</trkpt>
<trkpt lat="57.103851" lon="9.266593">
<ele>25.396129</ele>
<time>2026-07-15T13:37:15.000Z</time>
</trkpt>
<trkpt lat="57.103889" lon="9.266597">
<ele>25.420562</ele>
<time>2026-07-15T13:37:16.000Z</time>
</trkpt>
<trkpt lat="57.103927" lon="9.266600">
<ele>25.444977</ele>
<time>2026-07-15T13:37:17.000Z</time>
</trkpt>
<trkpt lat="57.103969" lon="9.266605">
<ele>25.471994</ele>
<time>2026-07-15T13:37:18.000Z</time>
</trkpt>
<trkpt lat="57.104006" lon="9.266605">
<ele>25.495745</ele>
<time>2026-07-15T13:37:19.000Z</time>
</trkpt>
<trkpt lat="57.104053" lon="9.266613">
<ele>25.526044</ele>
<time>2026-07-15T13:37:20.000Z</time>
</trkpt>
<trkpt lat="57.104099" lon="9.266620">
<ele>25.555673</ele>
<time>2026-07-15T13:37:21.000Z</time>
</trkpt>
<trkpt lat="57.104138" lon="9.266624">
<ele>25.580746</ele>
<time>2026-07-15T13:37:22.000Z</time>
</trkpt>
<trkpt lat="57.104179" lon="9.266632">
<ele>25.607212</ele>
<time>2026-07-15T13:37:23.000Z</time>
</trkpt>
<trkpt lat="57.104221" lon="9.266643">
<ele>25.634444</ele>
<time>2026-07-15T13:37:24.000Z</time>
</trkpt>
<trkpt lat="57.104266" lon="9.266657">
<ele>25.663740</ele>
<time>2026-07-15T13:37:25.000Z</time>
</trkpt>
<trkpt lat="57.104316" lon="9.266665">
<ele>25.695957</ele>
<time>2026-07-15T13:37:26.000Z</time>
</trkpt>
<trkpt lat="57.104369" lon="9.266672">
<ele>25.730066</ele>
<time>2026-07-15T13:37:27.000Z</time>
</trkpt>
<trkpt lat="57.104419" lon="9.266679">
<ele>25.762254</ele>
<time>2026-07-15T13:37:28.000Z</time>
</trkpt>
<trkpt lat="57.104461" lon="9.266682">
<ele>25.789235</ele>
<time>2026-07-15T13:37:29.000Z</time>
</trkpt>
<trkpt lat="57.104515" lon="9.266691">
<ele>25.824040</ele>
<time>2026-07-15T13:37:30.000Z</time>
</trkpt>
<trkpt lat="57.104568" lon="9.266700">
<ele>25.858206</ele>
<time>2026-07-15T13:37:31.000Z</time>
</trkpt>
<trkpt lat="57.104610" lon="9.266704">
<ele>25.885203</ele>
<time>2026-07-15T13:37:32.000Z</time>
</trkpt>
<trkpt lat="57.104651" lon="9.266711">
<ele>25.911634</ele>
<time>2026-07-15T13:37:33.000Z</time>
</trkpt>
<trkpt lat="57.104697" lon="9.266720">
<ele>25.941329</ele>
<time>2026-07-15T13:37:34.000Z</time>
</trkpt>
<trkpt lat="57.104739" lon="9.266728">
<ele>25.968433</ele>
<time>2026-07-15T13:37:35.000Z</time>
</trkpt>
<trkpt lat="57.104782" lon="9.266735">
<ele>25.996143</ele>
<time>2026-07-15T13:37:36.000Z</time>
</trkpt>
<trkpt lat="57.104820" lon="9.266742">
<ele>26.020658</ele>
<time>2026-07-15T13:37:37.000Z</time>
</trkpt>
<trkpt lat="57.104862" lon="9.266750">
<ele>26.047762</ele>
<time>2026-07-15T13:37:38.000Z</time>
</trkpt>
<trkpt lat="57.104904" lon="9.266758">
<ele>26.074867</ele>
<time>2026-07-15T13:37:39.000Z</time>
</trkpt>
<trkpt lat="57.104948" lon="9.266764">
<ele>26.103188</ele>
<time>2026-07-15T13:37:40.000Z</time>
</trkpt>
<trkpt lat="57.104988" lon="9.266771">
<ele>26.128981</ele>
<time>2026-07-15T13:37:41.000Z</time>
</trkpt>
<trkpt lat="57.105026" lon="9.266778">
<ele>26.153495</ele>
<time>2026-07-15T13:37:42.000Z</time>
</trkpt>
<trkpt lat="57.105065" lon="9.266785">
<ele>26.178649</ele>
<time>2026-07-15T13:37:43.000Z</time>
</trkpt>
<trkpt lat="57.105110" lon="9.266795">
<ele>26.207745</ele>
<time>2026-07-15T13:37:44.000Z</time>
</trkpt>
<trkpt lat="57.105152" lon="9.266804">
<ele>26.235072</ele>
<time>2026-07-15T13:37:45.000Z</time>
</trkpt>
<trkpt lat="57.105198" lon="9.266813">
<ele>26.286526</ele>
<time>2026-07-15T13:37:46.000Z</time>
</trkpt>
<trkpt lat="57.105246" lon="9.266830">
<ele>26.340895</ele>
<time>2026-07-15T13:37:47.000Z</time>
</trkpt>
<trkpt lat="57.105301" lon="9.266840">
<ele>26.402368</ele>
<time>2026-07-15T13:37:48.000Z</time>
</trkpt>
<trkpt lat="57.105345" lon="9.266848">
<ele>26.451547</ele>
<time>2026-07-15T13:37:49.000Z</time>
</trkpt>
<trkpt lat="57.105388" lon="9.266856">
<ele>26.499620</ele>
<time>2026-07-15T13:37:50.000Z</time>
</trkpt>
<trkpt lat="57.105434" lon="9.266867">
<ele>26.551215</ele>
<time>2026-07-15T13:37:51.000Z</time>
</trkpt>
<trkpt lat="57.105480" lon="9.266873">
<ele>26.602509</ele>
<time>2026-07-15T13:37:52.000Z</time>
</trkpt>
<trkpt lat="57.105530" lon="9.266885">
<ele>26.658594</ele>
<time>2026-07-15T13:37:53.000Z</time>
</trkpt>
<trkpt lat="57.105571" lon="9.266889">
<ele>26.704262</ele>
<time>2026-07-15T13:37:54.000Z</time>
</trkpt>
<trkpt lat="57.105616" lon="9.266896">
<ele>26.754494</ele>
<time>2026-07-15T13:37:55.000Z</time>
</trkpt>
<trkpt lat="57.105663" lon="9.266907">
<ele>26.807192</ele>
<time>2026-07-15T13:37:56.000Z</time>
</trkpt>
<trkpt lat="57.105716" lon="9.266920">
<ele>26.866665</ele>
<time>2026-07-15T13:37:57.000Z</time>
</trkpt>
<trkpt lat="57.105753" lon="9.266928">
<ele>26.908103</ele>
<time>2026-07-15T13:37:58.000Z</time>
</trkpt>
<trkpt lat="57.105800" lon="9.266935">
<ele>26.960551</ele>
<time>2026-07-15T13:37:59.000Z</time>
</trkpt>
<trkpt lat="57.105844" lon="9.266938">
<ele>27.009526</ele>
<time>2026-07-15T13:38:00.000Z</time>
</trkpt>
<trkpt lat="57.105887" lon="9.266943">
<ele>27.057450</ele>
<time>2026-07-15T13:38:01.000Z</time>
</trkpt>
<trkpt lat="57.105934" lon="9.266950">
<ele>27.109898</ele>
<time>2026-07-15T13:38:02.000Z</time>
</trkpt>
<trkpt lat="57.105971" lon="9.266955">
<ele>27.151164</ele>
<time>2026-07-15T13:38:03.000Z</time>
</trkpt>
<trkpt lat="57.106014" lon="9.266958">
<ele>27.199027</ele>
<time>2026-07-15T13:38:04.000Z</time>
</trkpt>
<trkpt lat="57.106060" lon="9.266969">
<ele>27.250622</ele>
<time>2026-07-15T13:38:05.000Z</time>
</trkpt>
<trkpt lat="57.106110" lon="9.266976">
<ele>27.306398</ele>
<time>2026-07-15T13:38:06.000Z</time>
</trkpt>
<trkpt lat="57.106159" lon="9.266980">
<ele>27.360954</ele>
<time>2026-07-15T13:38:07.000Z</time>
</trkpt>
<trkpt lat="57.106205" lon="9.266983">
<ele>27.412152</ele>
<time>2026-07-15T13:38:08.000Z</time>
</trkpt>
<trkpt lat="57.106254" lon="9.266989">
<ele>27.466774</ele>
<time>2026-07-15T13:38:09.000Z</time>
</trkpt>
<trkpt lat="57.106308" lon="9.267000">
<ele>27.527205</ele>
<time>2026-07-15T13:38:10.000Z</time>
</trkpt>
<trkpt lat="57.106357" lon="9.267009">
<ele>27.581978</ele>
<time>2026-07-15T13:38:11.000Z</time>
</trkpt>
<trkpt lat="57.106403" lon="9.267012">
<ele>27.633176</ele>
<time>2026-07-15T13:38:12.000Z</time>
</trkpt>
<trkpt lat="57.106445" lon="9.267016">
<ele>27.679954</ele>
<time>2026-07-15T13:38:13.000Z</time>
</trkpt>
<trkpt lat="57.106494" lon="9.267025">
<ele>27.734727</ele>
<time>2026-07-15T13:38:14.000Z</time>
</trkpt>
<trkpt lat="57.106539" lon="9.267031">
<ele>27.784912</ele>
<time>2026-07-15T13:38:15.000Z</time>
</trkpt>
<trkpt lat="57.106582" lon="9.267034">
<ele>27.832775</ele>
<time>2026-07-15T13:38:16.000Z</time>
</trkpt>
<trkpt lat="57.106628" lon="9.267038">
<ele>27.883997</ele>
<time>2026-07-15T13:38:17.000Z</time>
</trkpt>
<trkpt lat="57.106666" lon="9.267045">
<ele>27.926476</ele>
<time>2026-07-15T13:38:18.000Z</time>
</trkpt>
<trkpt lat="57.106708" lon="9.267054">
<ele>27.973507</ele>
<time>2026-07-15T13:38:19.000Z</time>
</trkpt>
<trkpt lat="57.106739" lon="9.267059">
<ele>28.008121</ele>
<time>2026-07-15T13:38:20.000Z</time>
</trkpt>
<trkpt lat="57.106789" lon="9.267067">
<ele>28.063945</ele>
<time>2026-07-15T13:38:21.000Z</time>
</trkpt>
<trkpt lat="57.106829" lon="9.267074">
<ele>28.108637</ele>
<time>2026-07-15T13:38:22.000Z</time>
</trkpt>
<trkpt lat="57.106869" lon="9.267083">
<ele>28.153460</ele>
<time>2026-07-15T13:38:23.000Z</time>
</trkpt>
<trkpt lat="57.106906" lon="9.267090">
<ele>28.194832</ele>
<time>2026-07-15T13:38:24.000Z</time>
</trkpt>
<trkpt lat="57.106946" lon="9.267096">
<ele>28.234221</ele>
<time>2026-07-15T13:38:25.000Z</time>
</trkpt>
<trkpt lat="57.106986" lon="9.267097">
<ele>28.223260</ele>
<time>2026-07-15T13:38:26.000Z</time>
</trkpt>
<trkpt lat="57.107022" lon="9.267097">
<ele>28.213396</ele>
<time>2026-07-15T13:38:27.000Z</time>
</trkpt>
<trkpt lat="57.107059" lon="9.267098">
<ele>28.203258</ele>
<time>2026-07-15T13:38:28.000Z</time>
</trkpt>
<trkpt lat="57.107094" lon="9.267100">
<ele>28.193663</ele>
<time>2026-07-15T13:38:29.000Z</time>
</trkpt>
<trkpt lat="57.107132" lon="9.267108">
<ele>28.183184</ele>
<time>2026-07-15T13:38:30.000Z</time>
</trkpt>
<trkpt lat="57.107170" lon="9.267117">
<ele>28.172686</ele>
<time>2026-07-15T13:38:31.000Z</time>
</trkpt>
<trkpt lat="57.107212" lon="9.267121">
<ele>28.161163</ele>
<time>2026-07-15T13:38:32.000Z</time>
</trkpt>
<trkpt lat="57.107254" lon="9.267125">
<ele>28.149640</ele>
<time>2026-07-15T13:38:33.000Z</time>
</trkpt>
<trkpt lat="57.107296" lon="9.267135">
<ele>28.138037</ele>
<time>2026-07-15T13:38:34.000Z</time>
</trkpt>
<trkpt lat="57.107338" lon="9.267145">
<ele>28.126433</ele>
<time>2026-07-15T13:38:35.000Z</time>
</trkpt>
<trkpt lat="57.107382" lon="9.267154">
<ele>28.114303</ele>
<time>2026-07-15T13:38:36.000Z</time>
</trkpt>
<trkpt lat="57.107433" lon="9.267165">
<ele>28.100234</ele>
<time>2026-07-15T13:38:37.000Z</time>
</trkpt>
<trkpt lat="57.107483" lon="9.267177">
<ele>28.086419</ele>
<time>2026-07-15T13:38:38.000Z</time>
</trkpt>
<trkpt lat="57.107533" lon="9.267190">
<ele>28.072583</ele>
<time>2026-07-15T13:38:39.000Z</time>
</trkpt>
<trkpt lat="57.107578" lon="9.267199">
<ele>28.060181</ele>
<time>2026-07-15T13:38:40.000Z</time>
</trkpt>
<trkpt lat="57.107627" lon="9.267213">
<ele>28.046594</ele>
<time>2026-07-15T13:38:41.000Z</time>
</trkpt>
<trkpt lat="57.107677" lon="9.267228">
<ele>28.032714</ele>
<time>2026-07-15T13:38:42.000Z</time>
</trkpt>
<trkpt lat="57.107722" lon="9.267238">
<ele>28.020295</ele>
<time>2026-07-15T13:38:43.000Z</time>
</trkpt>
<trkpt lat="57.107773" lon="9.267246">
<ele>28.006271</ele>
<time>2026-07-15T13:38:44.000Z</time>
</trkpt>
<trkpt lat="57.107814" lon="9.267252">
<ele>27.995002</ele>
<time>2026-07-15T13:38:45.000Z</time>
</trkpt>
<trkpt lat="57.107868" lon="9.267257">
<ele>27.980187</ele>
<time>2026-07-15T13:38:46.000Z</time>
</trkpt>
<trkpt lat="57.107918" lon="9.267265">
<ele>27.966436</ele>
<time>2026-07-15T13:38:47.000Z</time>
</trkpt>
<trkpt lat="57.107965" lon="9.267273">
<ele>27.953504</ele>
<time>2026-07-15T13:38:48.000Z</time>
</trkpt>
<trkpt lat="57.108017" lon="9.267281">
<ele>27.939206</ele>
<time>2026-07-15T13:38:49.000Z</time>
</trkpt>
<trkpt lat="57.108065" lon="9.267285">
<ele>27.926041</ele>
<time>2026-07-15T13:38:50.000Z</time>
</trkpt>
<trkpt lat="57.108115" lon="9.267286">
<ele>27.912341</ele>
<time>2026-07-15T13:38:51.000Z</time>
</trkpt>
<trkpt lat="57.108165" lon="9.267290">
<ele>27.898628</ele>
<time>2026-07-15T13:38:52.000Z</time>
</trkpt>
<trkpt lat="57.108211" lon="9.267290">
<ele>27.886024</ele>
<time>2026-07-15T13:38:53.000Z</time>
</trkpt>
<trkpt lat="57.108256" lon="9.267293">
<ele>27.873687</ele>
<time>2026-07-15T13:38:54.000Z</time>
</trkpt>
<trkpt lat="57.108302" lon="9.267292">
<ele>27.861082</ele>
<time>2026-07-15T13:38:55.000Z</time>
</trkpt>
<trkpt lat="57.108352" lon="9.267288">
<ele>27.847370</ele>
<time>2026-07-15T13:38:56.000Z</time>
</trkpt>
<trkpt lat="57.108398" lon="9.267283">
<ele>27.834744</ele>
<time>2026-07-15T13:38:57.000Z</time>
</trkpt>
<trkpt lat="57.108444" lon="9.267279">
<ele>27.822126</ele>
<time>2026-07-15T13:38:58.000Z</time>
</trkpt>
<trkpt lat="57.108493" lon="9.267268">
<ele>27.808601</ele>
<time>2026-07-15T13:38:59.000Z</time>
</trkpt>
<trkpt lat="57.108541" lon="9.267260">
<ele>27.795396</ele>
<time>2026-07-15T13:39:00.000Z</time>
</trkpt>
<trkpt lat="57.108600" lon="9.267250">
<ele>27.779162</ele>
<time>2026-07-15T13:39:01.000Z</time>
</trkpt>
<trkpt lat="57.108657" lon="9.267242">
<ele>27.763499</ele>
<time>2026-07-15T13:39:02.000Z</time>
</trkpt>
<trkpt lat="57.108714" lon="9.267239">
<ele>27.747875</ele>
<time>2026-07-15T13:39:03.000Z</time>
</trkpt>
<trkpt lat="57.108775" lon="9.267239">
<ele>27.722406</ele>
<time>2026-07-15T13:39:04.000Z</time>
</trkpt>
<trkpt lat="57.108832" lon="9.267232">
<ele>27.694607</ele>
<time>2026-07-15T13:39:05.000Z</time>
</trkpt>
<trkpt lat="57.108891" lon="9.267221">
<ele>27.665749</ele>
<time>2026-07-15T13:39:06.000Z</time>
</trkpt>
<trkpt lat="57.108949" lon="9.267210">
<ele>27.637375</ele>
<time>2026-07-15T13:39:07.000Z</time>
</trkpt>
<trkpt lat="57.109012" lon="9.267195">
<ele>27.606462</ele>
<time>2026-07-15T13:39:08.000Z</time>
</trkpt>
<trkpt lat="57.109069" lon="9.267181">
<ele>27.578478</ele>
<time>2026-07-15T13:39:09.000Z</time>
</trkpt>
<trkpt lat="57.109129" lon="9.267168">
<ele>27.549079</ele>
<time>2026-07-15T13:39:10.000Z</time>
</trkpt>
<trkpt lat="57.109190" lon="9.267157">
<ele>27.519253</ele>
<time>2026-07-15T13:39:11.000Z</time>
</trkpt>
<trkpt lat="57.109248" lon="9.267147">
<ele>27.490904</ele>
<time>2026-07-15T13:39:12.000Z</time>
</trkpt>
<trkpt lat="57.109305" lon="9.267137">
<ele>27.463041</ele>
<time>2026-07-15T13:39:13.000Z</time>
</trkpt>
<trkpt lat="57.109356" lon="9.267128">
<ele>27.438109</ele>
<time>2026-07-15T13:39:14.000Z</time>
</trkpt>
<trkpt lat="57.109420" lon="9.267115">
<ele>27.406776</ele>
<time>2026-07-15T13:39:15.000Z</time>
</trkpt>
<trkpt lat="57.109479" lon="9.267104">
<ele>27.377918</ele>
<time>2026-07-15T13:39:16.000Z</time>
</trkpt>
<trkpt lat="57.109533" lon="9.267092">
<ele>27.351449</ele>
<time>2026-07-15T13:39:17.000Z</time>
</trkpt>
<trkpt lat="57.109590" lon="9.267081">
<ele>27.323559</ele>
<time>2026-07-15T13:39:18.000Z</time>
</trkpt>
<trkpt lat="57.109649" lon="9.267068">
<ele>27.294643</ele>
<time>2026-07-15T13:39:19.000Z</time>
</trkpt>
<trkpt lat="57.109703" lon="9.267057">
<ele>27.268205</ele>
<time>2026-07-15T13:39:20.000Z</time>
</trkpt>
<trkpt lat="57.109759" lon="9.267047">
<ele>27.240826</ele>
<time>2026-07-15T13:39:21.000Z</time>
</trkpt>
<trkpt lat="57.109812" lon="9.267039">
<ele>27.214948</ele>
<time>2026-07-15T13:39:22.000Z</time>
</trkpt>
<trkpt lat="57.109865" lon="9.267030">
<ele>27.189047</ele>
<time>2026-07-15T13:39:23.000Z</time>
</trkpt>
<trkpt lat="57.109919" lon="9.267020">
<ele>27.162637</ele>
<time>2026-07-15T13:39:24.000Z</time>
</trkpt>
<trkpt lat="57.109976" lon="9.267010">
<ele>27.134773</ele>
<time>2026-07-15T13:39:25.000Z</time>
</trkpt>
<trkpt lat="57.110030" lon="9.266999">
<ele>27.108335</ele>
<time>2026-07-15T13:39:26.000Z</time>
</trkpt>
<trkpt lat="57.110083" lon="9.266989">
<ele>27.082408</ele>
<time>2026-07-15T13:39:27.000Z</time>
</trkpt>
<trkpt lat="57.110136" lon="9.266977">
<ele>27.056423</ele>
<time>2026-07-15T13:39:28.000Z</time>
</trkpt>
<trkpt lat="57.110181" lon="9.266966">
<ele>27.034332</ele>
<time>2026-07-15T13:39:29.000Z</time>
</trkpt>
<trkpt lat="57.110240" lon="9.266952">
<ele>27.005384</ele>
<time>2026-07-15T13:39:30.000Z</time>
</trkpt>
<trkpt lat="57.110294" lon="9.266938">
<ele>26.978846</ele>
<time>2026-07-15T13:39:31.000Z</time>
</trkpt>
<trkpt lat="57.110342" lon="9.266927">
<ele>26.955308</ele>
<time>2026-07-15T13:39:32.000Z</time>
</trkpt>
<trkpt lat="57.110396" lon="9.266918">
<ele>26.928923</ele>
<time>2026-07-15T13:39:33.000Z</time>
</trkpt>
<trkpt lat="57.110446" lon="9.266910">
<ele>26.904499</ele>
<time>2026-07-15T13:39:34.000Z</time>
</trkpt>
<trkpt lat="57.110495" lon="9.266903">
<ele>26.880583</ele>
<time>2026-07-15T13:39:35.000Z</time>
</trkpt>
<trkpt lat="57.110549" lon="9.266894">
<ele>26.867294</ele>
<time>2026-07-15T13:39:36.000Z</time>
</trkpt>
<trkpt lat="57.110599" lon="9.266885">
<ele>26.867530</ele>
<time>2026-07-15T13:39:37.000Z</time>
</trkpt>
<trkpt lat="57.110648" lon="9.266874">
<ele>26.867762</ele>
<time>2026-07-15T13:39:38.000Z</time>
</trkpt>
<trkpt lat="57.110692" lon="9.266863">
<ele>26.867971</ele>
<time>2026-07-15T13:39:39.000Z</time>
</trkpt>
<trkpt lat="57.110746" lon="9.266852">
<ele>26.868226</ele>
<time>2026-07-15T13:39:40.000Z</time>
</trkpt>
<trkpt lat="57.110801" lon="9.266840">
<ele>26.868487</ele>
<time>2026-07-15T13:39:41.000Z</time>
</trkpt>
<trkpt lat="57.110850" lon="9.266832">
<ele>26.868718</ele>
<time>2026-07-15T13:39:42.000Z</time>
</trkpt>
<trkpt lat="57.110899" lon="9.266824">
<ele>26.868949</ele>
<time>2026-07-15T13:39:43.000Z</time>
</trkpt>
<trkpt lat="57.110954" lon="9.266813">
<ele>26.869209</ele>
<time>2026-07-15T13:39:44.000Z</time>
</trkpt>
<trkpt lat="57.111003" lon="9.266804">
<ele>26.869441</ele>
<time>2026-07-15T13:39:45.000Z</time>
</trkpt>
<trkpt lat="57.111056" lon="9.266795">
<ele>26.869691</ele>
<time>2026-07-15T13:39:46.000Z</time>
</trkpt>
<trkpt lat="57.111105" lon="9.266789">
<ele>26.869922</ele>
<time>2026-07-15T13:39:47.000Z</time>
</trkpt>
<trkpt lat="57.111156" lon="9.266778">
<ele>26.870163</ele>
<time>2026-07-15T13:39:48.000Z</time>
</trkpt>
<trkpt lat="57.111208" lon="9.266769">
<ele>26.870409</ele>
<time>2026-07-15T13:39:49.000Z</time>
</trkpt>
<trkpt lat="57.111267" lon="9.266758">
<ele>26.870688</ele>
<time>2026-07-15T13:39:50.000Z</time>
</trkpt>
<trkpt lat="57.111319" lon="9.266755">
<ele>26.870932</ele>
<time>2026-07-15T13:39:51.000Z</time>
</trkpt>
<trkpt lat="57.111369" lon="9.266747">
<ele>26.871168</ele>
<time>2026-07-15T13:39:52.000Z</time>
</trkpt>
<trkpt lat="57.111419" lon="9.266738">
<ele>26.871404</ele>
<time>2026-07-15T13:39:53.000Z</time>
</trkpt>
<trkpt lat="57.111470" lon="9.266727">
<ele>26.871646</ele>
<time>2026-07-15T13:39:54.000Z</time>
</trkpt>
<trkpt lat="57.111521" lon="9.266715">
<ele>26.871888</ele>
<time>2026-07-15T13:39:55.000Z</time>
</trkpt>
<trkpt lat="57.111571" lon="9.266702">
<ele>26.872125</ele>
<time>2026-07-15T13:39:56.000Z</time>
</trkpt>
<trkpt lat="57.111624" lon="9.266692">
<ele>26.872376</ele>
<time>2026-07-15T13:39:57.000Z</time>
</trkpt>
<trkpt lat="57.111676" lon="9.266680">
<ele>26.872622</ele>
<time>2026-07-15T13:39:58.000Z</time>
</trkpt>
<trkpt lat="57.111735" lon="9.266670">
<ele>26.872901</ele>
<time>2026-07-15T13:39:59.000Z</time>
</trkpt>
<trkpt lat="57.111788" lon="9.266660">
<ele>26.873151</ele>
<time>2026-07-15T13:40:00.000Z</time>
</trkpt>
<trkpt lat="57.111837" lon="9.266646">
<ele>26.873384</ele>
<time>2026-07-15T13:40:01.000Z</time>
</trkpt>
<trkpt lat="57.111887" lon="9.266632">
<ele>26.873622</ele>
<time>2026-07-15T13:40:02.000Z</time>
</trkpt>
<trkpt lat="57.111942" lon="9.266620">
<ele>26.873882</ele>
<time>2026-07-15T13:40:03.000Z</time>
</trkpt>
<trkpt lat="57.111987" lon="9.266614">
<ele>26.874094</ele>
<time>2026-07-15T13:40:04.000Z</time>
</trkpt>
<trkpt lat="57.112040" lon="9.266606">
<ele>26.874344</ele>
<time>2026-07-15T13:40:05.000Z</time>
</trkpt>
<trkpt lat="57.112093" lon="9.266599">
<ele>26.874594</ele>
<time>2026-07-15T13:40:06.000Z</time>
</trkpt>
<trkpt lat="57.112147" lon="9.266592">
<ele>26.874849</ele>
<time>2026-07-15T13:40:07.000Z</time>
</trkpt>
<trkpt lat="57.112200" lon="9.266586">
<ele>26.875098</ele>
<time>2026-07-15T13:40:08.000Z</time>
</trkpt>
<trkpt lat="57.112252" lon="9.266576">
<ele>26.875344</ele>
<time>2026-07-15T13:40:09.000Z</time>
</trkpt>
<trkpt lat="57.112306" lon="9.266568">
<ele>26.875599</ele>
<time>2026-07-15T13:40:10.000Z</time>
</trkpt>
<trkpt lat="57.112358" lon="9.266557">
<ele>26.871197</ele>
<time>2026-07-15T13:40:11.000Z</time>
</trkpt>
<trkpt lat="57.112406" lon="9.266546">
<ele>26.866622</ele>
<time>2026-07-15T13:40:12.000Z</time>
</trkpt>
<trkpt lat="57.112460" lon="9.266532">
<ele>26.861465</ele>
<time>2026-07-15T13:40:13.000Z</time>
</trkpt>
<trkpt lat="57.112513" lon="9.266519">
<ele>26.856409</ele>
<time>2026-07-15T13:40:14.000Z</time>
</trkpt>
<trkpt lat="57.112558" lon="9.266509">
<ele>26.852122</ele>
<time>2026-07-15T13:40:15.000Z</time>
</trkpt>
<trkpt lat="57.112620" lon="9.266494">
<ele>26.846209</ele>
<time>2026-07-15T13:40:16.000Z</time>
</trkpt>
<trkpt lat="57.112677" lon="9.266482">
<ele>26.840783</ele>
<time>2026-07-15T13:40:17.000Z</time>
</trkpt>
<trkpt lat="57.112730" lon="9.266472">
<ele>26.835745</ele>
<time>2026-07-15T13:40:18.000Z</time>
</trkpt>
<trkpt lat="57.112784" lon="9.266463">
<ele>26.830617</ele>
<time>2026-07-15T13:40:19.000Z</time>
</trkpt>
<trkpt lat="57.112834" lon="9.266455">
<ele>26.825871</ele>
<time>2026-07-15T13:40:20.000Z</time>
</trkpt>
<trkpt lat="57.112887" lon="9.266444">
<ele>26.820827</ele>
<time>2026-07-15T13:40:21.000Z</time>
</trkpt>
<trkpt lat="57.112933" lon="9.266432">
<ele>26.816433</ele>
<time>2026-07-15T13:40:22.000Z</time>
</trkpt>
<trkpt lat="57.112982" lon="9.266423">
<ele>26.811776</ele>
<time>2026-07-15T13:40:23.000Z</time>
</trkpt>
<trkpt lat="57.113032" lon="9.266415">
<ele>26.807030</ele>
<time>2026-07-15T13:40:24.000Z</time>
</trkpt>
<trkpt lat="57.113080" lon="9.266408">
<ele>26.802477</ele>
<time>2026-07-15T13:40:25.000Z</time>
</trkpt>
<trkpt lat="57.113132" lon="9.266401">
<ele>26.797546</ele>
<time>2026-07-15T13:40:26.000Z</time>
</trkpt>
<trkpt lat="57.113177" lon="9.266390">
<ele>26.793253</ele>
<time>2026-07-15T13:40:27.000Z</time>
</trkpt>
<trkpt lat="57.113227" lon="9.266377">
<ele>26.788478</ele>
<time>2026-07-15T13:40:28.000Z</time>
</trkpt>
<trkpt lat="57.113272" lon="9.266370">
<ele>26.784207</ele>
<time>2026-07-15T13:40:29.000Z</time>
</trkpt>
<trkpt lat="57.113318" lon="9.266361">
<ele>26.779832</ele>
<time>2026-07-15T13:40:30.000Z</time>
</trkpt>
<trkpt lat="57.113368" lon="9.266352">
<ele>26.775081</ele>
<time>2026-07-15T13:40:31.000Z</time>
</trkpt>
<trkpt lat="57.113422" lon="9.266340">
<ele>26.769937</ele>
<time>2026-07-15T13:40:32.000Z</time>
</trkpt>
<trkpt lat="57.113465" lon="9.266329">
<ele>26.765832</ele>
<time>2026-07-15T13:40:33.000Z</time>
</trkpt>
<trkpt lat="57.113511" lon="9.266321">
<ele>26.761462</ele>
<time>2026-07-15T13:40:34.000Z</time>
</trkpt>
<trkpt lat="57.113558" lon="9.266310">
<ele>26.756982</ele>
<time>2026-07-15T13:40:35.000Z</time>
</trkpt>
<trkpt lat="57.113608" lon="9.266301">
<ele>26.752231</ele>
<time>2026-07-15T13:40:36.000Z</time>
</trkpt>
<trkpt lat="57.113653" lon="9.266287">
<ele>26.747915</ele>
<time>2026-07-15T13:40:37.000Z</time>
</trkpt>
<trkpt lat="57.113696" lon="9.266269">
<ele>26.743745</ele>
<time>2026-07-15T13:40:38.000Z</time>
</trkpt>
<trkpt lat="57.113743" lon="9.266253">
<ele>26.739225</ele>
<time>2026-07-15T13:40:39.000Z</time>
</trkpt>
<trkpt lat="57.113788" lon="9.266247">
<ele>26.734958</ele>
<time>2026-07-15T13:40:40.000Z</time>
</trkpt>
<trkpt lat="57.113837" lon="9.266229">
<ele>26.730233</ele>
<time>2026-07-15T13:40:41.000Z</time>
</trkpt>
<trkpt lat="57.113878" lon="9.266212">
<ele>26.726258</ele>
<time>2026-07-15T13:40:42.000Z</time>
</trkpt>
<trkpt lat="57.113918" lon="9.266198">
<ele>26.722408</ele>
<time>2026-07-15T13:40:43.000Z</time>
</trkpt>
<trkpt lat="57.113959" lon="9.266183">
<ele>26.718455</ele>
<time>2026-07-15T13:40:44.000Z</time>
</trkpt>
<trkpt lat="57.114002" lon="9.266172">
<ele>26.714349</ele>
<time>2026-07-15T13:40:45.000Z</time>
</trkpt>
<trkpt lat="57.114047" lon="9.266158">
<ele>26.710033</ele>
<time>2026-07-15T13:40:46.000Z</time>
</trkpt>
<trkpt lat="57.114088" lon="9.266145">
<ele>26.706099</ele>
<time>2026-07-15T13:40:47.000Z</time>
</trkpt>
<trkpt lat="57.114127" lon="9.266131">
<ele>26.731187</ele>
<time>2026-07-15T13:40:48.000Z</time>
</trkpt>
<trkpt lat="57.114169" lon="9.266116">
<ele>26.763759</ele>
<time>2026-07-15T13:40:49.000Z</time>
</trkpt>
<trkpt lat="57.114208" lon="9.266097">
<ele>26.794472</ele>
<time>2026-07-15T13:40:50.000Z</time>
</trkpt>
<trkpt lat="57.114237" lon="9.266093">
<ele>26.816613</ele>
<time>2026-07-15T13:40:51.000Z</time>
</trkpt>
<trkpt lat="57.114261" lon="9.266113">
<ele>26.836669</ele>
<time>2026-07-15T13:40:52.000Z</time>
</trkpt>
<trkpt lat="57.114269" lon="9.266149">
<ele>26.852748</ele>
<time>2026-07-15T13:40:53.000Z</time>
</trkpt>
<trkpt lat="57.114277" lon="9.266199">
<ele>26.874296</ele>
<time>2026-07-15T13:40:54.000Z</time>
</trkpt>
<trkpt lat="57.114281" lon="9.266250">
<ele>26.895597</ele>
<time>2026-07-15T13:40:55.000Z</time>
</trkpt>
<trkpt lat="57.114292" lon="9.266304">
<ele>26.919439</ele>
<time>2026-07-15T13:40:56.000Z</time>
</trkpt>
<trkpt lat="57.114300" lon="9.266353">
<ele>26.940591</ele>
<time>2026-07-15T13:40:57.000Z</time>
</trkpt>
<trkpt lat="57.114311" lon="9.266403">
<ele>26.962892</ele>
<time>2026-07-15T13:40:58.000Z</time>
</trkpt>
<trkpt lat="57.114318" lon="9.266442">
<ele>26.979872</ele>
<time>2026-07-15T13:40:59.000Z</time>
</trkpt>
<trkpt lat="57.114326" lon="9.266495">
<ele>27.002612</ele>
<time>2026-07-15T13:41:00.000Z</time>
</trkpt>
<trkpt lat="57.114333" lon="9.266537">
<ele>27.020773</ele>
<time>2026-07-15T13:41:01.000Z</time>
</trkpt>
<trkpt lat="57.114338" lon="9.266587">
<ele>27.041790</ele>
<time>2026-07-15T13:41:02.000Z</time>
</trkpt>
<trkpt lat="57.114338" lon="9.266632">
<ele>27.060392</ele>
<time>2026-07-15T13:41:03.000Z</time>
</trkpt>
<trkpt lat="57.114338" lon="9.266672">
<ele>27.076927</ele>
<time>2026-07-15T13:41:04.000Z</time>
</trkpt>
<trkpt lat="57.114338" lon="9.266705">
<ele>27.090569</ele>
<time>2026-07-15T13:41:05.000Z</time>
</trkpt>
<trkpt lat="57.114345" lon="9.266743">
<ele>27.107157</ele>
<time>2026-07-15T13:41:06.000Z</time>
</trkpt>
<trkpt lat="57.114346" lon="9.266776">
<ele>27.120819</ele>
<time>2026-07-15T13:41:07.000Z</time>
</trkpt>
<trkpt lat="57.114349" lon="9.266805">
<ele>27.133023</ele>
<time>2026-07-15T13:41:08.000Z</time>
</trkpt>
<trkpt lat="57.114353" lon="9.266837">
<ele>27.146597</ele>
<time>2026-07-15T13:41:09.000Z</time>
</trkpt>
<trkpt lat="57.114360" lon="9.266874">
<ele>27.162794</ele>
<time>2026-07-15T13:41:10.000Z</time>
</trkpt>
<trkpt lat="57.114368" lon="9.266917">
<ele>27.181584</ele>
<time>2026-07-15T13:41:11.000Z</time>
</trkpt>
<trkpt lat="57.114376" lon="9.266972">
<ele>27.205122</ele>
<time>2026-07-15T13:41:12.000Z</time>
</trkpt>
<trkpt lat="57.114380" lon="9.267023">
<ele>27.226423</ele>
<time>2026-07-15T13:41:13.000Z</time>
</trkpt>
<trkpt lat="57.114384" lon="9.267073">
<ele>27.247315</ele>
<time>2026-07-15T13:41:14.000Z</time>
</trkpt>
<trkpt lat="57.114384" lon="9.267126">
<ele>27.269224</ele>
<time>2026-07-15T13:41:15.000Z</time>
</trkpt>
<trkpt lat="57.114387" lon="9.267187">
<ele>27.294543</ele>
<time>2026-07-15T13:41:16.000Z</time>
</trkpt>
<trkpt lat="57.114388" lon="9.267243">
<ele>27.317705</ele>
<time>2026-07-15T13:41:17.000Z</time>
</trkpt>
<trkpt lat="57.114391" lon="9.267299">
<ele>27.340967</ele>
<time>2026-07-15T13:41:18.000Z</time>
</trkpt>
<trkpt lat="57.114395" lon="9.267360">
<ele>27.366366</ele>
<time>2026-07-15T13:41:19.000Z</time>
</trkpt>
<trkpt lat="57.114399" lon="9.267429">
<ele>27.395051</ele>
<time>2026-07-15T13:41:20.000Z</time>
</trkpt>
<trkpt lat="57.114406" lon="9.267498">
<ele>27.424068</ele>
<time>2026-07-15T13:41:21.000Z</time>
</trkpt>
<trkpt lat="57.114414" lon="9.267572">
<ele>27.455259</ele>
<time>2026-07-15T13:41:22.000Z</time>
</trkpt>
<trkpt lat="57.114421" lon="9.267647">
<ele>27.486717</ele>
<time>2026-07-15T13:41:23.000Z</time>
</trkpt>
<trkpt lat="57.114426" lon="9.267731">
<ele>27.521649</ele>
<time>2026-07-15T13:41:24.000Z</time>
</trkpt>
<trkpt lat="57.114433" lon="9.267803">
<ele>27.551885</ele>
<time>2026-07-15T13:41:25.000Z</time>
</trkpt>
<trkpt lat="57.114441" lon="9.267879">
<ele>27.583887</ele>
<time>2026-07-15T13:41:26.000Z</time>
</trkpt>
<trkpt lat="57.114445" lon="9.267952">
<ele>27.614217</ele>
<time>2026-07-15T13:41:27.000Z</time>
</trkpt>
<trkpt lat="57.114449" lon="9.268026">
<ele>27.644958</ele>
<time>2026-07-15T13:41:28.000Z</time>
</trkpt>
<trkpt lat="57.114452" lon="9.268097">
<ele>27.674397</ele>
<time>2026-07-15T13:41:29.000Z</time>
</trkpt>
<trkpt lat="57.114460" lon="9.268186">
<ele>27.711688</ele>
<time>2026-07-15T13:41:30.000Z</time>
</trkpt>
<trkpt lat="57.114467" lon="9.268269">
<ele>27.746410</ele>
<time>2026-07-15T13:41:31.000Z</time>
</trkpt>
<trkpt lat="57.114468" lon="9.268357">
<ele>27.782795</ele>
<time>2026-07-15T13:41:32.000Z</time>
</trkpt>
<trkpt lat="57.114468" lon="9.268440">
<ele>27.817106</ele>
<time>2026-07-15T13:41:33.000Z</time>
</trkpt>
<trkpt lat="57.114471" lon="9.268532">
<ele>27.855205</ele>
<time>2026-07-15T13:41:34.000Z</time>
</trkpt>
<trkpt lat="57.114475" lon="9.268616">
<ele>27.890062</ele>
<time>2026-07-15T13:41:35.000Z</time>
</trkpt>
<trkpt lat="57.114483" lon="9.268698">
<ele>27.924502</ele>
<time>2026-07-15T13:41:36.000Z</time>
</trkpt>
<trkpt lat="57.114490" lon="9.268781">
<ele>27.959224</ele>
<time>2026-07-15T13:41:37.000Z</time>
</trkpt>
<trkpt lat="57.114498" lon="9.268859">
<ele>27.992038</ele>
<time>2026-07-15T13:41:38.000Z</time>
</trkpt>
<trkpt lat="57.114502" lon="9.268951">
<ele>28.030190</ele>
<time>2026-07-15T13:41:39.000Z</time>
</trkpt>
<trkpt lat="57.114509" lon="9.269035">
<ele>28.065320</ele>
<time>2026-07-15T13:41:40.000Z</time>
</trkpt>
<trkpt lat="57.114513" lon="9.269117">
<ele>28.082800</ele>
<time>2026-07-15T13:41:41.000Z</time>
</trkpt>
<trkpt lat="57.114513" lon="9.269197">
<ele>28.093478</ele>
<time>2026-07-15T13:41:42.000Z</time>
</trkpt>
<trkpt lat="57.114521" lon="9.269291">
<ele>28.106177</ele>
<time>2026-07-15T13:41:43.000Z</time>
</trkpt>
<trkpt lat="57.114521" lon="9.269373">
<ele>28.117122</ele>
<time>2026-07-15T13:41:44.000Z</time>
</trkpt>
<trkpt lat="57.114525" lon="9.269458">
<ele>28.128510</ele>
<time>2026-07-15T13:41:45.000Z</time>
</trkpt>
<trkpt lat="57.114532" lon="9.269544">
<ele>28.140117</ele>
<time>2026-07-15T13:41:46.000Z</time>
</trkpt>
<trkpt lat="57.114540" lon="9.269628">
<ele>28.151500</ele>
<time>2026-07-15T13:41:47.000Z</time>
</trkpt>
<trkpt lat="57.114547" lon="9.269710">
<ele>28.162579</ele>
<time>2026-07-15T13:41:48.000Z</time>
</trkpt>
<trkpt lat="57.114555" lon="9.269794">
<ele>28.173962</ele>
<time>2026-07-15T13:41:49.000Z</time>
</trkpt>
<trkpt lat="57.114563" lon="9.269876">
<ele>28.185082</ele>
<time>2026-07-15T13:41:50.000Z</time>
</trkpt>
<trkpt lat="57.114570" lon="9.269951">
<ele>28.195239</ele>
<time>2026-07-15T13:41:51.000Z</time>
</trkpt>
<trkpt lat="57.114578" lon="9.270039">
<ele>28.207148</ele>
<time>2026-07-15T13:41:52.000Z</time>
</trkpt>
<trkpt lat="57.114586" lon="9.270121">
<ele>28.218268</ele>
<time>2026-07-15T13:41:53.000Z</time>
</trkpt>
<trkpt lat="57.114593" lon="9.270196">
<ele>28.228426</ele>
<time>2026-07-15T13:41:54.000Z</time>
</trkpt>
<trkpt lat="57.114593" lon="9.270270">
<ele>28.238303</ele>
<time>2026-07-15T13:41:55.000Z</time>
</trkpt>
<trkpt lat="57.114597" lon="9.270356">
<ele>28.249824</ele>
<time>2026-07-15T13:41:56.000Z</time>
</trkpt>
<trkpt lat="57.114601" lon="9.270423">
<ele>28.258820</ele>
<time>2026-07-15T13:41:57.000Z</time>
</trkpt>
<trkpt lat="57.114601" lon="9.270510">
<ele>28.270432</ele>
<time>2026-07-15T13:41:58.000Z</time>
</trkpt>
<trkpt lat="57.114601" lon="9.270588">
<ele>28.280843</ele>
<time>2026-07-15T13:41:59.000Z</time>
</trkpt>
<trkpt lat="57.114601" lon="9.270672">
<ele>28.292055</ele>
<time>2026-07-15T13:42:00.000Z</time>
</trkpt>
<trkpt lat="57.114597" lon="9.270758">
<ele>28.303576</ele>
<time>2026-07-15T13:42:01.000Z</time>
</trkpt>
<trkpt lat="57.114597" lon="9.270842">
<ele>28.314787</ele>
<time>2026-07-15T13:42:02.000Z</time>
</trkpt>
<trkpt lat="57.114594" lon="9.270924">
<ele>28.325757</ele>
<time>2026-07-15T13:42:03.000Z</time>
</trkpt>
<trkpt lat="57.114593" lon="9.271017">
<ele>28.338172</ele>
<time>2026-07-15T13:42:04.000Z</time>
</trkpt>
<trkpt lat="57.114593" lon="9.271100">
<ele>28.349251</ele>
<time>2026-07-15T13:42:05.000Z</time>
</trkpt>
<trkpt lat="57.114593" lon="9.271186">
<ele>28.360729</ele>
<time>2026-07-15T13:42:06.000Z</time>
</trkpt>
<trkpt lat="57.114593" lon="9.271266">
<ele>28.371407</ele>
<time>2026-07-15T13:42:07.000Z</time>
</trkpt>
<trkpt lat="57.114597" lon="9.271351">
<ele>28.382795</ele>
<time>2026-07-15T13:42:08.000Z</time>
</trkpt>
<trkpt lat="57.114601" lon="9.271426">
<ele>28.392854</ele>
<time>2026-07-15T13:42:09.000Z</time>
</trkpt>
<trkpt lat="57.114605" lon="9.271509">
<ele>28.403975</ele>
<time>2026-07-15T13:42:10.000Z</time>
</trkpt>
<trkpt lat="57.114605" lon="9.271579">
<ele>28.413319</ele>
<time>2026-07-15T13:42:11.000Z</time>
</trkpt>
<trkpt lat="57.114609" lon="9.271664">
<ele>28.424706</ele>
<time>2026-07-15T13:42:12.000Z</time>
</trkpt>
<trkpt lat="57.114616" lon="9.271740">
<ele>28.434995</ele>
<time>2026-07-15T13:42:13.000Z</time>
</trkpt>
<trkpt lat="57.114620" lon="9.271828">
<ele>28.446782</ele>
<time>2026-07-15T13:42:14.000Z</time>
</trkpt>
<trkpt lat="57.114624" lon="9.271904">
<ele>28.456973</ele>
<time>2026-07-15T13:42:15.000Z</time>
</trkpt>
<trkpt lat="57.114628" lon="9.271987">
<ele>28.468095</ele>
<time>2026-07-15T13:42:16.000Z</time>
</trkpt>
<trkpt lat="57.114628" lon="9.272043">
<ele>28.475570</ele>
<time>2026-07-15T13:42:17.000Z</time>
</trkpt>
<trkpt lat="57.114628" lon="9.272144">
<ele>28.489050</ele>
<time>2026-07-15T13:42:18.000Z</time>
</trkpt>
<trkpt lat="57.114624" lon="9.272229">
<ele>28.500438</ele>
<time>2026-07-15T13:42:19.000Z</time>
</trkpt>
<trkpt lat="57.114624" lon="9.272318">
<ele>28.512317</ele>
<time>2026-07-15T13:42:20.000Z</time>
</trkpt>
<trkpt lat="57.114628" lon="9.272407">
<ele>28.529177</ele>
<time>2026-07-15T13:42:21.000Z</time>
</trkpt>
<trkpt lat="57.114632" lon="9.272500">
<ele>28.550196</ele>
<time>2026-07-15T13:42:22.000Z</time>
</trkpt>
<trkpt lat="57.114632" lon="9.272583">
<ele>28.568896</ele>
<time>2026-07-15T13:42:23.000Z</time>
</trkpt>
<trkpt lat="57.114632" lon="9.272667">
<ele>28.587821</ele>
<time>2026-07-15T13:42:24.000Z</time>
</trkpt>
<trkpt lat="57.114635" lon="9.272758">
<ele>28.608361</ele>
<time>2026-07-15T13:42:25.000Z</time>
</trkpt>
<trkpt lat="57.114635" lon="9.272845">
<ele>28.627962</ele>
<time>2026-07-15T13:42:26.000Z</time>
</trkpt>
<trkpt lat="57.114635" lon="9.272937">
<ele>28.648690</ele>
<time>2026-07-15T13:42:27.000Z</time>
</trkpt>
<trkpt lat="57.114635" lon="9.273034">
<ele>28.670544</ele>
<time>2026-07-15T13:42:28.000Z</time>
</trkpt>
<trkpt lat="57.114632" lon="9.273135">
<ele>28.693334</ele>
<time>2026-07-15T13:42:29.000Z</time>
</trkpt>
<trkpt lat="57.114632" lon="9.273235">
<ele>28.715864</ele>
<time>2026-07-15T13:42:30.000Z</time>
</trkpt>
<trkpt lat="57.114632" lon="9.273328">
<ele>28.736817</ele>
<time>2026-07-15T13:42:31.000Z</time>
</trkpt>
<trkpt lat="57.114635" lon="9.273420">
<ele>28.757582</ele>
<time>2026-07-15T13:42:32.000Z</time>
</trkpt>
<trkpt lat="57.114635" lon="9.273510">
<ele>28.777859</ele>
<time>2026-07-15T13:42:33.000Z</time>
</trkpt>
<trkpt lat="57.114643" lon="9.273608">
<ele>28.800186</ele>
<time>2026-07-15T13:42:34.000Z</time>
</trkpt>
<trkpt lat="57.114647" lon="9.273708">
<ele>28.822778</ele>
<time>2026-07-15T13:42:35.000Z</time>
</trkpt>
<trkpt lat="57.114651" lon="9.273807">
<ele>28.845144</ele>
<time>2026-07-15T13:42:36.000Z</time>
</trkpt>
<trkpt lat="57.114658" lon="9.273897">
<ele>28.865628</ele>
<time>2026-07-15T13:42:37.000Z</time>
</trkpt>
<trkpt lat="57.114662" lon="9.273984">
<ele>28.885299</ele>
<time>2026-07-15T13:42:38.000Z</time>
</trkpt>
<trkpt lat="57.114666" lon="9.274070">
<ele>28.904746</ele>
<time>2026-07-15T13:42:39.000Z</time>
</trkpt>
<trkpt lat="57.114670" lon="9.274146">
<ele>28.921949</ele>
<time>2026-07-15T13:42:40.000Z</time>
</trkpt>
<trkpt lat="57.114681" lon="9.274229">
<ele>28.941198</ele>
<time>2026-07-15T13:42:41.000Z</time>
</trkpt>
<trkpt lat="57.114688" lon="9.274308">
<ele>28.959233</ele>
<time>2026-07-15T13:42:42.000Z</time>
</trkpt>
<trkpt lat="57.114700" lon="9.274393">
<ele>28.979020</ele>
<time>2026-07-15T13:42:43.000Z</time>
</trkpt>
<trkpt lat="57.114704" lon="9.274483">
<ele>28.999365</ele>
<time>2026-07-15T13:42:44.000Z</time>
</trkpt>
<trkpt lat="57.114708" lon="9.274557">
<ele>29.016119</ele>
<time>2026-07-15T13:42:45.000Z</time>
</trkpt>
<trkpt lat="57.114712" lon="9.274641">
<ele>29.035117</ele>
<time>2026-07-15T13:42:46.000Z</time>
</trkpt>
<trkpt lat="57.114715" lon="9.274706">
<ele>29.049815</ele>
<time>2026-07-15T13:42:47.000Z</time>
</trkpt>
<trkpt lat="57.114723" lon="9.274798">
<ele>29.070806</ele>
<time>2026-07-15T13:42:48.000Z</time>
</trkpt>
<trkpt lat="57.114727" lon="9.274886">
<ele>29.090702</ele>
<time>2026-07-15T13:42:49.000Z</time>
</trkpt>
<trkpt lat="57.114734" lon="9.274968">
<ele>29.109404</ele>
<time>2026-07-15T13:42:50.000Z</time>
</trkpt>
<trkpt lat="57.114742" lon="9.275055">
<ele>29.129284</ele>
<time>2026-07-15T13:42:51.000Z</time>
</trkpt>
<trkpt lat="57.114750" lon="9.275142">
<ele>29.149164</ele>
<time>2026-07-15T13:42:52.000Z</time>
</trkpt>
<trkpt lat="57.114754" lon="9.275213">
<ele>29.165246</ele>
<time>2026-07-15T13:42:53.000Z</time>
</trkpt>
<trkpt lat="57.114757" lon="9.275285">
<ele>29.181516</ele>
<time>2026-07-15T13:42:54.000Z</time>
</trkpt>
<trkpt lat="57.114765" lon="9.275347">
<ele>29.195873</ele>
<time>2026-07-15T13:42:55.000Z</time>
</trkpt>
<trkpt lat="57.114769" lon="9.275407">
<ele>29.209493</ele>
<time>2026-07-15T13:42:56.000Z</time>
</trkpt>
<trkpt lat="57.114769" lon="9.275457">
<ele>29.220758</ele>
<time>2026-07-15T13:42:57.000Z</time>
</trkpt>
<trkpt lat="57.114772" lon="9.275509">
<ele>29.232540</ele>
<time>2026-07-15T13:42:58.000Z</time>
</trkpt>
<trkpt lat="57.114776" lon="9.275554">
<ele>29.242813</ele>
<time>2026-07-15T13:42:59.000Z</time>
</trkpt>
<trkpt lat="57.114780" lon="9.275587">
<ele>29.250431</ele>
<time>2026-07-15T13:43:00.000Z</time>
</trkpt>
<trkpt lat="57.114779" lon="9.275618">
<ele>29.257428</ele>
<time>2026-07-15T13:43:01.000Z</time>
</trkpt>
<trkpt lat="57.114777" lon="9.275648">
<ele>29.263752</ele>
<time>2026-07-15T13:43:02.000Z</time>
</trkpt>
<trkpt lat="57.114773" lon="9.275637">
<ele>29.265001</ele>
<time>2026-07-15T13:43:10.000Z</time>
</trkpt>
<trkpt lat="57.114766" lon="9.275613">
<ele>29.267571</ele>
<time>2026-07-15T13:43:11.000Z</time>
</trkpt>
<trkpt lat="57.114758" lon="9.275585">
<ele>29.270556</ele>
<time>2026-07-15T13:43:12.000Z</time>
</trkpt>
<trkpt lat="57.114751" lon="9.275557">
<ele>29.273464</ele>
<time>2026-07-15T13:43:13.000Z</time>
</trkpt>
<trkpt lat="57.114746" lon="9.275520">
<ele>29.277061</ele>
<time>2026-07-15T13:43:14.000Z</time>
</trkpt>
<trkpt lat="57.114753" lon="9.275479">
<ele>29.281116</ele>
<time>2026-07-15T13:43:15.000Z</time>
</trkpt>
<trkpt lat="57.114769" lon="9.275429">
<ele>29.286591</ele>
<time>2026-07-15T13:43:16.000Z</time>
</trkpt>
<trkpt lat="57.114792" lon="9.275400">
<ele>29.291434</ele>
<time>2026-07-15T13:43:17.000Z</time>
</trkpt>
<trkpt lat="57.114811" lon="9.275395">
<ele>29.294768</ele>
<time>2026-07-15T13:43:18.000Z</time>
</trkpt>
<trkpt lat="57.114830" lon="9.275409">
<ele>29.298324</ele>
<time>2026-07-15T13:43:19.000Z</time>
</trkpt>
<trkpt lat="57.114857" lon="9.275434">
<ele>29.303575</ele>
<time>2026-07-15T13:43:20.000Z</time>
</trkpt>
<trkpt lat="57.114880" lon="9.275461">
<ele>29.308314</ele>
<time>2026-07-15T13:43:21.000Z</time>
</trkpt>
<trkpt lat="57.114903" lon="9.275492">
<ele>29.313266</ele>
<time>2026-07-15T13:43:22.000Z</time>
</trkpt>
<trkpt lat="57.114925" lon="9.275516">
<ele>29.317708</ele>
<time>2026-07-15T13:43:23.000Z</time>
</trkpt>
<trkpt lat="57.114948" lon="9.275548">
<ele>29.322717</ele>
<time>2026-07-15T13:43:24.000Z</time>
</trkpt>
<trkpt lat="57.114971" lon="9.275587">
<ele>29.328148</ele>
<time>2026-07-15T13:43:25.000Z</time>
</trkpt>
<trkpt lat="57.114994" lon="9.275635">
<ele>29.334188</ele>
<time>2026-07-15T13:43:26.000Z</time>
</trkpt>
<trkpt lat="57.115017" lon="9.275681">
<ele>29.340087</ele>
<time>2026-07-15T13:43:27.000Z</time>
</trkpt>
<trkpt lat="57.115040" lon="9.275732">
<ele>29.346341</ele>
<time>2026-07-15T13:43:28.000Z</time>
</trkpt>
<trkpt lat="57.115059" lon="9.275779">
<ele>29.351869</ele>
<time>2026-07-15T13:43:29.000Z</time>
</trkpt>
<trkpt lat="57.115078" lon="9.275830">
<ele>29.357704</ele>
<time>2026-07-15T13:43:30.000Z</time>
</trkpt>
<trkpt lat="57.115093" lon="9.275878">
<ele>29.362929</ele>
<time>2026-07-15T13:43:31.000Z</time>
</trkpt>
<trkpt lat="57.115112" lon="9.275928">
<ele>29.368686</ele>
<time>2026-07-15T13:43:32.000Z</time>
</trkpt>
<trkpt lat="57.115128" lon="9.275982">
<ele>29.374489</ele>
<time>2026-07-15T13:43:33.000Z</time>
</trkpt>
<trkpt lat="57.115143" lon="9.276039">
<ele>29.380465</ele>
<time>2026-07-15T13:43:34.000Z</time>
</trkpt>
<trkpt lat="57.115158" lon="9.276100">
<ele>29.386782</ele>
<time>2026-07-15T13:43:35.000Z</time>
</trkpt>
<trkpt lat="57.115173" lon="9.276160">
<ele>29.393014</ele>
<time>2026-07-15T13:43:36.000Z</time>
</trkpt>
<trkpt lat="57.115185" lon="9.276215">
<ele>29.398605</ele>
<time>2026-07-15T13:43:37.000Z</time>
</trkpt>
<trkpt lat="57.115200" lon="9.276272">
<ele>29.404581</ele>
<time>2026-07-15T13:43:38.000Z</time>
</trkpt>
<trkpt lat="57.115215" lon="9.276334">
<ele>29.410984</ele>
<time>2026-07-15T13:43:39.000Z</time>
</trkpt>
<trkpt lat="57.115230" lon="9.276393">
<ele>29.417130</ele>
<time>2026-07-15T13:43:40.000Z</time>
</trkpt>
<trkpt lat="57.115253" lon="9.276460">
<ele>29.424608</ele>
<time>2026-07-15T13:43:41.000Z</time>
</trkpt>
<trkpt lat="57.115272" lon="9.276518">
<ele>29.430998</ele>
<time>2026-07-15T13:43:42.000Z</time>
</trkpt>
<trkpt lat="57.115291" lon="9.276581">
<ele>29.437797</ele>
<time>2026-07-15T13:43:43.000Z</time>
</trkpt>
<trkpt lat="57.115307" lon="9.276647">
<ele>29.444615</ele>
<time>2026-07-15T13:43:44.000Z</time>
</trkpt>
<trkpt lat="57.115330" lon="9.276715">
<ele>29.452173</ele>
<time>2026-07-15T13:43:45.000Z</time>
</trkpt>
<trkpt lat="57.115349" lon="9.276783">
<ele>29.459387</ele>
<time>2026-07-15T13:43:46.000Z</time>
</trkpt>
<trkpt lat="57.115372" lon="9.276852">
<ele>29.467025</ele>
<time>2026-07-15T13:43:47.000Z</time>
</trkpt>
<trkpt lat="57.115398" lon="9.276928">
<ele>29.475499</ele>
<time>2026-07-15T13:43:48.000Z</time>
</trkpt>
<trkpt lat="57.115425" lon="9.277012">
<ele>29.484708</ele>
<time>2026-07-15T13:43:49.000Z</time>
</trkpt>
<trkpt lat="57.115452" lon="9.277099">
<ele>29.494162</ele>
<time>2026-07-15T13:43:50.000Z</time>
</trkpt>
<trkpt lat="57.115486" lon="9.277191">
<ele>29.504660</ele>
<time>2026-07-15T13:43:51.000Z</time>
</trkpt>
<trkpt lat="57.115517" lon="9.277276">
<ele>29.514320</ele>
<time>2026-07-15T13:43:52.000Z</time>
</trkpt>
<trkpt lat="57.115543" lon="9.277353">
<ele>29.522874</ele>
<time>2026-07-15T13:43:53.000Z</time>
</trkpt>
<trkpt lat="57.115574" lon="9.277425">
<ele>29.531542</ele>
<time>2026-07-15T13:43:54.000Z</time>
</trkpt>
<trkpt lat="57.115605" lon="9.277498">
<ele>29.540285</ele>
<time>2026-07-15T13:43:55.000Z</time>
</trkpt>
<trkpt lat="57.115639" lon="9.277567">
<ele>29.549075</ele>
<time>2026-07-15T13:43:56.000Z</time>
</trkpt>
<trkpt lat="57.115673" lon="9.277627">
<ele>29.557257</ele>
<time>2026-07-15T13:43:57.000Z</time>
</trkpt>
<trkpt lat="57.115715" lon="9.277687">
<ele>29.566492</ele>
<time>2026-07-15T13:43:58.000Z</time>
</trkpt>
<trkpt lat="57.115757" lon="9.277753">
<ele>29.576462</ele>
<time>2026-07-15T13:43:59.000Z</time>
</trkpt>
<trkpt lat="57.115810" lon="9.277821">
<ele>29.612424</ele>
<time>2026-07-15T13:44:00.000Z</time>
</trkpt>
<trkpt lat="57.115867" lon="9.277888">
<ele>29.650071</ele>
<time>2026-07-15T13:44:01.000Z</time>
</trkpt>
<trkpt lat="57.115925" lon="9.277947">
<ele>29.686960</ele>
<time>2026-07-15T13:44:02.000Z</time>
</trkpt>
<trkpt lat="57.115982" lon="9.278004">
<ele>29.723070</ele>
<time>2026-07-15T13:44:03.000Z</time>
</trkpt>
<trkpt lat="57.116042" lon="9.278073">
<ele>29.762452</ele>
<time>2026-07-15T13:44:04.000Z</time>
</trkpt>
<trkpt lat="57.116101" lon="9.278137">
<ele>29.800574</ele>
<time>2026-07-15T13:44:05.000Z</time>
</trkpt>
<trkpt lat="57.116158" lon="9.278196">
<ele>29.836977</ele>
<time>2026-07-15T13:44:06.000Z</time>
</trkpt>
<trkpt lat="57.116211" lon="9.278254">
<ele>29.871300</ele>
<time>2026-07-15T13:44:07.000Z</time>
</trkpt>
<trkpt lat="57.116268" lon="9.278310">
<ele>29.907267</ele>
<time>2026-07-15T13:44:08.000Z</time>
</trkpt>
<trkpt lat="57.116322" lon="9.278365">
<ele>29.941622</ele>
<time>2026-07-15T13:44:09.000Z</time>
</trkpt>
<trkpt lat="57.116375" lon="9.278427">
<ele>29.976579</ele>
<time>2026-07-15T13:44:10.000Z</time>
</trkpt>
<trkpt lat="57.116424" lon="9.278486">
<ele>30.009172</ele>
<time>2026-07-15T13:44:11.000Z</time>
</trkpt>
<trkpt lat="57.116482" lon="9.278546">
<ele>30.046208</ele>
<time>2026-07-15T13:44:12.000Z</time>
</trkpt>
<trkpt lat="57.116530" lon="9.278606">
<ele>30.078505</ele>
<time>2026-07-15T13:44:13.000Z</time>
</trkpt>
<trkpt lat="57.116581" lon="9.278671">
<ele>30.113035</ele>
<time>2026-07-15T13:44:14.000Z</time>
</trkpt>
<trkpt lat="57.116627" lon="9.278733">
<ele>30.144770</ele>
<time>2026-07-15T13:44:15.000Z</time>
</trkpt>
<trkpt lat="57.116676" lon="9.278798">
<ele>30.178390</ele>
<time>2026-07-15T13:44:16.000Z</time>
</trkpt>
<trkpt lat="57.116715" lon="9.278874">
<ele>30.210000</ele>
<time>2026-07-15T13:44:17.000Z</time>
</trkpt>
<trkpt lat="57.116741" lon="9.278969">
<ele>30.242158</ele>
<time>2026-07-15T13:44:18.000Z</time>
</trkpt>
<trkpt lat="57.116756" lon="9.279072">
<ele>30.274393</ele>
<time>2026-07-15T13:44:19.000Z</time>
</trkpt>
<trkpt lat="57.116768" lon="9.279181">
<ele>30.308012</ele>
<time>2026-07-15T13:44:20.000Z</time>
</trkpt>
<trkpt lat="57.116768" lon="9.279293">
<ele>30.341867</ele>
<time>2026-07-15T13:44:21.000Z</time>
</trkpt>
<trkpt lat="57.116764" lon="9.279400">
<ele>30.374287</ele>
<time>2026-07-15T13:44:22.000Z</time>
</trkpt>
<trkpt lat="57.116760" lon="9.279504">
<ele>30.405802</ele>
<time>2026-07-15T13:44:23.000Z</time>
</trkpt>
<trkpt lat="57.116756" lon="9.279600">
<ele>30.434906</ele>
<time>2026-07-15T13:44:24.000Z</time>
</trkpt>
<trkpt lat="57.116753" lon="9.279687">
<ele>30.461257</ele>
<time>2026-07-15T13:44:25.000Z</time>
</trkpt>
<trkpt lat="57.116756" lon="9.279767">
<ele>30.485497</ele>
<time>2026-07-15T13:44:26.000Z</time>
</trkpt>
<trkpt lat="57.116768" lon="9.279843">
<ele>30.509421</ele>
<time>2026-07-15T13:44:27.000Z</time>
</trkpt>
<trkpt lat="57.116779" lon="9.279917">
<ele>30.532613</ele>
<time>2026-07-15T13:44:28.000Z</time>
</trkpt>
<trkpt lat="57.116802" lon="9.279981">
<ele>30.555813</ele>
<time>2026-07-15T13:44:29.000Z</time>
</trkpt>
<trkpt lat="57.116832" lon="9.280037">
<ele>30.576071</ele>
<time>2026-07-15T13:44:30.000Z</time>
</trkpt>
<trkpt lat="57.116875" lon="9.280084">
<ele>30.561011</ele>
<time>2026-07-15T13:44:31.000Z</time>
</trkpt>
<trkpt lat="57.116920" lon="9.280110">
<ele>30.546807</ele>
<time>2026-07-15T13:44:32.000Z</time>
</trkpt>
<trkpt lat="57.116974" lon="9.280130">
<ele>30.530217</ele>
<time>2026-07-15T13:44:33.000Z</time>
</trkpt>
<trkpt lat="57.117026" lon="9.280148">
<ele>30.514281</ele>
<time>2026-07-15T13:44:34.000Z</time>
</trkpt>
<trkpt lat="57.117077" lon="9.280172">
<ele>30.498427</ele>
<time>2026-07-15T13:44:35.000Z</time>
</trkpt>
<trkpt lat="57.117127" lon="9.280205">
<ele>30.482430</ele>
<time>2026-07-15T13:44:36.000Z</time>
</trkpt>
<trkpt lat="57.117176" lon="9.280250">
<ele>30.465940</ele>
<time>2026-07-15T13:44:37.000Z</time>
</trkpt>
<trkpt lat="57.117222" lon="9.280303">
<ele>30.449598</ele>
<time>2026-07-15T13:44:38.000Z</time>
</trkpt>
<trkpt lat="57.117264" lon="9.280369">
<ele>30.432970</ele>
<time>2026-07-15T13:44:39.000Z</time>
</trkpt>
<trkpt lat="57.117302" lon="9.280432">
<ele>30.417571</ele>
<time>2026-07-15T13:44:40.000Z</time>
</trkpt>
<trkpt lat="57.117340" lon="9.280497">
<ele>30.401952</ele>
<time>2026-07-15T13:44:41.000Z</time>
</trkpt>
<trkpt lat="57.117371" lon="9.280564">
<ele>30.387557</ele>
<time>2026-07-15T13:44:42.000Z</time>
</trkpt>
<trkpt lat="57.117405" lon="9.280639">
<ele>30.371580</ele>
<time>2026-07-15T13:44:43.000Z</time>
</trkpt>
<trkpt lat="57.117447" lon="9.280719">
<ele>30.353383</ele>
<time>2026-07-15T13:44:44.000Z</time>
</trkpt>
<trkpt lat="57.117485" lon="9.280790">
<ele>30.337080</ele>
<time>2026-07-15T13:44:45.000Z</time>
</trkpt>
<trkpt lat="57.117523" lon="9.280862">
<ele>30.320660</ele>
<time>2026-07-15T13:44:46.000Z</time>
</trkpt>
<trkpt lat="57.117562" lon="9.280929">
<ele>30.304598</ele>
<time>2026-07-15T13:44:47.000Z</time>
</trkpt>
<trkpt lat="57.117603" lon="9.280990">
<ele>30.288724</ele>
<time>2026-07-15T13:44:48.000Z</time>
</trkpt>
<trkpt lat="57.117657" lon="9.281047">
<ele>30.269978</ele>
<time>2026-07-15T13:44:49.000Z</time>
</trkpt>
<trkpt lat="57.117706" lon="9.281101">
<ele>30.252780</ele>
<time>2026-07-15T13:44:50.000Z</time>
</trkpt>
<trkpt lat="57.117760" lon="9.281154">
<ele>30.234352</ele>
<time>2026-07-15T13:44:51.000Z</time>
</trkpt>
<trkpt lat="57.117805" lon="9.281198">
<ele>30.219007</ele>
<time>2026-07-15T13:44:52.000Z</time>
</trkpt>
<trkpt lat="57.117851" lon="9.281237">
<ele>30.203755</ele>
<time>2026-07-15T13:44:53.000Z</time>
</trkpt>
<trkpt lat="57.117897" lon="9.281268">
<ele>30.189002</ele>
<time>2026-07-15T13:44:54.000Z</time>
</trkpt>
<trkpt lat="57.117947" lon="9.281290">
<ele>30.173519</ele>
<time>2026-07-15T13:44:55.000Z</time>
</trkpt>
<trkpt lat="57.117993" lon="9.281293">
<ele>30.159656</ele>
<time>2026-07-15T13:44:56.000Z</time>
</trkpt>
<trkpt lat="57.118042" lon="9.281277">
<ele>30.144668</ele>
<time>2026-07-15T13:44:57.000Z</time>
</trkpt>
<trkpt lat="57.118095" lon="9.281243">
<ele>30.127765</ele>
<time>2026-07-15T13:44:58.000Z</time>
</trkpt>
<trkpt lat="57.118148" lon="9.281212">
<ele>30.111016</ele>
<time>2026-07-15T13:44:59.000Z</time>
</trkpt>
<trkpt lat="57.118206" lon="9.281190">
<ele>30.093181</ele>
<time>2026-07-15T13:45:00.000Z</time>
</trkpt>
<trkpt lat="57.118267" lon="9.281183">
<ele>30.074773</ele>
<time>2026-07-15T13:45:01.000Z</time>
</trkpt>
<trkpt lat="57.118324" lon="9.281183">
<ele>30.057605</ele>
<time>2026-07-15T13:45:02.000Z</time>
</trkpt>
<trkpt lat="57.118382" lon="9.281187">
<ele>30.040124</ele>
<time>2026-07-15T13:45:03.000Z</time>
</trkpt>
<trkpt lat="57.118435" lon="9.281200">
<ele>30.036093</ele>
<time>2026-07-15T13:45:04.000Z</time>
</trkpt>
<trkpt lat="57.118484" lon="9.281228">
<ele>30.036777</ele>
<time>2026-07-15T13:45:05.000Z</time>
</trkpt>
<trkpt lat="57.118526" lon="9.281263">
<ele>30.037392</ele>
<time>2026-07-15T13:45:06.000Z</time>
</trkpt>
<trkpt lat="57.118564" lon="9.281312">
<ele>30.038010</ele>
<time>2026-07-15T13:45:07.000Z</time>
</trkpt>
<trkpt lat="57.118595" lon="9.281377">
<ele>30.038636</ele>
<time>2026-07-15T13:45:08.000Z</time>
</trkpt>
<trkpt lat="57.118622" lon="9.281449">
<ele>30.039269</ele>
<time>2026-07-15T13:45:09.000Z</time>
</trkpt>
<trkpt lat="57.118649" lon="9.281522">
<ele>30.039908</ele>
<time>2026-07-15T13:45:10.000Z</time>
</trkpt>
<trkpt lat="57.118675" lon="9.281596">
<ele>30.040546</ele>
<time>2026-07-15T13:45:11.000Z</time>
</trkpt>
<trkpt lat="57.118694" lon="9.281667">
<ele>30.041119</ele>
<time>2026-07-15T13:45:12.000Z</time>
</trkpt>
<trkpt lat="57.118717" lon="9.281740">
<ele>30.041730</ele>
<time>2026-07-15T13:45:13.000Z</time>
</trkpt>
<trkpt lat="57.118740" lon="9.281818">
<ele>30.042372</ele>
<time>2026-07-15T13:45:14.000Z</time>
</trkpt>
<trkpt lat="57.118763" lon="9.281898">
<ele>30.043027</ele>
<time>2026-07-15T13:45:15.000Z</time>
</trkpt>
<trkpt lat="57.118786" lon="9.281974">
<ele>30.043657</ele>
<time>2026-07-15T13:45:16.000Z</time>
</trkpt>
<trkpt lat="57.118813" lon="9.282053">
<ele>30.044332</ele>
<time>2026-07-15T13:45:17.000Z</time>
</trkpt>
<trkpt lat="57.118839" lon="9.282135">
<ele>30.045019</ele>
<time>2026-07-15T13:45:18.000Z</time>
</trkpt>
<trkpt lat="57.118866" lon="9.282218">
<ele>30.045719</ele>
<time>2026-07-15T13:45:19.000Z</time>
</trkpt>
<trkpt lat="57.118893" lon="9.282293">
<ele>30.046371</ele>
<time>2026-07-15T13:45:20.000Z</time>
</trkpt>
<trkpt lat="57.118920" lon="9.282363">
<ele>30.046992</ele>
<time>2026-07-15T13:45:21.000Z</time>
</trkpt>
<trkpt lat="57.118946" lon="9.282436">
<ele>30.047624</ele>
<time>2026-07-15T13:45:22.000Z</time>
</trkpt>
<trkpt lat="57.118969" lon="9.282505">
<ele>30.048210</ele>
<time>2026-07-15T13:45:23.000Z</time>
</trkpt>
<trkpt lat="57.118995" lon="9.282574">
<ele>30.048817</ele>
<time>2026-07-15T13:45:24.000Z</time>
</trkpt>
<trkpt lat="57.119018" lon="9.282652">
<ele>30.049460</ele>
<time>2026-07-15T13:45:25.000Z</time>
</trkpt>
<trkpt lat="57.119049" lon="9.282725">
<ele>30.050130</ele>
<time>2026-07-15T13:45:26.000Z</time>
</trkpt>
<trkpt lat="57.119083" lon="9.282799">
<ele>30.050832</ele>
<time>2026-07-15T13:45:27.000Z</time>
</trkpt>
<trkpt lat="57.119118" lon="9.282871">
<ele>30.051531</ele>
<time>2026-07-15T13:45:28.000Z</time>
</trkpt>
<trkpt lat="57.119152" lon="9.282942">
<ele>30.052216</ele>
<time>2026-07-15T13:45:29.000Z</time>
</trkpt>
<trkpt lat="57.119190" lon="9.283012">
<ele>30.052933</ele>
<time>2026-07-15T13:45:30.000Z</time>
</trkpt>
<trkpt lat="57.119225" lon="9.283080">
<ele>30.053611</ele>
<time>2026-07-15T13:45:31.000Z</time>
</trkpt>
<trkpt lat="57.119263" lon="9.283143">
<ele>30.054292</ele>
<time>2026-07-15T13:45:32.000Z</time>
</trkpt>
<trkpt lat="57.119301" lon="9.283210">
<ele>30.054993</ele>
<time>2026-07-15T13:45:33.000Z</time>
</trkpt>
<trkpt lat="57.119335" lon="9.283274">
<ele>30.055641</ele>
<time>2026-07-15T13:45:34.000Z</time>
</trkpt>
<trkpt lat="57.119369" lon="9.283337">
<ele>30.056284</ele>
<time>2026-07-15T13:45:35.000Z</time>
</trkpt>
<trkpt lat="57.119400" lon="9.283395">
<ele>30.056873</ele>
<time>2026-07-15T13:45:36.000Z</time>
</trkpt>
<trkpt lat="57.119430" lon="9.283448">
<ele>30.057427</ele>
<time>2026-07-15T13:45:37.000Z</time>
</trkpt>
<trkpt lat="57.119461" lon="9.283495">
<ele>30.057962</ele>
<time>2026-07-15T13:45:38.000Z</time>
</trkpt>
<trkpt lat="57.119495" lon="9.283532">
<ele>30.058489</ele>
<time>2026-07-15T13:45:39.000Z</time>
</trkpt>
<trkpt lat="57.119530" lon="9.283558">
<ele>30.058992</ele>
<time>2026-07-15T13:45:40.000Z</time>
</trkpt>
<trkpt lat="57.119560" lon="9.283582">
<ele>30.059428</ele>
<time>2026-07-15T13:45:41.000Z</time>
</trkpt>
<trkpt lat="57.119594" lon="9.283600">
<ele>30.056972</ele>
<time>2026-07-15T13:45:42.000Z</time>
</trkpt>
<trkpt lat="57.119632" lon="9.283618">
<ele>30.053040</ele>
<time>2026-07-15T13:45:43.000Z</time>
</trkpt>
<trkpt lat="57.119671" lon="9.283633">
<ele>30.049048</ele>
<time>2026-07-15T13:45:44.000Z</time>
</trkpt>
<trkpt lat="57.119705" lon="9.283640">
<ele>30.045620</ele>
<time>2026-07-15T13:45:45.000Z</time>
</trkpt>
<trkpt lat="57.119740" lon="9.283647">
<ele>30.042092</ele>
<time>2026-07-15T13:45:46.000Z</time>
</trkpt>
<trkpt lat="57.119781" lon="9.283660">
<ele>30.037923</ele>
<time>2026-07-15T13:45:47.000Z</time>
</trkpt>
<trkpt lat="57.119811" lon="9.283668">
<ele>30.034886</ele>
<time>2026-07-15T13:45:48.000Z</time>
</trkpt>
<trkpt lat="57.119846" lon="9.283684">
<ele>30.031272</ele>
<time>2026-07-15T13:45:49.000Z</time>
</trkpt>
<trkpt lat="57.119881" lon="9.283705">
<ele>30.027584</ele>
<time>2026-07-15T13:45:50.000Z</time>
</trkpt>
<trkpt lat="57.119926" lon="9.283736">
<ele>30.022770</ele>
<time>2026-07-15T13:45:51.000Z</time>
</trkpt>
<trkpt lat="57.119976" lon="9.283770">
<ele>30.017429</ele>
<time>2026-07-15T13:45:52.000Z</time>
</trkpt>
<trkpt lat="57.120029" lon="9.283811">
<ele>30.011669</ele>
<time>2026-07-15T13:45:53.000Z</time>
</trkpt>
<trkpt lat="57.120071" lon="9.283851">
<ele>30.006931</ele>
<time>2026-07-15T13:45:54.000Z</time>
</trkpt>
<trkpt lat="57.120113" lon="9.283892">
<ele>30.002168</ele>
<time>2026-07-15T13:45:55.000Z</time>
</trkpt>
<trkpt lat="57.120155" lon="9.283935">
<ele>29.997353</ele>
<time>2026-07-15T13:45:56.000Z</time>
</trkpt>
<trkpt lat="57.120197" lon="9.283978">
<ele>29.992538</ele>
<time>2026-07-15T13:45:57.000Z</time>
</trkpt>
<trkpt lat="57.120243" lon="9.284027">
<ele>29.987213</ele>
<time>2026-07-15T13:45:58.000Z</time>
</trkpt>
<trkpt lat="57.120288" lon="9.284076">
<ele>29.981975</ele>
<time>2026-07-15T13:45:59.000Z</time>
</trkpt>
<trkpt lat="57.120338" lon="9.284123">
<ele>29.976350</ele>
<time>2026-07-15T13:46:00.000Z</time>
</trkpt>
<trkpt lat="57.120388" lon="9.284172">
<ele>29.970675</ele>
<time>2026-07-15T13:46:01.000Z</time>
</trkpt>
<trkpt lat="57.120434" lon="9.284222">
<ele>29.965323</ele>
<time>2026-07-15T13:46:02.000Z</time>
</trkpt>
<trkpt lat="57.120484" lon="9.284275">
<ele>29.959542</ele>
<time>2026-07-15T13:46:03.000Z</time>
</trkpt>
<trkpt lat="57.120535" lon="9.284327">
<ele>29.953701</ele>
<time>2026-07-15T13:46:04.000Z</time>
</trkpt>
<trkpt lat="57.120583" lon="9.284375">
<ele>29.948229</ele>
<time>2026-07-15T13:46:05.000Z</time>
</trkpt>
<trkpt lat="57.120636" lon="9.284422">
<ele>29.942334</ele>
<time>2026-07-15T13:46:06.000Z</time>
</trkpt>
<trkpt lat="57.120685" lon="9.284471">
<ele>29.936747</ele>
<time>2026-07-15T13:46:07.000Z</time>
</trkpt>
<trkpt lat="57.120735" lon="9.284525">
<ele>29.930940</ele>
<time>2026-07-15T13:46:08.000Z</time>
</trkpt>
<trkpt lat="57.120779" lon="9.284576">
<ele>29.925730</ele>
<time>2026-07-15T13:46:09.000Z</time>
</trkpt>
<trkpt lat="57.120827" lon="9.284630">
<ele>29.920094</ele>
<time>2026-07-15T13:46:10.000Z</time>
</trkpt>
<trkpt lat="57.120873" lon="9.284682">
<ele>29.914686</ele>
<time>2026-07-15T13:46:11.000Z</time>
</trkpt>
<trkpt lat="57.120915" lon="9.284732">
<ele>29.909675</ele>
<time>2026-07-15T13:46:12.000Z</time>
</trkpt>
<trkpt lat="57.120960" lon="9.284777">
<ele>29.904544</ele>
<time>2026-07-15T13:46:13.000Z</time>
</trkpt>
<trkpt lat="57.121006" lon="9.284819">
<ele>29.899400</ele>
<time>2026-07-15T13:46:14.000Z</time>
</trkpt>
<trkpt lat="57.121051" lon="9.284863">
<ele>29.894295</ele>
<time>2026-07-15T13:46:15.000Z</time>
</trkpt>
<trkpt lat="57.121101" lon="9.284913">
<ele>29.888594</ele>
<time>2026-07-15T13:46:16.000Z</time>
</trkpt>
<trkpt lat="57.121147" lon="9.284968">
<ele>29.883099</ele>
<time>2026-07-15T13:46:17.000Z</time>
</trkpt>
<trkpt lat="57.121197" lon="9.285024">
<ele>29.884980</ele>
<time>2026-07-15T13:46:18.000Z</time>
</trkpt>
<trkpt lat="57.121239" lon="9.285072">
<ele>29.898397</ele>
<time>2026-07-15T13:46:19.000Z</time>
</trkpt>
<trkpt lat="57.121288" lon="9.285118">
<ele>29.913326</ele>
<time>2026-07-15T13:46:20.000Z</time>
</trkpt>
<trkpt lat="57.121330" lon="9.285163">
<ele>29.926515</ele>
<time>2026-07-15T13:46:21.000Z</time>
</trkpt>
<trkpt lat="57.121376" lon="9.285209">
<ele>29.940724</ele>
<time>2026-07-15T13:46:22.000Z</time>
</trkpt>
<trkpt lat="57.121422" lon="9.285254">
<ele>29.954862</ele>
<time>2026-07-15T13:46:23.000Z</time>
</trkpt>
<trkpt lat="57.121471" lon="9.285300">
<ele>29.969791</ele>
<time>2026-07-15T13:46:24.000Z</time>
</trkpt>
<trkpt lat="57.121517" lon="9.285352">
<ele>29.984442</ele>
<time>2026-07-15T13:46:25.000Z</time>
</trkpt>
<trkpt lat="57.121567" lon="9.285402">
<ele>29.999886</ele>
<time>2026-07-15T13:46:26.000Z</time>
</trkpt>
<trkpt lat="57.121612" lon="9.285450">
<ele>30.014001</ele>
<time>2026-07-15T13:46:27.000Z</time>
</trkpt>
<trkpt lat="57.121659" lon="9.285500">
<ele>30.028735</ele>
<time>2026-07-15T13:46:28.000Z</time>
</trkpt>
<trkpt lat="57.121704" lon="9.285548">
<ele>30.042850</ele>
<time>2026-07-15T13:46:29.000Z</time>
</trkpt>
<trkpt lat="57.121750" lon="9.285598">
<ele>30.057349</ele>
<time>2026-07-15T13:46:30.000Z</time>
</trkpt>
<trkpt lat="57.121792" lon="9.285640">
<ele>30.070322</ele>
<time>2026-07-15T13:46:31.000Z</time>
</trkpt>
<trkpt lat="57.121830" lon="9.285684">
<ele>30.082506</ele>
<time>2026-07-15T13:46:32.000Z</time>
</trkpt>
<trkpt lat="57.121861" lon="9.285733">
<ele>30.093594</ele>
<time>2026-07-15T13:46:33.000Z</time>
</trkpt>
<trkpt lat="57.121898" lon="9.285784">
<ele>30.106138</ele>
<time>2026-07-15T13:46:34.000Z</time>
</trkpt>
<trkpt lat="57.121933" lon="9.285839">
<ele>30.118627</ele>
<time>2026-07-15T13:46:35.000Z</time>
</trkpt>
<trkpt lat="57.121964" lon="9.285896">
<ele>30.130517</ele>
<time>2026-07-15T13:46:36.000Z</time>
</trkpt>
<trkpt lat="57.121975" lon="9.285960">
<ele>30.140409</ele>
<time>2026-07-15T13:46:37.000Z</time>
</trkpt>
<trkpt lat="57.121986" lon="9.286032">
<ele>30.151431</ele>
<time>2026-07-15T13:46:38.000Z</time>
</trkpt>
<trkpt lat="57.121990" lon="9.286110">
<ele>30.162977</ele>
<time>2026-07-15T13:46:39.000Z</time>
</trkpt>
<trkpt lat="57.121990" lon="9.286182">
<ele>30.173586</ele>
<time>2026-07-15T13:46:40.000Z</time>
</trkpt>
<trkpt lat="57.121990" lon="9.286266">
<ele>30.185965</ele>
<time>2026-07-15T13:46:41.000Z</time>
</trkpt>
<trkpt lat="57.121986" lon="9.286357">
<ele>30.199418</ele>
<time>2026-07-15T13:46:42.000Z</time>
</trkpt>
<trkpt lat="57.121979" lon="9.286446">
<ele>30.212671</ele>
<time>2026-07-15T13:46:43.000Z</time>
</trkpt>
<trkpt lat="57.121967" lon="9.286538">
<ele>30.226614</ele>
<time>2026-07-15T13:46:44.000Z</time>
</trkpt>
<trkpt lat="57.121948" lon="9.286627">
<ele>30.240706</ele>
<time>2026-07-15T13:46:45.000Z</time>
</trkpt>
<trkpt lat="57.121929" lon="9.286716">
<ele>30.254799</ele>
<time>2026-07-15T13:46:46.000Z</time>
</trkpt>
<trkpt lat="57.121906" lon="9.286805">
<ele>30.269325</ele>
<time>2026-07-15T13:46:47.000Z</time>
</trkpt>
<trkpt lat="57.121880" lon="9.286886">
<ele>30.283191</ele>
<time>2026-07-15T13:46:48.000Z</time>
</trkpt>
<trkpt lat="57.121853" lon="9.286963">
<ele>30.296700</ele>
<time>2026-07-15T13:46:49.000Z</time>
</trkpt>
<trkpt lat="57.121823" lon="9.287032">
<ele>30.309727</ele>
<time>2026-07-15T13:46:50.000Z</time>
</trkpt>
<trkpt lat="57.121792" lon="9.287091">
<ele>30.321827</ele>
<time>2026-07-15T13:46:51.000Z</time>
</trkpt>
<trkpt lat="57.121750" lon="9.287157">
<ele>30.336812</ele>
<time>2026-07-15T13:46:52.000Z</time>
</trkpt>
<trkpt lat="57.121716" lon="9.287211">
<ele>30.348999</ele>
<time>2026-07-15T13:46:53.000Z</time>
</trkpt>
<trkpt lat="57.121677" lon="9.287275">
<ele>30.363177</ele>
<time>2026-07-15T13:46:54.000Z</time>
</trkpt>
<trkpt lat="57.121639" lon="9.287335">
<ele>30.407487</ele>
<time>2026-07-15T13:46:55.000Z</time>
</trkpt>
<trkpt lat="57.121605" lon="9.287387">
<ele>30.459599</ele>
<time>2026-07-15T13:46:56.000Z</time>
</trkpt>
<trkpt lat="57.121574" lon="9.287447">
<ele>30.512625</ele>
<time>2026-07-15T13:46:57.000Z</time>
</trkpt>
<trkpt lat="57.121540" lon="9.287510">
<ele>30.569495</ele>
<time>2026-07-15T13:46:58.000Z</time>
</trkpt>
<trkpt lat="57.121510" lon="9.287589">
<ele>30.631214</ele>
<time>2026-07-15T13:46:59.000Z</time>
</trkpt>
<trkpt lat="57.121479" lon="9.287670">
<ele>30.694659</ele>
<time>2026-07-15T13:47:00.000Z</time>
</trkpt>
<trkpt lat="57.121456" lon="9.287757">
<ele>30.756607</ele>
<time>2026-07-15T13:47:01.000Z</time>
</trkpt>
<trkpt lat="57.121433" lon="9.287840">
<ele>30.816264</ele>
<time>2026-07-15T13:47:02.000Z</time>
</trkpt>
<trkpt lat="57.121410" lon="9.287926">
<ele>30.877637</ele>
<time>2026-07-15T13:47:03.000Z</time>
</trkpt>
<trkpt lat="57.121388" lon="9.288009">
<ele>30.936767</ele>
<time>2026-07-15T13:47:04.000Z</time>
</trkpt>
<trkpt lat="57.121373" lon="9.288090">
<ele>30.991555</ele>
<time>2026-07-15T13:47:05.000Z</time>
</trkpt>
<trkpt lat="57.121349" lon="9.288175">
<ele>31.052890</ele>
<time>2026-07-15T13:47:06.000Z</time>
</trkpt>
<trkpt lat="57.121323" lon="9.288256">
<ele>31.113130</ele>
<time>2026-07-15T13:47:07.000Z</time>
</trkpt>
<trkpt lat="57.121300" lon="9.288339">
<ele>31.172787</ele>
<time>2026-07-15T13:47:08.000Z</time>
</trkpt>
<trkpt lat="57.121273" lon="9.288422">
<ele>31.234731</ele>
<time>2026-07-15T13:47:09.000Z</time>
</trkpt>
<trkpt lat="57.121250" lon="9.288495">
<ele>31.288764</ele>
<time>2026-07-15T13:47:10.000Z</time>
</trkpt>
<trkpt lat="57.121227" lon="9.288571">
<ele>31.344467</ele>
<time>2026-07-15T13:47:11.000Z</time>
</trkpt>
<trkpt lat="57.121197" lon="9.288643">
<ele>31.402572</ele>
<time>2026-07-15T13:47:12.000Z</time>
</trkpt>
<trkpt lat="57.121170" lon="9.288720">
<ele>31.461254</ele>
<time>2026-07-15T13:47:13.000Z</time>
</trkpt>
<trkpt lat="57.121143" lon="9.288792">
<ele>31.517275</ele>
<time>2026-07-15T13:47:14.000Z</time>
</trkpt>
<trkpt lat="57.121117" lon="9.288873">
<ele>31.577516</ele>
<time>2026-07-15T13:47:15.000Z</time>
</trkpt>
<trkpt lat="57.121090" lon="9.288962">
<ele>31.642784</ele>
<time>2026-07-15T13:47:16.000Z</time>
</trkpt>
<trkpt lat="57.121060" lon="9.289052">
<ele>31.710395</ele>
<time>2026-07-15T13:47:17.000Z</time>
</trkpt>
<trkpt lat="57.121036" lon="9.289144">
<ele>31.775739</ele>
<time>2026-07-15T13:47:18.000Z</time>
</trkpt>
<trkpt lat="57.121021" lon="9.289223">
<ele>31.829317</ele>
<time>2026-07-15T13:47:19.000Z</time>
</trkpt>
<trkpt lat="57.120998" lon="9.289304">
<ele>31.887837</ele>
<time>2026-07-15T13:47:20.000Z</time>
</trkpt>
<trkpt lat="57.120983" lon="9.289373">
<ele>31.935419</ele>
<time>2026-07-15T13:47:21.000Z</time>
</trkpt>
<trkpt lat="57.120968" lon="9.289438">
<ele>31.980635</ele>
<time>2026-07-15T13:47:22.000Z</time>
</trkpt>
<trkpt lat="57.120950" lon="9.289485">
<ele>32.017457</ele>
<time>2026-07-15T13:47:23.000Z</time>
</trkpt>
<trkpt lat="57.120937" lon="9.289510">
<ele>32.039619</ele>
<time>2026-07-15T13:47:24.000Z</time>
</trkpt>
<trkpt lat="57.120949" lon="9.289470">
<ele>32.068876</ele>
<time>2026-07-15T13:47:31.000Z</time>
</trkpt>
<trkpt lat="57.120956" lon="9.289433">
<ele>32.093960</ele>
<time>2026-07-15T13:47:32.000Z</time>
</trkpt>
<trkpt lat="57.120968" lon="9.289383">
<ele>32.128958</ele>
<time>2026-07-15T13:47:33.000Z</time>
</trkpt>
<trkpt lat="57.120979" lon="9.289342">
<ele>32.158236</ele>
<time>2026-07-15T13:47:34.000Z</time>
</trkpt>
<trkpt lat="57.120990" lon="9.289316">
<ele>32.179338</ele>
<time>2026-07-15T13:47:35.000Z</time>
</trkpt>
<trkpt lat="57.121006" lon="9.289304">
<ele>32.199710</ele>
<time>2026-07-15T13:47:36.000Z</time>
</trkpt>
<trkpt lat="57.121017" lon="9.289311">
<ele>32.213434</ele>
<time>2026-07-15T13:47:37.000Z</time>
</trkpt>
<trkpt lat="57.121025" lon="9.289335">
<ele>32.231464</ele>
<time>2026-07-15T13:47:38.000Z</time>
</trkpt>
<trkpt lat="57.121029" lon="9.289368">
<ele>32.253110</ele>
<time>2026-07-15T13:47:39.000Z</time>
</trkpt>
<trkpt lat="57.121037" lon="9.289412">
<ele>32.282816</ele>
<time>2026-07-15T13:47:40.000Z</time>
</trkpt>
<trkpt lat="57.121044" lon="9.289462">
<ele>32.315872</ele>
<time>2026-07-15T13:47:41.000Z</time>
</trkpt>
<trkpt lat="57.121052" lon="9.289514">
<ele>32.350472</ele>
<time>2026-07-15T13:47:42.000Z</time>
</trkpt>
<trkpt lat="57.121063" lon="9.289567">
<ele>32.386797</ele>
<time>2026-07-15T13:47:43.000Z</time>
</trkpt>
<trkpt lat="57.121071" lon="9.289623">
<ele>32.423867</ele>
<time>2026-07-15T13:47:44.000Z</time>
</trkpt>
<trkpt lat="57.121078" lon="9.289674">
<ele>32.457544</ele>
<time>2026-07-15T13:47:45.000Z</time>
</trkpt>
<trkpt lat="57.121082" lon="9.289728">
<ele>32.486807</ele>
<time>2026-07-15T13:47:46.000Z</time>
</trkpt>
<trkpt lat="57.121090" lon="9.289778">
<ele>32.470683</ele>
<time>2026-07-15T13:47:47.000Z</time>
</trkpt>
<trkpt lat="57.121094" lon="9.289825">
<ele>32.455967</ele>
<time>2026-07-15T13:47:48.000Z</time>
</trkpt>
<trkpt lat="57.121101" lon="9.289871">
<ele>32.441189</ele>
<time>2026-07-15T13:47:49.000Z</time>
</trkpt>
<trkpt lat="57.121113" lon="9.289917">
<ele>32.425403</ele>
<time>2026-07-15T13:47:50.000Z</time>
</trkpt>
<trkpt lat="57.121128" lon="9.289969">
<ele>32.407188</ele>
<time>2026-07-15T13:47:51.000Z</time>
</trkpt>
<trkpt lat="57.121140" lon="9.290027">
<ele>32.387988</ele>
<time>2026-07-15T13:47:52.000Z</time>
</trkpt>
<trkpt lat="57.121155" lon="9.290080">
<ele>32.369500</ele>
<time>2026-07-15T13:47:53.000Z</time>
</trkpt>
<trkpt lat="57.121166" lon="9.290142">
<ele>32.349323</ele>
<time>2026-07-15T13:47:54.000Z</time>
</trkpt>
<trkpt lat="57.121181" lon="9.290202">
<ele>32.328891</ele>
<time>2026-07-15T13:47:55.000Z</time>
</trkpt>
<trkpt lat="57.121193" lon="9.290263">
<ele>32.308821</ele>
<time>2026-07-15T13:47:56.000Z</time>
</trkpt>
<trkpt lat="57.121208" lon="9.290321">
<ele>32.288948</ele>
<time>2026-07-15T13:47:57.000Z</time>
</trkpt>
<trkpt lat="57.121223" lon="9.290385">
<ele>32.267385</ele>
<time>2026-07-15T13:47:58.000Z</time>
</trkpt>
<trkpt lat="57.121246" lon="9.290451">
<ele>32.243125</ele>
<time>2026-07-15T13:47:59.000Z</time>
</trkpt>
<trkpt lat="57.121269" lon="9.290512">
<ele>32.220152</ele>
<time>2026-07-15T13:48:00.000Z</time>
</trkpt>
<trkpt lat="57.121300" lon="9.290575">
<ele>32.193850</ele>
<time>2026-07-15T13:48:01.000Z</time>
</trkpt>
<trkpt lat="57.121326" lon="9.290631">
<ele>32.171057</ele>
<time>2026-07-15T13:48:02.000Z</time>
</trkpt>
<trkpt lat="57.121353" lon="9.290693">
<ele>32.146471</ele>
<time>2026-07-15T13:48:03.000Z</time>
</trkpt>
<trkpt lat="57.121388" lon="9.290763">
<ele>32.117033</ele>
<time>2026-07-15T13:48:04.000Z</time>
</trkpt>
<trkpt lat="57.121426" lon="9.290829">
<ele>32.087274</ele>
<time>2026-07-15T13:48:05.000Z</time>
</trkpt>
<trkpt lat="57.121468" lon="9.290897">
<ele>32.055413</ele>
<time>2026-07-15T13:48:06.000Z</time>
</trkpt>
<trkpt lat="57.121514" lon="9.290967">
<ele>32.021415</ele>
<time>2026-07-15T13:48:07.000Z</time>
</trkpt>
<trkpt lat="57.121563" lon="9.291039">
<ele>31.985700</ele>
<time>2026-07-15T13:48:08.000Z</time>
</trkpt>
<trkpt lat="57.121609" lon="9.291115">
<ele>31.950492</ele>
<time>2026-07-15T13:48:09.000Z</time>
</trkpt>
<trkpt lat="57.121654" lon="9.291188">
<ele>31.916325</ele>
<time>2026-07-15T13:48:10.000Z</time>
</trkpt>
<trkpt lat="57.121693" lon="9.291257">
<ele>31.885514</ele>
<time>2026-07-15T13:48:11.000Z</time>
</trkpt>
<trkpt lat="57.121735" lon="9.291327">
<ele>31.853241</ele>
<time>2026-07-15T13:48:12.000Z</time>
</trkpt>
<trkpt lat="57.121777" lon="9.291395">
<ele>31.821379</ele>
<time>2026-07-15T13:48:13.000Z</time>
</trkpt>
<trkpt lat="57.121819" lon="9.291462">
<ele>31.789721</ele>
<time>2026-07-15T13:48:14.000Z</time>
</trkpt>
<trkpt lat="57.121865" lon="9.291530">
<ele>31.756114</ele>
<time>2026-07-15T13:48:15.000Z</time>
</trkpt>
<trkpt lat="57.121902" lon="9.291591">
<ele>31.727821</ele>
<time>2026-07-15T13:48:16.000Z</time>
</trkpt>
<trkpt lat="57.121944" lon="9.291653">
<ele>31.697154</ele>
<time>2026-07-15T13:48:17.000Z</time>
</trkpt>
<trkpt lat="57.121986" lon="9.291714">
<ele>31.666678</ele>
<time>2026-07-15T13:48:18.000Z</time>
</trkpt>
<trkpt lat="57.122028" lon="9.291777">
<ele>31.635816</ele>
<time>2026-07-15T13:48:19.000Z</time>
</trkpt>
<trkpt lat="57.122066" lon="9.291840">
<ele>31.606686</ele>
<time>2026-07-15T13:48:20.000Z</time>
</trkpt>
<trkpt lat="57.122112" lon="9.291908">
<ele>31.573079</ele>
<time>2026-07-15T13:48:21.000Z</time>
</trkpt>
<trkpt lat="57.122158" lon="9.291971">
<ele>31.540418</ele>
<time>2026-07-15T13:48:22.000Z</time>
</trkpt>
<trkpt lat="57.122196" lon="9.292031">
<ele>31.511900</ele>
<time>2026-07-15T13:48:23.000Z</time>
</trkpt>
<trkpt lat="57.122235" lon="9.292092">
<ele>31.482748</ele>
<time>2026-07-15T13:48:24.000Z</time>
</trkpt>
<trkpt lat="57.122268" lon="9.292149">
<ele>31.459876</ele>
<time>2026-07-15T13:48:25.000Z</time>
</trkpt>
<trkpt lat="57.122307" lon="9.292210">
<ele>31.443178</ele>
<time>2026-07-15T13:48:26.000Z</time>
</trkpt>
<trkpt lat="57.122345" lon="9.292270">
<ele>31.426843</ele>
<time>2026-07-15T13:48:27.000Z</time>
</trkpt>
<trkpt lat="57.122383" lon="9.292335">
<ele>31.409918</ele>
<time>2026-07-15T13:48:28.000Z</time>
</trkpt>
<trkpt lat="57.122425" lon="9.292405">
<ele>31.391432</ele>
<time>2026-07-15T13:48:29.000Z</time>
</trkpt>
<trkpt lat="57.122462" lon="9.292473">
<ele>31.374373</ele>
<time>2026-07-15T13:48:30.000Z</time>
</trkpt>
<trkpt lat="57.122498" lon="9.292549">
<ele>31.356502</ele>
<time>2026-07-15T13:48:31.000Z</time>
</trkpt>
<trkpt lat="57.122536" lon="9.292622">
<ele>31.338583</ele>
<time>2026-07-15T13:48:32.000Z</time>
</trkpt>
<trkpt lat="57.122570" lon="9.292689">
<ele>31.322333</ele>
<time>2026-07-15T13:48:33.000Z</time>
</trkpt>
<trkpt lat="57.122608" lon="9.292755">
<ele>31.305287</ele>
<time>2026-07-15T13:48:34.000Z</time>
</trkpt>
<trkpt lat="57.122646" lon="9.292817">
<ele>31.288719</ele>
<time>2026-07-15T13:48:35.000Z</time>
</trkpt>
<trkpt lat="57.122681" lon="9.292875">
<ele>31.273353</ele>
<time>2026-07-15T13:48:36.000Z</time>
</trkpt>
<trkpt lat="57.122715" lon="9.292929">
<ele>31.258701</ele>
<time>2026-07-15T13:48:37.000Z</time>
</trkpt>
<trkpt lat="57.122753" lon="9.292983">
<ele>31.243037</ele>
<time>2026-07-15T13:48:38.000Z</time>
</trkpt>
<trkpt lat="57.122788" lon="9.293038">
<ele>31.228022</ele>
<time>2026-07-15T13:48:39.000Z</time>
</trkpt>
<trkpt lat="57.122826" lon="9.293095">
<ele>31.212028</ele>
<time>2026-07-15T13:48:40.000Z</time>
</trkpt>
<trkpt lat="57.122864" lon="9.293168">
<ele>31.194108</ele>
<time>2026-07-15T13:48:41.000Z</time>
</trkpt>
<trkpt lat="57.122902" lon="9.293240">
<ele>31.176316</ele>
<time>2026-07-15T13:48:42.000Z</time>
</trkpt>
<trkpt lat="57.122944" lon="9.293315">
<ele>31.157225</ele>
<time>2026-07-15T13:48:43.000Z</time>
</trkpt>
<trkpt lat="57.122986" lon="9.293387">
<ele>31.138499</ele>
<time>2026-07-15T13:48:44.000Z</time>
</trkpt>
<trkpt lat="57.123028" lon="9.293455">
<ele>31.120249</ele>
<time>2026-07-15T13:48:45.000Z</time>
</trkpt>
<trkpt lat="57.123074" lon="9.293527">
<ele>31.100548</ele>
<time>2026-07-15T13:48:46.000Z</time>
</trkpt>
<trkpt lat="57.123115" lon="9.293588">
<ele>31.083347</ele>
<time>2026-07-15T13:48:47.000Z</time>
</trkpt>
<trkpt lat="57.123165" lon="9.293652">
<ele>31.063475</ele>
<time>2026-07-15T13:48:48.000Z</time>
</trkpt>
<trkpt lat="57.123203" lon="9.293711">
<ele>31.047255</ele>
<time>2026-07-15T13:48:49.000Z</time>
</trkpt>
<trkpt lat="57.123247" lon="9.293765">
<ele>31.029999</ele>
<time>2026-07-15T13:48:50.000Z</time>
</trkpt>
<trkpt lat="57.123291" lon="9.293823">
<ele>31.012340</ele>
<time>2026-07-15T13:48:51.000Z</time>
</trkpt>
<trkpt lat="57.123333" lon="9.293878">
<ele>30.995521</ele>
<time>2026-07-15T13:48:52.000Z</time>
</trkpt>
<trkpt lat="57.123375" lon="9.293930">
<ele>30.979005</ele>
<time>2026-07-15T13:48:53.000Z</time>
</trkpt>
<trkpt lat="57.123417" lon="9.293991">
<ele>30.961549</ele>
<time>2026-07-15T13:48:54.000Z</time>
</trkpt>
<trkpt lat="57.123451" lon="9.294043">
<ele>30.947126</ele>
<time>2026-07-15T13:48:55.000Z</time>
</trkpt>
<trkpt lat="57.123493" lon="9.294102">
<ele>30.929887</ele>
<time>2026-07-15T13:48:56.000Z</time>
</trkpt>
<trkpt lat="57.123535" lon="9.294155">
<ele>30.913271</ele>
<time>2026-07-15T13:48:57.000Z</time>
</trkpt>
<trkpt lat="57.123573" lon="9.294209">
<ele>30.897607</ele>
<time>2026-07-15T13:48:58.000Z</time>
</trkpt>
<trkpt lat="57.123615" lon="9.294260">
<ele>30.881189</ele>
<time>2026-07-15T13:48:59.000Z</time>
</trkpt>
<trkpt lat="57.123657" lon="9.294313">
<ele>30.881067</ele>
<time>2026-07-15T13:49:00.000Z</time>
</trkpt>
<trkpt lat="57.123699" lon="9.294367">
<ele>30.887050</ele>
<time>2026-07-15T13:49:01.000Z</time>
</trkpt>
<trkpt lat="57.123741" lon="9.294420">
<ele>30.892997</ele>
<time>2026-07-15T13:49:02.000Z</time>
</trkpt>
<trkpt lat="57.123783" lon="9.294468">
<ele>30.898770</ele>
<time>2026-07-15T13:49:03.000Z</time>
</trkpt>
<trkpt lat="57.123825" lon="9.294517">
<ele>30.904577</ele>
<time>2026-07-15T13:49:04.000Z</time>
</trkpt>
<trkpt lat="57.123862" lon="9.294564">
<ele>30.909827</ele>
<time>2026-07-15T13:49:05.000Z</time>
</trkpt>
<trkpt lat="57.123905" lon="9.294613">
<ele>30.915733</ele>
<time>2026-07-15T13:49:06.000Z</time>
</trkpt>
<trkpt lat="57.123943" lon="9.294657">
<ele>30.920975</ele>
<time>2026-07-15T13:49:07.000Z</time>
</trkpt>
<trkpt lat="57.123985" lon="9.294693">
<ele>30.926386</ele>
<time>2026-07-15T13:49:08.000Z</time>
</trkpt>
<trkpt lat="57.124023" lon="9.294730">
<ele>30.931407</ele>
<time>2026-07-15T13:49:09.000Z</time>
</trkpt>
<trkpt lat="57.124061" lon="9.294770">
<ele>30.936519</ele>
<time>2026-07-15T13:49:10.000Z</time>
</trkpt>
<trkpt lat="57.124095" lon="9.294805">
<ele>30.941069</ele>
<time>2026-07-15T13:49:11.000Z</time>
</trkpt>
<trkpt lat="57.124130" lon="9.294844">
<ele>30.945847</ele>
<time>2026-07-15T13:49:12.000Z</time>
</trkpt>
<trkpt lat="57.124173" lon="9.294880">
<ele>30.951364</ele>
<time>2026-07-15T13:49:13.000Z</time>
</trkpt>
<trkpt lat="57.124214" lon="9.294915">
<ele>30.956642</ele>
<time>2026-07-15T13:49:14.000Z</time>
</trkpt>
<trkpt lat="57.124260" lon="9.294956">
<ele>30.962611</ele>
<time>2026-07-15T13:49:15.000Z</time>
</trkpt>
<trkpt lat="57.124302" lon="9.294993">
<ele>30.968049</ele>
<time>2026-07-15T13:49:16.000Z</time>
</trkpt>
<trkpt lat="57.124340" lon="9.295033">
<ele>30.973162</ele>
<time>2026-07-15T13:49:17.000Z</time>
</trkpt>
<trkpt lat="57.124382" lon="9.295071">
<ele>30.978627</ele>
<time>2026-07-15T13:49:18.000Z</time>
</trkpt>
<trkpt lat="57.124420" lon="9.295102">
<ele>30.983482</ele>
<time>2026-07-15T13:49:19.000Z</time>
</trkpt>
<trkpt lat="57.124451" lon="9.295128">
<ele>30.987460</ele>
<time>2026-07-15T13:49:20.000Z</time>
</trkpt>
<trkpt lat="57.124481" lon="9.295158">
<ele>30.991448</ele>
<time>2026-07-15T13:49:21.000Z</time>
</trkpt>
<trkpt lat="57.124512" lon="9.295192">
<ele>30.995662</ele>
<time>2026-07-15T13:49:22.000Z</time>
</trkpt>
<trkpt lat="57.124542" lon="9.295223">
<ele>30.999680</ele>
<time>2026-07-15T13:49:23.000Z</time>
</trkpt>
<trkpt lat="57.124577" lon="9.295255">
<ele>31.004244</ele>
<time>2026-07-15T13:49:24.000Z</time>
</trkpt>
<trkpt lat="57.124619" lon="9.295294">
<ele>31.009738</ele>
<time>2026-07-15T13:49:25.000Z</time>
</trkpt>
<trkpt lat="57.124664" lon="9.295333">
<ele>31.015547</ele>
<time>2026-07-15T13:49:26.000Z</time>
</trkpt>
<trkpt lat="57.124710" lon="9.295377">
<ele>31.021601</ele>
<time>2026-07-15T13:49:27.000Z</time>
</trkpt>
<trkpt lat="57.124759" lon="9.295419">
<ele>31.027914</ele>
<time>2026-07-15T13:49:28.000Z</time>
</trkpt>
<trkpt lat="57.124801" lon="9.295461">
<ele>31.033496</ele>
<time>2026-07-15T13:49:29.000Z</time>
</trkpt>
<trkpt lat="57.124847" lon="9.295503">
<ele>31.039493</ele>
<time>2026-07-15T13:49:30.000Z</time>
</trkpt>
<trkpt lat="57.124886" lon="9.295547">
<ele>31.044835</ele>
<time>2026-07-15T13:49:31.000Z</time>
</trkpt>
<trkpt lat="57.124924" lon="9.295593">
<ele>31.050146</ele>
<time>2026-07-15T13:49:32.000Z</time>
</trkpt>
<trkpt lat="57.124962" lon="9.295640">
<ele>31.055492</ele>
<time>2026-07-15T13:49:33.000Z</time>
</trkpt>
<trkpt lat="57.125000" lon="9.295685">
<ele>31.060769</ele>
<time>2026-07-15T13:49:34.000Z</time>
</trkpt>
<trkpt lat="57.125037" lon="9.295730">
<ele>31.065948</ele>
<time>2026-07-15T13:49:35.000Z</time>
</trkpt>
<trkpt lat="57.125076" lon="9.295780">
<ele>31.071498</ele>
<time>2026-07-15T13:49:36.000Z</time>
</trkpt>
<trkpt lat="57.125114" lon="9.295828">
<ele>31.076880</ele>
<time>2026-07-15T13:49:37.000Z</time>
</trkpt>
<trkpt lat="57.125153" lon="9.295878">
<ele>31.082430</ele>
<time>2026-07-15T13:49:38.000Z</time>
</trkpt>
<trkpt lat="57.125187" lon="9.295927">
<ele>31.085165</ele>
<time>2026-07-15T13:49:39.000Z</time>
</trkpt>
<trkpt lat="57.125225" lon="9.295975">
<ele>31.071586</ele>
<time>2026-07-15T13:49:40.000Z</time>
</trkpt>
<trkpt lat="57.125267" lon="9.296023">
<ele>31.057020</ele>
<time>2026-07-15T13:49:41.000Z</time>
</trkpt>
<trkpt lat="57.125305" lon="9.296072">
<ele>31.043350</ele>
<time>2026-07-15T13:49:42.000Z</time>
</trkpt>
<trkpt lat="57.125343" lon="9.296120">
<ele>31.029772</ele>
<time>2026-07-15T13:49:43.000Z</time>
</trkpt>
<trkpt lat="57.125381" lon="9.296166">
<ele>31.016371</ele>
<time>2026-07-15T13:49:44.000Z</time>
</trkpt>
<trkpt lat="57.125423" lon="9.296215">
<ele>31.001720</ele>
<time>2026-07-15T13:49:45.000Z</time>
</trkpt>
<trkpt lat="57.125462" lon="9.296264">
<ele>30.987808</ele>
<time>2026-07-15T13:49:46.000Z</time>
</trkpt>
<trkpt lat="57.125503" lon="9.296311">
<ele>30.973576</ele>
<time>2026-07-15T13:49:47.000Z</time>
</trkpt>
<trkpt lat="57.125542" lon="9.296360">
<ele>30.959664</ele>
<time>2026-07-15T13:49:48.000Z</time>
</trkpt>
<trkpt lat="57.125580" lon="9.296409">
<ele>30.945994</ele>
<time>2026-07-15T13:49:49.000Z</time>
</trkpt>
<trkpt lat="57.125618" lon="9.296456">
<ele>30.932505</ele>
<time>2026-07-15T13:49:50.000Z</time>
</trkpt>
<trkpt lat="57.125656" lon="9.296503">
<ele>30.919016</ele>
<time>2026-07-15T13:49:51.000Z</time>
</trkpt>
<trkpt lat="57.125694" lon="9.296550">
<ele>30.905528</ele>
<time>2026-07-15T13:49:52.000Z</time>
</trkpt>
<trkpt lat="57.125732" lon="9.296596">
<ele>30.892127</ele>
<time>2026-07-15T13:49:53.000Z</time>
</trkpt>
<trkpt lat="57.125767" lon="9.296643">
<ele>30.879363</ele>
<time>2026-07-15T13:49:54.000Z</time>
</trkpt>
<trkpt lat="57.125804" lon="9.296687">
<ele>30.866384</ele>
<time>2026-07-15T13:49:55.000Z</time>
</trkpt>
<trkpt lat="57.125843" lon="9.296737">
<ele>30.852381</ele>
<time>2026-07-15T13:49:56.000Z</time>
</trkpt>
<trkpt lat="57.125877" lon="9.296784">
<ele>30.839854</ele>
<time>2026-07-15T13:49:57.000Z</time>
</trkpt>
<trkpt lat="57.125913" lon="9.296829">
<ele>30.827032</ele>
<time>2026-07-15T13:49:58.000Z</time>
</trkpt>
<trkpt lat="57.125953" lon="9.296877">
<ele>30.812964</ele>
<time>2026-07-15T13:49:59.000Z</time>
</trkpt>
<trkpt lat="57.125990" lon="9.296922">
<ele>30.799897</ele>
<time>2026-07-15T13:50:00.000Z</time>
</trkpt>
<trkpt lat="57.126025" lon="9.296970">
<ele>30.787038</ele>
<time>2026-07-15T13:50:01.000Z</time>
</trkpt>
<trkpt lat="57.126064" lon="9.297016">
<ele>30.773391</ele>
<time>2026-07-15T13:50:02.000Z</time>
</trkpt>
<trkpt lat="57.126098" lon="9.297062">
<ele>30.760959</ele>
<time>2026-07-15T13:50:03.000Z</time>
</trkpt>
<trkpt lat="57.126136" lon="9.297112">
<ele>30.747197</ele>
<time>2026-07-15T13:50:04.000Z</time>
</trkpt>
<trkpt lat="57.126174" lon="9.297157">
<ele>30.733884</ele>
<time>2026-07-15T13:50:05.000Z</time>
</trkpt>
<trkpt lat="57.126209" lon="9.297205">
<ele>30.721024</ele>
<time>2026-07-15T13:50:06.000Z</time>
</trkpt>
<trkpt lat="57.126247" lon="9.297252">
<ele>30.707536</ele>
<time>2026-07-15T13:50:07.000Z</time>
</trkpt>
<trkpt lat="57.126285" lon="9.297301">
<ele>30.693866</ele>
<time>2026-07-15T13:50:08.000Z</time>
</trkpt>
<trkpt lat="57.126324" lon="9.297355">
<ele>30.679488</ele>
<time>2026-07-15T13:50:09.000Z</time>
</trkpt>
<trkpt lat="57.126366" lon="9.297405">
<ele>30.664751</ele>
<time>2026-07-15T13:50:10.000Z</time>
</trkpt>
<trkpt lat="57.126407" lon="9.297456">
<ele>30.650171</ele>
<time>2026-07-15T13:50:11.000Z</time>
</trkpt>
<trkpt lat="57.126445" lon="9.297508">
<ele>30.636221</ele>
<time>2026-07-15T13:50:12.000Z</time>
</trkpt>
<trkpt lat="57.126488" lon="9.297560">
<ele>30.621062</ele>
<time>2026-07-15T13:50:13.000Z</time>
</trkpt>
<trkpt lat="57.126530" lon="9.297611">
<ele>30.606237</ele>
<time>2026-07-15T13:50:14.000Z</time>
</trkpt>
<trkpt lat="57.126572" lon="9.297664">
<ele>30.591234</ele>
<time>2026-07-15T13:50:15.000Z</time>
</trkpt>
<trkpt lat="57.126610" lon="9.297713">
<ele>30.577564</ele>
<time>2026-07-15T13:50:16.000Z</time>
</trkpt>
<trkpt lat="57.126652" lon="9.297765">
<ele>30.562651</ele>
<time>2026-07-15T13:50:17.000Z</time>
</trkpt>
<trkpt lat="57.126697" lon="9.297818">
<ele>30.553686</ele>
<time>2026-07-15T13:50:18.000Z</time>
</trkpt>
<trkpt lat="57.126739" lon="9.297870">
<ele>30.549061</ele>
<time>2026-07-15T13:50:19.000Z</time>
</trkpt>
<trkpt lat="57.126781" lon="9.297922">
<ele>30.544436</ele>
<time>2026-07-15T13:50:20.000Z</time>
</trkpt>
<trkpt lat="57.126823" lon="9.297976">
<ele>30.539755</ele>
<time>2026-07-15T13:50:21.000Z</time>
</trkpt>
<trkpt lat="57.126865" lon="9.298028">
<ele>30.535129</ele>
<time>2026-07-15T13:50:22.000Z</time>
</trkpt>
<trkpt lat="57.126903" lon="9.298080">
<ele>30.530803</ele>
<time>2026-07-15T13:50:23.000Z</time>
</trkpt>
<trkpt lat="57.126944" lon="9.298130">
<ele>30.526309</ele>
<time>2026-07-15T13:50:24.000Z</time>
</trkpt>
<trkpt lat="57.126984" lon="9.298183">
<ele>30.521805</ele>
<time>2026-07-15T13:50:25.000Z</time>
</trkpt>
<trkpt lat="57.127022" lon="9.298232">
<ele>30.517566</ele>
<time>2026-07-15T13:50:26.000Z</time>
</trkpt>
<trkpt lat="57.127059" lon="9.298274">
<ele>30.513593</ele>
<time>2026-07-15T13:50:27.000Z</time>
</trkpt>
<trkpt lat="57.127101" lon="9.298310">
<ele>30.509359</ele>
<time>2026-07-15T13:50:28.000Z</time>
</trkpt>
<trkpt lat="57.127139" lon="9.298344">
<ele>30.505498</ele>
<time>2026-07-15T13:50:29.000Z</time>
</trkpt>
<trkpt lat="57.127178" lon="9.298384">
<ele>30.501418</ele>
<time>2026-07-15T13:50:30.000Z</time>
</trkpt>
<trkpt lat="57.127216" lon="9.298426">
<ele>30.497368</ele>
<time>2026-07-15T13:50:31.000Z</time>
</trkpt>
<trkpt lat="57.127250" lon="9.298469">
<ele>30.493599</ele>
<time>2026-07-15T13:50:32.000Z</time>
</trkpt>
<trkpt lat="57.127288" lon="9.298506">
<ele>30.489670</ele>
<time>2026-07-15T13:50:33.000Z</time>
</trkpt>
<trkpt lat="57.127327" lon="9.298538">
<ele>30.485768</ele>
<time>2026-07-15T13:50:34.000Z</time>
</trkpt>
<trkpt lat="57.127365" lon="9.298562">
<ele>30.482096</ele>
<time>2026-07-15T13:50:35.000Z</time>
</trkpt>
<trkpt lat="57.127399" lon="9.298583">
<ele>30.478818</ele>
<time>2026-07-15T13:50:36.000Z</time>
</trkpt>
<trkpt lat="57.127430" lon="9.298607">
<ele>30.475745</ele>
<time>2026-07-15T13:50:37.000Z</time>
</trkpt>
<trkpt lat="57.127460" lon="9.298632">
<ele>30.472735</ele>
<time>2026-07-15T13:50:38.000Z</time>
</trkpt>
<trkpt lat="57.127491" lon="9.298655">
<ele>30.469681</ele>
<time>2026-07-15T13:50:39.000Z</time>
</trkpt>
<trkpt lat="57.127521" lon="9.298670">
<ele>30.466840</ele>
<time>2026-07-15T13:50:40.000Z</time>
</trkpt>
<trkpt lat="57.127552" lon="9.298678">
<ele>30.463979</ele>
<time>2026-07-15T13:50:41.000Z</time>
</trkpt>
<trkpt lat="57.127579" lon="9.298683">
<ele>30.461498</ele>
<time>2026-07-15T13:50:42.000Z</time>
</trkpt>
<trkpt lat="57.127597" lon="9.298694">
<ele>30.459765</ele>
<time>2026-07-15T13:50:43.000Z</time>
</trkpt>
<trkpt lat="57.127609" lon="9.298718">
<ele>30.458146</ele>
<time>2026-07-15T13:50:44.000Z</time>
</trkpt>
<trkpt lat="57.127617" lon="9.298748">
<ele>30.456488</ele>
<time>2026-07-15T13:50:45.000Z</time>
</trkpt>
<trkpt lat="57.127628" lon="9.298780">
<ele>30.454609</ele>
<time>2026-07-15T13:50:46.000Z</time>
</trkpt>
<trkpt lat="57.127651" lon="9.298812">
<ele>30.451974</ele>
<time>2026-07-15T13:50:47.000Z</time>
</trkpt>
<trkpt lat="57.127682" lon="9.298842">
<ele>30.448774</ele>
<time>2026-07-15T13:50:48.000Z</time>
</trkpt>
<trkpt lat="57.127708" lon="9.298873">
<ele>30.445943</ele>
<time>2026-07-15T13:50:49.000Z</time>
</trkpt>
<trkpt lat="57.127743" lon="9.298910">
<ele>30.442255</ele>
<time>2026-07-15T13:50:50.000Z</time>
</trkpt>
<trkpt lat="57.127777" lon="9.298950">
<ele>30.438567</ele>
<time>2026-07-15T13:50:51.000Z</time>
</trkpt>
<trkpt lat="57.127811" lon="9.298988">
<ele>30.434933</ele>
<time>2026-07-15T13:50:52.000Z</time>
</trkpt>
<trkpt lat="57.127853" lon="9.299024">
<ele>30.430699</ele>
<time>2026-07-15T13:50:53.000Z</time>
</trkpt>
<trkpt lat="57.127891" lon="9.299062">
<ele>30.426747</ele>
<time>2026-07-15T13:50:54.000Z</time>
</trkpt>
<trkpt lat="57.127932" lon="9.299096">
<ele>30.422637</ele>
<time>2026-07-15T13:50:55.000Z</time>
</trkpt>
<trkpt lat="57.127972" lon="9.299131">
<ele>30.418590</ele>
<time>2026-07-15T13:50:56.000Z</time>
</trkpt>
<trkpt lat="57.128006" lon="9.299166">
<ele>30.415030</ele>
<time>2026-07-15T13:50:57.000Z</time>
</trkpt>
<trkpt lat="57.128040" lon="9.299209">
<ele>30.411260</ele>
<time>2026-07-15T13:50:58.000Z</time>
</trkpt>
<trkpt lat="57.128067" lon="9.299262">
<ele>30.407654</ele>
<time>2026-07-15T13:50:59.000Z</time>
</trkpt>
<trkpt lat="57.128090" lon="9.299328">
<ele>30.403763</ele>
<time>2026-07-15T13:51:00.000Z</time>
</trkpt>
<trkpt lat="57.128109" lon="9.299401">
<ele>30.399747</ele>
<time>2026-07-15T13:51:01.000Z</time>
</trkpt>
<trkpt lat="57.128120" lon="9.299470">
<ele>30.396179</ele>
<time>2026-07-15T13:51:02.000Z</time>
</trkpt>
<trkpt lat="57.128128" lon="9.299538">
<ele>30.392727</ele>
<time>2026-07-15T13:51:03.000Z</time>
</trkpt>
<trkpt lat="57.128136" lon="9.299606">
<ele>30.367469</ele>
<time>2026-07-15T13:51:04.000Z</time>
</trkpt>
<trkpt lat="57.128143" lon="9.299668">
<ele>30.341912</ele>
<time>2026-07-15T13:51:05.000Z</time>
</trkpt>
<trkpt lat="57.128151" lon="9.299725">
<ele>30.318152</ele>
<time>2026-07-15T13:51:06.000Z</time>
</trkpt>
<trkpt lat="57.128159" lon="9.299775">
<ele>30.297115</ele>
<time>2026-07-15T13:51:07.000Z</time>
</trkpt>
<trkpt lat="57.128170" lon="9.299815">
<ele>30.279019</ele>
<time>2026-07-15T13:51:08.000Z</time>
</trkpt>
<trkpt lat="57.128185" lon="9.299845">
<ele>30.262558</ele>
<time>2026-07-15T13:51:09.000Z</time>
</trkpt>
<trkpt lat="57.128200" lon="9.299866">
<ele>30.248550</ele>
<time>2026-07-15T13:51:10.000Z</time>
</trkpt>
<trkpt lat="57.128223" lon="9.299882">
<ele>30.230270</ele>
<time>2026-07-15T13:51:11.000Z</time>
</trkpt>
<trkpt lat="57.128250" lon="9.299880">
<ele>30.210178</ele>
<time>2026-07-15T13:51:12.000Z</time>
</trkpt>
<trkpt lat="57.128281" lon="9.299863">
<ele>30.186129</ele>
<time>2026-07-15T13:51:13.000Z</time>
</trkpt>
<trkpt lat="57.128319" lon="9.299833">
<ele>30.155390</ele>
<time>2026-07-15T13:51:14.000Z</time>
</trkpt>
<trkpt lat="57.128357" lon="9.299800">
<ele>30.124154</ele>
<time>2026-07-15T13:51:15.000Z</time>
</trkpt>
<trkpt lat="57.128402" lon="9.299771">
<ele>30.088706</ele>
<time>2026-07-15T13:51:16.000Z</time>
</trkpt>
<trkpt lat="57.128449" lon="9.299755">
<ele>30.053168</ele>
<time>2026-07-15T13:51:17.000Z</time>
</trkpt>
<trkpt lat="57.128498" lon="9.299747">
<ele>30.016592</ele>
<time>2026-07-15T13:51:18.000Z</time>
</trkpt>
<trkpt lat="57.128539" lon="9.299740">
<ele>29.985976</ele>
<time>2026-07-15T13:51:19.000Z</time>
</trkpt>
<trkpt lat="57.128578" lon="9.299733">
<ele>29.956841</ele>
<time>2026-07-15T13:51:20.000Z</time>
</trkpt>
<trkpt lat="57.128620" lon="9.299725">
<ele>29.925445</ele>
<time>2026-07-15T13:51:21.000Z</time>
</trkpt>
<trkpt lat="57.128658" lon="9.299720">
<ele>29.897119</ele>
<time>2026-07-15T13:51:22.000Z</time>
</trkpt>
<trkpt lat="57.128708" lon="9.299720">
<ele>29.859942</ele>
<time>2026-07-15T13:51:23.000Z</time>
</trkpt>
<trkpt lat="57.128753" lon="9.299725">
<ele>29.826421</ele>
<time>2026-07-15T13:51:24.000Z</time>
</trkpt>
<trkpt lat="57.128804" lon="9.299733">
<ele>29.788364</ele>
<time>2026-07-15T13:51:25.000Z</time>
</trkpt>
<trkpt lat="57.128853" lon="9.299738">
<ele>29.751874</ele>
<time>2026-07-15T13:51:26.000Z</time>
</trkpt>
<trkpt lat="57.128906" lon="9.299745">
<ele>29.712365</ele>
<time>2026-07-15T13:51:27.000Z</time>
</trkpt>
<trkpt lat="57.128956" lon="9.299753">
<ele>29.675048</ele>
<time>2026-07-15T13:51:28.000Z</time>
</trkpt>
<trkpt lat="57.129009" lon="9.299762">
<ele>29.635473</ele>
<time>2026-07-15T13:51:29.000Z</time>
</trkpt>
<trkpt lat="57.129062" lon="9.299771">
<ele>29.595898</ele>
<time>2026-07-15T13:51:30.000Z</time>
</trkpt>
<trkpt lat="57.129116" lon="9.299788">
<ele>29.555165</ele>
<time>2026-07-15T13:51:31.000Z</time>
</trkpt>
<trkpt lat="57.129169" lon="9.299805">
<ele>29.515165</ele>
<time>2026-07-15T13:51:32.000Z</time>
</trkpt>
<trkpt lat="57.129223" lon="9.299822">
<ele>29.474432</ele>
<time>2026-07-15T13:51:33.000Z</time>
</trkpt>
<trkpt lat="57.129276" lon="9.299837">
<ele>29.434562</ele>
<time>2026-07-15T13:51:34.000Z</time>
</trkpt>
<trkpt lat="57.129333" lon="9.299849">
<ele>29.391904</ele>
<time>2026-07-15T13:51:35.000Z</time>
</trkpt>
<trkpt lat="57.129387" lon="9.299862">
<ele>29.351411</ele>
<time>2026-07-15T13:51:36.000Z</time>
</trkpt>
<trkpt lat="57.129444" lon="9.299869">
<ele>29.308935</ele>
<time>2026-07-15T13:51:37.000Z</time>
</trkpt>
<trkpt lat="57.129498" lon="9.299871">
<ele>29.268776</ele>
<time>2026-07-15T13:51:38.000Z</time>
</trkpt>
<trkpt lat="57.129555" lon="9.299867">
<ele>29.226363</ele>
<time>2026-07-15T13:51:39.000Z</time>
</trkpt>
<trkpt lat="57.129608" lon="9.299851">
<ele>29.186430</ele>
<time>2026-07-15T13:51:40.000Z</time>
</trkpt>
<trkpt lat="57.129661" lon="9.299829">
<ele>29.146034</ele>
<time>2026-07-15T13:51:41.000Z</time>
</trkpt>
<trkpt lat="57.129715" lon="9.299802">
<ele>29.104431</ele>
<time>2026-07-15T13:51:42.000Z</time>
</trkpt>
<trkpt lat="57.129765" lon="9.299770">
<ele>29.065075</ele>
<time>2026-07-15T13:51:43.000Z</time>
</trkpt>
<trkpt lat="57.129814" lon="9.299735">
<ele>29.032200</ele>
<time>2026-07-15T13:51:44.000Z</time>
</trkpt>
<trkpt lat="57.129857" lon="9.299702">
<ele>29.004980</ele>
<time>2026-07-15T13:51:45.000Z</time>
</trkpt>
<trkpt lat="57.129913" lon="9.299659">
<ele>28.969527</ele>
<time>2026-07-15T13:51:46.000Z</time>
</trkpt>
<trkpt lat="57.129959" lon="9.299620">
<ele>28.939937</ele>
<time>2026-07-15T13:51:47.000Z</time>
</trkpt>
<trkpt lat="57.130005" lon="9.299582">
<ele>28.910478</ele>
<time>2026-07-15T13:51:48.000Z</time>
</trkpt>
<trkpt lat="57.130047" lon="9.299543">
<ele>28.882995</ele>
<time>2026-07-15T13:51:49.000Z</time>
</trkpt>
<trkpt lat="57.130085" lon="9.299503">
<ele>28.857420</ele>
<time>2026-07-15T13:51:50.000Z</time>
</trkpt>
<trkpt lat="57.130123" lon="9.299463">
<ele>28.831846</ele>
<time>2026-07-15T13:51:51.000Z</time>
</trkpt>
<trkpt lat="57.130165" lon="9.299423">
<ele>28.804218</ele>
<time>2026-07-15T13:51:52.000Z</time>
</trkpt>
<trkpt lat="57.130211" lon="9.299380">
<ele>28.774076</ele>
<time>2026-07-15T13:51:53.000Z</time>
</trkpt>
<trkpt lat="57.130253" lon="9.299336">
<ele>28.745843</ele>
<time>2026-07-15T13:51:54.000Z</time>
</trkpt>
<trkpt lat="57.130291" lon="9.299290">
<ele>28.719273</ele>
<time>2026-07-15T13:51:55.000Z</time>
</trkpt>
<trkpt lat="57.130333" lon="9.299247">
<ele>28.691196</ele>
<time>2026-07-15T13:51:56.000Z</time>
</trkpt>
<trkpt lat="57.130375" lon="9.299203">
<ele>28.662963</ele>
<time>2026-07-15T13:51:57.000Z</time>
</trkpt>
<trkpt lat="57.130421" lon="9.299157">
<ele>28.632378</ele>
<time>2026-07-15T13:51:58.000Z</time>
</trkpt>
<trkpt lat="57.130467" lon="9.299111">
<ele>28.601794</ele>
<time>2026-07-15T13:51:59.000Z</time>
</trkpt>
<trkpt lat="57.130509" lon="9.299068">
<ele>28.573716</ele>
<time>2026-07-15T13:52:00.000Z</time>
</trkpt>
<trkpt lat="57.130558" lon="9.299024">
<ele>28.541863</ele>
<time>2026-07-15T13:52:01.000Z</time>
</trkpt>
<trkpt lat="57.130600" lon="9.298980">
<ele>28.513630</ele>
<time>2026-07-15T13:52:02.000Z</time>
</trkpt>
<trkpt lat="57.130649" lon="9.298935">
<ele>28.481636</ele>
<time>2026-07-15T13:52:03.000Z</time>
</trkpt>
<trkpt lat="57.130695" lon="9.298888">
<ele>28.450899</ele>
<time>2026-07-15T13:52:04.000Z</time>
</trkpt>
<trkpt lat="57.130741" lon="9.298841">
<ele>28.420162</ele>
<time>2026-07-15T13:52:05.000Z</time>
</trkpt>
<trkpt lat="57.130787" lon="9.298793">
<ele>28.389270</ele>
<time>2026-07-15T13:52:06.000Z</time>
</trkpt>
<trkpt lat="57.130833" lon="9.298747">
<ele>28.358686</ele>
<time>2026-07-15T13:52:07.000Z</time>
</trkpt>
<trkpt lat="57.130882" lon="9.298701">
<ele>28.326550</ele>
<time>2026-07-15T13:52:08.000Z</time>
</trkpt>
<trkpt lat="57.130928" lon="9.298655">
<ele>28.295966</ele>
<time>2026-07-15T13:52:09.000Z</time>
</trkpt>
<trkpt lat="57.130978" lon="9.298610">
<ele>28.263448</ele>
<time>2026-07-15T13:52:10.000Z</time>
</trkpt>
<trkpt lat="57.131023" lon="9.298567">
<ele>28.233826</ele>
<time>2026-07-15T13:52:11.000Z</time>
</trkpt>
<trkpt lat="57.131073" lon="9.298523">
<ele>28.201447</ele>
<time>2026-07-15T13:52:12.000Z</time>
</trkpt>
<trkpt lat="57.131118" lon="9.298478">
<ele>28.171527</ele>
<time>2026-07-15T13:52:13.000Z</time>
</trkpt>
<trkpt lat="57.131168" lon="9.298432">
<ele>28.138869</ele>
<time>2026-07-15T13:52:14.000Z</time>
</trkpt>
<trkpt lat="57.131214" lon="9.298386">
<ele>28.108285</ele>
<time>2026-07-15T13:52:15.000Z</time>
</trkpt>
<trkpt lat="57.131264" lon="9.298340">
<ele>28.075627</ele>
<time>2026-07-15T13:52:16.000Z</time>
</trkpt>
<trkpt lat="57.131310" lon="9.298297">
<ele>28.045485</ele>
<time>2026-07-15T13:52:17.000Z</time>
</trkpt>
<trkpt lat="57.131356" lon="9.298250">
<ele>28.014748</ele>
<time>2026-07-15T13:52:18.000Z</time>
</trkpt>
<trkpt lat="57.131405" lon="9.298204">
<ele>27.994841</ele>
<time>2026-07-15T13:52:19.000Z</time>
</trkpt>
<trkpt lat="57.131451" lon="9.298157">
<ele>27.981760</ele>
<time>2026-07-15T13:52:20.000Z</time>
</trkpt>
<trkpt lat="57.131497" lon="9.298110">
<ele>27.968678</ele>
<time>2026-07-15T13:52:21.000Z</time>
</trkpt>
<trkpt lat="57.131542" lon="9.298063">
<ele>27.955814</ele>
<time>2026-07-15T13:52:22.000Z</time>
</trkpt>
<trkpt lat="57.131592" lon="9.298017">
<ele>27.941915</ele>
<time>2026-07-15T13:52:23.000Z</time>
</trkpt>
<trkpt lat="57.131638" lon="9.297968">
<ele>27.928701</ele>
<time>2026-07-15T13:52:24.000Z</time>
</trkpt>
<trkpt lat="57.131684" lon="9.297916">
<ele>27.915280</ele>
<time>2026-07-15T13:52:25.000Z</time>
</trkpt>
<trkpt lat="57.131733" lon="9.297865">
<ele>27.901284</ele>
<time>2026-07-15T13:52:26.000Z</time>
</trkpt>
<trkpt lat="57.131779" lon="9.297815">
<ele>27.888002</ele>
<time>2026-07-15T13:52:27.000Z</time>
</trkpt>
<trkpt lat="57.131828" lon="9.297765">
<ele>27.874072</ele>
<time>2026-07-15T13:52:28.000Z</time>
</trkpt>
<trkpt lat="57.131874" lon="9.297713">
<ele>27.860650</ele>
<time>2026-07-15T13:52:29.000Z</time>
</trkpt>
<trkpt lat="57.131920" lon="9.297660">
<ele>27.847158</ele>
<time>2026-07-15T13:52:30.000Z</time>
</trkpt>
<trkpt lat="57.131965" lon="9.297609">
<ele>27.834019</ele>
<time>2026-07-15T13:52:31.000Z</time>
</trkpt>
<trkpt lat="57.132015" lon="9.297555">
<ele>27.819605</ele>
<time>2026-07-15T13:52:32.000Z</time>
</trkpt>
<trkpt lat="57.132061" lon="9.297504">
<ele>27.806254</ele>
<time>2026-07-15T13:52:33.000Z</time>
</trkpt>
<trkpt lat="57.132107" lon="9.297450">
<ele>27.792690</ele>
<time>2026-07-15T13:52:34.000Z</time>
</trkpt>
<trkpt lat="57.132155" lon="9.297398">
<ele>27.778842</ele>
<time>2026-07-15T13:52:35.000Z</time>
</trkpt>
<trkpt lat="57.132202" lon="9.297343">
<ele>27.764995</ele>
<time>2026-07-15T13:52:36.000Z</time>
</trkpt>
<trkpt lat="57.132248" lon="9.297290">
<ele>27.751503</ele>
<time>2026-07-15T13:52:37.000Z</time>
</trkpt>
<trkpt lat="57.132294" lon="9.297234">
<ele>27.737791</ele>
<time>2026-07-15T13:52:38.000Z</time>
</trkpt>
<trkpt lat="57.132343" lon="9.297183">
<ele>27.723795</ele>
<time>2026-07-15T13:52:39.000Z</time>
</trkpt>
<trkpt lat="57.132389" lon="9.297129">
<ele>27.710231</ele>
<time>2026-07-15T13:52:40.000Z</time>
</trkpt>
<trkpt lat="57.132439" lon="9.297076">
<ele>27.695885</ele>
<time>2026-07-15T13:52:41.000Z</time>
</trkpt>
<trkpt lat="57.132488" lon="9.297020">
<ele>27.681546</ele>
<time>2026-07-15T13:52:42.000Z</time>
</trkpt>
<trkpt lat="57.132530" lon="9.296964">
<ele>27.668652</ele>
<time>2026-07-15T13:52:43.000Z</time>
</trkpt>
<trkpt lat="57.132576" lon="9.296904">
<ele>27.654636</ele>
<time>2026-07-15T13:52:44.000Z</time>
</trkpt>
<trkpt lat="57.132622" lon="9.296843">
<ele>27.640542</ele>
<time>2026-07-15T13:52:45.000Z</time>
</trkpt>
<trkpt lat="57.132664" lon="9.296785">
<ele>27.627489</ele>
<time>2026-07-15T13:52:46.000Z</time>
</trkpt>
<trkpt lat="57.132713" lon="9.296725">
<ele>27.612857</ele>
<time>2026-07-15T13:52:47.000Z</time>
</trkpt>
<trkpt lat="57.132759" lon="9.296667">
<ele>27.598995</ele>
<time>2026-07-15T13:52:48.000Z</time>
</trkpt>
<trkpt lat="57.132805" lon="9.296612">
<ele>27.585358</ele>
<time>2026-07-15T13:52:49.000Z</time>
</trkpt>
<trkpt lat="57.132847" lon="9.296553">
<ele>27.572223</ele>
<time>2026-07-15T13:52:50.000Z</time>
</trkpt>
<trkpt lat="57.132889" lon="9.296496">
<ele>27.559251</ele>
<time>2026-07-15T13:52:51.000Z</time>
</trkpt>
<trkpt lat="57.132935" lon="9.296435">
<ele>27.553900</ele>
<time>2026-07-15T13:52:52.000Z</time>
</trkpt>
<trkpt lat="57.132977" lon="9.296373">
<ele>27.550758</ele>
<time>2026-07-15T13:52:53.000Z</time>
</trkpt>
<trkpt lat="57.133019" lon="9.296311">
<ele>27.547615</ele>
<time>2026-07-15T13:52:54.000Z</time>
</trkpt>
<trkpt lat="57.133060" lon="9.296250">
<ele>27.544539</ele>
<time>2026-07-15T13:52:55.000Z</time>
</trkpt>
<trkpt lat="57.133102" lon="9.296193">
<ele>27.541493</ele>
<time>2026-07-15T13:52:56.000Z</time>
</trkpt>
<trkpt lat="57.133148" lon="9.296134">
<ele>27.538220</ele>
<time>2026-07-15T13:52:57.000Z</time>
</trkpt>
<trkpt lat="57.133187" lon="9.296072">
<ele>27.535213</ele>
<time>2026-07-15T13:52:58.000Z</time>
</trkpt>
<trkpt lat="57.133228" lon="9.296010">
<ele>27.532116</ele>
<time>2026-07-15T13:52:59.000Z</time>
</trkpt>
<trkpt lat="57.133274" lon="9.295948">
<ele>27.528788</ele>
<time>2026-07-15T13:53:00.000Z</time>
</trkpt>
<trkpt lat="57.133316" lon="9.295887">
<ele>27.525666</ele>
<time>2026-07-15T13:53:01.000Z</time>
</trkpt>
<trkpt lat="57.133361" lon="9.295827">
<ele>27.522422</ele>
<time>2026-07-15T13:53:02.000Z</time>
</trkpt>
<trkpt lat="57.133404" lon="9.295763">
<ele>27.519195</ele>
<time>2026-07-15T13:53:03.000Z</time>
</trkpt>
<trkpt lat="57.133442" lon="9.295702">
<ele>27.516252</ele>
<time>2026-07-15T13:53:04.000Z</time>
</trkpt>
<trkpt lat="57.133483" lon="9.295639">
<ele>27.513135</ele>
<time>2026-07-15T13:53:05.000Z</time>
</trkpt>
<trkpt lat="57.133522" lon="9.295577">
<ele>27.510128</ele>
<time>2026-07-15T13:53:06.000Z</time>
</trkpt>
<trkpt lat="57.133564" lon="9.295517">
<ele>27.507025</ele>
<time>2026-07-15T13:53:07.000Z</time>
</trkpt>
<trkpt lat="57.133610" lon="9.295453">
<ele>27.503659</ele>
<time>2026-07-15T13:53:08.000Z</time>
</trkpt>
<trkpt lat="57.133652" lon="9.295388">
<ele>27.500456</ele>
<time>2026-07-15T13:53:09.000Z</time>
</trkpt>
<trkpt lat="57.133690" lon="9.295323">
<ele>27.497429</ele>
<time>2026-07-15T13:53:10.000Z</time>
</trkpt>
<trkpt lat="57.133732" lon="9.295259">
<ele>27.494247</ele>
<time>2026-07-15T13:53:11.000Z</time>
</trkpt>
<trkpt lat="57.133774" lon="9.295191">
<ele>27.490982</ele>
<time>2026-07-15T13:53:12.000Z</time>
</trkpt>
<trkpt lat="57.133816" lon="9.295121">
<ele>27.487676</ele>
<time>2026-07-15T13:53:13.000Z</time>
</trkpt>
<trkpt lat="57.133854" lon="9.295053">
<ele>27.484583</ele>
<time>2026-07-15T13:53:14.000Z</time>
</trkpt>
<trkpt lat="57.133896" lon="9.294985">
<ele>27.481318</ele>
<time>2026-07-15T13:53:15.000Z</time>
</trkpt>
<trkpt lat="57.133938" lon="9.294920">
<ele>27.478116</ele>
<time>2026-07-15T13:53:16.000Z</time>
</trkpt>
<trkpt lat="57.133976" lon="9.294853">
<ele>27.475045</ele>
<time>2026-07-15T13:53:17.000Z</time>
</trkpt>
<trkpt lat="57.134018" lon="9.294784">
<ele>27.471759</ele>
<time>2026-07-15T13:53:18.000Z</time>
</trkpt>
<trkpt lat="57.134056" lon="9.294720">
<ele>27.468753</ele>
<time>2026-07-15T13:53:19.000Z</time>
</trkpt>
<trkpt lat="57.134095" lon="9.294657">
<ele>27.465725</ele>
<time>2026-07-15T13:53:20.000Z</time>
</trkpt>
<trkpt lat="57.134135" lon="9.294583">
<ele>27.462416</ele>
<time>2026-07-15T13:53:21.000Z</time>
</trkpt>
<trkpt lat="57.134175" lon="9.294516">
<ele>27.459259</ele>
<time>2026-07-15T13:53:22.000Z</time>
</trkpt>
<trkpt lat="57.134215" lon="9.294443">
<ele>27.455972</ele>
<time>2026-07-15T13:53:23.000Z</time>
</trkpt>
<trkpt lat="57.134254" lon="9.294370">
<ele>27.452726</ele>
<time>2026-07-15T13:53:24.000Z</time>
</trkpt>
<trkpt lat="57.134293" lon="9.294293">
<ele>27.421748</ele>
<time>2026-07-15T13:53:25.000Z</time>
</trkpt>
<trkpt lat="57.134323" lon="9.294229">
<ele>27.384963</ele>
<time>2026-07-15T13:53:26.000Z</time>
</trkpt>
<trkpt lat="57.134363" lon="9.294148">
<ele>27.337328</ele>
<time>2026-07-15T13:53:27.000Z</time>
</trkpt>
<trkpt lat="57.134396" lon="9.294065">
<ele>27.292574</ele>
<time>2026-07-15T13:53:28.000Z</time>
</trkpt>
<trkpt lat="57.134430" lon="9.293986">
<ele>27.248718</ele>
<time>2026-07-15T13:53:29.000Z</time>
</trkpt>
<trkpt lat="57.134460" lon="9.293906">
<ele>27.206422</ele>
<time>2026-07-15T13:53:30.000Z</time>
</trkpt>
<trkpt lat="57.134495" lon="9.293822">
<ele>27.160358</ele>
<time>2026-07-15T13:53:31.000Z</time>
</trkpt>
<trkpt lat="57.134521" lon="9.293732">
<ele>27.116011</ele>
<time>2026-07-15T13:53:32.000Z</time>
</trkpt>
<trkpt lat="57.134548" lon="9.293643">
<ele>27.071661</ele>
<time>2026-07-15T13:53:33.000Z</time>
</trkpt>
<trkpt lat="57.134575" lon="9.293556">
<ele>27.028069</ele>
<time>2026-07-15T13:53:34.000Z</time>
</trkpt>
<trkpt lat="57.134605" lon="9.293469">
<ele>26.983235</ele>
<time>2026-07-15T13:53:35.000Z</time>
</trkpt>
<trkpt lat="57.134636" lon="9.293380">
<ele>26.937236</ele>
<time>2026-07-15T13:53:36.000Z</time>
</trkpt>
<trkpt lat="57.134663" lon="9.293290">
<ele>26.892506</ele>
<time>2026-07-15T13:53:37.000Z</time>
</trkpt>
<trkpt lat="57.134686" lon="9.293199">
<ele>26.848843</ele>
<time>2026-07-15T13:53:38.000Z</time>
</trkpt>
<trkpt lat="57.134712" lon="9.293110">
<ele>26.804880</ele>
<time>2026-07-15T13:53:39.000Z</time>
</trkpt>
<trkpt lat="57.134739" lon="9.293020">
<ele>26.760150</ele>
<time>2026-07-15T13:53:40.000Z</time>
</trkpt>
<trkpt lat="57.134762" lon="9.292925">
<ele>26.714904</ele>
<time>2026-07-15T13:53:41.000Z</time>
</trkpt>
<trkpt lat="57.134788" lon="9.292831">
<ele>26.669014</ele>
<time>2026-07-15T13:53:42.000Z</time>
</trkpt>
<trkpt lat="57.134811" lon="9.292736">
<ele>26.623768</ele>
<time>2026-07-15T13:53:43.000Z</time>
</trkpt>
<trkpt lat="57.134838" lon="9.292640">
<ele>26.576738</ele>
<time>2026-07-15T13:53:44.000Z</time>
</trkpt>
<trkpt lat="57.134865" lon="9.292546">
<ele>26.530478</ele>
<time>2026-07-15T13:53:45.000Z</time>
</trkpt>
<trkpt lat="57.134888" lon="9.292450">
<ele>26.484834</ele>
<time>2026-07-15T13:53:46.000Z</time>
</trkpt>
<trkpt lat="57.134911" lon="9.292355">
<ele>26.439588</ele>
<time>2026-07-15T13:53:47.000Z</time>
</trkpt>
<trkpt lat="57.134937" lon="9.292261">
<ele>26.393698</ele>
<time>2026-07-15T13:53:48.000Z</time>
</trkpt>
<trkpt lat="57.134960" lon="9.292167">
<ele>26.348849</ele>
<time>2026-07-15T13:53:49.000Z</time>
</trkpt>
<trkpt lat="57.134987" lon="9.292079">
<ele>26.304879</ele>
<time>2026-07-15T13:53:50.000Z</time>
</trkpt>
<trkpt lat="57.135010" lon="9.291991">
<ele>26.262396</ele>
<time>2026-07-15T13:53:51.000Z</time>
</trkpt>
<trkpt lat="57.135029" lon="9.291900">
<ele>26.219987</ele>
<time>2026-07-15T13:53:52.000Z</time>
</trkpt>
<trkpt lat="57.135052" lon="9.291812">
<ele>26.177503</ele>
<time>2026-07-15T13:53:53.000Z</time>
</trkpt>
<trkpt lat="57.135075" lon="9.291725">
<ele>26.135411</ele>
<time>2026-07-15T13:53:54.000Z</time>
</trkpt>
<trkpt lat="57.135097" lon="9.291642">
<ele>26.095234</ele>
<time>2026-07-15T13:53:55.000Z</time>
</trkpt>
<trkpt lat="57.135116" lon="9.291556">
<ele>26.054847</ele>
<time>2026-07-15T13:53:56.000Z</time>
</trkpt>
<trkpt lat="57.135143" lon="9.291465">
<ele>26.009636</ele>
<time>2026-07-15T13:53:57.000Z</time>
</trkpt>
<trkpt lat="57.135163" lon="9.291371">
<ele>25.942265</ele>
<time>2026-07-15T13:53:58.000Z</time>
</trkpt>
<trkpt lat="57.135185" lon="9.291275">
<ele>25.872732</ele>
<time>2026-07-15T13:53:59.000Z</time>
</trkpt>
<trkpt lat="57.135204" lon="9.291180">
<ele>25.805175</ele>
<time>2026-07-15T13:54:00.000Z</time>
</trkpt>
<trkpt lat="57.135223" lon="9.291086">
<ele>25.738244</ele>
<time>2026-07-15T13:54:01.000Z</time>
</trkpt>
<trkpt lat="57.135250" lon="9.290992">
<ele>25.667278</ele>
<time>2026-07-15T13:54:02.000Z</time>
</trkpt>
<trkpt lat="57.135277" lon="9.290897">
<ele>25.595722</ele>
<time>2026-07-15T13:54:03.000Z</time>
</trkpt>
<trkpt lat="57.135300" lon="9.290803">
<ele>25.526919</ele>
<time>2026-07-15T13:54:04.000Z</time>
</trkpt>
<trkpt lat="57.135326" lon="9.290713">
<ele>25.458887</ele>
<time>2026-07-15T13:54:05.000Z</time>
</trkpt>
<trkpt lat="57.135349" lon="9.290618">
<ele>25.389476</ele>
<time>2026-07-15T13:54:06.000Z</time>
</trkpt>
<trkpt lat="57.135372" lon="9.290520">
<ele>25.318233</ele>
<time>2026-07-15T13:54:07.000Z</time>
</trkpt>
<trkpt lat="57.135395" lon="9.290426">
<ele>25.249431</ele>
<time>2026-07-15T13:54:08.000Z</time>
</trkpt>
<trkpt lat="57.135422" lon="9.290330">
<ele>25.177283</ele>
<time>2026-07-15T13:54:09.000Z</time>
</trkpt>
<trkpt lat="57.135448" lon="9.290235">
<ele>25.106289</ele>
<time>2026-07-15T13:54:10.000Z</time>
</trkpt>
<trkpt lat="57.135475" lon="9.290142">
<ele>25.035912</ele>
<time>2026-07-15T13:54:11.000Z</time>
</trkpt>
<trkpt lat="57.135502" lon="9.290044">
<ele>24.962577</ele>
<time>2026-07-15T13:54:12.000Z</time>
</trkpt>
<trkpt lat="57.135528" lon="9.289951">
<ele>24.892773</ele>
<time>2026-07-15T13:54:13.000Z</time>
</trkpt>
<trkpt lat="57.135552" lon="9.289854">
<ele>24.821640</ele>
<time>2026-07-15T13:54:14.000Z</time>
</trkpt>
<trkpt lat="57.135574" lon="9.289759">
<ele>24.752721</ele>
<time>2026-07-15T13:54:15.000Z</time>
</trkpt>
<trkpt lat="57.135601" lon="9.289667">
<ele>24.682932</ele>
<time>2026-07-15T13:54:16.000Z</time>
</trkpt>
<trkpt lat="57.135632" lon="9.289574">
<ele>24.610107</ele>
<time>2026-07-15T13:54:17.000Z</time>
</trkpt>
<trkpt lat="57.135658" lon="9.289482">
<ele>24.540895</ele>
<time>2026-07-15T13:54:18.000Z</time>
</trkpt>
<trkpt lat="57.135685" lon="9.289389">
<ele>24.470518</ele>
<time>2026-07-15T13:54:19.000Z</time>
</trkpt>
<trkpt lat="57.135712" lon="9.289295">
<ele>24.399553</ele>
<time>2026-07-15T13:54:20.000Z</time>
</trkpt>
<trkpt lat="57.135742" lon="9.289207">
<ele>24.330211</ele>
<time>2026-07-15T13:54:21.000Z</time>
</trkpt>
<trkpt lat="57.135773" lon="9.289120">
<ele>24.260765</ele>
<time>2026-07-15T13:54:22.000Z</time>
</trkpt>
<trkpt lat="57.135807" lon="9.289039">
<ele>24.192436</ele>
<time>2026-07-15T13:54:23.000Z</time>
</trkpt>
<trkpt lat="57.135837" lon="9.288964">
<ele>24.130267</ele>
<time>2026-07-15T13:54:24.000Z</time>
</trkpt>
<trkpt lat="57.135866" lon="9.288902">
<ele>24.075651</ele>
<time>2026-07-15T13:54:25.000Z</time>
</trkpt>
<trkpt lat="57.135895" lon="9.288834">
<ele>24.017944</ele>
<time>2026-07-15T13:54:26.000Z</time>
</trkpt>
<trkpt lat="57.135922" lon="9.288767">
<ele>23.962260</ele>
<time>2026-07-15T13:54:27.000Z</time>
</trkpt>
<trkpt lat="57.135952" lon="9.288698">
<ele>23.903266</ele>
<time>2026-07-15T13:54:28.000Z</time>
</trkpt>
<trkpt lat="57.135983" lon="9.288627">
<ele>23.842461</ele>
<time>2026-07-15T13:54:29.000Z</time>
</trkpt>
<trkpt lat="57.136013" lon="9.288555">
<ele>23.782305</ele>
<time>2026-07-15T13:54:30.000Z</time>
</trkpt>
<trkpt lat="57.136043" lon="9.288479">
<ele>23.721173</ele>
<time>2026-07-15T13:54:31.000Z</time>
</trkpt>
<trkpt lat="57.136078" lon="9.288402">
<ele>23.655837</ele>
<time>2026-07-15T13:54:32.000Z</time>
</trkpt>
<trkpt lat="57.136108" lon="9.288327">
<ele>23.595230</ele>
<time>2026-07-15T13:54:33.000Z</time>
</trkpt>
<trkpt lat="57.136147" lon="9.288248">
<ele>23.525759</ele>
<time>2026-07-15T13:54:34.000Z</time>
</trkpt>
<trkpt lat="57.136177" lon="9.288176">
<ele>23.466711</ele>
<time>2026-07-15T13:54:35.000Z</time>
</trkpt>
<trkpt lat="57.136215" lon="9.288089">
<ele>23.394066</ele>
<time>2026-07-15T13:54:36.000Z</time>
</trkpt>
<trkpt lat="57.136246" lon="9.288009">
<ele>23.330122</ele>
<time>2026-07-15T13:54:37.000Z</time>
</trkpt>
<trkpt lat="57.136280" lon="9.287927">
<ele>23.262996</ele>
<time>2026-07-15T13:54:38.000Z</time>
</trkpt>
<trkpt lat="57.136314" lon="9.287845">
<ele>23.195869</ele>
<time>2026-07-15T13:54:39.000Z</time>
</trkpt>
<trkpt lat="57.136345" lon="9.287767">
<ele>23.132980</ele>
<time>2026-07-15T13:54:40.000Z</time>
</trkpt>
<trkpt lat="57.136379" lon="9.287689">
<ele>23.067901</ele>
<time>2026-07-15T13:54:41.000Z</time>
</trkpt>
<trkpt lat="57.136414" lon="9.287612">
<ele>23.002565</ele>
<time>2026-07-15T13:54:42.000Z</time>
</trkpt>
<trkpt lat="57.136444" lon="9.287535">
<ele>22.940906</ele>
<time>2026-07-15T13:54:43.000Z</time>
</trkpt>
<trkpt lat="57.136478" lon="9.287460">
<ele>22.877337</ele>
<time>2026-07-15T13:54:44.000Z</time>
</trkpt>
<trkpt lat="57.136505" lon="9.287389">
<ele>22.820943</ele>
<time>2026-07-15T13:54:45.000Z</time>
</trkpt>
<trkpt lat="57.136536" lon="9.287316">
<ele>22.760647</ele>
<time>2026-07-15T13:54:46.000Z</time>
</trkpt>
<trkpt lat="57.136566" lon="9.287247">
<ele>22.703135</ele>
<time>2026-07-15T13:54:47.000Z</time>
</trkpt>
<trkpt lat="57.136593" lon="9.287177">
<ele>22.647272</ele>
<time>2026-07-15T13:54:48.000Z</time>
</trkpt>
<trkpt lat="57.136620" lon="9.287111">
<ele>22.593509</ele>
<time>2026-07-15T13:54:49.000Z</time>
</trkpt>
<trkpt lat="57.136650" lon="9.287045">
<ele>22.537507</ele>
<time>2026-07-15T13:54:50.000Z</time>
</trkpt>
<trkpt lat="57.136677" lon="9.286977">
<ele>22.482699</ele>
<time>2026-07-15T13:54:51.000Z</time>
</trkpt>
<trkpt lat="57.136703" lon="9.286907">
<ele>22.427522</ele>
<time>2026-07-15T13:54:52.000Z</time>
</trkpt>
<trkpt lat="57.136738" lon="9.286834">
<ele>22.364158</ele>
<time>2026-07-15T13:54:53.000Z</time>
</trkpt>
<trkpt lat="57.136772" lon="9.286758">
<ele>22.300089</ele>
<time>2026-07-15T13:54:54.000Z</time>
</trkpt>
<trkpt lat="57.136806" lon="9.286679">
<ele>22.234503</ele>
<time>2026-07-15T13:54:55.000Z</time>
</trkpt>
<trkpt lat="57.136841" lon="9.286593">
<ele>22.164579</ele>
<time>2026-07-15T13:54:56.000Z</time>
</trkpt>
<trkpt lat="57.136875" lon="9.286507">
<ele>22.095367</ele>
<time>2026-07-15T13:54:57.000Z</time>
</trkpt>
<trkpt lat="57.136906" lon="9.286417">
<ele>22.026028</ele>
<time>2026-07-15T13:54:58.000Z</time>
</trkpt>
<trkpt lat="57.136940" lon="9.286328">
<ele>21.955230</ele>
<time>2026-07-15T13:54:59.000Z</time>
</trkpt>
<trkpt lat="57.136973" lon="9.286244">
<ele>21.887775</ele>
<time>2026-07-15T13:55:00.000Z</time>
</trkpt>
<trkpt lat="57.137008" lon="9.286153">
<ele>21.815223</ele>
<time>2026-07-15T13:55:01.000Z</time>
</trkpt>
<trkpt lat="57.137043" lon="9.286062">
<ele>21.742671</ele>
<time>2026-07-15T13:55:02.000Z</time>
</trkpt>
<trkpt lat="57.137077" lon="9.285974">
<ele>21.672404</ele>
<time>2026-07-15T13:55:03.000Z</time>
</trkpt>
<trkpt lat="57.137112" lon="9.285885">
<ele>21.604084</ele>
<time>2026-07-15T13:55:04.000Z</time>
</trkpt>
<trkpt lat="57.137150" lon="9.285798">
<ele>21.537014</ele>
<time>2026-07-15T13:55:05.000Z</time>
</trkpt>
<trkpt lat="57.137184" lon="9.285710">
<ele>21.472139</ele>
<time>2026-07-15T13:55:06.000Z</time>
</trkpt>
<trkpt lat="57.137222" lon="9.285620">
<ele>21.403656</ele>
<time>2026-07-15T13:55:07.000Z</time>
</trkpt>
<trkpt lat="57.137260" lon="9.285532">
<ele>21.336117</ele>
<time>2026-07-15T13:55:08.000Z</time>
</trkpt>
<trkpt lat="57.137299" lon="9.285443">
<ele>21.267417</ele>
<time>2026-07-15T13:55:09.000Z</time>
</trkpt>
<trkpt lat="57.137337" lon="9.285354">
<ele>21.199407</ele>
<time>2026-07-15T13:55:10.000Z</time>
</trkpt>
<trkpt lat="57.137375" lon="9.285264">
<ele>21.130924</ele>
<time>2026-07-15T13:55:11.000Z</time>
</trkpt>
<trkpt lat="57.137413" lon="9.285176">
<ele>21.063385</ele>
<time>2026-07-15T13:55:12.000Z</time>
</trkpt>
<trkpt lat="57.137451" lon="9.285087">
<ele>20.995376</ele>
<time>2026-07-15T13:55:13.000Z</time>
</trkpt>
<trkpt lat="57.137486" lon="9.285000">
<ele>20.930336</ele>
<time>2026-07-15T13:55:14.000Z</time>
</trkpt>
<trkpt lat="57.137523" lon="9.284916">
<ele>20.865363</ele>
<time>2026-07-15T13:55:15.000Z</time>
</trkpt>
<trkpt lat="57.137561" lon="9.284832">
<ele>20.799687</ele>
<time>2026-07-15T13:55:16.000Z</time>
</trkpt>
<trkpt lat="57.137599" lon="9.284745">
<ele>20.732617</ele>
<time>2026-07-15T13:55:17.000Z</time>
</trkpt>
<trkpt lat="57.137633" lon="9.284662">
<ele>20.670165</ele>
<time>2026-07-15T13:55:18.000Z</time>
</trkpt>
<trkpt lat="57.137671" lon="9.284580">
<ele>20.605407</ele>
<time>2026-07-15T13:55:19.000Z</time>
</trkpt>
<trkpt lat="57.137711" lon="9.284491">
<ele>20.536007</ele>
<time>2026-07-15T13:55:20.000Z</time>
</trkpt>
<trkpt lat="57.137748" lon="9.284410">
<ele>20.472422</ele>
<time>2026-07-15T13:55:21.000Z</time>
</trkpt>
<trkpt lat="57.137790" lon="9.284328">
<ele>20.404706</ele>
<time>2026-07-15T13:55:22.000Z</time>
</trkpt>
<trkpt lat="57.137823" lon="9.284251">
<ele>20.345782</ele>
<time>2026-07-15T13:55:23.000Z</time>
</trkpt>
<trkpt lat="57.137865" lon="9.284171">
<ele>20.278933</ele>
<time>2026-07-15T13:55:24.000Z</time>
</trkpt>
<trkpt lat="57.137905" lon="9.284092">
<ele>20.214045</ele>
<time>2026-07-15T13:55:25.000Z</time>
</trkpt>
<trkpt lat="57.137946" lon="9.284022">
<ele>20.152190</ele>
<time>2026-07-15T13:55:26.000Z</time>
</trkpt>
<trkpt lat="57.137995" lon="9.283954">
<ele>20.084305</ele>
<time>2026-07-15T13:55:27.000Z</time>
</trkpt>
<trkpt lat="57.138042" lon="9.283888">
<ele>20.018909</ele>
<time>2026-07-15T13:55:28.000Z</time>
</trkpt>
<trkpt lat="57.138092" lon="9.283829">
<ele>19.953202</ele>
<time>2026-07-15T13:55:29.000Z</time>
</trkpt>
<trkpt lat="57.138141" lon="9.283774">
<ele>19.889706</ele>
<time>2026-07-15T13:55:30.000Z</time>
</trkpt>
<trkpt lat="57.138194" lon="9.283723">
<ele>19.823536</ele>
<time>2026-07-15T13:55:31.000Z</time>
</trkpt>
<trkpt lat="57.138245" lon="9.283675">
<ele>19.760158</ele>
<time>2026-07-15T13:55:32.000Z</time>
</trkpt>
<trkpt lat="57.138294" lon="9.283629">
<ele>19.699298</ele>
<time>2026-07-15T13:55:33.000Z</time>
</trkpt>
<trkpt lat="57.138340" lon="9.283584">
<ele>19.646301</ele>
<time>2026-07-15T13:55:34.000Z</time>
</trkpt>
<trkpt lat="57.138388" lon="9.283546">
<ele>19.615244</ele>
<time>2026-07-15T13:55:35.000Z</time>
</trkpt>
<trkpt lat="57.138443" lon="9.283506">
<ele>19.580092</ele>
<time>2026-07-15T13:55:36.000Z</time>
</trkpt>
<trkpt lat="57.138492" lon="9.283477">
<ele>19.549496</ele>
<time>2026-07-15T13:55:37.000Z</time>
</trkpt>
<trkpt lat="57.138538" lon="9.283450">
<ele>19.520796</ele>
<time>2026-07-15T13:55:38.000Z</time>
</trkpt>
<trkpt lat="57.138587" lon="9.283426">
<ele>19.490654</ele>
<time>2026-07-15T13:55:39.000Z</time>
</trkpt>
<trkpt lat="57.138637" lon="9.283403">
<ele>19.460017</ele>
<time>2026-07-15T13:55:40.000Z</time>
</trkpt>
<trkpt lat="57.138687" lon="9.283386">
<ele>19.429790</ele>
<time>2026-07-15T13:55:41.000Z</time>
</trkpt>
<trkpt lat="57.138739" lon="9.283377">
<ele>19.398740</ele>
<time>2026-07-15T13:55:42.000Z</time>
</trkpt>
<trkpt lat="57.138781" lon="9.283374">
<ele>19.373752</ele>
<time>2026-07-15T13:55:43.000Z</time>
</trkpt>
<trkpt lat="57.138840" lon="9.283373">
<ele>19.338675</ele>
<time>2026-07-15T13:55:44.000Z</time>
</trkpt>
<trkpt lat="57.138896" lon="9.283379">
<ele>19.305327</ele>
<time>2026-07-15T13:55:45.000Z</time>
</trkpt>
<trkpt lat="57.138946" lon="9.283385">
<ele>19.275539</ele>
<time>2026-07-15T13:55:46.000Z</time>
</trkpt>
<trkpt lat="57.139000" lon="9.283392">
<ele>19.243356</ele>
<time>2026-07-15T13:55:47.000Z</time>
</trkpt>
<trkpt lat="57.139049" lon="9.283399">
<ele>19.214138</ele>
<time>2026-07-15T13:55:48.000Z</time>
</trkpt>
<trkpt lat="57.139095" lon="9.283408">
<ele>19.186638</ele>
<time>2026-07-15T13:55:49.000Z</time>
</trkpt>
<trkpt lat="57.139137" lon="9.283417">
<ele>19.161500</ele>
<time>2026-07-15T13:55:50.000Z</time>
</trkpt>
<trkpt lat="57.139178" lon="9.283426">
<ele>19.136953</ele>
<time>2026-07-15T13:55:51.000Z</time>
</trkpt>
<trkpt lat="57.139211" lon="9.283436">
<ele>19.117071</ele>
<time>2026-07-15T13:55:52.000Z</time>
</trkpt>
<trkpt lat="57.139240" lon="9.283452">
<ele>19.099075</ele>
<time>2026-07-15T13:55:53.000Z</time>
</trkpt>
<trkpt lat="57.139255" lon="9.283475">
<ele>19.087475</ele>
<time>2026-07-15T13:55:54.000Z</time>
</trkpt>
<trkpt lat="57.139266" lon="9.283505">
<ele>19.075795</ele>
<time>2026-07-15T13:55:55.000Z</time>
</trkpt>
<trkpt lat="57.139275" lon="9.283537">
<ele>19.064168</ele>
<time>2026-07-15T13:55:56.000Z</time>
</trkpt>
<trkpt lat="57.139278" lon="9.283566">
<ele>19.054645</ele>
<time>2026-07-15T13:55:57.000Z</time>
</trkpt>
<trkpt lat="57.139278" lon="9.283592">
<ele>19.046258</ele>
<time>2026-07-15T13:55:58.000Z</time>
</trkpt>
<trkpt lat="57.139319" lon="9.283687">
<ele>19.007102</ele>
<time>2026-07-15T13:56:13.000Z</time>
</trkpt>
<trkpt lat="57.139335" lon="9.283727">
<ele>18.991072</ele>
<time>2026-07-15T13:56:14.000Z</time>
</trkpt>
<trkpt lat="57.139347" lon="9.283778">
<ele>18.973140</ele>
<time>2026-07-15T13:56:15.000Z</time>
</trkpt>
<trkpt lat="57.139358" lon="9.283836">
<ele>18.953321</ele>
<time>2026-07-15T13:56:16.000Z</time>
</trkpt>
<trkpt lat="57.139362" lon="9.283901">
<ele>18.932219</ele>
<time>2026-07-15T13:56:17.000Z</time>
</trkpt>
<trkpt lat="57.139362" lon="9.283973">
<ele>18.908993</ele>
<time>2026-07-15T13:56:18.000Z</time>
</trkpt>
<trkpt lat="57.139362" lon="9.284042">
<ele>18.886736</ele>
<time>2026-07-15T13:56:19.000Z</time>
</trkpt>
<trkpt lat="57.139355" lon="9.284112">
<ele>18.863775</ele>
<time>2026-07-15T13:56:20.000Z</time>
</trkpt>
<trkpt lat="57.139344" lon="9.284183">
<ele>18.839957</ele>
<time>2026-07-15T13:56:21.000Z</time>
</trkpt>
<trkpt lat="57.139332" lon="9.284258">
<ele>18.814734</ele>
<time>2026-07-15T13:56:22.000Z</time>
</trkpt>
<trkpt lat="57.139320" lon="9.284333">
<ele>18.789511</ele>
<time>2026-07-15T13:56:23.000Z</time>
</trkpt>
<trkpt lat="57.139309" lon="9.284409">
<ele>18.764138</ele>
<time>2026-07-15T13:56:24.000Z</time>
</trkpt>
<trkpt lat="57.139294" lon="9.284485">
<ele>18.738051</ele>
<time>2026-07-15T13:56:25.000Z</time>
</trkpt>
<trkpt lat="57.139282" lon="9.284563">
<ele>18.711898</ele>
<time>2026-07-15T13:56:26.000Z</time>
</trkpt>
<trkpt lat="57.139267" lon="9.284641">
<ele>18.685203</ele>
<time>2026-07-15T13:56:27.000Z</time>
</trkpt>
<trkpt lat="57.139259" lon="9.284723">
<ele>18.658328</ele>
<time>2026-07-15T13:56:28.000Z</time>
</trkpt>
<trkpt lat="57.139252" lon="9.284809">
<ele>18.630276</ele>
<time>2026-07-15T13:56:29.000Z</time>
</trkpt>
<trkpt lat="57.139240" lon="9.284895">
<ele>18.601632</ele>
<time>2026-07-15T13:56:30.000Z</time>
</trkpt>
<trkpt lat="57.139236" lon="9.284983">
<ele>18.582665</ele>
<time>2026-07-15T13:56:31.000Z</time>
</trkpt>
<trkpt lat="57.139229" lon="9.285075">
<ele>18.583556</ele>
<time>2026-07-15T13:56:32.000Z</time>
</trkpt>
<trkpt lat="57.139225" lon="9.285165">
<ele>18.584422</ele>
<time>2026-07-15T13:56:33.000Z</time>
</trkpt>
<trkpt lat="57.139217" lon="9.285252">
<ele>18.585269</ele>
<time>2026-07-15T13:56:34.000Z</time>
</trkpt>
<trkpt lat="57.139210" lon="9.285341">
<ele>18.586132</ele>
<time>2026-07-15T13:56:35.000Z</time>
</trkpt>
<trkpt lat="57.139202" lon="9.285431">
<ele>18.587007</ele>
<time>2026-07-15T13:56:36.000Z</time>
</trkpt>
<trkpt lat="57.139187" lon="9.285517">
<ele>18.587874</ele>
<time>2026-07-15T13:56:37.000Z</time>
</trkpt>
<trkpt lat="57.139172" lon="9.285603">
<ele>18.588741</ele>
<time>2026-07-15T13:56:38.000Z</time>
</trkpt>
<trkpt lat="57.139149" lon="9.285686">
<ele>18.589635</ele>
<time>2026-07-15T13:56:39.000Z</time>
</trkpt>
<trkpt lat="57.139126" lon="9.285769">
<ele>18.590529</ele>
<time>2026-07-15T13:56:40.000Z</time>
</trkpt>
<trkpt lat="57.139107" lon="9.285852">
<ele>18.591394</ele>
<time>2026-07-15T13:56:41.000Z</time>
</trkpt>
<trkpt lat="57.139084" lon="9.285935">
<ele>18.592288</ele>
<time>2026-07-15T13:56:42.000Z</time>
</trkpt>
<trkpt lat="57.139065" lon="9.286015">
<ele>18.593126</ele>
<time>2026-07-15T13:56:43.000Z</time>
</trkpt>
<trkpt lat="57.139042" lon="9.286095">
<ele>18.593995</ele>
<time>2026-07-15T13:56:44.000Z</time>
</trkpt>
<trkpt lat="57.139027" lon="9.286177">
<ele>18.594825</ele>
<time>2026-07-15T13:56:45.000Z</time>
</trkpt>
<trkpt lat="57.139019" lon="9.286262">
<ele>18.595653</ele>
<time>2026-07-15T13:56:46.000Z</time>
</trkpt>
<trkpt lat="57.139015" lon="9.286347">
<ele>18.596472</ele>
<time>2026-07-15T13:56:47.000Z</time>
</trkpt>
<trkpt lat="57.139011" lon="9.286437">
<ele>18.597338</ele>
<time>2026-07-15T13:56:48.000Z</time>
</trkpt>
<trkpt lat="57.139011" lon="9.286529">
<ele>18.598221</ele>
<time>2026-07-15T13:56:49.000Z</time>
</trkpt>
<trkpt lat="57.139015" lon="9.286619">
<ele>18.599088</ele>
<time>2026-07-15T13:56:50.000Z</time>
</trkpt>
<trkpt lat="57.139015" lon="9.286714">
<ele>18.599999</ele>
<time>2026-07-15T13:56:51.000Z</time>
</trkpt>
<trkpt lat="57.139015" lon="9.286808">
<ele>18.600901</ele>
<time>2026-07-15T13:56:52.000Z</time>
</trkpt>
<trkpt lat="57.139023" lon="9.286904">
<ele>18.601833</ele>
<time>2026-07-15T13:56:53.000Z</time>
</trkpt>
<trkpt lat="57.139027" lon="9.286996">
<ele>18.602719</ele>
<time>2026-07-15T13:56:54.000Z</time>
</trkpt>
<trkpt lat="57.139027" lon="9.287087">
<ele>18.603592</ele>
<time>2026-07-15T13:56:55.000Z</time>
</trkpt>
<trkpt lat="57.139027" lon="9.287185">
<ele>18.604532</ele>
<time>2026-07-15T13:56:56.000Z</time>
</trkpt>
<trkpt lat="57.139023" lon="9.287276">
<ele>18.605408</ele>
<time>2026-07-15T13:56:57.000Z</time>
</trkpt>
<trkpt lat="57.139015" lon="9.287364">
<ele>18.606265</ele>
<time>2026-07-15T13:56:58.000Z</time>
</trkpt>
<trkpt lat="57.139004" lon="9.287446">
<ele>18.607075</ele>
<time>2026-07-15T13:56:59.000Z</time>
</trkpt>
<trkpt lat="57.138989" lon="9.287530">
<ele>18.607924</ele>
<time>2026-07-15T13:57:00.000Z</time>
</trkpt>
<trkpt lat="57.138973" lon="9.287608">
<ele>18.608724</ele>
<time>2026-07-15T13:57:01.000Z</time>
</trkpt>
<trkpt lat="57.138962" lon="9.287684">
<ele>18.609479</ele>
<time>2026-07-15T13:57:02.000Z</time>
</trkpt>
<trkpt lat="57.138951" lon="9.287762">
<ele>18.610252</ele>
<time>2026-07-15T13:57:03.000Z</time>
</trkpt>
<trkpt lat="57.138947" lon="9.287845">
<ele>18.611052</ele>
<time>2026-07-15T13:57:04.000Z</time>
</trkpt>
<trkpt lat="57.138943" lon="9.287922">
<ele>18.611794</ele>
<time>2026-07-15T13:57:05.000Z</time>
</trkpt>
<trkpt lat="57.138943" lon="9.288004">
<ele>18.612581</ele>
<time>2026-07-15T13:57:06.000Z</time>
</trkpt>
<trkpt lat="57.138946" lon="9.288083">
<ele>18.613341</ele>
<time>2026-07-15T13:57:07.000Z</time>
</trkpt>
<trkpt lat="57.138954" lon="9.288158">
<ele>18.614074</ele>
<time>2026-07-15T13:57:08.000Z</time>
</trkpt>
<trkpt lat="57.138958" lon="9.288235">
<ele>18.695741</ele>
<time>2026-07-15T13:57:09.000Z</time>
</trkpt>
<trkpt lat="57.138962" lon="9.288307">
<ele>18.787305</ele>
<time>2026-07-15T13:57:10.000Z</time>
</trkpt>
<trkpt lat="57.138958" lon="9.288379">
<ele>18.878868</ele>
<time>2026-07-15T13:57:11.000Z</time>
</trkpt>
<trkpt lat="57.138954" lon="9.288448">
<ele>18.966657</ele>
<time>2026-07-15T13:57:12.000Z</time>
</trkpt>
<trkpt lat="57.138950" lon="9.288515">
<ele>19.051931</ele>
<time>2026-07-15T13:57:13.000Z</time>
</trkpt>
<trkpt lat="57.138943" lon="9.288578">
<ele>19.133286</ele>
<time>2026-07-15T13:57:14.000Z</time>
</trkpt>
<trkpt lat="57.138937" lon="9.288631">
<ele>19.201780</ele>
<time>2026-07-15T13:57:15.000Z</time>
</trkpt>
<trkpt lat="57.138920" lon="9.288707">
<ele>19.305778</ele>
<time>2026-07-15T13:57:16.000Z</time>
</trkpt>
<trkpt lat="57.138905" lon="9.288771">
<ele>19.393975</ele>
<time>2026-07-15T13:57:17.000Z</time>
</trkpt>
<trkpt lat="57.138890" lon="9.288835">
<ele>19.482172</ele>
<time>2026-07-15T13:57:18.000Z</time>
</trkpt>
<trkpt lat="57.138875" lon="9.288899">
<ele>19.570369</ele>
<time>2026-07-15T13:57:19.000Z</time>
</trkpt>
<trkpt lat="57.138859" lon="9.288965">
<ele>19.661820</ele>
<time>2026-07-15T13:57:20.000Z</time>
</trkpt>
<trkpt lat="57.138844" lon="9.289030">
<ele>19.751180</ele>
<time>2026-07-15T13:57:21.000Z</time>
</trkpt>
<trkpt lat="57.138828" lon="9.289095">
<ele>19.841478</ele>
<time>2026-07-15T13:57:22.000Z</time>
</trkpt>
<trkpt lat="57.138813" lon="9.289157">
<ele>19.927359</ele>
<time>2026-07-15T13:57:23.000Z</time>
</trkpt>
<trkpt lat="57.138798" lon="9.289220">
<ele>20.014396</ele>
<time>2026-07-15T13:57:24.000Z</time>
</trkpt>
<trkpt lat="57.138784" lon="9.289281">
<ele>20.098187</ele>
<time>2026-07-15T13:57:25.000Z</time>
</trkpt>
<trkpt lat="57.138771" lon="9.289343">
<ele>20.182276</ele>
<time>2026-07-15T13:57:26.000Z</time>
</trkpt>
<trkpt lat="57.138754" lon="9.289404">
<ele>20.269032</ele>
<time>2026-07-15T13:57:27.000Z</time>
</trkpt>
<trkpt lat="57.138737" lon="9.289465">
<ele>20.355787</ele>
<time>2026-07-15T13:57:28.000Z</time>
</trkpt>
<trkpt lat="57.138718" lon="9.289523">
<ele>20.441499</ele>
<time>2026-07-15T13:57:29.000Z</time>
</trkpt>
<trkpt lat="57.138699" lon="9.289581">
<ele>20.527211</ele>
<time>2026-07-15T13:57:30.000Z</time>
</trkpt>
<trkpt lat="57.138683" lon="9.289641">
<ele>20.611789</ele>
<time>2026-07-15T13:57:31.000Z</time>
</trkpt>
<trkpt lat="57.138672" lon="9.289705">
<ele>20.696721</ele>
<time>2026-07-15T13:57:32.000Z</time>
</trkpt>
<trkpt lat="57.138661" lon="9.289768">
<ele>20.780448</ele>
<time>2026-07-15T13:57:33.000Z</time>
</trkpt>
<trkpt lat="57.138653" lon="9.289833">
<ele>20.864769</ele>
<time>2026-07-15T13:57:34.000Z</time>
</trkpt>
<trkpt lat="57.138643" lon="9.289898">
<ele>20.950243</ele>
<time>2026-07-15T13:57:35.000Z</time>
</trkpt>
<trkpt lat="57.138634" lon="9.289964">
<ele>21.036337</ele>
<time>2026-07-15T13:57:36.000Z</time>
</trkpt>
<trkpt lat="57.138630" lon="9.290025">
<ele>21.114070</ele>
<time>2026-07-15T13:57:37.000Z</time>
</trkpt>
<trkpt lat="57.138626" lon="9.290089">
<ele>21.195573</ele>
<time>2026-07-15T13:57:38.000Z</time>
</trkpt>
<trkpt lat="57.138622" lon="9.290151">
<ele>21.274562</ele>
<time>2026-07-15T13:57:39.000Z</time>
</trkpt>
<trkpt lat="57.138618" lon="9.290216">
<ele>21.357322</ele>
<time>2026-07-15T13:57:40.000Z</time>
</trkpt>
<trkpt lat="57.138617" lon="9.290282">
<ele>21.440852</ele>
<time>2026-07-15T13:57:41.000Z</time>
</trkpt>
<trkpt lat="57.138615" lon="9.290348">
<ele>21.524480</ele>
<time>2026-07-15T13:57:42.000Z</time>
</trkpt>
<trkpt lat="57.138615" lon="9.290413">
<ele>21.606712</ele>
<time>2026-07-15T13:57:43.000Z</time>
</trkpt>
<trkpt lat="57.138618" lon="9.290477">
<ele>21.687981</ele>
<time>2026-07-15T13:57:44.000Z</time>
</trkpt>
<trkpt lat="57.138624" lon="9.290542">
<ele>21.771395</ele>
<time>2026-07-15T13:57:45.000Z</time>
</trkpt>
<trkpt lat="57.138630" lon="9.290608">
<ele>21.856056</ele>
<time>2026-07-15T13:57:46.000Z</time>
</trkpt>
<trkpt lat="57.138636" lon="9.290675">
<ele>21.941966</ele>
<time>2026-07-15T13:57:47.000Z</time>
</trkpt>
<trkpt lat="57.138641" lon="9.290742">
<ele>22.027526</ele>
<time>2026-07-15T13:57:48.000Z</time>
</trkpt>
<trkpt lat="57.138645" lon="9.290811">
<ele>22.115316</ele>
<time>2026-07-15T13:57:49.000Z</time>
</trkpt>
<trkpt lat="57.138649" lon="9.290876">
<ele>22.198075</ele>
<time>2026-07-15T13:57:50.000Z</time>
</trkpt>
<trkpt lat="57.138645" lon="9.290933">
<ele>22.270787</ele>
<time>2026-07-15T13:57:51.000Z</time>
</trkpt>
<trkpt lat="57.138641" lon="9.290985">
<ele>22.337231</ele>
<time>2026-07-15T13:57:52.000Z</time>
</trkpt>
<trkpt lat="57.138634" lon="9.291036">
<ele>22.403784</ele>
<time>2026-07-15T13:57:53.000Z</time>
</trkpt>
<trkpt lat="57.138630" lon="9.291088">
<ele>22.470228</ele>
<time>2026-07-15T13:57:54.000Z</time>
</trkpt>
<trkpt lat="57.138619" lon="9.291140">
<ele>22.540836</ele>
<time>2026-07-15T13:57:55.000Z</time>
</trkpt>
<trkpt lat="57.138611" lon="9.291193">
<ele>22.610433</ele>
<time>2026-07-15T13:57:56.000Z</time>
</trkpt>
<trkpt lat="57.138603" lon="9.291250">
<ele>22.684918</ele>
<time>2026-07-15T13:57:57.000Z</time>
</trkpt>
<trkpt lat="57.138603" lon="9.291298">
<ele>22.745643</ele>
<time>2026-07-15T13:57:58.000Z</time>
</trkpt>
<trkpt lat="57.138607" lon="9.291347">
<ele>22.807998</ele>
<time>2026-07-15T13:57:59.000Z</time>
</trkpt>
<trkpt lat="57.138615" lon="9.291395">
<ele>22.830942</ele>
<time>2026-07-15T13:58:00.000Z</time>
</trkpt>
<trkpt lat="57.138622" lon="9.291445">
<ele>22.854536</ele>
<time>2026-07-15T13:58:01.000Z</time>
</trkpt>
<trkpt lat="57.138634" lon="9.291493">
<ele>22.878685</ele>
<time>2026-07-15T13:58:02.000Z</time>
</trkpt>
<trkpt lat="57.138649" lon="9.291540">
<ele>22.903599</ele>
<time>2026-07-15T13:58:03.000Z</time>
</trkpt>
<trkpt lat="57.138660" lon="9.291590">
<ele>22.928252</ele>
<time>2026-07-15T13:58:04.000Z</time>
</trkpt>
<trkpt lat="57.138672" lon="9.291641">
<ele>22.953652</ele>
<time>2026-07-15T13:58:05.000Z</time>
</trkpt>
<trkpt lat="57.138683" lon="9.291694">
<ele>22.979580</ele>
<time>2026-07-15T13:58:06.000Z</time>
</trkpt>
<trkpt lat="57.138695" lon="9.291752">
<ele>23.007943</ele>
<time>2026-07-15T13:58:07.000Z</time>
</trkpt>
<trkpt lat="57.138702" lon="9.291812">
<ele>23.035985</ele>
<time>2026-07-15T13:58:08.000Z</time>
</trkpt>
<trkpt lat="57.138710" lon="9.291873">
<ele>23.064660</ele>
<time>2026-07-15T13:58:09.000Z</time>
</trkpt>
<trkpt lat="57.138714" lon="9.291940">
<ele>23.095458</ele>
<time>2026-07-15T13:58:10.000Z</time>
</trkpt>
<trkpt lat="57.138710" lon="9.292008">
<ele>23.126711</ele>
<time>2026-07-15T13:58:11.000Z</time>
</trkpt>
<trkpt lat="57.138702" lon="9.292073">
<ele>23.157166</ele>
<time>2026-07-15T13:58:12.000Z</time>
</trkpt>
<trkpt lat="57.138691" lon="9.292138">
<ele>23.188277</ele>
<time>2026-07-15T13:58:13.000Z</time>
</trkpt>
<trkpt lat="57.138679" lon="9.292203">
<ele>23.219649</ele>
<time>2026-07-15T13:58:14.000Z</time>
</trkpt>
<trkpt lat="57.138664" lon="9.292271">
<ele>23.253189</ele>
<time>2026-07-15T13:58:15.000Z</time>
</trkpt>
<trkpt lat="57.138645" lon="9.292338">
<ele>23.287732</ele>
<time>2026-07-15T13:58:16.000Z</time>
</trkpt>
<trkpt lat="57.138630" lon="9.292402">
<ele>23.319586</ele>
<time>2026-07-15T13:58:17.000Z</time>
</trkpt>
<trkpt lat="57.138607" lon="9.292472">
<ele>23.356978</ele>
<time>2026-07-15T13:58:18.000Z</time>
</trkpt>
<trkpt lat="57.138588" lon="9.292538">
<ele>23.391117</ele>
<time>2026-07-15T13:58:19.000Z</time>
</trkpt>
<trkpt lat="57.138565" lon="9.292605">
<ele>23.427343</ele>
<time>2026-07-15T13:58:20.000Z</time>
</trkpt>
<trkpt lat="57.138542" lon="9.292672">
<ele>23.463569</ele>
<time>2026-07-15T13:58:21.000Z</time>
</trkpt>
<trkpt lat="57.138519" lon="9.292741">
<ele>23.500571</ele>
<time>2026-07-15T13:58:22.000Z</time>
</trkpt>
<trkpt lat="57.138500" lon="9.292810">
<ele>23.535926</ele>
<time>2026-07-15T13:58:23.000Z</time>
</trkpt>
<trkpt lat="57.138481" lon="9.292878">
<ele>23.570875</ele>
<time>2026-07-15T13:58:24.000Z</time>
</trkpt>
<trkpt lat="57.138463" lon="9.292943">
<ele>23.604219</ele>
<time>2026-07-15T13:58:25.000Z</time>
</trkpt>
<trkpt lat="57.138439" lon="9.293012">
<ele>23.641669</ele>
<time>2026-07-15T13:58:26.000Z</time>
</trkpt>
<trkpt lat="57.138416" lon="9.293078">
<ele>23.677510</ele>
<time>2026-07-15T13:58:27.000Z</time>
</trkpt>
<trkpt lat="57.138393" lon="9.293143">
<ele>23.712967</ele>
<time>2026-07-15T13:58:28.000Z</time>
</trkpt>
<trkpt lat="57.138371" lon="9.293206">
<ele>23.747200</ele>
<time>2026-07-15T13:58:29.000Z</time>
</trkpt>
<trkpt lat="57.138351" lon="9.293272">
<ele>23.781741</ele>
<time>2026-07-15T13:58:30.000Z</time>
</trkpt>
<trkpt lat="57.138329" lon="9.293338">
<ele>23.817134</ele>
<time>2026-07-15T13:58:31.000Z</time>
</trkpt>
<trkpt lat="57.138313" lon="9.293405">
<ele>23.850582</ele>
<time>2026-07-15T13:58:32.000Z</time>
</trkpt>
<trkpt lat="57.138291" lon="9.293470">
<ele>23.885587</ele>
<time>2026-07-15T13:58:33.000Z</time>
</trkpt>
<trkpt lat="57.138268" lon="9.293535">
<ele>23.921044</ele>
<time>2026-07-15T13:58:34.000Z</time>
</trkpt>
<trkpt lat="57.138245" lon="9.293596">
<ele>23.954985</ele>
<time>2026-07-15T13:58:35.000Z</time>
</trkpt>
<trkpt lat="57.138226" lon="9.293660">
<ele>23.988320</ele>
<time>2026-07-15T13:58:36.000Z</time>
</trkpt>
<trkpt lat="57.138204" lon="9.293720">
<ele>24.021408</ele>
<time>2026-07-15T13:58:37.000Z</time>
</trkpt>
<trkpt lat="57.138180" lon="9.293785">
<ele>24.057332</ele>
<time>2026-07-15T13:58:38.000Z</time>
</trkpt>
<trkpt lat="57.138157" lon="9.293848">
<ele>24.092028</ele>
<time>2026-07-15T13:58:39.000Z</time>
</trkpt>
<trkpt lat="57.138138" lon="9.293913">
<ele>24.125764</ele>
<time>2026-07-15T13:58:40.000Z</time>
</trkpt>
<trkpt lat="57.138115" lon="9.293979">
<ele>24.161605</ele>
<time>2026-07-15T13:58:41.000Z</time>
</trkpt>
<trkpt lat="57.138096" lon="9.294046">
<ele>24.196148</ele>
<time>2026-07-15T13:58:42.000Z</time>
</trkpt>
<trkpt lat="57.138078" lon="9.294109">
<ele>24.228682</ele>
<time>2026-07-15T13:58:43.000Z</time>
</trkpt>
<trkpt lat="57.138058" lon="9.294178">
<ele>24.264427</ele>
<time>2026-07-15T13:58:44.000Z</time>
</trkpt>
<trkpt lat="57.138039" lon="9.294242">
<ele>24.297761</ele>
<time>2026-07-15T13:58:45.000Z</time>
</trkpt>
<trkpt lat="57.138023" lon="9.294309">
<ele>24.329332</ele>
<time>2026-07-15T13:58:46.000Z</time>
</trkpt>
<trkpt lat="57.138012" lon="9.294372">
<ele>24.353106</ele>
<time>2026-07-15T13:58:47.000Z</time>
</trkpt>
<trkpt lat="57.138004" lon="9.294439">
<ele>24.377751</ele>
<time>2026-07-15T13:58:48.000Z</time>
</trkpt>
<trkpt lat="57.138001" lon="9.294502">
<ele>24.400470</ele>
<time>2026-07-15T13:58:49.000Z</time>
</trkpt>
<trkpt lat="57.138000" lon="9.294574">
<ele>24.426343</ele>
<time>2026-07-15T13:58:50.000Z</time>
</trkpt>
<trkpt lat="57.138000" lon="9.294639">
<ele>24.449694</ele>
<time>2026-07-15T13:58:51.000Z</time>
</trkpt>
<trkpt lat="57.138008" lon="9.294705">
<ele>24.473988</ele>
<time>2026-07-15T13:58:52.000Z</time>
</trkpt>
<trkpt lat="57.138016" lon="9.294767">
<ele>24.496881</ele>
<time>2026-07-15T13:58:53.000Z</time>
</trkpt>
<trkpt lat="57.138031" lon="9.294824">
<ele>24.519639</ele>
<time>2026-07-15T13:58:54.000Z</time>
</trkpt>
<trkpt lat="57.138050" lon="9.294880">
<ele>24.543365</ele>
<time>2026-07-15T13:58:55.000Z</time>
</trkpt>
<trkpt lat="57.138069" lon="9.294930">
<ele>24.565293</ele>
<time>2026-07-15T13:58:56.000Z</time>
</trkpt>
<trkpt lat="57.138092" lon="9.294978">
<ele>24.588297</ele>
<time>2026-07-15T13:58:57.000Z</time>
</trkpt>
<trkpt lat="57.138119" lon="9.295029">
<ele>24.613894</ele>
<time>2026-07-15T13:58:58.000Z</time>
</trkpt>
<trkpt lat="57.138145" lon="9.295080">
<ele>24.639032</ele>
<time>2026-07-15T13:58:59.000Z</time>
</trkpt>
<trkpt lat="57.138168" lon="9.295140">
<ele>24.665423</ele>
<time>2026-07-15T13:59:00.000Z</time>
</trkpt>
<trkpt lat="57.138187" lon="9.295203">
<ele>24.691315</ele>
<time>2026-07-15T13:59:01.000Z</time>
</trkpt>
<trkpt lat="57.138207" lon="9.295272">
<ele>24.719417</ele>
<time>2026-07-15T13:59:02.000Z</time>
</trkpt>
<trkpt lat="57.138225" lon="9.295341">
<ele>24.746920</ele>
<time>2026-07-15T13:59:03.000Z</time>
</trkpt>
<trkpt lat="57.138244" lon="9.295411">
<ele>24.775037</ele>
<time>2026-07-15T13:59:04.000Z</time>
</trkpt>
<trkpt lat="57.138256" lon="9.295488">
<ele>24.803816</ele>
<time>2026-07-15T13:59:05.000Z</time>
</trkpt>
<trkpt lat="57.138267" lon="9.295564">
<ele>24.832073</ele>
<time>2026-07-15T13:59:06.000Z</time>
</trkpt>
<trkpt lat="57.138275" lon="9.295639">
<ele>24.859531</ele>
<time>2026-07-15T13:59:07.000Z</time>
</trkpt>
<trkpt lat="57.138281" lon="9.295713">
<ele>24.886409</ele>
<time>2026-07-15T13:59:08.000Z</time>
</trkpt>
<trkpt lat="57.138286" lon="9.295786">
<ele>24.912841</ele>
<time>2026-07-15T13:59:09.000Z</time>
</trkpt>
<trkpt lat="57.138290" lon="9.295861">
<ele>24.939914</ele>
<time>2026-07-15T13:59:10.000Z</time>
</trkpt>
<trkpt lat="57.138290" lon="9.295935">
<ele>24.966497</ele>
<time>2026-07-15T13:59:11.000Z</time>
</trkpt>
<trkpt lat="57.138294" lon="9.296010">
<ele>24.993569</ele>
<time>2026-07-15T13:59:12.000Z</time>
</trkpt>
<trkpt lat="57.138290" lon="9.296085">
<ele>25.020642</ele>
<time>2026-07-15T13:59:13.000Z</time>
</trkpt>
<trkpt lat="57.138287" lon="9.296162">
<ele>25.048374</ele>
<time>2026-07-15T13:59:14.000Z</time>
</trkpt>
<trkpt lat="57.138287" lon="9.296238">
<ele>25.075676</ele>
<time>2026-07-15T13:59:15.000Z</time>
</trkpt>
<trkpt lat="57.138283" lon="9.296313">
<ele>25.102748</ele>
<time>2026-07-15T13:59:16.000Z</time>
</trkpt>
<trkpt lat="57.138279" lon="9.296388">
<ele>25.129820</ele>
<time>2026-07-15T13:59:17.000Z</time>
</trkpt>
<trkpt lat="57.138275" lon="9.296461">
<ele>25.156178</ele>
<time>2026-07-15T13:59:18.000Z</time>
</trkpt>
<trkpt lat="57.138275" lon="9.296533">
<ele>25.182042</ele>
<time>2026-07-15T13:59:19.000Z</time>
</trkpt>
<trkpt lat="57.138271" lon="9.296608">
<ele>25.209115</ele>
<time>2026-07-15T13:59:20.000Z</time>
</trkpt>
<trkpt lat="57.138268" lon="9.296674">
<ele>25.232907</ele>
<time>2026-07-15T13:59:21.000Z</time>
</trkpt>
<trkpt lat="57.138267" lon="9.296753">
<ele>25.261294</ele>
<time>2026-07-15T13:59:22.000Z</time>
</trkpt>
<trkpt lat="57.138264" lon="9.296823">
<ele>25.286519</ele>
<time>2026-07-15T13:59:23.000Z</time>
</trkpt>
<trkpt lat="57.138264" lon="9.296893">
<ele>25.311665</ele>
<time>2026-07-15T13:59:24.000Z</time>
</trkpt>
<trkpt lat="57.138260" lon="9.296963">
<ele>25.336951</ele>
<time>2026-07-15T13:59:25.000Z</time>
</trkpt>
<trkpt lat="57.138252" lon="9.297035">
<ele>25.363352</ele>
<time>2026-07-15T13:59:26.000Z</time>
</trkpt>
<trkpt lat="57.138248" lon="9.297105">
<ele>25.388638</ele>
<time>2026-07-15T13:59:27.000Z</time>
</trkpt>
<trkpt lat="57.138241" lon="9.297178">
<ele>25.415268</ele>
<time>2026-07-15T13:59:28.000Z</time>
</trkpt>
<trkpt lat="57.138233" lon="9.297250">
<ele>25.441670</ele>
<time>2026-07-15T13:59:29.000Z</time>
</trkpt>
<trkpt lat="57.138229" lon="9.297324">
<ele>25.468385</ele>
<time>2026-07-15T13:59:30.000Z</time>
</trkpt>
<trkpt lat="57.138226" lon="9.297396">
<ele>25.494326</ele>
<time>2026-07-15T13:59:31.000Z</time>
</trkpt>
<trkpt lat="57.138222" lon="9.297468">
<ele>25.539214</ele>
<time>2026-07-15T13:59:32.000Z</time>
</trkpt>
<trkpt lat="57.138214" lon="9.297541">
<ele>25.636957</ele>
<time>2026-07-15T13:59:33.000Z</time>
</trkpt>
<trkpt lat="57.138210" lon="9.297617">
<ele>25.737172</ele>
<time>2026-07-15T13:59:34.000Z</time>
</trkpt>
<trkpt lat="57.138206" lon="9.297691">
<ele>25.834775</ele>
<time>2026-07-15T13:59:35.000Z</time>
</trkpt>
<trkpt lat="57.138199" lon="9.297767">
<ele>25.935948</ele>
<time>2026-07-15T13:59:36.000Z</time>
</trkpt>
<trkpt lat="57.138191" lon="9.297841">
<ele>26.034979</ele>
<time>2026-07-15T13:59:37.000Z</time>
</trkpt>
<trkpt lat="57.138184" lon="9.297920">
<ele>26.140037</ele>
<time>2026-07-15T13:59:38.000Z</time>
</trkpt>
<trkpt lat="57.138180" lon="9.298001">
<ele>26.246785</ele>
<time>2026-07-15T13:59:39.000Z</time>
</trkpt>
<trkpt lat="57.138172" lon="9.298084">
<ele>26.357424</ele>
<time>2026-07-15T13:59:40.000Z</time>
</trkpt>
<trkpt lat="57.138161" lon="9.298168">
<ele>26.470836</ele>
<time>2026-07-15T13:59:41.000Z</time>
</trkpt>
<trkpt lat="57.138153" lon="9.298252">
<ele>26.582768</ele>
<time>2026-07-15T13:59:42.000Z</time>
</trkpt>
<trkpt lat="57.138146" lon="9.298338">
<ele>26.696902</ele>
<time>2026-07-15T13:59:43.000Z</time>
</trkpt>
<trkpt lat="57.138134" lon="9.298426">
<ele>26.815990</ele>
<time>2026-07-15T13:59:44.000Z</time>
</trkpt>
<trkpt lat="57.138126" lon="9.298514">
<ele>26.933096</ele>
<time>2026-07-15T13:59:45.000Z</time>
</trkpt>
<trkpt lat="57.138119" lon="9.298602">
<ele>27.049827</ele>
<time>2026-07-15T13:59:46.000Z</time>
</trkpt>
<trkpt lat="57.138107" lon="9.298693">
<ele>27.172737</ele>
<time>2026-07-15T13:59:47.000Z</time>
</trkpt>
<trkpt lat="57.138092" lon="9.298787">
<ele>27.301333</ele>
<time>2026-07-15T13:59:48.000Z</time>
</trkpt>
<trkpt lat="57.138081" lon="9.298873">
<ele>27.417298</ele>
<time>2026-07-15T13:59:49.000Z</time>
</trkpt>
<trkpt lat="57.138069" lon="9.298965">
<ele>27.541484</ele>
<time>2026-07-15T13:59:50.000Z</time>
</trkpt>
<trkpt lat="57.138058" lon="9.299052">
<ele>27.658727</ele>
<time>2026-07-15T13:59:51.000Z</time>
</trkpt>
<trkpt lat="57.138046" lon="9.299137">
<ele>27.774000</ele>
<time>2026-07-15T13:59:52.000Z</time>
</trkpt>
<trkpt lat="57.138035" lon="9.299217">
<ele>27.882316</ele>
<time>2026-07-15T13:59:53.000Z</time>
</trkpt>
<trkpt lat="57.138027" lon="9.299298">
<ele>27.990372</ele>
<time>2026-07-15T13:59:54.000Z</time>
</trkpt>
<trkpt lat="57.138012" lon="9.299376">
<ele>28.098983</ele>
<time>2026-07-15T13:59:55.000Z</time>
</trkpt>
<trkpt lat="57.137997" lon="9.299454">
<ele>28.207595</ele>
<time>2026-07-15T13:59:56.000Z</time>
</trkpt>
<trkpt lat="57.137978" lon="9.299525">
<ele>28.311496</ele>
<time>2026-07-15T13:59:57.000Z</time>
</trkpt>
<trkpt lat="57.137959" lon="9.299590">
<ele>28.408397</ele>
<time>2026-07-15T13:59:58.000Z</time>
</trkpt>
<trkpt lat="57.137943" lon="9.299652">
<ele>28.498504</ele>
<time>2026-07-15T13:59:59.000Z</time>
</trkpt>
<trkpt lat="57.137921" lon="9.299706">
<ele>28.587130</ele>
<time>2026-07-15T14:00:00.000Z</time>
</trkpt>
<trkpt lat="57.137902" lon="9.299759">
<ele>28.670501</ele>
<time>2026-07-15T14:00:01.000Z</time>
</trkpt>
<trkpt lat="57.137879" lon="9.299815">
<ele>28.762680</ele>
<time>2026-07-15T14:00:02.000Z</time>
</trkpt>
<trkpt lat="57.137856" lon="9.299874">
<ele>28.858027</ele>
<time>2026-07-15T14:00:03.000Z</time>
</trkpt>
<trkpt lat="57.137836" lon="9.299936">
<ele>28.952694</ele>
<time>2026-07-15T14:00:04.000Z</time>
</trkpt>
<trkpt lat="57.137822" lon="9.299996">
<ele>29.038414</ele>
<time>2026-07-15T14:00:05.000Z</time>
</trkpt>
<trkpt lat="57.137806" lon="9.300061">
<ele>29.132092</ele>
<time>2026-07-15T14:00:06.000Z</time>
</trkpt>
<trkpt lat="57.137795" lon="9.300123">
<ele>29.217705</ele>
<time>2026-07-15T14:00:07.000Z</time>
</trkpt>
<trkpt lat="57.137783" lon="9.300180">
<ele>29.297949</ele>
<time>2026-07-15T14:00:08.000Z</time>
</trkpt>
<trkpt lat="57.137773" lon="9.300227">
<ele>29.364208</ele>
<time>2026-07-15T14:00:09.000Z</time>
</trkpt>
<trkpt lat="57.137764" lon="9.300285">
<ele>29.443383</ele>
<time>2026-07-15T14:00:10.000Z</time>
</trkpt>
<trkpt lat="57.137760" lon="9.300335">
<ele>29.509716</ele>
<time>2026-07-15T14:00:11.000Z</time>
</trkpt>
<trkpt lat="57.137741" lon="9.300388">
<ele>29.593087</ele>
<time>2026-07-15T14:00:12.000Z</time>
</trkpt>
<trkpt lat="57.137730" lon="9.300430">
<ele>29.654296</ele>
<time>2026-07-15T14:00:13.000Z</time>
</trkpt>
<trkpt lat="57.137719" lon="9.300467">
<ele>29.709669</ele>
<time>2026-07-15T14:00:14.000Z</time>
</trkpt>
<trkpt lat="57.137707" lon="9.300506">
<ele>29.768512</ele>
<time>2026-07-15T14:00:15.000Z</time>
</trkpt>
<trkpt lat="57.137691" lon="9.300553">
<ele>29.841333</ele>
<time>2026-07-15T14:00:16.000Z</time>
</trkpt>
<trkpt lat="57.137680" lon="9.300595">
<ele>30.005471</ele>
<time>2026-07-15T14:00:17.000Z</time>
</trkpt>
<trkpt lat="57.137669" lon="9.300636">
<ele>30.224592</ele>
<time>2026-07-15T14:00:18.000Z</time>
</trkpt>
<trkpt lat="57.137658" lon="9.300679">
<ele>30.452341</ele>
<time>2026-07-15T14:00:19.000Z</time>
</trkpt>
<trkpt lat="57.137642" lon="9.300734">
<ele>30.751313</ele>
<time>2026-07-15T14:00:20.000Z</time>
</trkpt>
<trkpt lat="57.137631" lon="9.300773">
<ele>30.961888</ele>
<time>2026-07-15T14:00:21.000Z</time>
</trkpt>
<trkpt lat="57.137615" lon="9.300810">
<ele>31.188551</ele>
<time>2026-07-15T14:00:22.000Z</time>
</trkpt>
<trkpt lat="57.137601" lon="9.300849">
<ele>31.412578</ele>
<time>2026-07-15T14:00:23.000Z</time>
</trkpt>
<trkpt lat="57.137589" lon="9.300891">
<ele>31.639981</ele>
<time>2026-07-15T14:00:24.000Z</time>
</trkpt>
<trkpt lat="57.137578" lon="9.300928">
<ele>31.842102</ele>
<time>2026-07-15T14:00:25.000Z</time>
</trkpt>
<trkpt lat="57.137569" lon="9.300968">
<ele>32.049555</ele>
<time>2026-07-15T14:00:26.000Z</time>
</trkpt>
<trkpt lat="57.137558" lon="9.301000">
<ele>32.231035</ele>
<time>2026-07-15T14:00:27.000Z</time>
</trkpt>
<trkpt lat="57.137543" lon="9.301032">
<ele>32.433622</ele>
<time>2026-07-15T14:00:28.000Z</time>
</trkpt>
<trkpt lat="57.137493" lon="9.301197">
<ele>33.339018</ele>
<time>2026-07-15T14:00:53.000Z</time>
</trkpt>
<trkpt lat="57.137493" lon="9.301237">
<ele>33.530651</ele>
<time>2026-07-15T14:00:54.000Z</time>
</trkpt>
<trkpt lat="57.137497" lon="9.301276">
<ele>33.720801</ele>
<time>2026-07-15T14:00:55.000Z</time>
</trkpt>
<trkpt lat="57.137501" lon="9.301318">
<ele>33.925091</ele>
<time>2026-07-15T14:00:56.000Z</time>
</trkpt>
<trkpt lat="57.137497" lon="9.301360">
<ele>34.129381</ele>
<time>2026-07-15T14:00:57.000Z</time>
</trkpt>
<trkpt lat="57.137493" lon="9.301402">
<ele>34.333671</ele>
<time>2026-07-15T14:00:58.000Z</time>
</trkpt>
<trkpt lat="57.137493" lon="9.301445">
<ele>34.539676</ele>
<time>2026-07-15T14:00:59.000Z</time>
</trkpt>
<trkpt lat="57.137493" lon="9.301477">
<ele>34.692983</ele>
<time>2026-07-15T14:01:00.000Z</time>
</trkpt>
<trkpt lat="57.137489" lon="9.301518">
<ele>34.892556</ele>
<time>2026-07-15T14:01:01.000Z</time>
</trkpt>
<trkpt lat="57.137485" lon="9.301565">
<ele>35.120477</ele>
<time>2026-07-15T14:01:02.000Z</time>
</trkpt>
<trkpt lat="57.137485" lon="9.301601">
<ele>35.292946</ele>
<time>2026-07-15T14:01:03.000Z</time>
</trkpt>
<trkpt lat="57.137482" lon="9.301639">
<ele>35.476914</ele>
<time>2026-07-15T14:01:04.000Z</time>
</trkpt>
<trkpt lat="57.137474" lon="9.301675">
<ele>35.663286</ele>
<time>2026-07-15T14:01:05.000Z</time>
</trkpt>
<trkpt lat="57.137474" lon="9.301704">
<ele>35.802220</ele>
<time>2026-07-15T14:01:06.000Z</time>
</trkpt>
<trkpt lat="57.137470" lon="9.301745">
<ele>36.001793</ele>
<time>2026-07-15T14:01:07.000Z</time>
</trkpt>
<trkpt lat="57.137466" lon="9.301782">
<ele>36.182537</ele>
<time>2026-07-15T14:01:08.000Z</time>
</trkpt>
<trkpt lat="57.137459" lon="9.301815">
<ele>36.352285</ele>
<time>2026-07-15T14:01:09.000Z</time>
</trkpt>
<trkpt lat="57.137459" lon="9.301846">
<ele>36.500801</ele>
<time>2026-07-15T14:01:10.000Z</time>
</trkpt>
<trkpt lat="57.137455" lon="9.301878">
<ele>36.658122</ele>
<time>2026-07-15T14:01:11.000Z</time>
</trkpt>
<trkpt lat="57.137451" lon="9.301903">
<ele>36.782991</ele>
<time>2026-07-15T14:01:12.000Z</time>
</trkpt>
<trkpt lat="57.137444" lon="9.301930">
<ele>36.926349</ele>
<time>2026-07-15T14:01:13.000Z</time>
</trkpt>
<trkpt lat="57.137440" lon="9.301957">
<ele>37.060436</ele>
<time>2026-07-15T14:01:14.000Z</time>
</trkpt>
<trkpt lat="57.137440" lon="9.301980">
<ele>37.170625</ele>
<time>2026-07-15T14:01:15.000Z</time>
</trkpt>
<trkpt lat="57.137436" lon="9.302008">
<ele>37.309339</ele>
<time>2026-07-15T14:01:16.000Z</time>
</trkpt>
<trkpt lat="57.137428" lon="9.302042">
<ele>37.486881</ele>
<time>2026-07-15T14:01:17.000Z</time>
</trkpt>
<trkpt lat="57.137421" lon="9.302068">
<ele>37.625932</ele>
<time>2026-07-15T14:01:18.000Z</time>
</trkpt>
<trkpt lat="57.137413" lon="9.302100">
<ele>37.794727</ele>
<time>2026-07-15T14:01:19.000Z</time>
</trkpt>
<trkpt lat="57.137402" lon="9.302129">
<ele>37.964240</ele>
<time>2026-07-15T14:01:20.000Z</time>
</trkpt>
<trkpt lat="57.137394" lon="9.302153">
<ele>38.099182</ele>
<time>2026-07-15T14:01:21.000Z</time>
</trkpt>
<trkpt lat="57.137386" lon="9.302176">
<ele>38.230065</ele>
<time>2026-07-15T14:01:22.000Z</time>
</trkpt>
<trkpt lat="57.137379" lon="9.302198">
<ele>38.352247</ele>
<time>2026-07-15T14:01:23.000Z</time>
</trkpt>
<trkpt lat="57.137375" lon="9.302221">
<ele>38.467957</ele>
<time>2026-07-15T14:01:24.000Z</time>
</trkpt>
<trkpt lat="57.137371" lon="9.302252">
<ele>38.620614</ele>
<time>2026-07-15T14:01:25.000Z</time>
</trkpt>
<trkpt lat="57.137363" lon="9.302280">
<ele>38.772216</ele>
<time>2026-07-15T14:01:26.000Z</time>
</trkpt>
<trkpt lat="57.137352" lon="9.302303">
<ele>38.919096</ele>
<time>2026-07-15T14:01:27.000Z</time>
</trkpt>
<trkpt lat="57.137349" lon="9.302322">
<ele>39.013898</ele>
<time>2026-07-15T14:01:28.000Z</time>
</trkpt>
<trkpt lat="57.137341" lon="9.302345">
<ele>39.144781</ele>
<time>2026-07-15T14:01:29.000Z</time>
</trkpt>
<trkpt lat="57.137344" lon="9.302366">
<ele>39.248817</ele>
<time>2026-07-15T14:01:30.000Z</time>
</trkpt>
<trkpt lat="57.137341" lon="9.302388">
<ele>39.357492</ele>
<time>2026-07-15T14:01:31.000Z</time>
</trkpt>
<trkpt lat="57.137337" lon="9.302407">
<ele>39.455129</ele>
<time>2026-07-15T14:01:32.000Z</time>
</trkpt>
<trkpt lat="57.137337" lon="9.302432">
<ele>39.574900</ele>
<time>2026-07-15T14:01:33.000Z</time>
</trkpt>
<trkpt lat="57.137325" lon="9.302459">
<ele>39.742104</ele>
<time>2026-07-15T14:01:34.000Z</time>
</trkpt>
<trkpt lat="57.137322" lon="9.302486">
<ele>39.874140</ele>
<time>2026-07-15T14:01:35.000Z</time>
</trkpt>
<trkpt lat="57.137318" lon="9.302511">
<ele>39.999009</ele>
<time>2026-07-15T14:01:36.000Z</time>
</trkpt>
<trkpt lat="57.137306" lon="9.302543">
<ele>40.185364</ele>
<time>2026-07-15T14:01:37.000Z</time>
</trkpt>
<trkpt lat="57.137295" lon="9.302568">
<ele>40.339562</ele>
<time>2026-07-15T14:01:38.000Z</time>
</trkpt>
<trkpt lat="57.137291" lon="9.302592">
<ele>40.459844</ele>
<time>2026-07-15T14:01:39.000Z</time>
</trkpt>
<trkpt lat="57.137283" lon="9.302617">
<ele>40.598890</ele>
<time>2026-07-15T14:01:40.000Z</time>
</trkpt>
<trkpt lat="57.137276" lon="9.302644">
<ele>40.742249</ele>
<time>2026-07-15T14:01:41.000Z</time>
</trkpt>
<trkpt lat="57.137268" lon="9.302673">
<ele>40.898107</ele>
<time>2026-07-15T14:01:42.000Z</time>
</trkpt>
<trkpt lat="57.137264" lon="9.302696">
<ele>41.013817</ele>
<time>2026-07-15T14:01:43.000Z</time>
</trkpt>
<trkpt lat="57.137260" lon="9.302720">
<ele>41.134099</ele>
<time>2026-07-15T14:01:44.000Z</time>
</trkpt>
<trkpt lat="57.137260" lon="9.302742">
<ele>41.239498</ele>
<time>2026-07-15T14:01:45.000Z</time>
</trkpt>
<trkpt lat="57.137253" lon="9.302781">
<ele>41.436297</ele>
<time>2026-07-15T14:01:46.000Z</time>
</trkpt>
<trkpt lat="57.137249" lon="9.302807">
<ele>41.565769</ele>
<time>2026-07-15T14:01:47.000Z</time>
</trkpt>
<trkpt lat="57.137241" lon="9.302835">
<ele>41.717371</ele>
<time>2026-07-15T14:01:48.000Z</time>
</trkpt>
<trkpt lat="57.137234" lon="9.302854">
<ele>41.827396</ele>
<time>2026-07-15T14:01:49.000Z</time>
</trkpt>
<trkpt lat="57.137226" lon="9.302881">
<ele>41.974776</ele>
<time>2026-07-15T14:01:50.000Z</time>
</trkpt>
<trkpt lat="57.137222" lon="9.302910">
<ele>42.118129</ele>
<time>2026-07-15T14:01:51.000Z</time>
</trkpt>
<trkpt lat="57.137215" lon="9.302938">
<ele>42.265825</ele>
<time>2026-07-15T14:01:52.000Z</time>
</trkpt>
<trkpt lat="57.137211" lon="9.302959">
<ele>42.372452</ele>
<time>2026-07-15T14:01:53.000Z</time>
</trkpt>
<trkpt lat="57.137203" lon="9.302997">
<ele>42.567726</ele>
<time>2026-07-15T14:01:54.000Z</time>
</trkpt>
<trkpt lat="57.137196" lon="9.303028">
<ele>42.728588</ele>
<time>2026-07-15T14:01:55.000Z</time>
</trkpt>
<trkpt lat="57.137188" lon="9.303059">
<ele>42.893045</ele>
<time>2026-07-15T14:01:56.000Z</time>
</trkpt>
<trkpt lat="57.137177" lon="9.303102">
<ele>43.120797</ele>
<time>2026-07-15T14:01:57.000Z</time>
</trkpt>
<trkpt lat="57.137165" lon="9.303137">
<ele>43.319144</ele>
<time>2026-07-15T14:01:58.000Z</time>
</trkpt>
<trkpt lat="57.137158" lon="9.303167">
<ele>43.475594</ele>
<time>2026-07-15T14:01:59.000Z</time>
</trkpt>
<trkpt lat="57.137142" lon="9.303211">
<ele>43.729348</ele>
<time>2026-07-15T14:02:00.000Z</time>
</trkpt>
<trkpt lat="57.137139" lon="9.303245">
<ele>43.894377</ele>
<time>2026-07-15T14:02:01.000Z</time>
</trkpt>
<trkpt lat="57.137127" lon="9.303284">
<ele>44.109168</ele>
<time>2026-07-15T14:02:02.000Z</time>
</trkpt>
<trkpt lat="57.137119" lon="9.303318">
<ele>44.286712</ele>
<time>2026-07-15T14:02:03.000Z</time>
</trkpt>
<trkpt lat="57.137108" lon="9.303357">
<ele>44.497289</ele>
<time>2026-07-15T14:02:04.000Z</time>
</trkpt>
<trkpt lat="57.137104" lon="9.303390">
<ele>44.659284</ele>
<time>2026-07-15T14:02:05.000Z</time>
</trkpt>
<trkpt lat="57.137100" lon="9.303418">
<ele>44.797999</ele>
<time>2026-07-15T14:02:06.000Z</time>
</trkpt>
<trkpt lat="57.137093" lon="9.303446">
<ele>44.945696</ele>
<time>2026-07-15T14:02:07.000Z</time>
</trkpt>
<trkpt lat="57.137085" lon="9.303485">
<ele>45.145445</ele>
<time>2026-07-15T14:02:08.000Z</time>
</trkpt>
<trkpt lat="57.137073" lon="9.303516">
<ele>45.327879</ele>
<time>2026-07-15T14:02:09.000Z</time>
</trkpt>
<trkpt lat="57.137077" lon="9.303546">
<ele>45.475880</ele>
<time>2026-07-15T14:02:10.000Z</time>
</trkpt>
<trkpt lat="57.137073" lon="9.303580">
<ele>45.642554</ele>
<time>2026-07-15T14:02:11.000Z</time>
</trkpt>
<trkpt lat="57.137066" lon="9.303616">
<ele>45.790653</ele>
<time>2026-07-15T14:02:12.000Z</time>
</trkpt>
<trkpt lat="57.137066" lon="9.303645">
<ele>45.870024</ele>
<time>2026-07-15T14:02:13.000Z</time>
</trkpt>
<trkpt lat="57.137066" lon="9.303680">
<ele>45.965817</ele>
<time>2026-07-15T14:02:14.000Z</time>
</trkpt>
<trkpt lat="57.137066" lon="9.303710">
<ele>46.047925</ele>
<time>2026-07-15T14:02:15.000Z</time>
</trkpt>
<trkpt lat="57.137066" lon="9.303739">
<ele>46.127296</ele>
<time>2026-07-15T14:02:16.000Z</time>
</trkpt>
<trkpt lat="57.137070" lon="9.303768">
<ele>46.209191</ele>
<time>2026-07-15T14:02:17.000Z</time>
</trkpt>
<trkpt lat="57.137073" lon="9.303800">
<ele>46.298071</ele>
<time>2026-07-15T14:02:18.000Z</time>
</trkpt>
<trkpt lat="57.137073" lon="9.303832">
<ele>46.385653</ele>
<time>2026-07-15T14:02:19.000Z</time>
</trkpt>
<trkpt lat="57.137077" lon="9.303865">
<ele>46.478198</ele>
<time>2026-07-15T14:02:20.000Z</time>
</trkpt>
<trkpt lat="57.137077" lon="9.303898">
<ele>46.568516</ele>
<time>2026-07-15T14:02:21.000Z</time>
</trkpt>
<trkpt lat="57.137077" lon="9.303930">
<ele>46.656098</ele>
<time>2026-07-15T14:02:22.000Z</time>
</trkpt>
<trkpt lat="57.137077" lon="9.303967">
<ele>46.757365</ele>
<time>2026-07-15T14:02:23.000Z</time>
</trkpt>
<trkpt lat="57.137077" lon="9.303998">
<ele>46.842210</ele>
<time>2026-07-15T14:02:24.000Z</time>
</trkpt>
<trkpt lat="57.137077" lon="9.304030">
<ele>46.929792</ele>
<time>2026-07-15T14:02:25.000Z</time>
</trkpt>
<trkpt lat="57.137077" lon="9.304073">
<ele>47.047480</ele>
<time>2026-07-15T14:02:26.000Z</time>
</trkpt>
<trkpt lat="57.137073" lon="9.304115">
<ele>47.164188</ele>
<time>2026-07-15T14:02:27.000Z</time>
</trkpt>
<trkpt lat="57.137073" lon="9.304150">
<ele>47.259981</ele>
<time>2026-07-15T14:02:28.000Z</time>
</trkpt>
<trkpt lat="57.137073" lon="9.304187">
<ele>47.361248</ele>
<time>2026-07-15T14:02:29.000Z</time>
</trkpt>
<trkpt lat="57.137070" lon="9.304222">
<ele>47.458228</ele>
<time>2026-07-15T14:02:30.000Z</time>
</trkpt>
<trkpt lat="57.137066" lon="9.304257">
<ele>47.556122</ele>
<time>2026-07-15T14:02:31.000Z</time>
</trkpt>
<trkpt lat="57.137058" lon="9.304300">
<ele>47.680536</ele>
<time>2026-07-15T14:02:32.000Z</time>
</trkpt>
<trkpt lat="57.137054" lon="9.304335">
<ele>47.778430</ele>
<time>2026-07-15T14:02:33.000Z</time>
</trkpt>
<trkpt lat="57.137047" lon="9.304373">
<ele>47.888263</ele>
<time>2026-07-15T14:02:34.000Z</time>
</trkpt>
<trkpt lat="57.137035" lon="9.304417">
<ele>48.023043</ele>
<time>2026-07-15T14:02:35.000Z</time>
</trkpt>
<trkpt lat="57.137028" lon="9.304456">
<ele>48.135471</ele>
<time>2026-07-15T14:02:36.000Z</time>
</trkpt>
<trkpt lat="57.137020" lon="9.304500">
<ele>48.262477</ele>
<time>2026-07-15T14:02:37.000Z</time>
</trkpt>
<trkpt lat="57.137020" lon="9.304536">
<ele>48.361007</ele>
<time>2026-07-15T14:02:38.000Z</time>
</trkpt>
<trkpt lat="57.137012" lon="9.304568">
<ele>48.457437</ele>
<time>2026-07-15T14:02:39.000Z</time>
</trkpt>
<trkpt lat="57.137005" lon="9.304595">
<ele>48.539336</ele>
<time>2026-07-15T14:02:40.000Z</time>
</trkpt>
<trkpt lat="57.136997" lon="9.304631">
<ele>48.645808</ele>
<time>2026-07-15T14:02:41.000Z</time>
</trkpt>
<trkpt lat="57.136990" lon="9.304668">
<ele>48.753053</ele>
<time>2026-07-15T14:02:42.000Z</time>
</trkpt>
<trkpt lat="57.136978" lon="9.304710">
<ele>48.882965</ele>
<time>2026-07-15T14:02:43.000Z</time>
</trkpt>
<trkpt lat="57.136975" lon="9.304750">
<ele>48.993484</ele>
<time>2026-07-15T14:02:44.000Z</time>
</trkpt>
<trkpt lat="57.136970" lon="9.304785">
<ele>49.092541</ele>
<time>2026-07-15T14:02:45.000Z</time>
</trkpt>
<trkpt lat="57.136967" lon="9.304818">
<ele>49.184119</ele>
<time>2026-07-15T14:02:46.000Z</time>
</trkpt>
<trkpt lat="57.136967" lon="9.304847">
<ele>49.263490</ele>
<time>2026-07-15T14:02:47.000Z</time>
</trkpt>
<trkpt lat="57.136959" lon="9.304882">
<ele>49.367435</ele>
<time>2026-07-15T14:02:48.000Z</time>
</trkpt>
<trkpt lat="57.136948" lon="9.304909">
<ele>49.459842</ele>
<time>2026-07-15T14:02:49.000Z</time>
</trkpt>
<trkpt lat="57.136940" lon="9.304931">
<ele>49.532325</ele>
<time>2026-07-15T14:02:50.000Z</time>
</trkpt>
<trkpt lat="57.136932" lon="9.304956">
<ele>49.611760</ele>
<time>2026-07-15T14:02:51.000Z</time>
</trkpt>
<trkpt lat="57.136917" lon="9.304987">
<ele>49.725438</ele>
<time>2026-07-15T14:02:52.000Z</time>
</trkpt>
<trkpt lat="57.136903" lon="9.305018">
<ele>49.835824</ele>
<time>2026-07-15T14:02:53.000Z</time>
</trkpt>
<trkpt lat="57.136890" lon="9.305047">
<ele>49.938776</ele>
<time>2026-07-15T14:02:54.000Z</time>
</trkpt>
<trkpt lat="57.136887" lon="9.305072">
<ele>50.008853</ele>
<time>2026-07-15T14:02:55.000Z</time>
</trkpt>
<trkpt lat="57.136887" lon="9.305084">
<ele>50.041697</ele>
<time>2026-07-15T14:02:56.000Z</time>
</trkpt>
<trkpt lat="57.136887" lon="9.305087">
<ele>50.049907</ele>
<time>2026-07-15T14:02:57.000Z</time>
</trkpt>
<trkpt lat="57.136887" lon="9.305087">
<ele>50.049907</ele>
<time>2026-07-15T14:02:58.000Z</time>
</trkpt>
<trkpt lat="57.136868" lon="9.305210">
<ele>50.399927</ele>
<time>2026-07-15T14:03:05.000Z</time>
</trkpt>
<trkpt lat="57.136858" lon="9.305234">
<ele>50.482745</ele>
<time>2026-07-15T14:03:06.000Z</time>
</trkpt>
<trkpt lat="57.136845" lon="9.305268">
<ele>50.596582</ele>
<time>2026-07-15T14:03:07.000Z</time>
</trkpt>
<trkpt lat="57.136841" lon="9.305292">
<ele>50.665297</ele>
<time>2026-07-15T14:03:08.000Z</time>
</trkpt>
<trkpt lat="57.136834" lon="9.305309">
<ele>50.723705</ele>
<time>2026-07-15T14:03:09.000Z</time>
</trkpt>
<trkpt lat="57.136822" lon="9.305331">
<ele>50.809080</ele>
<time>2026-07-15T14:03:10.000Z</time>
</trkpt>
<trkpt lat="57.136822" lon="9.305351">
<ele>50.863819</ele>
<time>2026-07-15T14:03:11.000Z</time>
</trkpt>
<trkpt lat="57.136810" lon="9.305378">
<ele>50.959340</ele>
<time>2026-07-15T14:03:12.000Z</time>
</trkpt>
<trkpt lat="57.136795" lon="9.305410">
<ele>51.075076</ele>
<time>2026-07-15T14:03:13.000Z</time>
</trkpt>
<trkpt lat="57.136787" lon="9.305438">
<ele>51.161684</ele>
<time>2026-07-15T14:03:14.000Z</time>
</trkpt>
<trkpt lat="57.136772" lon="9.305469">
<ele>51.275363</ele>
<time>2026-07-15T14:03:15.000Z</time>
</trkpt>
<trkpt lat="57.136748" lon="9.305501">
<ele>51.424776</ele>
<time>2026-07-15T14:03:16.000Z</time>
</trkpt>
<trkpt lat="57.136723" lon="9.305549">
<ele>51.606873</ele>
<time>2026-07-15T14:03:17.000Z</time>
</trkpt>
<trkpt lat="57.136694" lon="9.305591">
<ele>51.792908</ele>
<time>2026-07-15T14:03:18.000Z</time>
</trkpt>
<trkpt lat="57.136658" lon="9.305634">
<ele>52.009291</ele>
<time>2026-07-15T14:03:19.000Z</time>
</trkpt>
<trkpt lat="57.136625" lon="9.305672">
<ele>52.205559</ele>
<time>2026-07-15T14:03:20.000Z</time>
</trkpt>
<trkpt lat="57.136593" lon="9.305712">
<ele>52.400588</ele>
<time>2026-07-15T14:03:21.000Z</time>
</trkpt>
<trkpt lat="57.136563" lon="9.305743">
<ele>52.574067</ele>
<time>2026-07-15T14:03:22.000Z</time>
</trkpt>
<trkpt lat="57.136532" lon="9.305775">
<ele>52.753284</ele>
<time>2026-07-15T14:03:23.000Z</time>
</trkpt>
<trkpt lat="57.136501" lon="9.305798">
<ele>52.921839</ele>
<time>2026-07-15T14:03:24.000Z</time>
</trkpt>
<trkpt lat="57.136471" lon="9.305817">
<ele>53.081840</ele>
<time>2026-07-15T14:03:25.000Z</time>
</trkpt>
<trkpt lat="57.136440" lon="9.305835">
<ele>53.245777</ele>
<time>2026-07-15T14:03:26.000Z</time>
</trkpt>
<trkpt lat="57.136417" lon="9.305862">
<ele>53.383322</ele>
<time>2026-07-15T14:03:27.000Z</time>
</trkpt>
<trkpt lat="57.136387" lon="9.305888">
<ele>53.550535</ele>
<time>2026-07-15T14:03:28.000Z</time>
</trkpt>
<trkpt lat="57.136356" lon="9.305920">
<ele>53.729753</ele>
<time>2026-07-15T14:03:29.000Z</time>
</trkpt>
<trkpt lat="57.136331" lon="9.305947">
<ele>53.875907</ele>
<time>2026-07-15T14:03:30.000Z</time>
</trkpt>
<trkpt lat="57.136300" lon="9.305983">
<ele>54.060722</ele>
<time>2026-07-15T14:03:31.000Z</time>
</trkpt>
<trkpt lat="57.136267" lon="9.306019">
<ele>54.254146</ele>
<time>2026-07-15T14:03:32.000Z</time>
</trkpt>
<trkpt lat="57.136227" lon="9.306060">
<ele>54.485007</ele>
<time>2026-07-15T14:03:33.000Z</time>
</trkpt>
<trkpt lat="57.136185" lon="9.306091">
<ele>54.713207</ele>
<time>2026-07-15T14:03:34.000Z</time>
</trkpt>
<trkpt lat="57.136146" lon="9.306122">
<ele>54.864502</ele>
<time>2026-07-15T14:03:35.000Z</time>
</trkpt>
<trkpt lat="57.136112" lon="9.306148">
<ele>54.945405</ele>
<time>2026-07-15T14:03:36.000Z</time>
</trkpt>
<trkpt lat="57.136082" lon="9.306178">
<ele>55.020421</ele>
<time>2026-07-15T14:03:37.000Z</time>
</trkpt>
<trkpt lat="57.136051" lon="9.306209">
<ele>55.097937</ele>
<time>2026-07-15T14:03:38.000Z</time>
</trkpt>
<trkpt lat="57.136024" lon="9.306236">
<ele>55.165451</ele>
<time>2026-07-15T14:03:39.000Z</time>
</trkpt>
<trkpt lat="57.136002" lon="9.306258">
<ele>55.220463</ele>
<time>2026-07-15T14:03:40.000Z</time>
</trkpt>
<trkpt lat="57.135983" lon="9.306282">
<ele>55.271089</ele>
<time>2026-07-15T14:03:41.000Z</time>
</trkpt>
<trkpt lat="57.135960" lon="9.306307">
<ele>55.329776</ele>
<time>2026-07-15T14:03:42.000Z</time>
</trkpt>
<trkpt lat="57.135937" lon="9.306336">
<ele>55.391025</ele>
<time>2026-07-15T14:03:43.000Z</time>
</trkpt>
<trkpt lat="57.135914" lon="9.306367">
<ele>55.453651</ele>
<time>2026-07-15T14:03:44.000Z</time>
</trkpt>
<trkpt lat="57.135892" lon="9.306398">
<ele>55.514518</ele>
<time>2026-07-15T14:03:45.000Z</time>
</trkpt>
<trkpt lat="57.135864" lon="9.306425">
<ele>55.583972</ele>
<time>2026-07-15T14:03:46.000Z</time>
</trkpt>
<trkpt lat="57.135839" lon="9.306452">
<ele>55.647657</ele>
<time>2026-07-15T14:03:47.000Z</time>
</trkpt>
<trkpt lat="57.135807" lon="9.306481">
<ele>55.726030</ele>
<time>2026-07-15T14:03:48.000Z</time>
</trkpt>
<trkpt lat="57.135775" lon="9.306507">
<ele>55.802892</ele>
<time>2026-07-15T14:03:49.000Z</time>
</trkpt>
<trkpt lat="57.135746" lon="9.306533">
<ele>55.873771</ele>
<time>2026-07-15T14:03:50.000Z</time>
</trkpt>
<trkpt lat="57.135726" lon="9.306556">
<ele>55.925583</ele>
<time>2026-07-15T14:03:51.000Z</time>
</trkpt>
<trkpt lat="57.135693" lon="9.306586">
<ele>56.006455</ele>
<time>2026-07-15T14:03:52.000Z</time>
</trkpt>
<trkpt lat="57.135666" lon="9.306615">
<ele>56.075139</ele>
<time>2026-07-15T14:03:53.000Z</time>
</trkpt>
<trkpt lat="57.135635" lon="9.306646">
<ele>56.152656</ele>
<time>2026-07-15T14:03:54.000Z</time>
</trkpt>
<trkpt lat="57.135613" lon="9.306673">
<ele>56.210748</ele>
<time>2026-07-15T14:03:55.000Z</time>
</trkpt>
<trkpt lat="57.135593" lon="9.306695">
<ele>56.261939</ele>
<time>2026-07-15T14:03:56.000Z</time>
</trkpt>
<trkpt lat="57.135570" lon="9.306723">
<ele>56.322523</ele>
<time>2026-07-15T14:03:57.000Z</time>
</trkpt>
<trkpt lat="57.135544" lon="9.306760">
<ele>56.394721</ele>
<time>2026-07-15T14:03:58.000Z</time>
</trkpt>
<trkpt lat="57.135521" lon="9.306803">
<ele>56.466729</ele>
<time>2026-07-15T14:03:59.000Z</time>
</trkpt>
<trkpt lat="57.135494" lon="9.306847">
<ele>56.545944</ele>
<time>2026-07-15T14:04:00.000Z</time>
</trkpt>
<trkpt lat="57.135467" lon="9.306895">
<ele>56.628396</ele>
<time>2026-07-15T14:04:01.000Z</time>
</trkpt>
<trkpt lat="57.135441" lon="9.306943">
<ele>56.709282</ele>
<time>2026-07-15T14:04:02.000Z</time>
</trkpt>
<trkpt lat="57.135418" lon="9.306993">
<ele>56.787456</ele>
<time>2026-07-15T14:04:03.000Z</time>
</trkpt>
<trkpt lat="57.135395" lon="9.307049">
<ele>56.871217</ele>
<time>2026-07-15T14:04:04.000Z</time>
</trkpt>
<trkpt lat="57.135369" lon="9.307101">
<ele>56.955546</ele>
<time>2026-07-15T14:04:05.000Z</time>
</trkpt>
<trkpt lat="57.135341" lon="9.307159">
<ele>57.048130</ele>
<time>2026-07-15T14:04:06.000Z</time>
</trkpt>
<trkpt lat="57.135315" lon="9.307215">
<ele>57.136027</ele>
<time>2026-07-15T14:04:07.000Z</time>
</trkpt>
<trkpt lat="57.135284" lon="9.307279">
<ele>57.238341</ele>
<time>2026-07-15T14:04:08.000Z</time>
</trkpt>
<trkpt lat="57.135258" lon="9.307334">
<ele>57.325335</ele>
<time>2026-07-15T14:04:09.000Z</time>
</trkpt>
<trkpt lat="57.135231" lon="9.307400">
<ele>57.423911</ele>
<time>2026-07-15T14:04:10.000Z</time>
</trkpt>
<trkpt lat="57.135209" lon="9.307461">
<ele>57.511265</ele>
<time>2026-07-15T14:04:11.000Z</time>
</trkpt>
<trkpt lat="57.135185" lon="9.307531">
<ele>57.610017</ele>
<time>2026-07-15T14:04:12.000Z</time>
</trkpt>
<trkpt lat="57.135166" lon="9.307596">
<ele>57.698071</ele>
<time>2026-07-15T14:04:13.000Z</time>
</trkpt>
<trkpt lat="57.135147" lon="9.307665">
<ele>57.790352</ele>
<time>2026-07-15T14:04:14.000Z</time>
</trkpt>
<trkpt lat="57.135132" lon="9.307730">
<ele>57.874593</ele>
<time>2026-07-15T14:04:15.000Z</time>
</trkpt>
<trkpt lat="57.135117" lon="9.307795">
<ele>57.958833</ele>
<time>2026-07-15T14:04:16.000Z</time>
</trkpt>
<trkpt lat="57.135105" lon="9.307853">
<ele>58.032864</ele>
<time>2026-07-15T14:04:17.000Z</time>
</trkpt>
<trkpt lat="57.135090" lon="9.307912">
<ele>58.110570</ele>
<time>2026-07-15T14:04:18.000Z</time>
</trkpt>
<trkpt lat="57.135078" lon="9.307975">
<ele>58.190202</ele>
<time>2026-07-15T14:04:19.000Z</time>
</trkpt>
<trkpt lat="57.135067" lon="9.308040">
<ele>58.271406</ele>
<time>2026-07-15T14:04:20.000Z</time>
</trkpt>
<trkpt lat="57.135056" lon="9.308099">
<ele>58.345810</ele>
<time>2026-07-15T14:04:21.000Z</time>
</trkpt>
<trkpt lat="57.135048" lon="9.308157">
<ele>58.417183</ele>
<time>2026-07-15T14:04:22.000Z</time>
</trkpt>
<trkpt lat="57.135041" lon="9.308211">
<ele>58.483399</ele>
<time>2026-07-15T14:04:23.000Z</time>
</trkpt>
<trkpt lat="57.135029" lon="9.308276">
<ele>58.565284</ele>
<time>2026-07-15T14:04:24.000Z</time>
</trkpt>
<trkpt lat="57.135021" lon="9.308338">
<ele>58.641291</ele>
<time>2026-07-15T14:04:25.000Z</time>
</trkpt>
<trkpt lat="57.135010" lon="9.308396">
<ele>58.714567</ele>
<time>2026-07-15T14:04:26.000Z</time>
</trkpt>
<trkpt lat="57.134998" lon="9.308453">
<ele>58.801332</ele>
<time>2026-07-15T14:04:27.000Z</time>
</trkpt>
<trkpt lat="57.134987" lon="9.308510">
<ele>58.927353</ele>
<time>2026-07-15T14:04:28.000Z</time>
</trkpt>
<trkpt lat="57.134976" lon="9.308567">
<ele>59.053375</ele>
<time>2026-07-15T14:04:29.000Z</time>
</trkpt>
<trkpt lat="57.134968" lon="9.308623">
<ele>59.174003</ele>
<time>2026-07-15T14:04:30.000Z</time>
</trkpt>
<trkpt lat="57.134957" lon="9.308675">
<ele>59.290263</ele>
<time>2026-07-15T14:04:31.000Z</time>
</trkpt>
<trkpt lat="57.134949" lon="9.308728">
<ele>59.404859</ele>
<time>2026-07-15T14:04:32.000Z</time>
</trkpt>
<trkpt lat="57.134941" lon="9.308780">
<ele>59.517449</ele>
<time>2026-07-15T14:04:33.000Z</time>
</trkpt>
<trkpt lat="57.134930" lon="9.308835">
<ele>59.639553</ele>
<time>2026-07-15T14:04:34.000Z</time>
</trkpt>
<trkpt lat="57.134918" lon="9.308887">
<ele>59.757262</ele>
<time>2026-07-15T14:04:35.000Z</time>
</trkpt>
<trkpt lat="57.134907" lon="9.308938">
<ele>59.871584</ele>
<time>2026-07-15T14:04:36.000Z</time>
</trkpt>
<trkpt lat="57.134899" lon="9.308988">
<ele>59.980172</ele>
<time>2026-07-15T14:04:37.000Z</time>
</trkpt>
<trkpt lat="57.134892" lon="9.309043">
<ele>60.097852</ele>
<time>2026-07-15T14:04:38.000Z</time>
</trkpt>
<trkpt lat="57.134880" lon="9.309097">
<ele>60.219406</ele>
<time>2026-07-15T14:04:39.000Z</time>
</trkpt>
<trkpt lat="57.134869" lon="9.309154">
<ele>60.345428</ele>
<time>2026-07-15T14:04:40.000Z</time>
</trkpt>
<trkpt lat="57.134857" lon="9.309209">
<ele>60.468912</ele>
<time>2026-07-15T14:04:41.000Z</time>
</trkpt>
<trkpt lat="57.134850" lon="9.309265">
<ele>60.588621</ele>
<time>2026-07-15T14:04:42.000Z</time>
</trkpt>
<trkpt lat="57.134838" lon="9.309321">
<ele>60.714040</ele>
<time>2026-07-15T14:04:43.000Z</time>
</trkpt>
<trkpt lat="57.134830" lon="9.309375">
<ele>60.830644</ele>
<time>2026-07-15T14:04:44.000Z</time>
</trkpt>
<trkpt lat="57.134824" lon="9.309421">
<ele>60.929197</ele>
<time>2026-07-15T14:04:45.000Z</time>
</trkpt>
<trkpt lat="57.134815" lon="9.309485">
<ele>61.066919</ele>
<time>2026-07-15T14:04:46.000Z</time>
</trkpt>
<trkpt lat="57.134804" lon="9.309537">
<ele>61.183180</ele>
<time>2026-07-15T14:04:47.000Z</time>
</trkpt>
<trkpt lat="57.134796" lon="9.309593">
<ele>61.303808</ele>
<time>2026-07-15T14:04:48.000Z</time>
</trkpt>
<trkpt lat="57.134789" lon="9.309646">
<ele>61.417436</ele>
<time>2026-07-15T14:04:49.000Z</time>
</trkpt>
<trkpt lat="57.134777" lon="9.309699">
<ele>61.537065</ele>
<time>2026-07-15T14:04:50.000Z</time>
</trkpt>
<trkpt lat="57.134769" lon="9.309753">
<ele>61.653670</ele>
<time>2026-07-15T14:04:51.000Z</time>
</trkpt>
<trkpt lat="57.134762" lon="9.309803">
<ele>61.761236</ele>
<time>2026-07-15T14:04:52.000Z</time>
</trkpt>
<trkpt lat="57.134751" lon="9.309853">
<ele>61.873625</ele>
<time>2026-07-15T14:04:53.000Z</time>
</trkpt>
<trkpt lat="57.134743" lon="9.309905">
<ele>61.986216</ele>
<time>2026-07-15T14:04:54.000Z</time>
</trkpt>
<trkpt lat="57.134735" lon="9.309958">
<ele>62.100812</ele>
<time>2026-07-15T14:04:55.000Z</time>
</trkpt>
<trkpt lat="57.134724" lon="9.310010">
<ele>62.217073</ele>
<time>2026-07-15T14:04:56.000Z</time>
</trkpt>
<trkpt lat="57.134716" lon="9.310063">
<ele>62.331670</ele>
<time>2026-07-15T14:04:57.000Z</time>
</trkpt>
<trkpt lat="57.134708" lon="9.310119">
<ele>62.452299</ele>
<time>2026-07-15T14:04:58.000Z</time>
</trkpt>
<trkpt lat="57.134697" lon="9.310174">
<ele>62.574403</ele>
<time>2026-07-15T14:04:59.000Z</time>
</trkpt>
<trkpt lat="57.134689" lon="9.310228">
<ele>62.691008</ele>
<time>2026-07-15T14:05:00.000Z</time>
</trkpt>
<trkpt lat="57.134682" lon="9.310282">
<ele>62.806661</ele>
<time>2026-07-15T14:05:01.000Z</time>
</trkpt>
<trkpt lat="57.134674" lon="9.310338">
<ele>62.927290</ele>
<time>2026-07-15T14:05:02.000Z</time>
</trkpt>
<trkpt lat="57.134666" lon="9.310393">
<ele>63.045906</ele>
<time>2026-07-15T14:05:03.000Z</time>
</trkpt>
<trkpt lat="57.134663" lon="9.310440">
<ele>63.144487</ele>
<time>2026-07-15T14:05:04.000Z</time>
</trkpt>
<trkpt lat="57.134655" lon="9.310482">
<ele>63.237211</ele>
<time>2026-07-15T14:05:05.000Z</time>
</trkpt>
<trkpt lat="57.134647" lon="9.310529">
<ele>63.339821</ele>
<time>2026-07-15T14:05:06.000Z</time>
</trkpt>
<trkpt lat="57.134644" lon="9.310569">
<ele>63.423938</ele>
<time>2026-07-15T14:05:07.000Z</time>
</trkpt>
<trkpt lat="57.134640" lon="9.310612">
<ele>63.514818</ele>
<time>2026-07-15T14:05:08.000Z</time>
</trkpt>
<trkpt lat="57.134636" lon="9.310652">
<ele>63.599546</ele>
<time>2026-07-15T14:05:09.000Z</time>
</trkpt>
<trkpt lat="57.134632" lon="9.310701">
<ele>63.702767</ele>
<time>2026-07-15T14:05:10.000Z</time>
</trkpt>
<trkpt lat="57.134632" lon="9.310736">
<ele>63.775676</ele>
<time>2026-07-15T14:05:11.000Z</time>
</trkpt>
<trkpt lat="57.134632" lon="9.310772">
<ele>63.850669</ele>
<time>2026-07-15T14:05:12.000Z</time>
</trkpt>
<trkpt lat="57.134628" lon="9.310815">
<ele>63.941549</ele>
<time>2026-07-15T14:05:13.000Z</time>
</trkpt>
<trkpt lat="57.134621" lon="9.310855">
<ele>64.029100</ele>
<time>2026-07-15T14:05:14.000Z</time>
</trkpt>
<trkpt lat="57.134617" lon="9.310905">
<ele>64.134381</ele>
<time>2026-07-15T14:05:15.000Z</time>
</trkpt>
<trkpt lat="57.134610" lon="9.310942">
<ele>64.216006</ele>
<time>2026-07-15T14:05:16.000Z</time>
</trkpt>
<trkpt lat="57.134605" lon="9.310985">
<ele>64.307614</ele>
<time>2026-07-15T14:05:17.000Z</time>
</trkpt>
<trkpt lat="57.134598" lon="9.311026">
<ele>64.397149</ele>
<time>2026-07-15T14:05:18.000Z</time>
</trkpt>
<trkpt lat="57.134594" lon="9.311066">
<ele>64.481877</ele>
<time>2026-07-15T14:05:19.000Z</time>
</trkpt>
<trkpt lat="57.134590" lon="9.311108">
<ele>64.570705</ele>
<time>2026-07-15T14:05:20.000Z</time>
</trkpt>
<trkpt lat="57.134579" lon="9.311156">
<ele>64.679245</ele>
<time>2026-07-15T14:05:21.000Z</time>
</trkpt>
<trkpt lat="57.134564" lon="9.311211">
<ele>64.807472</ele>
<time>2026-07-15T14:05:22.000Z</time>
</trkpt>
<trkpt lat="57.134552" lon="9.311265">
<ele>64.929027</ele>
<time>2026-07-15T14:05:23.000Z</time>
</trkpt>
<trkpt lat="57.134541" lon="9.311316">
<ele>65.043350</ele>
<time>2026-07-15T14:05:24.000Z</time>
</trkpt>
<trkpt lat="57.134529" lon="9.311366">
<ele>65.157238</ele>
<time>2026-07-15T14:05:25.000Z</time>
</trkpt>
<trkpt lat="57.134521" lon="9.311408">
<ele>65.249962</ele>
<time>2026-07-15T14:05:26.000Z</time>
</trkpt>
<trkpt lat="57.134510" lon="9.311450">
<ele>65.347110</ele>
<time>2026-07-15T14:05:27.000Z</time>
</trkpt>
<trkpt lat="57.134502" lon="9.311492">
<ele>65.439834</ele>
<time>2026-07-15T14:05:28.000Z</time>
</trkpt>
<trkpt lat="57.134495" lon="9.311534">
<ele>65.531359</ele>
<time>2026-07-15T14:05:29.000Z</time>
</trkpt>
<trkpt lat="57.134487" lon="9.311580">
<ele>65.631983</ele>
<time>2026-07-15T14:05:30.000Z</time>
</trkpt>
<trkpt lat="57.134480" lon="9.311624">
<ele>65.663179</ele>
<time>2026-07-15T14:05:31.000Z</time>
</trkpt>
<trkpt lat="57.134472" lon="9.311658">
<ele>65.648701</ele>
<time>2026-07-15T14:05:32.000Z</time>
</trkpt>
<trkpt lat="57.134461" lon="9.311688">
<ele>65.634556</ele>
<time>2026-07-15T14:05:33.000Z</time>
</trkpt>
<trkpt lat="57.134434" lon="9.311815">
<ele>65.581268</ele>
<time>2026-07-15T14:07:04.000Z</time>
</trkpt>
<trkpt lat="57.134427" lon="9.311850">
<ele>65.566695</ele>
<time>2026-07-15T14:07:05.000Z</time>
</trkpt>
<trkpt lat="57.134419" lon="9.311904">
<ele>65.544826</ele>
<time>2026-07-15T14:07:06.000Z</time>
</trkpt>
<trkpt lat="57.134415" lon="9.311962">
<ele>65.521984</ele>
<time>2026-07-15T14:07:07.000Z</time>
</trkpt>
<trkpt lat="57.134403" lon="9.312021">
<ele>65.497368</ele>
<time>2026-07-15T14:07:08.000Z</time>
</trkpt>
<trkpt lat="57.134392" lon="9.312085">
<ele>65.471141</ele>
<time>2026-07-15T14:07:09.000Z</time>
</trkpt>
<trkpt lat="57.134384" lon="9.312150">
<ele>65.445101</ele>
<time>2026-07-15T14:07:10.000Z</time>
</trkpt>
<trkpt lat="57.134373" lon="9.312218">
<ele>65.417380</ele>
<time>2026-07-15T14:07:11.000Z</time>
</trkpt>
<trkpt lat="57.134362" lon="9.312289">
<ele>65.388533</ele>
<time>2026-07-15T14:07:12.000Z</time>
</trkpt>
<trkpt lat="57.134346" lon="9.312373">
<ele>65.353753</ele>
<time>2026-07-15T14:07:13.000Z</time>
</trkpt>
<trkpt lat="57.134335" lon="9.312443">
<ele>65.325282</ele>
<time>2026-07-15T14:07:14.000Z</time>
</trkpt>
<trkpt lat="57.134323" lon="9.312511">
<ele>65.297346</ele>
<time>2026-07-15T14:07:15.000Z</time>
</trkpt>
<trkpt lat="57.134312" lon="9.312578">
<ele>65.269999</ele>
<time>2026-07-15T14:07:16.000Z</time>
</trkpt>
<trkpt lat="57.134300" lon="9.312650">
<ele>65.240573</ele>
<time>2026-07-15T14:07:17.000Z</time>
</trkpt>
<trkpt lat="57.134285" lon="9.312721">
<ele>65.210806</ele>
<time>2026-07-15T14:07:18.000Z</time>
</trkpt>
<trkpt lat="57.134277" lon="9.312796">
<ele>65.180944</ele>
<time>2026-07-15T14:07:19.000Z</time>
</trkpt>
<trkpt lat="57.134263" lon="9.312864">
<ele>65.152530</ele>
<time>2026-07-15T14:07:20.000Z</time>
</trkpt>
<trkpt lat="57.134251" lon="9.312935">
<ele>65.123478</ele>
<time>2026-07-15T14:07:21.000Z</time>
</trkpt>
<trkpt lat="57.134243" lon="9.313002">
<ele>65.096676</ele>
<time>2026-07-15T14:07:22.000Z</time>
</trkpt>
<trkpt lat="57.134232" lon="9.313077">
<ele>65.066323</ele>
<time>2026-07-15T14:07:23.000Z</time>
</trkpt>
<trkpt lat="57.134218" lon="9.313140">
<ele>65.039726</ele>
<time>2026-07-15T14:07:24.000Z</time>
</trkpt>
<trkpt lat="57.134205" lon="9.313215">
<ele>65.008967</ele>
<time>2026-07-15T14:07:25.000Z</time>
</trkpt>
<trkpt lat="57.134199" lon="9.313267">
<ele>64.988197</ele>
<time>2026-07-15T14:07:26.000Z</time>
</trkpt>
<trkpt lat="57.134182" lon="9.313356">
<ele>64.951335</ele>
<time>2026-07-15T14:07:27.000Z</time>
</trkpt>
<trkpt lat="57.134175" lon="9.313425">
<ele>64.923911</ele>
<time>2026-07-15T14:07:28.000Z</time>
</trkpt>
<trkpt lat="57.134167" lon="9.313507">
<ele>64.891361</ele>
<time>2026-07-15T14:07:29.000Z</time>
</trkpt>
<trkpt lat="57.134148" lon="9.313590">
<ele>64.856168</ele>
<time>2026-07-15T14:07:30.000Z</time>
</trkpt>
<trkpt lat="57.134136" lon="9.313666">
<ele>64.825244</ele>
<time>2026-07-15T14:07:31.000Z</time>
</trkpt>
<trkpt lat="57.134129" lon="9.313729">
<ele>64.800121</ele>
<time>2026-07-15T14:07:32.000Z</time>
</trkpt>
<trkpt lat="57.134114" lon="9.313802">
<ele>64.769625</ele>
<time>2026-07-15T14:07:33.000Z</time>
</trkpt>
<trkpt lat="57.134102" lon="9.313875">
<ele>64.739825</ele>
<time>2026-07-15T14:07:34.000Z</time>
</trkpt>
<trkpt lat="57.134094" lon="9.313953">
<ele>64.708812</ele>
<time>2026-07-15T14:07:35.000Z</time>
</trkpt>
<trkpt lat="57.134087" lon="9.314035">
<ele>64.676382</ele>
<time>2026-07-15T14:07:36.000Z</time>
</trkpt>
<trkpt lat="57.134075" lon="9.314108">
<ele>64.646582</ele>
<time>2026-07-15T14:07:37.000Z</time>
</trkpt>
<trkpt lat="57.134060" lon="9.314192">
<ele>64.612034</ele>
<time>2026-07-15T14:07:38.000Z</time>
</trkpt>
<trkpt lat="57.134052" lon="9.314268">
<ele>64.581788</ele>
<time>2026-07-15T14:07:39.000Z</time>
</trkpt>
<trkpt lat="57.134041" lon="9.314353">
<ele>64.547649</ele>
<time>2026-07-15T14:07:40.000Z</time>
</trkpt>
<trkpt lat="57.134030" lon="9.314430">
<ele>64.516541</ele>
<time>2026-07-15T14:07:41.000Z</time>
</trkpt>
<trkpt lat="57.134022" lon="9.314516">
<ele>64.482452</ele>
<time>2026-07-15T14:07:42.000Z</time>
</trkpt>
<trkpt lat="57.134007" lon="9.314603">
<ele>64.446788</ele>
<time>2026-07-15T14:07:43.000Z</time>
</trkpt>
<trkpt lat="57.133995" lon="9.314692">
<ele>64.410960</ele>
<time>2026-07-15T14:07:44.000Z</time>
</trkpt>
<trkpt lat="57.133987" lon="9.314790">
<ele>64.349180</ele>
<time>2026-07-15T14:07:45.000Z</time>
</trkpt>
<trkpt lat="57.133980" lon="9.314894">
<ele>64.156134</ele>
<time>2026-07-15T14:07:46.000Z</time>
</trkpt>
<trkpt lat="57.133968" lon="9.315006">
<ele>63.945836</ele>
<time>2026-07-15T14:07:47.000Z</time>
</trkpt>
<trkpt lat="57.133957" lon="9.315115">
<ele>63.741605</ele>
<time>2026-07-15T14:07:48.000Z</time>
</trkpt>
<trkpt lat="57.133953" lon="9.315223">
<ele>63.542195</ele>
<time>2026-07-15T14:07:49.000Z</time>
</trkpt>
<trkpt lat="57.133949" lon="9.315329">
<ele>63.346461</ele>
<time>2026-07-15T14:07:50.000Z</time>
</trkpt>
<trkpt lat="57.133946" lon="9.315428">
<ele>63.163809</ele>
<time>2026-07-15T14:07:51.000Z</time>
</trkpt>
<trkpt lat="57.133945" lon="9.315537">
<ele>62.962991</ele>
<time>2026-07-15T14:07:52.000Z</time>
</trkpt>
<trkpt lat="57.133945" lon="9.315636">
<ele>62.780623</ele>
<time>2026-07-15T14:07:53.000Z</time>
</trkpt>
<trkpt lat="57.133945" lon="9.315755">
<ele>62.561413</ele>
<time>2026-07-15T14:07:54.000Z</time>
</trkpt>
<trkpt lat="57.133949" lon="9.315862">
<ele>62.363841</ele>
<time>2026-07-15T14:07:55.000Z</time>
</trkpt>
<trkpt lat="57.133953" lon="9.315954">
<ele>62.193825</ele>
<time>2026-07-15T14:07:56.000Z</time>
</trkpt>
<trkpt lat="57.133953" lon="9.316056">
<ele>62.005930</ele>
<time>2026-07-15T14:07:57.000Z</time>
</trkpt>
<trkpt lat="57.133953" lon="9.316141">
<ele>61.849352</ele>
<time>2026-07-15T14:07:58.000Z</time>
</trkpt>
<trkpt lat="57.133957" lon="9.316235">
<ele>61.675663</ele>
<time>2026-07-15T14:07:59.000Z</time>
</trkpt>
<trkpt lat="57.133957" lon="9.316324">
<ele>61.511716</ele>
<time>2026-07-15T14:08:00.000Z</time>
</trkpt>
<trkpt lat="57.133957" lon="9.316420">
<ele>61.334874</ele>
<time>2026-07-15T14:08:01.000Z</time>
</trkpt>
<trkpt lat="57.133957" lon="9.316528">
<ele>61.135927</ele>
<time>2026-07-15T14:08:02.000Z</time>
</trkpt>
<trkpt lat="57.133965" lon="9.316627">
<ele>60.951549</ele>
<time>2026-07-15T14:08:03.000Z</time>
</trkpt>
<trkpt lat="57.133968" lon="9.316718">
<ele>60.783609</ele>
<time>2026-07-15T14:08:04.000Z</time>
</trkpt>
<trkpt lat="57.133968" lon="9.316822">
<ele>60.592030</ele>
<time>2026-07-15T14:08:05.000Z</time>
</trkpt>
<trkpt lat="57.133968" lon="9.316932">
<ele>60.389399</ele>
<time>2026-07-15T14:08:06.000Z</time>
</trkpt>
<trkpt lat="57.133965" lon="9.317041">
<ele>60.188352</ele>
<time>2026-07-15T14:08:07.000Z</time>
</trkpt>
<trkpt lat="57.133968" lon="9.317146">
<ele>59.994664</ele>
<time>2026-07-15T14:08:08.000Z</time>
</trkpt>
<trkpt lat="57.133972" lon="9.317242">
<ele>59.817302</ele>
<time>2026-07-15T14:08:09.000Z</time>
</trkpt>
<trkpt lat="57.133969" lon="9.317339">
<ele>59.638328</ele>
<time>2026-07-15T14:08:10.000Z</time>
</trkpt>
<trkpt lat="57.133972" lon="9.317438">
<ele>59.455676</ele>
<time>2026-07-15T14:08:11.000Z</time>
</trkpt>
<trkpt lat="57.133980" lon="9.317511">
<ele>59.318488</ele>
<time>2026-07-15T14:08:12.000Z</time>
</trkpt>
<trkpt lat="57.133980" lon="9.317605">
<ele>59.145331</ele>
<time>2026-07-15T14:08:13.000Z</time>
</trkpt>
<trkpt lat="57.133976" lon="9.317704">
<ele>58.962458</ele>
<time>2026-07-15T14:08:14.000Z</time>
</trkpt>
<trkpt lat="57.133980" lon="9.317804">
<ele>58.777749</ele>
<time>2026-07-15T14:08:15.000Z</time>
</trkpt>
<trkpt lat="57.133983" lon="9.317887">
<ele>58.624516</ele>
<time>2026-07-15T14:08:16.000Z</time>
</trkpt>
<trkpt lat="57.133995" lon="9.317980">
<ele>58.448424</ele>
<time>2026-07-15T14:08:17.000Z</time>
</trkpt>
<trkpt lat="57.133995" lon="9.318058">
<ele>58.304741</ele>
<time>2026-07-15T14:08:18.000Z</time>
</trkpt>
<trkpt lat="57.133995" lon="9.318157">
<ele>58.205242</ele>
<time>2026-07-15T14:08:19.000Z</time>
</trkpt>
<trkpt lat="57.133978" lon="9.318270">
<ele>58.108067</ele>
<time>2026-07-15T14:08:20.000Z</time>
</trkpt>
<trkpt lat="57.133976" lon="9.318382">
<ele>58.015202</ele>
<time>2026-07-15T14:08:21.000Z</time>
</trkpt>
<trkpt lat="57.133972" lon="9.318490">
<ele>57.925494</ele>
<time>2026-07-15T14:08:22.000Z</time>
</trkpt>
<trkpt lat="57.133968" lon="9.318595">
<ele>57.838266</ele>
<time>2026-07-15T14:08:23.000Z</time>
</trkpt>
<trkpt lat="57.133968" lon="9.318702">
<ele>57.749595</ele>
<time>2026-07-15T14:08:24.000Z</time>
</trkpt>
<trkpt lat="57.133972" lon="9.318805">
<ele>57.664021</ele>
<time>2026-07-15T14:08:25.000Z</time>
</trkpt>
<trkpt lat="57.133980" lon="9.318909">
<ele>57.576974</ele>
<time>2026-07-15T14:08:26.000Z</time>
</trkpt>
<trkpt lat="57.133980" lon="9.319038">
<ele>57.470072</ele>
<time>2026-07-15T14:08:27.000Z</time>
</trkpt>
<trkpt lat="57.133984" lon="9.319167">
<ele>57.362995</ele>
<time>2026-07-15T14:08:28.000Z</time>
</trkpt>
<trkpt lat="57.133991" lon="9.319300">
<ele>57.252261</ele>
<time>2026-07-15T14:08:29.000Z</time>
</trkpt>
<trkpt lat="57.133987" lon="9.319434">
<ele>57.141047</ele>
<time>2026-07-15T14:08:30.000Z</time>
</trkpt>
<trkpt lat="57.133976" lon="9.319570">
<ele>57.027099</ele>
<time>2026-07-15T14:08:31.000Z</time>
</trkpt>
<trkpt lat="57.133972" lon="9.319707">
<ele>56.913402</ele>
<time>2026-07-15T14:08:32.000Z</time>
</trkpt>
<trkpt lat="57.133976" lon="9.319833">
<ele>56.808808</ele>
<time>2026-07-15T14:08:33.000Z</time>
</trkpt>
<trkpt lat="57.133976" lon="9.319965">
<ele>56.699419</ele>
<time>2026-07-15T14:08:34.000Z</time>
</trkpt>
<trkpt lat="57.133972" lon="9.320097">
<ele>56.589860</ele>
<time>2026-07-15T14:08:35.000Z</time>
</trkpt>
<trkpt lat="57.133972" lon="9.320235">
<ele>56.475499</ele>
<time>2026-07-15T14:08:36.000Z</time>
</trkpt>
<trkpt lat="57.133972" lon="9.320362">
<ele>56.370254</ele>
<time>2026-07-15T14:08:37.000Z</time>
</trkpt>
<trkpt lat="57.133972" lon="9.320493">
<ele>56.261694</ele>
<time>2026-07-15T14:08:38.000Z</time>
</trkpt>
<trkpt lat="57.133980" lon="9.320629">
<ele>56.148331</ele>
<time>2026-07-15T14:08:39.000Z</time>
</trkpt>
<trkpt lat="57.133987" lon="9.320748">
<ele>56.049138</ele>
<time>2026-07-15T14:08:40.000Z</time>
</trkpt>
<trkpt lat="57.133987" lon="9.320887">
<ele>55.933948</ele>
<time>2026-07-15T14:08:41.000Z</time>
</trkpt>
<trkpt lat="57.133995" lon="9.321014">
<ele>55.827997</ele>
<time>2026-07-15T14:08:42.000Z</time>
</trkpt>
<trkpt lat="57.134010" lon="9.321132">
<ele>55.727563</ele>
<time>2026-07-15T14:08:43.000Z</time>
</trkpt>
<trkpt lat="57.134022" lon="9.321248">
<ele>55.629703</ele>
<time>2026-07-15T14:08:44.000Z</time>
</trkpt>
<trkpt lat="57.134037" lon="9.321357">
<ele>55.536515</ele>
<time>2026-07-15T14:08:45.000Z</time>
</trkpt>
<trkpt lat="57.134048" lon="9.321477">
<ele>55.501091</ele>
<time>2026-07-15T14:08:46.000Z</time>
</trkpt>
<trkpt lat="57.134060" lon="9.321596">
<ele>55.473141</ele>
<time>2026-07-15T14:08:47.000Z</time>
</trkpt>
<trkpt lat="57.134071" lon="9.321710">
<ele>55.446402</ele>
<time>2026-07-15T14:08:48.000Z</time>
</trkpt>
<trkpt lat="57.134083" lon="9.321825">
<ele>55.419360</ele>
<time>2026-07-15T14:08:49.000Z</time>
</trkpt>
<trkpt lat="57.134102" lon="9.321935">
<ele>55.392703</ele>
<time>2026-07-15T14:08:50.000Z</time>
</trkpt>
<trkpt lat="57.134117" lon="9.322042">
<ele>55.367183</ele>
<time>2026-07-15T14:08:51.000Z</time>
</trkpt>
<trkpt lat="57.134136" lon="9.322154">
<ele>55.340085</ele>
<time>2026-07-15T14:08:52.000Z</time>
</trkpt>
<trkpt lat="57.134151" lon="9.322267">
<ele>55.313222</ele>
<time>2026-07-15T14:08:53.000Z</time>
</trkpt>
<trkpt lat="57.134167" lon="9.322376">
<ele>55.287147</ele>
<time>2026-07-15T14:08:54.000Z</time>
</trkpt>
<trkpt lat="57.134182" lon="9.322487">
<ele>55.260732</ele>
<time>2026-07-15T14:08:55.000Z</time>
</trkpt>
<trkpt lat="57.134184" lon="9.322623">
<ele>55.229315</ele>
<time>2026-07-15T14:08:56.000Z</time>
</trkpt>
<trkpt lat="57.134187" lon="9.322759">
<ele>55.197883</ele>
<time>2026-07-15T14:08:57.000Z</time>
</trkpt>
<trkpt lat="57.134189" lon="9.322895">
<ele>55.166467</ele>
<time>2026-07-15T14:08:58.000Z</time>
</trkpt>
<trkpt lat="57.134218" lon="9.322997">
<ele>55.139876</ele>
<time>2026-07-15T14:08:59.000Z</time>
</trkpt>
<trkpt lat="57.134241" lon="9.323096">
<ele>55.115008</ele>
<time>2026-07-15T14:09:00.000Z</time>
</trkpt>
<trkpt lat="57.134258" lon="9.323197">
<ele>55.090588</ele>
<time>2026-07-15T14:09:01.000Z</time>
</trkpt>
<trkpt lat="57.134273" lon="9.323297">
<ele>55.066630</ele>
<time>2026-07-15T14:09:02.000Z</time>
</trkpt>
<trkpt lat="57.134284" lon="9.323403">
<ele>55.041709</ele>
<time>2026-07-15T14:09:03.000Z</time>
</trkpt>
<trkpt lat="57.134304" lon="9.323524">
<ele>55.012500</ele>
<time>2026-07-15T14:09:04.000Z</time>
</trkpt>
<trkpt lat="57.134316" lon="9.323631">
<ele>54.987270</ele>
<time>2026-07-15T14:09:05.000Z</time>
</trkpt>
<trkpt lat="57.134334" lon="9.323741">
<ele>54.960739</ele>
<time>2026-07-15T14:09:06.000Z</time>
</trkpt>
<trkpt lat="57.134350" lon="9.323844">
<ele>54.935999</ele>
<time>2026-07-15T14:09:07.000Z</time>
</trkpt>
<trkpt lat="57.134361" lon="9.323942">
<ele>54.912889</ele>
<time>2026-07-15T14:09:08.000Z</time>
</trkpt>
<trkpt lat="57.134373" lon="9.324044">
<ele>54.888788</ele>
<time>2026-07-15T14:09:09.000Z</time>
</trkpt>
<trkpt lat="57.134388" lon="9.324144">
<ele>54.864830</ele>
<time>2026-07-15T14:09:10.000Z</time>
</trkpt>
<trkpt lat="57.134403" lon="9.324237">
<ele>54.842426</ele>
<time>2026-07-15T14:09:11.000Z</time>
</trkpt>
<trkpt lat="57.134415" lon="9.324335">
<ele>54.819227</ele>
<time>2026-07-15T14:09:12.000Z</time>
</trkpt>
<trkpt lat="57.134418" lon="9.324437">
<ele>54.795639</ele>
<time>2026-07-15T14:09:13.000Z</time>
</trkpt>
<trkpt lat="57.134426" lon="9.324547">
<ele>54.770010</ele>
<time>2026-07-15T14:09:14.000Z</time>
</trkpt>
<trkpt lat="57.134430" lon="9.324647">
<ele>54.739330</ele>
<time>2026-07-15T14:09:15.000Z</time>
</trkpt>
<trkpt lat="57.134438" lon="9.324747">
<ele>54.703566</ele>
<time>2026-07-15T14:09:16.000Z</time>
</trkpt>
<trkpt lat="57.134445" lon="9.324844">
<ele>54.668943</ele>
<time>2026-07-15T14:09:17.000Z</time>
</trkpt>
<trkpt lat="57.134456" lon="9.324939">
<ele>54.634574</ele>
<time>2026-07-15T14:09:18.000Z</time>
</trkpt>
<trkpt lat="57.134464" lon="9.325038">
<ele>54.599160</ele>
<time>2026-07-15T14:09:19.000Z</time>
</trkpt>
<trkpt lat="57.134472" lon="9.325130">
<ele>54.566193</ele>
<time>2026-07-15T14:09:20.000Z</time>
</trkpt>
<trkpt lat="57.134480" lon="9.325225">
<ele>54.532178</ele>
<time>2026-07-15T14:09:21.000Z</time>
</trkpt>
<trkpt lat="57.134487" lon="9.325318">
<ele>54.498958</ele>
<time>2026-07-15T14:09:22.000Z</time>
</trkpt>
<trkpt lat="57.134499" lon="9.325408">
<ele>54.466167</ele>
<time>2026-07-15T14:09:23.000Z</time>
</trkpt>
<trkpt lat="57.134510" lon="9.325495">
<ele>54.434561</ele>
<time>2026-07-15T14:09:24.000Z</time>
</trkpt>
<trkpt lat="57.134522" lon="9.325579">
<ele>54.403827</ele>
<time>2026-07-15T14:09:25.000Z</time>
</trkpt>
<trkpt lat="57.134529" lon="9.325656">
<ele>54.376204</ele>
<time>2026-07-15T14:09:26.000Z</time>
</trkpt>
<trkpt lat="57.134541" lon="9.325742">
<ele>54.344786</ele>
<time>2026-07-15T14:09:27.000Z</time>
</trkpt>
<trkpt lat="57.134548" lon="9.325823">
<ele>54.315765</ele>
<time>2026-07-15T14:09:28.000Z</time>
</trkpt>
<trkpt lat="57.134559" lon="9.325894">
<ele>54.289641</ele>
<time>2026-07-15T14:09:29.000Z</time>
</trkpt>
<trkpt lat="57.134567" lon="9.325971">
<ele>54.261902</ele>
<time>2026-07-15T14:09:30.000Z</time>
</trkpt>
<trkpt lat="57.134575" lon="9.326045">
<ele>54.235205</ele>
<time>2026-07-15T14:09:31.000Z</time>
</trkpt>
<trkpt lat="57.134579" lon="9.326121">
<ele>54.208189</ele>
<time>2026-07-15T14:09:32.000Z</time>
</trkpt>
<trkpt lat="57.134586" lon="9.326194">
<ele>54.181960</ele>
<time>2026-07-15T14:09:33.000Z</time>
</trkpt>
<trkpt lat="57.134590" lon="9.326262">
<ele>54.157759</ele>
<time>2026-07-15T14:09:34.000Z</time>
</trkpt>
<trkpt lat="57.134590" lon="9.326320">
<ele>54.137238</ele>
<time>2026-07-15T14:09:35.000Z</time>
</trkpt>
<trkpt lat="57.134594" lon="9.326366">
<ele>54.120755</ele>
<time>2026-07-15T14:09:36.000Z</time>
</trkpt>
<trkpt lat="57.134598" lon="9.326390">
<ele>54.111872</ele>
<time>2026-07-15T14:09:37.000Z</time>
</trkpt>
<trkpt lat="57.134605" lon="9.326443">
<ele>54.092572</ele>
<time>2026-07-15T14:09:43.000Z</time>
</trkpt>
<trkpt lat="57.134612" lon="9.326456">
<ele>54.086092</ele>
<time>2026-07-15T14:09:44.000Z</time>
</trkpt>
<trkpt lat="57.134628" lon="9.326475">
<ele>54.073682</ele>
<time>2026-07-15T14:09:45.000Z</time>
</trkpt>
<trkpt lat="57.134644" lon="9.326487">
<ele>54.062419</ele>
<time>2026-07-15T14:09:46.000Z</time>
</trkpt>
<trkpt lat="57.134663" lon="9.326482">
<ele>54.049905</ele>
<time>2026-07-15T14:09:47.000Z</time>
</trkpt>
<trkpt lat="57.134686" lon="9.326464">
<ele>54.033613</ele>
<time>2026-07-15T14:09:48.000Z</time>
</trkpt>
<trkpt lat="57.134712" lon="9.326442">
<ele>54.014959</ele>
<time>2026-07-15T14:09:49.000Z</time>
</trkpt>
<trkpt lat="57.134739" lon="9.326422">
<ele>53.995987</ele>
<time>2026-07-15T14:09:50.000Z</time>
</trkpt>
<trkpt lat="57.134765" lon="9.326405">
<ele>53.977999</ele>
<time>2026-07-15T14:09:51.000Z</time>
</trkpt>
<trkpt lat="57.134800" lon="9.326388">
<ele>53.954400</ele>
<time>2026-07-15T14:09:52.000Z</time>
</trkpt>
<trkpt lat="57.134828" lon="9.326372">
<ele>53.935286</ele>
<time>2026-07-15T14:09:53.000Z</time>
</trkpt>
<trkpt lat="57.134869" lon="9.326353">
<ele>53.907722</ele>
<time>2026-07-15T14:09:54.000Z</time>
</trkpt>
<trkpt lat="57.134906" lon="9.326335">
<ele>53.882772</ele>
<time>2026-07-15T14:09:55.000Z</time>
</trkpt>
<trkpt lat="57.134949" lon="9.326315">
<ele>53.853857</ele>
<time>2026-07-15T14:09:56.000Z</time>
</trkpt>
<trkpt lat="57.134991" lon="9.326295">
<ele>53.825573</ele>
<time>2026-07-15T14:09:57.000Z</time>
</trkpt>
<trkpt lat="57.135027" lon="9.326276">
<ele>53.801158</ele>
<time>2026-07-15T14:09:58.000Z</time>
</trkpt>
<trkpt lat="57.135071" lon="9.326255">
<ele>53.771523</ele>
<time>2026-07-15T14:09:59.000Z</time>
</trkpt>
<trkpt lat="57.135110" lon="9.326238">
<ele>53.745394</ele>
<time>2026-07-15T14:10:00.000Z</time>
</trkpt>
<trkpt lat="57.135158" lon="9.326220">
<ele>53.713457</ele>
<time>2026-07-15T14:10:01.000Z</time>
</trkpt>
<trkpt lat="57.135204" lon="9.326206">
<ele>53.683059</ele>
<time>2026-07-15T14:10:02.000Z</time>
</trkpt>
<trkpt lat="57.135242" lon="9.326188">
<ele>53.657477</ele>
<time>2026-07-15T14:10:03.000Z</time>
</trkpt>
<trkpt lat="57.135275" lon="9.326171">
<ele>53.635137</ele>
<time>2026-07-15T14:10:04.000Z</time>
</trkpt>
<trkpt lat="57.135314" lon="9.326146">
<ele>53.608214</ele>
<time>2026-07-15T14:10:05.000Z</time>
</trkpt>
<trkpt lat="57.135357" lon="9.326121">
<ele>53.572123</ele>
<time>2026-07-15T14:10:06.000Z</time>
</trkpt>
<trkpt lat="57.135399" lon="9.326112">
<ele>53.525071</ele>
<time>2026-07-15T14:10:07.000Z</time>
</trkpt>
<trkpt lat="57.135448" lon="9.326115">
<ele>53.470515</ele>
<time>2026-07-15T14:10:08.000Z</time>
</trkpt>
<trkpt lat="57.135496" lon="9.326118">
<ele>53.417072</ele>
<time>2026-07-15T14:10:09.000Z</time>
</trkpt>
<trkpt lat="57.135540" lon="9.326125">
<ele>53.367927</ele>
<time>2026-07-15T14:10:10.000Z</time>
</trkpt>
<trkpt lat="57.135589" lon="9.326134">
<ele>53.313131</ele>
<time>2026-07-15T14:10:11.000Z</time>
</trkpt>
<trkpt lat="57.135638" lon="9.326147">
<ele>53.258043</ele>
<time>2026-07-15T14:10:12.000Z</time>
</trkpt>
<trkpt lat="57.135685" lon="9.326160">
<ele>53.205157</ele>
<time>2026-07-15T14:10:13.000Z</time>
</trkpt>
<trkpt lat="57.135725" lon="9.326180">
<ele>53.159037</ele>
<time>2026-07-15T14:10:14.000Z</time>
</trkpt>
<trkpt lat="57.135769" lon="9.326195">
<ele>53.109244</ele>
<time>2026-07-15T14:10:15.000Z</time>
</trkpt>
<trkpt lat="57.135822" lon="9.326206">
<ele>53.049894</ele>
<time>2026-07-15T14:10:16.000Z</time>
</trkpt>
<trkpt lat="57.135875" lon="9.326212">
<ele>52.990806</ele>
<time>2026-07-15T14:10:17.000Z</time>
</trkpt>
<trkpt lat="57.135921" lon="9.326215">
<ele>52.939586</ele>
<time>2026-07-15T14:10:18.000Z</time>
</trkpt>
<trkpt lat="57.135978" lon="9.326223">
<ele>52.875975</ele>
<time>2026-07-15T14:10:19.000Z</time>
</trkpt>
<trkpt lat="57.136026" lon="9.326236">
<ele>52.821988</ele>
<time>2026-07-15T14:10:20.000Z</time>
</trkpt>
<trkpt lat="57.136078" lon="9.326245">
<ele>52.763869</ele>
<time>2026-07-15T14:10:21.000Z</time>
</trkpt>
<trkpt lat="57.136112" lon="9.326255">
<ele>52.725556</ele>
<time>2026-07-15T14:10:22.000Z</time>
</trkpt>
<trkpt lat="57.136135" lon="9.326262">
<ele>52.699615</ele>
<time>2026-07-15T14:10:23.000Z</time>
</trkpt>
<trkpt lat="57.136160" lon="9.326266">
<ele>52.671691</ele>
<time>2026-07-15T14:10:24.000Z</time>
</trkpt>
<trkpt lat="57.136181" lon="9.326272">
<ele>52.648044</ele>
<time>2026-07-15T14:10:25.000Z</time>
</trkpt>
<trkpt lat="57.136196" lon="9.326272">
<ele>52.631352</ele>
<time>2026-07-15T14:10:26.000Z</time>
</trkpt>
<trkpt lat="57.136211" lon="9.326272">
<ele>52.614661</ele>
<time>2026-07-15T14:10:27.000Z</time>
</trkpt>
<trkpt lat="57.136218" lon="9.326276">
<ele>52.606505</ele>
<time>2026-07-15T14:10:28.000Z</time>
</trkpt>
<trkpt lat="57.136234" lon="9.326277">
<ele>52.588691</ele>
<time>2026-07-15T14:10:29.000Z</time>
</trkpt>
<trkpt lat="57.136253" lon="9.326279">
<ele>52.567513</ele>
<time>2026-07-15T14:10:30.000Z</time>
</trkpt>
<trkpt lat="57.136253" lon="9.326279">
<ele>52.567513</ele>
<time>2026-07-15T14:10:31.000Z</time>
</trkpt>
<trkpt lat="57.136306" lon="9.326325">
<ele>52.502323</ele>
<time>2026-07-15T14:11:03.000Z</time>
</trkpt>
<trkpt lat="57.136313" lon="9.326343">
<ele>52.488951</ele>
<time>2026-07-15T14:11:04.000Z</time>
</trkpt>
<trkpt lat="57.136318" lon="9.326380">
<ele>52.465926</ele>
<time>2026-07-15T14:11:05.000Z</time>
</trkpt>
<trkpt lat="57.136322" lon="9.326416">
<ele>52.443737</ele>
<time>2026-07-15T14:11:06.000Z</time>
</trkpt>
<trkpt lat="57.136329" lon="9.326450">
<ele>52.421779</ele>
<time>2026-07-15T14:11:07.000Z</time>
</trkpt>
<trkpt lat="57.136333" lon="9.326487">
<ele>52.398998</ele>
<time>2026-07-15T14:11:08.000Z</time>
</trkpt>
<trkpt lat="57.136337" lon="9.326513">
<ele>52.382679</ele>
<time>2026-07-15T14:11:09.000Z</time>
</trkpt>
<trkpt lat="57.136344" lon="9.326532">
<ele>52.368812</ele>
<time>2026-07-15T14:11:10.000Z</time>
</trkpt>
<trkpt lat="57.136341" lon="9.326549">
<ele>52.358017</ele>
<time>2026-07-15T14:11:11.000Z</time>
</trkpt>
<trkpt lat="57.136337" lon="9.326571">
<ele>52.344007</ele>
<time>2026-07-15T14:11:12.000Z</time>
</trkpt>
<trkpt lat="57.136337" lon="9.326598">
<ele>52.327703</ele>
<time>2026-07-15T14:11:13.000Z</time>
</trkpt>
<trkpt lat="57.136337" lon="9.326628">
<ele>52.309588</ele>
<time>2026-07-15T14:11:14.000Z</time>
</trkpt>
<trkpt lat="57.136337" lon="9.326662">
<ele>52.289058</ele>
<time>2026-07-15T14:11:15.000Z</time>
</trkpt>
<trkpt lat="57.136337" lon="9.326709">
<ele>52.260677</ele>
<time>2026-07-15T14:11:16.000Z</time>
</trkpt>
<trkpt lat="57.136337" lon="9.326751">
<ele>52.235316</ele>
<time>2026-07-15T14:11:17.000Z</time>
</trkpt>
<trkpt lat="57.136337" lon="9.326796">
<ele>52.208144</ele>
<time>2026-07-15T14:11:18.000Z</time>
</trkpt>
<trkpt lat="57.136337" lon="9.326834">
<ele>52.185198</ele>
<time>2026-07-15T14:11:19.000Z</time>
</trkpt>
<trkpt lat="57.136337" lon="9.326888">
<ele>52.152591</ele>
<time>2026-07-15T14:11:20.000Z</time>
</trkpt>
<trkpt lat="57.136334" lon="9.326937">
<ele>52.122815</ele>
<time>2026-07-15T14:11:21.000Z</time>
</trkpt>
<trkpt lat="57.136326" lon="9.326991">
<ele>52.089014</ele>
<time>2026-07-15T14:11:22.000Z</time>
</trkpt>
<trkpt lat="57.136319" lon="9.327043">
<ele>52.056663</ele>
<time>2026-07-15T14:11:23.000Z</time>
</trkpt>
<trkpt lat="57.136311" lon="9.327106">
<ele>52.017593</ele>
<time>2026-07-15T14:11:24.000Z</time>
</trkpt>
<trkpt lat="57.136303" lon="9.327167">
<ele>51.979699</ele>
<time>2026-07-15T14:11:25.000Z</time>
</trkpt>
<trkpt lat="57.136296" lon="9.327225">
<ele>51.943820</ele>
<time>2026-07-15T14:11:26.000Z</time>
</trkpt>
<trkpt lat="57.136288" lon="9.327293">
<ele>51.901805</ele>
<time>2026-07-15T14:11:27.000Z</time>
</trkpt>
<trkpt lat="57.136280" lon="9.327355">
<ele>51.863324</ele>
<time>2026-07-15T14:11:28.000Z</time>
</trkpt>
<trkpt lat="57.136273" lon="9.327420">
<ele>51.823309</ele>
<time>2026-07-15T14:11:29.000Z</time>
</trkpt>
<trkpt lat="57.136269" lon="9.327491">
<ele>51.780206</ele>
<time>2026-07-15T14:11:30.000Z</time>
</trkpt>
<trkpt lat="57.136269" lon="9.327553">
<ele>51.742768</ele>
<time>2026-07-15T14:11:31.000Z</time>
</trkpt>
<trkpt lat="57.136280" lon="9.327612">
<ele>51.705097</ele>
<time>2026-07-15T14:11:32.000Z</time>
</trkpt>
<trkpt lat="57.136291" lon="9.327658">
<ele>51.674743</ele>
<time>2026-07-15T14:11:33.000Z</time>
</trkpt>
<trkpt lat="57.136307" lon="9.327707">
<ele>51.640211</ele>
<time>2026-07-15T14:11:34.000Z</time>
</trkpt>
<trkpt lat="57.136326" lon="9.327754">
<ele>51.604821</ele>
<time>2026-07-15T14:11:35.000Z</time>
</trkpt>
<trkpt lat="57.136345" lon="9.327797">
<ele>51.586804</ele>
<time>2026-07-15T14:11:36.000Z</time>
</trkpt>
<trkpt lat="57.136371" lon="9.327830">
<ele>51.586804</ele>
<time>2026-07-15T14:11:37.000Z</time>
</trkpt>
<trkpt lat="57.136402" lon="9.327858">
<ele>51.586804</ele>
<time>2026-07-15T14:11:38.000Z</time>
</trkpt>
<trkpt lat="57.136428" lon="9.327884">
<ele>51.586804</ele>
<time>2026-07-15T14:11:39.000Z</time>
</trkpt>
<trkpt lat="57.136453" lon="9.327909">
<ele>51.586804</ele>
<time>2026-07-15T14:11:40.000Z</time>
</trkpt>
<trkpt lat="57.136478" lon="9.327942">
<ele>51.586804</ele>
<time>2026-07-15T14:11:41.000Z</time>
</trkpt>
<trkpt lat="57.136505" lon="9.327969">
<ele>51.586804</ele>
<time>2026-07-15T14:11:42.000Z</time>
</trkpt>
<trkpt lat="57.136524" lon="9.327995">
<ele>51.586804</ele>
<time>2026-07-15T14:11:43.000Z</time>
</trkpt>
<trkpt lat="57.136551" lon="9.328018">
<ele>51.586804</ele>
<time>2026-07-15T14:11:44.000Z</time>
</trkpt>
<trkpt lat="57.136566" lon="9.328033">
<ele>51.586804</ele>
<time>2026-07-15T14:11:45.000Z</time>
</trkpt>
<trkpt lat="57.136596" lon="9.328064">
<ele>51.586804</ele>
<time>2026-07-15T14:11:46.000Z</time>
</trkpt>
<trkpt lat="57.136608" lon="9.328103">
<ele>51.586804</ele>
<time>2026-07-15T14:11:47.000Z</time>
</trkpt>
<trkpt lat="57.136627" lon="9.328146">
<ele>51.586804</ele>
<time>2026-07-15T14:11:48.000Z</time>
</trkpt>
<trkpt lat="57.136638" lon="9.328193">
<ele>51.586804</ele>
<time>2026-07-15T14:11:49.000Z</time>
</trkpt>
<trkpt lat="57.136650" lon="9.328247">
<ele>51.586804</ele>
<time>2026-07-15T14:11:50.000Z</time>
</trkpt>
<trkpt lat="57.136654" lon="9.328302">
<ele>51.586804</ele>
<time>2026-07-15T14:11:51.000Z</time>
</trkpt>
<trkpt lat="57.136654" lon="9.328361">
<ele>51.586804</ele>
<time>2026-07-15T14:11:52.000Z</time>
</trkpt>
<trkpt lat="57.136650" lon="9.328421">
<ele>51.586804</ele>
<time>2026-07-15T14:11:53.000Z</time>
</trkpt>
<trkpt lat="57.136650" lon="9.328477">
<ele>51.586804</ele>
<time>2026-07-15T14:11:54.000Z</time>
</trkpt>
<trkpt lat="57.136646" lon="9.328530">
<ele>51.586804</ele>
<time>2026-07-15T14:11:55.000Z</time>
</trkpt>
<trkpt lat="57.136642" lon="9.328590">
<ele>51.586804</ele>
<time>2026-07-15T14:11:56.000Z</time>
</trkpt>
<trkpt lat="57.136639" lon="9.328642">
<ele>51.586804</ele>
<time>2026-07-15T14:11:57.000Z</time>
</trkpt>
<trkpt lat="57.136639" lon="9.328694">
<ele>51.586804</ele>
<time>2026-07-15T14:11:58.000Z</time>
</trkpt>
<trkpt lat="57.136642" lon="9.328749">
<ele>51.586804</ele>
<time>2026-07-15T14:11:59.000Z</time>
</trkpt>
<trkpt lat="57.136642" lon="9.328799">
<ele>51.586804</ele>
<time>2026-07-15T14:12:00.000Z</time>
</trkpt>
<trkpt lat="57.136642" lon="9.328843">
<ele>51.586804</ele>
<time>2026-07-15T14:12:01.000Z</time>
</trkpt>
<trkpt lat="57.136642" lon="9.328896">
<ele>51.586804</ele>
<time>2026-07-15T14:12:02.000Z</time>
</trkpt>
<trkpt lat="57.136642" lon="9.328940">
<ele>51.586804</ele>
<time>2026-07-15T14:12:03.000Z</time>
</trkpt>
<trkpt lat="57.136646" lon="9.328985">
<ele>51.586804</ele>
<time>2026-07-15T14:12:04.000Z</time>
</trkpt>
<trkpt lat="57.136650" lon="9.329026">
<ele>51.586804</ele>
<time>2026-07-15T14:12:05.000Z</time>
</trkpt>
<trkpt lat="57.136646" lon="9.329072">
<ele>51.586804</ele>
<time>2026-07-15T14:12:06.000Z</time>
</trkpt>
<trkpt lat="57.136643" lon="9.329120">
<ele>51.586804</ele>
<time>2026-07-15T14:12:07.000Z</time>
</trkpt>
<trkpt lat="57.136639" lon="9.329170">
<ele>51.586804</ele>
<time>2026-07-15T14:12:08.000Z</time>
</trkpt>
<trkpt lat="57.136635" lon="9.329220">
<ele>51.586804</ele>
<time>2026-07-15T14:12:09.000Z</time>
</trkpt>
<trkpt lat="57.136635" lon="9.329267">
<ele>51.586804</ele>
<time>2026-07-15T14:12:10.000Z</time>
</trkpt>
<trkpt lat="57.136631" lon="9.329310">
<ele>51.586804</ele>
<time>2026-07-15T14:12:11.000Z</time>
</trkpt>
<trkpt lat="57.136631" lon="9.329362">
<ele>51.586804</ele>
<time>2026-07-15T14:12:12.000Z</time>
</trkpt>
<trkpt lat="57.136631" lon="9.329413">
<ele>51.586804</ele>
<time>2026-07-15T14:12:13.000Z</time>
</trkpt>
<trkpt lat="57.136631" lon="9.329462">
<ele>51.586804</ele>
<time>2026-07-15T14:12:14.000Z</time>
</trkpt>
<trkpt lat="57.136627" lon="9.329513">
<ele>51.586804</ele>
<time>2026-07-15T14:12:15.000Z</time>
</trkpt>
<trkpt lat="57.136627" lon="9.329565">
<ele>51.586804</ele>
<time>2026-07-15T14:12:16.000Z</time>
</trkpt>
<trkpt lat="57.136624" lon="9.329610">
<ele>51.586804</ele>
<time>2026-07-15T14:12:17.000Z</time>
</trkpt>
<trkpt lat="57.136623" lon="9.329648">
<ele>51.586804</ele>
<time>2026-07-15T14:12:18.000Z</time>
</trkpt>
<trkpt lat="57.136620" lon="9.329687">
<ele>51.586804</ele>
<time>2026-07-15T14:12:19.000Z</time>
</trkpt>
<trkpt lat="57.136616" lon="9.329732">
<ele>51.586804</ele>
<time>2026-07-15T14:12:20.000Z</time>
</trkpt>
<trkpt lat="57.136608" lon="9.329780">
<ele>51.586804</ele>
<time>2026-07-15T14:12:21.000Z</time>
</trkpt>
<trkpt lat="57.136608" lon="9.329832">
<ele>51.586804</ele>
<time>2026-07-15T14:12:22.000Z</time>
</trkpt>
<trkpt lat="57.136608" lon="9.329875">
<ele>51.586804</ele>
<time>2026-07-15T14:12:23.000Z</time>
</trkpt>
<trkpt lat="57.136608" lon="9.329905">
<ele>51.586804</ele>
<time>2026-07-15T14:12:24.000Z</time>
</trkpt>
<trkpt lat="57.136608" lon="9.329936">
<ele>51.586804</ele>
<time>2026-07-15T14:12:25.000Z</time>
</trkpt>
<trkpt lat="57.136608" lon="9.329958">
<ele>51.586804</ele>
<time>2026-07-15T14:12:26.000Z</time>
</trkpt>
<trkpt lat="57.136604" lon="9.329932">
<ele>51.586804</ele>
<time>2026-07-15T14:12:36.000Z</time>
</trkpt>
<trkpt lat="57.136602" lon="9.329913">
<ele>51.586804</ele>
<time>2026-07-15T14:12:37.000Z</time>
</trkpt>
<trkpt lat="57.136604" lon="9.329870">
<ele>51.586804</ele>
<time>2026-07-15T14:12:38.000Z</time>
</trkpt>
<trkpt lat="57.136608" lon="9.329830">
<ele>51.586804</ele>
<time>2026-07-15T14:12:39.000Z</time>
</trkpt>
<trkpt lat="57.136612" lon="9.329792">
<ele>51.586804</ele>
<time>2026-07-15T14:12:40.000Z</time>
</trkpt>
<trkpt lat="57.136620" lon="9.329745">
<ele>51.586804</ele>
<time>2026-07-15T14:12:41.000Z</time>
</trkpt>
<trkpt lat="57.136623" lon="9.329701">
<ele>51.586804</ele>
<time>2026-07-15T14:12:42.000Z</time>
</trkpt>
<trkpt lat="57.136631" lon="9.329657">
<ele>51.586804</ele>
<time>2026-07-15T14:12:43.000Z</time>
</trkpt>
<trkpt lat="57.136635" lon="9.329610">
<ele>51.586804</ele>
<time>2026-07-15T14:12:44.000Z</time>
</trkpt>
<trkpt lat="57.136635" lon="9.329565">
<ele>51.586804</ele>
<time>2026-07-15T14:12:45.000Z</time>
</trkpt>
<trkpt lat="57.136639" lon="9.329523">
<ele>51.586804</ele>
<time>2026-07-15T14:12:46.000Z</time>
</trkpt>
<trkpt lat="57.136642" lon="9.329483">
<ele>51.586804</ele>
<time>2026-07-15T14:12:47.000Z</time>
</trkpt>
<trkpt lat="57.136646" lon="9.329432">
<ele>51.586804</ele>
<time>2026-07-15T14:12:48.000Z</time>
</trkpt>
<trkpt lat="57.136650" lon="9.329387">
<ele>51.586804</ele>
<time>2026-07-15T14:12:49.000Z</time>
</trkpt>
<trkpt lat="57.136654" lon="9.329342">
<ele>51.586804</ele>
<time>2026-07-15T14:12:50.000Z</time>
</trkpt>
<trkpt lat="57.136658" lon="9.329298">
<ele>51.586804</ele>
<time>2026-07-15T14:12:51.000Z</time>
</trkpt>
<trkpt lat="57.136662" lon="9.329257">
<ele>51.586804</ele>
<time>2026-07-15T14:12:52.000Z</time>
</trkpt>
<trkpt lat="57.136669" lon="9.329213">
<ele>51.586804</ele>
<time>2026-07-15T14:12:53.000Z</time>
</trkpt>
<trkpt lat="57.136669" lon="9.329174">
<ele>51.586804</ele>
<time>2026-07-15T14:12:54.000Z</time>
</trkpt>
<trkpt lat="57.136673" lon="9.329133">
<ele>51.586804</ele>
<time>2026-07-15T14:12:55.000Z</time>
</trkpt>
<trkpt lat="57.136673" lon="9.329097">
<ele>51.586804</ele>
<time>2026-07-15T14:12:56.000Z</time>
</trkpt>
<trkpt lat="57.136673" lon="9.329061">
<ele>51.586804</ele>
<time>2026-07-15T14:12:57.000Z</time>
</trkpt>
<trkpt lat="57.136673" lon="9.329027">
<ele>51.586804</ele>
<time>2026-07-15T14:12:58.000Z</time>
</trkpt>
<trkpt lat="57.136669" lon="9.328992">
<ele>51.586804</ele>
<time>2026-07-15T14:12:59.000Z</time>
</trkpt>
<trkpt lat="57.136669" lon="9.328962">
<ele>51.586804</ele>
<time>2026-07-15T14:13:00.000Z</time>
</trkpt>
<trkpt lat="57.136673" lon="9.328927">
<ele>51.586804</ele>
<time>2026-07-15T14:13:01.000Z</time>
</trkpt>
<trkpt lat="57.136673" lon="9.328895">
<ele>51.586804</ele>
<time>2026-07-15T14:13:02.000Z</time>
</trkpt>
<trkpt lat="57.136661" lon="9.328868">
<ele>51.586804</ele>
<time>2026-07-15T14:13:03.000Z</time>
</trkpt>
<trkpt lat="57.136647" lon="9.328848">
<ele>51.586804</ele>
<time>2026-07-15T14:13:04.000Z</time>
</trkpt>
<trkpt lat="57.136623" lon="9.328834">
<ele>51.586804</ele>
<time>2026-07-15T14:13:05.000Z</time>
</trkpt>
<trkpt lat="57.136601" lon="9.328823">
<ele>51.586804</ele>
<time>2026-07-15T14:13:06.000Z</time>
</trkpt>
<trkpt lat="57.136574" lon="9.328823">
<ele>51.586804</ele>
<time>2026-07-15T14:13:07.000Z</time>
</trkpt>
<trkpt lat="57.136555" lon="9.328828">
<ele>51.586804</ele>
<time>2026-07-15T14:13:08.000Z</time>
</trkpt>
<trkpt lat="57.136532" lon="9.328838">
<ele>51.586804</ele>
<time>2026-07-15T14:13:09.000Z</time>
</trkpt>
<trkpt lat="57.136517" lon="9.328854">
<ele>51.586804</ele>
<time>2026-07-15T14:13:10.000Z</time>
</trkpt>
<trkpt lat="57.136497" lon="9.328877">
<ele>51.586804</ele>
<time>2026-07-15T14:13:11.000Z</time>
</trkpt>
<trkpt lat="57.136478" lon="9.328908">
<ele>51.586804</ele>
<time>2026-07-15T14:13:12.000Z</time>
</trkpt>
<trkpt lat="57.136459" lon="9.328943">
<ele>51.586804</ele>
<time>2026-07-15T14:13:13.000Z</time>
</trkpt>
<trkpt lat="57.136436" lon="9.328977">
<ele>51.586804</ele>
<time>2026-07-15T14:13:14.000Z</time>
</trkpt>
<trkpt lat="57.136421" lon="9.329008">
<ele>51.586804</ele>
<time>2026-07-15T14:13:15.000Z</time>
</trkpt>
<trkpt lat="57.136403" lon="9.329038">
<ele>51.586804</ele>
<time>2026-07-15T14:13:16.000Z</time>
</trkpt>
<trkpt lat="57.136387" lon="9.329060">
<ele>51.586804</ele>
<time>2026-07-15T14:13:17.000Z</time>
</trkpt>
<trkpt lat="57.136375" lon="9.329079">
<ele>51.586804</ele>
<time>2026-07-15T14:13:18.000Z</time>
</trkpt>
<trkpt lat="57.136368" lon="9.329090">
<ele>51.586804</ele>
<time>2026-07-15T14:13:19.000Z</time>
</trkpt>
<trkpt lat="57.136368" lon="9.329086">
<ele>51.586804</ele>
<time>2026-07-15T14:13:21.000Z</time>
</trkpt>
<trkpt lat="57.136360" lon="9.329115">
<ele>51.586804</ele>
<time>2026-07-15T14:13:30.000Z</time>
</trkpt>
<trkpt lat="57.136364" lon="9.329128">
<ele>51.586804</ele>
<time>2026-07-15T14:13:31.000Z</time>
</trkpt>
<trkpt lat="57.136368" lon="9.329144">
<ele>51.586804</ele>
<time>2026-07-15T14:13:32.000Z</time>
</trkpt>
<trkpt lat="57.136368" lon="9.329146">
<ele>51.586804</ele>
<time>2026-07-15T14:13:33.000Z</time>
</trkpt>
<trkpt lat="57.136372" lon="9.329152">
<ele>51.586804</ele>
<time>2026-07-15T14:13:34.000Z</time>
</trkpt>
<trkpt lat="57.136372" lon="9.329146">
<ele>51.586804</ele>
<time>2026-07-15T14:13:35.000Z</time>
</trkpt>
<trkpt lat="57.136372" lon="9.329146">
<ele>51.586804</ele>
<time>2026-07-15T14:13:37.000Z</time>
</trkpt>
</trkseg>
</trk>
</gpx>